
Distance (Route):
Temperature : 13.0°C
Humidity : 86.1%
Pressure : 956.8hPa| Receiver | Frames | First received | Last received |
|---|---|---|---|
| BIOWL1-15 | 840 | 2026-09-04 22:45:53 | 2026-09-05 01:42:25 |
| HSKMA3-T | 622 | 2026-09-04 23:13:12 | 2026-09-05 01:41:40 |
| DL1NUX | 478 | 2026-09-04 23:18:18 | 2026-09-05 01:38:04 |
| DF8AY | 154 | 2026-09-05 01:06:09 | 2026-09-05 01:38:14 |
| DO3DL | 118 | 2026-09-04 22:45:15 | 2026-09-05 00:46:32 |
| DO2JMG | 100 | 2026-09-04 23:17:05 | 2026-09-05 01:16:46 |
| DL3AQ-11 | 99 | 2026-09-04 23:00:49 | 2026-09-05 01:28:12 |
| SONCRA | 69 | 2026-09-04 23:19:11 | 2026-09-05 01:50:24 |
| AU51GT2 | 56 | 2026-09-04 22:51:24 | 2026-09-05 01:15:48 |
| DL1ZP-14 | 56 | 2026-09-04 23:02:12 | 2026-09-05 01:37:39 |
| DO3MHA-12 | 55 | 2026-09-04 23:36:45 | 2026-09-05 00:59:23 |
| DF2AP-13 | 54 | 2026-09-05 01:02:36 | 2026-09-05 01:49:42 |
| DO9LL-15 | 53 | 2026-09-04 22:47:03 | 2026-09-05 01:23:13 |
| DH3RM | 53 | 2026-09-04 22:47:07 | 2026-09-04 23:24:37 |
| DO3MHA-11 | 53 | 2026-09-04 23:34:41 | 2026-09-05 01:02:15 |
| DB0UT-7 | 51 | 2026-09-04 22:51:19 | 2026-09-05 01:36:07 |
| DL1XH-west | 50 | 2026-09-04 23:46:31 | 2026-09-05 00:49:49 |
| WPPR-10 | 49 | 2026-09-04 22:46:56 | 2026-09-05 00:49:37 |
| DD1CC8 | 49 | 2026-09-04 22:50:40 | 2026-09-05 01:28:30 |
| HARRO8 | 48 | 2026-09-04 23:12:46 | 2026-09-05 01:27:20 |
| DM0DOS-11 | 44 | 2026-09-04 22:45:29 | 2026-09-05 01:14:56 |
| DO1YAY-16 | 41 | 2026-09-04 22:51:25 | 2026-09-05 00:49:56 |
| DK9SH | 40 | 2026-09-04 22:54:07 | 2026-09-05 01:27:10 |
| DF7PN | 40 | 2026-09-04 23:24:22 | 2026-09-05 01:25:00 |
| DJ2KF-10 | 38 | 2026-09-04 22:47:19 | 2026-09-05 01:01:00 |
| DO2KSM | 37 | 2026-09-04 22:47:08 | 2026-09-05 00:02:20 |
| EDDB2-11 | 37 | 2026-09-04 23:42:23 | 2026-09-05 01:32:36 |
| BIOWL9-15 | 35 | 2026-09-04 22:47:15 | 2026-09-05 01:28:15 |
| DD1CC1-15 | 34 | 2026-09-04 22:47:02 | 2026-09-05 00:36:44 |
| DJ8HS-15 | 29 | 2026-09-04 23:25:47 | 2026-09-05 01:03:27 |
| DD1CC3-15 | 27 | 2026-09-04 22:47:02 | 2026-09-04 23:52:32 |
| DD8BA-10 | 27 | 2026-09-04 22:59:42 | 2026-09-04 23:35:09 |
| DB0ND-19 | 27 | 2026-09-04 23:03:47 | 2026-09-05 01:30:45 |
| DL3OBA | 26 | 2026-09-04 23:27:16 | 2026-09-05 01:15:33 |
| BUE01 | 25 | 2026-09-04 23:11:53 | 2026-09-05 01:23:20 |
| SO1NDE-10 | 25 | 2026-09-04 23:27:46 | 2026-09-05 01:37:51 |
| DL8OAI-8 | 24 | 2026-09-04 23:41:14 | 2026-09-05 01:24:41 |
| DL1KLB | 20 | 2026-09-04 22:53:44 | 2026-09-04 23:30:23 |
| DC6BW-12 | 18 | 2026-09-04 23:29:24 | 2026-09-05 01:01:20 |
| DB0NH | 17 | 2026-09-04 23:06:14 | 2026-09-05 01:37:37 |
| DL4BBY-15 | 14 | 2026-09-04 23:21:16 | 2026-09-05 01:11:32 |
| DF8AY-15 | 14 | 2026-09-05 01:09:06 | 2026-09-05 01:36:39 |
| DC4HF-4 | 14 | 2026-09-05 01:14:01 | 2026-09-05 01:44:04 |
| DJ3KS | 13 | 2026-09-04 22:54:15 | 2026-09-05 00:18:41 |
| DL1XH1-15 | 13 | 2026-09-04 23:46:53 | 2026-09-05 00:41:23 |
| AM1SDL-15 | 12 | 2026-09-05 00:56:22 | 2026-09-05 01:30:40 |
| NBG1-10 | 11 | 2026-09-04 23:04:11 | 2026-09-05 01:28:31 |
| DB0DAN | 11 | 2026-09-04 23:32:25 | 2026-09-05 01:22:40 |
| DL4XJ-10 | 10 | 2026-09-05 01:07:07 | 2026-09-05 01:18:00 |
| BIOWL7-15 | 9 | 2026-09-04 22:58:18 | 2026-09-05 01:06:41 |
| SONDE2-11 | 9 | 2026-09-04 23:45:34 | 2026-09-05 01:19:52 |
| DJTTGO | 8 | 2026-09-04 23:45:33 | 2026-09-05 01:08:00 |
| DL1CLM-18 | 5 | 2026-09-04 23:31:44 | 2026-09-05 01:17:12 |
| GOEST3-10 | 4 | 2026-09-05 00:18:44 | 2026-09-05 00:34:03 |
| DF7ER-10 | 3 | 2026-09-05 01:14:40 | 2026-09-05 01:22:03 |
| EDDB2-12 | 2 | 2026-09-05 01:03:29 | 2026-09-05 01:06:04 |
| TFSTFS | 2 | 2026-09-05 01:23:21 | 2026-09-05 01:23:23 |
| DL1LOL-11 | 1 | 2026-09-04 23:22:51 | 2026-09-04 23:22:51 |
| Receiver | Date | Latitude | Longitude | Direction | Speed | Altitude | Climb | Temperature | Humidity | Pressure | Voltage | Killtimer | Uptime | BKT | XDATA |
|---|---|---|---|---|---|---|---|---|---|---|---|---|---|---|---|
| SONCRA | 2026-09-05 01:50:24 | 51.43529 | 10.55751 | 95° | 35km/h | 535m | -4.0m/s | 13.0°C | 86.1% | 956.8hPa | 2.7V | 00:00:00 | 00:00:00 | 00:00:00 | |
| SONCRA | 2026-09-05 01:49:53 | 51.43547 | 10.55557 | 100° | 38km/h | 585m | -4.8m/s | 12.6°C | 87.7% | 951.0hPa | 2.7V | 00:00:00 | 00:00:00 | 00:00:00 | |
| DF2AP-13 | 2026-09-05 01:49:42 | 51.43563 | 10.55386 | 98° | 44km/h | 632m | -4.0m/s | 12.4°C | 88.4% | 945.9hPa | 2.7V | 00:00:00 | 03:31:46 | 00:00:00 | |
| DF2AP-13 | 2026-09-05 01:49:37 | 51.43570 | 10.55296 | 94° | 42km/h | 651m | -3.8m/s | 12.2°C | 89.7% | 943.7hPa | 2.7V | 00:00:00 | 03:31:41 | 00:00:00 | |
| DF2AP-13 | 2026-09-05 01:49:32 | 51.43568 | 10.55212 | 85° | 46km/h | 670m | -4.0m/s | 11.9°C | 90.9% | 941.6hPa | 2.7V | 00:00:00 | 03:31:36 | 00:00:00 | |
| SONCRA | 2026-09-05 01:49:22 | 51.43579 | 10.55029 | 92° | 49km/h | 716m | -3.8m/s | 11.7°C | 91.9% | 936.3hPa | 2.7V | 00:00:00 | 00:00:00 | 00:00:00 | |
| DF2AP-13 | 2026-09-05 01:49:21 | 51.43579 | 10.55029 | 93° | 46km/h | 717m | -3.7m/s | 11.7°C | 92.3% | 936.3hPa | 2.7V | 07:14:00 | 03:31:25 | 00:00:00 | |
| DF2AP-13 | 2026-09-05 01:49:16 | 51.43576 | 10.54938 | 88° | 37km/h | 735m | -4.2m/s | 11.5°C | 93.1% | 934.3hPa | 2.7V | 00:00:00 | 03:31:20 | 00:00:00 | |
| DF2AP-13 | 2026-09-05 01:49:11 | 51.43580 | 10.54863 | 103° | 44km/h | 755m | -3.7m/s | 11.3°C | 94.1% | 932.0hPa | 2.7V | 00:00:00 | 03:31:15 | 00:00:00 | |
| DF2AP-13 | 2026-09-05 01:49:06 | 51.43591 | 10.54775 | 97° | 47km/h | 772m | -3.4m/s | 11.1°C | 95.1% | 930.2hPa | 2.7V | 00:00:00 | 03:31:10 | 00:00:00 | |
| SONCRA | 2026-09-05 01:48:51 | 51.43607 | 10.54476 | 98° | 49km/h | 830m | -3.8m/s | 10.5°C | 97.4% | 923.8hPa | 2.7V | 00:00:00 | 00:00:00 | 00:00:00 | |
| DF2AP-13 | 2026-09-05 01:48:45 | 51.43611 | 10.54375 | 91° | 46km/h | 848m | -3.6m/s | 10.4°C | 99.1% | 921.7hPa | 2.7V | 00:00:00 | 03:30:49 | 00:00:00 | |
| DF2AP-13 | 2026-09-05 01:48:40 | 51.43612 | 10.54285 | 95° | 38km/h | 866m | -3.4m/s | 10.2°C | 99.1% | 919.7hPa | 2.7V | 07:15:00 | 03:30:44 | 00:00:00 | |
| DF2AP-13 | 2026-09-05 01:48:35 | 51.43620 | 10.54208 | 101° | 40km/h | 887m | -4.1m/s | 10.0°C | 98.9% | 917.6hPa | 2.7V | 00:00:00 | 03:30:39 | 00:00:00 | |
| DF2AP-13 | 2026-09-05 01:48:30 | 51.43632 | 10.54126 | 104° | 47km/h | 906m | -3.0m/s | 10.1°C | 0% | 915.3hPa | 2.7V | 00:00:00 | 03:30:34 | 00:00:00 | |
| DF2AP-13 | 2026-09-05 01:48:25 | 51.43638 | 10.54031 | 90° | 46km/h | 924m | -3.5m/s | 9.9°C | 99.6% | 913.6hPa | 2.7V | 00:00:00 | 03:30:29 | 00:00:00 | |
| DF2AP-13 | 2026-09-05 01:48:20 | 51.43638 | 10.53940 | 93° | 42km/h | 942m | -3.5m/s | 9.9°C | 93.1% | 911.5hPa | 2.7V | 00:00:00 | 03:30:24 | 00:00:00 | |
| SONCRA | 2026-09-05 01:48:20 | 51.43639 | 10.53922 | 96° | 42km/h | 945m | -3.3m/s | 9.9°C | 93.3% | 911.1hPa | 2.7V | 00:00:00 | 00:00:00 | 00:00:00 | |
| DF2AP-13 | 2026-09-05 01:48:15 | 51.43646 | 10.53858 | 102° | 40km/h | 959m | -3.4m/s | 9.7°C | 95.1% | 909.6hPa | 2.7V | 00:00:00 | 03:30:19 | 00:00:00 | |
| DF2AP-13 | 2026-09-05 01:48:09 | 51.43662 | 10.53765 | 112° | 47km/h | 981m | -3.8m/s | 9.5°C | 98.1% | 907.1hPa | 2.7V | 00:00:00 | 03:30:13 | 00:00:00 | |
| DF2AP-13 | 2026-09-05 01:48:04 | 51.43684 | 10.53676 | 113° | 49km/h | 1000m | -3.5m/s | 9.5°C | 92.4% | 905.1hPa | 2.7V | 00:00:00 | 03:30:08 | 00:00:00 | |
| SONCRA | 2026-09-05 01:47:49 | 51.43724 | 10.53383 | 110° | 42km/h | 1050m | -3.0m/s | 9.2°C | 93.2% | 899.8hPa | 2.7V | 00:00:00 | 00:00:00 | 00:00:00 | |
| DF2AP-13 | 2026-09-05 01:47:48 | 51.43724 | 10.53382 | 111° | 49km/h | 1050m | -2.9m/s | 9.1°C | 93.7% | 899.7hPa | 2.7V | 00:00:00 | 03:29:52 | 00:00:00 | |
| DF2AP-13 | 2026-09-05 01:47:38 | 51.43749 | 10.53191 | 98° | 42km/h | 1080m | -2.7m/s | 8.9°C | 91.7% | 896.5hPa | 2.7V | 00:00:00 | 03:29:42 | 00:00:00 | |
| DF2AP-13 | 2026-09-05 01:47:28 | 51.43773 | 10.53025 | 104° | 47km/h | 1106m | -2.8m/s | 8.7°C | 91.3% | 893.7hPa | 2.7V | 00:00:00 | 03:29:32 | 00:00:00 | |
| DF2AP-13 | 2026-09-05 01:47:18 | 51.43806 | 10.52837 | 109° | 49km/h | 1138m | -3.3m/s | 8.4°C | 94.7% | 890.3hPa | 2.7V | 00:00:00 | 03:29:22 | 00:00:00 | |
| SONCRA | 2026-09-05 01:47:17 | 51.43810 | 10.52820 | 111° | 44km/h | 1141m | -3.2m/s | 8.4°C | 94.1% | 890.2hPa | 2.7V | 00:00:00 | 00:00:00 | 00:00:00 | |
| DF2AP-13 | 2026-09-05 01:47:08 | 51.43846 | 10.52648 | 102° | 47km/h | 1170m | -3.0m/s | 8.1°C | 95.2% | 886.8hPa | 2.7V | 00:00:00 | 03:29:12 | 00:00:00 | |
| SONCRA | 2026-09-05 01:46:46 | 51.43912 | 10.52249 | 109° | 44km/h | 1234m | -2.9m/s | 7.5°C | 96.8% | 880.0hPa | 2.7V | 00:00:00 | 00:00:00 | 00:00:00 | |
| DF2AP-13 | 2026-09-05 01:46:38 | 51.43944 | 10.52101 | 109° | 49km/h | 1253m | -2.2m/s | 7.4°C | 97.9% | 877.9hPa | 2.7V | 07:17:00 | 03:28:42 | 00:00:00 | |
| DF2AP-13 | 2026-09-05 01:46:28 | 51.43985 | 10.51908 | 103° | 47km/h | 1279m | -2.6m/s | 7.2°C | 98.9% | 875.2hPa | 2.7V | 00:00:00 | 03:28:32 | 00:00:00 | |
| DF2AP-13 | 2026-09-05 01:46:18 | 51.44018 | 10.51720 | 112° | 49km/h | 1303m | -2.5m/s | 7.0°C | 96.2% | 872.7hPa | 2.7V | 00:00:00 | 03:28:22 | 00:00:00 | |
| SONCRA | 2026-09-05 01:46:15 | 51.44029 | 10.51660 | 102° | 49km/h | 1311m | -2.6m/s | 7.1°C | 94.6% | 871.9hPa | 2.7V | 00:00:00 | 00:00:00 | 00:00:00 | |
| DF2AP-13 | 2026-09-05 01:46:08 | 51.44054 | 10.51533 | 110° | 47km/h | 1328m | -2.4m/s | 7.0°C | 92.2% | 870.1hPa | 2.7V | 00:00:00 | 03:28:12 | 00:00:00 | |
| DF2AP-13 | 2026-09-05 01:45:58 | 51.44077 | 10.51343 | 102° | 42km/h | 1354m | -2.5m/s | 6.8°C | 93.9% | 867.4hPa | 2.7V | 00:00:00 | 03:28:02 | 00:00:00 | |
| DF2AP-13 | 2026-09-05 01:45:48 | 51.44114 | 10.51181 | 114° | 49km/h | 1380m | -2.2m/s | 6.7°C | 90.0% | 864.4hPa | 2.7V | 00:00:00 | 03:27:52 | 00:00:00 | |
| SONCRA | 2026-09-05 01:45:44 | 51.44130 | 10.51102 | 103° | 49km/h | 1390m | -2.8m/s | 6.6°C | 90.7% | 863.4hPa | 2.7V | 00:00:00 | 00:00:00 | 00:00:00 | |
| DF2AP-13 | 2026-09-05 01:45:38 | 51.44155 | 10.50994 | 113° | 46km/h | 1407m | -2.8m/s | 6.5°C | 92.4% | 861.5hPa | 2.7V | 00:00:00 | 03:27:42 | 00:00:00 | |
| DF2AP-13 | 2026-09-05 01:45:28 | 51.44194 | 10.50826 | 118° | 47km/h | 1435m | -2.9m/s | 6.2°C | 92.5% | 858.6hPa | 2.7V | 00:00:00 | 03:27:32 | 00:00:00 | |
| DF2AP-13 | 2026-09-05 01:45:18 | 51.44242 | 10.50648 | 104° | 44km/h | 1462m | -3.0m/s | 6.2°C | 90.2% | 855.8hPa | 2.7V | 07:18:00 | 03:27:22 | 00:00:00 | |
| SONCRA | 2026-09-05 01:45:13 | 51.44256 | 10.50555 | 105° | 42km/h | 1476m | -2.6m/s | 6.1°C | 88.3% | 854.4hPa | 2.7V | 00:00:00 | 00:00:00 | 00:00:00 | |
| DF2AP-13 | 2026-09-05 01:45:08 | 51.44274 | 10.50480 | 117° | 44km/h | 1490m | -2.9m/s | 6.0°C | 86.8% | 853.0hPa | 2.7V | 00:00:00 | 03:27:12 | 00:00:00 | |
| DF2AP-13 | 2026-09-05 01:44:58 | 51.44326 | 10.50319 | 114° | 55km/h | 1516m | -3.0m/s | 5.8°C | 88.5% | 850.0hPa | 2.7V | 00:00:00 | 03:27:02 | 00:00:00 | |
| DF2AP-13 | 2026-09-05 01:44:48 | 51.44380 | 10.50119 | 106° | 51km/h | 1545m | -2.6m/s | 5.5°C | 89.7% | 847.3hPa | 2.7V | 00:00:00 | 03:26:52 | 00:00:00 | |
| SONCRA | 2026-09-05 01:44:42 | 51.44398 | 10.50003 | 105° | 49km/h | 1563m | -3.1m/s | 5.3°C | 90.6% | 845.4hPa | 2.7V | 00:00:00 | 00:00:00 | 00:00:00 | |
| DF2AP-13 | 2026-09-05 01:44:38 | 51.44417 | 10.49925 | 116° | 49km/h | 1574m | -2.4m/s | 5.2°C | 91.8% | 844.4hPa | 2.7V | 00:00:00 | 03:26:42 | 00:00:00 | |
| DF2AP-13 | 2026-09-05 01:44:28 | 51.44467 | 10.49741 | 113° | 49km/h | 1604m | -3.0m/s | 4.9°C | 92.0% | 841.3hPa | 2.7V | 00:00:00 | 03:26:32 | 00:00:00 | |
| DF2AP-13 | 2026-09-05 01:44:18 | 51.44515 | 10.49559 | 112° | 51km/h | 1632m | -3.0m/s | 4.6°C | 94.2% | 838.4hPa | 2.7V | 00:00:00 | 03:26:22 | 00:00:00 | |
| SONCRA | 2026-09-05 01:44:11 | 51.44551 | 10.49426 | 116° | 51km/h | 1650m | -2.6m/s | 4.5°C | 93.9% | 836.5hPa | 2.7V | 00:00:00 | 00:00:00 | 00:00:00 | |
| DF2AP-13 | 2026-09-05 01:44:08 | 51.44568 | 10.49373 | 114° | 51km/h | 1658m | -2.3m/s | 4.4°C | 94.8% | 835.8hPa | 2.7V | 00:00:00 | 03:26:12 | 00:00:00 | |
| DC4HF-4 | 2026-09-05 01:44:04 | 51.44666 | 10.49000 | 112° | 53km/h | 1701m | -2.4m/s | 4.1°C | 94.4% | 831.1hPa | 2.7V | 00:00:00 | 00:00:00 | 00:00:00 | |
| DF2AP-13 | 2026-09-05 01:43:58 | 51.44619 | 10.49180 | 113° | 53km/h | 1682m | -2.4m/s | 4.2°C | 95.2% | 833.2hPa | 2.7V | 07:20:00 | 03:26:02 | 00:00:00 | |
| DF2AP-13 | 2026-09-05 01:43:48 | 51.44671 | 10.48979 | 115° | 55km/h | 1704m | -2.4m/s | 4.0°C | 96.7% | 830.9hPa | 2.7V | 00:00:00 | 03:25:52 | 00:00:00 | |
| SONCRA | 2026-09-05 01:43:40 | 51.44714 | 10.48817 | 112° | 53km/h | 1723m | -2.3m/s | 4.1°C | 89.1% | 828.9hPa | 2.7V | 00:00:00 | 00:00:00 | 00:00:00 | |
| DF2AP-13 | 2026-09-05 01:43:38 | 51.44724 | 10.48775 | 110° | 57km/h | 1728m | -2.2m/s | 4.0°C | 89.0% | 828.4hPa | 2.7V | 00:00:00 | 03:25:42 | 00:00:00 | |
| DF2AP-13 | 2026-09-05 01:43:28 | 51.44779 | 10.48562 | 113° | 57km/h | 1752m | -2.4m/s | 3.8°C | 88.9% | 825.9hPa | 2.7V | 00:00:00 | 03:25:32 | 00:00:00 | |
| DF2AP-13 | 2026-09-05 01:43:18 | 51.44836 | 10.48347 | 115° | 62km/h | 1777m | -2.7m/s | 3.7°C | 86.2% | 823.3hPa | 2.7V | 00:00:00 | 03:25:22 | 00:00:00 | |
| SONCRA | 2026-09-05 01:43:09 | 51.44895 | 10.48116 | 112° | 64km/h | 1802m | -2.5m/s | 3.7°C | 81.7% | 820.9hPa | 2.7V | 00:00:00 | 00:00:00 | 00:00:00 | |
| DF2AP-13 | 2026-09-05 01:43:08 | 51.44895 | 10.48116 | 113° | 66km/h | 1803m | -2.4m/s | 3.7°C | 82.5% | 820.8hPa | 2.7V | 00:00:00 | 03:25:12 | 00:00:00 | |
| DC4HF-4 | 2026-09-05 01:42:52 | 51.44995 | 10.47720 | 111° | 68km/h | 1842m | -2.5m/s | 4.0°C | 71.9% | 816.9hPa | 2.7V | 00:00:00 | 00:00:00 | 00:00:00 | |
| DF2AP-13 | 2026-09-05 01:42:48 | 51.45022 | 10.47619 | 114° | 68km/h | 1851m | -2.3m/s | 4.3°C | 65.7% | 816.0hPa | 2.7V | 00:00:00 | 03:24:52 | 00:00:00 | |
| BIOWL1-15 | 2026-09-05 01:42:25 | 51.45164 | 10.47008 | 110° | 71km/h | 1904m | -2.2m/s | 5.7°C | 44.8% | 810.7hPa | 2.6V | 07:22:15 | 03:24:29 | 00:00:00 | |
| BIOWL1-15 | 2026-09-05 01:42:22 | 51.45201 | 10.46839 | 109° | 73km/h | 1917m | -1.9m/s | 5.8°C | 42.7% | 809.5hPa | 2.7V | 07:22:15 | 03:24:23 | 00:00:00 | |
| BIOWL1-15 | 2026-09-05 01:42:22 | 51.45206 | 10.46811 | 108° | 73km/h | 1919m | -2.2m/s | 5.9°C | 40.7% | 809.3hPa | 2.7V | 07:22:15 | 03:24:22 | 00:00:00 | |
| BIOWL1-15 | 2026-09-05 01:42:16 | 51.45224 | 10.46724 | 110° | 75km/h | 1926m | -2.3m/s | 6.1°C | 38.4% | 808.4hPa | 2.6V | 07:22:15 | 03:24:19 | 00:00:00 | |
| BIOWL1-15 | 2026-09-05 01:42:13 | 51.45236 | 10.46668 | 107° | 71km/h | 1931m | -2.1m/s | 6.1°C | 37.6% | 808.2hPa | 2.7V | 07:22:15 | 03:24:17 | 00:00:00 | |
| BIOWL1-15 | 2026-09-05 01:42:11 | 51.45247 | 10.46611 | 106° | 75km/h | 1935m | -2.2m/s | 6.1°C | 37.1% | 807.7hPa | 2.7V | 07:22:15 | 03:24:15 | 00:00:00 | |
| BIOWL1-15 | 2026-09-05 01:42:09 | 51.45259 | 10.46553 | 109° | 75km/h | 1939m | -2.4m/s | 6.1°C | 37.2% | 807.3hPa | 2.7V | 07:22:15 | 03:24:13 | 00:00:00 | |
| BIOWL1-15 | 2026-09-05 01:42:07 | 51.45271 | 10.46497 | 109° | 71km/h | 1944m | -2.3m/s | 6.2°C | 37.2% | 806.8hPa | 2.7V | 07:22:15 | 03:24:11 | 00:00:00 | |
| BIOWL1-15 | 2026-09-05 01:42:05 | 51.45282 | 10.46440 | 107° | 75km/h | 1949m | -2.4m/s | 6.2°C | 36.8% | 806.4hPa | 2.7V | 07:22:15 | 03:24:09 | 00:00:00 | |
| BIOWL1-15 | 2026-09-05 01:42:04 | 51.45288 | 10.46411 | 109° | 77km/h | 1951m | -2.2m/s | 6.2°C | 36.9% | 806.1hPa | 2.7V | 07:22:15 | 03:24:08 | 00:00:00 | |
| BIOWL1-15 | 2026-09-05 01:42:03 | 51.45294 | 10.46382 | 110° | 75km/h | 1953m | -2.4m/s | 6.2°C | 36.8% | 805.9hPa | 2.7V | 07:22:15 | 03:24:07 | 00:00:00 | |
| BIOWL1-15 | 2026-09-05 01:42:01 | 51.45306 | 10.46326 | 107° | 73km/h | 1958m | -2.5m/s | 6.2°C | 36.8% | 805.4hPa | 2.6V | 07:22:15 | 03:24:05 | 00:00:00 | |
| BIOWL1-15 | 2026-09-05 01:41:59 | 51.45323 | 10.46238 | 108° | 78km/h | 1965m | -2.3m/s | 6.2°C | 35.8% | 804.8hPa | 2.7V | 07:22:15 | 03:24:02 | 00:00:00 | |
| BIOWL1-15 | 2026-09-05 01:41:59 | 51.45329 | 10.46208 | 109° | 77km/h | 1968m | -2.2m/s | 6.2°C | 36.3% | 804.6hPa | 2.7V | 07:22:15 | 03:24:01 | 00:00:00 | |
| BIOWL1-15 | 2026-09-05 01:41:55 | 51.45341 | 10.46151 | 107° | 73km/h | 1972m | -2.3m/s | 6.1°C | 36.5% | 804hPa | 2.7V | 07:23:06 | 03:23:59 | 00:00:00 | |
| BIOWL1-15 | 2026-09-05 01:41:53 | 51.45351 | 10.46094 | 106° | 77km/h | 1977m | -2.4m/s | 6.1°C | 36.6% | 803.6hPa | 2.7V | 07:23:06 | 03:23:57 | 00:00:00 | |
| BIOWL1-15 | 2026-09-05 01:41:52 | 51.45357 | 10.46064 | 107° | 77km/h | 1979m | -2.4m/s | 6.1°C | 36.2% | 803.3hPa | 2.7V | 07:23:06 | 03:23:56 | 00:00:00 | |
| BIOWL1-15 | 2026-09-05 01:41:50 | 51.45368 | 10.46007 | 107° | 73km/h | 1984m | -2.4m/s | 6.2°C | 34.9% | 802.9hPa | 2.7V | 07:23:06 | 03:23:54 | 00:00:00 | |
| BIOWL1-15 | 2026-09-05 01:41:48 | 51.45378 | 10.45950 | 105° | 73km/h | 1989m | -2.6m/s | 6.2°C | 34.9% | 802.4hPa | 2.6V | 07:23:06 | 03:23:52 | 00:00:00 | |
| BIOWL1-15 | 2026-09-05 01:41:46 | 51.45389 | 10.45891 | 107° | 77km/h | 1994m | -2.4m/s | 6.1°C | 36.5% | 801.9hPa | 2.7V | 07:23:06 | 03:23:50 | 00:00:00 | |
| BIOWL1-15 | 2026-09-05 01:41:44 | 51.45400 | 10.45832 | 108° | 75km/h | 1999m | -2.5m/s | 6.1°C | 37% | 801.4hPa | 2.7V | 07:23:06 | 03:23:48 | 00:00:00 | |
| HSKMA3-T | 2026-09-05 01:41:40 | 51.45422 | 10.45712 | 107° | 80km/h | 2009m | -2.4m/s | 6.2°C | 35.2% | 800.4hPa | 2.7V | 07:23:06 | 03:23:44 | 00:00:00 | |
| BIOWL1-15 | 2026-09-05 01:41:36 | 51.45445 | 10.45593 | 104° | 77km/h | 2019m | -2.5m/s | 6.1°C | 36.8% | 799.5hPa | 2.7V | 07:23:06 | 03:23:40 | 00:00:00 | |
| HSKMA3-T | 2026-09-05 01:41:29 | 51.45476 | 10.45381 | 101° | 78km/h | 2038m | -2.6m/s | 6.2°C | 34% | 797.6hPa | 2.6V | 07:23:06 | 03:23:33 | 00:00:00 | |
| BIOWL1-15 | 2026-09-05 01:41:26 | 51.45490 | 10.45286 | 105° | 78km/h | 2046m | -2.6m/s | 6.2°C | 31.9% | 797hPa | 2.7V | 07:23:06 | 03:23:30 | 00:00:00 | |
| HSKMA3-T | 2026-09-05 01:41:18 | 51.45527 | 10.45043 | 102° | 75km/h | 2067m | -2.9m/s | 6.2°C | 29.5% | 794.7hPa | 2.7V | 07:23:06 | 03:23:22 | 00:00:00 | |
| BIOWL1-15 | 2026-09-05 01:41:15 | 51.45538 | 10.44950 | 102° | 80km/h | 2076m | -2.7m/s | 6.3°C | 29% | 793.9hPa | 2.6V | 07:23:06 | 03:23:19 | 00:00:00 | |
| HSKMA3-T | 2026-09-05 01:41:07 | 51.45568 | 10.44696 | 101° | 80km/h | 2100m | -3.1m/s | 6.4°C | 29.7% | 791.7hPa | 2.6V | 07:23:06 | 03:23:11 | 00:00:00 | |
| BIOWL1-15 | 2026-09-05 01:41:04 | 51.45577 | 10.44601 | 99° | 80km/h | 2109m | -3.3m/s | 6.4°C | 30.5% | 790.7hPa | 2.7V | 07:25:39 | 03:23:08 | 00:00:00 | |
| HSKMA3-T | 2026-09-05 01:40:56 | 51.45606 | 10.44345 | 102° | 80km/h | 2135m | -3.2m/s | 6.6°C | 25.5% | 788.2hPa | 2.7V | 07:23:57 | 03:23:00 | 00:00:00 | |
| BIOWL1-15 | 2026-09-05 01:40:55 | 51.45618 | 10.44250 | 99° | 78km/h | 2144m | -3.2m/s | 6.6°C | 22.5% | 787.3hPa | 2.6V | 07:25:39 | 03:22:57 | 00:00:00 | |
| HSKMA3-T | 2026-09-05 01:40:46 | 51.45643 | 10.44027 | 100° | 80km/h | 2168m | -3.4m/s | 6.7°C | 16.9% | 785hPa | 2.6V | 07:23:57 | 03:22:50 | 00:00:00 | |
| BIOWL1-15 | 2026-09-05 01:40:42 | 51.45660 | 10.43902 | 101° | 77km/h | 2182m | -3.5m/s | 6.7°C | 20.5% | 783.6hPa | 2.7V | 07:25:39 | 03:22:46 | 00:00:00 | |
| HSKMA3-T | 2026-09-05 01:40:35 | 51.45687 | 10.43681 | 100° | 80km/h | 2207m | -3.8m/s | 6.6°C | 19.6% | 781.2hPa | 2.7V | 07:23:57 | 03:22:39 | 00:00:00 | |
| HSKMA3-T | 2026-09-05 01:40:24 | 51.45732 | 10.43325 | 102° | 80km/h | 2249m | -3.9m/s | 6.4°C | 19.2% | 777.3hPa | 2.7V | 07:23:57 | 03:22:28 | 00:00:00 | |
| HSKMA3-T | 2026-09-05 01:40:13 | 51.45777 | 10.42965 | 103° | 82km/h | 2293m | -4.2m/s | 6.4°C | 12.9% | 773.1hPa | 2.7V | 07:24:48 | 03:22:17 | 00:00:00 | |
| BIOWL1-15 | 2026-09-05 01:40:10 | 51.45797 | 10.42802 | 102° | 86km/h | 2314m | -4.1m/s | 6.3°C | 11.6% | 771.1hPa | 2.6V | 07:25:39 | 03:22:12 | 00:00:00 | |
| HSKMA3-T | 2026-09-05 01:40:03 | 51.45818 | 10.42636 | 101° | 86km/h | 2335m | -4.4m/s | 6.1°C | 11.5% | 769.2hPa | 2.7V | 07:24:48 | 03:22:07 | 00:00:00 | |
| BIOWL1-15 | 2026-09-05 01:39:55 | 51.45852 | 10.42368 | 103° | 84km/h | 2369m | -4.2m/s | 5.8°C | 11.5% | 765.8hPa | 2.7V | 07:25:39 | 03:21:59 | 00:00:00 | |
| HSKMA3-T | 2026-09-05 01:39:52 | 51.45864 | 10.42269 | 100° | 84km/h | 2382m | -4.4m/s | 5.7°C | 11.8% | 764.7hPa | 2.6V | 07:24:48 | 03:21:56 | 00:00:00 | |
| DC4HF-4 | 2026-09-05 01:39:52 | 51.45873 | 10.42202 | 102° | 84km/h | 2391m | -4.5m/s | 5.7°C | 10.8% | 763.9hPa | 2.7V | 00:00:00 | 00:00:00 | 00:00:00 | |
| HSKMA3-T | 2026-09-05 01:39:41 | 51.45909 | 10.41902 | 100° | 84km/h | 2431m | -4.4m/s | 5.4°C | 10.9% | 760hPa | 2.7V | 07:24:48 | 03:21:45 | 00:00:00 | |
| HSKMA3-T | 2026-09-05 01:39:31 | 51.45951 | 10.41566 | 103° | 84km/h | 2477m | -4.6m/s | 5°C | 11.3% | 755.9hPa | 2.7V | 07:24:48 | 03:21:35 | 00:00:00 | |
| HSKMA3-T | 2026-09-05 01:39:20 | 51.45999 | 10.41189 | 103° | 88km/h | 2526m | -4.7m/s | 4.8°C | 11.4% | 751.1hPa | 2.6V | 07:25:39 | 03:21:24 | 00:00:00 | |
| HSKMA3-T | 2026-09-05 01:39:10 | 51.46044 | 10.40849 | 102° | 88km/h | 2573m | -4.6m/s | 4.4°C | 11.5% | 746.8hPa | 2.7V | 07:25:39 | 03:21:14 | 00:00:00 | |
| BIOWL1-15 | 2026-09-05 01:39:05 | 51.46068 | 10.40679 | 101° | 84km/h | 2597m | -4.7m/s | 4.2°C | 11.5% | 744.8hPa | 2.6V | 07:25:39 | 03:21:09 | 00:00:00 | |
| HSKMA3-T | 2026-09-05 01:38:59 | 51.46094 | 10.40476 | 100° | 86km/h | 2626m | -4.8m/s | 3.9°C | 11.4% | 742.1hPa | 2.7V | 07:25:39 | 03:21:03 | 00:00:00 | |
| BIOWL1-15 | 2026-09-05 01:38:54 | 51.46118 | 10.40305 | 102° | 84km/h | 2650m | -4.8m/s | 3.7°C | 10.7% | 739.8hPa | 2.7V | 07:25:39 | 03:20:58 | 00:00:00 | |
| HSKMA3-T | 2026-09-05 01:38:49 | 51.46142 | 10.40134 | 103° | 84km/h | 2674m | -5m/s | 3.5°C | 10.5% | 737.6hPa | 2.6V | 07:25:39 | 03:20:53 | 00:00:00 | |
| BIOWL1-15 | 2026-09-05 01:38:45 | 51.46173 | 10.39926 | 105° | 86km/h | 2704m | -4.9m/s | 3.3°C | 9.9% | 735hPa | 2.7V | 07:25:39 | 03:20:47 | 00:00:00 | |
| HSKMA3-T | 2026-09-05 01:38:38 | 51.46197 | 10.39757 | 103° | 86km/h | 2728m | -5m/s | 3°C | 9.4% | 732.7hPa | 2.7V | 07:25:39 | 03:20:42 | 00:00:00 | |
| BIOWL1-15 | 2026-09-05 01:38:36 | 51.46244 | 10.39419 | 102° | 86km/h | 2778m | -5m/s | 0°C | 0% | 728.1hPa | 2.7V | 07:26:30 | 03:20:32 | 00:00:00 | |
| HSKMA3-T | 2026-09-05 01:38:27 | 51.46248 | 10.39385 | 103° | 86km/h | 2783m | -5m/s | 2.7°C | 9.1% | 727.7hPa | 2.6V | 07:26:30 | 03:20:31 | 00:00:00 | |
| BIOWL1-15 | 2026-09-05 01:38:20 | 51.46292 | 10.39084 | 104° | 84km/h | 2829m | -5.2m/s | 0°C | 0% | 723.6hPa | 2.6V | 07:26:30 | 03:20:22 | 00:00:00 | |
| HSKMA3-T | 2026-09-05 01:38:16 | 51.46301 | 10.39018 | 101° | 86km/h | 2839m | -5.1m/s | 2.2°C | 12.1% | 722.7hPa | 2.7V | 07:26:30 | 03:20:20 | 00:00:00 | |
| DF8AY | 2026-09-05 01:38:14 | 51.46310 | 10.38949 | 103° | 88km/h | 2849m | -5.1m/s | 2.1°C | 12.3% | 721.7hPa | 2.7V | 07:26:30 | 03:20:18 | 00:00:00 | |
| BIOWL1-15 | 2026-09-05 01:38:08 | 51.46339 | 10.38749 | 102° | 88km/h | 2880m | -5m/s | 0°C | 0% | 719hPa | 2.7V | 07:26:30 | 03:20:12 | 00:00:00 | |
| HSKMA3-T | 2026-09-05 01:38:05 | 51.46354 | 10.38646 | 104° | 86km/h | 2895m | -5.2m/s | 1.8°C | 17.4% | 717.7hPa | 2.6V | 07:26:30 | 03:20:09 | 00:00:00 | |
| DL1NUX | 2026-09-05 01:38:04 | 51.46359 | 10.38612 | 102° | 84km/h | 2900m | -5.2m/s | 1.7°C | 15.8% | 717.2hPa | 2.6V | 07:26:07 | 03:20:08 | 00:00:00 | |
| DL1NUX | 2026-09-05 01:38:04 | 51.46383 | 10.38439 | 104° | 86km/h | 2926m | -5.2m/s | 1.5°C | 17% | 714.9hPa | 2.7V | 07:26:12 | 03:20:03 | 00:00:00 | |
| DF8AY | 2026-09-05 01:38:04 | 51.46359 | 10.38612 | 103° | 84km/h | 2900m | -5.2m/s | 1.7°C | 17.9% | 717.2hPa | 2.6V | 07:26:30 | 03:20:08 | 00:00:00 | |
| BIOWL1-15 | 2026-09-05 01:37:57 | 51.46393 | 10.38372 | 102° | 86km/h | 2936m | -5.3m/s | 0°C | 0% | 714hPa | 2.6V | 07:26:30 | 03:20:01 | 00:00:00 | |
| DL1NUX | 2026-09-05 01:37:56 | 51.46422 | 10.38168 | 101° | 84km/h | 2968m | -5.3m/s | 1.3°C | 14% | 711.3hPa | 2.7V | 07:26:20 | 03:19:55 | 00:00:00 | |
| HSKMA3-T | 2026-09-05 01:37:54 | 51.46407 | 10.38268 | 104° | 88km/h | 2952m | -5.2m/s | 1.4°C | 17.2% | 712.5hPa | 2.7V | 07:26:30 | 03:19:58 | 00:00:00 | |
| DF8AY | 2026-09-05 01:37:53 | 51.46412 | 10.38234 | 105° | 86km/h | 2957m | -5.2m/s | 1.4°C | 16.7% | 712hPa | 2.7V | 07:26:30 | 03:19:57 | 00:00:00 | |
| SO1NDE-10 | 2026-09-05 01:37:51 | 51.46422 | 10.38168 | 102° | 84km/h | 2968m | -5.3m/s | 1.3°C | 14.0% | 711.2hPa | 2.7V | 00:00:00 | 03:19:55 | 00:00:00 | |
| DL1NUX | 2026-09-05 01:37:50 | 51.46450 | 10.37965 | 100° | 86km/h | 2999m | -5.1m/s | 1.2°C | 11% | 708.4hPa | 2.7V | 07:26:26 | 03:19:49 | 00:00:00 | |
| DL1NUX | 2026-09-05 01:37:45 | 51.46474 | 10.37795 | 103° | 82km/h | 3024m | -5.1m/s | 1°C | 10% | 706.2hPa | 2.7V | 07:26:31 | 03:19:44 | 00:00:00 | |
| HSKMA3-T | 2026-09-05 01:37:43 | 51.46459 | 10.37896 | 102° | 88km/h | 3009m | -5.1m/s | 1.1°C | 11.5% | 707.4hPa | 2.6V | 07:26:30 | 03:19:47 | 00:00:00 | |
| DF8AY | 2026-09-05 01:37:42 | 51.46464 | 10.37862 | 103° | 88km/h | 3014m | -5.1m/s | 1.1°C | 11% | 707.1hPa | 2.6V | 07:26:30 | 03:19:46 | 00:00:00 | |
| DL1NUX | 2026-09-05 01:37:40 | 51.46497 | 10.37629 | 103° | 82km/h | 3049m | -5m/s | 0.8°C | 9.7% | 703.9hPa | 2.6V | 07:26:36 | 03:19:39 | 00:00:00 | |
| BIOWL1-15 | 2026-09-05 01:37:39 | 51.46478 | 10.37762 | 102° | 82km/h | 3029m | -5.1m/s | 0°C | 0% | 705.8hPa | 2.7V | 18:12:15 | 03:19:43 | 00:00:00 | |
| DL1ZP-14 | 2026-09-05 01:37:39 | 51.46483 | 10.37729 | 101° | 84km/h | 3034m | -5.1m/s | 1.0°C | 9.5% | 705.3hPa | 2.7V | 00:00:00 | 00:00:00 | 00:00:00 | |
| DF2AP-13 | 2026-09-05 01:37:38 | 51.46482 | 10.37729 | 102° | 86km/h | 3034m | -5.0m/s | 0.9°C | 9.6% | 705.2hPa | 2.7V | 00:00:00 | 03:19:42 | 00:00:00 | |
| DB0NH | 2026-09-05 01:37:37 | 51.46487 | 10.37695 | 103° | 86km/h | 3039m | -5.0m/s | 0.9°C | 9.7% | 704.8hPa | 2.7V | 00:00:00 | 03:19:41 | 00:00:00 | |
| DL1NUX | 2026-09-05 01:37:35 | 51.46518 | 10.37463 | 102° | 86km/h | 3075m | -5m/s | 0.6°C | 9.4% | 701.7hPa | 2.7V | 07:26:41 | 03:19:34 | 00:00:00 | |
| HSKMA3-T | 2026-09-05 01:37:33 | 51.46506 | 10.37564 | 101° | 82km/h | 3059m | -5.3m/s | 0.7°C | 9.8% | 703hPa | 2.7V | 07:27:21 | 03:19:37 | 00:00:00 | |
| DF8AY | 2026-09-05 01:37:32 | 51.46509 | 10.37531 | 100° | 84km/h | 3064m | -5.1m/s | 0.7°C | 9.7% | 702.6hPa | 2.7V | 07:27:21 | 03:19:36 | 00:00:00 | |
| DL1NUX | 2026-09-05 01:37:30 | 51.46540 | 10.37298 | 100° | 86km/h | 3100m | -5m/s | 0.4°C | 9.6% | 699.6hPa | 2.7V | 07:26:46 | 03:19:29 | 00:00:00 | |
| BIOWL1-15 | 2026-09-05 01:37:28 | 51.46544 | 10.37263 | 102° | 88km/h | 3105m | -5.1m/s | 0°C | 0% | 0hPa | 2.7V | 18:12:15 | 03:19:28 | 00:00:00 | |
| SO1NDE-10 | 2026-09-05 01:37:28 | 51.46527 | 10.37396 | 104° | 86km/h | 3085m | -4.9m/s | 0.5°C | 9.5% | 700.8hPa | 2.6V | 00:00:00 | 03:19:32 | 00:00:00 | |
| SONCRA | 2026-09-05 01:37:27 | 51.46532 | 10.37364 | 101° | 80km/h | 3089m | -5.0m/s | 0.4°C | 9.4% | 700.4hPa | 2.7V | 00:00:00 | 00:00:00 | 00:00:00 | |
| DL1NUX | 2026-09-05 01:37:25 | 51.46563 | 10.37126 | 101° | 86km/h | 3125m | -5m/s | 0.1°C | 10.6% | 697.3hPa | 2.7V | 07:26:51 | 03:19:24 | 00:00:00 | |
| HSKMA3-T | 2026-09-05 01:37:23 | 51.46549 | 10.37228 | 103° | 88km/h | 3110m | -4.9m/s | 0.3°C | 9.9% | 698.6hPa | 2.7V | 07:27:21 | 03:19:27 | 00:00:00 | |
| DF8AY | 2026-09-05 01:37:22 | 51.46554 | 10.37194 | 104° | 86km/h | 3115m | -5.1m/s | 0.2°C | 10% | 698.2hPa | 2.6V | 07:27:21 | 03:19:26 | 00:00:00 | |
| DL1NUX | 2026-09-05 01:37:20 | 51.46587 | 10.36953 | 103° | 86km/h | 3150m | -5.1m/s | -0°C | 10.8% | 695.1hPa | 2.6V | 07:26:56 | 03:19:19 | 00:00:00 | |
| BIOWL1-15 | 2026-09-05 01:37:17 | 51.46577 | 10.37022 | 103° | 89km/h | 3140m | -5.2m/s | 0°C | 0% | 0hPa | 2.7V | 18:12:15 | 03:19:21 | 00:00:00 | |
| DF8AY | 2026-09-05 01:37:12 | 51.46601 | 10.36851 | 102° | 88km/h | 3165m | -5.1m/s | -0.1°C | 10.9% | 693.9hPa | 2.7V | 07:27:21 | 03:19:16 | 00:00:00 | |
| DL1NUX | 2026-09-05 01:37:10 | 51.46611 | 10.36781 | 104° | 88km/h | 3175m | -5m/s | -0.1°C | 9% | 692.9hPa | 2.7V | 07:27:01 | 03:19:14 | 00:00:00 | |
| DL1NUX | 2026-09-05 01:37:10 | 51.46635 | 10.36608 | 102° | 91km/h | 3200m | -5m/s | -0.2°C | 8.8% | 690.8hPa | 2.7V | 07:27:06 | 03:19:09 | 00:00:00 | |
| BIOWL1-15 | 2026-09-05 01:37:10 | 51.46630 | 10.36644 | 102° | 89km/h | 3195m | -5.1m/s | 0°C | 0% | 0hPa | 2.7V | 18:12:15 | 03:19:10 | 00:00:00 | |
| HSKMA3-T | 2026-09-05 01:37:02 | 51.46651 | 10.36503 | 103° | 88km/h | 3215m | -5m/s | -0.3°C | 9.4% | 689.5hPa | 2.7V | 07:27:21 | 03:19:06 | 00:00:00 | |
| DL1NUX | 2026-09-05 01:37:00 | 51.46661 | 10.36432 | 102° | 91km/h | 3225m | -5m/s | -0.4°C | 9.6% | 688.7hPa | 2.6V | 07:27:11 | 03:19:04 | 00:00:00 | |
| BIOWL1-15 | 2026-09-05 01:36:56 | 51.46682 | 10.36288 | 103° | 89km/h | 3245m | -4.8m/s | 0°C | 0% | 0hPa | 2.7V | 18:12:15 | 03:19:00 | 00:00:00 | |
| DL1NUX | 2026-09-05 01:36:54 | 51.46717 | 10.36034 | 102° | 89km/h | 3279m | -4.9m/s | -0.6°C | 9.1% | 684hPa | 2.7V | 07:27:22 | 03:18:53 | 00:00:00 | |
| DF8AY | 2026-09-05 01:36:51 | 51.46706 | 10.36105 | 104° | 91km/h | 3270m | -4.9m/s | -0.5°C | 9.1% | 684.8hPa | 2.7V | 07:27:21 | 03:18:55 | 00:00:00 | |
| DL1NUX | 2026-09-05 01:36:49 | 51.46743 | 10.35854 | 103° | 88km/h | 3304m | -4.7m/s | -0.8°C | 9.6% | 681.9hPa | 2.7V | 07:27:27 | 03:18:48 | 00:00:00 | |
| DF8AY | 2026-09-05 01:36:45 | 51.46762 | 10.35710 | 102° | 95km/h | 3322m | -4.7m/s | -0.9°C | 12.2% | 680.4hPa | 2.6V | 07:28:12 | 03:18:44 | 00:00:00 | |
| DL1NUX | 2026-09-05 01:36:44 | 51.46767 | 10.35673 | 103° | 93km/h | 3327m | -4.6m/s | -0.9°C | 11.4% | 679.9hPa | 2.6V | 07:27:32 | 03:18:43 | 00:00:00 | |
| HSKMA3-T | 2026-09-05 01:36:41 | 51.46757 | 10.35747 | 101° | 93km/h | 3318m | -4.5m/s | -0.9°C | 11.4% | 680.8hPa | 2.7V | 07:28:12 | 03:18:45 | 00:00:00 | |
| DF8AY-15 | 2026-09-05 01:36:39 | 51.46767 | 10.35673 | 104° | 91km/h | 3327m | -4.6m/s | -0.9°C | 11.4% | 679.9hPa | 2.6V | 00:00:00 | 03:18:43 | 00:00:00 | |
| DL1NUX | 2026-09-05 01:36:39 | 51.46791 | 10.35492 | 101° | 93km/h | 3350m | -4.7m/s | -1.1°C | 11.3% | 678hPa | 2.7V | 07:27:37 | 03:18:38 | 00:00:00 | |
| DF2AP-13 | 2026-09-05 01:36:38 | 51.46772 | 10.35636 | 104° | 89km/h | 3332m | -4.7m/s | -0.9°C | 11.2% | 679.5hPa | 2.7V | 00:00:00 | 03:18:42 | 00:00:00 | |
| DL1ZP-14 | 2026-09-05 01:36:37 | 51.46782 | 10.35565 | 100° | 89km/h | 3341m | -4.6m/s | -1.1°C | 11.0% | 678.8hPa | 2.7V | 00:00:00 | 00:00:00 | 00:00:00 | |
| DL1NUX | 2026-09-05 01:36:34 | 51.46815 | 10.35315 | 100° | 89km/h | 3373m | -4.5m/s | -1.3°C | 11.5% | 676.1hPa | 2.7V | 07:27:42 | 03:18:33 | 00:00:00 | |
| BIOWL1-15 | 2026-09-05 01:36:32 | 51.46801 | 10.35420 | 103° | 89km/h | 3360m | -4.5m/s | 0°C | 0% | 0hPa | 2.6V | 18:12:15 | 03:18:36 | 00:00:00 | |
| HSKMA3-T | 2026-09-05 01:36:30 | 51.46811 | 10.35350 | 101° | 88km/h | 3368m | -4.3m/s | -1.3°C | 12.5% | 676.5hPa | 2.7V | 07:28:12 | 03:18:34 | 00:00:00 | |
| SO1NDE-10 | 2026-09-05 01:36:28 | 51.46819 | 10.35279 | 101° | 89km/h | 3377m | -4.4m/s | -1.3°C | 11.5% | 675.6hPa | 2.7V | 00:00:00 | 03:18:32 | 00:00:00 | |
| SONCRA | 2026-09-05 01:36:25 | 51.46834 | 10.35170 | 102° | 88km/h | 3391m | -4.5m/s | -1.4°C | 10.9% | 674.6hPa | 2.6V | 00:00:00 | 00:00:00 | 00:00:00 | |
| DL1NUX | 2026-09-05 01:36:24 | 51.46861 | 10.34955 | 102° | 89km/h | 3417m | -4.5m/s | -1.6°C | 11.1% | 672.3hPa | 2.6V | 07:27:52 | 03:18:23 | 00:00:00 | |
| HSKMA3-T | 2026-09-05 01:36:20 | 51.46856 | 10.34990 | 102° | 91km/h | 3413m | -4.4m/s | -1.6°C | 12% | 672.7hPa | 2.7V | 07:28:12 | 03:18:24 | 00:00:00 | |
| BIOWL1-15 | 2026-09-05 01:36:17 | 51.46877 | 10.34813 | 100° | 91km/h | 3434m | -4.2m/s | 0°C | 0% | 0hPa | 2.7V | 18:12:15 | 03:18:19 | 00:00:00 | |
| DC4HF-4 | 2026-09-05 01:36:15 | 51.46877 | 10.34813 | 100° | 91km/h | 3434m | -4.2m/s | -1.7°C | 10.9% | 671.0hPa | 2.7V | 00:00:00 | 00:00:00 | 00:00:00 | |
| DL1NUX | 2026-09-05 01:36:14 | 51.46904 | 10.34600 | 101° | 91km/h | 3459m | -4.2m/s | -1.9°C | 11.2% | 668.6hPa | 2.7V | 07:28:02 | 03:18:13 | 00:00:00 | |
| HSKMA3-T | 2026-09-05 01:36:09 | 51.46904 | 10.34600 | 102° | 91km/h | 3459m | -4.2m/s | -2°C | 12.1% | 668.6hPa | 2.7V | 07:28:12 | 03:18:13 | 00:00:00 | |
| SO1NDE-10 | 2026-09-05 01:36:08 | 51.46909 | 10.34564 | 104° | 88km/h | 3463m | -4.1m/s | -1.9°C | 11.2% | 668.3hPa | 2.6V | 00:00:00 | 03:18:12 | 00:00:00 | |
| DB0UT-7 | 2026-09-05 01:36:07 | 51.46914 | 10.34529 | 104° | 84km/h | 3467m | -4.0m/s | -2.0°C | 11.3% | 667.9hPa | 2.6V | 00:00:00 | 03:18:11 | 00:00:00 | |
| DL1ZP-14 | 2026-09-05 01:36:06 | 51.46924 | 10.34461 | 101° | 84km/h | 3476m | -4.1m/s | -2.1°C | 11.2% | 667.3hPa | 2.6V | 00:00:00 | 00:00:00 | 00:00:00 | |
| DL1NUX | 2026-09-05 01:36:04 | 51.46950 | 10.34251 | 101° | 86km/h | 3500m | -4m/s | -2.2°C | 10.9% | 665.3hPa | 2.6V | 07:28:12 | 03:18:03 | 00:00:00 | |
| DF8AY | 2026-09-05 01:35:59 | 51.46950 | 10.34251 | 102° | 86km/h | 3500m | -4m/s | -2.2°C | 11.7% | 665.3hPa | 2.6V | 07:28:12 | 03:18:03 | 00:00:00 | |
| HSKMA3-T | 2026-09-05 01:35:58 | 51.46954 | 10.34217 | 100° | 86km/h | 3504m | -4.2m/s | -2.2°C | 11.6% | 664.9hPa | 2.6V | 07:29:03 | 03:18:02 | 00:00:00 | |
| DF8AY-15 | 2026-09-05 01:35:58 | 51.46954 | 10.34217 | 101° | 88km/h | 3504m | -4.2m/s | -2.2°C | 10.8% | 664.8hPa | 2.7V | 00:00:00 | 03:18:02 | 00:00:00 | |
| DL1NUX | 2026-09-05 01:35:54 | 51.46993 | 10.33903 | 100° | 89km/h | 3539m | -4m/s | -2.4°C | 10.4% | 662hPa | 2.7V | 07:28:22 | 03:17:53 | 00:00:00 | |
| SONCRA | 2026-09-05 01:35:54 | 51.46970 | 10.34075 | 103° | 89km/h | 3520m | -3.9m/s | -2.3°C | 10.2% | 663.6hPa | 2.7V | 00:00:00 | 00:00:00 | 00:00:00 | |
| DL1NUX | 2026-09-05 01:35:49 | 51.47018 | 10.33728 | 102° | 86km/h | 3559m | -3.8m/s | -2.5°C | 10.3% | 660.3hPa | 2.7V | 07:28:27 | 03:17:48 | 00:00:00 | |
| DF8AY | 2026-09-05 01:35:49 | 51.46993 | 10.33903 | 101° | 89km/h | 3540m | -4m/s | -2.4°C | 10.9% | 662hPa | 2.7V | 07:29:03 | 03:17:53 | 00:00:00 | |
| HSKMA3-T | 2026-09-05 01:35:48 | 51.46998 | 10.33867 | 102° | 91km/h | 3544m | -3.9m/s | -2.4°C | 11% | 661.7hPa | 2.7V | 07:29:03 | 03:17:52 | 00:00:00 | |
| DF8AY | 2026-09-05 01:35:39 | 51.47044 | 10.33555 | 103° | 86km/h | 3578m | -3.9m/s | -2.7°C | 10.9% | 658.8hPa | 2.6V | 07:29:03 | 03:17:43 | 00:00:00 | |
| DL1NUX | 2026-09-05 01:35:39 | 51.47044 | 10.33555 | 102° | 86km/h | 3578m | -3.9m/s | -2.7°C | 10.4% | 658.8hPa | 2.6V | 07:28:32 | 03:17:43 | 00:00:00 | |
| DL1NUX | 2026-09-05 01:35:39 | 51.47068 | 10.33379 | 105° | 89km/h | 3596m | -3.7m/s | -2.8°C | 10.4% | 657.2hPa | 2.7V | 07:28:37 | 03:17:38 | 00:00:00 | |
| HSKMA3-T | 2026-09-05 01:35:37 | 51.47053 | 10.33486 | 102° | 89km/h | 3585m | -3.6m/s | -2.8°C | 10.9% | 658.2hPa | 2.7V | 07:29:03 | 03:17:41 | 00:00:00 | |
| DB0NH | 2026-09-05 01:35:37 | 51.47053 | 10.33486 | 102° | 88km/h | 3585m | -3.5m/s | -2.7°C | 10.4% | 658.1hPa | 2.7V | 00:00:00 | 03:17:41 | 00:00:00 | |
| DL1ZP-14 | 2026-09-05 01:35:34 | 51.47069 | 10.33379 | 105° | 88km/h | 3596m | -3.7m/s | -2.8°C | 10.2% | 657.2hPa | 2.7V | 00:00:00 | 00:00:00 | 00:00:00 | |
| DL1NUX | 2026-09-05 01:35:29 | 51.47095 | 10.33207 | 103° | 89km/h | 3614m | -3.5m/s | -2.9°C | 10.4% | 655.8hPa | 2.7V | 07:28:42 | 03:17:33 | 00:00:00 | |
| DL1NUX | 2026-09-05 01:35:29 | 51.47121 | 10.33035 | 102° | 88km/h | 3632m | -3.7m/s | -2.9°C | 9.8% | 654.3hPa | 2.7V | 07:28:47 | 03:17:28 | 00:00:00 | |
| DF8AY | 2026-09-05 01:35:28 | 51.47100 | 10.33171 | 105° | 89km/h | 3617m | -3.6m/s | -2.9°C | 10.9% | 655.5hPa | 2.7V | 07:29:03 | 03:17:32 | 00:00:00 | |
| HSKMA3-T | 2026-09-05 01:35:27 | 51.47106 | 10.33137 | 105° | 88km/h | 3621m | -3.7m/s | -2.9°C | 10.8% | 655.1hPa | 2.6V | 07:29:03 | 03:17:31 | 00:00:00 | |
| DL1NUX | 2026-09-05 01:35:24 | 51.47148 | 10.32863 | 103° | 86km/h | 3650m | -3.6m/s | -2.8°C | 8.5% | 652.9hPa | 2.6V | 07:28:52 | 03:17:23 | 00:00:00 | |
| SO1NDE-10 | 2026-09-05 01:35:24 | 51.47121 | 10.33035 | 103° | 86km/h | 3632m | -3.6m/s | -2.9°C | 9.8% | 654.2hPa | 2.7V | 00:00:00 | 03:17:28 | 00:00:00 | |
| SONCRA | 2026-09-05 01:35:23 | 51.47126 | 10.33000 | 102° | 88km/h | 3635m | -3.5m/s | -2.9°C | 9.4% | 654.0hPa | 2.6V | 00:00:00 | 00:00:00 | 00:00:00 | |
| DL1NUX | 2026-09-05 01:35:19 | 51.47176 | 10.32691 | 105° | 84km/h | 3668m | -3.6m/s | -2.8°C | 8.3% | 651.4hPa | 2.6V | 07:28:57 | 03:17:18 | 00:00:00 | |
| DF8AY | 2026-09-05 01:35:18 | 51.47153 | 10.32828 | 103° | 88km/h | 3653m | -3.7m/s | -2.8°C | 8.2% | 652.6hPa | 2.7V | 07:29:03 | 03:17:22 | 00:00:00 | |
| HSKMA3-T | 2026-09-05 01:35:17 | 51.47158 | 10.32793 | 104° | 89km/h | 3657m | -3.7m/s | -2.8°C | 8.1% | 652.3hPa | 2.7V | 07:29:03 | 03:17:21 | 00:00:00 | |
| DL1NUX | 2026-09-05 01:35:14 | 51.47204 | 10.32522 | 106° | 88km/h | 3685m | -3.5m/s | -2.8°C | 7.6% | 649.9hPa | 2.7V | 07:29:02 | 03:17:13 | 00:00:00 | |
| DL1NUX | 2026-09-05 01:35:09 | 51.47232 | 10.32354 | 104° | 89km/h | 3702m | -3.5m/s | -2.8°C | 6.8% | 648.5hPa | 2.7V | 07:29:07 | 03:17:08 | 00:00:00 | |
| HSKMA3-T | 2026-09-05 01:35:07 | 51.47216 | 10.32455 | 105° | 84km/h | 3692m | -3.4m/s | -2.8°C | 6.6% | 649.4hPa | 2.6V | 07:29:54 | 03:17:11 | 00:00:00 | |
| DB0NH | 2026-09-05 01:35:07 | 51.47216 | 10.32455 | 105° | 84km/h | 3692m | -3.3m/s | -2.7°C | 7.3% | 649.3hPa | 2.7V | 00:00:00 | 03:17:11 | 00:00:00 | |
| DC4HF-4 | 2026-09-05 01:35:03 | 51.47237 | 10.32319 | 105° | 86km/h | 3706m | -3.3m/s | -2.8°C | 6.3% | 648.2hPa | 2.7V | 00:00:00 | 00:00:00 | 00:00:00 | |
| DL1NUX | 2026-09-05 01:34:59 | 51.47260 | 10.32187 | 104° | 86km/h | 3719m | -3.5m/s | -2.8°C | 6.3% | 647.1hPa | 2.7V | 07:29:12 | 03:17:03 | 00:00:00 | |
| DL1NUX | 2026-09-05 01:34:59 | 51.47289 | 10.32020 | 104° | 84km/h | 3737m | -3.3m/s | -2.9°C | 6.2% | 645.7hPa | 2.6V | 07:29:17 | 03:16:58 | 00:00:00 | |
| HSKMA3-T | 2026-09-05 01:34:56 | 51.47278 | 10.32086 | 107° | 86km/h | 3730m | -3.5m/s | -2.9°C | 5% | 646.2hPa | 2.7V | 07:29:54 | 03:17:00 | 00:00:00 | |
| DL1NUX | 2026-09-05 01:34:54 | 51.47319 | 10.31855 | 106° | 82km/h | 3754m | -3.5m/s | -3.1°C | 6.3% | 644.3hPa | 2.7V | 07:29:22 | 03:16:53 | 00:00:00 | |
| SONCRA | 2026-09-05 01:34:52 | 51.47300 | 10.31954 | 105° | 86km/h | 3743m | -3.4m/s | -3.0°C | 6.1% | 645.2hPa | 2.7V | 00:00:00 | 00:00:00 | 00:00:00 | |
| DL1NUX | 2026-09-05 01:34:49 | 51.47345 | 10.31691 | 105° | 82km/h | 3771m | -3.4m/s | -3.2°C | 6.3% | 642.9hPa | 2.7V | 07:29:27 | 03:16:48 | 00:00:00 | |
| HSKMA3-T | 2026-09-05 01:34:46 | 51.47334 | 10.31757 | 104° | 84km/h | 3764m | -3.5m/s | -3.2°C | 5.2% | 643.5hPa | 2.7V | 07:29:54 | 03:16:50 | 00:00:00 | |
| DF8AY | 2026-09-05 01:34:45 | 51.47340 | 10.31724 | 105° | 84km/h | 3767m | -3.4m/s | -3.2°C | 5.2% | 643.2hPa | 2.7V | 07:29:54 | 03:16:49 | 00:00:00 | |
| DL1NUX | 2026-09-05 01:34:39 | 51.47400 | 10.31362 | 105° | 84km/h | 3804m | -3.5m/s | -3.5°C | 6.1% | 640.3hPa | 2.7V | 07:29:37 | 03:16:38 | 00:00:00 | |
| DF8AY | 2026-09-05 01:34:35 | 51.47395 | 10.31394 | 105° | 82km/h | 3801m | -3.2m/s | -3.4°C | 5% | 640.5hPa | 2.6V | 07:29:54 | 03:16:39 | 00:00:00 | |
| HSKMA3-T | 2026-09-05 01:34:25 | 51.47452 | 10.31068 | 107° | 82km/h | 3834m | -3.4m/s | -3.6°C | 4.6% | 638hPa | 2.7V | 07:29:54 | 03:16:29 | 00:00:00 | |
| DF8AY | 2026-09-05 01:34:24 | 51.47458 | 10.31036 | 106° | 80km/h | 3838m | -3.5m/s | -3.6°C | 4.5% | 637.6hPa | 2.7V | 07:29:54 | 03:16:28 | 00:00:00 | |
| DL1NUX | 2026-09-05 01:34:24 | 51.47458 | 10.31036 | 105° | 80km/h | 3838m | -3.5m/s | -3.6°C | 5.8% | 637.6hPa | 2.7V | 07:29:47 | 03:16:28 | 00:00:00 | |
| BIOWL1-15 | 2026-09-05 01:34:21 | 51.47473 | 10.30940 | 104° | 84km/h | 3848m | -3.2m/s | -3.7°C | 4.4% | 636.8hPa | 2.7V | 07:33:18 | 03:16:25 | 00:00:00 | |
| DF8AY | 2026-09-05 01:34:14 | 51.47511 | 10.30719 | 105° | 82km/h | 3871m | -3.5m/s | -3.8°C | 4.1% | 635hPa | 2.7V | 07:30:45 | 03:16:18 | 00:00:00 | |
| DL1NUX | 2026-09-05 01:34:14 | 51.47511 | 10.30719 | 105° | 82km/h | 3871m | -3.5m/s | -3.8°C | 5.5% | 635hPa | 2.7V | 07:29:57 | 03:16:18 | 00:00:00 | |
| DL1NUX | 2026-09-05 01:34:09 | 51.47566 | 10.30405 | 105° | 78km/h | 3904m | -3.3m/s | -3.9°C | 5.7% | 632.3hPa | 2.6V | 07:30:07 | 03:16:08 | 00:00:00 | |
| BIOWL1-15 | 2026-09-05 01:34:07 | 51.47548 | 10.30499 | 106° | 82km/h | 3894m | -3.2m/s | -3.8°C | 4.4% | 633.1hPa | 2.7V | 07:33:18 | 03:16:11 | 00:00:00 | |
| HSKMA3-T | 2026-09-05 01:34:04 | 51.47566 | 10.30405 | 106° | 78km/h | 3904m | -3.3m/s | -3.9°C | 4.5% | 632.3hPa | 2.6V | 07:30:45 | 03:16:08 | 00:00:00 | |
| DL1ZP-14 | 2026-09-05 01:34:01 | 51.47582 | 10.30311 | 107° | 80km/h | 3914m | -3.5m/s | -4.0°C | 5.8% | 631.5hPa | 2.7V | 00:00:00 | 00:00:00 | 00:00:00 | |
| DL1NUX | 2026-09-05 01:33:59 | 51.47619 | 10.30094 | 106° | 82km/h | 3938m | -3.4m/s | -4.2°C | 6.8% | 629.5hPa | 2.7V | 07:30:17 | 03:15:58 | 00:00:00 | |
| BIOWL1-15 | 2026-09-05 01:33:56 | 51.47608 | 10.30159 | 104° | 82km/h | 3931m | -3.3m/s | -4.1°C | 5.7% | 0hPa | 2.7V | 07:33:18 | 03:16:00 | 00:00:00 | |
| DF8AY | 2026-09-05 01:33:54 | 51.47619 | 10.30094 | 106° | 82km/h | 3938m | -3.4m/s | -4.2°C | 6.1% | 629.5hPa | 2.7V | 07:30:45 | 03:15:58 | 00:00:00 | |
| DC4HF-4 | 2026-09-05 01:33:51 | 51.47635 | 10.30002 | 103° | 77km/h | 3948m | -3.5m/s | -4.2°C | 6.6% | 628.7hPa | 2.7V | 00:00:00 | 00:00:00 | 00:00:00 | |
| SONCRA | 2026-09-05 01:33:50 | 51.47645 | 10.29940 | 103° | 78km/h | 3955m | -3.4m/s | -4.2°C | 6.6% | 628.2hPa | 2.7V | 00:00:00 | 00:00:00 | 00:00:00 | |
| DL1NUX | 2026-09-05 01:33:49 | 51.47670 | 10.29787 | 103° | 78km/h | 3971m | -3.3m/s | -4.3°C | 6.8% | 626.9hPa | 2.7V | 07:30:27 | 03:15:48 | 00:00:00 | |
| BIOWL1-15 | 2026-09-05 01:33:45 | 51.47686 | 10.29692 | 107° | 80km/h | 3981m | -3.4m/s | -4.4°C | 6.3% | 0hPa | 2.6V | 07:33:18 | 03:15:45 | 00:00:00 | |
| HSKMA3-T | 2026-09-05 01:33:44 | 51.47670 | 10.29787 | 103° | 78km/h | 3972m | -3.3m/s | -4.3°C | 6.2% | 626.9hPa | 2.7V | 07:30:45 | 03:15:48 | 00:00:00 | |
| DF8AY | 2026-09-05 01:33:43 | 51.47675 | 10.29755 | 105° | 80km/h | 3975m | -3.3m/s | -4.4°C | 6.3% | 626.6hPa | 2.7V | 07:30:45 | 03:15:47 | 00:00:00 | |
| DL1NUX | 2026-09-05 01:33:39 | 51.47723 | 10.29477 | 106° | 77km/h | 4004m | -3.4m/s | -4.6°C | 7.3% | 624.2hPa | 2.6V | 07:30:37 | 03:15:38 | 00:00:00 | |
| BIOWL1-15 | 2026-09-05 01:33:39 | 51.47718 | 10.29507 | 107° | 78km/h | 4001m | -3.3m/s | -4.6°C | 6.8% | 0hPa | 2.6V | 07:33:18 | 03:15:39 | 00:00:00 | |
| HSKMA3-T | 2026-09-05 01:33:34 | 51.47723 | 10.29477 | 107° | 77km/h | 4004m | -3.4m/s | -4.6°C | 6.9% | 624.2hPa | 2.6V | 07:30:45 | 03:15:38 | 00:00:00 | |
| DF8AY | 2026-09-05 01:33:32 | 51.47733 | 10.29418 | 103° | 75km/h | 4011m | -3.6m/s | -4.6°C | 6.9% | 623.7hPa | 2.7V | 07:30:45 | 03:15:36 | 00:00:00 | |
| DL1NUX | 2026-09-05 01:33:29 | 51.47746 | 10.29325 | 104° | 80km/h | 4021m | -3.2m/s | -4.7°C | 7.4% | 622.8hPa | 2.6V | 07:30:42 | 03:15:33 | 00:00:00 | |
| DL1NUX | 2026-09-05 01:33:29 | 51.47773 | 10.29170 | 104° | 80km/h | 4038m | -3.6m/s | -4.9°C | 7.7% | 621.5hPa | 2.7V | 07:30:47 | 03:15:28 | 00:00:00 | |
| DB0UT-7 | 2026-09-05 01:33:25 | 51.47768 | 10.29201 | 104° | 77km/h | 4035m | -3.4m/s | -4.8°C | 7.6% | 621.6hPa | 2.7V | 00:00:00 | 00:00:00 | 00:00:00 | |
| DL1NUX | 2026-09-05 01:33:24 | 51.47801 | 10.29016 | 105° | 75km/h | 4055m | -3.5m/s | -5°C | 7.8% | 620.1hPa | 2.7V | 07:30:52 | 03:15:23 | 00:00:00 | |
| BIOWL1-15 | 2026-09-05 01:33:24 | 51.47773 | 10.29170 | 104° | 80km/h | 4039m | -3.6m/s | -4.9°C | 7.6% | 0hPa | 2.7V | 07:33:18 | 03:15:28 | 00:00:00 | |
| HSKMA3-T | 2026-09-05 01:33:23 | 51.47778 | 10.29138 | 105° | 82km/h | 4042m | -3.4m/s | -4.9°C | 7.5% | 621.1hPa | 2.6V | 07:31:36 | 03:15:27 | 00:00:00 | |
| DF8AY | 2026-09-05 01:33:21 | 51.47790 | 10.29075 | 108° | 78km/h | 4049m | -3.5m/s | -5°C | 7.5% | 620.7hPa | 2.7V | 07:31:36 | 03:15:25 | 00:00:00 | |
| SONCRA | 2026-09-05 01:33:19 | 51.47806 | 10.28986 | 104° | 75km/h | 4059m | -3.5m/s | -5.0°C | 7.7% | 619.9hPa | 2.7V | 00:00:00 | 00:00:00 | 00:00:00 | |
| DF8AY-15 | 2026-09-05 01:33:18 | 51.47806 | 10.28986 | 105° | 77km/h | 4059m | -3.5m/s | -5.0°C | 7.9% | 619.9hPa | 2.7V | 00:00:00 | 03:15:22 | 00:00:00 | |
| DC4HF-4 | 2026-09-05 01:33:15 | 51.47821 | 10.28896 | 105° | 75km/h | 4069m | -3.6m/s | -5.1°C | 7.9% | 619.1hPa | 2.7V | 00:00:00 | 00:00:00 | 00:00:00 | |
| DL1NUX | 2026-09-05 01:33:14 | 51.47848 | 10.28717 | 105° | 78km/h | 4090m | -3.5m/s | -5.3°C | 8.2% | 617.5hPa | 2.7V | 07:31:02 | 03:15:13 | 00:00:00 | |
| HSKMA3-T | 2026-09-05 01:33:13 | 51.47831 | 10.28838 | 103° | 73km/h | 4077m | -3.4m/s | -5.2°C | 8.2% | 618.5hPa | 2.7V | 07:31:36 | 03:15:17 | 00:00:00 | |
| DF8AY | 2026-09-05 01:33:10 | 51.47843 | 10.28748 | 104° | 78km/h | 4087m | -3.3m/s | -5.3°C | 8.2% | 617.7hPa | 2.6V | 07:31:36 | 03:15:14 | 00:00:00 | |
| DF2AP-13 | 2026-09-05 01:33:08 | 51.47853 | 10.28687 | 107° | 77km/h | 4094m | -3.4m/s | -5.3°C | 8.3% | 617.1hPa | 2.7V | 00:00:00 | 03:15:12 | 00:00:00 | |
| DB0NH | 2026-09-05 01:33:07 | 51.47858 | 10.28658 | 106° | 78km/h | 4097m | -3.5m/s | -5.3°C | 8.5% | 616.7hPa | 2.7V | 00:00:00 | 03:15:11 | 00:00:00 | |
| DL1NUX | 2026-09-05 01:33:04 | 51.47897 | 10.28417 | 104° | 77km/h | 4125m | -3.5m/s | -5.5°C | 9.5% | 614.8hPa | 2.6V | 07:31:12 | 03:15:03 | 00:00:00 | |
| HSKMA3-T | 2026-09-05 01:33:02 | 51.47881 | 10.28507 | 106° | 78km/h | 4114m | -3.3m/s | -5.4°C | 9.3% | 615.5hPa | 2.7V | 07:31:36 | 03:15:06 | 00:00:00 | |
| DF8AY | 2026-09-05 01:33:00 | 51.47897 | 10.28417 | 105° | 77km/h | 4125m | -3.5m/s | -5.5°C | 10% | 614.8hPa | 2.6V | 07:31:36 | 03:15:03 | 00:00:00 | |
| DL1ZP-14 | 2026-09-05 01:32:59 | 51.47897 | 10.28417 | 104° | 75km/h | 4125m | -3.5m/s | -5.5°C | 9.3% | 614.8hPa | 2.6V | 00:00:00 | 00:00:00 | 00:00:00 | |
| DF8AY-15 | 2026-09-05 01:32:58 | 51.47901 | 10.28386 | 104° | 78km/h | 4128m | -3.4m/s | -5.5°C | 9.6% | 614.5hPa | 2.7V | 00:00:00 | 03:15:02 | 00:00:00 | |
| DB0UT-7 | 2026-09-05 01:32:55 | 51.47917 | 10.28293 | 107° | 78km/h | 4138m | -3.3m/s | -5.6°C | 9.8% | 613.7hPa | 2.7V | 07:31:00 | 03:14:59 | 00:00:00 | |
| DL1NUX | 2026-09-05 01:32:54 | 51.47946 | 10.28111 | 105° | 80km/h | 4159m | -3.5m/s | -5.8°C | 11.3% | 612hPa | 2.7V | 07:31:22 | 03:14:53 | 00:00:00 | |
| HSKMA3-T | 2026-09-05 01:32:52 | 51.47932 | 10.28205 | 102° | 77km/h | 4149m | -3.6m/s | -5.7°C | 11.5% | 612.8hPa | 2.7V | 07:31:36 | 03:14:56 | 00:00:00 | |
| DF8AY | 2026-09-05 01:32:49 | 51.47946 | 10.28111 | 106° | 80km/h | 4159m | -3.5m/s | -5.8°C | 12.4% | 612hPa | 2.7V | 07:31:36 | 03:14:53 | 00:00:00 | |
| SONCRA | 2026-09-05 01:32:47 | 51.47957 | 10.28050 | 106° | 77km/h | 4166m | -3.5m/s | -5.9°C | 11.2% | 611.5hPa | 2.6V | 00:00:00 | 00:00:00 | 00:00:00 | |
| BIOWL1-15 | 2026-09-05 01:32:45 | 51.47979 | 10.27927 | 107° | 78km/h | 4180m | -3.3m/s | -6°C | 12.7% | 0hPa | 2.6V | 07:33:18 | 03:14:47 | 00:00:00 | |
| DL1NUX | 2026-09-05 01:32:44 | 51.47973 | 10.27958 | 105° | 80km/h | 4177m | -3.5m/s | -6°C | 11.6% | 610.7hPa | 2.7V | 07:31:27 | 03:14:48 | 00:00:00 | |
| DL1NUX | 2026-09-05 01:32:44 | 51.48000 | 10.27807 | 103° | 78km/h | 4194m | -3.5m/s | -6.1°C | 11.4% | 609.3hPa | 2.7V | 07:31:32 | 03:14:43 | 00:00:00 | |
| HSKMA3-T | 2026-09-05 01:32:41 | 51.47990 | 10.27867 | 106° | 75km/h | 4187m | -3.6m/s | -6°C | 12.6% | 609.9hPa | 2.6V | 07:31:36 | 03:14:45 | 00:00:00 | |
| DF8AY | 2026-09-05 01:32:39 | 51.48000 | 10.27807 | 104° | 78km/h | 4194m | -3.5m/s | -6.1°C | 12.6% | 609.3hPa | 2.7V | 07:31:36 | 03:14:43 | 00:00:00 | |
| DL1NUX | 2026-09-05 01:32:39 | 51.48028 | 10.27654 | 106° | 75km/h | 4211m | -3.5m/s | -6.2°C | 11.3% | 608hPa | 2.7V | 07:31:37 | 03:14:38 | 00:00:00 | |
| DF8AY-15 | 2026-09-05 01:32:38 | 51.48005 | 10.27776 | 105° | 78km/h | 4198m | -3.4m/s | -6.1°C | 11.5% | 609.0hPa | 2.6V | 00:00:00 | 03:14:42 | 00:00:00 | |
| DB0NH | 2026-09-05 01:32:37 | 51.48010 | 10.27744 | 107° | 78km/h | 4201m | -3.5m/s | -6.1°C | 11.4% | 608.7hPa | 2.7V | 00:00:00 | 03:14:41 | 00:00:00 | |
| EDDB2-11 | 2026-09-05 01:32:36 | 51.48016 | 10.27713 | 107° | 78km/h | 4204m | -3.6m/s | -6.2°C | 11.0% | 608.5hPa | 2.7V | 00:00:00 | 00:00:00 | 00:00:00 | |
| DL1NUX | 2026-09-05 01:32:34 | 51.48054 | 10.27502 | 108° | 78km/h | 4229m | -3.5m/s | -6.3°C | 10.9% | 606.6hPa | 2.7V | 07:31:42 | 03:14:33 | 00:00:00 | |
| HSKMA3-T | 2026-09-05 01:32:30 | 51.48048 | 10.27532 | 107° | 78km/h | 4225m | -3.5m/s | -6.3°C | 12.1% | 606.8hPa | 2.6V | 07:32:27 | 03:14:34 | 00:00:00 | |
| BIOWL1-15 | 2026-09-05 01:32:28 | 51.48060 | 10.27472 | 108° | 77km/h | 4232m | -3.9m/s | -6.3°C | 12% | 0hPa | 2.7V | 07:33:18 | 03:14:32 | 00:00:00 | |
| DB0UT-7 | 2026-09-05 01:32:25 | 51.48076 | 10.27384 | 104° | 78km/h | 4243m | -3.5m/s | -6.3°C | 10.7% | 605.5hPa | 2.6V | 00:00:00 | 00:00:00 | 00:00:00 | |
| DL1NUX | 2026-09-05 01:32:24 | 51.48108 | 10.27199 | 104° | 75km/h | 4265m | -3.6m/s | -6.4°C | 10% | 603.8hPa | 2.6V | 07:31:52 | 03:14:23 | 00:00:00 | |
| HSKMA3-T | 2026-09-05 01:32:20 | 51.48103 | 10.27229 | 106° | 77km/h | 4261m | -3.5m/s | -6.4°C | 10.8% | 604.2hPa | 2.6V | 07:32:27 | 03:14:24 | 00:00:00 | |
| BIOWL1-15 | 2026-09-05 01:32:20 | 51.48113 | 10.27169 | 103° | 77km/h | 4269m | -3.8m/s | -6.4°C | 10.6% | 0hPa | 2.6V | 07:33:18 | 03:14:22 | 00:00:00 | |
| DF8AY | 2026-09-05 01:32:17 | 51.48117 | 10.27138 | 103° | 80km/h | 4272m | -3.6m/s | -6.5°C | 10.6% | 603.2hPa | 2.6V | 07:32:27 | 03:14:21 | 00:00:00 | |
| DL1NUX | 2026-09-05 01:32:14 | 51.48134 | 10.27043 | 108° | 78km/h | 4283m | -3.5m/s | -6.5°C | 9.8% | 602.5hPa | 2.6V | 07:31:57 | 03:14:18 | 00:00:00 | |
| DL1NUX | 2026-09-05 01:32:14 | 51.48161 | 10.26894 | 104° | 78km/h | 4302m | -3.6m/s | -6.7°C | 9.7% | 601hPa | 2.6V | 07:32:02 | 03:14:13 | 00:00:00 | |
| HSKMA3-T | 2026-09-05 01:32:09 | 51.48161 | 10.26894 | 105° | 78km/h | 4302m | -3.6m/s | -6.7°C | 10.4% | 601hPa | 2.6V | 07:32:27 | 03:14:13 | 00:00:00 | |
| DL1NUX | 2026-09-05 01:32:09 | 51.48188 | 10.26744 | 104° | 77km/h | 4320m | -3.7m/s | -6.8°C | 9.8% | 599.6hPa | 2.6V | 07:32:07 | 03:14:08 | 00:00:00 | |
| BIOWL1-15 | 2026-09-05 01:32:08 | 51.48166 | 10.26862 | 106° | 80km/h | 4305m | -3.7m/s | -6.7°C | 10.5% | 0hPa | 2.6V | 07:33:18 | 03:14:12 | 00:00:00 | |
| DF8AY | 2026-09-05 01:32:07 | 51.48172 | 10.26832 | 108° | 78km/h | 4309m | -3.7m/s | -6.7°C | 10.5% | 600.5hPa | 2.6V | 07:32:27 | 03:14:11 | 00:00:00 | |
| DB0NH | 2026-09-05 01:32:07 | 51.48172 | 10.26832 | 108° | 77km/h | 4309m | -3.6m/s | -6.7°C | 9.8% | 600.4hPa | 2.6V | 07:32:00 | 03:14:11 | 00:00:00 | |
| EDDB2-11 | 2026-09-05 01:32:05 | 51.48188 | 10.26744 | 104° | 75km/h | 4320m | -3.7m/s | -6.8°C | 9.5% | 599.6hPa | 2.6V | 00:00:00 | 00:00:00 | 00:00:00 | |
| DL1NUX | 2026-09-05 01:32:04 | 51.48215 | 10.26592 | 106° | 75km/h | 4339m | -3.8m/s | -7°C | 10% | 598.1hPa | 2.6V | 07:32:12 | 03:14:03 | 00:00:00 | |
| DC4HF-4 | 2026-09-05 01:32:03 | 51.48193 | 10.26713 | 103° | 77km/h | 4324m | -3.7m/s | -6.9°C | 9.6% | 599.4hPa | 2.6V | 00:00:00 | 00:00:00 | 00:00:00 | |
| DL1NUX | 2026-09-05 01:31:59 | 51.48241 | 10.26442 | 106° | 77km/h | 4358m | -3.8m/s | -7.2°C | 10.1% | 596.8hPa | 2.6V | 07:32:17 | 03:13:58 | 00:00:00 | |
| HSKMA3-T | 2026-09-05 01:31:58 | 51.48220 | 10.26563 | 105° | 75km/h | 4343m | -3.8m/s | -7°C | 10.7% | 597.9hPa | 2.6V | 07:32:27 | 03:14:02 | 00:00:00 | |
| DF8AY | 2026-09-05 01:31:57 | 51.48225 | 10.26533 | 104° | 77km/h | 4347m | -3.6m/s | -7.1°C | 10.7% | 597.6hPa | 2.6V | 07:32:27 | 03:14:01 | 00:00:00 | |
| DB0UT-7 | 2026-09-05 01:31:55 | 51.48235 | 10.26472 | 106° | 77km/h | 4354m | -3.8m/s | -7.1°C | 10.1% | 597.0hPa | 2.6V | 00:00:00 | 03:13:59 | 00:00:00 | |
| DL1NUX | 2026-09-05 01:31:54 | 51.48262 | 10.26296 | 99° | 78km/h | 4377m | -3.8m/s | -7.3°C | 10.2% | 595.4hPa | 2.6V | 07:32:22 | 03:13:53 | 00:00:00 | |
| HSKMA3-T | 2026-09-05 01:31:47 | 51.48270 | 10.26232 | 103° | 84km/h | 4384m | -3.5m/s | -7.4°C | 11.2% | 594.7hPa | 2.6V | 07:32:27 | 03:13:51 | 00:00:00 | |
| DF8AY | 2026-09-05 01:31:46 | 51.48276 | 10.26199 | 106° | 84km/h | 4388m | -3.6m/s | -7.4°C | 11.1% | 594.6hPa | 2.6V | 07:32:27 | 03:13:50 | 00:00:00 | |
| SONCRA | 2026-09-05 01:31:45 | 51.48282 | 10.26167 | 108° | 80km/h | 4391m | -3.3m/s | -7.5°C | 9.9% | 594.2hPa | 2.6V | 00:00:00 | 00:00:00 | 00:00:00 | |
| DL1NUX | 2026-09-05 01:31:44 | 51.48289 | 10.26137 | 110° | 78km/h | 4394m | -3.7m/s | -7.5°C | 10.2% | 593.9hPa | 2.6V | 07:32:27 | 03:13:48 | 00:00:00 | |
| DL1NUX | 2026-09-05 01:31:44 | 51.48315 | 10.26000 | 100° | 69km/h | 4413m | -3.7m/s | -7.7°C | 10.2% | 592.6hPa | 2.6V | 07:32:32 | 03:13:43 | 00:00:00 | |
| HSKMA3-T | 2026-09-05 01:31:37 | 51.48322 | 10.25941 | 98° | 77km/h | 4420m | -3.9m/s | -7.7°C | 11.2% | 591.9hPa | 2.6V | 07:33:18 | 03:13:41 | 00:00:00 | |
| DF8AY | 2026-09-05 01:31:35 | 51.48328 | 10.25877 | 101° | 84km/h | 4428m | -3.7m/s | -7.8°C | 11.2% | 591.4hPa | 2.6V | 07:33:18 | 03:13:39 | 00:00:00 | |
| DL1NUX | 2026-09-05 01:31:34 | 51.48333 | 10.25844 | 103° | 84km/h | 4431m | -3.7m/s | -7.8°C | 10.2% | 591.1hPa | 2.6V | 07:32:37 | 03:13:38 | 00:00:00 | |
| EDDB2-11 | 2026-09-05 01:31:34 | 51.48338 | 10.25810 | 105° | 84km/h | 4435m | -3.8m/s | -7.9°C | 9.9% | 590.8hPa | 2.6V | 00:00:00 | 00:00:00 | 00:00:00 | |
| DL1NUX | 2026-09-05 01:31:29 | 51.48392 | 10.25554 | 102° | 68km/h | 4469m | -4m/s | -8.1°C | 10.2% | 588.2hPa | 2.6V | 07:32:47 | 03:13:28 | 00:00:00 | |
| BIOWL1-15 | 2026-09-05 01:31:28 | 51.48384 | 10.25606 | 107° | 68km/h | 4462m | -3.9m/s | -8.1°C | 11.2% | 0hPa | 2.6V | 07:33:18 | 03:13:30 | 00:00:00 | |
| HSKMA3-T | 2026-09-05 01:31:27 | 51.48379 | 10.25632 | 110° | 69km/h | 4458m | -3.9m/s | -8°C | 11.2% | 589.1hPa | 2.6V | 07:33:18 | 03:13:31 | 00:00:00 | |
| DF8AY | 2026-09-05 01:31:25 | 51.48389 | 10.25580 | 105° | 68km/h | 4465m | -3.8m/s | -8.1°C | 11.2% | 588.5hPa | 2.6V | 07:33:18 | 03:13:29 | 00:00:00 | |
| DB0UT-7 | 2026-09-05 01:31:25 | 51.48389 | 10.25580 | 106° | 77km/h | 4466m | -3.8m/s | -8.1°C | 10.2% | 588.4hPa | 2.6V | 00:00:00 | 00:00:00 | 00:00:00 | |
| DL1NUX | 2026-09-05 01:31:24 | 51.48408 | 10.25406 | 100° | 82km/h | 4488m | -3.8m/s | -8.3°C | 10.3% | 586.8hPa | 2.6V | 07:32:52 | 03:13:23 | 00:00:00 | |
| HSKMA3-T | 2026-09-05 01:31:17 | 51.48417 | 10.25340 | 105° | 86km/h | 4496m | -3.7m/s | -8.4°C | 11.4% | 586.2hPa | 2.6V | 07:33:18 | 03:13:21 | 00:00:00 | |
| BIOWL1-15 | 2026-09-05 01:31:15 | 51.48458 | 10.25153 | 112° | 77km/h | 4520m | -4m/s | -8.6°C | 11.6% | 0hPa | 2.6V | 07:33:18 | 03:13:15 | 00:00:00 | |
| DF8AY | 2026-09-05 01:31:14 | 51.48437 | 10.25243 | 110° | 82km/h | 4508m | -4m/s | -8.5°C | 11.4% | 585.3hPa | 2.6V | 07:33:18 | 03:13:18 | 00:00:00 | |
| DL1NUX | 2026-09-05 01:31:14 | 51.48437 | 10.25243 | 110° | 82km/h | 4508m | -4m/s | -8.5°C | 10.4% | 585.3hPa | 2.6V | 07:32:57 | 03:13:18 | 00:00:00 | |
| DL1NUX | 2026-09-05 01:31:14 | 51.48472 | 10.25097 | 111° | 71km/h | 4527m | -3.6m/s | -8.7°C | 10.7% | 583.8hPa | 2.6V | 07:33:02 | 03:13:13 | 00:00:00 | |
| HSKMA3-T | 2026-09-05 01:31:07 | 51.48484 | 10.25044 | 108° | 68km/h | 4535m | -3.9m/s | -8.7°C | 11.9% | 583.2hPa | 2.6V | 07:33:18 | 03:13:11 | 00:00:00 | |
| DB0NH | 2026-09-05 01:31:07 | 51.48484 | 10.25044 | 109° | 75km/h | 4535m | -3.9m/s | -8.7°C | 10.7% | 583.1hPa | 2.6V | 00:00:00 | 03:13:11 | 00:00:00 | |
| DL1NUX | 2026-09-05 01:31:04 | 51.48497 | 10.24964 | 100° | 69km/h | 4547m | -3.8m/s | -8.8°C | 10.7% | 582.4hPa | 2.6V | 07:33:07 | 03:13:08 | 00:00:00 | |
| DL1NUX | 2026-09-05 01:31:04 | 51.48512 | 10.24809 | 101° | 84km/h | 4567m | -4m/s | -9°C | 10.9% | 580.9hPa | 2.6V | 07:33:12 | 03:13:03 | 00:00:00 | |
| DF8AY | 2026-09-05 01:31:03 | 51.48500 | 10.24935 | 98° | 73km/h | 4551m | -4m/s | -8.9°C | 11.9% | 582hPa | 2.6V | 07:33:18 | 03:13:07 | 00:00:00 | |
| HSKMA3-T | 2026-09-05 01:30:56 | 51.48528 | 10.24710 | 107° | 84km/h | 4578m | -3.9m/s | -9.1°C | 12.2% | 580hPa | 2.6V | 07:33:18 | 03:13:00 | 00:00:00 | |
| DL1ZP-14 | 2026-09-05 01:30:55 | 51.48534 | 10.24677 | 109° | 82km/h | 4582m | -4.0m/s | -9.2°C | 10.6% | 579.6hPa | 2.6V | 00:00:00 | 00:00:00 | 00:00:00 | |
| DL1NUX | 2026-09-05 01:30:54 | 51.48542 | 10.24646 | 110° | 82km/h | 4586m | -4.1m/s | -9.2°C | 11% | 579.4hPa | 2.6V | 07:33:17 | 03:12:58 | 00:00:00 | |
| DL1NUX | 2026-09-05 01:30:54 | 51.48577 | 10.24502 | 111° | 71km/h | 4605m | -3.8m/s | -9.4°C | 11.2% | 577.8hPa | 2.6V | 07:33:22 | 03:12:53 | 00:00:00 | |
| BIOWL1-15 | 2026-09-05 01:30:53 | 51.48549 | 10.24615 | 111° | 80km/h | 4591m | -3.7m/s | -9.2°C | 12.2% | 0hPa | 2.6V | 07:33:18 | 03:12:57 | 00:00:00 | |
| DC4HF-4 | 2026-09-05 01:30:51 | 51.48571 | 10.24529 | 111° | 73km/h | 4601m | -3.8m/s | -9.3°C | 10.7% | 578.2hPa | 2.6V | 00:00:00 | 00:00:00 | 00:00:00 | |
| DL1NUX | 2026-09-05 01:30:49 | 51.48605 | 10.24371 | 104° | 68km/h | 4625m | -4.1m/s | -9.5°C | 11.3% | 576.4hPa | 2.6V | 07:33:27 | 03:12:48 | 00:00:00 | |
| HSKMA3-T | 2026-09-05 01:30:46 | 51.48595 | 10.24423 | 108° | 68km/h | 4617m | -4.1m/s | -9.5°C | 12.4% | 577.1hPa | 2.6V | 07:34:09 | 03:12:50 | 00:00:00 | |
| DB0ND-19 | 2026-09-05 01:30:45 | 51.48600 | 10.24397 | 106° | 66km/h | 4621m | -3.9m/s | 0°C | -1.0% | 576.7hPa | 2.6V | 00:00:00 | 00:00:00 | 00:00:00 | |
| DF8AY | 2026-09-05 01:30:43 | 51.48609 | 10.24344 | 102° | 68km/h | 4629m | -4m/s | -9.6°C | 12.6% | 576.1hPa | 2.6V | 07:34:09 | 03:12:47 | 00:00:00 | |
| AM1SDL-15 | 2026-09-05 01:30:40 | 51.48618 | 10.24261 | 99° | 78km/h | 4641m | -4.2m/s | -9.6°C | 11.6% | 575.2hPa | 2.6V | 00:00:00 | 03:12:44 | 00:00:00 | |
| DL1NUX | 2026-09-05 01:30:39 | 51.48638 | 10.24075 | 102° | 84km/h | 4665m | -4m/s | -9.9°C | 11.5% | 573.5hPa | 2.6V | 07:33:37 | 03:12:38 | 00:00:00 | |
| HSKMA3-T | 2026-09-05 01:30:35 | 51.48633 | 10.24108 | 101° | 82km/h | 4661m | -4.1m/s | -9.9°C | 12.8% | 573.7hPa | 2.6V | 07:34:09 | 03:12:39 | 00:00:00 | |
| DF8AY | 2026-09-05 01:30:32 | 51.48648 | 10.24009 | 107° | 84km/h | 4673m | -4m/s | -10°C | 12.9% | 572.8hPa | 2.6V | 07:34:09 | 03:12:36 | 00:00:00 | |
| EDDB2-11 | 2026-09-05 01:30:32 | 51.48655 | 10.23977 | 108° | 82km/h | 4677m | -4.0m/s | -10.0°C | 11.2% | 572.5hPa | 2.6V | 00:00:00 | 00:00:00 | 00:00:00 | |
| DL1NUX | 2026-09-05 01:30:29 | 51.48699 | 10.23782 | 105° | 66km/h | 4705m | -4.2m/s | -10.2°C | 12.1% | 570.5hPa | 2.6V | 07:33:47 | 03:12:28 | 00:00:00 | |
| BIOWL1-15 | 2026-09-05 01:30:24 | 51.48699 | 10.23782 | 105° | 66km/h | 4705m | -4.2m/s | -10.3°C | 13.6% | 0hPa | 2.6V | 18:12:15 | 03:12:28 | 00:00:00 | |
| DF8AY | 2026-09-05 01:30:21 | 51.48710 | 10.23703 | 101° | 68km/h | 4718m | -4.3m/s | -10.4°C | 13.7% | 569.6hPa | 2.6V | 07:34:09 | 03:12:25 | 00:00:00 | |
| DL1NUX | 2026-09-05 01:30:19 | 51.48732 | 10.23495 | 100° | 80km/h | 4747m | -4.2m/s | -10.6°C | 12.6% | 567.5hPa | 2.6V | 07:33:57 | 03:12:18 | 00:00:00 | |
| BIOWL1-15 | 2026-09-05 01:30:14 | 51.48751 | 10.23365 | 106° | 84km/h | 4763m | -4.3m/s | -10.7°C | 14.5% | 0hPa | 2.6V | 18:12:15 | 03:12:14 | 00:00:00 | |
| DL1NUX | 2026-09-05 01:30:14 | 51.48757 | 10.23333 | 107° | 84km/h | 4768m | -4.3m/s | -10.8°C | 12.8% | 565.8hPa | 2.5V | 07:34:02 | 03:12:13 | 00:00:00 | |
| HSKMA3-T | 2026-09-05 01:30:14 | 51.48732 | 10.23495 | 101° | 80km/h | 4747m | -4.2m/s | -10.6°C | 14.4% | 567.5hPa | 2.6V | 07:34:09 | 03:12:18 | 00:00:00 | |
| DF8AY | 2026-09-05 01:30:11 | 51.48745 | 10.23397 | 105° | 82km/h | 4759m | -4.3m/s | -10.7°C | 14.5% | 566.5hPa | 2.6V | 07:34:09 | 03:12:15 | 00:00:00 | |
| DL1NUX | 2026-09-05 01:30:09 | 51.48792 | 10.23181 | 112° | 73km/h | 4788m | -4.1m/s | -11°C | 13% | 564.3hPa | 2.6V | 07:34:07 | 03:12:08 | 00:00:00 | |
| DF2AP-13 | 2026-09-05 01:30:08 | 51.48764 | 10.23301 | 109° | 73km/h | 4772m | -4.2m/s | -10.8°C | 12.8% | 565.5hPa | 2.6V | 00:00:00 | 03:12:12 | 00:00:00 | |
| DB0NH | 2026-09-05 01:30:07 | 51.48771 | 10.23269 | 110° | 71km/h | 4776m | -4.0m/s | -10.8°C | 12.9% | 565.2hPa | 2.6V | 00:00:00 | 03:12:11 | 00:00:00 | |
| DL1NUX | 2026-09-05 01:30:04 | 51.48822 | 10.23052 | 106° | 64km/h | 4809m | -4.2m/s | -11.1°C | 12.9% | 562.8hPa | 2.5V | 07:34:12 | 03:12:03 | 00:00:00 | |
| HSKMA3-T | 2026-09-05 01:30:04 | 51.48792 | 10.23181 | 112° | 73km/h | 4788m | -4.1m/s | -11°C | 14.6% | 564.3hPa | 2.6V | 07:34:09 | 03:12:08 | 00:00:00 | |
| BIOWL1-15 | 2026-09-05 01:30:00 | 51.48817 | 10.23077 | 109° | 66km/h | 4805m | -4.1m/s | 0°C | 0% | 0hPa | 2.6V | 18:12:15 | 03:12:04 | 00:00:00 | |
| DF8AY-15 | 2026-09-05 01:29:58 | 51.48827 | 10.23027 | 106° | 71km/h | 4814m | -4.2m/s | -11.1°C | 12.8% | 562.5hPa | 2.6V | 00:00:00 | 03:12:02 | 00:00:00 | |
| DB0UT-7 | 2026-09-05 01:29:55 | 51.48838 | 10.22951 | 103° | 69km/h | 4826m | -4.2m/s | -11.2°C | 12.5% | 561.5hPa | 2.6V | 00:00:00 | 03:11:59 | 00:00:00 | |
| DL1NUX | 2026-09-05 01:29:54 | 51.48856 | 10.22791 | 98° | 71km/h | 4852m | -4.1m/s | -11.4°C | 12.4% | 559.8hPa | 2.6V | 07:34:22 | 03:11:53 | 00:00:00 | |
| HSKMA3-T | 2026-09-05 01:29:53 | 51.48845 | 10.22899 | 101° | 66km/h | 4835m | -4.3m/s | -11.3°C | 14% | 561hPa | 2.5V | 07:35:00 | 03:11:57 | 00:00:00 | |
| DF8AY | 2026-09-05 01:29:50 | 51.48853 | 10.22819 | 99° | 69km/h | 4848m | -4.3m/s | -11.4°C | 13.7% | 560hPa | 2.6V | 07:35:00 | 03:11:54 | 00:00:00 | |
| HSKMA3-T | 2026-09-05 01:29:42 | 51.48884 | 10.22576 | 108° | 80km/h | 4882m | -4.2m/s | -11.6°C | 15.2% | 557.6hPa | 2.6V | 07:35:00 | 03:11:46 | 00:00:00 | |
| DF8AY | 2026-09-05 01:29:39 | 51.48904 | 10.22488 | 112° | 73km/h | 4894m | -4.3m/s | -11.7°C | 15.4% | 556.6hPa | 2.6V | 07:35:00 | 03:11:43 | 00:00:00 | |
| DL1NUX | 2026-09-05 01:29:39 | 51.48904 | 10.22488 | 112° | 73km/h | 4894m | -4.3m/s | -11.7°C | 13.6% | 556.6hPa | 2.6V | 07:34:32 | 03:11:43 | 00:00:00 | |
| DC4HF-4 | 2026-09-05 01:29:39 | 51.48911 | 10.22461 | 112° | 69km/h | 4898m | -4.4m/s | -11.7°C | 13.0% | 556.4hPa | 2.6V | 00:00:00 | 00:00:00 | 00:00:00 | |
| DF2AP-13 | 2026-09-05 01:29:38 | 51.48911 | 10.22461 | 113° | 69km/h | 4898m | -4.3m/s | -11.7°C | 13.6% | 556.4hPa | 2.6V | 00:00:00 | 03:11:42 | 00:00:00 | |
| DB0NH | 2026-09-05 01:29:37 | 51.48917 | 10.22435 | 113° | 69km/h | 4903m | -4.1m/s | -11.7°C | 13.4% | 556.0hPa | 2.6V | 00:00:00 | 03:11:41 | 00:00:00 | |
| DL1NUX | 2026-09-05 01:29:34 | 51.48956 | 10.22242 | 99° | 64km/h | 4937m | -4.2m/s | -11.9°C | 12.2% | 553.6hPa | 2.6V | 07:34:42 | 03:11:33 | 00:00:00 | |
| HSKMA3-T | 2026-09-05 01:29:31 | 51.48950 | 10.22291 | 104° | 60km/h | 4928m | -4.3m/s | -11.9°C | 13.7% | 554.2hPa | 2.5V | 07:35:00 | 03:11:35 | 00:00:00 | |
| DF8AY | 2026-09-05 01:29:29 | 51.48956 | 10.22242 | 99° | 64km/h | 4937m | -4.2m/s | -11.9°C | 13.7% | 553.6hPa | 2.6V | 07:35:00 | 03:11:33 | 00:00:00 | |
| DL1NUX | 2026-09-05 01:29:29 | 51.48969 | 10.22101 | 100° | 77km/h | 4958m | -4.2m/s | -12.1°C | 12.4% | 552hPa | 2.6V | 07:34:47 | 03:11:28 | 00:00:00 | |
| DB0UT-7 | 2026-09-05 01:29:25 | 51.48966 | 10.22132 | 99° | 77km/h | 4954m | -4.3m/s | -12.0°C | 12.3% | 552.3hPa | 2.6V | 00:00:00 | 00:00:00 | 00:00:00 | |
| DL1NUX | 2026-09-05 01:29:24 | 51.48995 | 10.21948 | 109° | 78km/h | 4980m | -4.3m/s | -12.3°C | 12.5% | 550.4hPa | 2.6V | 07:34:52 | 03:11:23 | 00:00:00 | |
| HSKMA3-T | 2026-09-05 01:29:21 | 51.48983 | 10.22009 | 106° | 78km/h | 4971m | -4.4m/s | -12.2°C | 14% | 551.2hPa | 2.5V | 07:35:00 | 03:11:25 | 00:00:00 | |
| DF8AY | 2026-09-05 01:29:19 | 51.48995 | 10.21948 | 109° | 78km/h | 4980m | -4.3m/s | -12.3°C | 14% | 550.4hPa | 2.6V | 07:35:00 | 03:11:23 | 00:00:00 | |
| DL1NUX | 2026-09-05 01:29:19 | 51.49030 | 10.21809 | 113° | 69km/h | 5001m | -4.2m/s | -12.5°C | 13.4% | 548.9hPa | 2.6V | 07:34:57 | 03:11:18 | 00:00:00 | |
| HSKMA3-T | 2026-09-05 01:29:11 | 51.49050 | 10.21735 | 111° | 62km/h | 5014m | -4.3m/s | -12.6°C | 15.5% | 548hPa | 2.5V | 07:35:00 | 03:11:15 | 00:00:00 | |
| SONCRA | 2026-09-05 01:29:10 | 51.49055 | 10.21711 | 109° | 60km/h | 5018m | -4.2m/s | -12.6°C | 12.8% | 547.6hPa | 2.6V | 00:00:00 | 00:00:00 | 00:00:00 | |
| DL1NUX | 2026-09-05 01:29:09 | 51.49075 | 10.21559 | 99° | 71km/h | 5044m | -4.2m/s | -12.8°C | 12.1% | 545.9hPa | 2.6V | 07:35:07 | 03:11:08 | 00:00:00 | |
| DF8AY | 2026-09-05 01:29:08 | 51.49064 | 10.21664 | 104° | 60km/h | 5027m | -4.2m/s | -12.7°C | 14.2% | 547hPa | 2.6V | 07:35:51 | 03:11:12 | 00:00:00 | |
| HSKMA3-T | 2026-09-05 01:29:00 | 51.49090 | 10.21438 | 103° | 78km/h | 5062m | -4.2m/s | -12.9°C | 12.7% | 544.6hPa | 2.5V | 07:35:51 | 03:11:04 | 00:00:00 | |
| DL1NUX | 2026-09-05 01:28:59 | 51.49128 | 10.21258 | 113° | 73km/h | 5088m | -4.2m/s | -13.1°C | 11.1% | 542.7hPa | 2.6V | 07:35:17 | 03:10:58 | 00:00:00 | |
| DF8AY | 2026-09-05 01:28:57 | 51.49107 | 10.21345 | 109° | 78km/h | 5074m | -4m/s | -13°C | 12.3% | 543.6hPa | 2.6V | 07:35:51 | 03:11:01 | 00:00:00 | |
| HSKMA3-T | 2026-09-05 01:28:50 | 51.49155 | 10.21157 | 111° | 64km/h | 5104m | -4.4m/s | -13.2°C | 12.8% | 541.5hPa | 2.5V | 07:35:51 | 03:10:54 | 00:00:00 | |
| BIOWL1-15 | 2026-09-05 01:28:48 | 51.49173 | 10.21061 | 103° | 62km/h | 5122m | -4.1m/s | -13.3°C | 14% | 540.2hPa | 2.5V | 07:35:51 | 03:10:50 | 00:00:00 | |
| DF8AY | 2026-09-05 01:28:47 | 51.49169 | 10.21085 | 105° | 62km/h | 5117m | -4.1m/s | -13.3°C | 13.8% | 540.6hPa | 2.6V | 07:35:51 | 03:10:51 | 00:00:00 | |
| HSKMA3-T | 2026-09-05 01:28:40 | 51.49191 | 10.20902 | 100° | 73km/h | 5147m | -4.3m/s | -13.6°C | 14.8% | 538.5hPa | 2.5V | 07:35:51 | 03:10:44 | 00:00:00 | |
| DL1NUX | 2026-09-05 01:28:39 | 51.49221 | 10.20719 | 110° | 80km/h | 5174m | -4.4m/s | -13.8°C | 12.7% | 536.6hPa | 2.6V | 07:35:37 | 03:10:38 | 00:00:00 | |
| DF8AY | 2026-09-05 01:28:37 | 51.49203 | 10.20811 | 104° | 78km/h | 5160m | -4.3m/s | -13.6°C | 14.4% | 537.5hPa | 2.6V | 07:35:51 | 03:10:41 | 00:00:00 | |
| BIOWL1-15 | 2026-09-05 01:28:34 | 51.49228 | 10.20689 | 113° | 78km/h | 5178m | -4.1m/s | -13.8°C | 14.3% | 536.3hPa | 2.6V | 07:35:51 | 03:10:37 | 00:00:00 | |
| NBG1-10 | 2026-09-05 01:28:31 | 51.49244 | 10.20633 | 116° | 106km/h | 5186m | -4.2m/s | -13.8°C | 12.8% | 535.6hPa | 2.5V | 00:00:00 | 03:10:35 | 00:00:00 | |
| DD1CC8 | 2026-09-05 01:28:30 | 51.49260 | 10.20581 | 115° | 68km/h | 5194m | -4.0m/s | -13.9°C | 11.8% | 535.0hPa | 2.6V | 00:00:00 | 00:00:00 | 00:00:00 | |
| DL1NUX | 2026-09-05 01:28:29 | 51.49289 | 10.20459 | 104° | 64km/h | 5215m | -4.3m/s | -14°C | 11.7% | 533.6hPa | 2.6V | 07:35:47 | 03:10:28 | 00:00:00 | |
| HSKMA3-T | 2026-09-05 01:28:29 | 51.49260 | 10.20581 | 116° | 69km/h | 5194m | -4m/s | -13.9°C | 14% | 535hPa | 2.6V | 07:35:51 | 03:10:33 | 00:00:00 | |
| DF8AY | 2026-09-05 01:28:27 | 51.49274 | 10.20532 | 113° | 64km/h | 5202m | -4.1m/s | -13.9°C | 13.5% | 534.4hPa | 2.6V | 07:35:51 | 03:10:31 | 00:00:00 | |
| BIOWL1-15 | 2026-09-05 01:28:21 | 51.49322 | 10.20202 | 104° | 80km/h | 5255m | -4.3m/s | -14.3°C | 12.6% | 530.7hPa | 2.5V | 07:39:15 | 03:10:19 | 00:00:00 | |
| DL1ZP-14 | 2026-09-05 01:28:20 | 51.49306 | 10.20324 | 100° | 71km/h | 5237m | -4.5m/s | -14.2°C | 10.7% | 532.1hPa | 2.6V | 00:00:00 | 00:00:00 | 00:00:00 | |
| DL1NUX | 2026-09-05 01:28:19 | 51.49327 | 10.20171 | 106° | 82km/h | 5259m | -4.2m/s | -14.3°C | 11.4% | 530.4hPa | 2.6V | 07:35:57 | 03:10:18 | 00:00:00 | |
| HSKMA3-T | 2026-09-05 01:28:18 | 51.49309 | 10.20295 | 101° | 75km/h | 5242m | -4.4m/s | -14.2°C | 12.2% | 531.7hPa | 2.6V | 07:36:42 | 03:10:22 | 00:00:00 | |
| DF8AY | 2026-09-05 01:28:17 | 51.49317 | 10.20234 | 103° | 78km/h | 5250m | -4.6m/s | -14.3°C | 12.6% | 531.1hPa | 2.5V | 07:36:42 | 03:10:20 | 00:00:00 | |
| BIOWL9-15 | 2026-09-05 01:28:15 | 51.49328 | 10.20171 | 106° | 80km/h | 5259m | -4.2m/s | -14.4°C | 10.8% | 530.4hPa | 2.5V | 00:00:00 | 00:00:00 | 00:00:00 | |
| DL3AQ-11 | 2026-09-05 01:28:12 | 51.49341 | 10.20108 | 110° | 80km/h | 5267m | -4.3m/s | -14.4°C | 10.8% | 529.8hPa | 2.5V | 00:00:00 | 00:00:00 | 00:00:00 | |
| DL1NUX | 2026-09-05 01:28:09 | 51.49401 | 10.19891 | 111° | 66km/h | 5302m | -4.2m/s | -14.6°C | 9.9% | 527.5hPa | 2.5V | 07:36:07 | 03:10:08 | 00:00:00 | |
| BIOWL1-15 | 2026-09-05 01:28:08 | 51.49372 | 10.19993 | 115° | 73km/h | 5284m | -4.3m/s | -14.5°C | 12.7% | 528.7hPa | 2.5V | 07:39:15 | 03:10:12 | 00:00:00 | |
| HSKMA3-T | 2026-09-05 01:28:07 | 51.49380 | 10.19967 | 115° | 69km/h | 5289m | -4.3m/s | -14.6°C | 12.4% | 528.4hPa | 2.6V | 07:36:42 | 03:10:11 | 00:00:00 | |
| DF8AY | 2026-09-05 01:28:05 | 51.49394 | 10.19916 | 113° | 68km/h | 5297m | -4.4m/s | -14.6°C | 11.5% | 527.9hPa | 2.6V | 07:36:42 | 03:10:09 | 00:00:00 | |
| DL3AQ-11 | 2026-09-05 01:28:01 | 51.49416 | 10.19817 | 104° | 64km/h | 5315m | -4.4m/s | -14.7°C | 9.2% | 526.6hPa | 2.6V | 00:00:00 | 00:00:00 | 00:00:00 | |
| DL1NUX | 2026-09-05 01:27:59 | 51.49439 | 10.19620 | 100° | 75km/h | 5345m | -4.4m/s | -14.9°C | 10.2% | 524.4hPa | 2.6V | 07:36:17 | 03:09:58 | 00:00:00 | |
| HSKMA3-T | 2026-09-05 01:27:57 | 51.49430 | 10.19708 | 100° | 71km/h | 5332m | -4.3m/s | -14.8°C | 11.1% | 525.3hPa | 2.6V | 07:36:42 | 03:10:01 | 00:00:00 | |
| DF8AY | 2026-09-05 01:27:55 | 51.49436 | 10.19650 | 100° | 75km/h | 5341m | -4.3m/s | -14.8°C | 11.1% | 524.8hPa | 2.6V | 07:36:42 | 03:09:59 | 00:00:00 | |
| DC4HF-4 | 2026-09-05 01:27:50 | 51.49455 | 10.19494 | 103° | 80km/h | 5363m | -4.4m/s | -15.0°C | 9.9% | 523.3hPa | 2.6V | 00:00:00 | 00:00:00 | 00:00:00 | |
| DL1NUX | 2026-09-05 01:27:49 | 51.49495 | 10.19303 | 111° | 80km/h | 5388m | -4.2m/s | -15.1°C | 10.3% | 521.5hPa | 2.6V | 07:36:27 | 03:09:48 | 00:00:00 | |
| HSKMA3-T | 2026-09-05 01:27:47 | 51.49473 | 10.19397 | 109° | 84km/h | 5376m | -4.2m/s | -15.1°C | 11.2% | 522.3hPa | 2.5V | 07:36:42 | 03:09:51 | 00:00:00 | |
| BIOWL1-15 | 2026-09-05 01:27:46 | 51.49502 | 10.19273 | 113° | 80km/h | 5393m | -4.2m/s | -15.1°C | 11.2% | 521.2hPa | 2.6V | 07:39:15 | 03:09:47 | 00:00:00 | |
| DF8AY | 2026-09-05 01:27:44 | 51.49494 | 10.19303 | 112° | 80km/h | 5388m | -4.2m/s | -15.1°C | 11.2% | 521.5hPa | 2.6V | 07:36:42 | 03:09:48 | 00:00:00 | |
| BIOWL9-15 | 2026-09-05 01:27:44 | 51.49502 | 10.19273 | 113° | 78km/h | 5393m | -4.2m/s | -15.1°C | 9.8% | 521.2hPa | 2.5V | 00:00:00 | 00:00:00 | 00:00:00 | |
| AM1SDL-15 | 2026-09-05 01:27:40 | 51.49526 | 10.19187 | 115° | 75km/h | 5406m | -4.3m/s | -15.2°C | 10.9% | 520.2hPa | 2.5V | 00:00:00 | 03:09:44 | 00:00:00 | |
| DL1NUX | 2026-09-05 01:27:39 | 51.49562 | 10.19031 | 104° | 68km/h | 5431m | -4.2m/s | -15.3°C | 10.1% | 518.5hPa | 2.5V | 07:36:37 | 03:09:38 | 00:00:00 | |
| BIOWL1-15 | 2026-09-05 01:27:36 | 51.49557 | 10.19057 | 106° | 66km/h | 5427m | -4.1m/s | -15.3°C | 11.1% | 518.8hPa | 2.5V | 07:39:15 | 03:09:39 | 00:00:00 | |
| HSKMA3-T | 2026-09-05 01:27:36 | 51.49552 | 10.19083 | 109° | 66km/h | 5423m | -4.1m/s | -15.3°C | 11% | 519.1hPa | 2.6V | 07:36:42 | 03:09:40 | 00:00:00 | |
| DF8AY | 2026-09-05 01:27:34 | 51.49562 | 10.19031 | 104° | 68km/h | 5431m | -4.2m/s | -15.3°C | 11% | 518.5hPa | 2.5V | 07:36:42 | 03:09:38 | 00:00:00 | |
| DL1NUX | 2026-09-05 01:27:29 | 51.49596 | 10.18737 | 102° | 82km/h | 5474m | -4.1m/s | -15.6°C | 10.2% | 515.5hPa | 2.6V | 07:36:47 | 03:09:28 | 00:00:00 | |
| BIOWL1-15 | 2026-09-05 01:27:26 | 51.49588 | 10.18802 | 100° | 78km/h | 5466m | -4.2m/s | -15.5°C | 10.9% | 516.1hPa | 2.6V | 07:39:15 | 03:09:30 | 00:00:00 | |
| HSKMA3-T | 2026-09-05 01:27:25 | 51.49592 | 10.18770 | 101° | 82km/h | 5470m | -4.2m/s | -15.6°C | 11% | 515.9hPa | 2.6V | 07:37:33 | 03:09:29 | 00:00:00 | |
| DF8AY | 2026-09-05 01:27:23 | 51.49601 | 10.18704 | 105° | 84km/h | 5478m | -4.5m/s | -15.6°C | 11.4% | 515.2hPa | 2.6V | 07:37:33 | 03:09:27 | 00:00:00 | |
| HARRO8 | 2026-09-05 01:27:20 | 51.49643 | 10.18513 | 112° | 78km/h | 5504m | -4.6m/s | -15.8°C | 11.1% | 513.6hPa | 2.5V | 00:00:00 | 00:00:00 | 00:00:00 | |
| DL1NUX | 2026-09-05 01:27:19 | 51.49667 | 10.18426 | 114° | 77km/h | 5517m | -4.3m/s | -15.9°C | 11.8% | 512.6hPa | 2.5V | 07:36:57 | 03:09:18 | 00:00:00 | |
| BIOWL1-15 | 2026-09-05 01:27:15 | 51.49675 | 10.18398 | 114° | 75km/h | 5521m | -4.3m/s | -16°C | 13.2% | 512.4hPa | 2.5V | 07:39:15 | 03:09:17 | 00:00:00 | |
| HSKMA3-T | 2026-09-05 01:27:15 | 51.49659 | 10.18454 | 114° | 78km/h | 5513m | -4.4m/s | -15.9°C | 13.1% | 512.9hPa | 2.5V | 07:37:33 | 03:09:19 | 00:00:00 | |
| DF8AY | 2026-09-05 01:27:12 | 51.49682 | 10.18370 | 113° | 73km/h | 5526m | -4.2m/s | -16°C | 13.2% | 512.1hPa | 2.6V | 07:37:33 | 03:09:16 | 00:00:00 | |
| DK9SH | 2026-09-05 01:27:10 | 51.49689 | 10.18344 | 113° | 71km/h | 5530m | -4.0m/s | -16.0°C | 11.2% | 511.7hPa | 2.6V | 00:00:00 | 00:00:00 | 00:00:00 | |
| DL1NUX | 2026-09-05 01:27:09 | 51.49719 | 10.18155 | 98° | 73km/h | 5560m | -4.4m/s | -16.2°C | 12% | 509.8hPa | 2.6V | 07:37:07 | 03:09:08 | 00:00:00 | |
| HSKMA3-T | 2026-09-05 01:27:04 | 51.49719 | 10.18155 | 99° | 73km/h | 5560m | -4.4m/s | -16.2°C | 13% | 509.8hPa | 2.6V | 07:37:33 | 03:09:08 | 00:00:00 | |
| DF8AY | 2026-09-05 01:27:02 | 51.49725 | 10.18095 | 99° | 77km/h | 5568m | -4.3m/s | -16.3°C | 13.1% | 509.3hPa | 2.6V | 07:37:33 | 03:09:06 | 00:00:00 | |
| BIOWL1-15 | 2026-09-05 01:27:00 | 51.49731 | 10.18033 | 100° | 80km/h | 5577m | -4.1m/s | -16.3°C | 13.1% | 508.6hPa | 2.5V | 07:39:15 | 03:09:04 | 00:00:00 | |
| HSKMA3-T | 2026-09-05 01:26:54 | 51.49763 | 10.17840 | 110° | 78km/h | 5601m | -4.2m/s | -16.5°C | 13% | 506.9hPa | 2.5V | 07:37:33 | 03:08:58 | 00:00:00 | |
| DF8AY | 2026-09-05 01:26:51 | 51.49783 | 10.17755 | 111° | 71km/h | 5614m | -4.3m/s | -16.5°C | 12.5% | 506.1hPa | 2.6V | 07:37:33 | 03:08:55 | 00:00:00 | |
| BIOWL1-15 | 2026-09-05 01:26:50 | 51.49789 | 10.17728 | 110° | 68km/h | 5618m | -4.1m/s | -16.5°C | 12.3% | 505.8hPa | 2.6V | 07:39:15 | 03:08:54 | 00:00:00 | |
| HARRO8 | 2026-09-05 01:26:49 | 51.49800 | 10.17677 | 106° | 64km/h | 5627m | -4.3m/s | -16.5°C | 10.5% | 505.1hPa | 2.5V | 00:00:00 | 00:00:00 | 00:00:00 | |
| DL1ZP-14 | 2026-09-05 01:26:47 | 51.49808 | 10.17627 | 101° | 64km/h | 5635m | -4.2m/s | -16.6°C | 10.5% | 504.6hPa | 2.5V | 00:00:00 | 00:00:00 | 00:00:00 | |
| HSKMA3-T | 2026-09-05 01:26:44 | 51.49813 | 10.17575 | 98° | 66km/h | 5644m | -4.5m/s | -16.6°C | 12.3% | 504.1hPa | 2.6V | 07:37:33 | 03:08:48 | 00:00:00 | |
| DF8AY | 2026-09-05 01:26:40 | 51.49822 | 10.17460 | 97° | 77km/h | 5661m | -4.1m/s | -16.7°C | 11.9% | 502.9hPa | 2.5V | 07:37:33 | 03:08:44 | 00:00:00 | |
| BIOWL1-15 | 2026-09-05 01:26:39 | 51.49824 | 10.17429 | 97° | 80km/h | 5666m | -4.3m/s | -16.7°C | 11.4% | 502.6hPa | 2.5V | 07:39:15 | 03:08:43 | 00:00:00 | |
| HSKMA3-T | 2026-09-05 01:26:33 | 51.49845 | 10.17231 | 103° | 84km/h | 5691m | -4.1m/s | -16.8°C | 10.5% | 500.9hPa | 2.5V | 07:38:24 | 03:08:37 | 00:00:00 | |
| DF8AY | 2026-09-05 01:26:29 | 51.49868 | 10.17102 | 108° | 80km/h | 5707m | -4m/s | -16.9°C | 10.7% | 499.8hPa | 2.6V | 07:38:24 | 03:08:33 | 00:00:00 | |
| HSKMA3-T | 2026-09-05 01:26:23 | 51.49901 | 10.16932 | 104° | 68km/h | 5731m | -4m/s | -17.1°C | 10.4% | 498.1hPa | 2.6V | 07:38:24 | 03:08:27 | 00:00:00 | |
| BIOWL1-15 | 2026-09-05 01:26:22 | 51.49905 | 10.16906 | 101° | 68km/h | 5735m | -4.2m/s | -17.1°C | 10.4% | 497.9hPa | 2.6V | 07:39:15 | 03:08:26 | 00:00:00 | |
| DL1NUX | 2026-09-05 01:26:19 | 51.49920 | 10.16658 | 95° | 86km/h | 5768m | -4.2m/s | -17.2°C | 9% | 495.7hPa | 2.6V | 07:37:57 | 03:08:18 | 00:00:00 | |
| DF8AY | 2026-09-05 01:26:19 | 51.49912 | 10.16821 | 95° | 75km/h | 5747m | -4m/s | -17.2°C | 9.9% | 497.1hPa | 2.5V | 07:38:24 | 03:08:23 | 00:00:00 | |
| HSKMA3-T | 2026-09-05 01:26:13 | 51.49922 | 10.16623 | 97° | 88km/h | 5773m | -4.1m/s | -17.2°C | 9.4% | 495.4hPa | 2.5V | 07:38:24 | 03:08:17 | 00:00:00 | |
| DL3AQ-11 | 2026-09-05 01:26:12 | 51.49925 | 10.16587 | 99° | 88km/h | 5777m | -4.1m/s | -17.3°C | 8.4% | 495.1hPa | 2.5V | 00:00:00 | 00:00:00 | 00:00:00 | |
| BIOWL9-15 | 2026-09-05 01:26:10 | 51.49939 | 10.16482 | 104° | 86km/h | 5789m | -4.0m/s | -17.3°C | 8.3% | 494.3hPa | 2.5V | 00:00:00 | 00:00:00 | 00:00:00 | |
| DL1NUX | 2026-09-05 01:26:09 | 51.49968 | 10.16327 | 104° | 73km/h | 5808m | -3.6m/s | -17.4°C | 8.8% | 493hPa | 2.5V | 07:38:07 | 03:08:08 | 00:00:00 | |
| DF8AY | 2026-09-05 01:26:09 | 51.49939 | 10.16482 | 105° | 88km/h | 5789m | -4m/s | -17.3°C | 9.3% | 494.3hPa | 2.6V | 07:38:24 | 03:08:13 | 00:00:00 | |
| BIOWL1-15 | 2026-09-05 01:26:07 | 51.49951 | 10.16416 | 107° | 82km/h | 5797m | -4m/s | -17.4°C | 9.3% | 493.8hPa | 2.5V | 07:39:15 | 03:08:11 | 00:00:00 | |
| HSKMA3-T | 2026-09-05 01:26:02 | 51.49976 | 10.16271 | 100° | 69km/h | 5816m | -4.2m/s | -17.5°C | 9.2% | 492.6hPa | 2.6V | 07:38:24 | 03:08:06 | 00:00:00 | |
| DL3AQ-11 | 2026-09-05 01:26:01 | 51.49978 | 10.16242 | 97° | 69km/h | 5820m | -4.2m/s | -17.5°C | 8.2% | 492.3hPa | 2.5V | 00:00:00 | 00:00:00 | 00:00:00 | |
| DL1NUX | 2026-09-05 01:25:59 | 51.49990 | 10.16022 | 95° | 86km/h | 5849m | -3.9m/s | -17.8°C | 9% | 490.4hPa | 2.5V | 07:38:17 | 03:07:58 | 00:00:00 | |
| DF8AY | 2026-09-05 01:25:58 | 51.49984 | 10.16154 | 94° | 77km/h | 5833m | -4.1m/s | -17.6°C | 9.1% | 491.4hPa | 2.5V | 07:38:24 | 03:08:02 | 00:00:00 | |
| HSKMA3-T | 2026-09-05 01:25:52 | 51.49995 | 10.15951 | 97° | 89km/h | 5856m | -3.9m/s | -17.8°C | 9.5% | 489.9hPa | 2.5V | 07:38:24 | 03:07:56 | 00:00:00 | |
| DL1NUX | 2026-09-05 01:25:49 | 51.50031 | 10.15674 | 105° | 82km/h | 5888m | -3.9m/s | -18°C | 8.7% | 487.9hPa | 2.6V | 07:38:27 | 03:07:48 | 00:00:00 | |
| DF8AY | 2026-09-05 01:25:47 | 51.50015 | 10.15774 | 104° | 88km/h | 5877m | -4.1m/s | -17.9°C | 9.3% | 488.6hPa | 2.5V | 07:38:24 | 03:07:51 | 00:00:00 | |
| HARRO8 | 2026-09-05 01:25:47 | 51.50020 | 10.15739 | 104° | 86km/h | 5881m | -3.9m/s | -17.9°C | 8.1% | 488.4hPa | 2.5V | 00:00:00 | 00:00:00 | 00:00:00 | |
| DL3AQ-11 | 2026-09-05 01:25:45 | 51.50026 | 10.15706 | 105° | 82km/h | 5884m | -3.7m/s | 0°C | -1.0% | 488.1hPa | 2.5V | 00:00:00 | 00:00:00 | 00:00:00 | |
| HSKMA3-T | 2026-09-05 01:25:41 | 51.50046 | 10.15583 | 103° | 73km/h | 5900m | -3.8m/s | -18.1°C | 9.2% | 487.1hPa | 2.5V | 07:39:15 | 03:07:45 | 00:00:00 | |
| DL1NUX | 2026-09-05 01:25:39 | 51.50058 | 10.15381 | 90° | 77km/h | 5928m | -4m/s | -18.3°C | 8.7% | 485.2hPa | 2.5V | 07:38:37 | 03:07:38 | 00:00:00 | |
| DF8AY | 2026-09-05 01:25:36 | 51.50057 | 10.15440 | 93° | 71km/h | 5920m | -4.2m/s | -18.3°C | 9.1% | 485.8hPa | 2.5V | 07:39:15 | 03:07:40 | 00:00:00 | |
| HSKMA3-T | 2026-09-05 01:25:31 | 51.50059 | 10.15283 | 91° | 84km/h | 5940m | -3.6m/s | -18.4°C | 9.1% | 484.5hPa | 2.6V | 07:39:15 | 03:07:35 | 00:00:00 | |
| DF8AY | 2026-09-05 01:25:25 | 51.50071 | 10.15070 | 100° | 89km/h | 5962m | -4.1m/s | -18.5°C | 8.8% | 483hPa | 2.6V | 07:39:15 | 03:07:29 | 00:00:00 | |
| BIOWL1-15 | 2026-09-05 01:25:20 | 51.50092 | 10.14904 | 102° | 77km/h | 5981m | -3.6m/s | -18.6°C | 8.6% | 481.8hPa | 2.6V | 07:39:15 | 03:07:24 | 00:00:00 | |
| DL1NUX | 2026-09-05 01:25:19 | 51.50105 | 10.14730 | 89° | 73km/h | 6004m | -3.9m/s | -18.8°C | 8% | 480.2hPa | 2.6V | 07:38:57 | 03:07:18 | 00:00:00 | |
| DF8AY | 2026-09-05 01:25:14 | 51.50105 | 10.14730 | 90° | 73km/h | 6004m | -3.9m/s | -18.8°C | 8.2% | 480.2hPa | 2.6V | 07:39:15 | 03:07:18 | 00:00:00 | |
| HSKMA3-T | 2026-09-05 01:25:10 | 51.50103 | 10.14604 | 89° | 84km/h | 6020m | -4m/s | -18.9°C | 7.6% | 479.2hPa | 2.6V | 07:39:15 | 03:07:14 | 00:00:00 | |
| BIOWL1-15 | 2026-09-05 01:25:09 | 51.50103 | 10.14569 | 90° | 86km/h | 6024m | -3.9m/s | -18.9°C | 7.3% | 478.9hPa | 2.6V | 07:39:15 | 03:07:13 | 00:00:00 | |
| DF8AY | 2026-09-05 01:25:03 | 51.50113 | 10.14351 | 99° | 91km/h | 6048m | -4.1m/s | -19°C | 6.9% | 477.5hPa | 2.6V | 07:39:15 | 03:07:07 | 00:00:00 | |
| HSKMA3-T | 2026-09-05 01:25:00 | 51.50126 | 10.14246 | 102° | 86km/h | 6061m | -4.1m/s | -19.1°C | 6.8% | 476.7hPa | 2.5V | 07:39:15 | 03:07:04 | 00:00:00 | |
| DF7PN | 2026-09-05 01:25:00 | 51.50126 | 10.14246 | 101° | 84km/h | 6061m | -4.1m/s | -19.1°C | 6.6% | 476.7hPa | 2.5V | 00:00:00 | 00:00:00 | 00:00:00 | |
| DL1NUX | 2026-09-05 01:24:59 | 51.50141 | 10.14060 | 90° | 75km/h | 6083m | -3.9m/s | -19.2°C | 6.6% | 475.2hPa | 2.5V | 07:39:17 | 03:06:58 | 00:00:00 | |
| BIOWL1-15 | 2026-09-05 01:24:58 | 51.50134 | 10.14181 | 100° | 78km/h | 6069m | -3.6m/s | -19.1°C | 6.8% | 476.2hPa | 2.5V | 07:39:15 | 03:07:02 | 00:00:00 | |
| DF8AY | 2026-09-05 01:24:52 | 51.50140 | 10.13997 | 88° | 78km/h | 6091m | -3.9m/s | -19.2°C | 5.8% | 474.7hPa | 2.6V | 07:40:06 | 03:06:56 | 00:00:00 | |
| HSKMA3-T | 2026-09-05 01:24:49 | 51.50138 | 10.13897 | 88° | 88km/h | 6103m | -3.9m/s | -19.3°C | 5.5% | 473.9hPa | 2.5V | 07:40:06 | 03:06:53 | 00:00:00 | |
| DL1NUX | 2026-09-05 01:24:49 | 51.50138 | 10.13710 | 92° | 95km/h | 6124m | -3.8m/s | -19.4°C | 5.9% | 472.7hPa | 2.5V | 07:39:27 | 03:06:48 | 00:00:00 | |
| BIOWL1-15 | 2026-09-05 01:24:47 | 51.50137 | 10.13824 | 89° | 91km/h | 6112m | -4.3m/s | -19.3°C | 5.3% | 473.5hPa | 2.6V | 07:40:06 | 03:06:51 | 00:00:00 | |
| DF8AY | 2026-09-05 01:24:42 | 51.50141 | 10.13634 | 97° | 95km/h | 6131m | -3.6m/s | -19.4°C | 5.1% | 472.1hPa | 2.6V | 07:40:06 | 03:06:46 | 00:00:00 | |
| DL8OAI-8 | 2026-09-05 01:24:41 | 51.50142 | 10.13634 | 98° | 95km/h | 6131m | -3.6m/s | -19.4°C | 5.3% | 472.2hPa | 2.6V | 07:40:00 | 00:00:00 | 00:00:00 | |
| DL1NUX | 2026-09-05 01:24:39 | 51.50166 | 10.13354 | 92° | 84km/h | 6161m | -3.6m/s | -19.5°C | 5.4% | 470.3hPa | 2.6V | 07:39:37 | 03:06:38 | 00:00:00 | |
| HSKMA3-T | 2026-09-05 01:24:38 | 51.50157 | 10.13488 | 100° | 86km/h | 6146m | -3.8m/s | -19.5°C | 4.8% | 471.2hPa | 2.5V | 07:40:06 | 03:06:42 | 00:00:00 | |
| BIOWL1-15 | 2026-09-05 01:24:36 | 51.50167 | 10.13354 | 92° | 84km/h | 6161m | -3.6m/s | -19.5°C | 4.4% | 470.3hPa | 2.6V | 07:40:06 | 03:06:38 | 00:00:00 | |
| DF8AY | 2026-09-05 01:24:32 | 51.50167 | 10.13285 | 89° | 88km/h | 6169m | -3.9m/s | -19.5°C | 4.4% | 469.8hPa | 2.5V | 07:40:06 | 03:06:36 | 00:00:00 | |
| SONCRA | 2026-09-05 01:24:31 | 51.50165 | 10.13213 | 87° | 88km/h | 6176m | -4.0m/s | -19.5°C | 4.6% | 469.4hPa | 2.6V | 00:00:00 | 00:00:00 | 00:00:00 | |
| DL1NUX | 2026-09-05 01:24:29 | 51.50160 | 10.12990 | 88° | 95km/h | 6200m | -4m/s | -19.6°C | 4.6% | 467.9hPa | 2.6V | 07:39:47 | 03:06:28 | 00:00:00 | |
| HSKMA3-T | 2026-09-05 01:24:28 | 51.50163 | 10.13140 | 87° | 91km/h | 6184m | -4m/s | -19.5°C | 3.8% | 468.8hPa | 2.5V | 07:40:06 | 03:06:32 | 00:00:00 | |
| DF8AY | 2026-09-05 01:24:21 | 51.50159 | 10.12872 | 90° | 100km/h | 6212m | -3.9m/s | -19.6°C | 3.1% | 467.1hPa | 2.5V | 07:40:06 | 03:06:25 | 00:00:00 | |
| HSKMA3-T | 2026-09-05 01:24:17 | 51.50163 | 10.12706 | 94° | 104km/h | 6228m | -3.9m/s | -19.6°C | 2.8% | 466hPa | 2.5V | 07:40:06 | 03:06:21 | 00:00:00 | |
| DF8AY | 2026-09-05 01:24:11 | 51.50180 | 10.12458 | 99° | 99km/h | 6251m | -3.9m/s | -19.8°C | 2.8% | 464.7hPa | 2.5V | 07:40:06 | 03:06:15 | 00:00:00 | |
| BIOWL1-15 | 2026-09-05 01:24:10 | 51.50183 | 10.12418 | 99° | 97km/h | 6254m | -4m/s | -19.8°C | 2.8% | 464.4hPa | 2.5V | 07:40:06 | 03:06:14 | 00:00:00 | |
| DL1NUX | 2026-09-05 01:24:09 | 51.50203 | 10.12200 | 94° | 86km/h | 6278m | -3.8m/s | -19.9°C | 4.1% | 463hPa | 2.6V | 07:40:07 | 03:06:08 | 00:00:00 | |
| HSKMA3-T | 2026-09-05 01:24:07 | 51.50195 | 10.12306 | 99° | 91km/h | 6266m | -4m/s | -19.8°C | 2.8% | 463.7hPa | 2.6V | 07:40:06 | 03:06:11 | 00:00:00 | |
| DF8AY | 2026-09-05 01:24:00 | 51.50203 | 10.12055 | 88° | 95km/h | 6293m | -3.8m/s | -20.1°C | 2.8% | 462hPa | 2.6V | 07:40:57 | 03:06:04 | 00:00:00 | |
| BIOWL1-15 | 2026-09-05 01:23:59 | 51.50202 | 10.12016 | 88° | 99km/h | 6297m | -3.8m/s | -20.1°C | 2.8% | 461.8hPa | 2.6V | 07:44:21 | 03:06:03 | 00:00:00 | |
| HSKMA3-T | 2026-09-05 01:23:56 | 51.50201 | 10.11892 | 91° | 106km/h | 6308m | -3.9m/s | -20.2°C | 2.8% | 461.1hPa | 2.5V | 07:40:57 | 03:06:00 | 00:00:00 | |
| DF8AY | 2026-09-05 01:23:50 | 51.50215 | 10.11633 | 98° | 104km/h | 6332m | -3.7m/s | -20.4°C | 3% | 459.7hPa | 2.5V | 07:40:57 | 03:05:54 | 00:00:00 | |
| BIOWL1-15 | 2026-09-05 01:23:48 | 51.50222 | 10.11551 | 99° | 99km/h | 6339m | -3.7m/s | -20.5°C | 3% | 459.2hPa | 2.6V | 07:44:21 | 03:05:52 | 00:00:00 | |
| HSKMA3-T | 2026-09-05 01:23:46 | 51.50230 | 10.11474 | 98° | 95km/h | 6347m | -3.6m/s | -20.5°C | 2.9% | 458.8hPa | 2.5V | 07:40:57 | 03:05:50 | 00:00:00 | |
| DF8AY | 2026-09-05 01:23:39 | 51.50239 | 10.11211 | 89° | 95km/h | 6374m | -4.1m/s | -20.6°C | 2.6% | 457.1hPa | 2.5V | 07:40:57 | 03:05:43 | 00:00:00 | |
| BIOWL1-15 | 2026-09-05 01:23:39 | 51.50237 | 10.11132 | 88° | 99km/h | 6382m | -4.1m/s | -20.6°C | 2.5% | 456.5hPa | 2.6V | 07:44:21 | 03:05:41 | 00:00:00 | |
| DL1NUX | 2026-09-05 01:23:39 | 51.50234 | 10.11009 | 87° | 104km/h | 6394m | -4.1m/s | -20.6°C | 4% | 455.8hPa | 2.5V | 07:40:37 | 03:05:38 | 00:00:00 | |
| HSKMA3-T | 2026-09-05 01:23:35 | 51.50235 | 10.11051 | 87° | 102km/h | 6390m | -4m/s | -20.7°C | 2.5% | 456hPa | 2.6V | 07:40:57 | 03:05:39 | 00:00:00 | |
| DF8AY | 2026-09-05 01:23:29 | 51.50235 | 10.10788 | 94° | 111km/h | 6415m | -4m/s | -20.8°C | 2.4% | 454.6hPa | 2.5V | 07:40:57 | 03:05:33 | 00:00:00 | |
| DL1NUX | 2026-09-05 01:23:29 | 51.50251 | 10.10572 | 97° | 99km/h | 6434m | -4.1m/s | -20.9°C | 4% | 453.4hPa | 2.6V | 07:40:47 | 03:05:28 | 00:00:00 | |
| BIOWL1-15 | 2026-09-05 01:23:26 | 51.50243 | 10.10655 | 98° | 106km/h | 6426m | -3.7m/s | -20.8°C | 2.4% | 453.9hPa | 2.6V | 07:44:21 | 03:05:30 | 00:00:00 | |
| HSKMA3-T | 2026-09-05 01:23:25 | 51.50247 | 10.10613 | 98° | 102km/h | 6430m | -3.8m/s | -20.9°C | 2.4% | 453.7hPa | 2.6V | 07:40:57 | 03:05:29 | 00:00:00 | |
| DK9SH | 2026-09-05 01:23:25 | 51.50247 | 10.10613 | 99° | 102km/h | 6430m | -3.8m/s | -20.9°C | 3.4% | 453.7hPa | 2.6V | 07:40:00 | 00:00:00 | 00:00:00 | |
| SO1NDE-10 | 2026-09-05 01:23:24 | 51.50250 | 10.10572 | 98° | 104km/h | 6434m | -4.0m/s | -20.8°C | 4.0% | 453.4hPa | 2.6V | 00:00:00 | 03:05:28 | 00:00:00 | |
| TFSTFS | 2026-09-05 01:23:23 | 51.50251 | 10.10572 | 99° | 99km/h | 6434m | -4.1m/s | 0°C | 0% | 0hPa | 2.6V | 00:00:00 | 00:00:00 | 00:00:00 | |
| TFSTFS | 2026-09-05 01:23:21 | 51.50256 | 10.10494 | 96° | 95km/h | 6442m | -3.7m/s | -21.0°C | 3.4% | 452.9hPa | 2.6V | 00:00:00 | 00:00:00 | 00:00:00 | |
| BUE01 | 2026-09-05 01:23:20 | 51.50260 | 10.10380 | 91° | 93km/h | 6453m | -3.8m/s | -21.0°C | 3.4% | 452.2hPa | 2.6V | 00:00:00 | 00:00:00 | 00:00:00 | |
| DL1NUX | 2026-09-05 01:23:19 | 51.50259 | 10.10184 | 88° | 100km/h | 6474m | -4m/s | -21.2°C | 3.8% | 451hPa | 2.6V | 07:40:57 | 03:05:18 | 00:00:00 | |
| DF8AY | 2026-09-05 01:23:18 | 51.50260 | 10.10342 | 91° | 95km/h | 6457m | -4m/s | -21.1°C | 2.4% | 451.9hPa | 2.6V | 07:40:57 | 03:05:22 | 00:00:00 | |
| BIOWL1-15 | 2026-09-05 01:23:15 | 51.50260 | 10.10225 | 89° | 99km/h | 6469m | -4.2m/s | -21.1°C | 2.3% | 451.2hPa | 2.6V | 07:44:21 | 03:05:19 | 00:00:00 | |
| HSKMA3-T | 2026-09-05 01:23:14 | 51.50259 | 10.10184 | 88° | 100km/h | 6474m | -4m/s | -21.2°C | 2.3% | 451hPa | 2.6V | 07:40:57 | 03:05:18 | 00:00:00 | |
| DO9LL-15 | 2026-09-05 01:23:13 | 51.50258 | 10.10143 | 89° | 106km/h | 6478m | -4.1m/s | -21.1°C | 3.8% | 450.7hPa | 2.5V | 00:00:00 | 03:05:17 | 00:00:00 | |
| HARRO8 | 2026-09-05 01:23:11 | 51.50257 | 10.10058 | 88° | 106km/h | 6486m | -4.3m/s | -21.3°C | 3.2% | 450.3hPa | 2.6V | 00:00:00 | 00:00:00 | 00:00:00 | |
| DL1NUX | 2026-09-05 01:23:09 | 51.50263 | 10.09738 | 95° | 115km/h | 6515m | -4.2m/s | -21.5°C | 3.8% | 448.4hPa | 2.6V | 07:41:07 | 03:05:08 | 00:00:00 | |
| DF8AY | 2026-09-05 01:23:07 | 51.50258 | 10.09877 | 92° | 115km/h | 6503m | -4.2m/s | -21.4°C | 2.2% | 449.2hPa | 2.5V | 07:41:48 | 03:05:11 | 00:00:00 | |
| HSKMA3-T | 2026-09-05 01:23:03 | 51.50266 | 10.09692 | 96° | 115km/h | 6520m | -4.1m/s | -21.5°C | 2.2% | 448.2hPa | 2.6V | 07:41:48 | 03:05:07 | 00:00:00 | |
| BIOWL1-15 | 2026-09-05 01:23:01 | 51.50273 | 10.09601 | 99° | 111km/h | 6527m | -4m/s | -21.6°C | 2.3% | 447.7hPa | 2.5V | 07:44:21 | 03:05:05 | 00:00:00 | |
| DL1NUX | 2026-09-05 01:22:59 | 51.50301 | 10.09306 | 94° | 102km/h | 6556m | -3.7m/s | -21.7°C | 3.9% | 445.9hPa | 2.6V | 07:41:17 | 03:04:58 | 00:00:00 | |
| DF8AY | 2026-09-05 01:22:56 | 51.50295 | 10.09388 | 99° | 102km/h | 6548m | -4m/s | -21.7°C | 2.3% | 446.4hPa | 2.5V | 07:41:48 | 03:05:00 | 00:00:00 | |
| HSKMA3-T | 2026-09-05 01:22:52 | 51.50304 | 10.09223 | 91° | 104km/h | 6563m | -4m/s | -21.8°C | 2.4% | 445.5hPa | 2.5V | 07:41:48 | 03:04:56 | 00:00:00 | |
| DL1NUX | 2026-09-05 01:22:49 | 51.50302 | 10.08875 | 88° | 113km/h | 6597m | -4.3m/s | -22°C | 3.9% | 443.4hPa | 2.6V | 07:41:27 | 03:04:48 | 00:00:00 | |
| DF8AY | 2026-09-05 01:22:46 | 51.50303 | 10.08965 | 89° | 110km/h | 6588m | -4.3m/s | -22°C | 2.4% | 443.9hPa | 2.5V | 07:41:48 | 03:04:50 | 00:00:00 | |
| HSKMA3-T | 2026-09-05 01:22:41 | 51.50301 | 10.08734 | 91° | 119km/h | 6610m | -4.4m/s | -22.1°C | 2.5% | 442.6hPa | 2.5V | 07:41:48 | 03:04:45 | 00:00:00 | |
| DB0DAN | 2026-09-05 01:22:40 | 51.50302 | 10.08685 | 92° | 115km/h | 6614m | -4.3m/s | 0°C | 0% | 0hPa | 2.5V | 00:00:00 | 00:00:00 | 00:00:00 | |
| DF8AY | 2026-09-05 01:22:35 | 51.50313 | 10.08435 | 96° | 124km/h | 6636m | -4.5m/s | -22.2°C | 2.2% | 441.1hPa | 2.5V | 07:41:48 | 03:04:39 | 00:00:00 | |
| BIOWL1-15 | 2026-09-05 01:22:30 | 51.50333 | 10.08191 | 98° | 115km/h | 6658m | -4.3m/s | -22.3°C | 2.2% | 439.8hPa | 2.6V | 07:44:21 | 03:04:34 | 00:00:00 | |
| DL1NUX | 2026-09-05 01:22:29 | 51.50346 | 10.07925 | 90° | 110km/h | 6684m | -4.5m/s | -22.3°C | 3.8% | 438.3hPa | 2.5V | 07:41:47 | 03:04:28 | 00:00:00 | |
| DF8AY | 2026-09-05 01:22:25 | 51.50346 | 10.07969 | 92° | 110km/h | 6679m | -4.3m/s | -22.3°C | 2.2% | 438.5hPa | 2.5V | 07:41:48 | 03:04:29 | 00:00:00 | |
| HSKMA3-T | 2026-09-05 01:22:19 | 51.50345 | 10.07692 | 89° | 122km/h | 6706m | -4.5m/s | -22.4°C | 2.2% | 436.9hPa | 2.6V | 07:42:39 | 03:04:23 | 00:00:00 | |
| DL1NUX | 2026-09-05 01:22:19 | 51.50349 | 10.07433 | 93° | 131km/h | 6729m | -4.4m/s | -22.4°C | 3.8% | 435.6hPa | 2.6V | 07:41:57 | 03:04:18 | 00:00:00 | |
| BIOWL1-15 | 2026-09-05 01:22:15 | 51.50348 | 10.07486 | 93° | 131km/h | 6724m | -4.4m/s | -22.4°C | 2.2% | 435.9hPa | 2.6V | 07:44:21 | 03:04:19 | 00:00:00 | |
| DF8AY | 2026-09-05 01:22:14 | 51.50349 | 10.07433 | 93° | 131km/h | 6729m | -4.4m/s | -22.4°C | 2.2% | 435.6hPa | 2.6V | 07:42:39 | 03:04:18 | 00:00:00 | |
| DF8AY-15 | 2026-09-05 01:22:13 | 51.50351 | 10.07379 | 94° | 130km/h | 6733m | -4.7m/s | -22.4°C | 3.8% | 435.3hPa | 2.6V | 00:00:00 | 03:04:17 | 00:00:00 | |
| DL1NUX | 2026-09-05 01:22:09 | 51.50373 | 10.06930 | 90° | 113km/h | 6774m | -4.7m/s | -22.5°C | 3.7% | 433hPa | 2.5V | 07:42:07 | 03:04:08 | 00:00:00 | |
| HSKMA3-T | 2026-09-05 01:22:08 | 51.50366 | 10.07118 | 96° | 122km/h | 6756m | -4.5m/s | -22.4°C | 2.2% | 434hPa | 2.6V | 07:42:39 | 03:04:12 | 00:00:00 | |
| BIOWL1-15 | 2026-09-05 01:22:05 | 51.50372 | 10.06976 | 92° | 113km/h | 6769m | -4.6m/s | -22.4°C | 2.2% | 433.2hPa | 2.5V | 07:44:21 | 03:04:09 | 00:00:00 | |
| DF8AY | 2026-09-05 01:22:03 | 51.50373 | 10.06884 | 90° | 113km/h | 6778m | -4.8m/s | -22.5°C | 2.2% | 432.6hPa | 2.6V | 07:42:39 | 03:04:07 | 00:00:00 | |
| DF7ER-10 | 2026-09-05 01:22:03 | 51.50373 | 10.06884 | 91° | 113km/h | 6778m | -4.8m/s | -22.5°C | 3.2% | 432.6hPa | 2.5V | 00:00:00 | 00:00:00 | 00:00:00 | |
| DK9SH | 2026-09-05 01:22:01 | 51.50373 | 10.06838 | 90° | 115km/h | 6783m | -4.8m/s | -22.5°C | 3.2% | 432.4hPa | 2.5V | 07:42:00 | 00:00:00 | 00:00:00 | |
| DL1NUX | 2026-09-05 01:21:59 | 51.50362 | 10.06440 | 87° | 133km/h | 6820m | -4.4m/s | -22.7°C | 4.2% | 430.2hPa | 2.5V | 07:42:17 | 03:03:58 | 00:00:00 | |
| HSKMA3-T | 2026-09-05 01:21:58 | 51.50367 | 10.06598 | 87° | 126km/h | 6806m | -4.5m/s | -22.6°C | 2.7% | 431hPa | 2.6V | 07:42:39 | 03:04:01 | 00:00:00 | |
| DF8AY | 2026-09-05 01:21:53 | 51.50361 | 10.06386 | 88° | 133km/h | 6824m | -4.5m/s | -22.7°C | 2.9% | 430hPa | 2.5V | 07:42:39 | 03:03:57 | 00:00:00 | |
| BIOWL1-15 | 2026-09-05 01:21:52 | 51.50360 | 10.06331 | 89° | 133km/h | 6828m | -4.5m/s | -22.7°C | 3% | 429.7hPa | 2.5V | 07:44:21 | 03:03:56 | 00:00:00 | |
| DL1NUX | 2026-09-05 01:21:49 | 51.50365 | 10.05900 | 94° | 128km/h | 6866m | -4.7m/s | -23°C | 4.4% | 427.6hPa | 2.6V | 07:42:27 | 03:03:48 | 00:00:00 | |
| HSKMA3-T | 2026-09-05 01:21:47 | 51.50360 | 10.06059 | 92° | 133km/h | 6852m | -4.6m/s | -22.9°C | 3.2% | 428.4hPa | 2.5V | 07:42:39 | 03:03:51 | 00:00:00 | |
| DD1CC8 | 2026-09-05 01:21:46 | 51.50361 | 10.06005 | 92° | 131km/h | 6856m | -4.6m/s | -22.9°C | 3.8% | 428.1hPa | 2.5V | 00:00:00 | 00:00:00 | 00:00:00 | |
| DF8AY | 2026-09-05 01:21:42 | 51.50370 | 10.05798 | 95° | 124km/h | 6875m | -4.9m/s | -23.1°C | 3.4% | 427hPa | 2.5V | 07:42:39 | 03:03:46 | 00:00:00 | |
| DB0DAN | 2026-09-05 01:21:40 | 51.50374 | 10.05700 | 93° | 113km/h | 6885m | -4.8m/s | 0°C | 0% | 0hPa | 2.5V | 00:00:00 | 00:00:00 | 00:00:00 | |
| DL1NUX | 2026-09-05 01:21:39 | 51.50370 | 10.05412 | 85° | 124km/h | 6913m | -5.1m/s | -23.4°C | 4.6% | 424.7hPa | 2.5V | 07:42:37 | 03:03:38 | 00:00:00 | |
| HSKMA3-T | 2026-09-05 01:21:36 | 51.50375 | 10.05510 | 87° | 119km/h | 6904m | -4.9m/s | -23.3°C | 3.5% | 425.3hPa | 2.5V | 07:42:39 | 03:03:40 | 00:00:00 | |
| DF8AY | 2026-09-05 01:21:31 | 51.50362 | 10.05256 | 85° | 133km/h | 6928m | -5.1m/s | -23.5°C | 3.7% | 423.9hPa | 2.6V | 07:43:30 | 03:03:35 | 00:00:00 | |
| DL1NUX | 2026-09-05 01:21:29 | 51.50353 | 10.04867 | 91° | 135km/h | 6963m | -4.8m/s | -23.9°C | 4.8% | 421.8hPa | 2.5V | 07:42:47 | 03:03:28 | 00:00:00 | |
| HSKMA3-T | 2026-09-05 01:21:26 | 51.50352 | 10.04978 | 89° | 139km/h | 6953m | -5.1m/s | -23.8°C | 3.8% | 422.3hPa | 2.6V | 07:43:30 | 03:03:30 | 00:00:00 | |
| DB0DAN | 2026-09-05 01:21:25 | 51.50352 | 10.04922 | 91° | 131km/h | 6958m | -4.9m/s | 0°C | 0% | 0hPa | 2.6V | 00:00:00 | 00:00:00 | 00:00:00 | |
| DF8AY | 2026-09-05 01:21:21 | 51.50358 | 10.04709 | 92° | 124km/h | 6977m | -4.7m/s | -24°C | 3.9% | 421hPa | 2.6V | 07:43:30 | 03:03:25 | 00:00:00 | |
| DF8AY-15 | 2026-09-05 01:21:21 | 51.50358 | 10.04709 | 93° | 131km/h | 6977m | -4.7m/s | -24.0°C | 4.8% | 420.9hPa | 2.6V | 00:00:00 | 03:03:25 | 00:00:00 | |
| DK9SH | 2026-09-05 01:21:20 | 51.50357 | 10.04709 | 93° | 124km/h | 6977m | -4.7m/s | -24.0°C | 4.2% | 421.0hPa | 2.6V | 07:43:00 | 00:00:00 | 00:00:00 | |
| DL1NUX | 2026-09-05 01:21:19 | 51.50351 | 10.04362 | 83° | 128km/h | 7011m | -5m/s | -24.2°C | 5% | 419hPa | 2.6V | 07:42:57 | 03:03:18 | 00:00:00 | |
| HSKMA3-T | 2026-09-05 01:21:16 | 51.50357 | 10.04463 | 86° | 122km/h | 7002m | -4.9m/s | -24.2°C | 4% | 419.5hPa | 2.5V | 07:43:30 | 03:03:20 | 00:00:00 | |
| BIOWL1-15 | 2026-09-05 01:21:15 | 51.50354 | 10.04413 | 85° | 124km/h | 7006m | -4.8m/s | -24.2°C | 4.1% | 419.2hPa | 2.6V | 07:44:21 | 03:03:19 | 00:00:00 | |
| DF8AY | 2026-09-05 01:21:11 | 51.50340 | 10.04205 | 83° | 133km/h | 7026m | -5.1m/s | -24.4°C | 4.2% | 418.1hPa | 2.5V | 07:43:30 | 03:03:15 | 00:00:00 | |
| HSKMA3-T | 2026-09-05 01:21:06 | 51.50325 | 10.03927 | 88° | 141km/h | 7050m | -4.5m/s | -24.5°C | 4.3% | 416.6hPa | 2.5V | 07:43:30 | 03:03:10 | 00:00:00 | |
| BIOWL1-15 | 2026-09-05 01:21:04 | 51.50325 | 10.03814 | 91° | 139km/h | 7059m | -4.7m/s | -24.5°C | 4.3% | 416.2hPa | 2.5V | 07:44:21 | 03:03:08 | 00:00:00 | |
| DF8AY | 2026-09-05 01:21:00 | 51.50330 | 10.03595 | 92° | 131km/h | 7079m | -5.3m/s | -24.6°C | 4.2% | 415hPa | 2.5V | 07:43:30 | 03:03:04 | 00:00:00 | |
| HSKMA3-T | 2026-09-05 01:20:56 | 51.50333 | 10.03391 | 90° | 120km/h | 7099m | -5m/s | -24.8°C | 4.2% | 413.7hPa | 2.6V | 07:43:30 | 03:03:00 | 00:00:00 | |
| BIOWL1-15 | 2026-09-05 01:20:52 | 51.50329 | 10.03197 | 86° | 122km/h | 7119m | -5.2m/s | -25°C | 4.2% | 412.7hPa | 2.5V | 07:44:21 | 03:02:56 | 00:00:00 | |
| DF8AY | 2026-09-05 01:20:49 | 51.50321 | 10.03044 | 86° | 131km/h | 7134m | -5m/s | -25°C | 4.2% | 411.8hPa | 2.6V | 07:43:30 | 03:02:53 | 00:00:00 | |
| HSKMA3-T | 2026-09-05 01:20:45 | 51.50311 | 10.02824 | 86° | 139km/h | 7154m | -5.3m/s | -25.2°C | 4.3% | 410.7hPa | 2.6V | 07:43:30 | 03:02:49 | 00:00:00 | |
| DF8AY | 2026-09-05 01:20:40 | 51.50302 | 10.02483 | 90° | 141km/h | 7185m | -4.7m/s | -25.5°C | 4.2% | 409hPa | 2.6V | 07:44:21 | 03:02:43 | 00:00:00 | |
| DL1NUX | 2026-09-05 01:20:39 | 51.50311 | 10.02208 | 94° | 130km/h | 7209m | -4.6m/s | -25.7°C | 4.9% | 407.5hPa | 2.5V | 07:43:37 | 03:02:38 | 00:00:00 | |
| HSKMA3-T | 2026-09-05 01:20:35 | 51.50308 | 10.02260 | 94° | 131km/h | 7205m | -4.4m/s | -25.6°C | 4.1% | 407.8hPa | 2.5V | 07:44:21 | 03:02:39 | 00:00:00 | |
| BIOWL1-15 | 2026-09-05 01:20:34 | 51.50311 | 10.02208 | 94° | 130km/h | 7209m | -4.6m/s | -25.7°C | 4% | 407.5hPa | 2.5V | 07:44:21 | 03:02:38 | 00:00:00 | |
| DF8AY | 2026-09-05 01:20:29 | 51.50322 | 10.01953 | 93° | 122km/h | 7232m | -5m/s | -25.8°C | 3.9% | 406.2hPa | 2.5V | 07:44:21 | 03:02:33 | 00:00:00 | |
| DL1NUX | 2026-09-05 01:20:29 | 51.50323 | 10.01704 | 88° | 128km/h | 7256m | -5.2m/s | -26°C | 4.9% | 404.8hPa | 2.5V | 07:43:47 | 03:02:28 | 00:00:00 | |
| HSKMA3-T | 2026-09-05 01:20:24 | 51.50323 | 10.01704 | 88° | 128km/h | 7256m | -5.2m/s | -26°C | 3.8% | 404.8hPa | 2.5V | 07:44:21 | 03:02:28 | 00:00:00 | |
| BIOWL1-15 | 2026-09-05 01:20:22 | 51.50318 | 10.01487 | 88° | 142km/h | 7276m | -5.7m/s | -26.2°C | 3.7% | 403.7hPa | 2.6V | 07:44:21 | 03:02:24 | 00:00:00 | |
| DL1NUX | 2026-09-05 01:20:19 | 51.50318 | 10.01129 | 91° | 150km/h | 7309m | -5.7m/s | -26.4°C | 4.3% | 401.8hPa | 2.6V | 07:43:57 | 03:02:18 | 00:00:00 | |
| DF8AY | 2026-09-05 01:20:18 | 51.50316 | 10.01370 | 90° | 148km/h | 7288m | -5.8m/s | -26.2°C | 3.5% | 403.1hPa | 2.5V | 07:44:21 | 03:02:22 | 00:00:00 | |
| HSKMA3-T | 2026-09-05 01:20:13 | 51.50320 | 10.01069 | 93° | 148km/h | 7315m | -5.4m/s | -26.4°C | 2.8% | 401.6hPa | 2.5V | 07:44:21 | 03:02:17 | 00:00:00 | |
| BIOWL1-15 | 2026-09-05 01:20:09 | 51.50339 | 10.00721 | 95° | 137km/h | 7344m | -4.9m/s | -26.4°C | 2.1% | 400.1hPa | 2.6V | 07:44:21 | 03:02:11 | 00:00:00 | |
| DL1NUX | 2026-09-05 01:20:09 | 51.50345 | 10.00557 | 91° | 133km/h | 7359m | -5.3m/s | -26.4°C | 3.6% | 399.2hPa | 2.5V | 07:44:07 | 03:02:08 | 00:00:00 | |
| DF8AY | 2026-09-05 01:20:08 | 51.50336 | 10.00777 | 96° | 139km/h | 7339m | -5m/s | -26.4°C | 2.2% | 400.4hPa | 2.5V | 07:44:21 | 03:02:12 | 00:00:00 | |
| HSKMA3-T | 2026-09-05 01:20:03 | 51.50346 | 10.00502 | 90° | 137km/h | 7364m | -5.1m/s | -26.4°C | 1.8% | 398.9hPa | 2.5V | 07:44:21 | 03:02:07 | 00:00:00 | |
| DL1ZP-14 | 2026-09-05 01:20:03 | 51.50345 | 10.00446 | 89° | 133km/h | 7369m | -5.0m/s | -26.4°C | 2.8% | 398.7hPa | 2.6V | 00:00:00 | 00:00:00 | 00:00:00 | |
| DC4HF-4 | 2026-09-05 01:20:02 | 51.50341 | 10.00219 | 88° | 146km/h | 7389m | -5.5m/s | 0°C | -1.0% | -1.0hPa | 2.6V | 00:00:00 | 00:00:00 | 00:00:00 | |
| DL1NUX | 2026-09-05 01:19:59 | 51.50336 | 9.99969 | 89° | 157km/h | 7408m | -4.9m/s | -26.2°C | 3.3% | 396.4hPa | 2.6V | 07:44:17 | 03:01:58 | 00:00:00 | |
| DF8AY | 2026-09-05 01:19:57 | 51.50340 | 10.00158 | 87° | 153km/h | 7394m | -5.2m/s | -26.3°C | 1.5% | 397.2hPa | 2.5V | 07:44:21 | 03:02:01 | 00:00:00 | |
| BIOWL1-15 | 2026-09-05 01:19:56 | 51.50338 | 10.00096 | 88° | 153km/h | 7399m | -5m/s | -26.2°C | 1.5% | 396.9hPa | 2.6V | 07:44:21 | 03:02:00 | 00:00:00 | |
| HSKMA3-T | 2026-09-05 01:19:52 | 51.50337 | 9.99840 | 92° | 162km/h | 7418m | -5.2m/s | -26.3°C | 1.4% | 395.9hPa | 2.5V | 07:44:21 | 03:01:56 | 00:00:00 | |
| SONDE2-11 | 2026-09-05 01:19:52 | 51.50339 | 9.99775 | 93° | 159km/h | 7422m | -5.3m/s | 0°C | -1.0% | 395.6hPa | 2.6V | 00:00:00 | 00:00:00 | 00:00:00 | |
| DL8OAI-8 | 2026-09-05 01:19:50 | 51.50341 | 9.99710 | 95° | 161km/h | 7428m | -5.3m/s | -26.4°C | 2.6% | 395.2hPa | 2.6V | 07:44:00 | 00:00:00 | 00:00:00 | |
| DL1NUX | 2026-09-05 01:19:49 | 51.50363 | 9.99326 | 95° | 155km/h | 7458m | -5.1m/s | -26.2°C | 3.2% | 393.7hPa | 2.6V | 07:44:27 | 03:01:48 | 00:00:00 | |
| DF8AY | 2026-09-05 01:19:46 | 51.50363 | 9.99326 | 96° | 155km/h | 7458m | -5.1m/s | -26.2°C | 1.4% | 393.7hPa | 2.6V | 07:45:12 | 03:01:48 | 00:00:00 | |
| BIOWL1-15 | 2026-09-05 01:19:45 | 51.50371 | 9.99202 | 95° | 153km/h | 7468m | -4.9m/s | -26.2°C | 1.4% | 393.2hPa | 2.5V | 07:45:12 | 03:01:46 | 00:00:00 | |
| HSKMA3-T | 2026-09-05 01:19:41 | 51.50374 | 9.99141 | 95° | 150km/h | 7472m | -4.8m/s | -26.2°C | 1.4% | 392.9hPa | 2.5V | 07:45:12 | 03:01:45 | 00:00:00 | |
| EDDB2-11 | 2026-09-05 01:19:40 | 51.50379 | 9.99021 | 93° | 146km/h | 7482m | -4.7m/s | -26.2°C | 2.6% | 392.3hPa | 2.6V | 00:00:00 | 00:00:00 | 00:00:00 | |
| DL1NUX | 2026-09-05 01:19:39 | 51.50383 | 9.98724 | 89° | 148km/h | 7506m | -5.5m/s | -26.3°C | 3.4% | 391hPa | 2.6V | 07:44:37 | 03:01:38 | 00:00:00 | |
| BIOWL1-15 | 2026-09-05 01:19:34 | 51.50380 | 9.98473 | 89° | 162km/h | 7526m | -4.8m/s | -26.2°C | 2.2% | 0hPa | 2.5V | 07:45:12 | 03:01:34 | 00:00:00 | |
| DF8AY | 2026-09-05 01:19:33 | 51.50383 | 9.98663 | 89° | 151km/h | 7511m | -5m/s | -26.3°C | 1.7% | 390.8hPa | 2.6V | 07:45:12 | 03:01:37 | 00:00:00 | |
| HSKMA3-T | 2026-09-05 01:19:31 | 51.50381 | 9.98538 | 89° | 159km/h | 7521m | -5.1m/s | -26.2°C | 2% | 390.2hPa | 2.5V | 07:45:12 | 03:01:35 | 00:00:00 | |
| BIOWL1-15 | 2026-09-05 01:19:22 | 51.50389 | 9.97931 | 93° | 170km/h | 7564m | -5.1m/s | -26.3°C | 5.4% | 0hPa | 2.6V | 07:45:12 | 03:01:26 | 00:00:00 | |
| HSKMA3-T | 2026-09-05 01:19:21 | 51.50392 | 9.97863 | 93° | 168km/h | 7569m | -5.3m/s | -26.3°C | 5.7% | 387.7hPa | 2.5V | 07:45:12 | 03:01:25 | 00:00:00 | |
| BIOWL1-15 | 2026-09-05 01:19:11 | 51.50423 | 9.97115 | 90° | 148km/h | 7626m | -5.2m/s | -26.8°C | 5.8% | 0hPa | 2.5V | 07:45:12 | 03:01:13 | 00:00:00 | |
| DF8AY | 2026-09-05 01:19:11 | 51.50422 | 9.97233 | 92° | 144km/h | 7617m | -5.3m/s | -26.7°C | 5.7% | 385.1hPa | 2.5V | 07:45:12 | 03:01:15 | 00:00:00 | |
| HSKMA3-T | 2026-09-05 01:19:10 | 51.50423 | 9.97174 | 90° | 144km/h | 7622m | -5m/s | -26.7°C | 5.7% | 384.8hPa | 2.5V | 07:45:12 | 03:01:14 | 00:00:00 | |
| DF8AY | 2026-09-05 01:19:01 | 51.50419 | 9.96597 | 92° | 166km/h | 7664m | -4.6m/s | -27.1°C | 6.4% | 382.6hPa | 2.6V | 07:45:12 | 03:01:05 | 00:00:00 | |
| HSKMA3-T | 2026-09-05 01:18:59 | 51.50424 | 9.96464 | 95° | 161km/h | 7673m | -4.1m/s | -27.2°C | 6.5% | 382.2hPa | 2.5V | 07:45:12 | 03:01:03 | 00:00:00 | |
| DL1NUX | 2026-09-05 01:18:59 | 51.50444 | 9.96148 | 95° | 150km/h | 7695m | -4.9m/s | -27.4°C | 6.8% | 380.9hPa | 2.5V | 07:45:17 | 03:00:58 | 00:00:00 | |
| DF8AY | 2026-09-05 01:18:50 | 51.50450 | 9.95612 | 88° | 155km/h | 7736m | -5m/s | -27.7°C | 7.2% | 378.8hPa | 2.5V | 07:46:03 | 03:00:49 | 00:00:00 | |
| DO9LL-15 | 2026-09-05 01:18:50 | 51.50454 | 9.95912 | 92° | 151km/h | 7714m | -4.9m/s | -27.5°C | 6.9% | 379.9hPa | 2.5V | 07:45:00 | 03:00:54 | 00:00:00 | |
| DL1NUX | 2026-09-05 01:18:49 | 51.50449 | 9.95548 | 88° | 157km/h | 7741m | -5m/s | -27.8°C | 7.2% | 378.5hPa | 2.5V | 07:45:27 | 03:00:48 | 00:00:00 | |
| HSKMA3-T | 2026-09-05 01:18:49 | 51.50455 | 9.95854 | 89° | 144km/h | 7718m | -4.6m/s | -27.6°C | 7% | 379.7hPa | 2.5V | 07:46:03 | 03:00:53 | 00:00:00 | |
| BIOWL1-15 | 2026-09-05 01:18:48 | 51.50454 | 9.95795 | 88° | 146km/h | 7723m | -4.5m/s | -27.6°C | 7% | 0hPa | 2.5V | 07:49:27 | 03:00:52 | 00:00:00 | |
| DF7PN | 2026-09-05 01:18:47 | 51.50453 | 9.95735 | 88° | 148km/h | 7727m | -4.5m/s | -27.7°C | 6.1% | 379.3hPa | 2.5V | 00:00:00 | 00:00:00 | 00:00:00 | |
| DD1CC8 | 2026-09-05 01:18:40 | 51.50447 | 9.95289 | 91° | 161km/h | 7759m | -4.2m/s | -27.9°C | 6.3% | 377.6hPa | 2.5V | 00:00:00 | 00:00:00 | 00:00:00 | |
| DL1NUX | 2026-09-05 01:18:39 | 51.50464 | 9.94906 | 94° | 151km/h | 7786m | -4.9m/s | -28.1°C | 7.4% | 376.2hPa | 2.5V | 07:45:37 | 03:00:38 | 00:00:00 | |
| DF8AY-15 | 2026-09-05 01:18:38 | 51.50450 | 9.95159 | 94° | 150km/h | 7767m | -4.6m/s | -28.0°C | 7.3% | 377.1hPa | 2.6V | 00:00:00 | 03:00:42 | 00:00:00 | |
| HSKMA3-T | 2026-09-05 01:18:38 | 51.50450 | 9.95159 | 94° | 159km/h | 7767m | -4.7m/s | -28°C | 7.4% | 377.1hPa | 2.6V | 07:46:03 | 03:00:42 | 00:00:00 | |
| DB0NH | 2026-09-05 01:18:37 | 51.50453 | 9.95095 | 95° | 153km/h | 7771m | -4.5m/s | -28.0°C | 7.4% | 376.9hPa | 2.5V | 00:00:00 | 03:00:41 | 00:00:00 | |
| AM1SDL-15 | 2026-09-05 01:18:35 | 51.50460 | 9.94968 | 96° | 146km/h | 7781m | -5.1m/s | -28.1°C | 7.4% | 376.4hPa | 2.5V | 00:00:00 | 03:00:39 | 00:00:00 | |
| DK9SH | 2026-09-05 01:18:33 | 51.50464 | 9.94906 | 96° | 151km/h | 7786m | -4.9m/s | -28.2°C | 6.4% | 376.2hPa | 2.6V | 07:46:00 | 00:00:00 | 00:00:00 | |
| HARRO8 | 2026-09-05 01:18:32 | 51.50470 | 9.94786 | 94° | 144km/h | 7795m | -4.4m/s | -28.2°C | 6.5% | 375.7hPa | 2.6V | 00:00:00 | 00:00:00 | 00:00:00 | |
| DL1ZP-14 | 2026-09-05 01:18:30 | 51.50476 | 9.94501 | 89° | 139km/h | 7816m | -5.0m/s | -28.4°C | 6.6% | 374.6hPa | 2.6V | 00:00:00 | 00:00:00 | 00:00:00 | |
| DL1NUX | 2026-09-05 01:18:29 | 51.50472 | 9.94327 | 87° | 146km/h | 7830m | -4.3m/s | -28.5°C | 7.7% | 373.8hPa | 2.5V | 07:45:47 | 03:00:28 | 00:00:00 | |
| HSKMA3-T | 2026-09-05 01:18:28 | 51.50476 | 9.94557 | 90° | 141km/h | 7812m | -4.6m/s | -28.4°C | 7.8% | 374.8hPa | 2.5V | 07:46:03 | 03:00:32 | 00:00:00 | |
| DL8OAI-8 | 2026-09-05 01:18:26 | 51.50476 | 9.94501 | 90° | 139km/h | 7816m | -5.0m/s | -28.4°C | 6.6% | 374.6hPa | 2.5V | 07:46:00 | 00:00:00 | 00:00:00 | |
| DB0UT-7 | 2026-09-05 01:18:25 | 51.50474 | 9.94386 | 88° | 153km/h | 7826m | -4.7m/s | -28.4°C | 7.7% | 374.0hPa | 2.5V | 00:00:00 | 00:00:00 | 00:00:00 | |
| SO1NDE-10 | 2026-09-05 01:18:24 | 51.50472 | 9.94327 | 88° | 153km/h | 7831m | -4.3m/s | -28.5°C | 7.7% | 373.8hPa | 2.5V | 00:00:00 | 03:00:28 | 00:00:00 | |
| AM1SDL-15 | 2026-09-05 01:18:23 | 51.50471 | 9.94267 | 88° | 161km/h | 7835m | -4.5m/s | -28.5°C | 7.7% | 373.6hPa | 2.5V | 00:00:00 | 03:00:27 | 00:00:00 | |
| DO9LL-15 | 2026-09-05 01:18:20 | 51.50466 | 9.94078 | 89° | 161km/h | 7848m | -5.1m/s | -28.6°C | 7.8% | 372.8hPa | 2.5V | 00:00:00 | 03:00:24 | 00:00:00 | |
| DL1NUX | 2026-09-05 01:18:19 | 51.50467 | 9.93682 | 92° | 162km/h | 7875m | -4.5m/s | -28.9°C | 7.9% | 371.5hPa | 2.5V | 07:45:57 | 03:00:18 | 00:00:00 | |
| DF8AY | 2026-09-05 01:18:17 | 51.50471 | 9.93551 | 93° | 159km/h | 7885m | -4m/s | -28.9°C | 8.4% | 371hPa | 2.6V | 07:46:03 | 03:00:16 | 00:00:00 | |
| HSKMA3-T | 2026-09-05 01:18:17 | 51.50465 | 9.93881 | 90° | 164km/h | 7862m | -4.8m/s | -28.7°C | 8.2% | 372.2hPa | 2.6V | 07:46:03 | 03:00:21 | 00:00:00 | |
| DF8AY-15 | 2026-09-05 01:18:17 | 51.50465 | 9.93881 | 90° | 151km/h | 7862m | -4.7m/s | -28.7°C | 7.9% | 372.2hPa | 2.5V | 00:00:00 | 03:00:21 | 00:00:00 | |
| NBG1-10 | 2026-09-05 01:18:16 | 51.50465 | 9.93815 | 91° | 170km/h | 7867m | -4.6m/s | -28.7°C | 7.9% | 371.9hPa | 2.5V | 00:00:00 | 03:00:20 | 00:00:00 | |
| DC4HF-4 | 2026-09-05 01:18:13 | 51.50469 | 9.93616 | 92° | 162km/h | 7880m | -5.1m/s | 0°C | -1.0% | 371.3hPa | 2.5V | 00:00:00 | 00:00:00 | 00:00:00 | |
| DF7ER-10 | 2026-09-05 01:18:12 | 51.50469 | 9.93616 | 93° | 164km/h | 7880m | -5.1m/s | -28.9°C | 6.9% | 371.3hPa | 2.5V | 07:46:00 | 00:00:00 | 00:00:00 | |
| AM1SDL-15 | 2026-09-05 01:18:11 | 51.50473 | 9.93487 | 95° | 148km/h | 7889m | -4.2m/s | -28.9°C | 8.1% | 370.8hPa | 2.5V | 00:00:00 | 03:00:15 | 00:00:00 | |
| DL1NUX | 2026-09-05 01:18:09 | 51.50484 | 9.93070 | 90° | 142km/h | 7920m | -5.3m/s | -29.2°C | 8% | 369.3hPa | 2.5V | 07:46:07 | 03:00:08 | 00:00:00 | |
| DF8AY | 2026-09-05 01:18:07 | 51.50483 | 9.93244 | 92° | 146km/h | 7907m | -4.8m/s | -29.1°C | 8.5% | 369.9hPa | 2.5V | 07:46:54 | 03:00:11 | 00:00:00 | |
| HSKMA3-T | 2026-09-05 01:18:06 | 51.50484 | 9.93185 | 91° | 144km/h | 7911m | -4.7m/s | -29.2°C | 8.4% | 369.7hPa | 2.6V | 07:46:54 | 03:00:10 | 00:00:00 | |
| DL8OAI-8 | 2026-09-05 01:18:05 | 51.50484 | 9.93184 | 92° | 144km/h | 7912m | -4.7m/s | -29.2°C | 7.0% | 369.7hPa | 2.6V | 07:46:00 | 00:00:00 | 00:00:00 | |
| HARRO8 | 2026-09-05 01:18:01 | 51.50480 | 9.92895 | 85° | 144km/h | 7934m | -4.6m/s | -29.3°C | 6.8% | 368.5hPa | 2.6V | 00:00:00 | 00:00:00 | 00:00:00 | |
| DL4XJ-10 | 2026-09-05 01:18:00 | 51.50478 | 9.92836 | 87° | 151km/h | 7939m | -5.0m/s | -29.4°C | 0% | 0hPa | 2.6V | 00:00:00 | 00:00:00 | 00:00:00 | |
| DL1NUX | 2026-09-05 01:17:59 | 51.50461 | 9.92452 | 88° | 164km/h | 7967m | -4.7m/s | -29.5°C | 7.7% | 366.9hPa | 2.6V | 07:46:17 | 02:59:58 | 00:00:00 | |
| DF8AY | 2026-09-05 01:17:56 | 51.50465 | 9.92585 | 86° | 164km/h | 7958m | -4.7m/s | -29.4°C | 8% | 367.4hPa | 2.5V | 07:46:54 | 03:00:00 | 00:00:00 | |
| HSKMA3-T | 2026-09-05 01:17:55 | 51.50463 | 9.92519 | 87° | 166km/h | 7963m | -4.8m/s | -29.4°C | 7.9% | 367.1hPa | 2.6V | 07:46:54 | 02:59:59 | 00:00:00 | |
| DB0UT-7 | 2026-09-05 01:17:55 | 51.50463 | 9.92519 | 88° | 157km/h | 7963m | -4.8m/s | -29.4°C | 7.7% | 367.1hPa | 2.6V | 00:00:00 | 02:59:59 | 00:00:00 | |
| SO1NDE-10 | 2026-09-05 01:17:54 | 51.50461 | 9.92452 | 89° | 157km/h | 7967m | -4.6m/s | -29.4°C | 7.7% | 366.8hPa | 2.6V | 00:00:00 | 02:59:58 | 00:00:00 | |
| DK9SH | 2026-09-05 01:17:53 | 51.50460 | 9.92385 | 90° | 166km/h | 7972m | -5.0m/s | -29.5°C | 6.6% | 366.7hPa | 2.6V | 00:00:00 | 00:00:00 | 00:00:00 | |
| DO9LL-15 | 2026-09-05 01:17:50 | 51.50464 | 9.92187 | 93° | 153km/h | 7986m | -4.4m/s | -29.6°C | 7.6% | 365.9hPa | 2.6V | 00:00:00 | 02:59:54 | 00:00:00 | |
| DL1NUX | 2026-09-05 01:17:49 | 51.50471 | 9.91823 | 88° | 144km/h | 8012m | -4.7m/s | -29.8°C | 7.4% | 364.6hPa | 2.6V | 07:46:27 | 02:59:48 | 00:00:00 | |
| DF8AY | 2026-09-05 01:17:46 | 51.50471 | 9.91940 | 91° | 146km/h | 8004m | -4.2m/s | -29.7°C | 7.6% | 365.1hPa | 2.5V | 07:46:54 | 02:59:50 | 00:00:00 | |
| HSKMA3-T | 2026-09-05 01:17:45 | 51.50472 | 9.91882 | 90° | 144km/h | 8008m | -4.3m/s | -29.7°C | 7.6% | 364.9hPa | 2.5V | 07:46:54 | 02:59:49 | 00:00:00 | |
| DF7PN | 2026-09-05 01:17:45 | 51.50472 | 9.91882 | 89° | 142km/h | 8008m | -4.3m/s | -29.7°C | 6.3% | 364.9hPa | 2.5V | 00:00:00 | 00:00:00 | 00:00:00 | |
| BIOWL1-15 | 2026-09-05 01:17:44 | 51.50467 | 9.91706 | 86° | 146km/h | 8021m | -4.5m/s | -29.8°C | 7.5% | 0hPa | 2.5V | 07:49:27 | 02:59:46 | 00:00:00 | |
| DL1NUX | 2026-09-05 01:17:39 | 51.50441 | 9.91206 | 86° | 161km/h | 8057m | -4.9m/s | -30°C | 6.8% | 362.4hPa | 2.5V | 07:46:37 | 02:59:38 | 00:00:00 | |
| DF8AY | 2026-09-05 01:17:35 | 51.50444 | 9.91270 | 86° | 161km/h | 8053m | -4.7m/s | -30°C | 6.7% | 362.6hPa | 2.5V | 07:46:54 | 02:59:39 | 00:00:00 | |
| BIOWL1-15 | 2026-09-05 01:17:34 | 51.50441 | 9.91206 | 87° | 161km/h | 8057m | -4.9m/s | -30°C | 6.6% | 0hPa | 2.5V | 07:49:27 | 02:59:38 | 00:00:00 | |
| DL3AQ-11 | 2026-09-05 01:17:33 | 51.50437 | 9.91008 | 89° | 161km/h | 8071m | -4.6m/s | -30.1°C | 5.6% | 361.8hPa | 2.5V | 00:00:00 | 00:00:00 | 00:00:00 | |
| HARRO8 | 2026-09-05 01:17:30 | 51.50437 | 9.90942 | 89° | 161km/h | 8076m | -4.3m/s | -30.1°C | 5.6% | 361.5hPa | 2.5V | 00:00:00 | 00:00:00 | 00:00:00 | |
| DL1NUX | 2026-09-05 01:17:29 | 51.50441 | 9.90555 | 92° | 153km/h | 8103m | -4.7m/s | -30.3°C | 6.7% | 360.2hPa | 2.5V | 07:46:47 | 02:59:28 | 00:00:00 | |
| DF8AY | 2026-09-05 01:17:24 | 51.50441 | 9.90555 | 92° | 153km/h | 8104m | -4.7m/s | -30.3°C | 6.5% | 360.2hPa | 2.5V | 07:46:54 | 02:59:28 | 00:00:00 | |
| BIOWL1-15 | 2026-09-05 01:17:23 | 51.50445 | 9.90372 | 92° | 148km/h | 8117m | -4.3m/s | 0°C | 0% | 0hPa | 2.6V | 07:49:27 | 02:59:25 | 00:00:00 | |
| BIOWL9-15 | 2026-09-05 01:17:23 | 51.50445 | 9.90372 | 91° | 146km/h | 8117m | -4.3m/s | -30.4°C | -1.0% | -1.0hPa | 2.5V | 00:00:00 | 00:00:00 | 00:00:00 | |
| DL3AQ-11 | 2026-09-05 01:17:22 | 51.50445 | 9.90372 | 91° | 146km/h | 8117m | -4.3m/s | -30.4°C | 5.6% | 359.5hPa | 2.5V | 00:00:00 | 00:00:00 | 00:00:00 | |
| DO9LL-15 | 2026-09-05 01:17:20 | 51.50445 | 9.90312 | 92° | 153km/h | 8121m | -3.9m/s | -30.4°C | 6.7% | 359.3hPa | 2.5V | 00:00:00 | 02:59:24 | 00:00:00 | |
| DL1NUX | 2026-09-05 01:17:19 | 51.50442 | 9.89965 | 85° | 144km/h | 8147m | -4.5m/s | -30.6°C | 6.7% | 358hPa | 2.5V | 07:46:57 | 02:59:18 | 00:00:00 | |
| HSKMA3-T | 2026-09-05 01:17:13 | 51.50439 | 9.89906 | 85° | 148km/h | 8151m | -4.4m/s | -30.7°C | 6.6% | 357.7hPa | 2.5V | 07:47:45 | 02:59:17 | 00:00:00 | |
| DL1CLM-18 | 2026-09-05 01:17:12 | 51.50439 | 9.89906 | 86° | 148km/h | 8152m | -4.4m/s | -30.6°C | 5.6% | 357.7hPa | 2.6V | 00:00:00 | 00:00:00 | 00:00:00 | |
| DL1NUX | 2026-09-05 01:17:09 | 51.50408 | 9.89322 | 88° | 166km/h | 8192m | -4.5m/s | -30.9°C | 6.9% | 355.7hPa | 2.6V | 07:47:07 | 02:59:08 | 00:00:00 | |
| DF8AY | 2026-09-05 01:17:03 | 51.50407 | 9.89255 | 89° | 166km/h | 8196m | -4.3m/s | -30.9°C | 6.9% | 355.5hPa | 2.6V | 07:47:45 | 02:59:07 | 00:00:00 | |
| HSKMA3-T | 2026-09-05 01:17:02 | 51.50407 | 9.89188 | 90° | 162km/h | 8200m | -4.4m/s | -31°C | 6.9% | 355.3hPa | 2.5V | 07:47:45 | 02:59:06 | 00:00:00 | |
| AM1SDL-15 | 2026-09-05 01:17:01 | 51.50407 | 9.89122 | 91° | 155km/h | 8205m | -4.4m/s | -30.9°C | 7.0% | 355.1hPa | 2.5V | 00:00:00 | 02:59:05 | 00:00:00 | |
| DL1NUX | 2026-09-05 01:16:59 | 51.50401 | 9.88692 | 85° | 148km/h | 8235m | -4.3m/s | -31.1°C | 7.1% | 353.6hPa | 2.5V | 07:47:17 | 02:58:58 | 00:00:00 | |
| HSKMA3-T | 2026-09-05 01:16:52 | 51.50394 | 9.88572 | 84° | 148km/h | 8244m | -4.3m/s | -31.2°C | 7.3% | 353.2hPa | 2.6V | 07:47:45 | 02:58:56 | 00:00:00 | |
| BIOWL9-15 | 2026-09-05 01:16:52 | 51.50378 | 9.88331 | 83° | 151km/h | 8262m | -4.5m/s | 0°C | -1.0% | -1.0hPa | 2.5V | 00:00:00 | 00:00:00 | 00:00:00 | |
| DO9LL-15 | 2026-09-05 01:16:50 | 51.50386 | 9.88452 | 84° | 157km/h | 8253m | -4.4m/s | -31.3°C | 7.2% | 352.7hPa | 2.5V | 00:00:00 | 02:58:54 | 00:00:00 | |
| DL1NUX | 2026-09-05 01:16:49 | 51.50358 | 9.88081 | 82° | 161km/h | 8280m | -4.5m/s | -31.5°C | 7.4% | 351.4hPa | 2.5V | 07:47:27 | 02:58:48 | 00:00:00 | |
| BIOWL1-15 | 2026-09-05 01:16:48 | 51.50378 | 9.88331 | 83° | 151km/h | 8262m | -4.5m/s | 0°C | 0% | 0hPa | 2.5V | 07:49:27 | 02:58:52 | 00:00:00 | |
| DO2JMG | 2026-09-05 01:16:46 | 51.50368 | 9.88208 | 83° | 155km/h | 8271m | -4.4m/s | 0°C | 0% | 0hPa | 2.6V | 18:12:15 | 02:58:50 | 00:00:00 | |
| SONCRA | 2026-09-05 01:16:46 | 51.50363 | 9.88145 | 82° | 157km/h | 8275m | -4.4m/s | -31.5°C | 6.2% | 351.7hPa | 2.5V | 00:00:00 | 00:00:00 | 00:00:00 | |
| DF8AY | 2026-09-05 01:16:42 | 51.50348 | 9.87950 | 83° | 164km/h | 8288m | -4.4m/s | -31.6°C | 7.6% | 351hPa | 2.5V | 07:47:45 | 02:58:46 | 00:00:00 | |
| HSKMA3-T | 2026-09-05 01:16:41 | 51.50343 | 9.87884 | 84° | 166km/h | 8293m | -4.6m/s | -31.7°C | 7.6% | 350.8hPa | 2.6V | 07:47:45 | 02:58:45 | 00:00:00 | |
| DL1NUX | 2026-09-05 01:16:39 | 51.50330 | 9.87411 | 90° | 162km/h | 8324m | -4.2m/s | -32°C | 7.8% | 349.3hPa | 2.6V | 07:47:37 | 02:58:38 | 00:00:00 | |
| DF8AY | 2026-09-05 01:16:31 | 51.50331 | 9.87219 | 90° | 153km/h | 8337m | -4.5m/s | -32.1°C | 8.2% | 348.6hPa | 2.5V | 07:47:45 | 02:58:35 | 00:00:00 | |
| HSKMA3-T | 2026-09-05 01:16:30 | 51.50331 | 9.87158 | 89° | 150km/h | 8341m | -4.4m/s | -32.1°C | 8.2% | 348.4hPa | 2.5V | 07:47:45 | 02:58:34 | 00:00:00 | |
| DL1NUX | 2026-09-05 01:16:29 | 51.50315 | 9.86792 | 83° | 157km/h | 8367m | -4.2m/s | -32.4°C | 8.1% | 347.1hPa | 2.5V | 07:47:47 | 02:58:28 | 00:00:00 | |
| DF8AY | 2026-09-05 01:16:21 | 51.50301 | 9.86599 | 84° | 164km/h | 8380m | -4.4m/s | -32.5°C | 8.7% | 346.5hPa | 2.5V | 07:48:36 | 02:58:25 | 00:00:00 | |
| HSKMA3-T | 2026-09-05 01:16:20 | 51.50296 | 9.86532 | 84° | 166km/h | 8384m | -4.4m/s | -32.5°C | 8.7% | 346.3hPa | 2.5V | 07:48:36 | 02:58:24 | 00:00:00 | |
| DF8AY | 2026-09-05 01:16:11 | 51.50277 | 9.85919 | 91° | 161km/h | 8424m | -4.6m/s | -32.9°C | 9% | 344.3hPa | 2.5V | 07:48:36 | 02:58:15 | 00:00:00 | |
| HSKMA3-T | 2026-09-05 01:16:10 | 51.50277 | 9.85854 | 92° | 159km/h | 8429m | -4.3m/s | -32.9°C | 9% | 344.1hPa | 2.5V | 07:48:36 | 02:58:14 | 00:00:00 | |
| BIOWL1-15 | 2026-09-05 01:16:02 | 51.50271 | 9.85361 | 85° | 153km/h | 8463m | -4.4m/s | 0°C | 0% | 0hPa | 2.6V | 07:49:27 | 02:58:06 | 00:00:00 | |
| DF8AY | 2026-09-05 01:16:00 | 51.50263 | 9.85235 | 84° | 161km/h | 8472m | -4.1m/s | -33.3°C | 9.4% | 342hPa | 2.6V | 07:48:36 | 02:58:04 | 00:00:00 | |
| HSKMA3-T | 2026-09-05 01:15:59 | 51.50259 | 9.85169 | 84° | 164km/h | 8476m | -4.3m/s | -33.3°C | 9.4% | 341.8hPa | 2.5V | 07:48:36 | 02:58:03 | 00:00:00 | |
| BIOWL1-15 | 2026-09-05 01:15:51 | 51.50244 | 9.84623 | 91° | 164km/h | 8511m | -4.3m/s | 0°C | 0% | 0hPa | 2.5V | 07:49:27 | 02:57:55 | 00:00:00 | |
| DO9LL-15 | 2026-09-05 01:15:50 | 51.50244 | 9.84556 | 92° | 159km/h | 8515m | -4.2m/s | -33.6°C | 9.2% | 339.8hPa | 2.5V | 00:00:00 | 02:57:54 | 00:00:00 | |
| DL1NUX | 2026-09-05 01:15:49 | 51.50251 | 9.84171 | 90° | 153km/h | 8541m | -4.2m/s | -33.9°C | 9.2% | 338.7hPa | 2.5V | 07:48:27 | 02:57:48 | 00:00:00 | |
| HSKMA3-T | 2026-09-05 01:15:49 | 51.50245 | 9.84491 | 92° | 161km/h | 8519m | -4.5m/s | -33.7°C | 9.9% | 339.7hPa | 2.5V | 07:48:36 | 02:57:53 | 00:00:00 | |
| AU51GT2 | 2026-09-05 01:15:48 | 51.50246 | 9.84426 | 91° | 159km/h | 8524m | -4.2m/s | -33.8°C | 7.8% | 339.5hPa | 2.5V | 00:00:00 | 00:00:00 | 00:00:00 | |
| DF8AY | 2026-09-05 01:15:39 | 51.50247 | 9.83867 | 87° | 148km/h | 8562m | -4.4m/s | -34.1°C | 9.8% | 337.6hPa | 2.5V | 07:48:36 | 02:57:43 | 00:00:00 | |
| DL1NUX | 2026-09-05 01:15:39 | 51.50231 | 9.83558 | 84° | 161km/h | 8583m | -3.9m/s | -34.2°C | 9.3% | 336.6hPa | 2.6V | 07:48:37 | 02:57:38 | 00:00:00 | |
| HSKMA3-T | 2026-09-05 01:15:38 | 51.50242 | 9.83747 | 85° | 151km/h | 8571m | -4.2m/s | -34.1°C | 9.8% | 337.1hPa | 2.5V | 07:48:36 | 02:57:41 | 00:00:00 | |
| DF2AP-13 | 2026-09-05 01:15:38 | 51.50245 | 9.83807 | 87° | 157km/h | 8567m | -4.3m/s | -34.0°C | 9.3% | 337.3hPa | 2.5V | 00:00:00 | 02:57:42 | 00:00:00 | |
| DF8AY-15 | 2026-09-05 01:15:37 | 51.50242 | 9.83747 | 86° | 150km/h | 8571m | -4.2m/s | -34.1°C | 9.3% | 337.1hPa | 2.5V | 00:00:00 | 02:57:41 | 00:00:00 | |
| DL3OBA | 2026-09-05 01:15:33 | 51.50231 | 9.83558 | 85° | 162km/h | 8583m | -3.9m/s | -34.2°C | 7.9% | 336.6hPa | 2.5V | 07:49:00 | 00:00:00 | 00:00:00 | |
| EDDB2-11 | 2026-09-05 01:15:31 | 51.50219 | 9.83358 | 85° | 168km/h | 8596m | -4.1m/s | -34.3°C | 7.8% | 335.9hPa | 2.5V | 00:00:00 | 00:00:00 | 00:00:00 | |
| DL1NUX | 2026-09-05 01:15:29 | 51.50210 | 9.82887 | 90° | 159km/h | 8625m | -3.8m/s | -34.5°C | 9.2% | 334.6hPa | 2.5V | 07:48:47 | 02:57:28 | 00:00:00 | |
| HSKMA3-T | 2026-09-05 01:15:28 | 51.50212 | 9.83153 | 88° | 168km/h | 8608m | -4.3m/s | -34.4°C | 9.7% | 335.4hPa | 2.5V | 07:49:27 | 02:57:32 | 00:00:00 | |
| BIOWL1-15 | 2026-09-05 01:15:20 | 51.50212 | 9.82633 | 91° | 155km/h | 8642m | -4.2m/s | 0°C | 0% | 0hPa | 2.6V | 07:49:27 | 02:57:24 | 00:00:00 | |
| DF8AY | 2026-09-05 01:15:18 | 51.50212 | 9.82508 | 91° | 153km/h | 8650m | -4.5m/s | -34.7°C | 9.6% | 333.3hPa | 2.5V | 07:49:27 | 02:57:22 | 00:00:00 | |
| HSKMA3-T | 2026-09-05 01:15:17 | 51.50213 | 9.82386 | 90° | 148km/h | 8659m | -4.2m/s | -34.7°C | 9.5% | 333hPa | 2.5V | 07:49:27 | 02:57:20 | 00:00:00 | |
| BIOWL1-15 | 2026-09-05 01:15:10 | 51.50199 | 9.82031 | 83° | 148km/h | 8684m | -4.5m/s | 0°C | 0% | 0hPa | 2.5V | 07:49:27 | 02:57:14 | 00:00:00 | |
| DF7PN | 2026-09-05 01:15:10 | 51.50199 | 9.82031 | 83° | 148km/h | 8684m | -4.5m/s | -34.9°C | 7.5% | 331.8hPa | 2.5V | 00:00:00 | 00:00:00 | 00:00:00 | |
| DL1NUX | 2026-09-05 01:15:09 | 51.50169 | 9.81651 | 84° | 168km/h | 8709m | -4.1m/s | -35°C | 8.9% | 330.6hPa | 2.5V | 07:49:07 | 02:57:08 | 00:00:00 | |
| DF8AY | 2026-09-05 01:15:08 | 51.50189 | 9.81910 | 82° | 153km/h | 8693m | -4.3m/s | -34.9°C | 9.3% | 331.4hPa | 2.5V | 07:49:27 | 02:57:12 | 00:00:00 | |
| HSKMA3-T | 2026-09-05 01:15:06 | 51.50178 | 9.81784 | 83° | 161km/h | 8701m | -4.4m/s | -35°C | 9.3% | 331hPa | 2.6V | 07:49:27 | 02:57:10 | 00:00:00 | |
| DL3AQ-11 | 2026-09-05 01:15:06 | 51.50173 | 9.81718 | 83° | 164km/h | 8705m | -4.0m/s | -35.0°C | 7.5% | 330.8hPa | 2.5V | 00:00:00 | 00:00:00 | 00:00:00 | |
| DD1CC8 | 2026-09-05 01:15:03 | 51.50163 | 9.81516 | 86° | 166km/h | 8717m | -4.0m/s | -35.1°C | 7.5% | 330.3hPa | 2.5V | 00:00:00 | 00:00:00 | 00:00:00 | |
| EDDB2-11 | 2026-09-05 01:15:00 | 51.50160 | 9.81381 | 88° | 164km/h | 8725m | -4.1m/s | -35.1°C | 7.5% | 329.9hPa | 2.5V | 00:00:00 | 00:00:00 | 00:00:00 | |
| DL1NUX | 2026-09-05 01:14:59 | 51.50156 | 9.81003 | 87° | 146km/h | 8750m | -4.1m/s | -35.3°C | 9% | 328.7hPa | 2.5V | 07:49:17 | 02:56:58 | 00:00:00 | |
| BIOWL1-15 | 2026-09-05 01:14:59 | 51.50159 | 9.81315 | 89° | 162km/h | 8729m | -4.2m/s | 0°C | 0% | 0hPa | 2.6V | 07:49:27 | 02:57:03 | 00:00:00 | |
| DF8AY | 2026-09-05 01:14:57 | 51.50158 | 9.81186 | 90° | 155km/h | 8737m | -4.2m/s | -35.2°C | 9.5% | 329.2hPa | 2.6V | 07:49:27 | 02:57:01 | 00:00:00 | |
| HSKMA3-T | 2026-09-05 01:14:56 | 51.50158 | 9.81123 | 90° | 151km/h | 8742m | -4.2m/s | -35.3°C | 9.5% | 329.1hPa | 2.5V | 07:49:27 | 02:57:00 | 00:00:00 | |
| DM0DOS-11 | 2026-09-05 01:14:56 | 51.50151 | 9.80885 | 84° | 146km/h | 8758m | -3.8m/s | -35.4°C | 9.1% | 328.3hPa | 2.5V | 07:49:19 | 02:56:56 | 00:00:00 | |
| DF8AY | 2026-09-05 01:14:51 | 51.50116 | 9.80516 | 82° | 164km/h | 8783m | -4.1m/s | -35.6°C | 9.6% | 327.1hPa | 2.6V | 07:49:27 | 02:56:50 | 00:00:00 | |
| DO9LL-15 | 2026-09-05 01:14:50 | 51.50141 | 9.80767 | 82° | 161km/h | 8766m | -4.2m/s | -35.4°C | 9.1% | 327.9hPa | 2.5V | 07:49:00 | 02:56:54 | 00:00:00 | |
| DL1NUX | 2026-09-05 01:14:49 | 51.50105 | 9.80381 | 83° | 168km/h | 8790m | -4m/s | -35.7°C | 9.2% | 326.8hPa | 2.5V | 07:49:27 | 02:56:48 | 00:00:00 | |
| DF8AY-15 | 2026-09-05 01:14:49 | 51.50136 | 9.80706 | 81° | 157km/h | 8770m | -4.4m/s | -35.5°C | 9.1% | 327.7hPa | 2.5V | 00:00:00 | 02:56:53 | 00:00:00 | |
| DM0DOS-11 | 2026-09-05 01:14:46 | 51.50098 | 9.80245 | 85° | 170km/h | 8798m | -4.1m/s | 0°C | 0% | 0hPa | 2.5V | 07:49:29 | 02:56:46 | 00:00:00 | |
| HSKMA3-T | 2026-09-05 01:14:45 | 51.50110 | 9.80449 | 83° | 166km/h | 8786m | -4m/s | -35.6°C | 9.6% | 327hPa | 2.6V | 07:49:27 | 02:56:49 | 00:00:00 | |
| BIOWL1-15 | 2026-09-05 01:14:44 | 51.50105 | 9.80381 | 84° | 168km/h | 8790m | -4m/s | 0°C | 0% | 0hPa | 2.5V | 07:49:27 | 02:56:48 | 00:00:00 | |
| AM1SDL-15 | 2026-09-05 01:14:43 | 51.50101 | 9.80313 | 86° | 161km/h | 8795m | -4.1m/s | -35.7°C | 9.2% | 326.6hPa | 2.6V | 00:00:00 | 02:56:47 | 00:00:00 | |
| SONCRA | 2026-09-05 01:14:41 | 51.50095 | 9.80176 | 86° | 168km/h | 8803m | -4.3m/s | -35.8°C | 7.7% | 326.2hPa | 2.6V | 00:00:00 | 00:00:00 | 00:00:00 | |
| DF7ER-10 | 2026-09-05 01:14:40 | 51.50095 | 9.80176 | 88° | 168km/h | 8803m | -4.3m/s | -35.8°C | 7.7% | 326.2hPa | 2.6V | 07:50:00 | 00:00:00 | 00:00:00 | |
| DL1NUX | 2026-09-05 01:14:39 | 51.50083 | 9.79722 | 85° | 151km/h | 8831m | -3.8m/s | -36°C | 9.1% | 324.9hPa | 2.6V | 07:49:37 | 02:56:38 | 00:00:00 | |
| DF7PN | 2026-09-05 01:14:39 | 51.50090 | 9.79975 | 88° | 161km/h | 8815m | -4.0m/s | -35.9°C | 7.6% | 325.6hPa | 2.5V | 00:00:00 | 00:00:00 | 00:00:00 | |
| DF2AP-13 | 2026-09-05 01:14:38 | 51.50090 | 9.79975 | 89° | 159km/h | 8815m | -3.9m/s | -35.9°C | 9.2% | 325.6hPa | 2.5V | 07:49:00 | 02:56:42 | 00:00:00 | |
| DB0NH | 2026-09-05 01:14:37 | 51.50088 | 9.79910 | 89° | 159km/h | 8819m | -4.0m/s | -35.9°C | 9.2% | 325.4hPa | 2.5V | 00:00:00 | 02:56:41 | 00:00:00 | |
| DM0DOS-11 | 2026-09-05 01:14:36 | 51.50076 | 9.79601 | 83° | 150km/h | 8839m | -3.9m/s | 0°C | 0% | 0hPa | 2.5V | 07:49:39 | 02:56:36 | 00:00:00 | |
| DF8AY | 2026-09-05 01:14:36 | 51.50087 | 9.79846 | 88° | 155km/h | 8823m | -3.9m/s | -36°C | 9.5% | 325.3hPa | 2.5V | 07:50:18 | 02:56:40 | 00:00:00 | |
| HSKMA3-T | 2026-09-05 01:14:35 | 51.50085 | 9.79783 | 87° | 153km/h | 8827m | -4.2m/s | -36°C | 9.5% | 325.1hPa | 2.6V | 07:50:18 | 02:56:39 | 00:00:00 | |
| DL4XJ-10 | 2026-09-05 01:14:34 | 51.50083 | 9.79722 | 86° | 161km/h | 8831m | -3.7m/s | -36.1°C | 0% | 0hPa | 2.6V | 00:00:00 | 00:00:00 | 00:00:00 | |
| DD1CC8 | 2026-09-05 01:14:32 | 51.50071 | 9.79541 | 82° | 150km/h | 8843m | -4.4m/s | -36.1°C | 7.2% | 324.4hPa | 2.6V | 00:00:00 | 00:00:00 | 00:00:00 | |
| AM1SDL-15 | 2026-09-05 01:14:31 | 51.50071 | 9.79541 | 83° | 161km/h | 8843m | -4.4m/s | -36.0°C | 8.8% | 324.3hPa | 2.6V | 00:00:00 | 02:56:35 | 00:00:00 | |
| DL3OBA | 2026-09-05 01:14:30 | 51.50071 | 9.79541 | 83° | 150km/h | 8843m | -4.4m/s | -36.1°C | 7.2% | 324.4hPa | 2.6V | 07:50:00 | 00:00:00 | 00:00:00 | |
| DL1NUX | 2026-09-05 01:14:29 | 51.50025 | 9.79105 | 80° | 166km/h | 8872m | -4.1m/s | -36.1°C | 8.4% | 323hPa | 2.6V | 07:49:47 | 02:56:28 | 00:00:00 | |
| DM0DOS-11 | 2026-09-05 01:14:26 | 51.50012 | 9.78969 | 82° | 172km/h | 8880m | -4.1m/s | 0°C | 0% | 0hPa | 2.5V | 07:49:49 | 02:56:26 | 00:00:00 | |
| HSKMA3-T | 2026-09-05 01:14:25 | 51.50032 | 9.79170 | 80° | 162km/h | 8868m | -4.1m/s | -36.2°C | 8.4% | 323hPa | 2.5V | 07:50:18 | 02:56:29 | 00:00:00 | |
| DB0UT-7 | 2026-09-05 01:14:25 | 51.50032 | 9.79170 | 80° | 164km/h | 8868m | -4.1m/s | -36.1°C | 8.5% | 323.0hPa | 2.5V | 00:00:00 | 00:00:00 | 00:00:00 | |
| DO9LL-15 | 2026-09-05 01:14:20 | 51.50003 | 9.78831 | 86° | 164km/h | 8888m | -4.0m/s | -36.1°C | 8.2% | 322.2hPa | 2.5V | 00:00:00 | 02:56:24 | 00:00:00 | |
| DL1NUX | 2026-09-05 01:14:19 | 51.49989 | 9.78432 | 86° | 157km/h | 8913m | -4.1m/s | -36.4°C | 8.3% | 321.1hPa | 2.5V | 07:49:57 | 02:56:18 | 00:00:00 | |
| DM0DOS-11 | 2026-09-05 01:14:16 | 51.49983 | 9.78306 | 84° | 153km/h | 8921m | -4.2m/s | 0°C | 0% | 0hPa | 2.6V | 07:49:59 | 02:56:16 | 00:00:00 | |
| DF8AY | 2026-09-05 01:14:15 | 51.49991 | 9.78496 | 87° | 161km/h | 8909m | -4.1m/s | -36.3°C | 8.3% | 321.3hPa | 2.5V | 07:50:18 | 02:56:19 | 00:00:00 | |
| HSKMA3-T | 2026-09-05 01:14:14 | 51.49989 | 9.78432 | 86° | 157km/h | 8913m | -4.1m/s | -36.4°C | 8.3% | 321.2hPa | 2.5V | 07:50:18 | 02:56:18 | 00:00:00 | |
| DL4XJ-10 | 2026-09-05 01:14:14 | 51.49989 | 9.78432 | 87° | 166km/h | 8913m | -4.1m/s | -36.4°C | 0% | 0hPa | 2.5V | 00:00:00 | 00:00:00 | 00:00:00 | |
| DL3AQ-11 | 2026-09-05 01:14:13 | 51.49983 | 9.78306 | 84° | 151km/h | 8921m | -4.2m/s | -36.4°C | 6.7% | 320.8hPa | 2.5V | 00:00:00 | 00:00:00 | 00:00:00 | |
| SONCRA | 2026-09-05 01:14:10 | 51.49974 | 9.78183 | 82° | 151km/h | 8929m | -4.2m/s | -36.5°C | 6.6% | 320.5hPa | 2.5V | 00:00:00 | 00:00:00 | 00:00:00 | |
| DL1NUX | 2026-09-05 01:14:09 | 51.49933 | 9.77807 | 78° | 166km/h | 8954m | -4m/s | -36.6°C | 8.1% | 319.2hPa | 2.5V | 07:50:07 | 02:56:08 | 00:00:00 | |
| DF8AY | 2026-09-05 01:14:04 | 51.49933 | 9.77807 | 79° | 166km/h | 8954m | -4.1m/s | -36.6°C | 7.9% | 319.2hPa | 2.5V | 07:50:18 | 02:56:08 | 00:00:00 | |
| HSKMA3-T | 2026-09-05 01:14:03 | 51.49925 | 9.77740 | 79° | 170km/h | 8958m | -4.1m/s | -36.6°C | 7.9% | 319.1hPa | 2.5V | 07:50:18 | 02:56:07 | 00:00:00 | |
| DC4HF-4 | 2026-09-05 01:14:01 | 51.49910 | 9.77602 | 80° | 175km/h | 8967m | -4.2m/s | -36.6°C | -1.0% | -1.0hPa | 2.5V | 00:00:00 | 00:00:00 | 00:00:00 | |
| DD1CC8 | 2026-09-05 01:14:00 | 51.49903 | 9.77531 | 81° | 175km/h | 8971m | -4.3m/s | -36.6°C | 6.3% | 318.5hPa | 2.5V | 00:00:00 | 00:00:00 | 00:00:00 | |
| DL1NUX | 2026-09-05 01:13:59 | 51.49875 | 9.77111 | 85° | 166km/h | 8996m | -3.8m/s | -36.4°C | 7.4% | 317.4hPa | 2.5V | 07:50:17 | 02:55:58 | 00:00:00 | |
| BIOWL1-15 | 2026-09-05 01:13:58 | 51.49891 | 9.77389 | 83° | 177km/h | 8979m | -4.2m/s | 0°C | 0% | 0hPa | 2.5V | 18:12:15 | 02:56:02 | 00:00:00 | |
| DF8AY | 2026-09-05 01:13:53 | 51.49872 | 9.77045 | 86° | 161km/h | 9000m | -4m/s | -36.4°C | 7.3% | 317.2hPa | 2.5V | 07:50:18 | 02:55:57 | 00:00:00 | |
| HSKMA3-T | 2026-09-05 01:13:52 | 51.49869 | 9.76980 | 85° | 159km/h | 9004m | -4.2m/s | -36.4°C | 7.3% | 317hPa | 2.6V | 07:51:09 | 02:55:56 | 00:00:00 | |
| DO9LL-15 | 2026-09-05 01:13:50 | 51.49860 | 9.76854 | 83° | 164km/h | 9012m | -4.2m/s | -36.4°C | 7.5% | 316.6hPa | 2.5V | 00:00:00 | 02:55:54 | 00:00:00 | |
| DL1NUX | 2026-09-05 01:13:49 | 51.49817 | 9.76478 | 77° | 166km/h | 9037m | -4.1m/s | -36.7°C | 7.6% | 315.5hPa | 2.5V | 07:50:27 | 02:55:48 | 00:00:00 | |
| DL3AQ-11 | 2026-09-05 01:13:45 | 51.49826 | 9.76543 | 77° | 162km/h | 9033m | -4.2m/s | -36.7°C | 6.1% | 315.7hPa | 2.5V | 00:00:00 | 00:00:00 | 00:00:00 | |
| BIOWL1-15 | 2026-09-05 01:13:43 | 51.49808 | 9.76411 | 78° | 170km/h | 9041m | -4m/s | 0°C | 0% | 0hPa | 2.5V | 18:12:15 | 02:55:47 | 00:00:00 | |
| DM0DOS-11 | 2026-09-05 01:13:42 | 51.49764 | 9.75993 | 82° | 175km/h | 9066m | -4.1m/s | 0°C | 0% | 0hPa | 2.5V | 07:50:34 | 02:55:41 | 00:00:00 | |
| HSKMA3-T | 2026-09-05 01:13:42 | 51.49799 | 9.76343 | 79° | 172km/h | 9045m | -4m/s | -36.8°C | 7.6% | 315.1hPa | 2.6V | 07:51:09 | 02:55:46 | 00:00:00 | |
| DL1NUX | 2026-09-05 01:13:39 | 51.49750 | 9.75783 | 84° | 170km/h | 9079m | -4.4m/s | -37°C | 7.7% | 313.6hPa | 2.5V | 07:50:37 | 02:55:38 | 00:00:00 | |
| HSKMA3-T | 2026-09-05 01:13:32 | 51.49743 | 9.75648 | 85° | 164km/h | 9088m | -4.6m/s | -37.1°C | 7.8% | 313.2hPa | 2.6V | 07:51:09 | 02:55:36 | 00:00:00 | |
| DD1CC8 | 2026-09-05 01:13:30 | 51.49731 | 9.75456 | 82° | 153km/h | 9101m | -4.1m/s | -37.2°C | 6.3% | 312.6hPa | 2.5V | 00:00:00 | 00:00:00 | 00:00:00 | |
| DL1NUX | 2026-09-05 01:13:29 | 51.49694 | 9.75149 | 76° | 159km/h | 9122m | -4.5m/s | -37.4°C | 8% | 311.7hPa | 2.5V | 07:50:47 | 02:55:28 | 00:00:00 | |
| HSKMA3-T | 2026-09-05 01:13:21 | 51.49666 | 9.74954 | 78° | 170km/h | 9135m | -4.2m/s | -37.5°C | 8.1% | 311.1hPa | 2.5V | 07:51:09 | 02:55:25 | 00:00:00 | |
| HSKMA3-T | 2026-09-05 01:13:10 | 51.49600 | 9.74204 | 83° | 155km/h | 9182m | -4m/s | -38°C | 8.3% | 309hPa | 2.5V | 07:51:09 | 02:55:14 | 00:00:00 | |
| DL1NUX | 2026-09-05 01:13:09 | 51.49558 | 9.73840 | 76° | 157km/h | 9208m | -4.4m/s | -38.2°C | 8.5% | 307.8hPa | 2.5V | 07:51:07 | 02:55:08 | 00:00:00 | |
| DF8AY | 2026-09-05 01:13:00 | 51.49518 | 9.73579 | 78° | 173km/h | 9226m | -4.4m/s | -38.3°C | 8.6% | 307hPa | 2.5V | 07:52:51 | 02:55:04 | 00:00:00 | |
| HSKMA3-T | 2026-09-05 01:12:59 | 51.49509 | 9.73510 | 79° | 175km/h | 9230m | -4.4m/s | -38.4°C | 8.7% | 306.9hPa | 2.5V | 07:52:00 | 02:55:03 | 00:00:00 | |
| DF8AY | 2026-09-05 01:12:50 | 51.49459 | 9.72910 | 82° | 151km/h | 9270m | -4.4m/s | -38.7°C | 9% | 305.1hPa | 2.5V | 07:52:51 | 02:54:54 | 00:00:00 | |
| DO9LL-15 | 2026-09-05 01:12:50 | 51.49459 | 9.72910 | 82° | 162km/h | 9270m | -4.3m/s | -38.6°C | 8.7% | 305.0hPa | 2.5V | 00:00:00 | 02:54:54 | 00:00:00 | |
| DL1NUX | 2026-09-05 01:12:49 | 51.49408 | 9.72536 | 76° | 170km/h | 9295m | -4.4m/s | -38.9°C | 8.9% | 303.9hPa | 2.5V | 07:51:27 | 02:54:48 | 00:00:00 | |
| HSKMA3-T | 2026-09-05 01:12:48 | 51.49446 | 9.72789 | 78° | 151km/h | 9278m | -4.1m/s | -38.8°C | 9% | 304.7hPa | 2.5V | 07:52:00 | 02:54:52 | 00:00:00 | |
| DL1ZP-14 | 2026-09-05 01:12:48 | 51.49437 | 9.72728 | 76° | 155km/h | 9283m | -4.4m/s | -38.8°C | 7.1% | 304.5hPa | 2.5V | 00:00:00 | 00:00:00 | 00:00:00 | |
| DF8AY | 2026-09-05 01:12:39 | 51.49364 | 9.72191 | 81° | 173km/h | 9318m | -4.4m/s | -39.1°C | 9.3% | 303hPa | 2.5V | 07:52:51 | 02:54:43 | 00:00:00 | |
| DL1NUX | 2026-09-05 01:12:39 | 51.49337 | 9.71860 | 82° | 155km/h | 9339m | -4.3m/s | -39.3°C | 9.1% | 302hPa | 2.5V | 07:51:37 | 02:54:38 | 00:00:00 | |
| HSKMA3-T | 2026-09-05 01:12:38 | 51.49357 | 9.72122 | 82° | 170km/h | 9322m | -4.4m/s | -39.2°C | 9.3% | 302.8hPa | 2.5V | 07:52:00 | 02:54:42 | 00:00:00 | |
| DB0NH | 2026-09-05 01:12:37 | 51.49352 | 9.72054 | 83° | 162km/h | 9327m | -4.2m/s | -39.2°C | 9.0% | 302.5hPa | 2.5V | 00:00:00 | 02:54:41 | 00:00:00 | |
| DF7PN | 2026-09-05 01:12:35 | 51.49337 | 9.71860 | 82° | 155km/h | 9339m | -4.3m/s | -39.3°C | 7.3% | 302.0hPa | 2.5V | 00:00:00 | 00:00:00 | 00:00:00 | |
| DL8OAI-8 | 2026-09-05 01:12:34 | 51.49337 | 9.71860 | 84° | 155km/h | 9339m | -4.3m/s | -39.3°C | 7.4% | 302.0hPa | 2.5V | 07:52:00 | 00:00:00 | 00:00:00 | |
| DL4XJ-10 | 2026-09-05 01:12:30 | 51.49313 | 9.71617 | 79° | 159km/h | 9357m | -4.5m/s | -39.6°C | 0% | 0hPa | 2.5V | 00:00:00 | 00:00:00 | 00:00:00 | |
| DL1NUX | 2026-09-05 01:12:29 | 51.49252 | 9.71242 | 74° | 170km/h | 9384m | -4.4m/s | -39.7°C | 9.4% | 300hPa | 2.5V | 07:51:47 | 02:54:28 | 00:00:00 | |
| DF8AY | 2026-09-05 01:12:28 | 51.49296 | 9.71496 | 76° | 155km/h | 9366m | -4.6m/s | -39.6°C | 9.6% | 300.8hPa | 2.5V | 07:52:51 | 02:54:32 | 00:00:00 | |
| HSKMA3-T | 2026-09-05 01:12:27 | 51.49286 | 9.71435 | 75° | 159km/h | 9370m | -4.3m/s | -39.6°C | 9.6% | 300.6hPa | 2.5V | 07:52:00 | 02:54:31 | 00:00:00 | |
| HSKMA3-T | 2026-09-05 01:12:16 | 51.49181 | 9.70691 | 82° | 166km/h | 9419m | -4.6m/s | -40.1°C | 10% | 298.5hPa | 2.5V | 07:52:00 | 02:54:20 | 00:00:00 | |
| DL8OAI-8 | 2026-09-05 01:12:12 | 51.49165 | 9.70497 | 82° | 157km/h | 9433m | -4.7m/s | -40.2°C | 7.9% | 297.9hPa | 2.5V | 07:52:00 | 00:00:00 | 00:00:00 | |
| AU51GT2 | 2026-09-05 01:12:11 | 51.49152 | 9.70374 | 78° | 151km/h | 9442m | -4.6m/s | -40.3°C | 7.9% | 297.5hPa | 2.5V | 00:00:00 | 00:00:00 | 00:00:00 | |
| AM1SDL-15 | 2026-09-05 01:12:10 | 51.49143 | 9.70313 | 78° | 164km/h | 9446m | -4.4m/s | 0°C | 0% | 0hPa | 2.5V | 00:00:00 | 02:54:14 | 00:00:00 | |
| DL1NUX | 2026-09-05 01:12:09 | 51.49078 | 9.69944 | 73° | 168km/h | 9474m | -4.6m/s | -40.5°C | 10.1% | 296hPa | 2.5V | 07:52:07 | 02:54:08 | 00:00:00 | |
| HSKMA3-T | 2026-09-05 01:12:06 | 51.49102 | 9.70071 | 73° | 161km/h | 9465m | -4.8m/s | -40.5°C | 10.3% | 296.4hPa | 2.5V | 07:52:51 | 02:54:10 | 00:00:00 | |
| DF8AY | 2026-09-05 01:11:59 | 51.49027 | 9.69604 | 80° | 172km/h | 9498m | -4.8m/s | -40.8°C | 10.6% | 295.1hPa | 2.5V | 07:52:51 | 02:54:03 | 00:00:00 | |
| DL1NUX | 2026-09-05 01:11:59 | 51.48996 | 9.69283 | 80° | 151km/h | 9522m | -5.1m/s | -41°C | 10.2% | 294hPa | 2.5V | 07:52:17 | 02:53:58 | 00:00:00 | |
| HSKMA3-T | 2026-09-05 01:11:56 | 51.49009 | 9.69406 | 82° | 159km/h | 9512m | -5m/s | -40.9°C | 10.7% | 294.5hPa | 2.5V | 07:52:51 | 02:54:00 | 00:00:00 | |
| DD1CC8 | 2026-09-05 01:11:56 | 51.49009 | 9.69406 | 81° | 157km/h | 9512m | -5.0m/s | -40.9°C | 8.2% | 294.5hPa | 2.4V | 00:00:00 | 00:00:00 | 00:00:00 | |
| SO1NDE-10 | 2026-09-05 01:11:54 | 51.48997 | 9.69282 | 81° | 159km/h | 9522m | -5.1m/s | -40.9°C | 10.2% | 294.0hPa | 2.4V | 00:00:00 | 02:53:58 | 00:00:00 | |
| DL8OAI-8 | 2026-09-05 01:11:51 | 51.48982 | 9.69163 | 79° | 150km/h | 9532m | -5.2m/s | -41.0°C | 8.2% | 293.6hPa | 2.4V | 07:52:00 | 00:00:00 | 00:00:00 | |
| DO9LL-15 | 2026-09-05 01:11:50 | 51.48964 | 9.69045 | 75° | 162km/h | 9543m | -4.9m/s | -41.1°C | 10.3% | 293.1hPa | 2.4V | 00:00:00 | 02:53:54 | 00:00:00 | |
| DL1NUX | 2026-09-05 01:11:49 | 51.48895 | 9.68669 | 75° | 172km/h | 9572m | -4.5m/s | -41.4°C | 10.7% | 291.9hPa | 2.4V | 07:52:27 | 02:53:48 | 00:00:00 | |
| DF8AY | 2026-09-05 01:11:48 | 51.48942 | 9.68925 | 73° | 157km/h | 9553m | -5m/s | -41.2°C | 10.9% | 292.7hPa | 2.5V | 07:52:51 | 02:53:52 | 00:00:00 | |
| HSKMA3-T | 2026-09-05 01:11:46 | 51.48918 | 9.68801 | 74° | 164km/h | 9563m | -5m/s | -41.3°C | 11% | 292.3hPa | 2.5V | 07:52:51 | 02:53:50 | 00:00:00 | |
| DL1ZP-14 | 2026-09-05 01:11:46 | 51.48907 | 9.68736 | 74° | 168km/h | 9568m | -4.8m/s | -41.4°C | 8.6% | 292.1hPa | 2.5V | 00:00:00 | 00:00:00 | 00:00:00 | |
| DF8AY | 2026-09-05 01:11:39 | 51.48847 | 9.68261 | 82° | 166km/h | 9601m | -5.1m/s | -41.7°C | 11.3% | 290.6hPa | 2.5V | 07:52:51 | 02:53:42 | 00:00:00 | |
| DL1NUX | 2026-09-05 01:11:39 | 51.48824 | 9.68005 | 80° | 151km/h | 9621m | -5m/s | -41.9°C | 10.9% | 289.8hPa | 2.5V | 07:52:37 | 02:53:38 | 00:00:00 | |
| HSKMA3-T | 2026-09-05 01:11:35 | 51.48830 | 9.68067 | 82° | 155km/h | 9616m | -4.9m/s | -41.8°C | 11.3% | 290hPa | 2.5V | 07:52:51 | 02:53:39 | 00:00:00 | |
| DL4BBY-15 | 2026-09-05 01:11:32 | 51.48810 | 9.67885 | 78° | 168km/h | 9631m | -4.8m/s | -42.0°C | 0% | 0hPa | 2.5V | 00:00:00 | 00:00:00 | 00:00:00 | |
| DL8OAI-8 | 2026-09-05 01:11:31 | 51.48810 | 9.67885 | 79° | 150km/h | 9631m | -4.8m/s | -41.9°C | 8.6% | 289.4hPa | 2.5V | 07:52:00 | 00:00:00 | 00:00:00 | |
| DL1NUX | 2026-09-05 01:11:29 | 51.48724 | 9.67397 | 73° | 170km/h | 9671m | -5.2m/s | -42.1°C | 10.7% | 287.6hPa | 2.5V | 07:52:47 | 02:53:28 | 00:00:00 | |
| DF8AY | 2026-09-05 01:11:28 | 51.48760 | 9.67587 | 73° | 159km/h | 9656m | -5.2m/s | -42°C | 11% | 288.3hPa | 2.5V | 07:52:51 | 02:53:31 | 00:00:00 | |
| HSKMA3-T | 2026-09-05 01:11:24 | 51.48724 | 9.67397 | 74° | 170km/h | 9671m | -5.2m/s | -42.1°C | 10.9% | 287.6hPa | 2.5V | 07:52:51 | 02:53:28 | 00:00:00 | |
| SO1NDE-10 | 2026-09-05 01:11:24 | 51.48724 | 9.67397 | 74° | 168km/h | 9672m | -5.2m/s | -42.0°C | 10.7% | 287.6hPa | 2.5V | 00:00:00 | 02:53:28 | 00:00:00 | |
| EDDB2-11 | 2026-09-05 01:11:23 | 51.48712 | 9.67330 | 75° | 172km/h | 9676m | -4.8m/s | -42.1°C | 8.6% | 287.4hPa | 2.5V | 00:00:00 | 00:00:00 | 00:00:00 | |
| DL3AQ-11 | 2026-09-05 01:11:22 | 51.48692 | 9.67192 | 78° | 175km/h | 9686m | -4.9m/s | -42.2°C | 8.6% | 287.0hPa | 2.5V | 00:00:00 | 00:00:00 | 00:00:00 | |
| DL4XJ-10 | 2026-09-05 01:11:20 | 51.48684 | 9.67123 | 81° | 173km/h | 9691m | -5.3m/s | 0°C | 0% | 0hPa | 2.5V | 00:00:00 | 00:00:00 | 00:00:00 | |
| DL1NUX | 2026-09-05 01:11:19 | 51.48643 | 9.66734 | 76° | 155km/h | 9721m | -5.3m/s | -42.3°C | 10.5% | 285.6hPa | 2.5V | 07:52:57 | 02:53:18 | 00:00:00 | |
| DF8AY | 2026-09-05 01:11:17 | 51.48664 | 9.66921 | 82° | 161km/h | 9706m | -4.8m/s | -42.3°C | 11% | 286.2hPa | 2.5V | 07:53:42 | 02:53:21 | 00:00:00 | |
| HSKMA3-T | 2026-09-05 01:11:14 | 51.48643 | 9.66734 | 77° | 155km/h | 9721m | -5.3m/s | -42.3°C | 10.9% | 285.6hPa | 2.5V | 07:53:42 | 02:53:18 | 00:00:00 | |
| DL8OAI-8 | 2026-09-05 01:11:10 | 51.48611 | 9.66548 | 74° | 162km/h | 9737m | -5.4m/s | -42.4°C | 8.4% | 284.9hPa | 2.5V | 07:53:00 | 00:00:00 | 00:00:00 | |
| DL1NUX | 2026-09-05 01:11:09 | 51.48529 | 9.66066 | 78° | 181km/h | 9773m | -5.2m/s | -42.6°C | 10.7% | 283.3hPa | 2.5V | 07:53:07 | 02:53:08 | 00:00:00 | |
| DF8AY | 2026-09-05 01:11:07 | 51.48561 | 9.66281 | 75° | 181km/h | 9757m | -5.3m/s | -42.5°C | 11% | 284hPa | 2.4V | 07:53:42 | 02:53:11 | 00:00:00 | |
| HSKMA3-T | 2026-09-05 01:11:03 | 51.48521 | 9.65994 | 80° | 179km/h | 9779m | -5.3m/s | -42.6°C | 11% | 283.1hPa | 2.5V | 07:53:42 | 02:53:07 | 00:00:00 | |
| NBG1-10 | 2026-09-05 01:11:01 | 51.48507 | 9.65856 | 81° | 173km/h | 9789m | -5.0m/s | -42.5°C | 10.7% | 282.7hPa | 2.5V | 07:53:00 | 02:53:05 | 00:00:00 | |
| DL4XJ-10 | 2026-09-05 01:11:00 | 51.48499 | 9.65790 | 81° | 173km/h | 9794m | -4.9m/s | 0°C | 0% | 0hPa | 2.5V | 00:00:00 | 00:00:00 | 00:00:00 | |
| DL1NUX | 2026-09-05 01:10:59 | 51.48439 | 9.65406 | 74° | 173km/h | 9824m | -4.9m/s | -42.8°C | 10.7% | 281.3hPa | 2.5V | 07:53:17 | 02:52:58 | 00:00:00 | |
| DF8AY | 2026-09-05 01:10:57 | 51.48474 | 9.65601 | 75° | 159km/h | 9809m | -4.9m/s | -42.6°C | 11.1% | 281.9hPa | 2.5V | 07:53:42 | 02:53:01 | 00:00:00 | |
| HSKMA3-T | 2026-09-05 01:10:53 | 51.48427 | 9.65338 | 75° | 179km/h | 9829m | -4.8m/s | -42.8°C | 11.1% | 281hPa | 2.5V | 07:53:42 | 02:52:57 | 00:00:00 | |
| EDDB2-11 | 2026-09-05 01:10:53 | 51.48416 | 9.65267 | 76° | 181km/h | 9833m | -4.9m/s | -42.9°C | 8.5% | 280.8hPa | 2.5V | 00:00:00 | 00:00:00 | 00:00:00 | |
| DO9LL-15 | 2026-09-05 01:10:50 | 51.48397 | 9.65123 | 80° | 168km/h | 9844m | -5.3m/s | -42.9°C | 10.9% | 280.3hPa | 2.5V | 07:53:00 | 02:52:54 | 00:00:00 | |
| DL1NUX | 2026-09-05 01:10:49 | 51.48357 | 9.64707 | 82° | 162km/h | 9874m | -5.2m/s | -43.1°C | 11% | 279hPa | 2.5V | 07:53:27 | 02:52:48 | 00:00:00 | |
| DF8AY | 2026-09-05 01:10:46 | 51.48368 | 9.64840 | 82° | 170km/h | 9865m | -5.1m/s | -43.1°C | 11.3% | 279.5hPa | 2.5V | 07:53:42 | 02:52:50 | 00:00:00 | |
| HSKMA3-T | 2026-09-05 01:10:42 | 51.48345 | 9.64579 | 81° | 155km/h | 9885m | -5.5m/s | -43.1°C | 11.4% | 278.6hPa | 2.5V | 07:53:42 | 02:52:46 | 00:00:00 | |
| DK9SH | 2026-09-05 01:10:40 | 51.48338 | 9.64517 | 81° | 155km/h | 9890m | -5.4m/s | -43.2°C | 8.8% | 278.4hPa | 2.5V | 00:00:00 | 00:00:00 | 00:00:00 | |
| DL1NUX | 2026-09-05 01:10:39 | 51.48271 | 9.64060 | 77° | 181km/h | 9926m | -5.3m/s | -43.4°C | 10.8% | 277hPa | 2.5V | 07:53:37 | 02:52:38 | 00:00:00 | |
| DF8AY | 2026-09-05 01:10:36 | 51.48291 | 9.64200 | 76° | 172km/h | 9916m | -5.1m/s | -43.4°C | 11.4% | 277.4hPa | 2.5V | 07:53:42 | 02:52:40 | 00:00:00 | |
| HSKMA3-T | 2026-09-05 01:10:32 | 51.48254 | 9.63917 | 80° | 181km/h | 9937m | -5.5m/s | -43.5°C | 11.2% | 276.5hPa | 2.5V | 07:53:42 | 02:52:36 | 00:00:00 | |
| DF7PN | 2026-09-05 01:10:30 | 51.48240 | 9.63772 | 81° | 179km/h | 9948m | -5.4m/s | -43.4°C | 8.5% | 276.1hPa | 2.4V | 00:00:00 | 00:00:00 | 00:00:00 | |
| DL1NUX | 2026-09-05 01:10:29 | 51.48211 | 9.63364 | 82° | 157km/h | 9979m | -5.2m/s | -43.6°C | 11% | 274.9hPa | 2.4V | 07:53:47 | 02:52:28 | 00:00:00 | |
| DF8AY | 2026-09-05 01:10:25 | 51.48210 | 9.63364 | 82° | 157km/h | 9979m | -5.2m/s | -43.6°C | 11.4% | 274.9hPa | 2.4V | 07:54:33 | 02:52:28 | 00:00:00 | |
| HSKMA3-T | 2026-09-05 01:10:21 | 51.48189 | 9.63177 | 77° | 159km/h | 9994m | -5m/s | -43.8°C | 11.6% | 274.2hPa | 2.5V | 07:54:33 | 02:52:25 | 00:00:00 | |
| DO9LL-15 | 2026-09-05 01:10:20 | 51.48180 | 9.63114 | 77° | 170km/h | 9999m | -5.2m/s | -43.7°C | 11.2% | 273.9hPa | 2.5V | 00:00:00 | 02:52:24 | 00:00:00 | |
| DL1NUX | 2026-09-05 01:10:19 | 51.48122 | 9.62698 | 81° | 181km/h | 10031m | -4.9m/s | -44°C | 11.4% | 272.7hPa | 2.5V | 07:53:57 | 02:52:18 | 00:00:00 | |
| DO2JMG | 2026-09-05 01:10:12 | 51.48111 | 9.62555 | 84° | 173km/h | 10041m | -5.4m/s | 0°C | 0% | 0hPa | 2.5V | 18:12:15 | 02:52:16 | 00:00:00 | |
| HSKMA3-T | 2026-09-05 01:10:11 | 51.48106 | 9.62486 | 84° | 170km/h | 10046m | -5.5m/s | -44.1°C | 11.9% | 272.1hPa | 2.5V | 07:54:33 | 02:52:15 | 00:00:00 | |
| DL1NUX | 2026-09-05 01:10:09 | 51.48056 | 9.62030 | 75° | 172km/h | 10082m | -5.3m/s | -44.4°C | 11.5% | 270.7hPa | 2.5V | 07:54:07 | 02:52:08 | 00:00:00 | |
| DF8AY | 2026-09-05 01:10:01 | 51.48025 | 9.61821 | 77° | 181km/h | 10098m | -5.4m/s | -44.5°C | 12.2% | 270hPa | 2.5V | 07:54:33 | 02:52:05 | 00:00:00 | |
| HSKMA3-T | 2026-09-05 01:10:00 | 51.48015 | 9.61750 | 78° | 183km/h | 10104m | -5.6m/s | -44.5°C | 12.2% | 269.8hPa | 2.5V | 07:54:33 | 02:52:04 | 00:00:00 | |
| DF8AY | 2026-09-05 01:09:50 | 51.47955 | 9.61056 | 82° | 159km/h | 10158m | -5.4m/s | -45°C | 12.4% | 267.6hPa | 2.5V | 07:54:33 | 02:51:54 | 00:00:00 | |
| HSKMA3-T | 2026-09-05 01:09:49 | 51.47949 | 9.60993 | 80° | 159km/h | 10163m | -5.4m/s | -45°C | 12.4% | 267.4hPa | 2.5V | 07:54:33 | 02:51:53 | 00:00:00 | |
| HARRO8 | 2026-09-05 01:09:44 | 51.47904 | 9.60666 | 77° | 175km/h | 10190m | -5.2m/s | -45.2°C | 9.4% | 266.4hPa | 2.5V | 00:00:00 | 00:00:00 | 00:00:00 | |
| DF8AY | 2026-09-05 01:09:39 | 51.47866 | 9.60304 | 84° | 177km/h | 10217m | -5.4m/s | -45.4°C | 12.7% | 265.3hPa | 2.5V | 07:54:33 | 02:51:43 | 00:00:00 | |
| HSKMA3-T | 2026-09-05 01:09:38 | 51.47862 | 9.60234 | 84° | 172km/h | 10222m | -5.3m/s | -45.5°C | 12.7% | 265hPa | 2.5V | 07:54:33 | 02:51:42 | 00:00:00 | |
| DF2AP-13 | 2026-09-05 01:09:36 | 51.47853 | 9.60099 | 84° | 173km/h | 10233m | -5.3m/s | -45.5°C | 12.3% | 264.6hPa | 2.4V | 00:00:00 | 02:51:40 | 00:00:00 | |
| DL3AQ-11 | 2026-09-05 01:09:33 | 51.47828 | 9.59844 | 78° | 159km/h | 10256m | -5.7m/s | -45.7°C | 9.7% | 263.8hPa | 2.5V | 00:00:00 | 00:00:00 | 00:00:00 | |
| DL4XJ-10 | 2026-09-05 01:09:32 | 51.47827 | 9.59844 | 79° | 177km/h | 10256m | -5.6m/s | 0°C | 0% | 0hPa | 2.5V | 00:00:00 | 00:00:00 | 00:00:00 | |
| SONCRA | 2026-09-05 01:09:31 | 51.47810 | 9.59715 | 77° | 166km/h | 10267m | -5.3m/s | -45.8°C | 9.7% | 263.3hPa | 2.5V | 00:00:00 | 00:00:00 | 00:00:00 | |
| DL1NUX | 2026-09-05 01:09:29 | 51.47757 | 9.59282 | 82° | 186km/h | 10299m | -5.9m/s | -45.9°C | 12.4% | 262hPa | 2.5V | 07:54:47 | 02:51:28 | 00:00:00 | |
| DF8AY | 2026-09-05 01:09:28 | 51.47790 | 9.59578 | 77° | 179km/h | 10277m | -5.1m/s | -45.8°C | 12.9% | 262.9hPa | 2.5V | 07:55:24 | 02:51:32 | 00:00:00 | |
| HSKMA3-T | 2026-09-05 01:09:27 | 51.47781 | 9.59505 | 78° | 184km/h | 10282m | -5.4m/s | -45.9°C | 12.9% | 262.7hPa | 2.5V | 07:55:24 | 02:51:31 | 00:00:00 | |
| DF8AY-15 | 2026-09-05 01:09:26 | 51.47772 | 9.59432 | 80° | 181km/h | 10288m | -5.6m/s | 0°C | 0% | 0hPa | 2.5V | 00:00:00 | 02:51:30 | 00:00:00 | |
| SO1NDE-10 | 2026-09-05 01:09:24 | 51.47757 | 9.59282 | 83° | 177km/h | 10299m | -5.9m/s | -45.8°C | 12.4% | 262.0hPa | 2.5V | 07:54:00 | 02:51:28 | 00:00:00 | |
| BUE01 | 2026-09-05 01:09:23 | 51.47742 | 9.59064 | 84° | 173km/h | 10315m | -5.2m/s | -46.0°C | 9.8% | 261.4hPa | 2.5V | 00:00:00 | 00:00:00 | 00:00:00 | |
| DL3AQ-11 | 2026-09-05 01:09:22 | 51.47742 | 9.59064 | 84° | 173km/h | 10315m | -5.2m/s | -46.0°C | 9.8% | 261.4hPa | 2.5V | 00:00:00 | 00:00:00 | 00:00:00 | |
| DD1CC8 | 2026-09-05 01:09:21 | 51.47742 | 9.59064 | 84° | 173km/h | 10315m | -5.2m/s | -46.0°C | 9.8% | 261.4hPa | 2.5V | 00:00:00 | 00:00:00 | 00:00:00 | |
| DL3OBA | 2026-09-05 01:09:20 | 51.47742 | 9.59064 | 86° | 173km/h | 10316m | -5.2m/s | -46.0°C | 9.8% | 261.4hPa | 2.5V | 07:55:00 | 00:00:00 | 00:00:00 | |
| DL1NUX | 2026-09-05 01:09:19 | 51.47697 | 9.58601 | 77° | 173km/h | 10353m | -5.5m/s | -46.2°C | 12.4% | 259.9hPa | 2.5V | 07:54:57 | 02:51:18 | 00:00:00 | |
| DF8AY | 2026-09-05 01:09:18 | 51.47729 | 9.58863 | 82° | 161km/h | 10331m | -5.3m/s | -46.1°C | 12.9% | 260.8hPa | 2.5V | 07:55:24 | 02:51:22 | 00:00:00 | |
| HSKMA3-T | 2026-09-05 01:09:17 | 51.47722 | 9.58798 | 80° | 161km/h | 10337m | -5.4m/s | -46.1°C | 12.9% | 260.6hPa | 2.5V | 07:55:24 | 02:51:21 | 00:00:00 | |
| HARRO8 | 2026-09-05 01:09:13 | 51.47687 | 9.58531 | 77° | 177km/h | 10358m | -5.5m/s | -46.2°C | 9.7% | 259.8hPa | 2.5V | 00:00:00 | 00:00:00 | 00:00:00 | |
| DL1ZP-14 | 2026-09-05 01:09:10 | 51.47659 | 9.58310 | 80° | 190km/h | 10374m | -5.3m/s | -46.3°C | 9.8% | 259.1hPa | 2.5V | 00:00:00 | 00:00:00 | 00:00:00 | |
| DL1NUX | 2026-09-05 01:09:09 | 51.47628 | 9.57866 | 84° | 172km/h | 10407m | -5.1m/s | -46.5°C | 12.4% | 257.9hPa | 2.5V | 07:55:07 | 02:51:08 | 00:00:00 | |
| DF8AY | 2026-09-05 01:09:07 | 51.47641 | 9.58082 | 85° | 186km/h | 10391m | -5.5m/s | -46.4°C | 13.1% | 258.4hPa | 2.4V | 07:55:24 | 02:51:11 | 00:00:00 | |
| HSKMA3-T | 2026-09-05 01:09:06 | 51.47637 | 9.58008 | 85° | 181km/h | 10396m | -5.3m/s | -46.4°C | 13.1% | 258.2hPa | 2.5V | 07:55:24 | 02:51:10 | 00:00:00 | |
| DF8AY-15 | 2026-09-05 01:09:06 | 51.47636 | 9.58008 | 86° | 175km/h | 10397m | -5.3m/s | 0°C | 0% | 0hPa | 2.5V | 00:00:00 | 02:51:10 | 00:00:00 | |
| AU51GT2 | 2026-09-05 01:09:05 | 51.47628 | 9.57866 | 84° | 170km/h | 10407m | -5.1m/s | -46.5°C | 9.7% | 257.9hPa | 2.5V | 00:00:00 | 00:00:00 | 00:00:00 | |
| DL4XJ-10 | 2026-09-05 01:09:04 | 51.47628 | 9.57866 | 85° | 177km/h | 10407m | -5.1m/s | 0°C | 0% | 0hPa | 2.5V | 00:00:00 | 00:00:00 | 00:00:00 | |
| SONCRA | 2026-09-05 01:09:00 | 51.47593 | 9.57531 | 77° | 172km/h | 10433m | -5.7m/s | -46.7°C | 9.8% | 256.9hPa | 2.5V | 00:00:00 | 00:00:00 | 00:00:00 | |
| DL1NUX | 2026-09-05 01:08:59 | 51.47542 | 9.57171 | 78° | 192km/h | 10460m | -5.3m/s | -46.9°C | 12.7% | 255.8hPa | 2.5V | 07:55:17 | 02:50:58 | 00:00:00 | |
| DF8AY | 2026-09-05 01:08:56 | 51.47562 | 9.57320 | 77° | 184km/h | 10450m | -5.5m/s | -46.8°C | 13.3% | 256.2hPa | 2.4V | 07:55:24 | 02:51:00 | 00:00:00 | |
| HSKMA3-T | 2026-09-05 01:08:55 | 51.47551 | 9.57247 | 78° | 188km/h | 10455m | -5.4m/s | -46.9°C | 13.3% | 256hPa | 2.5V | 07:55:24 | 02:50:59 | 00:00:00 | |
| DD1CC8 | 2026-09-05 01:08:50 | 51.47514 | 9.56861 | 84° | 188km/h | 10482m | -5.4m/s | -47.0°C | 9.9% | 254.9hPa | 2.5V | 00:00:00 | 00:00:00 | 00:00:00 | |
| DL1NUX | 2026-09-05 01:08:49 | 51.47481 | 9.56436 | 78° | 170km/h | 10514m | -5.5m/s | -47.3°C | 12.7% | 253.7hPa | 2.5V | 07:55:27 | 02:50:48 | 00:00:00 | |
| DF8AY | 2026-09-05 01:08:46 | 51.47495 | 9.56572 | 82° | 170km/h | 10503m | -5.4m/s | -47.2°C | 13.5% | 254.1hPa | 2.5V | 07:56:15 | 02:50:50 | 00:00:00 | |
| HSKMA3-T | 2026-09-05 01:08:44 | 51.47481 | 9.56436 | 79° | 170km/h | 10514m | -5.5m/s | -47.3°C | 13.4% | 253.7hPa | 2.5V | 07:56:15 | 02:50:48 | 00:00:00 | |
| DL4XJ-10 | 2026-09-05 01:08:44 | 51.47481 | 9.56436 | 79° | 183km/h | 10514m | -5.5m/s | 0°C | 0% | 0hPa | 2.5V | 00:00:00 | 00:00:00 | 00:00:00 | |
| DL1CLM-18 | 2026-09-05 01:08:43 | 51.47481 | 9.56436 | 80° | 170km/h | 10514m | -5.5m/s | -47.3°C | 9.9% | 253.7hPa | 2.5V | 00:00:00 | 00:00:00 | 00:00:00 | |
| DL3AQ-11 | 2026-09-05 01:08:42 | 51.47416 | 9.55921 | 82° | 195km/h | 10552m | -5.3m/s | -47.6°C | 10.1% | 252.3hPa | 2.5V | 00:00:00 | 00:00:00 | 00:00:00 | |
| DL1NUX | 2026-09-05 01:08:39 | 51.47401 | 9.55690 | 85° | 184km/h | 10568m | -5.6m/s | -47.7°C | 12.9% | 251.6hPa | 2.5V | 07:55:37 | 02:50:38 | 00:00:00 | |
| DF8AY | 2026-09-05 01:08:35 | 51.47405 | 9.55766 | 85° | 190km/h | 10563m | -5.5m/s | -47.6°C | 13.5% | 251.8hPa | 2.5V | 07:56:15 | 02:50:39 | 00:00:00 | |
| BIOWL1-15 | 2026-09-05 01:08:34 | 51.47401 | 9.55690 | 85° | 184km/h | 10568m | -5.6m/s | 0°C | 0% | 0hPa | 2.5V | 18:12:15 | 02:50:38 | 00:00:00 | |
| DL1NUX | 2026-09-05 01:08:29 | 51.47323 | 9.54966 | 79° | 197km/h | 10623m | -5.6m/s | -47.9°C | 12.6% | 249.6hPa | 2.5V | 07:55:47 | 02:50:28 | 00:00:00 | |
| DF8AY | 2026-09-05 01:08:24 | 51.47323 | 9.54966 | 79° | 197km/h | 10623m | -5.6m/s | -47.9°C | 13.2% | 249.6hPa | 2.5V | 07:56:15 | 02:50:28 | 00:00:00 | |
| DO2JMG | 2026-09-05 01:08:23 | 51.47314 | 9.54888 | 81° | 197km/h | 10628m | -5.4m/s | 0°C | 0% | 0hPa | 2.5V | 18:12:15 | 02:50:27 | 00:00:00 | |
| DL1NUX | 2026-09-05 01:08:19 | 51.47263 | 9.54235 | 78° | 173km/h | 10677m | -5.5m/s | -48.2°C | 12.6% | 247.5hPa | 2.5V | 07:55:57 | 02:50:18 | 00:00:00 | |
| HSKMA3-T | 2026-09-05 01:08:12 | 51.47244 | 9.54093 | 77° | 184km/h | 10688m | -5.3m/s | -48.3°C | 13.1% | 247.2hPa | 2.4V | 07:56:15 | 02:50:16 | 00:00:00 | |
| HARRO8 | 2026-09-05 01:08:11 | 51.47233 | 9.54019 | 77° | 188km/h | 10693m | -5.4m/s | -48.4°C | 9.6% | 247.0hPa | 2.5V | 00:00:00 | 00:00:00 | 00:00:00 | |
| DL1NUX | 2026-09-05 01:08:09 | 51.47181 | 9.53470 | 85° | 190km/h | 10732m | -5.3m/s | -48.6°C | 12.7% | 245.5hPa | 2.5V | 07:56:07 | 02:50:08 | 00:00:00 | |
| HSKMA3-T | 2026-09-05 01:08:01 | 51.47169 | 9.53252 | 84° | 173km/h | 10748m | -5.5m/s | -48.7°C | 13.2% | 244.9hPa | 2.5V | 07:56:15 | 02:50:05 | 00:00:00 | |
| DJTTGO | 2026-09-05 01:08:00 | 51.47169 | 9.53252 | 85° | 173km/h | 10748m | -5.5m/s | -48.7°C | 9.7% | 245.0hPa | 2.5V | 00:00:00 | 00:00:00 | 00:00:00 | |
| DL1NUX | 2026-09-05 01:07:59 | 51.47110 | 9.52755 | 78° | 193km/h | 10786m | -5.2m/s | -49°C | 12.8% | 243.5hPa | 2.5V | 07:56:17 | 02:49:58 | 00:00:00 | |
| DF8AY | 2026-09-05 01:07:51 | 51.47087 | 9.52520 | 84° | 195km/h | 10802m | -5.4m/s | -49.1°C | 13.5% | 242.9hPa | 2.5V | 07:57:06 | 02:49:55 | 00:00:00 | |
| HSKMA3-T | 2026-09-05 01:07:50 | 51.47082 | 9.52442 | 85° | 192km/h | 10808m | -5.2m/s | -49.1°C | 13.5% | 242.7hPa | 2.5V | 07:57:06 | 02:49:54 | 00:00:00 | |
| DL1NUX | 2026-09-05 01:07:49 | 51.47055 | 9.52014 | 81° | 170km/h | 10840m | -5.7m/s | -49.3°C | 13.2% | 241.5hPa | 2.5V | 07:56:27 | 02:49:48 | 00:00:00 | |
| DD1CC8 | 2026-09-05 01:07:48 | 51.47074 | 9.52292 | 85° | 179km/h | 10818m | -5.2m/s | -49.2°C | 10.1% | 242.4hPa | 2.5V | 00:00:00 | 00:00:00 | 00:00:00 | |
| EDDB2-11 | 2026-09-05 01:07:47 | 51.47061 | 9.52082 | 82° | 170km/h | 10834m | -5.5m/s | -49.3°C | 10.1% | 241.7hPa | 2.5V | 00:00:00 | 00:00:00 | 00:00:00 | |
| DF8AY | 2026-09-05 01:07:41 | 51.47031 | 9.51804 | 78° | 183km/h | 10856m | -5.1m/s | -49.4°C | 13.9% | 0hPa | 2.5V | 07:57:06 | 02:49:45 | 00:00:00 | |
| HSKMA3-T | 2026-09-05 01:07:40 | 51.47021 | 9.51731 | 78° | 190km/h | 10861m | -5.3m/s | -49.5°C | 13.9% | 240.7hPa | 2.4V | 07:57:06 | 02:49:44 | 00:00:00 | |
| HARRO8 | 2026-09-05 01:07:40 | 51.47021 | 9.51731 | 78° | 188km/h | 10861m | -5.3m/s | -49.5°C | 10.2% | 240.7hPa | 2.5V | 00:00:00 | 00:00:00 | 00:00:00 | |
| DL1NUX | 2026-09-05 01:07:39 | 51.46981 | 9.51257 | 85° | 193km/h | 10894m | -5.4m/s | -49.7°C | 13.6% | 239.5hPa | 2.5V | 07:56:37 | 02:49:38 | 00:00:00 | |
| BIOWL1-15 | 2026-09-05 01:07:33 | 51.46977 | 9.51180 | 86° | 188km/h | 10900m | -5.5m/s | 0°C | 0% | 0hPa | 2.5V | 18:12:15 | 02:49:37 | 00:00:00 | |
| DF8AY | 2026-09-05 01:07:31 | 51.46970 | 9.51034 | 84° | 177km/h | 10910m | -5m/s | -49.8°C | 14.2% | 0hPa | 2.5V | 07:57:06 | 02:49:35 | 00:00:00 | |
| HSKMA3-T | 2026-09-05 01:07:30 | 51.46964 | 9.50963 | 82° | 175km/h | 10915m | -5.1m/s | -49.9°C | 14.3% | 238.8hPa | 2.5V | 07:57:06 | 02:49:34 | 00:00:00 | |
| DL1NUX | 2026-09-05 01:07:29 | 51.46909 | 9.50520 | 79° | 201km/h | 10948m | -5.5m/s | -50.1°C | 13.9% | 237.5hPa | 2.5V | 07:56:47 | 02:49:28 | 00:00:00 | |
| DF8AY | 2026-09-05 01:07:20 | 51.46880 | 9.50198 | 84° | 197km/h | 10971m | -5.1m/s | -50.3°C | 14.7% | 0hPa | 2.5V | 07:57:06 | 02:49:24 | 00:00:00 | |
| DL1NUX | 2026-09-05 01:07:19 | 51.46847 | 9.49759 | 79° | 175km/h | 11004m | -5.5m/s | -50.6°C | 14.2% | 235.6hPa | 2.5V | 07:56:57 | 02:49:18 | 00:00:00 | |
| HSKMA3-T | 2026-09-05 01:07:19 | 51.46875 | 9.50120 | 85° | 190km/h | 10976m | -5.3m/s | -50.4°C | 14.7% | 236.6hPa | 2.5V | 07:57:06 | 02:49:23 | 00:00:00 | |
| DF8AY | 2026-09-05 01:07:10 | 51.46806 | 9.49469 | 77° | 192km/h | 11026m | -5.5m/s | -50.8°C | 14.9% | 0hPa | 2.5V | 07:57:06 | 02:49:14 | 00:00:00 | |
| HARRO8 | 2026-09-05 01:07:09 | 51.46795 | 9.49392 | 77° | 195km/h | 11032m | -5.7m/s | -50.8°C | 10.8% | 234.6hPa | 2.5V | 00:00:00 | 00:00:00 | 00:00:00 | |
| HSKMA3-T | 2026-09-05 01:07:09 | 51.46795 | 9.49392 | 78° | 197km/h | 11032m | -5.7m/s | -50.8°C | 14.8% | 234.6hPa | 2.5V | 07:57:06 | 02:49:13 | 00:00:00 | |
| DL4XJ-10 | 2026-09-05 01:07:07 | 51.46775 | 9.49234 | 81° | 193km/h | 11044m | -5.6m/s | 0°C | 0% | 0hPa | 2.5V | 00:00:00 | 00:00:00 | 00:00:00 | |
| DL3AQ-11 | 2026-09-05 01:07:06 | 51.46761 | 9.49074 | 83° | 197km/h | 11054m | -5.1m/s | -50.9°C | 11.0% | 233.8hPa | 2.5V | 00:00:00 | 00:00:00 | 00:00:00 | |
| DK9SH | 2026-09-05 01:07:04 | 51.46760 | 9.49074 | 84° | 197km/h | 11054m | -5.1m/s | -50.9°C | 11.0% | 233.8hPa | 2.5V | 07:57:00 | 00:00:00 | 00:00:00 | |
| NBG1-10 | 2026-09-05 01:07:03 | 51.46751 | 9.48919 | 86° | 193km/h | 11065m | -5.7m/s | -50.9°C | 14.6% | 233.3hPa | 2.5V | 00:00:00 | 02:49:07 | 00:00:00 | |
| DL8OAI-8 | 2026-09-05 01:07:02 | 51.46751 | 9.48919 | 86° | 188km/h | 11065m | -5.7m/s | -50.9°C | 11.2% | 233.4hPa | 2.5V | 07:57:00 | 00:00:00 | 00:00:00 | |
| AU51GT2 | 2026-09-05 01:07:01 | 51.46739 | 9.48700 | 83° | 175km/h | 11082m | -5.3m/s | -51.1°C | 11.4% | 232.8hPa | 2.5V | 00:00:00 | 00:00:00 | 00:00:00 | |
| DL1NUX | 2026-09-05 01:06:59 | 51.46689 | 9.48270 | 78° | 193km/h | 11114m | -5.2m/s | -51.3°C | 15% | 231.7hPa | 2.5V | 07:57:17 | 02:48:58 | 00:00:00 | |
| HSKMA3-T | 2026-09-05 01:06:59 | 51.46734 | 9.48629 | 82° | 173km/h | 11087m | -5.3m/s | -51.1°C | 15.5% | 232.6hPa | 2.5V | 07:57:57 | 02:49:03 | 00:00:00 | |
| SONCRA | 2026-09-05 01:06:56 | 51.46700 | 9.48345 | 77° | 188km/h | 11108m | -5.3m/s | -51.3°C | 11.4% | 231.9hPa | 2.5V | 00:00:00 | 00:00:00 | 00:00:00 | |
| DL3AQ-11 | 2026-09-05 01:06:53 | 51.46670 | 9.48112 | 80° | 201km/h | 11125m | -5.4m/s | -51.3°C | 11.6% | 231.3hPa | 2.5V | 00:00:00 | 00:00:00 | 00:00:00 | |
| DL4BBY-15 | 2026-09-05 01:06:52 | 51.46670 | 9.48112 | 81° | 201km/h | 11124m | -5.3m/s | -51.4°C | 0% | 0hPa | 2.5V | 00:00:00 | 00:00:00 | 00:00:00 | |
| DL1NUX | 2026-09-05 01:06:49 | 51.46628 | 9.47490 | 82° | 175km/h | 11170m | -5.2m/s | -51.6°C | 15.4% | 229.7hPa | 2.5V | 07:57:27 | 02:48:48 | 00:00:00 | |
| BIOWL1-15 | 2026-09-05 01:06:49 | 51.46637 | 9.47636 | 85° | 186km/h | 11159m | -5.2m/s | 0°C | 0% | 0hPa | 2.5V | 18:12:15 | 02:48:50 | 00:00:00 | |
| HSKMA3-T | 2026-09-05 01:06:48 | 51.46645 | 9.47790 | 85° | 197km/h | 11148m | -5.6m/s | -51.4°C | 16% | 230.5hPa | 2.5V | 07:57:57 | 02:48:52 | 00:00:00 | |
| DD1CC8 | 2026-09-05 01:06:46 | 51.46637 | 9.47636 | 85° | 186km/h | 11159m | -5.2m/s | -51.5°C | 11.8% | 230.1hPa | 2.5V | 00:00:00 | 00:00:00 | 00:00:00 | |
| DF8AY | 2026-09-05 01:06:42 | 51.46614 | 9.47350 | 79° | 177km/h | 11181m | -5.3m/s | -51.7°C | 16.5% | 0hPa | 2.5V | 07:57:57 | 02:48:46 | 00:00:00 | |
| DO9LL-15 | 2026-09-05 01:06:42 | 51.46614 | 9.47349 | 80° | 192km/h | 11181m | -5.2m/s | -51.6°C | 15.7% | 229.3hPa | 2.5V | 00:00:00 | 02:48:46 | 00:00:00 | |
| BIOWL7-15 | 2026-09-05 01:06:41 | 51.46614 | 9.47349 | 80° | 177km/h | 11181m | -5.3m/s | 0°C | 0% | 0hPa | 2.5V | 00:00:00 | 00:00:00 | 00:00:00 | |
| DK9SH | 2026-09-05 01:06:40 | 51.46605 | 9.47279 | 79° | 181km/h | 11186m | -5.5m/s | -51.7°C | 12.1% | 229.2hPa | 2.5V | 00:00:00 | 00:00:00 | 00:00:00 | |
| DL1NUX | 2026-09-05 01:06:39 | 51.46544 | 9.46732 | 84° | 199km/h | 11225m | -5.4m/s | -52°C | 16.4% | 227.8hPa | 2.5V | 07:57:37 | 02:48:38 | 00:00:00 | |
| HSKMA3-T | 2026-09-05 01:06:37 | 51.46564 | 9.46974 | 80° | 201km/h | 11208m | -5.2m/s | -51.9°C | 16.9% | 228.4hPa | 2.5V | 07:57:57 | 02:48:41 | 00:00:00 | |
| DF8AY | 2026-09-05 01:06:31 | 51.46533 | 9.46498 | 86° | 186km/h | 11242m | -5.4m/s | -52.1°C | 17.5% | 0hPa | 2.5V | 07:57:57 | 02:48:35 | 00:00:00 | |
| BIOWL9-15 | 2026-09-05 01:06:31 | 51.46525 | 9.46351 | 84° | 179km/h | 11254m | -5.6m/s | 0°C | -1.0% | 226.9hPa | 2.5V | 00:00:00 | 00:00:00 | 00:00:00 | |
| AU51GT2 | 2026-09-05 01:06:30 | 51.46525 | 9.46351 | 84° | 179km/h | 11254m | -5.6m/s | -52.2°C | 13.0% | 226.9hPa | 2.5V | 00:00:00 | 00:00:00 | 00:00:00 | |
| DL1NUX | 2026-09-05 01:06:29 | 51.46487 | 9.45983 | 79° | 197km/h | 11281m | -5.4m/s | -52.4°C | 17.2% | 226hPa | 2.5V | 07:57:47 | 02:48:28 | 00:00:00 | |
| BIOWL1-15 | 2026-09-05 01:06:27 | 51.46514 | 9.46207 | 81° | 179km/h | 11265m | -5m/s | 0°C | 0% | 0hPa | 2.5V | 18:12:15 | 02:48:31 | 00:00:00 | |
| DF8AY | 2026-09-05 01:06:20 | 51.46459 | 9.45659 | 85° | 201km/h | 11304m | -5.9m/s | 0°C | 0% | 0hPa | 2.5V | 07:57:57 | 02:48:24 | 00:00:00 | |
| DL1NUX | 2026-09-05 01:06:19 | 51.46433 | 9.45206 | 81° | 179km/h | 11336m | -5.3m/s | -52.8°C | 17.7% | 224.1hPa | 2.5V | 07:57:57 | 02:48:18 | 00:00:00 | |
| BIOWL1-15 | 2026-09-05 01:06:17 | 51.46448 | 9.45424 | 86° | 184km/h | 11321m | -4.9m/s | 0°C | 0% | 0hPa | 2.5V | 18:12:15 | 02:48:21 | 00:00:00 | |
| DF8AY | 2026-09-05 01:06:09 | 51.46389 | 9.44830 | 80° | 203km/h | 11362m | -4.9m/s | 0°C | 0% | 0hPa | 2.5V | 18:12:15 | 02:48:13 | 00:00:00 | |
| DL1NUX | 2026-09-05 01:06:09 | 51.46360 | 9.44416 | 87° | 201km/h | 11389m | -5m/s | -53.2°C | 18.4% | 222.2hPa | 2.5V | 07:58:07 | 02:48:08 | 00:00:00 | |
| BIOWL1-15 | 2026-09-05 01:06:06 | 51.46358 | 9.44336 | 88° | 195km/h | 11394m | -5.6m/s | 0°C | 0% | 0hPa | 2.5V | 18:12:15 | 02:48:07 | 00:00:00 | |
| HSKMA3-T | 2026-09-05 01:06:06 | 51.46367 | 9.44582 | 84° | 206km/h | 11378m | -4.9m/s | -53.1°C | 19.2% | 222.6hPa | 2.5V | 07:58:48 | 02:48:10 | 00:00:00 | |
| DF2AP-13 | 2026-09-05 01:06:06 | 51.46367 | 9.44582 | 85° | 197km/h | 11378m | -4.8m/s | -53.1°C | 18.3% | 222.5hPa | 2.5V | 00:00:00 | 02:48:10 | 00:00:00 | |
| EDDB2-12 | 2026-09-05 01:06:04 | 51.46360 | 9.44416 | 87° | 201km/h | 11389m | -5.0m/s | -53.2°C | 14.3% | 222.2hPa | 2.5V | 00:00:00 | 00:00:00 | 00:00:00 | |
| DL8OAI-8 | 2026-09-05 01:06:01 | 51.46356 | 9.44259 | 89° | 188km/h | 11400m | -5.7m/s | -53.3°C | 14.5% | 221.9hPa | 2.5V | 07:58:00 | 00:00:00 | 00:00:00 | |
| BIOWL9-15 | 2026-09-05 01:06:00 | 51.46346 | 9.44036 | 83° | 183km/h | 11417m | -4.9m/s | 0°C | -1.0% | -1.0hPa | 2.5V | 00:00:00 | 00:00:00 | 00:00:00 | |
| DL1NUX | 2026-09-05 01:05:59 | 51.46308 | 9.43645 | 82° | 210km/h | 11442m | -5.2m/s | -53.6°C | 19% | 220.5hPa | 2.5V | 07:58:17 | 02:47:58 | 00:00:00 | |
| HSKMA3-T | 2026-09-05 01:05:56 | 51.46324 | 9.43809 | 80° | 197km/h | 11432m | -4.6m/s | -53.5°C | 19.9% | 220.8hPa | 2.5V | 07:58:48 | 02:48:00 | 00:00:00 | |
| BIOWL1-15 | 2026-09-05 01:05:55 | 51.46315 | 9.43728 | 81° | 204km/h | 11437m | -4.8m/s | 0°C | 0% | 0hPa | 2.5V | 18:12:15 | 02:47:59 | 00:00:00 | |
| SONCRA | 2026-09-05 01:05:53 | 51.46302 | 9.43560 | 84° | 212km/h | 11448m | -5.3m/s | -53.6°C | 14.7% | 220.3hPa | 2.5V | 00:00:00 | 00:00:00 | 00:00:00 | |
| DF7PN | 2026-09-05 01:05:51 | 51.46290 | 9.43305 | 87° | 204km/h | 11464m | -5.3m/s | -53.7°C | 14.9% | 219.6hPa | 2.5V | 00:00:00 | 00:00:00 | 00:00:00 | |
| DL1NUX | 2026-09-05 01:05:49 | 51.46274 | 9.42842 | 83° | 183km/h | 11495m | -5.5m/s | -53.9°C | 19.4% | 218.6hPa | 2.5V | 07:58:27 | 02:47:48 | 00:00:00 | |
| HSKMA3-T | 2026-09-05 01:05:46 | 51.46283 | 9.42990 | 86° | 184km/h | 11485m | -4.5m/s | -53.9°C | 20.2% | 218.9hPa | 2.5V | 07:58:48 | 02:47:50 | 00:00:00 | |
| DL3AQ-11 | 2026-09-05 01:05:45 | 51.46279 | 9.42916 | 84° | 183km/h | 11489m | -5.0m/s | -53.9°C | 15.0% | 218.8hPa | 2.5V | 00:00:00 | 00:00:00 | 00:00:00 | |
| DD1CC8 | 2026-09-05 01:05:44 | 51.46274 | 9.42842 | 83° | 183km/h | 11495m | -5.5m/s | -53.9°C | 15.0% | 218.6hPa | 2.5V | 00:00:00 | 00:00:00 | 00:00:00 | |
| DL4BBY-15 | 2026-09-05 01:05:43 | 51.46268 | 9.42767 | 82° | 150km/h | 11500m | -5.2m/s | -54.1°C | 0% | 0hPa | 2.5V | 00:00:00 | 00:00:00 | 00:00:00 | |
| EDDB2-11 | 2026-09-05 01:05:42 | 51.46253 | 9.42613 | 81° | 195km/h | 11511m | -5.7m/s | -54.1°C | 15.1% | 218.0hPa | 2.5V | 00:00:00 | 00:00:00 | 00:00:00 | |
| DO9LL-15 | 2026-09-05 01:05:41 | 51.46253 | 9.42613 | 82° | 199km/h | 11511m | -5.6m/s | -54.0°C | 19.5% | 218.0hPa | 2.5V | 00:00:00 | 02:47:45 | 00:00:00 | |
| DL1NUX | 2026-09-05 01:05:39 | 51.46219 | 9.42026 | 88° | 208km/h | 11550m | -5.6m/s | -54.3°C | 19.6% | 216.7hPa | 2.5V | 07:58:37 | 02:47:38 | 00:00:00 | |
| HSKMA3-T | 2026-09-05 01:05:35 | 51.46221 | 9.42110 | 87° | 210km/h | 11545m | -5.6m/s | -54.3°C | 20.2% | 216.9hPa | 2.5V | 07:58:48 | 02:47:39 | 00:00:00 | |
| DL3AQ-11 | 2026-09-05 01:05:33 | 51.46218 | 9.41862 | 90° | 197km/h | 11562m | -5.2m/s | -54.4°C | 15.2% | 216.4hPa | 2.4V | 00:00:00 | 00:00:00 | 00:00:00 | |
| DL1NUX | 2026-09-05 01:05:29 | 51.46186 | 9.41245 | 82° | 204km/h | 11604m | -5.3m/s | -54.7°C | 19.9% | 214.9hPa | 2.4V | 07:58:47 | 02:47:28 | 00:00:00 | |
| HSKMA3-T | 2026-09-05 01:05:25 | 51.46193 | 9.41326 | 82° | 197km/h | 11599m | -4.9m/s | -54.7°C | 20.2% | 215.1hPa | 2.5V | 07:58:48 | 02:47:29 | 00:00:00 | |
| DB0DAN | 2026-09-05 01:05:25 | 51.46193 | 9.41326 | 82° | 188km/h | 11599m | -4.9m/s | 0°C | 0% | 0hPa | 2.5V | 00:00:00 | 00:00:00 | 00:00:00 | |
| SO1NDE-10 | 2026-09-05 01:05:24 | 51.46186 | 9.41245 | 83° | 195km/h | 11604m | -5.2m/s | -54.6°C | 19.9% | 214.9hPa | 2.4V | 07:58:00 | 02:47:28 | 00:00:00 | |
| DL3AQ-11 | 2026-09-05 01:05:22 | 51.46169 | 9.40993 | 85° | 210km/h | 11621m | -5.4m/s | -54.8°C | 15.2% | 214.4hPa | 2.5V | 00:00:00 | 00:00:00 | 00:00:00 | |
| DF7PN | 2026-09-05 01:05:20 | 51.46165 | 9.40822 | 89° | 210km/h | 11632m | -5.1m/s | -54.8°C | 15.2% | 214.1hPa | 2.5V | 00:00:00 | 00:00:00 | 00:00:00 | |
| DL1NUX | 2026-09-05 01:05:19 | 51.46170 | 9.40420 | 90° | 186km/h | 11661m | -5.3m/s | -55°C | 20.3% | 213.1hPa | 2.5V | 07:58:57 | 02:47:18 | 00:00:00 | |
| BIOWL1-15 | 2026-09-05 01:05:19 | 51.46165 | 9.40822 | 90° | 210km/h | 11632m | -5.1m/s | 0°C | 0% | 0hPa | 2.5V | 18:12:15 | 02:47:23 | 00:00:00 | |
| HSKMA3-T | 2026-09-05 01:05:14 | 51.46170 | 9.40420 | 91° | 186km/h | 11661m | -5.3m/s | -55°C | 19.8% | 213.1hPa | 2.5V | 07:59:39 | 02:47:18 | 00:00:00 | |
| DD1CC8 | 2026-09-05 01:05:13 | 51.46168 | 9.40271 | 87° | 183km/h | 11671m | -4.8m/s | -55.1°C | 15.7% | 212.7hPa | 2.5V | 00:00:00 | 00:00:00 | 00:00:00 | |
| EDDB2-11 | 2026-09-05 01:05:10 | 51.46161 | 9.40119 | 85° | 192km/h | 11682m | -5.5m/s | -55.2°C | 15.7% | 212.4hPa | 2.5V | 00:00:00 | 00:00:00 | 00:00:00 | |
| DL1NUX | 2026-09-05 01:05:09 | 51.46148 | 9.39625 | 91° | 204km/h | 11715m | -5.6m/s | -54.8°C | 19.1% | 211.3hPa | 2.5V | 07:59:07 | 02:47:08 | 00:00:00 | |
| HSKMA3-T | 2026-09-05 01:05:04 | 51.46148 | 9.39625 | 91° | 204km/h | 11715m | -5.6m/s | -54.8°C | 18.9% | 211.3hPa | 2.5V | 07:59:39 | 02:47:08 | 00:00:00 | |
| AM1SDL-15 | 2026-09-05 01:05:04 | 51.46147 | 9.39625 | 92° | 188km/h | 11715m | -5.6m/s | 0°C | 0% | 0hPa | 2.5V | 00:00:00 | 02:47:08 | 00:00:00 | |
| DL1ZP-14 | 2026-09-05 01:05:02 | 51.46157 | 9.38789 | 87° | 190km/h | 11776m | -5.2m/s | -54.0°C | 13.5% | 209.3hPa | 2.5V | 00:00:00 | 00:00:00 | 00:00:00 | |
| DO9LL-15 | 2026-09-05 01:05:01 | 51.46155 | 9.39380 | 95° | 175km/h | 11732m | -5.3m/s | -54.3°C | 18.3% | 210.7hPa | 2.6V | 00:00:00 | 02:47:05 | 00:00:00 | |
| DL8OAI-8 | 2026-09-05 01:05:00 | 51.46155 | 9.39380 | 95° | 192km/h | 11732m | -5.3m/s | -54.3°C | 14.0% | 210.8hPa | 2.6V | 07:59:00 | 00:00:00 | 00:00:00 | |
| DL1NUX | 2026-09-05 01:04:59 | 51.46159 | 9.38866 | 86° | 186km/h | 11770m | -5.3m/s | -54°C | 17.9% | 209.5hPa | 2.6V | 07:59:17 | 02:46:58 | 00:00:00 | |
| AU51GT2 | 2026-09-05 01:04:56 | 51.46164 | 9.39013 | 88° | 177km/h | 11759m | -5.8m/s | -54.2°C | 13.8% | 209.8hPa | 2.5V | 00:00:00 | 00:00:00 | 00:00:00 | |
| DB0DAN | 2026-09-05 01:04:55 | 51.46162 | 9.38940 | 87° | 172km/h | 11765m | -5.4m/s | 0°C | 0% | 0hPa | 2.5V | 00:00:00 | 00:00:00 | 00:00:00 | |
| HSKMA3-T | 2026-09-05 01:04:54 | 51.46159 | 9.38866 | 87° | 186km/h | 11770m | -5.3m/s | -54°C | 18.4% | 209.5hPa | 2.6V | 07:59:39 | 02:46:58 | 00:00:00 | |
| DL3AQ-11 | 2026-09-05 01:04:53 | 51.46155 | 9.38711 | 89° | 195km/h | 11781m | -5.5m/s | -54.0°C | 13.5% | 209.2hPa | 2.5V | 00:00:00 | 00:00:00 | 00:00:00 | |
| SONDE2-11 | 2026-09-05 01:04:51 | 51.46179 | 9.38089 | 93° | 173km/h | 11826m | -5.6m/s | -54.4°C | 13.6% | 207.7hPa | 2.5V | 00:00:00 | 00:00:00 | 00:00:00 | |
| DL1NUX | 2026-09-05 01:04:49 | 51.46179 | 9.38089 | 93° | 175km/h | 11826m | -5.6m/s | -54.4°C | 17.9% | 207.7hPa | 2.5V | 07:59:27 | 02:46:48 | 00:00:00 | |
| HSKMA3-T | 2026-09-05 01:04:43 | 51.46181 | 9.38019 | 91° | 172km/h | 11832m | -5m/s | -54.4°C | 18.6% | 207.5hPa | 2.6V | 07:59:39 | 02:46:47 | 00:00:00 | |
| DL3AQ-11 | 2026-09-05 01:04:42 | 51.46179 | 9.37877 | 87° | 183km/h | 11842m | -5.3m/s | -54.5°C | 13.6% | 207.2hPa | 2.5V | 00:00:00 | 00:00:00 | 00:00:00 | |
| AM1SDL-15 | 2026-09-05 01:04:40 | 51.46177 | 9.37802 | 88° | 188km/h | 11848m | -5.6m/s | 0°C | 0% | 0hPa | 2.5V | 00:00:00 | 02:46:44 | 00:00:00 | |
| DL1NUX | 2026-09-05 01:04:39 | 51.46186 | 9.37323 | 96° | 197km/h | 11882m | -5.8m/s | -54.8°C | 17.8% | 205.9hPa | 2.5V | 07:59:37 | 02:46:38 | 00:00:00 | |
| HSKMA3-T | 2026-09-05 01:04:32 | 51.46198 | 9.37171 | 97° | 184km/h | 11894m | -5.5m/s | -54.9°C | 18.2% | 205.5hPa | 2.5V | 07:59:39 | 02:46:36 | 00:00:00 | |
| DL1ZP-14 | 2026-09-05 01:04:31 | 51.46208 | 9.37026 | 94° | 175km/h | 11906m | -5.2m/s | -55.0°C | 13.8% | 205.1hPa | 2.5V | 00:00:00 | 00:00:00 | 00:00:00 | |
| DL1NUX | 2026-09-05 01:04:29 | 51.46212 | 9.36592 | 91° | 192km/h | 11939m | -5.9m/s | -55.3°C | 18.3% | 204.1hPa | 2.4V | 07:59:47 | 02:46:28 | 00:00:00 | |
| BIOWL1-15 | 2026-09-05 01:04:26 | 51.46227 | 9.36275 | 98° | 197km/h | 11964m | -5.7m/s | 0°C | 0% | 0hPa | 2.5V | 18:12:15 | 02:46:24 | 00:00:00 | |
| HSKMA3-T | 2026-09-05 01:04:22 | 51.46216 | 9.36435 | 95° | 197km/h | 11951m | -5.6m/s | -55.3°C | 17.8% | 203.7hPa | 2.5V | 08:00:30 | 02:46:26 | 00:00:00 | |
| SONDE2-11 | 2026-09-05 01:04:20 | 51.46234 | 9.36198 | 99° | 190km/h | 11970m | -5.9m/s | -55.3°C | -1.0% | -1.0hPa | 2.5V | 00:00:00 | 00:00:00 | 00:00:00 | |
| DL1NUX | 2026-09-05 01:04:19 | 51.46275 | 9.35833 | 98° | 166km/h | 12001m | -4.9m/s | -55.3°C | 17.2% | 202.2hPa | 2.5V | 07:59:57 | 02:46:18 | 00:00:00 | |
| HSKMA3-T | 2026-09-05 01:04:12 | 51.46284 | 9.35699 | 94° | 166km/h | 12011m | -5.1m/s | -55.3°C | 16.8% | 201.9hPa | 2.5V | 08:00:30 | 02:46:16 | 00:00:00 | |
| DO2JMG | 2026-09-05 01:04:10 | 51.46287 | 9.35559 | 91° | 179km/h | 12023m | -5.5m/s | 0°C | 0% | 0hPa | 2.5V | 18:12:15 | 02:46:14 | 00:00:00 | |
| DL1NUX | 2026-09-05 01:04:09 | 51.46311 | 9.35113 | 99° | 183km/h | 12059m | -5m/s | -55.3°C | 17% | 200.4hPa | 2.5V | 08:00:07 | 02:46:08 | 00:00:00 | |
| HSKMA3-T | 2026-09-05 01:04:01 | 51.46336 | 9.34907 | 100° | 162km/h | 12075m | -5.7m/s | -55.3°C | 15.8% | 199.8hPa | 2.5V | 08:00:30 | 02:46:05 | 00:00:00 | |
| HSKMA3-T | 2026-09-05 01:03:51 | 51.46364 | 9.34257 | 92° | 175km/h | 12131m | -5.5m/s | -55.1°C | 14.4% | 198hPa | 2.5V | 08:00:30 | 02:45:55 | 00:00:00 | |
| DL1NUX | 2026-09-05 01:03:49 | 51.46390 | 9.33792 | 92° | 144km/h | 12168m | -4.4m/s | -54.5°C | 13.5% | 196.9hPa | 2.5V | 08:00:27 | 02:45:48 | 00:00:00 | |
| SONDE2-11 | 2026-09-05 01:03:49 | 51.46374 | 9.34045 | 96° | 170km/h | 12148m | -5.5m/s | -54.8°C | -1.0% | -1.0hPa | 2.5V | 00:00:00 | 00:00:00 | 00:00:00 | |
| DF7PN | 2026-09-05 01:03:46 | 51.46384 | 9.33913 | 96° | 155km/h | 12159m | -3.9m/s | -54.5°C | 9.8% | 197.2hPa | 2.5V | 00:00:00 | 00:00:00 | 00:00:00 | |
| DL3AQ-11 | 2026-09-05 01:03:45 | 51.46388 | 9.33852 | 95° | 148km/h | 12164m | -4.4m/s | -54.5°C | 9.7% | 197.1hPa | 2.5V | 00:00:00 | 00:00:00 | 00:00:00 | |
| SONCRA | 2026-09-05 01:03:44 | 51.46390 | 9.33792 | 92° | 144km/h | 12168m | -4.4m/s | -54.6°C | 9.7% | 196.9hPa | 2.5V | 00:00:00 | 00:00:00 | 00:00:00 | |
| HSKMA3-T | 2026-09-05 01:03:40 | 51.46386 | 9.33548 | 87° | 157km/h | 12188m | -4.8m/s | -54.9°C | 13.5% | 196.2hPa | 2.5V | 08:01:21 | 02:45:44 | 00:00:00 | |
| DD1CC8 | 2026-09-05 01:03:40 | 51.46384 | 9.33483 | 88° | 164km/h | 12193m | -5.6m/s | -54.9°C | 10.0% | 196.1hPa | 2.4V | 00:00:00 | 00:00:00 | 00:00:00 | |
| DL1NUX | 2026-09-05 01:03:39 | 51.46398 | 9.33148 | 98° | 161km/h | 12218m | -6.2m/s | -55°C | 13.1% | 195.3hPa | 2.4V | 08:00:37 | 02:45:38 | 00:00:00 | |
| BIOWL1-15 | 2026-09-05 01:03:38 | 51.46384 | 9.33416 | 90° | 164km/h | 12198m | -4.1m/s | 0°C | 0% | 0hPa | 2.5V | 18:12:15 | 02:45:42 | 00:00:00 | |
| HSKMA3-T | 2026-09-05 01:03:29 | 51.46424 | 9.32844 | 97° | 141km/h | 12251m | -6.6m/s | -55.3°C | 12.2% | 194.2hPa | 2.5V | 08:01:21 | 02:45:33 | 00:00:00 | |
| EDDB2-12 | 2026-09-05 01:03:29 | 51.46428 | 9.32732 | 90° | 139km/h | 12263m | -5.5m/s | 0°C | -1.0% | -1.0hPa | 2.6V | 00:00:00 | 00:00:00 | 00:00:00 | |
| DJ8HS-15 | 2026-09-05 01:03:27 | 51.46428 | 9.32732 | 91° | 148km/h | 12263m | -5.4m/s | -55.5°C | 12.4% | 193.8hPa | 2.6V | 00:00:00 | 02:45:31 | 00:00:00 | |
| SO1NDE-10 | 2026-09-05 01:03:24 | 51.46425 | 9.32559 | 87° | 148km/h | 12280m | -5.9m/s | -55.7°C | 12.3% | 193.3hPa | 2.6V | 00:00:00 | 02:45:28 | 00:00:00 | |
| AU51GT2 | 2026-09-05 01:03:23 | 51.46423 | 9.32498 | 87° | 153km/h | 12286m | -6.6m/s | -55.8°C | 8.4% | 193.1hPa | 2.6V | 00:00:00 | 00:00:00 | 00:00:00 | |
| DL3AQ-11 | 2026-09-05 01:03:22 | 51.46419 | 9.32371 | 88° | 159km/h | 12299m | -5.5m/s | -56.0°C | 8.6% | 192.7hPa | 2.6V | 00:00:00 | 00:00:00 | 00:00:00 | |
| DB0ND-19 | 2026-09-05 01:03:20 | 51.46421 | 9.32242 | 92° | 155km/h | 12310m | -4.7m/s | -56.1°C | 8.4% | 192.4hPa | 2.6V | 00:00:00 | 00:00:00 | 00:00:00 | |
| DL1NUX | 2026-09-05 01:03:19 | 51.46429 | 9.31952 | 89° | 133km/h | 12336m | -5.2m/s | -55.9°C | 10.9% | 191.6hPa | 2.6V | 08:00:57 | 02:45:18 | 00:00:00 | |
| HSKMA3-T | 2026-09-05 01:03:19 | 51.46421 | 9.32242 | 92° | 157km/h | 12310m | -4.7m/s | -56.1°C | 10.6% | 192.4hPa | 2.5V | 08:01:21 | 02:45:23 | 00:00:00 | |
| BIOWL1-15 | 2026-09-05 01:03:11 | 51.46419 | 9.31787 | 82° | 146km/h | 12352m | -5.1m/s | 0°C | 0% | 0hPa | 2.5V | 18:12:15 | 02:45:15 | 00:00:00 | |
| DL1NUX | 2026-09-05 01:03:09 | 51.46397 | 9.31342 | 91° | 153km/h | 12392m | -5m/s | -55.3°C | 8.6% | 190hPa | 2.5V | 08:01:07 | 02:45:08 | 00:00:00 | |
| HSKMA3-T | 2026-09-05 01:03:08 | 51.46403 | 9.31601 | 84° | 161km/h | 12368m | -5.4m/s | -55.4°C | 7.6% | 190.6hPa | 2.5V | 08:01:21 | 02:45:12 | 00:00:00 | |
| BIOWL1-15 | 2026-09-05 01:03:00 | 51.46389 | 9.31060 | 83° | 139km/h | 12420m | -5.5m/s | 0°C | 0% | 0hPa | 2.5V | 18:12:15 | 02:45:03 | 00:00:00 | |
| DL1NUX | 2026-09-05 01:02:59 | 51.46356 | 9.30757 | 80° | 162km/h | 12449m | -5.7m/s | -54.9°C | 7.2% | 188.4hPa | 2.5V | 08:01:17 | 02:44:58 | 00:00:00 | |
| HSKMA3-T | 2026-09-05 01:02:57 | 51.46378 | 9.30946 | 79° | 148km/h | 12432m | -5.3m/s | -54.8°C | 5.3% | 188.9hPa | 2.5V | 08:01:21 | 02:45:01 | 00:00:00 | |
| DL3AQ-11 | 2026-09-05 01:02:53 | 51.46345 | 9.30622 | 85° | 170km/h | 12462m | -5.4m/s | -55.0°C | 4.1% | 188.0hPa | 2.5V | 00:00:00 | 00:00:00 | 00:00:00 | |
| AU51GT2 | 2026-09-05 01:02:52 | 51.46345 | 9.30622 | 85° | 170km/h | 12462m | -5.4m/s | -55.0°C | 4.1% | 188.0hPa | 2.5V | 00:00:00 | 00:00:00 | 00:00:00 | |
| DL1NUX | 2026-09-05 01:02:49 | 51.46332 | 9.30130 | 81° | 144km/h | 12509m | -5.2m/s | -55.4°C | 6.9% | 186.8hPa | 2.5V | 08:01:27 | 02:44:48 | 00:00:00 | |
| HSKMA3-T | 2026-09-05 01:02:47 | 51.46342 | 9.30301 | 89° | 144km/h | 12493m | -4.2m/s | -55.3°C | 4.6% | 187.3hPa | 2.6V | 08:02:12 | 02:44:51 | 00:00:00 | |
| DF7PN | 2026-09-05 01:02:44 | 51.46332 | 9.30130 | 81° | 144km/h | 12509m | -5.2m/s | -55.4°C | 3.8% | 186.8hPa | 2.5V | 00:00:00 | 00:00:00 | 00:00:00 | |
| DL3AQ-11 | 2026-09-05 01:02:42 | 51.46312 | 9.29945 | 81° | 164km/h | 12525m | -5.2m/s | -55.5°C | 3.6% | 186.3hPa | 2.5V | 00:00:00 | 00:00:00 | 00:00:00 | |
| DL1NUX | 2026-09-05 01:02:39 | 51.46295 | 9.29473 | 91° | 155km/h | 12567m | -5.2m/s | -55.1°C | 6% | 185.1hPa | 2.5V | 08:01:37 | 02:44:38 | 00:00:00 | |
| HSKMA3-T | 2026-09-05 01:02:36 | 51.46295 | 9.29602 | 90° | 164km/h | 12555m | -5.2m/s | -55.6°C | 3.4% | 185.4hPa | 2.6V | 08:02:12 | 02:44:40 | 00:00:00 | |
| DF2AP-13 | 2026-09-05 01:02:36 | 51.46295 | 9.29602 | 90° | 151km/h | 12555m | -5.1m/s | -55.6°C | 6.3% | 185.4hPa | 2.5V | 00:00:00 | 02:44:40 | 00:00:00 | |
| EDDB2-11 | 2026-09-05 01:02:35 | 51.46295 | 9.29537 | 90° | 159km/h | 12561m | -5.0m/s | -55.5°C | 3.2% | 185.3hPa | 2.5V | 00:00:00 | 00:00:00 | 00:00:00 | |
| DO9LL-15 | 2026-09-05 01:02:33 | 51.46296 | 9.29412 | 92° | 148km/h | 12572m | -5.4m/s | -55.0°C | 5.8% | 184.9hPa | 2.5V | 00:00:00 | 02:44:37 | 00:00:00 | |
| HARRO8 | 2026-09-05 01:02:30 | 51.46285 | 9.29184 | 82° | 144km/h | 12594m | -5.6m/s | -55.1°C | 3.0% | 184.3hPa | 2.5V | 00:00:00 | 00:00:00 | 00:00:00 | |
| DL1NUX | 2026-09-05 01:02:29 | 51.46270 | 9.28861 | 90° | 161km/h | 12622m | -5.7m/s | -55.1°C | 5.9% | 183.5hPa | 2.5V | 08:01:47 | 02:44:28 | 00:00:00 | |
| HSKMA3-T | 2026-09-05 01:02:26 | 51.46271 | 9.28994 | 86° | 162km/h | 12610m | -5.4m/s | -55.2°C | 3% | 183.8hPa | 2.5V | 08:02:12 | 02:44:30 | 00:00:00 | |
| DL3AQ-11 | 2026-09-05 01:02:26 | 51.46270 | 9.28927 | 89° | 162km/h | 12616m | -5.5m/s | -55.2°C | 3.0% | 183.7hPa | 2.5V | 00:00:00 | 00:00:00 | 00:00:00 | |
| SO1NDE-10 | 2026-09-05 01:02:24 | 51.46270 | 9.28861 | 91° | 148km/h | 12622m | -5.7m/s | -55.1°C | 5.9% | 183.5hPa | 2.5V | 00:00:00 | 02:44:28 | 00:00:00 | |
| AU51GT2 | 2026-09-05 01:02:21 | 51.46274 | 9.28678 | 91° | 141km/h | 12640m | -5.1m/s | -55.1°C | 3.0% | 183.0hPa | 2.6V | 00:00:00 | 00:00:00 | 00:00:00 | |
| DL1NUX | 2026-09-05 01:02:19 | 51.46247 | 9.28282 | 80° | 153km/h | 12678m | -5.7m/s | -55°C | 5.8% | 181.8hPa | 2.6V | 08:01:57 | 02:44:18 | 00:00:00 | |
| HSKMA3-T | 2026-09-05 01:02:15 | 51.46254 | 9.28343 | 79° | 150km/h | 12672m | -5.8m/s | -55.1°C | 2.9% | 182hPa | 2.5V | 08:02:12 | 02:44:19 | 00:00:00 | |
| DO3MHA-11 | 2026-09-05 01:02:15 | 51.46254 | 9.28343 | 80° | 142km/h | 12672m | -5.7m/s | -55.1°C | 5.8% | 181.9hPa | 2.5V | 08:01:00 | 02:44:19 | 00:00:00 | |
| DL8OAI-8 | 2026-09-05 01:02:14 | 51.46253 | 9.28342 | 80° | 150km/h | 12672m | -5.8m/s | -55.1°C | 2.9% | 182.0hPa | 2.5V | 08:02:00 | 00:00:00 | 00:00:00 | |
| DL3AQ-11 | 2026-09-05 01:02:13 | 51.46236 | 9.28154 | 84° | 161km/h | 12690m | -5.8m/s | -54.8°C | 2.8% | 181.4hPa | 2.5V | 00:00:00 | 00:00:00 | 00:00:00 | |
| SONCRA | 2026-09-05 01:02:11 | 51.46233 | 9.28089 | 86° | 162km/h | 12696m | -5.5m/s | -54.8°C | 2.8% | 181.2hPa | 2.5V | 00:00:00 | 00:00:00 | 00:00:00 | |
| NBG1-10 | 2026-09-05 01:02:10 | 51.46231 | 9.28024 | 90° | 142km/h | 12703m | -4.8m/s | -54.8°C | 5.6% | 181.0hPa | 2.5V | 00:00:00 | 02:44:14 | 00:00:00 | |
| DL1NUX | 2026-09-05 01:02:09 | 51.46222 | 9.27674 | 80° | 139km/h | 12734m | -5.2m/s | -54.9°C | 5.5% | 180.1hPa | 2.5V | 08:02:07 | 02:44:08 | 00:00:00 | |
| HSKMA3-T | 2026-09-05 01:02:05 | 51.46227 | 9.27730 | 84° | 133km/h | 12730m | -4.7m/s | -54.8°C | 2.7% | 180.3hPa | 2.5V | 08:02:12 | 02:44:09 | 00:00:00 | |
| EDDB2-11 | 2026-09-05 01:02:04 | 51.46222 | 9.27674 | 80° | 139km/h | 12734m | -5.2m/s | -54.9°C | 2.7% | 180.2hPa | 2.5V | 00:00:00 | 00:00:00 | 00:00:00 | |
| DO9LL-15 | 2026-09-05 01:02:03 | 51.46216 | 9.27618 | 80° | 151km/h | 12739m | -5.0m/s | -54.9°C | 5.5% | 179.9hPa | 2.5V | 00:00:00 | 02:44:07 | 00:00:00 | |
| DL3AQ-11 | 2026-09-05 01:02:01 | 51.46201 | 9.27498 | 78° | 151km/h | 12749m | -5.9m/s | -55.0°C | 2.7% | 179.6hPa | 2.5V | 00:00:00 | 00:00:00 | 00:00:00 | |
| DL1NUX | 2026-09-05 01:01:59 | 51.46172 | 9.27079 | 82° | 133km/h | 12784m | -5.4m/s | -55.3°C | 5.6% | 178.5hPa | 2.5V | 08:02:17 | 02:43:58 | 00:00:00 | |
| HSKMA3-T | 2026-09-05 01:01:55 | 51.46176 | 9.27133 | 86° | 137km/h | 12779m | -4.9m/s | -55.3°C | 2.6% | 178.7hPa | 2.5V | 08:03:03 | 02:43:59 | 00:00:00 | |
| AU51GT2 | 2026-09-05 01:01:50 | 51.46144 | 9.26847 | 79° | 157km/h | 12804m | -5.2m/s | -55.6°C | 2.6% | 177.8hPa | 2.5V | 00:00:00 | 00:00:00 | 00:00:00 | |
| DL1NUX | 2026-09-05 01:01:49 | 51.46122 | 9.26451 | 89° | 159km/h | 12835m | -6.2m/s | -55.7°C | 5.3% | 176.8hPa | 2.5V | 08:02:27 | 02:43:48 | 00:00:00 | |
| HSKMA3-T | 2026-09-05 01:01:45 | 51.46122 | 9.26516 | 88° | 162km/h | 12829m | -6.5m/s | -55.7°C | 2.1% | 177hPa | 2.6V | 08:03:03 | 02:43:49 | 00:00:00 | |
| DF7PN | 2026-09-05 01:01:42 | 51.46122 | 9.26327 | 91° | 146km/h | 12847m | -6.6m/s | -55.4°C | 2.3% | 176.4hPa | 2.5V | 00:00:00 | 00:00:00 | 00:00:00 | |
| SONCRA | 2026-09-05 01:01:40 | 51.46122 | 9.26215 | 87° | 131km/h | 12859m | -6.2m/s | -55.1°C | 2.2% | 176.0hPa | 2.5V | 00:00:00 | 00:00:00 | 00:00:00 | |
| DL1NUX | 2026-09-05 01:01:39 | 51.46091 | 9.25874 | 82° | 159km/h | 12894m | -5.7m/s | -55.1°C | 4.9% | 175.1hPa | 2.5V | 08:02:37 | 02:43:38 | 00:00:00 | |
| HSKMA3-T | 2026-09-05 01:01:35 | 51.46097 | 9.25937 | 80° | 153km/h | 12888m | -6.2m/s | -55.1°C | 1.6% | 175.3hPa | 2.6V | 08:03:03 | 02:43:39 | 00:00:00 | |
| DO9LL-15 | 2026-09-05 01:01:34 | 51.46087 | 9.25810 | 86° | 141km/h | 12900m | -6.1m/s | -55.1°C | 5.0% | 174.9hPa | 2.5V | 08:02:00 | 02:43:37 | 00:00:00 | |
| DL3AQ-11 | 2026-09-05 01:01:33 | 51.46085 | 9.25744 | 88° | 161km/h | 12905m | -6.1m/s | -55.2°C | 2.1% | 174.8hPa | 2.6V | 00:00:00 | 00:00:00 | 00:00:00 | |
| DL1NUX | 2026-09-05 01:01:29 | 51.46098 | 9.25276 | 88° | 128km/h | 12956m | -6.5m/s | -55.1°C | 4.8% | 173.3hPa | 2.6V | 08:02:47 | 02:43:28 | 00:00:00 | |
| HSKMA3-T | 2026-09-05 01:01:24 | 51.46098 | 9.25276 | 88° | 128km/h | 12956m | -6.5m/s | -55.1°C | 1.3% | 173.3hPa | 2.6V | 08:03:03 | 02:43:28 | 00:00:00 | |
| SO1NDE-10 | 2026-09-05 01:01:24 | 51.46098 | 9.25276 | 89° | 141km/h | 12956m | -6.4m/s | -55.1°C | 4.8% | 173.3hPa | 2.5V | 00:00:00 | 02:43:28 | 00:00:00 | |
| DL3AQ-11 | 2026-09-05 01:01:22 | 51.46090 | 9.25122 | 81° | 131km/h | 12975m | -7.0m/s | -55.1°C | 1.9% | 172.9hPa | 2.5V | 00:00:00 | 00:00:00 | 00:00:00 | |
| DC6BW-12 | 2026-09-05 01:01:20 | 51.46090 | 9.25122 | 83° | 131km/h | 12975m | -7.0m/s | -55.1°C | 1.9% | 172.9hPa | 2.5V | 08:03:00 | 00:00:00 | 00:00:00 | |
| DL1NUX | 2026-09-05 01:01:19 | 51.46058 | 9.24707 | 89° | 159km/h | 13019m | -6.4m/s | -54.5°C | 4.5% | 171.6hPa | 2.5V | 08:02:57 | 02:43:18 | 00:00:00 | |
| HSKMA3-T | 2026-09-05 01:01:13 | 51.46058 | 9.24643 | 92° | 159km/h | 13025m | -6.7m/s | -54.6°C | 1% | 171.5hPa | 2.6V | 08:03:03 | 02:43:17 | 00:00:00 | |
| DF7PN | 2026-09-05 01:01:11 | 51.46062 | 9.24519 | 94° | 148km/h | 13038m | -7.0m/s | -54.5°C | 1.7% | 171.1hPa | 2.5V | 00:00:00 | 00:00:00 | 00:00:00 | |
| DL1NUX | 2026-09-05 01:01:09 | 51.46063 | 9.24162 | 80° | 126km/h | 13082m | -6.3m/s | -53.9°C | 4.3% | 169.9hPa | 2.5V | 08:03:07 | 02:43:08 | 00:00:00 | |
| HSKMA3-T | 2026-09-05 01:01:03 | 51.46058 | 9.24111 | 80° | 130km/h | 13089m | -6.7m/s | -53.9°C | 0.9% | 169.8hPa | 2.5V | 08:03:54 | 02:43:07 | 00:00:00 | |
| EDDB2-11 | 2026-09-05 01:01:02 | 51.46051 | 9.24059 | 78° | 135km/h | 13095m | -6.6m/s | -53.9°C | 1.7% | 169.6hPa | 2.5V | 00:00:00 | 00:00:00 | 00:00:00 | |
| DJ2KF-10 | 2026-09-05 01:01:00 | 51.46038 | 9.23942 | 83° | 133km/h | 13107m | -6.2m/s | -53.8°C | 4.4% | 169.3hPa | 2.5V | 00:00:00 | 02:43:04 | 00:00:00 | |
| DL1NUX | 2026-09-05 01:00:59 | 51.46037 | 9.23582 | 94° | 130km/h | 13141m | -6.5m/s | -53.7°C | 4.2% | 168.4hPa | 2.5V | 08:03:17 | 02:42:58 | 00:00:00 | |
| HSKMA3-T | 2026-09-05 01:00:53 | 51.46040 | 9.23531 | 95° | 122km/h | 13148m | -7.3m/s | -53.7°C | 0.8% | 168.2hPa | 2.5V | 08:03:54 | 02:42:57 | 00:00:00 | |
| DL3AQ-11 | 2026-09-05 01:00:53 | 51.46042 | 9.23482 | 92° | 120km/h | 13155m | -7.6m/s | -53.7°C | 1.6% | 168.1hPa | 2.5V | 00:00:00 | 00:00:00 | 00:00:00 | |
| DL1NUX | 2026-09-05 01:00:49 | 51.46007 | 9.23077 | 80° | 150km/h | 13205m | -6.3m/s | -53.2°C | 4.2% | 166.8hPa | 2.5V | 08:03:27 | 02:42:48 | 00:00:00 | |
| AU51GT2 | 2026-09-05 01:00:48 | 51.46035 | 9.23293 | 78° | 122km/h | 13182m | -5.8m/s | -53.5°C | 1.6% | 167.4hPa | 2.5V | 00:00:00 | 00:00:00 | 00:00:00 | |
| HSKMA3-T | 2026-09-05 01:00:42 | 51.45997 | 9.22955 | 85° | 153km/h | 13216m | -5.8m/s | -53°C | 0.8% | 166.5hPa | 2.5V | 08:03:54 | 02:42:46 | 00:00:00 | |
| DL3AQ-11 | 2026-09-05 01:00:42 | 51.45995 | 9.22895 | 87° | 146km/h | 13221m | -5.6m/s | -52.8°C | 1.6% | 166.3hPa | 2.6V | 00:00:00 | 00:00:00 | 00:00:00 | |
| DF7PN | 2026-09-05 01:00:40 | 51.45994 | 9.22837 | 91° | 139km/h | 13226m | -5.6m/s | -52.7°C | 1.6% | 166.2hPa | 2.6V | 00:00:00 | 00:00:00 | 00:00:00 | |
| DL1NUX | 2026-09-05 01:00:39 | 51.45979 | 9.22543 | 75° | 122km/h | 13262m | -7m/s | -52.7°C | 4% | 165.2hPa | 2.6V | 08:03:37 | 02:42:38 | 00:00:00 | |
| HSKMA3-T | 2026-09-05 01:00:32 | 51.45961 | 9.22442 | 74° | 133km/h | 13275m | -7m/s | -52.7°C | 0.7% | 164.9hPa | 2.5V | 08:03:54 | 02:42:36 | 00:00:00 | |
| DJ2KF-10 | 2026-09-05 01:00:30 | 51.45942 | 9.22330 | 76° | 139km/h | 13287m | -6.4m/s | -52.7°C | 4.0% | 164.6hPa | 2.6V | 00:00:00 | 02:42:34 | 00:00:00 | |
| DL1NUX | 2026-09-05 01:00:29 | 51.45916 | 9.21963 | 89° | 144km/h | 13322m | -5.9m/s | -52.9°C | 4% | 163.7hPa | 2.6V | 08:03:47 | 02:42:28 | 00:00:00 | |
| HSKMA3-T | 2026-09-05 01:00:22 | 51.45915 | 9.21854 | 88° | 126km/h | 13333m | -6.6m/s | -52.9°C | 0.7% | 163.4hPa | 2.5V | 08:03:54 | 02:42:26 | 00:00:00 | |
| DL1NUX | 2026-09-05 01:00:19 | 51.45871 | 9.21443 | 79° | 151km/h | 13380m | -5.7m/s | -52.9°C | 4% | 162.3hPa | 2.5V | 08:03:57 | 02:42:18 | 00:00:00 | |
| HSKMA3-T | 2026-09-05 01:00:11 | 51.45858 | 9.21253 | 88° | 161km/h | 13396m | -6.7m/s | -52.9°C | 0.6% | 161.8hPa | 2.5V | 08:04:45 | 02:42:15 | 00:00:00 | |
| DL1NUX | 2026-09-05 01:00:09 | 51.45870 | 9.20857 | 88° | 119km/h | 13436m | -5.4m/s | -53.1°C | 4% | 160.8hPa | 2.5V | 08:04:07 | 02:42:08 | 00:00:00 | |
| HSKMA3-T | 2026-09-05 01:00:05 | 51.45859 | 9.20661 | 80° | 131km/h | 13460m | -5.9m/s | -53°C | 0.6% | 160.3hPa | 2.5V | 08:04:45 | 02:42:04 | 00:00:00 | |
| DO3MHA-11 | 2026-09-05 01:00:04 | 51.45870 | 9.20857 | 89° | 133km/h | 13436m | -5.4m/s | -53.0°C | 4.0% | 160.8hPa | 2.5V | 00:00:00 | 02:42:08 | 00:00:00 | |
| DL3AQ-11 | 2026-09-05 01:00:02 | 51.45864 | 9.20712 | 81° | 126km/h | 13454m | -6.3m/s | -53.1°C | 1.4% | 160.4hPa | 2.5V | 00:00:00 | 00:00:00 | 00:00:00 | |
| DJ2KF-10 | 2026-09-05 01:00:00 | 51.45858 | 9.20661 | 80° | 133km/h | 13460m | -5.8m/s | -53.0°C | 3.9% | 160.3hPa | 2.5V | 08:04:00 | 02:42:04 | 00:00:00 | |
| DL1NUX | 2026-09-05 00:59:59 | 51.45833 | 9.20306 | 90° | 157km/h | 13491m | -5.7m/s | -52.6°C | 3.8% | 159.5hPa | 2.5V | 08:04:17 | 02:41:58 | 00:00:00 | |
| HSKMA3-T | 2026-09-05 00:59:50 | 51.45843 | 9.20079 | 94° | 122km/h | 13512m | -6.5m/s | -52.5°C | 0.5% | 159hPa | 2.6V | 08:04:45 | 02:41:54 | 00:00:00 | |
| DL3AQ-11 | 2026-09-05 00:59:46 | 51.45828 | 9.19833 | 76° | 135km/h | 13543m | -6.0m/s | -52.6°C | 1.3% | 158.3hPa | 2.5V | 00:00:00 | 00:00:00 | 00:00:00 | |
| DL3OBA | 2026-09-05 00:59:45 | 51.45834 | 9.19885 | 80° | 126km/h | 13537m | -6.5m/s | -52.5°C | 1.4% | 158.4hPa | 2.5V | 08:04:00 | 00:00:00 | 00:00:00 | |
| DO3MHA-11 | 2026-09-05 00:59:44 | 51.45820 | 9.19779 | 78° | 137km/h | 13549m | -6.5m/s | -52.5°C | 3.8% | 158.0hPa | 2.5V | 00:00:00 | 02:41:48 | 00:00:00 | |
| DM0DOS-11 | 2026-09-05 00:59:43 | 51.45797 | 9.19479 | 90° | 144km/h | 13575m | -5.4m/s | 0°C | 0% | 0hPa | 2.5V | 08:04:32 | 02:41:43 | 00:00:00 | |
| DL1NUX | 2026-09-05 00:59:39 | 51.45800 | 9.19223 | 86° | 113km/h | 13604m | -7.3m/s | -52.9°C | 3.8% | 156.7hPa | 2.6V | 08:04:37 | 02:41:38 | 00:00:00 | |
| HSKMA3-T | 2026-09-05 00:59:39 | 51.45797 | 9.19479 | 90° | 144km/h | 13575m | -5.4m/s | -52.8°C | 0.5% | 157.4hPa | 2.5V | 08:04:45 | 02:41:43 | 00:00:00 | |
| DF7PN | 2026-09-05 00:59:38 | 51.45798 | 9.19422 | 91° | 141km/h | 13580m | -6.0m/s | -52.8°C | 1.4% | 157.3hPa | 2.6V | 00:00:00 | 00:00:00 | 00:00:00 | |
| SONCRA | 2026-09-05 00:59:36 | 51.45801 | 9.19316 | 90° | 120km/h | 13591m | -6.7m/s | -52.8°C | 1.3% | 157.0hPa | 2.6V | 00:00:00 | 00:00:00 | 00:00:00 | |
| DO3MHA-11 | 2026-09-05 00:59:34 | 51.45800 | 9.19223 | 87° | 133km/h | 13604m | -7.3m/s | -52.8°C | 3.8% | 156.6hPa | 2.6V | 08:04:00 | 02:41:38 | 00:00:00 | |
| BUE01 | 2026-09-05 00:59:32 | 51.45785 | 9.19089 | 74° | 120km/h | 13624m | -6.1m/s | -52.9°C | 1.3% | 156.3hPa | 2.5V | 00:00:00 | 00:00:00 | 00:00:00 | |
| DD1CC8 | 2026-09-05 00:59:31 | 51.45785 | 9.19089 | 74° | 120km/h | 13624m | -6.1m/s | -52.9°C | 1.3% | 156.3hPa | 2.5V | 00:00:00 | 00:00:00 | 00:00:00 | |
| DJ2KF-10 | 2026-09-05 00:59:30 | 51.45777 | 9.19040 | 74° | 126km/h | 13630m | -5.6m/s | -52.9°C | 3.8% | 156.1hPa | 2.5V | 00:00:00 | 02:41:34 | 00:00:00 | |
| DL1NUX | 2026-09-05 00:59:29 | 51.45740 | 9.18698 | 87° | 144km/h | 13664m | -6.6m/s | -53.1°C | 3.8% | 155.2hPa | 2.5V | 08:04:47 | 02:41:28 | 00:00:00 | |
| HSKMA3-T | 2026-09-05 00:59:28 | 51.45759 | 9.18932 | 78° | 144km/h | 13641m | -5.8m/s | -53.1°C | 0.5% | 155.9hPa | 2.6V | 08:04:45 | 02:41:32 | 00:00:00 | |
| DJ8HS-15 | 2026-09-05 00:59:27 | 51.45752 | 9.18875 | 80° | 137km/h | 13646m | -6.2m/s | -53.0°C | 3.8% | 155.7hPa | 2.5V | 00:00:00 | 02:41:31 | 00:00:00 | |
| DC6BW-12 | 2026-09-05 00:59:25 | 51.45746 | 9.18816 | 83° | 150km/h | 13652m | -6.5m/s | -53.1°C | 1.4% | 155.6hPa | 2.5V | 08:04:00 | 00:00:00 | 00:00:00 | |
| SO1NDE-10 | 2026-09-05 00:59:24 | 51.45740 | 9.18698 | 88° | 130km/h | 13664m | -6.6m/s | -53.0°C | 3.8% | 155.2hPa | 2.5V | 08:04:00 | 02:41:28 | 00:00:00 | |
| DO3MHA-12 | 2026-09-05 00:59:23 | 51.45738 | 9.18640 | 91° | 126km/h | 13670m | -6.2m/s | -52.9°C | 3.8% | 155.1hPa | 2.6V | 00:00:00 | 02:41:27 | 00:00:00 | |
| DK9SH | 2026-09-05 00:59:22 | 51.45738 | 9.18640 | 91° | 139km/h | 13670m | -6.3m/s | -53.0°C | 1.3% | 155.1hPa | 2.5V | 08:05:00 | 00:00:00 | 00:00:00 | |
| DL3AQ-11 | 2026-09-05 00:59:21 | 51.45740 | 9.18535 | 91° | 124km/h | 13682m | -6.3m/s | -52.9°C | 1.3% | 154.8hPa | 2.5V | 00:00:00 | 00:00:00 | 00:00:00 | |
| DL1ZP-14 | 2026-09-05 00:59:20 | 51.45740 | 9.18487 | 89° | 111km/h | 13687m | -6.1m/s | -52.7°C | 1.3% | 154.7hPa | 2.5V | 00:00:00 | 00:00:00 | 00:00:00 | |
| DL1NUX | 2026-09-05 00:59:19 | 51.45711 | 9.18196 | 78° | 139km/h | 13724m | -6.5m/s | -52.7°C | 3.8% | 153.9hPa | 2.5V | 08:04:57 | 02:41:18 | 00:00:00 | |
| HSKMA3-T | 2026-09-05 00:59:18 | 51.45731 | 9.18350 | 77° | 119km/h | 13706m | -5.3m/s | -52.6°C | 0.4% | 154.3hPa | 2.6V | 08:05:36 | 02:41:21 | 00:00:00 | |
| AU51GT2 | 2026-09-05 00:59:16 | 51.45718 | 9.18250 | 77° | 131km/h | 13718m | -6.3m/s | -52.7°C | 1.3% | 154.0hPa | 2.5V | 00:00:00 | 00:00:00 | 00:00:00 | |
| DO3MHA-12 | 2026-09-05 00:59:13 | 51.45705 | 9.18139 | 82° | 144km/h | 13731m | -6.4m/s | -52.7°C | 3.8% | 153.7hPa | 2.5V | 00:00:00 | 02:41:17 | 00:00:00 | |
| DL8OAI-8 | 2026-09-05 00:59:11 | 51.45695 | 9.18019 | 86° | 150km/h | 13742m | -6.5m/s | -52.8°C | 1.4% | 153.4hPa | 2.5V | 08:05:00 | 00:00:00 | 00:00:00 | |
| DL1NUX | 2026-09-05 00:59:09 | 51.45707 | 9.17609 | 95° | 130km/h | 13785m | -6.1m/s | -53°C | 3.8% | 152.3hPa | 2.5V | 08:05:07 | 02:41:08 | 00:00:00 | |
| HSKMA3-T | 2026-09-05 00:59:07 | 51.45696 | 9.17775 | 94° | 148km/h | 13767m | -7.3m/s | -52.9°C | 0.4% | 152.8hPa | 2.6V | 08:05:36 | 02:41:11 | 00:00:00 | |
| DJ8HS-15 | 2026-09-05 00:59:07 | 51.45696 | 9.17775 | 95° | 131km/h | 13767m | -7.2m/s | -52.9°C | 3.8% | 152.7hPa | 2.5V | 00:00:00 | 02:41:11 | 00:00:00 | |
| SONCRA | 2026-09-05 00:59:05 | 51.45703 | 9.17662 | 96° | 133km/h | 13779m | -6.3m/s | -53.0°C | 1.3% | 152.5hPa | 2.5V | 00:00:00 | 00:00:00 | 00:00:00 | |
| DJTTGO | 2026-09-05 00:59:04 | 51.45703 | 9.17662 | 98° | 135km/h | 13779m | -6.3m/s | -53.0°C | 1.3% | 152.5hPa | 2.5V | 00:00:00 | 00:00:00 | 00:00:00 | |
| DO3MHA-12 | 2026-09-05 00:59:03 | 51.45710 | 9.17560 | 96° | 120km/h | 13791m | -6.8m/s | -53.0°C | 3.8% | 152.2hPa | 2.5V | 00:00:00 | 02:41:07 | 00:00:00 | |
| DK9SH | 2026-09-05 00:59:01 | 51.45712 | 9.17512 | 93° | 117km/h | 13797m | -7.5m/s | -53.1°C | 1.3% | 152.0hPa | 2.5V | 08:05:00 | 00:00:00 | 00:00:00 | |
| DL1NUX | 2026-09-05 00:59:00 | 51.45687 | 9.17125 | 80° | 142km/h | 13850m | -6.2m/s | -52.8°C | 3.9% | 150.9hPa | 2.5V | 08:05:17 | 02:40:58 | 00:00:00 | |
| HSKMA3-T | 2026-09-05 00:58:57 | 51.45698 | 9.17231 | 79° | 126km/h | 13838m | -6.2m/s | -53°C | 0.4% | 151.1hPa | 2.6V | 08:05:36 | 02:41:00 | 00:00:00 | |
| DL3AQ-11 | 2026-09-05 00:58:53 | 51.45680 | 9.17008 | 87° | 146km/h | 13861m | -6.4m/s | -52.7°C | 1.3% | 150.6hPa | 2.6V | 00:00:00 | 00:00:00 | 00:00:00 | |
| HARRO8 | 2026-09-05 00:58:52 | 51.45680 | 9.17008 | 87° | 146km/h | 13861m | -6.4m/s | -52.7°C | 1.3% | 150.6hPa | 2.6V | 00:00:00 | 00:00:00 | 00:00:00 | |
| DL8OAI-8 | 2026-09-05 00:58:50 | 51.45681 | 9.16891 | 96° | 142km/h | 13873m | -6.5m/s | -52.6°C | 1.3% | 150.4hPa | 2.6V | 08:05:00 | 00:00:00 | 00:00:00 | |
| DL1NUX | 2026-09-05 00:58:49 | 51.45694 | 9.16600 | 84° | 102km/h | 13912m | -7.2m/s | -52.3°C | 3.6% | 149.4hPa | 2.6V | 08:05:27 | 02:40:48 | 00:00:00 | |
| HSKMA3-T | 2026-09-05 00:58:45 | 51.45694 | 9.16642 | 90° | 108km/h | 13905m | -8m/s | -52.4°C | 0.3% | 149.6hPa | 2.6V | 08:05:36 | 02:40:49 | 00:00:00 | |
| DJTTGO | 2026-09-05 00:58:44 | 51.45693 | 9.16600 | 86° | 102km/h | 13913m | -7.2m/s | -52.3°C | 1.2% | 149.4hPa | 2.6V | 00:00:00 | 00:00:00 | 00:00:00 | |
| DO3MHA-12 | 2026-09-05 00:58:43 | 51.45690 | 9.16558 | 81° | 126km/h | 13920m | -7.0m/s | -52.3°C | 3.6% | 149.2hPa | 2.6V | 00:00:00 | 02:40:47 | 00:00:00 | |
| DK9SH | 2026-09-05 00:58:42 | 51.45685 | 9.16515 | 78° | 110km/h | 13927m | -7.2m/s | -52.4°C | 1.3% | 149.1hPa | 2.6V | 08:05:00 | 00:00:00 | 00:00:00 | |
| DL1NUX | 2026-09-05 00:58:39 | 51.45646 | 9.16099 | 92° | 128km/h | 13974m | -6.4m/s | -52.5°C | 3.7% | 148hPa | 2.6V | 08:05:37 | 02:40:38 | 00:00:00 | |
| HSKMA3-T | 2026-09-05 00:58:35 | 51.45646 | 9.16152 | 89° | 135km/h | 13968m | -7m/s | -52.5°C | 0.4% | 148.1hPa | 2.5V | 08:05:36 | 02:40:39 | 00:00:00 | |
| SONCRA | 2026-09-05 00:58:34 | 51.45646 | 9.16099 | 92° | 126km/h | 13974m | -6.4m/s | -52.5°C | 1.3% | 148.0hPa | 2.5V | 00:00:00 | 00:00:00 | 00:00:00 | |
| DO3MHA-12 | 2026-09-05 00:58:33 | 51.45647 | 9.16049 | 93° | 113km/h | 13981m | -6.6m/s | -52.5°C | 3.7% | 147.9hPa | 2.5V | 00:00:00 | 02:40:37 | 00:00:00 | |
| NBG1-10 | 2026-09-05 00:58:32 | 51.45649 | 9.16001 | 94° | 119km/h | 13987m | -6.7m/s | -52.5°C | 3.7% | 147.7hPa | 2.5V | 00:00:00 | 02:40:36 | 00:00:00 | |
| DL1NUX | 2026-09-05 00:58:29 | 51.45621 | 9.15638 | 82° | 133km/h | 14035m | -6.7m/s | -52.9°C | 3.8% | 146.6hPa | 2.5V | 08:05:47 | 02:40:28 | 00:00:00 | |
| HSKMA3-T | 2026-09-05 00:58:24 | 51.45621 | 9.15638 | 83° | 133km/h | 14035m | -6.7m/s | -52.9°C | 0.5% | 146.6hPa | 2.5V | 08:06:27 | 02:40:28 | 00:00:00 | |
| SO1NDE-10 | 2026-09-05 00:58:24 | 51.45621 | 9.15638 | 83° | 120km/h | 14035m | -6.7m/s | -52.9°C | 3.8% | 146.5hPa | 2.6V | 00:00:00 | 02:40:28 | 00:00:00 | |
| DO3MHA-12 | 2026-09-05 00:58:23 | 51.45618 | 9.15585 | 87° | 113km/h | 14042m | -6.5m/s | -52.9°C | 3.8% | 146.4hPa | 2.6V | 00:00:00 | 02:40:27 | 00:00:00 | |
| DL3OBA | 2026-09-05 00:58:22 | 51.45618 | 9.15585 | 87° | 131km/h | 14042m | -6.5m/s | -52.9°C | 1.3% | 146.5hPa | 2.5V | 08:06:00 | 00:00:00 | 00:00:00 | |
| DB0UT-7 | 2026-09-05 00:58:21 | 51.45618 | 9.15482 | 92° | 124km/h | 14053m | -6.9m/s | -53.0°C | 3.8% | 146.1hPa | 2.5V | 00:00:00 | 00:00:00 | 00:00:00 | |
| DL1NUX | 2026-09-05 00:58:19 | 51.45595 | 9.15182 | 74° | 119km/h | 14100m | -7m/s | -53.2°C | 3.8% | 145.1hPa | 2.5V | 08:05:57 | 02:40:18 | 00:00:00 | |
| HSKMA3-T | 2026-09-05 00:58:13 | 51.45587 | 9.15135 | 76° | 126km/h | 14107m | -7m/s | -53.2°C | 0.5% | 145hPa | 2.5V | 08:06:27 | 02:40:17 | 00:00:00 | |
| BIOWL1-15 | 2026-09-05 00:58:10 | 51.45566 | 9.14977 | 83° | 137km/h | 14126m | -6.3m/s | -53.2°C | 0.4% | 144.6hPa | 2.5V | 08:08:09 | 02:40:14 | 00:00:00 | |
| DL1NUX | 2026-09-05 00:58:09 | 51.45566 | 9.14672 | 90° | 106km/h | 14163m | -6.9m/s | -53.4°C | 3.9% | 143.7hPa | 2.5V | 08:06:07 | 02:40:08 | 00:00:00 | |
| HSKMA3-T | 2026-09-05 00:58:03 | 51.45565 | 9.14631 | 85° | 100km/h | 14170m | -6.6m/s | -53.4°C | 0.5% | 143.6hPa | 2.5V | 08:06:27 | 02:40:07 | 00:00:00 | |
| DO3MHA-12 | 2026-09-05 00:58:03 | 51.45565 | 9.14630 | 85° | 122km/h | 14170m | -6.6m/s | -53.3°C | 3.9% | 143.5hPa | 2.5V | 00:00:00 | 02:40:07 | 00:00:00 | |
| DL3OBA | 2026-09-05 00:58:02 | 51.45562 | 9.14590 | 81° | 102km/h | 14176m | -6.7m/s | -53.4°C | 1.3% | 143.4hPa | 2.5V | 08:06:00 | 00:00:00 | 00:00:00 | |
| DD1CC8 | 2026-09-05 00:57:58 | 51.45536 | 9.14406 | 77° | 126km/h | 14202m | -7.3m/s | -53.3°C | 1.3% | 142.8hPa | 2.5V | 00:00:00 | 00:00:00 | 00:00:00 | |
| EDDB2-11 | 2026-09-05 00:57:56 | 51.45524 | 9.14300 | 82° | 137km/h | 14216m | -7.1m/s | -53.4°C | 1.3% | 142.6hPa | 2.5V | 00:00:00 | 00:00:00 | 00:00:00 | |
| DM0DOS-11 | 2026-09-05 00:57:54 | 51.45521 | 9.14029 | 96° | 119km/h | 14247m | -7.1m/s | 0°C | 0% | 0hPa | 2.5V | 08:06:20 | 02:39:55 | 00:00:00 | |
| HSKMA3-T | 2026-09-05 00:57:52 | 51.45518 | 9.14079 | 94° | 131km/h | 14241m | -7m/s | -53.5°C | 0.5% | 142hPa | 2.5V | 08:06:27 | 02:39:56 | 00:00:00 | |
| DB0UT-7 | 2026-09-05 00:57:51 | 51.45521 | 9.14029 | 97° | 122km/h | 14247m | -7.0m/s | -53.5°C | 3.9% | 141.8hPa | 2.5V | 08:06:00 | 02:39:55 | 00:00:00 | |
| NBG1-10 | 2026-09-05 00:57:50 | 51.45525 | 9.13981 | 97° | 108km/h | 14254m | -7.2m/s | -53.5°C | 3.9% | 141.7hPa | 2.6V | 00:00:00 | 02:39:54 | 00:00:00 | |
| DL1NUX | 2026-09-05 00:57:49 | 51.45521 | 9.13731 | 80° | 119km/h | 14293m | -6.3m/s | -53.8°C | 4.1% | 140.9hPa | 2.6V | 08:06:27 | 02:39:48 | 00:00:00 | |
| DL1ZP-14 | 2026-09-05 00:57:47 | 51.45529 | 9.13818 | 83° | 99km/h | 14281m | -6.6m/s | -53.7°C | 1.4% | 141.1hPa | 2.5V | 00:00:00 | 00:00:00 | 00:00:00 | |
| DL3AQ-11 | 2026-09-05 00:57:46 | 51.45525 | 9.13776 | 79° | 108km/h | 14287m | -6.3m/s | -53.7°C | 1.4% | 141.0hPa | 2.5V | 00:00:00 | 00:00:00 | 00:00:00 | |
| HSKMA3-T | 2026-09-05 00:57:42 | 51.45513 | 9.13628 | 85° | 135km/h | 14305m | -6.3m/s | -53.8°C | 0.5% | 140.6hPa | 2.5V | 08:07:18 | 02:39:46 | 00:00:00 | |
| BIOWL1-15 | 2026-09-05 00:57:40 | 51.45519 | 9.13406 | 99° | 131km/h | 14329m | -7.2m/s | -53.8°C | 0.5% | 140hPa | 2.6V | 08:08:09 | 02:39:42 | 00:00:00 | |
| DL1NUX | 2026-09-05 00:57:39 | 51.45546 | 9.13216 | 102° | 106km/h | 14354m | -7.1m/s | -53.7°C | 4% | 139.4hPa | 2.5V | 08:06:37 | 02:39:38 | 00:00:00 | |
| HSKMA3-T | 2026-09-05 00:57:31 | 51.45555 | 9.13098 | 90° | 100km/h | 14374m | -6.8m/s | -53.6°C | 0.6% | 139.1hPa | 2.5V | 08:07:18 | 02:39:35 | 00:00:00 | |
| BIOWL1-15 | 2026-09-05 00:57:23 | 51.45565 | 9.12695 | 101° | 130km/h | 14422m | -7.3m/s | -52.9°C | 0.4% | 138.1hPa | 2.5V | 08:08:09 | 02:39:27 | 00:00:00 | |
| HSKMA3-T | 2026-09-05 00:57:20 | 51.45586 | 9.12553 | 105° | 110km/h | 14441m | -6.8m/s | -52.6°C | 0.4% | 137.6hPa | 2.5V | 08:07:18 | 02:39:24 | 00:00:00 | |
| BIOWL1-15 | 2026-09-05 00:57:12 | 51.45582 | 9.12074 | 92° | 124km/h | 14524m | -6m/s | -52.4°C | 0.3% | 135.9hPa | 2.5V | 08:08:09 | 02:39:12 | 00:00:00 | |
| HSKMA3-T | 2026-09-05 00:57:09 | 51.45582 | 9.12123 | 88° | 120km/h | 14518m | -5.7m/s | -52.5°C | 0.3% | 136hPa | 2.5V | 08:07:18 | 02:39:13 | 00:00:00 | |
| DO3MHA-11 | 2026-09-05 00:57:09 | 51.45582 | 9.12123 | 88° | 106km/h | 14518m | -5.7m/s | -52.4°C | 3.7% | 136.0hPa | 2.6V | 00:00:00 | 02:39:13 | 00:00:00 | |
| DJ8HS-15 | 2026-09-05 00:57:07 | 51.45583 | 9.12024 | 96° | 104km/h | 14530m | -6.9m/s | -52.4°C | 3.6% | 135.7hPa | 2.6V | 00:00:00 | 02:39:11 | 00:00:00 | |
| DO9LL-15 | 2026-09-05 00:57:06 | 51.45587 | 9.11975 | 98° | 119km/h | 14537m | -7.4m/s | -52.4°C | 3.6% | 135.6hPa | 2.6V | 00:00:00 | 02:39:10 | 00:00:00 | |
| DL8OAI-8 | 2026-09-05 00:57:05 | 51.45587 | 9.11975 | 99° | 120km/h | 14537m | -7.4m/s | -52.5°C | 1.2% | 135.6hPa | 2.6V | 00:00:00 | 00:00:00 | 00:00:00 | |
| DO3MHA-12 | 2026-09-05 00:57:03 | 51.45602 | 9.11843 | 103° | 93km/h | 14559m | -7.5m/s | -52.5°C | 3.6% | 135.1hPa | 2.6V | 00:00:00 | 02:39:07 | 00:00:00 | |
| SONCRA | 2026-09-05 00:57:01 | 51.45611 | 9.11739 | 89° | 77km/h | 14579m | -7.8m/s | -52.7°C | 1.2% | 134.8hPa | 2.6V | 00:00:00 | 00:00:00 | 00:00:00 | |
| DL1NUX | 2026-09-05 00:56:59 | 51.45580 | 9.11515 | 79° | 115km/h | 14621m | -6.9m/s | -52.9°C | 3.7% | 133.8hPa | 2.6V | 08:07:17 | 02:38:58 | 00:00:00 | |
| HSKMA3-T | 2026-09-05 00:56:58 | 51.45605 | 9.11673 | 78° | 84km/h | 14594m | -7.6m/s | -52.7°C | 0.3% | 134.4hPa | 2.5V | 08:07:18 | 02:39:02 | 00:00:00 | |
| BIOWL1-15 | 2026-09-05 00:56:52 | 51.45572 | 9.11420 | 86° | 119km/h | 14634m | -7.1m/s | -53°C | 0.4% | 133.6hPa | 2.5V | 08:08:09 | 02:38:56 | 00:00:00 | |
| DL1NUX | 2026-09-05 00:56:49 | 51.45572 | 9.11108 | 72° | 95km/h | 14688m | -6.7m/s | -53.4°C | 3.9% | 132.5hPa | 2.6V | 08:07:27 | 02:38:48 | 00:00:00 | |
| HSKMA3-T | 2026-09-05 00:56:48 | 51.45578 | 9.11245 | 97° | 91km/h | 14659m | -7.1m/s | -53.2°C | 0.5% | 133.1hPa | 2.6V | 08:08:09 | 02:38:52 | 00:00:00 | |
| DJTTGO | 2026-09-05 00:56:47 | 51.45580 | 9.11210 | 93° | 82km/h | 14665m | -8.1m/s | -53.3°C | 1.3% | 132.9hPa | 2.5V | 00:00:00 | 00:00:00 | 00:00:00 | |
| DJ2KF-10 | 2026-09-05 00:56:44 | 51.45572 | 9.11108 | 73° | 108km/h | 14689m | -6.6m/s | -53.3°C | 3.9% | 132.5hPa | 2.5V | 00:00:00 | 02:38:48 | 00:00:00 | |
| DO3MHA-12 | 2026-09-05 00:56:43 | 51.45565 | 9.11071 | 73° | 102km/h | 14696m | -7.1m/s | -53.3°C | 3.9% | 132.3hPa | 2.5V | 00:00:00 | 02:38:47 | 00:00:00 | |
| DL3AQ-11 | 2026-09-05 00:56:42 | 51.45549 | 9.10987 | 74° | 115km/h | 14709m | -7.3m/s | -53.4°C | 1.3% | 132.0hPa | 2.5V | 00:00:00 | 00:00:00 | 00:00:00 | |
| AU51GT2 | 2026-09-05 00:56:40 | 51.45542 | 9.10940 | 76° | 122km/h | 14716m | -8.2m/s | -53.5°C | 1.4% | 131.9hPa | 2.5V | 00:00:00 | 00:00:00 | 00:00:00 | |
| DL1NUX | 2026-09-05 00:56:39 | 51.45531 | 9.10643 | 96° | 106km/h | 14758m | -7.2m/s | -53.7°C | 4% | 131.1hPa | 2.5V | 08:07:37 | 02:38:38 | 00:00:00 | |
| HSKMA3-T | 2026-09-05 00:56:37 | 51.45528 | 9.10789 | 87° | 130km/h | 14738m | -7.2m/s | -53.6°C | 0.5% | 131.5hPa | 2.6V | 08:08:09 | 02:38:41 | 00:00:00 | |
| BIOWL1-15 | 2026-09-05 00:56:34 | 51.45531 | 9.10643 | 96° | 106km/h | 14758m | -7.2m/s | -53.7°C | 0.6% | 131.1hPa | 2.5V | 08:08:09 | 02:38:38 | 00:00:00 | |
| DF7PN | 2026-09-05 00:56:32 | 51.45536 | 9.10527 | 86° | 86km/h | 14779m | -7.8m/s | -53.9°C | 1.4% | 130.7hPa | 2.5V | 00:00:00 | 00:00:00 | 00:00:00 | |
| SONCRA | 2026-09-05 00:56:30 | 51.45528 | 9.10455 | 74° | 95km/h | 14795m | -7.0m/s | -54.0°C | 1.4% | 130.4hPa | 2.5V | 00:00:00 | 00:00:00 | 00:00:00 | |
| DL1NUX | 2026-09-05 00:56:29 | 51.45493 | 9.10226 | 81° | 135km/h | 14832m | -7.7m/s | -53.6°C | 4% | 129.7hPa | 2.5V | 08:07:47 | 02:38:28 | 00:00:00 | |
| HSKMA3-T | 2026-09-05 00:56:26 | 51.45506 | 9.10327 | 76° | 124km/h | 14818m | -7m/s | -53.7°C | 0.6% | 129.9hPa | 2.6V | 08:08:09 | 02:38:30 | 00:00:00 | |
| BIOWL1-15 | 2026-09-05 00:56:24 | 51.45489 | 9.10066 | 93° | 128km/h | 14853m | -6.8m/s | -53.6°C | 0.6% | 129.3hPa | 2.6V | 08:08:09 | 02:38:25 | 00:00:00 | |
| EDDB2-11 | 2026-09-05 00:56:23 | 51.45489 | 9.10118 | 89° | 130km/h | 14846m | -7.4m/s | -53.6°C | 1.4% | 129.4hPa | 2.5V | 00:00:00 | 00:00:00 | 00:00:00 | |
| AM1SDL-15 | 2026-09-05 00:56:22 | 51.45488 | 9.10118 | 90° | 113km/h | 14846m | -7.3m/s | 0°C | 0% | 0hPa | 2.5V | 00:00:00 | 02:38:26 | 00:00:00 | |
| DL8OAI-8 | 2026-09-05 00:56:21 | 51.45489 | 9.10118 | 90° | 131km/h | 14846m | -7.4m/s | -53.6°C | 1.4% | 129.4hPa | 2.5V | 08:08:00 | 00:00:00 | 00:00:00 | |
| DO3MHA-12 | 2026-09-05 00:56:20 | 51.45491 | 9.10016 | 95° | 110km/h | 14861m | -7.8m/s | -53.5°C | 4.0% | 129.0hPa | 2.5V | 00:00:00 | 02:38:24 | 00:00:00 | |
| DL1NUX | 2026-09-05 00:56:19 | 51.45483 | 9.09770 | 74° | 104km/h | 14906m | -7.3m/s | -53.6°C | 4.1% | 128.2hPa | 2.5V | 08:07:57 | 02:38:18 | 00:00:00 | |
| HSKMA3-T | 2026-09-05 00:56:15 | 51.45490 | 9.09809 | 77° | 99km/h | 14899m | -6.9m/s | -53.6°C | 0.6% | 128.4hPa | 2.6V | 08:08:09 | 02:38:19 | 00:00:00 | |
| BIOWL1-15 | 2026-09-05 00:56:12 | 51.45466 | 9.09679 | 73° | 126km/h | 14921m | -7.8m/s | -53.7°C | 0.6% | 128hPa | 2.5V | 08:08:09 | 02:38:16 | 00:00:00 | |
| BIOWL9-15 | 2026-09-05 00:56:10 | 51.45437 | 9.09459 | 83° | 146km/h | 14954m | -7.7m/s | -53.8°C | 1.4% | 127.4hPa | 2.6V | 00:00:00 | 00:00:00 | 00:00:00 | |
| DL1NUX | 2026-09-05 00:56:09 | 51.45436 | 9.09231 | 95° | 130km/h | 14984m | -7.7m/s | -53.9°C | 4.1% | 126.7hPa | 2.6V | 08:08:07 | 02:38:08 | 00:00:00 | |
| HSKMA3-T | 2026-09-05 00:56:04 | 51.45436 | 9.09231 | 95° | 130km/h | 14984m | -7.7m/s | -53.9°C | 0.6% | 126.8hPa | 2.6V | 08:08:09 | 02:38:08 | 00:00:00 | |
| BIOWL1-15 | 2026-09-05 00:56:01 | 51.45443 | 9.09089 | 92° | 104km/h | 15005m | -6.6m/s | -53.9°C | 0.6% | 126.3hPa | 2.5V | 08:09:00 | 02:38:05 | 00:00:00 | |
| DF7PN | 2026-09-05 00:56:01 | 51.45443 | 9.09048 | 86° | 100km/h | 15012m | -6.6m/s | -54.0°C | 1.4% | 126.3hPa | 2.6V | 00:00:00 | 00:00:00 | 00:00:00 | |
| DL8OAI-8 | 2026-09-05 00:56:00 | 51.45443 | 9.09089 | 93° | 104km/h | 15005m | -6.6m/s | -53.9°C | 1.4% | 126.4hPa | 2.6V | 08:09:00 | 00:00:00 | 00:00:00 | |
| DL1NUX | 2026-09-05 00:55:59 | 51.45413 | 9.08761 | 86° | 139km/h | 15053m | -6.8m/s | -53.7°C | 4.1% | 125.5hPa | 2.6V | 08:08:17 | 02:37:58 | 00:00:00 | |
| HSKMA3-T | 2026-09-05 00:55:53 | 51.45413 | 9.08705 | 91° | 139km/h | 15060m | -6.9m/s | -53.6°C | 0.6% | 125.4hPa | 2.5V | 08:09:00 | 02:37:57 | 00:00:00 | |
| BIOWL1-15 | 2026-09-05 00:55:51 | 51.45417 | 9.08599 | 97° | 124km/h | 15074m | -7.6m/s | -53.3°C | 0.5% | 125.1hPa | 2.5V | 08:09:00 | 02:37:55 | 00:00:00 | |
| DO3MHA-11 | 2026-09-05 00:55:49 | 51.45425 | 9.08506 | 99° | 106km/h | 15089m | -7.6m/s | -53.1°C | 3.8% | 124.7hPa | 2.6V | 00:00:00 | 02:37:53 | 00:00:00 | |
| DL1NUX | 2026-09-05 00:55:47 | 51.45425 | 9.08313 | 79° | 100km/h | 15125m | -6.9m/s | -53.1°C | 3.8% | 124.1hPa | 2.6V | 08:08:27 | 02:37:48 | 00:00:00 | |
| DL3AQ-11 | 2026-09-05 00:55:46 | 51.45429 | 9.08351 | 82° | 93km/h | 15118m | -7.1m/s | -53.1°C | 1.2% | 124.2hPa | 2.5V | 00:00:00 | 00:00:00 | 00:00:00 | |
| HSKMA3-T | 2026-09-05 00:55:42 | 51.45416 | 9.08226 | 81° | 117km/h | 15139m | -6.8m/s | -53.2°C | 0.4% | 123.8hPa | 2.5V | 08:09:00 | 02:37:46 | 00:00:00 | |
| BIOWL1-15 | 2026-09-05 00:55:41 | 51.45412 | 9.08178 | 84° | 122km/h | 15146m | -6.5m/s | -53.2°C | 0.4% | 123.7hPa | 2.5V | 08:09:00 | 02:37:45 | 00:00:00 | |
| BIOWL9-15 | 2026-09-05 00:55:39 | 51.45413 | 9.08026 | 96° | 122km/h | 15167m | -7.1m/s | -53.1°C | 1.2% | 123.3hPa | 2.5V | 00:00:00 | 00:00:00 | 00:00:00 | |
| DL4BBY-15 | 2026-09-05 00:55:38 | 51.45413 | 9.08026 | 97° | 111km/h | 15167m | -7.0m/s | -53.2°C | 0% | 0hPa | 2.5V | 00:00:00 | 00:00:00 | 00:00:00 | |
| DO3MHA-12 | 2026-09-05 00:55:37 | 51.45417 | 9.07979 | 100° | 100km/h | 15174m | -7.2m/s | -53.0°C | 3.8% | 123.1hPa | 2.5V | 00:00:00 | 02:37:41 | 00:00:00 | |
| DL1NUX | 2026-09-05 00:55:36 | 51.45430 | 9.07859 | 95° | 88km/h | 15195m | -6.8m/s | -53.1°C | 3.8% | 122.7hPa | 2.5V | 08:08:37 | 02:37:38 | 00:00:00 | |
| HSKMA3-T | 2026-09-05 00:55:31 | 51.45427 | 9.07753 | 81° | 93km/h | 15217m | -7.6m/s | -52.9°C | 0.3% | 122.3hPa | 2.5V | 08:09:00 | 02:37:35 | 00:00:00 | |
| BIOWL1-15 | 2026-09-05 00:55:30 | 51.45423 | 9.07714 | 79° | 102km/h | 15225m | -8m/s | -52.9°C | 0.3% | 122.2hPa | 2.5V | 08:09:00 | 02:37:34 | 00:00:00 | |
| DF7PN | 2026-09-05 00:55:30 | 51.45418 | 9.07672 | 79° | 110km/h | 15233m | -7.4m/s | -52.9°C | 1.2% | 122.0hPa | 2.5V | 00:00:00 | 00:00:00 | 00:00:00 | |
| DO3MHA-11 | 2026-09-05 00:55:29 | 51.45418 | 9.07672 | 80° | 97km/h | 15233m | -7.4m/s | -52.9°C | 3.7% | 122.0hPa | 2.5V | 00:00:00 | 02:37:33 | 00:00:00 | |
| SONCRA | 2026-09-05 00:55:28 | 51.45408 | 9.07577 | 83° | 124km/h | 15248m | -7.5m/s | -53.0°C | 1.2% | 121.7hPa | 2.5V | 00:00:00 | 00:00:00 | 00:00:00 | |
| DO3MHA-12 | 2026-09-05 00:55:27 | 51.45408 | 9.07577 | 84° | 104km/h | 15248m | -7.5m/s | -53.0°C | 3.7% | 121.7hPa | 2.5V | 00:00:00 | 02:37:31 | 00:00:00 | |
| DL1NUX | 2026-09-05 00:55:26 | 51.45406 | 9.07419 | 93° | 131km/h | 15270m | -7.3m/s | -53.1°C | 3.7% | 121.3hPa | 2.5V | 08:08:47 | 02:37:28 | 00:00:00 | |
| HSKMA3-T | 2026-09-05 00:55:21 | 51.45419 | 9.07272 | 101° | 111km/h | 15292m | -6.7m/s | -53.3°C | 0.3% | 120.9hPa | 2.6V | 08:09:00 | 02:37:25 | 00:00:00 | |
| BIOWL1-15 | 2026-09-05 00:55:21 | 51.45427 | 9.07192 | 96° | 91km/h | 15306m | -6.6m/s | -53.4°C | 0.3% | 120.7hPa | 2.5V | 08:09:00 | 02:37:23 | 00:00:00 | |
| EDDB2-11 | 2026-09-05 00:55:21 | 51.45423 | 9.07230 | 99° | 99km/h | 15299m | -6.5m/s | -53.4°C | 1.2% | 120.8hPa | 2.6V | 00:00:00 | 00:00:00 | 00:00:00 | |
| DL8OAI-8 | 2026-09-05 00:55:19 | 51.45423 | 9.07230 | 101° | 100km/h | 15299m | -6.5m/s | -53.4°C | 1.2% | 120.8hPa | 2.6V | 08:09:00 | 00:00:00 | 00:00:00 | |
| DL3OBA | 2026-09-05 00:55:17 | 51.45428 | 9.07156 | 90° | 88km/h | 15313m | -6.9m/s | -53.5°C | 1.2% | 120.5hPa | 2.6V | 08:09:00 | 00:00:00 | 00:00:00 | |
| DO3MHA-12 | 2026-09-05 00:55:16 | 51.45423 | 9.07081 | 80° | 110km/h | 15327m | -7.5m/s | -53.3°C | 3.8% | 120.2hPa | 2.6V | 00:00:00 | 02:37:20 | 00:00:00 | |
| HARRO8 | 2026-09-05 00:55:15 | 51.45418 | 9.07040 | 78° | 108km/h | 15334m | -7.1m/s | -53.3°C | 1.2% | 120.1hPa | 2.5V | 00:00:00 | 00:00:00 | 00:00:00 | |
| DM0DOS-11 | 2026-09-05 00:55:13 | 51.45411 | 9.06740 | 98° | 122km/h | 15376m | -7.6m/s | 0°C | 0% | 0hPa | 2.5V | 00:00:00 | 02:37:13 | 00:00:00 | |
| BIOWL1-15 | 2026-09-05 00:55:13 | 51.45411 | 9.06740 | 98° | 122km/h | 15376m | -7.6m/s | -53.5°C | 0.3% | 119.3hPa | 2.5V | 08:09:51 | 02:37:13 | 00:00:00 | |
| DC6BW-12 | 2026-09-05 00:55:11 | 51.45406 | 9.06895 | 88° | 130km/h | 15355m | -6.6m/s | -53.5°C | 1.2% | 119.7hPa | 2.6V | 08:09:00 | 00:00:00 | 00:00:00 | |
| DB0DAN | 2026-09-05 00:55:10 | 51.45407 | 9.06790 | 95° | 122km/h | 15369m | -7.2m/s | 0°C | 0% | 0hPa | 2.6V | 00:00:00 | 00:00:00 | 00:00:00 | |
| HSKMA3-T | 2026-09-05 00:55:10 | 51.45407 | 9.06790 | 95° | 128km/h | 15369m | -7.2m/s | -53.5°C | 0.3% | 119.4hPa | 2.6V | 08:09:51 | 02:37:14 | 00:00:00 | |
| HSKMA3-T | 2026-09-05 00:54:59 | 51.45417 | 9.06321 | 88° | 124km/h | 15446m | -7.6m/s | -53.3°C | 0.3% | 118hPa | 2.6V | 08:09:51 | 02:37:03 | 00:00:00 | |
| BIOWL1-15 | 2026-09-05 00:54:58 | 51.45417 | 9.06271 | 92° | 126km/h | 15454m | -7.3m/s | -53.3°C | 0.3% | 117.9hPa | 2.5V | 08:09:51 | 02:37:02 | 00:00:00 | |
| DL3OBA | 2026-09-05 00:54:56 | 51.45419 | 9.06221 | 98° | 122km/h | 15461m | -7.5m/s | -53.3°C | 1.1% | 117.8hPa | 2.6V | 08:09:00 | 00:00:00 | 00:00:00 | |
| DL1NUX | 2026-09-05 00:54:55 | 51.45435 | 9.06086 | 104° | 102km/h | 15483m | -7.3m/s | -53.2°C | 3.8% | 117.3hPa | 2.6V | 08:09:17 | 02:36:58 | 00:00:00 | |
| HSKMA3-T | 2026-09-05 00:54:48 | 51.45458 | 9.05881 | 87° | 78km/h | 15530m | -7.9m/s | -53.2°C | 0.2% | 116.4hPa | 2.6V | 08:09:51 | 02:36:52 | 00:00:00 | |
| HARRO8 | 2026-09-05 00:54:44 | 51.45442 | 9.05736 | 79° | 108km/h | 15559m | -7.0m/s | -53.1°C | 1.1% | 116.0hPa | 2.6V | 00:00:00 | 00:00:00 | 00:00:00 | |
| BIOWL1-15 | 2026-09-05 00:54:43 | 51.45438 | 9.05692 | 83° | 113km/h | 15566m | -6.7m/s | -53°C | 0.1% | 115.8hPa | 2.6V | 08:09:51 | 02:36:47 | 00:00:00 | |
| DL3AQ-11 | 2026-09-05 00:54:42 | 51.45436 | 9.05646 | 86° | 115km/h | 15573m | -7.2m/s | -52.9°C | 1.1% | 115.7hPa | 2.6V | 00:00:00 | 00:00:00 | 00:00:00 | |
| DL1NUX | 2026-09-05 00:54:40 | 51.45443 | 9.05470 | 99° | 97km/h | 15602m | -7.3m/s | -52.7°C | 3.6% | 115.2hPa | 2.6V | 08:09:33 | 02:36:42 | 00:00:00 | |
| HSKMA3-T | 2026-09-05 00:54:37 | 51.45447 | 9.05433 | 100° | 86km/h | 15609m | -7.4m/s | -52.7°C | 0.1% | 115hPa | 2.6V | 08:09:51 | 02:36:41 | 00:00:00 | |
| BIOWL1-15 | 2026-09-05 00:54:33 | 51.45447 | 9.05315 | 75° | 71km/h | 15638m | -7.1m/s | -52.6°C | 0.1% | 114.5hPa | 2.6V | 08:09:51 | 02:36:37 | 00:00:00 | |
| DL1NUX | 2026-09-05 00:54:31 | 51.45415 | 9.05144 | 78° | 102km/h | 15676m | -7.6m/s | -52.5°C | 3.6% | 113.9hPa | 2.5V | 08:09:43 | 02:36:32 | 00:00:00 | |
| BIOWL1-15 | 2026-09-05 00:54:27 | 51.45418 | 9.04944 | 103° | 88km/h | 15712m | -7.2m/s | -52.5°C | 0% | 113.2hPa | 2.5V | 08:09:51 | 02:36:27 | 00:00:00 | |
| HSKMA3-T | 2026-09-05 00:54:26 | 51.45409 | 9.05061 | 89° | 104km/h | 15691m | -7.1m/s | -52.5°C | 0.1% | 113.6hPa | 2.6V | 08:09:51 | 02:36:30 | 00:00:00 | |
| DL3AQ-11 | 2026-09-05 00:54:26 | 51.45410 | 9.05019 | 94° | 100km/h | 15698m | -6.9m/s | -52.5°C | 1.0% | 113.5hPa | 2.5V | 00:00:00 | 00:00:00 | 00:00:00 | |
| SONCRA | 2026-09-05 00:54:25 | 51.45410 | 9.05019 | 94° | 100km/h | 15698m | -6.9m/s | -52.5°C | 1.0% | 113.5hPa | 2.5V | 00:00:00 | 00:00:00 | 00:00:00 | |
| DL1NUX | 2026-09-05 00:54:21 | 51.45433 | 9.04806 | 86° | 60km/h | 15750m | -7.2m/s | -52.4°C | 3.6% | 112.5hPa | 2.5V | 08:09:53 | 02:36:22 | 00:00:00 | |
| HSKMA3-T | 2026-09-05 00:54:15 | 51.45422 | 9.04722 | 76° | 84km/h | 15770m | -7.2m/s | -52.2°C | 0.1% | 112.2hPa | 2.6V | 08:10:42 | 02:36:19 | 00:00:00 | |
| DB0UT-7 | 2026-09-05 00:54:14 | 51.45417 | 9.04687 | 79° | 77km/h | 15777m | -7.2m/s | -52.0°C | 3.5% | 112.0hPa | 2.5V | 00:00:00 | 02:36:18 | 00:00:00 | |
| DL3AQ-11 | 2026-09-05 00:54:13 | 51.45412 | 9.04609 | 89° | 99km/h | 15792m | -8.1m/s | -52.0°C | 1.0% | 111.8hPa | 2.5V | 00:00:00 | 00:00:00 | 00:00:00 | |
| DL1NUX | 2026-09-05 00:54:11 | 51.45427 | 9.04465 | 106° | 77km/h | 15822m | -7.6m/s | -52°C | 3.5% | 111.3hPa | 2.5V | 08:10:03 | 02:36:12 | 00:00:00 | |
| BIOWL1-15 | 2026-09-05 00:54:11 | 51.45413 | 9.04570 | 95° | 99km/h | 15800m | -7.4m/s | -51.9°C | 0% | 111.7hPa | 2.6V | 08:10:42 | 02:36:15 | 00:00:00 | |
| HSKMA3-T | 2026-09-05 00:54:04 | 51.45440 | 9.04364 | 89° | 57km/h | 15854m | -8.1m/s | -52.1°C | 0.1% | 110.8hPa | 2.6V | 08:10:42 | 02:36:08 | 00:00:00 | |
| DJ2KF-10 | 2026-09-05 00:54:03 | 51.45438 | 9.04341 | 81° | 69km/h | 15862m | -7.7m/s | -52.0°C | 3.6% | 110.6hPa | 2.5V | 00:00:00 | 02:36:07 | 00:00:00 | |
| DL3AQ-11 | 2026-09-05 00:54:02 | 51.45430 | 9.04291 | 72° | 73km/h | 15877m | -7.4m/s | -52.1°C | 1.0% | 110.3hPa | 2.5V | 00:00:00 | 00:00:00 | 00:00:00 | |
| DL1NUX | 2026-09-05 00:54:01 | 51.45414 | 9.04189 | 82° | 97km/h | 15898m | -7.2m/s | -51.9°C | 3.6% | 110hPa | 2.5V | 08:10:13 | 02:36:02 | 00:00:00 | |
| BIOWL1-15 | 2026-09-05 00:54:00 | 51.45419 | 9.04227 | 77° | 91km/h | 15891m | -7.1m/s | -52.1°C | 0.1% | 110.1hPa | 2.6V | 08:10:42 | 02:36:03 | 00:00:00 | |
| HSKMA3-T | 2026-09-05 00:53:54 | 51.45420 | 9.04040 | 104° | 80km/h | 15927m | -7.9m/s | -51.8°C | 0% | 109.5hPa | 2.6V | 08:10:42 | 02:35:58 | 00:00:00 | |
| DL1NUX | 2026-09-05 00:53:51 | 51.45427 | 9.03899 | 69° | 57km/h | 15974m | -7.5m/s | -51.1°C | 3.3% | 108.7hPa | 2.6V | 08:10:23 | 02:35:52 | 00:00:00 | |
| BIOWL1-15 | 2026-09-05 00:53:48 | 51.45427 | 9.03899 | 69° | 57km/h | 15974m | -7.5m/s | -51.1°C | 0% | 108.7hPa | 2.6V | 08:10:42 | 02:35:52 | 00:00:00 | |
| HSKMA3-T | 2026-09-05 00:53:44 | 51.45401 | 9.03783 | 77° | 93km/h | 16003m | -7.3m/s | -51.2°C | 0% | 108.2hPa | 2.5V | 08:10:42 | 02:35:48 | 00:00:00 | |
| DB0UT-7 | 2026-09-05 00:53:44 | 51.45401 | 9.03783 | 77° | 84km/h | 16003m | -7.2m/s | -51.2°C | 3.3% | 108.2hPa | 2.6V | 00:00:00 | 00:00:00 | 00:00:00 | |
| HARRO8 | 2026-09-05 00:53:42 | 51.45395 | 9.03707 | 88° | 93km/h | 16018m | -7.3m/s | -51.2°C | 0.9% | 108.0hPa | 2.6V | 00:00:00 | 00:00:00 | 00:00:00 | |
| DL1NUX | 2026-09-05 00:53:41 | 51.45404 | 9.03578 | 97° | 62km/h | 16048m | -7.5m/s | -51.2°C | 3.3% | 107.5hPa | 2.6V | 08:10:33 | 02:35:42 | 00:00:00 | |
| BIOWL1-15 | 2026-09-05 00:53:38 | 51.45404 | 9.03578 | 98° | 62km/h | 16048m | -7.5m/s | -51.3°C | 0% | 107.5hPa | 2.6V | 08:10:42 | 02:35:42 | 00:00:00 | |
| HSKMA3-T | 2026-09-05 00:53:34 | 51.45393 | 9.03493 | 62° | 62km/h | 16077m | -7.7m/s | -51.4°C | 0% | 107hPa | 2.5V | 08:10:42 | 02:35:38 | 00:00:00 | |
| AU51GT2 | 2026-09-05 00:53:34 | 51.45385 | 9.03469 | 60° | 69km/h | 16085m | -7.9m/s | -51.4°C | 0.9% | 106.9hPa | 2.5V | 00:00:00 | 00:00:00 | 00:00:00 | |
| DL1NUX | 2026-09-05 00:53:33 | 51.45342 | 9.03306 | 76° | 100km/h | 16125m | -8m/s | -51.7°C | 3.3% | 106.2hPa | 2.5V | 08:10:43 | 02:35:32 | 00:00:00 | |
| BIOWL1-15 | 2026-09-05 00:53:27 | 51.45337 | 9.03267 | 81° | 100km/h | 16133m | -7.5m/s | -51.7°C | 0% | 106.1hPa | 2.6V | 08:11:33 | 02:35:31 | 00:00:00 | |
| HSKMA3-T | 2026-09-05 00:53:23 | 51.45337 | 9.03120 | 96° | 77km/h | 16163m | -7.7m/s | -51.9°C | 0% | 105.6hPa | 2.5V | 08:11:33 | 02:35:27 | 00:00:00 | |
| NBG1-10 | 2026-09-05 00:53:23 | 51.45337 | 9.03120 | 97° | 69km/h | 16164m | -7.7m/s | -51.9°C | 3.4% | 105.5hPa | 2.5V | 08:10:00 | 02:35:27 | 00:00:00 | |
| DL3AQ-11 | 2026-09-05 00:53:22 | 51.45339 | 9.03066 | 88° | 60km/h | 16179m | -7.8m/s | -52.1°C | 1.0% | 105.4hPa | 2.5V | 00:00:00 | 00:00:00 | 00:00:00 | |
| DL1NUX | 2026-09-05 00:53:21 | 51.45328 | 9.02995 | 65° | 68km/h | 16201m | -7.4m/s | -52.2°C | 3.5% | 105hPa | 2.5V | 08:10:53 | 02:35:22 | 00:00:00 | |
| BIOWL1-15 | 2026-09-05 00:53:17 | 51.45320 | 9.02968 | 64° | 78km/h | 16209m | -7.6m/s | -52.3°C | 0% | 104.9hPa | 2.5V | 08:11:33 | 02:35:21 | 00:00:00 | |
| HSKMA3-T | 2026-09-05 00:53:11 | 51.45282 | 9.02741 | 88° | 102km/h | 16253m | -8.4m/s | -52.6°C | 0% | 104.1hPa | 2.5V | 08:11:33 | 02:35:15 | 00:00:00 | |
| DL1NUX | 2026-09-05 00:53:11 | 51.45285 | 9.02627 | 94° | 82km/h | 16278m | -7.2m/s | -52.7°C | 3.6% | 103.7hPa | 2.5V | 08:11:03 | 02:35:12 | 00:00:00 | |
| BIOWL1-15 | 2026-09-05 00:53:09 | 51.45286 | 9.02596 | 92° | 75km/h | 16285m | -6.8m/s | -52.7°C | 0.1% | 103.6hPa | 2.5V | 08:11:33 | 02:35:11 | 00:00:00 | |
| DC6BW-12 | 2026-09-05 00:53:08 | 51.45283 | 9.02662 | 95° | 91km/h | 16270m | -7.9m/s | -52.6°C | 1.0% | 103.8hPa | 2.5V | 08:11:00 | 00:00:00 | 00:00:00 | |
| DB0UT-7 | 2026-09-05 00:53:07 | 51.45286 | 9.02596 | 93° | 75km/h | 16285m | -6.7m/s | -52.7°C | 3.6% | 103.6hPa | 2.5V | 00:00:00 | 02:35:11 | 00:00:00 | |
| DL3AQ-11 | 2026-09-05 00:53:06 | 51.45284 | 9.02541 | 81° | 62km/h | 16298m | -6.8m/s | -52.8°C | 1.0% | 103.4hPa | 2.6V | 00:00:00 | 00:00:00 | 00:00:00 | |
| DO3MHA-11 | 2026-09-05 00:53:05 | 51.45284 | 9.02541 | 82° | 73km/h | 16298m | -6.8m/s | -52.7°C | 3.6% | 103.4hPa | 2.6V | 00:00:00 | 02:35:09 | 00:00:00 | |
| BIOWL9-15 | 2026-09-05 00:53:04 | 51.45278 | 9.02492 | 75° | 60km/h | 16313m | -8.1m/s | -52.7°C | 1.0% | 103.2hPa | 2.6V | 00:00:00 | 00:00:00 | 00:00:00 | |
| AU51GT2 | 2026-09-05 00:53:03 | 51.45274 | 9.02469 | 76° | 58km/h | 16321m | -8.4m/s | -52.7°C | 1.0% | 103.0hPa | 2.6V | 00:00:00 | 00:00:00 | 00:00:00 | |
| DL1NUX | 2026-09-05 00:53:01 | 51.45272 | 9.02376 | 102° | 62km/h | 16354m | -7.6m/s | -52.6°C | 3.6% | 102.5hPa | 2.6V | 08:11:13 | 02:35:02 | 00:00:00 | |
| HSKMA3-T | 2026-09-05 00:53:00 | 51.45270 | 9.02422 | 87° | 57km/h | 16338m | -8.9m/s | -52.6°C | 0.1% | 102.8hPa | 2.5V | 08:11:33 | 02:35:04 | 00:00:00 | |
| BIOWL1-15 | 2026-09-05 00:52:56 | 51.45297 | 9.02217 | 99° | 97km/h | 16393m | -7.5m/s | -52.6°C | 0.1% | 101.8hPa | 2.6V | 08:11:33 | 02:34:57 | 00:00:00 | |
| DF7PN | 2026-09-05 00:52:54 | 51.45292 | 9.02254 | 102° | 91km/h | 16385m | -7.5m/s | -52.6°C | 1.0% | 102.0hPa | 2.6V | 00:00:00 | 00:00:00 | 00:00:00 | |
| DL3AQ-11 | 2026-09-05 00:52:53 | 51.45299 | 9.02177 | 93° | 99km/h | 16401m | -7.7m/s | -52.6°C | 1.0% | 101.8hPa | 2.6V | 00:00:00 | 00:00:00 | 00:00:00 | |
| SONCRA | 2026-09-05 00:52:52 | 51.45299 | 9.02177 | 93° | 99km/h | 16401m | -7.7m/s | -52.6°C | 1.0% | 101.8hPa | 2.6V | 00:00:00 | 00:00:00 | 00:00:00 | |
| DL1NUX | 2026-09-05 00:52:51 | 51.45288 | 9.02026 | 73° | 80km/h | 16430m | -6.9m/s | -52.6°C | 3.5% | 101.3hPa | 2.6V | 08:11:23 | 02:34:52 | 00:00:00 | |
| HSKMA3-T | 2026-09-05 00:52:49 | 51.45294 | 9.02060 | 77° | 89km/h | 16423m | -7.5m/s | -52.5°C | 0.1% | 101.4hPa | 2.5V | 08:11:33 | 02:34:53 | 00:00:00 | |
| BIOWL1-15 | 2026-09-05 00:52:45 | 51.45275 | 9.01950 | 82° | 53km/h | 16452m | -7.9m/s | -52.6°C | 0.1% | 101hPa | 2.5V | 08:11:33 | 02:34:49 | 00:00:00 | |
| DL3AQ-11 | 2026-09-05 00:52:42 | 51.45286 | 9.01859 | 111° | 71km/h | 16483m | -7.5m/s | -52.6°C | 1.0% | 100.5hPa | 2.5V | 00:00:00 | 00:00:00 | 00:00:00 | |
| DL1NUX | 2026-09-05 00:52:41 | 51.45306 | 9.01761 | 103° | 97km/h | 16506m | -7.5m/s | -52.5°C | 3.6% | 100.1hPa | 2.5V | 08:11:33 | 02:34:42 | 00:00:00 | |
| HSKMA3-T | 2026-09-05 00:52:38 | 51.45306 | 9.01761 | 104° | 97km/h | 16506m | -7.6m/s | -52.6°C | 0.1% | 100.1hPa | 2.5V | 08:11:33 | 02:34:42 | 00:00:00 | |
| BIOWL1-15 | 2026-09-05 00:52:34 | 51.45311 | 9.01603 | 82° | 93km/h | 16536m | -7.4m/s | -52.4°C | 0.1% | 99.7hPa | 2.5V | 08:12:24 | 02:34:38 | 00:00:00 | |
| HSKMA3-T | 2026-09-05 00:52:27 | 51.45301 | 9.01423 | 111° | 57km/h | 16591m | -7.8m/s | -52.4°C | 0.1% | 98.8hPa | 2.5V | 08:12:24 | 02:34:31 | 00:00:00 | |
| BIOWL1-15 | 2026-09-05 00:52:23 | 51.45341 | 9.01233 | 97° | 100km/h | 16636m | -7.9m/s | -52.7°C | 0.1% | 98.1hPa | 2.6V | 08:12:24 | 02:34:25 | 00:00:00 | |
| DL1NUX | 2026-09-05 00:52:21 | 51.45340 | 9.01117 | 81° | 89km/h | 16660m | -7.9m/s | -52.6°C | 3.5% | 97.8hPa | 2.5V | 08:11:53 | 02:34:22 | 00:00:00 | |
| HSKMA3-T | 2026-09-05 00:52:16 | 51.45332 | 9.01053 | 75° | 69km/h | 16675m | -7.5m/s | -52.7°C | 0.1% | 97.5hPa | 2.5V | 08:12:24 | 02:34:20 | 00:00:00 | |
| BIOWL1-15 | 2026-09-05 00:52:12 | 51.45324 | 9.00966 | 100° | 47km/h | 16707m | -8.1m/s | -52.9°C | 0.1% | 97hPa | 2.5V | 08:12:24 | 02:34:16 | 00:00:00 | |
| HSKMA3-T | 2026-09-05 00:52:05 | 51.45360 | 9.00766 | 91° | 93km/h | 16761m | -7.2m/s | -53.2°C | 0.2% | 96.2hPa | 2.5V | 08:12:24 | 02:34:09 | 00:00:00 | |
| BIOWL1-15 | 2026-09-05 00:52:04 | 51.45339 | 9.00601 | 76° | 44km/h | 16808m | -8.1m/s | -53°C | 0.2% | 95.5hPa | 2.6V | 08:12:24 | 02:34:03 | 00:00:00 | |
| DJ2KF-10 | 2026-09-05 00:52:03 | 51.45356 | 9.00696 | 79° | 71km/h | 16776m | -7.9m/s | -53.2°C | 3.7% | 96.0hPa | 2.6V | 00:00:00 | 02:34:07 | 00:00:00 | |
| DL3AQ-11 | 2026-09-05 00:52:02 | 51.45347 | 9.00642 | 72° | 60km/h | 16792m | -8.1m/s | -53.1°C | 1.0% | 95.8hPa | 2.6V | 00:00:00 | 00:00:00 | 00:00:00 | |
| DL1NUX | 2026-09-05 00:52:01 | 51.45338 | 9.00585 | 84° | 38km/h | 16816m | -8.5m/s | -53°C | 3.6% | 95.4hPa | 2.6V | 08:12:13 | 02:34:02 | 00:00:00 | |
| HSKMA3-T | 2026-09-05 00:51:55 | 51.45344 | 9.00538 | 113° | 47km/h | 16840m | -7.3m/s | -53°C | 0.2% | 95hPa | 2.5V | 08:12:24 | 02:33:59 | 00:00:00 | |
| BIOWL1-15 | 2026-09-05 00:51:52 | 51.45360 | 9.00465 | 104° | 78km/h | 16861m | -7.1m/s | -53°C | 0.1% | 94.7hPa | 2.5V | 08:12:24 | 02:33:56 | 00:00:00 | |
| DK9SH | 2026-09-05 00:51:51 | 51.45360 | 9.00465 | 105° | 78km/h | 16861m | -7.1m/s | -53.0°C | 1.0% | 94.7hPa | 2.6V | 08:12:00 | 00:00:00 | 00:00:00 | |
| DL1NUX | 2026-09-05 00:51:50 | 51.45362 | 9.00329 | 79° | 86km/h | 16895m | -8.9m/s | -53.4°C | 3.6% | 94.3hPa | 2.6V | 08:12:23 | 02:33:52 | 00:00:00 | |
| HSKMA3-T | 2026-09-05 00:51:45 | 51.45344 | 9.00239 | 64° | 68km/h | 16920m | -8m/s | -53.6°C | 0.2% | 93.9hPa | 2.5V | 08:14:06 | 02:33:49 | 00:00:00 | |
| BIOWL1-15 | 2026-09-05 00:51:41 | 51.45323 | 9.00157 | 97° | 37km/h | 16959m | -8.2m/s | -53.6°C | 0.2% | 93.3hPa | 2.5V | 08:14:06 | 02:33:44 | 00:00:00 | |
| HSKMA3-T | 2026-09-05 00:51:34 | 51.45338 | 9.00005 | 89° | 86km/h | 17008m | -8.6m/s | -53.9°C | 0.2% | 92.6hPa | 2.5V | 08:14:06 | 02:33:38 | 00:00:00 | |
| DL1ZP-14 | 2026-09-05 00:51:34 | 51.45336 | 8.99970 | 82° | 88km/h | 17017m | -9.2m/s | -53.9°C | 1.1% | 92.5hPa | 2.5V | 00:00:00 | 00:00:00 | 00:00:00 | |
| DL3AQ-11 | 2026-09-05 00:51:33 | 51.45332 | 8.99934 | 78° | 89km/h | 17026m | -8.8m/s | -54.0°C | 1.0% | 92.3hPa | 2.5V | 00:00:00 | 00:00:00 | 00:00:00 | |
| DL3OBA | 2026-09-05 00:51:31 | 51.45332 | 8.99934 | 79° | 89km/h | 17026m | -8.8m/s | -54.0°C | 1.0% | 92.3hPa | 2.5V | 08:13:00 | 00:00:00 | 00:00:00 | |
| DL1NUX | 2026-09-05 00:51:30 | 51.45301 | 8.99811 | 56° | 69km/h | 17058m | -7.7m/s | -54.2°C | 3.8% | 91.9hPa | 2.5V | 08:12:43 | 02:33:32 | 00:00:00 | |
| BIOWL1-15 | 2026-09-05 00:51:30 | 51.45310 | 8.99837 | 61° | 78km/h | 17051m | -7.5m/s | -54.1°C | 0.3% | 92hPa | 2.5V | 08:14:06 | 02:33:33 | 00:00:00 | |
| DJ2KF-10 | 2026-09-05 00:51:28 | 51.45301 | 8.99812 | 57° | 80km/h | 17059m | -7.7m/s | -54.1°C | 3.8% | 91.8hPa | 2.5V | 00:00:00 | 02:33:32 | 00:00:00 | |
| DB0UT-7 | 2026-09-05 00:51:27 | 51.45292 | 8.99790 | 55° | 71km/h | 17066m | -7.9m/s | -54.1°C | 3.8% | 91.7hPa | 2.5V | 08:12:00 | 00:00:00 | 00:00:00 | |
| DB0ND-19 | 2026-09-05 00:51:26 | 51.45284 | 8.99772 | 57° | 47km/h | 17074m | -8.2m/s | -54.2°C | 1.1% | 91.7hPa | 2.5V | 00:00:00 | 00:00:00 | 00:00:00 | |
| DC6BW-12 | 2026-09-05 00:51:25 | 51.45284 | 8.99772 | 58° | 49km/h | 17075m | -8.2m/s | -54.2°C | 1.1% | 91.7hPa | 2.5V | 08:13:00 | 00:00:00 | 00:00:00 | |
| DL1NUX | 2026-09-05 00:51:23 | 51.45286 | 8.99596 | 94° | 88km/h | 17141m | -7.7m/s | -54.5°C | 3.8% | 90.7hPa | 2.5V | 08:12:53 | 02:33:22 | 00:00:00 | |
| HSKMA3-T | 2026-09-05 00:51:22 | 51.45274 | 8.99706 | 98° | 49km/h | 17108m | -8.4m/s | -54.4°C | 0.2% | 91.2hPa | 2.5V | 08:14:06 | 02:33:26 | 00:00:00 | |
| BIOWL1-15 | 2026-09-05 00:51:19 | 51.45284 | 8.99629 | 99° | 78km/h | 17133m | -8.3m/s | -54.5°C | 0.2% | 90.8hPa | 2.5V | 08:14:06 | 02:33:23 | 00:00:00 | |
| BIOWL1-15 | 2026-09-05 00:51:13 | 51.45253 | 8.99164 | 104° | 88km/h | 17263m | -8.7m/s | -55.1°C | 0.4% | 89hPa | 2.6V | 08:14:06 | 02:33:07 | 00:00:00 | |
| DL1NUX | 2026-09-05 00:51:12 | 51.45234 | 8.99290 | 85° | 46km/h | 17222m | -7.5m/s | -55°C | 4.1% | 89.6hPa | 2.5V | 08:13:03 | 02:33:12 | 00:00:00 | |
| HSKMA3-T | 2026-09-05 00:51:11 | 51.45249 | 8.99354 | 63° | 71km/h | 17198m | -8.3m/s | -54.8°C | 0.4% | 89.9hPa | 2.5V | 08:14:06 | 02:33:15 | 00:00:00 | |
| HARRO8 | 2026-09-05 00:51:07 | 51.45237 | 8.99249 | 106° | 58km/h | 17237m | -8.2m/s | -55.1°C | 1.1% | 89.3hPa | 2.5V | 00:00:00 | 00:00:00 | 00:00:00 | |
| DC6BW-12 | 2026-09-05 00:51:05 | 51.45242 | 8.99225 | 109° | 69km/h | 17246m | -8.6m/s | -55.1°C | 1.2% | 89.2hPa | 2.5V | 08:13:00 | 00:00:00 | 00:00:00 | |
| DL1ZP-14 | 2026-09-05 00:51:03 | 51.45258 | 8.99128 | 100° | 93km/h | 17271m | -8.5m/s | -55.1°C | 1.2% | 88.8hPa | 2.5V | 00:00:00 | 00:00:00 | 00:00:00 | |
| DL1NUX | 2026-09-05 00:51:02 | 51.45258 | 8.98972 | 77° | 93km/h | 17304m | -8m/s | -54.9°C | 4% | 88.4hPa | 2.6V | 08:13:13 | 02:33:02 | 00:00:00 | |
| HSKMA3-T | 2026-09-05 00:51:01 | 51.45261 | 8.99090 | 96° | 97km/h | 17280m | -8.4m/s | -55.1°C | 0.3% | 88.8hPa | 2.5V | 08:14:06 | 02:33:05 | 00:00:00 | |
| BIOWL1-15 | 2026-09-05 00:50:53 | 51.45234 | 8.98844 | 88° | 44km/h | 17344m | -8m/s | -54.8°C | 0.3% | 87.8hPa | 2.6V | 08:14:06 | 02:32:57 | 00:00:00 | |
| DL3AQ-11 | 2026-09-05 00:50:53 | 51.45235 | 8.98826 | 102° | 44km/h | 17352m | -8.6m/s | -54.8°C | 1.1% | 87.8hPa | 2.6V | 00:00:00 | 00:00:00 | 00:00:00 | |
| DL1NUX | 2026-09-05 00:50:52 | 51.45259 | 8.98736 | 112° | 78km/h | 17386m | -8m/s | -54.8°C | 4% | 87.3hPa | 2.6V | 08:13:23 | 02:32:52 | 00:00:00 | |
| HSKMA3-T | 2026-09-05 00:50:51 | 51.45239 | 8.98808 | 112° | 51km/h | 17361m | -8.9m/s | -54.8°C | 0.3% | 87.6hPa | 2.5V | 08:14:06 | 02:32:55 | 00:00:00 | |
| DF7PN | 2026-09-05 00:50:50 | 51.45245 | 8.98787 | 115° | 58km/h | 17370m | -8.8m/s | -54.8°C | 1.1% | 87.5hPa | 2.6V | 00:00:00 | 00:00:00 | 00:00:00 | |
| SONCRA | 2026-09-05 00:50:48 | 51.45259 | 8.98736 | 112° | 77km/h | 17387m | -8.0m/s | -54.8°C | 1.1% | 87.3hPa | 2.6V | 00:00:00 | 00:00:00 | 00:00:00 | |
| BIOWL1-15 | 2026-09-05 00:50:43 | 51.45273 | 8.98560 | 81° | 84km/h | 17427m | -7.6m/s | -54.8°C | 0.4% | 86.7hPa | 2.6V | 08:14:06 | 02:32:47 | 00:00:00 | |
| DL1NUX | 2026-09-05 00:50:42 | 51.45253 | 8.98445 | 82° | 37km/h | 17467m | -8.9m/s | -54.9°C | 4.1% | 86.2hPa | 2.5V | 08:13:33 | 02:32:42 | 00:00:00 | |
| HSKMA3-T | 2026-09-05 00:50:41 | 51.45264 | 8.98502 | 71° | 64km/h | 17442m | -8m/s | -54.9°C | 0.4% | 86.5hPa | 2.5V | 08:14:06 | 02:32:45 | 00:00:00 | |
| BIOWL1-15 | 2026-09-05 00:50:33 | 51.45275 | 8.98369 | 124° | 62km/h | 17510m | -8.5m/s | -54.8°C | 0.4% | 85.5hPa | 2.5V | 08:14:06 | 02:32:37 | 00:00:00 | |
| HSKMA3-T | 2026-09-05 00:50:30 | 51.45299 | 8.98289 | 106° | 80km/h | 17535m | -7.9m/s | -54.8°C | 0.4% | 85.3hPa | 2.5V | 08:14:06 | 02:32:34 | 00:00:00 | |
| BIOWL1-15 | 2026-09-05 00:50:25 | 51.45287 | 8.98090 | 64° | 49km/h | 17595m | -9m/s | -54.4°C | 0.3% | 84.4hPa | 2.5V | 08:14:06 | 02:32:27 | 00:00:00 | |
| DJ2KF-10 | 2026-09-05 00:50:24 | 51.45293 | 8.98110 | 68° | 57km/h | 17586m | -9.1m/s | -54.3°C | 3.8% | 84.5hPa | 2.5V | 00:00:00 | 02:32:28 | 00:00:00 | |
| NBG1-10 | 2026-09-05 00:50:23 | 51.45287 | 8.98090 | 64° | 31km/h | 17595m | -8.9m/s | -54.4°C | 3.9% | 84.4hPa | 2.5V | 00:00:00 | 02:32:27 | 00:00:00 | |
| DL1NUX | 2026-09-05 00:50:22 | 51.45280 | 8.98037 | 130° | 29km/h | 17636m | -8.1m/s | -54.5°C | 3.9% | 83.8hPa | 2.5V | 08:13:53 | 02:32:22 | 00:00:00 | |
| HSKMA3-T | 2026-09-05 00:50:20 | 51.45276 | 8.98053 | 82° | 20km/h | 17620m | -8.2m/s | -54.5°C | 0.3% | 84.1hPa | 2.6V | 08:14:06 | 02:32:24 | 00:00:00 | |
| BIOWL1-15 | 2026-09-05 00:50:13 | 51.45313 | 8.97917 | 92° | 71km/h | 17687m | -8.6m/s | -54.3°C | 0.3% | 83.3hPa | 2.5V | 08:14:06 | 02:32:16 | 00:00:00 | |
| DL1NUX | 2026-09-05 00:50:12 | 51.45295 | 8.97813 | 56° | 58km/h | 17721m | -8.7m/s | -54.3°C | 3.8% | 82.8hPa | 2.5V | 08:14:03 | 02:32:12 | 00:00:00 | |
| HSKMA3-T | 2026-09-05 00:50:09 | 51.45303 | 8.97835 | 65° | 66km/h | 17713m | -8.7m/s | -54.3°C | 0.2% | 82.9hPa | 2.6V | 08:14:06 | 02:32:13 | 00:00:00 | |
| BIOWL1-15 | 2026-09-05 00:50:03 | 51.45268 | 8.97743 | 118° | 31km/h | 17780m | -7.7m/s | -54.2°C | 0.2% | 82.1hPa | 2.5V | 08:14:57 | 02:32:05 | 00:00:00 | |
| DL1NUX | 2026-09-05 00:50:02 | 51.45280 | 8.97688 | 99° | 62km/h | 17804m | -8.7m/s | -54.2°C | 3.8% | 81.7hPa | 2.5V | 08:14:13 | 02:32:02 | 00:00:00 | |
| HSKMA3-T | 2026-09-05 00:49:58 | 51.45280 | 8.97688 | 100° | 62km/h | 17804m | -8.7m/s | -54.2°C | 0.2% | 81.7hPa | 2.5V | 08:14:57 | 02:32:02 | 00:00:00 | |
| AU51GT2 | 2026-09-05 00:49:57 | 51.45280 | 8.97634 | 83° | 69km/h | 17822m | -8.6m/s | -54.2°C | 1.0% | 81.5hPa | 2.5V | 00:00:00 | 00:00:00 | 00:00:00 | |
| DO1YAY-16 | 2026-09-05 00:49:56 | 51.45277 | 8.97606 | 74° | 71km/h | 17830m | -8.9m/s | -54.3°C | 1.0% | 81.4hPa | 2.5V | 00:00:00 | 00:00:00 | 00:00:00 | |
| DB0ND-19 | 2026-09-05 00:49:53 | 51.45262 | 8.97553 | 57° | 68km/h | 17848m | -8.8m/s | -54.4°C | 1.1% | 81.2hPa | 2.5V | 00:00:00 | 00:00:00 | 00:00:00 | |
| DJ2KF-10 | 2026-09-05 00:49:52 | 51.45252 | 8.97532 | 50° | 66km/h | 17857m | -8.3m/s | -54.4°C | 3.9% | 81.0hPa | 2.5V | 08:14:00 | 02:31:56 | 00:00:00 | |
| DL1NUX | 2026-09-05 00:49:51 | 51.45220 | 8.97487 | 54° | 20km/h | 17890m | -8.4m/s | -54.6°C | 3.9% | 80.6hPa | 2.6V | 08:14:23 | 02:31:52 | 00:00:00 | |
| BIOWL1-15 | 2026-09-05 00:49:51 | 51.45242 | 8.97515 | 42° | 55km/h | 17865m | -8.3m/s | -54.5°C | 0.3% | 80.9hPa | 2.5V | 08:14:57 | 02:31:55 | 00:00:00 | |
| DL1XH-west | 2026-09-05 00:49:49 | 51.45225 | 8.97494 | 36° | 31km/h | 17881m | -8.2m/s | 0°C | 0% | 0hPa | 2.6V | 18:12:15 | 02:31:53 | 00:00:00 | |
| HSKMA3-T | 2026-09-05 00:49:48 | 51.45220 | 8.97487 | 55° | 20km/h | 17890m | -8.4m/s | -54.6°C | 0.4% | 80.6hPa | 2.6V | 08:14:57 | 02:31:52 | 00:00:00 | |
| DF7PN | 2026-09-05 00:49:48 | 51.45218 | 8.97479 | 89° | 20km/h | 17898m | -8.3m/s | -54.7°C | 1.1% | 80.5hPa | 2.5V | 00:00:00 | 00:00:00 | 00:00:00 | |
| DL3AQ-11 | 2026-09-05 00:49:46 | 51.45222 | 8.97454 | 108° | 42km/h | 17915m | -8.3m/s | -54.7°C | 1.1% | 80.3hPa | 2.5V | 00:00:00 | 00:00:00 | 00:00:00 | |
| BIOWL1-15 | 2026-09-05 00:49:44 | 51.45225 | 8.97321 | 75° | 80km/h | 17960m | -9m/s | -54.9°C | 0.4% | 79.7hPa | 2.5V | 08:14:57 | 02:31:44 | 00:00:00 | |
| DO9LL-15 | 2026-09-05 00:49:42 | 51.45230 | 8.97383 | 91° | 55km/h | 17941m | -9.1m/s | -54.8°C | 3.9% | 79.9hPa | 2.5V | 00:00:00 | 02:31:46 | 00:00:00 | |
| DD1CC8 | 2026-09-05 00:49:41 | 51.45229 | 8.97353 | 83° | 77km/h | 17951m | -9.3m/s | -54.8°C | 1.1% | 79.9hPa | 2.6V | 00:00:00 | 00:00:00 | 00:00:00 | |
| DL1NUX | 2026-09-05 00:49:40 | 51.45210 | 8.97263 | 58° | 75km/h | 17976m | -8m/s | -54.9°C | 4% | 79.5hPa | 2.6V | 08:14:33 | 02:31:42 | 00:00:00 | |
| HSKMA3-T | 2026-09-05 00:49:38 | 51.45210 | 8.97263 | 59° | 75km/h | 17976m | -8m/s | -54.9°C | 0.3% | 79.5hPa | 2.6V | 08:14:57 | 02:31:42 | 00:00:00 | |
| WPPR-10 | 2026-09-05 00:49:37 | 51.45200 | 8.97240 | 50° | 66km/h | 17984m | -8.0m/s | -54.9°C | 1.1% | 79.4hPa | 2.6V | 00:00:00 | 00:00:00 | 00:00:00 | |
| DL3AQ-11 | 2026-09-05 00:49:33 | 51.45171 | 8.97177 | 97° | 27km/h | 18027m | -8.6m/s | -54.9°C | 1.1% | 78.9hPa | 2.6V | 00:00:00 | 00:00:00 | 00:00:00 | |
| DL1NUX | 2026-09-05 00:49:29 | 51.45188 | 8.97103 | 107° | 69km/h | 18062m | -8.5m/s | -54.9°C | 3.9% | 78.4hPa | 2.6V | 08:14:43 | 02:31:32 | 00:00:00 | |
| BIOWL1-15 | 2026-09-05 00:49:29 | 51.45183 | 8.97127 | 112° | 60km/h | 18053m | -8.6m/s | -54.9°C | 0.3% | 78.6hPa | 2.5V | 08:14:57 | 02:31:33 | 00:00:00 | |
| HSKMA3-T | 2026-09-05 00:49:27 | 51.45193 | 8.97074 | 101° | 77km/h | 18070m | -8.4m/s | -54.9°C | 0.3% | 78.4hPa | 2.6V | 08:14:57 | 02:31:31 | 00:00:00 | |
| DB0UT-7 | 2026-09-05 00:49:27 | 51.45192 | 8.97074 | 102° | 51km/h | 18070m | -8.4m/s | -54.8°C | 3.9% | 78.3hPa | 2.6V | 00:00:00 | 00:00:00 | 00:00:00 | |
| BIOWL9-15 | 2026-09-05 00:49:26 | 51.45195 | 8.97010 | 84° | 82km/h | 18087m | -8.1m/s | -55.0°C | 1.1% | 78.2hPa | 2.6V | 00:00:00 | 00:00:00 | 00:00:00 | |
| DO1YAY-16 | 2026-09-05 00:49:25 | 51.45191 | 8.96977 | 76° | 78km/h | 18095m | -8.1m/s | -55.0°C | 1.1% | 78.1hPa | 2.6V | 00:00:00 | 00:00:00 | 00:00:00 | |
| DL1NUX | 2026-09-05 00:49:23 | 51.45157 | 8.96855 | 104° | 22km/h | 18153m | -9.1m/s | -55.3°C | 4% | 77.4hPa | 2.6V | 08:14:54 | 02:31:21 | 00:00:00 | |
| BIOWL1-15 | 2026-09-05 00:49:18 | 51.45157 | 8.96864 | 76° | 24km/h | 18144m | -8.9m/s | -55.3°C | 0.4% | 77.5hPa | 2.5V | 08:14:57 | 02:31:22 | 00:00:00 | |
| HSKMA3-T | 2026-09-05 00:49:17 | 51.45157 | 8.96855 | 105° | 22km/h | 18153m | -9.1m/s | -55.3°C | 0.4% | 77.4hPa | 2.6V | 08:14:57 | 02:31:21 | 00:00:00 | |
| SONCRA | 2026-09-05 00:49:15 | 51.45171 | 8.96820 | 125° | 47km/h | 18179m | -8.4m/s | -55.0°C | 1.1% | 77.0hPa | 2.5V | 00:00:00 | 00:00:00 | 00:00:00 | |
| DO9LL-15 | 2026-09-05 00:49:12 | 51.45185 | 8.96779 | 111° | 60km/h | 18195m | -7.6m/s | -55.0°C | 4.0% | 76.8hPa | 2.5V | 00:00:00 | 02:31:16 | 00:00:00 | |
| DL1NUX | 2026-09-05 00:49:11 | 51.45180 | 8.96636 | 66° | 68km/h | 18237m | -9.4m/s | -55.3°C | 4% | 76.4hPa | 2.5V | 08:30:00 | 02:31:11 | 00:00:00 | |
| BIOWL1-15 | 2026-09-05 00:49:08 | 51.45147 | 8.96550 | 124° | 22km/h | 18299m | -8.3m/s | -55.6°C | 0.4% | 75.6hPa | 2.6V | 08:15:48 | 02:31:04 | 00:00:00 | |
| HSKMA3-T | 2026-09-05 00:49:06 | 51.45173 | 8.96613 | 59° | 60km/h | 18247m | -9.2m/s | -55.4°C | 0.4% | 76.2hPa | 2.6V | 08:15:48 | 02:31:10 | 00:00:00 | |
| WPPR-10 | 2026-09-05 00:49:06 | 51.45173 | 8.96613 | 59° | 60km/h | 18247m | -9.2m/s | -55.4°C | 1.1% | 76.2hPa | 2.5V | 00:00:00 | 00:00:00 | 00:00:00 | |
| DK9SH | 2026-09-05 00:49:05 | 51.45173 | 8.96613 | 60° | 60km/h | 18247m | -9.2m/s | 0°C | 0% | 0hPa | 2.5V | 00:00:00 | 00:00:00 | 00:00:00 | |
| DC6BW-12 | 2026-09-05 00:49:02 | 51.45151 | 8.96569 | 44° | 31km/h | 18274m | -8.9m/s | -55.6°C | 1.1% | 75.9hPa | 2.5V | 08:15:00 | 00:00:00 | 00:00:00 | |
| DL1NUX | 2026-09-05 00:49:00 | 51.45162 | 8.96510 | 114° | 55km/h | 18325m | -8.4m/s | -55.6°C | 4.1% | 75.3hPa | 2.5V | 08:30:00 | 02:31:01 | 00:00:00 | |
| BIOWL1-15 | 2026-09-05 00:48:57 | 51.45170 | 8.96461 | 96° | 69km/h | 18342m | -8.6m/s | -55.7°C | 0.4% | 75.1hPa | 2.6V | 08:15:48 | 02:30:59 | 00:00:00 | |
| HSKMA3-T | 2026-09-05 00:48:56 | 51.45167 | 8.96487 | 106° | 64km/h | 18333m | -8.5m/s | -55.7°C | 0.3% | 75.2hPa | 2.6V | 08:15:48 | 02:31:00 | 00:00:00 | |
| DO1YAY-16 | 2026-09-05 00:48:54 | 51.45168 | 8.96402 | 77° | 73km/h | 18360m | -9.2m/s | -55.8°C | 1.1% | 74.9hPa | 2.5V | 00:00:00 | 00:00:00 | 00:00:00 | |
| DL3AQ-11 | 2026-09-05 00:48:53 | 51.45163 | 8.96374 | 69° | 73km/h | 18369m | -9.0m/s | -55.9°C | 1.1% | 74.8hPa | 2.5V | 00:00:00 | 00:00:00 | 00:00:00 | |
| DB0ND-19 | 2026-09-05 00:48:51 | 51.45156 | 8.96347 | 61° | 69km/h | 18377m | -8.7m/s | -55.9°C | 1.1% | 74.7hPa | 2.5V | 00:00:00 | 00:00:00 | 00:00:00 | |
| DL1NUX | 2026-09-05 00:48:50 | 51.45118 | 8.96281 | 38° | 37km/h | 18412m | -8.8m/s | -56°C | 4.3% | 74.3hPa | 2.5V | 08:30:00 | 02:30:51 | 00:00:00 | |
| HSKMA3-T | 2026-09-05 00:48:46 | 51.45112 | 8.96272 | 46° | 27km/h | 18421m | -8.7m/s | -56°C | 0.5% | 74.2hPa | 2.5V | 08:15:48 | 02:30:50 | 00:00:00 | |
| DF7PN | 2026-09-05 00:48:46 | 51.45109 | 8.96264 | 70° | 20km/h | 18429m | -8.3m/s | -56.0°C | 1.1% | 74.1hPa | 2.6V | 00:00:00 | 00:00:00 | 00:00:00 | |
| BIOWL1-15 | 2026-09-05 00:48:38 | 51.45125 | 8.96059 | 76° | 86km/h | 18510m | -8.5m/s | -56.2°C | 0.5% | 73.1hPa | 2.6V | 08:15:48 | 02:30:40 | 00:00:00 | |
| HSKMA3-T | 2026-09-05 00:48:35 | 51.45118 | 8.96027 | 68° | 84km/h | 18518m | -8.3m/s | -56.2°C | 0.5% | 73hPa | 2.5V | 08:15:48 | 02:30:39 | 00:00:00 | |
| BIOWL1-15 | 2026-09-05 00:48:27 | 51.45071 | 8.95884 | 109° | 40km/h | 18586m | -8.8m/s | -55.8°C | 0.4% | 72.3hPa | 2.5V | 08:15:48 | 02:30:31 | 00:00:00 | |
| HSKMA3-T | 2026-09-05 00:48:25 | 51.45081 | 8.95846 | 113° | 64km/h | 18603m | -8.5m/s | -55.9°C | 0.4% | 72.1hPa | 2.5V | 08:15:48 | 02:30:29 | 00:00:00 | |
| BIOWL9-15 | 2026-09-05 00:48:24 | 51.45093 | 8.95789 | 104° | 82km/h | 18621m | -9.1m/s | -56.0°C | 1.1% | 71.9hPa | 2.5V | 00:00:00 | 00:00:00 | 00:00:00 | |
| DL1NUX | 2026-09-05 00:48:23 | 51.45100 | 8.95718 | 93° | 95km/h | 18639m | -9.2m/s | -56.2°C | 4.2% | 71.7hPa | 2.5V | 08:30:00 | 02:30:25 | 00:00:00 | |
| BIOWL1-15 | 2026-09-05 00:48:16 | 51.45077 | 8.95544 | 64° | 68km/h | 18682m | -7.5m/s | -56.4°C | 0.6% | 71.2hPa | 2.6V | 08:16:39 | 02:30:20 | 00:00:00 | |
| HSKMA3-T | 2026-09-05 00:48:15 | 51.45070 | 8.95522 | 64° | 55km/h | 18690m | -7.6m/s | -56.5°C | 0.6% | 71.1hPa | 2.5V | 08:16:39 | 02:30:19 | 00:00:00 | |
| BIOWL1-15 | 2026-09-05 00:48:06 | 51.45106 | 8.95307 | 102° | 99km/h | 18771m | -8.6m/s | -55.7°C | 0.5% | 70.2hPa | 2.5V | 08:16:39 | 02:30:10 | 00:00:00 | |
| EDDB2-11 | 2026-09-05 00:48:06 | 51.45106 | 8.95307 | 102° | 99km/h | 18771m | -8.6m/s | -55.7°C | 1.1% | 70.2hPa | 2.5V | 00:00:00 | 00:00:00 | 00:00:00 | |
| DL1NUX | 2026-09-05 00:48:05 | 51.45092 | 8.95095 | 68° | 64km/h | 18825m | -9.6m/s | -55.4°C | 4.1% | 69.6hPa | 2.5V | 08:30:00 | 02:30:04 | 00:00:00 | |
| HSKMA3-T | 2026-09-05 00:48:03 | 51.45108 | 8.95188 | 82° | 93km/h | 18797m | -9.1m/s | -55.6°C | 0.5% | 69.9hPa | 2.6V | 08:16:39 | 02:30:07 | 00:00:00 | |
| BIOWL1-15 | 2026-09-05 00:47:56 | 51.45084 | 8.95027 | 114° | 37km/h | 18862m | -8.5m/s | -55.4°C | 0.4% | 69.2hPa | 2.5V | 08:16:39 | 02:30:00 | 00:00:00 | |
| HSKMA3-T | 2026-09-05 00:47:52 | 51.45116 | 8.94947 | 116° | 80km/h | 18897m | -9.4m/s | -55°C | 0.4% | 68.8hPa | 2.6V | 08:16:39 | 02:29:56 | 00:00:00 | |
| DO1YAY-16 | 2026-09-05 00:47:51 | 51.45124 | 8.94916 | 108° | 86km/h | 18907m | -9.4m/s | -55.0°C | 1.0% | 68.7hPa | 2.5V | 00:00:00 | 00:00:00 | 00:00:00 | |
| DB0ND-19 | 2026-09-05 00:47:50 | 51.45132 | 8.94844 | 93° | 91km/h | 18925m | -9.6m/s | -55.0°C | 1.0% | 68.5hPa | 2.5V | 00:00:00 | 00:00:00 | 00:00:00 | |
| DL3AQ-11 | 2026-09-05 00:47:46 | 51.45115 | 8.94712 | 63° | 68km/h | 18963m | -9.2m/s | -55.3°C | 1.1% | 68.1hPa | 2.5V | 00:00:00 | 00:00:00 | 00:00:00 | |
| HSKMA3-T | 2026-09-05 00:47:41 | 51.45098 | 8.94648 | 100° | 29km/h | 18998m | -8.7m/s | -55.4°C | 0.5% | 67.7hPa | 2.5V | 08:16:39 | 02:29:45 | 00:00:00 | |
| HSKMA3-T | 2026-09-05 00:47:30 | 51.45132 | 8.94338 | 71° | 69km/h | 19101m | -8.8m/s | -54.4°C | 0.3% | 66.7hPa | 2.5V | 08:17:30 | 02:29:34 | 00:00:00 | |
| DL1XH-west | 2026-09-05 00:47:25 | 51.45122 | 8.94259 | 124° | 33km/h | 19148m | -10.4m/s | 0°C | 0% | 0hPa | 2.6V | 18:12:15 | 02:29:29 | 00:00:00 | |
| BIOWL1-15 | 2026-09-05 00:47:21 | 51.45184 | 8.94065 | 92° | 86km/h | 19226m | -10.1m/s | -53.9°C | 0.3% | 65.4hPa | 2.5V | 08:17:30 | 02:29:21 | 00:00:00 | |
| HSKMA3-T | 2026-09-05 00:47:18 | 51.45182 | 8.94100 | 100° | 88km/h | 19216m | -9.8m/s | -54.1°C | 0.4% | 65.5hPa | 2.6V | 08:17:30 | 02:29:22 | 00:00:00 | |
| BIOWL1-15 | 2026-09-05 00:47:10 | 51.45157 | 8.93911 | 92° | 24km/h | 19296m | -9.1m/s | -53.1°C | 0.2% | 64.6hPa | 2.5V | 08:17:30 | 02:29:14 | 00:00:00 | |
| HSKMA3-T | 2026-09-05 00:47:08 | 51.45164 | 8.93889 | 129° | 44km/h | 19315m | -9.8m/s | -52.8°C | 0.1% | 64.4hPa | 2.6V | 08:17:30 | 02:29:12 | 00:00:00 | |
| BIOWL1-15 | 2026-09-05 00:46:59 | 51.45195 | 8.93619 | 70° | 77km/h | 19406m | -10.5m/s | -53.3°C | 0.2% | 63.5hPa | 2.5V | 08:17:30 | 02:29:03 | 00:00:00 | |
| DL1NUX | 2026-09-05 00:46:59 | 51.45182 | 8.93570 | 63° | 53km/h | 19427m | -10.7m/s | -53.3°C | 3.8% | 63.3hPa | 2.5V | 08:30:00 | 02:29:01 | 00:00:00 | |
| HSKMA3-T | 2026-09-05 00:46:57 | 51.45182 | 8.93570 | 64° | 53km/h | 19427m | -10.7m/s | -53.3°C | 0.2% | 63.3hPa | 2.5V | 08:17:30 | 02:29:01 | 00:00:00 | |
| BIOWL1-15 | 2026-09-05 00:46:48 | 51.45227 | 8.93426 | 120° | 82km/h | 19521m | -10.4m/s | -52.9°C | 0.3% | 62.4hPa | 2.6V | 08:17:30 | 02:28:52 | 00:00:00 | |
| HSKMA3-T | 2026-09-05 00:46:47 | 51.45236 | 8.93396 | 112° | 84km/h | 19531m | -10.5m/s | -52.7°C | 0.3% | 62.3hPa | 2.5V | 08:17:30 | 02:28:51 | 00:00:00 | |
| BIOWL1-15 | 2026-09-05 00:46:37 | 51.45231 | 8.93225 | 182° | 22km/h | 19638m | -10.4m/s | -51.7°C | 0.1% | 61.2hPa | 2.6V | 08:18:21 | 02:28:41 | 00:00:00 | |
| HSKMA3-T | 2026-09-05 00:46:36 | 51.45238 | 8.93224 | 171° | 37km/h | 19648m | -10.4m/s | -51.4°C | 0% | 61.2hPa | 2.5V | 08:18:21 | 02:28:40 | 00:00:00 | |
| DD1CC8 | 2026-09-05 00:46:35 | 51.45249 | 8.93220 | 158° | 47km/h | 19659m | -10.2m/s | -51.2°C | 0.8% | 61.1hPa | 2.6V | 00:00:00 | 00:00:00 | 00:00:00 | |
| EDDB2-11 | 2026-09-05 00:46:33 | 51.45281 | 8.93173 | 120° | 66km/h | 19688m | -9.7m/s | -50.9°C | 0.8% | 60.8hPa | 2.6V | 00:00:00 | 00:00:00 | 00:00:00 | |
| DO3DL | 2026-09-05 00:46:32 | 51.45281 | 8.93173 | 121° | 66km/h | 19689m | -9.7m/s | -50.9°C | 0.8% | 60.8hPa | 2.6V | 00:00:00 | 00:00:00 | 00:00:00 | |
| WPPR-10 | 2026-09-05 00:46:31 | 51.45288 | 8.93149 | 107° | 64km/h | 19698m | -9.9m/s | -50.8°C | 0.8% | 60.7hPa | 2.6V | 00:00:00 | 00:00:00 | 00:00:00 | |
| DL1NUX | 2026-09-05 00:46:29 | 51.45267 | 8.93047 | 347° | 15km/h | 19771m | -10.4m/s | -50.8°C | 3.2% | 60hPa | 2.6V | 08:30:00 | 02:28:28 | 00:00:00 | |
| BIOWL1-15 | 2026-09-05 00:46:26 | 51.45277 | 8.93053 | 40° | 31km/h | 19751m | -10.3m/s | -50.7°C | 0% | 60.2hPa | 2.5V | 08:18:21 | 02:28:30 | 00:00:00 | |
| DO2JMG | 2026-09-05 00:46:18 | 51.45293 | 8.93052 | 144° | 42km/h | 19834m | -10m/s | -51.3°C | 0% | 0hPa | 2.5V | 08:18:21 | 02:28:22 | 00:00:00 | |
| DL1XH-west | 2026-09-05 00:46:17 | 51.45301 | 8.93039 | 126° | 46km/h | 19844m | -9.8m/s | 0°C | 0% | 0hPa | 2.5V | 18:12:15 | 02:28:21 | 00:00:00 | |
| BIOWL1-15 | 2026-09-05 00:46:16 | 51.45302 | 8.92964 | 60° | 49km/h | 19886m | -10.8m/s | -51.6°C | 0% | 59hPa | 2.6V | 08:18:21 | 02:28:17 | 00:00:00 | |
| HSKMA3-T | 2026-09-05 00:46:15 | 51.45309 | 8.93002 | 92° | 51km/h | 19864m | -10m/s | -51.6°C | 0% | 59.2hPa | 2.5V | 08:18:21 | 02:28:19 | 00:00:00 | |
| DL1NUX | 2026-09-05 00:46:13 | 51.45265 | 8.92926 | 0° | 40km/h | 19930m | -10.7m/s | -51.7°C | 3.3% | 58.6hPa | 2.5V | 08:30:00 | 02:28:13 | 00:00:00 | |
| DL1XH-west | 2026-09-05 00:46:07 | 51.45248 | 8.92934 | 323° | 29km/h | 19952m | -10.3m/s | 0°C | 0% | 0hPa | 2.6V | 18:12:15 | 02:28:11 | 00:00:00 | |
| BIOWL1-15 | 2026-09-05 00:46:05 | 51.45243 | 8.92949 | 266° | 16km/h | 19973m | -10m/s | -51.9°C | 0% | 58.2hPa | 2.5V | 08:18:21 | 02:28:09 | 00:00:00 | |
| HSKMA3-T | 2026-09-05 00:46:01 | 51.45257 | 8.92942 | 122° | 33km/h | 20016m | -10.4m/s | -52.1°C | 0% | 57.9hPa | 2.6V | 08:18:21 | 02:28:05 | 00:00:00 | |
| DO2JMG | 2026-09-05 00:46:00 | 51.45261 | 8.92929 | 104° | 40km/h | 20026m | -10.5m/s | -52.1°C | 0% | 0hPa | 2.5V | 08:18:21 | 02:28:04 | 00:00:00 | |
| BIOWL7-15 | 2026-09-05 00:45:58 | 51.45262 | 8.92912 | 90° | 47km/h | 20037m | -10.6m/s | -52.2°C | 0.8% | 57.7hPa | 2.6V | 08:18:00 | 00:00:00 | 00:00:00 | |
| DL1NUX | 2026-09-05 00:45:57 | 51.45248 | 8.92854 | 49° | 57km/h | 20069m | -10.2m/s | -52.4°C | 3.5% | 57.3hPa | 2.6V | 08:30:00 | 02:28:00 | 00:00:00 | |
| BIOWL1-15 | 2026-09-05 00:45:57 | 51.45237 | 8.92838 | 36° | 55km/h | 20080m | -10.5m/s | -52.5°C | 0.1% | 57.3hPa | 2.5V | 08:18:21 | 02:27:59 | 00:00:00 | |
| HSKMA3-T | 2026-09-05 00:45:50 | 51.45189 | 8.92835 | 301° | 22km/h | 20132m | -10.6m/s | -52.9°C | 0.1% | 56.8hPa | 2.6V | 08:18:21 | 02:27:54 | 00:00:00 | |
| DO2JMG | 2026-09-05 00:45:45 | 51.45210 | 8.92834 | 131° | 44km/h | 20184m | -10.4m/s | -53.3°C | 0.2% | 0hPa | 2.5V | 08:19:12 | 02:27:49 | 00:00:00 | |
| BIOWL1-15 | 2026-09-05 00:45:44 | 51.45217 | 8.92819 | 118° | 49km/h | 20195m | -10.7m/s | -53.4°C | 0.2% | 56.2hPa | 2.6V | 08:19:12 | 02:27:48 | 00:00:00 | |
| HSKMA3-T | 2026-09-05 00:45:39 | 51.45208 | 8.92703 | 50° | 62km/h | 20249m | -10.6m/s | -53.4°C | 0.3% | 55.8hPa | 2.6V | 08:19:12 | 02:27:43 | 00:00:00 | |
| BIOWL1-15 | 2026-09-05 00:45:35 | 51.45159 | 8.92674 | 226° | 5km/h | 20311m | -10.9m/s | -53.2°C | 0.2% | 55.2hPa | 2.6V | 08:19:12 | 02:27:37 | 00:00:00 | |
| DO2JMG | 2026-09-05 00:45:30 | 51.45173 | 8.92664 | 140° | 38km/h | 20342m | -9.9m/s | -53.2°C | 0.2% | 0hPa | 2.5V | 08:19:12 | 02:27:34 | 00:00:00 | |
| HSKMA3-T | 2026-09-05 00:45:28 | 51.45190 | 8.92631 | 120° | 60km/h | 20363m | -10.1m/s | -53.4°C | 0.2% | 54.8hPa | 2.6V | 08:19:12 | 02:27:32 | 00:00:00 | |
| BIOWL1-15 | 2026-09-05 00:45:23 | 51.45197 | 8.92491 | 72° | 71km/h | 20417m | -10.8m/s | -53.7°C | 0.3% | 54.4hPa | 2.6V | 08:19:12 | 02:27:27 | 00:00:00 | |
| HSKMA3-T | 2026-09-05 00:45:18 | 51.45160 | 8.92421 | 31° | 16km/h | 20469m | -10.7m/s | -53.3°C | 0.2% | 53.9hPa | 2.5V | 08:19:12 | 02:27:22 | 00:00:00 | |
| BIOWL1-15 | 2026-09-05 00:45:13 | 51.45211 | 8.92354 | 114° | 66km/h | 20557m | -9.8m/s | -53.3°C | 0.3% | 53.1hPa | 2.6V | 08:19:12 | 02:27:14 | 00:00:00 | |
| DO2JMG | 2026-09-05 00:45:12 | 51.45193 | 8.92395 | 138° | 55km/h | 20534m | -10.8m/s | -53.2°C | 0.2% | 0hPa | 2.5V | 08:19:12 | 02:27:16 | 00:00:00 | |
| DL1CLM-18 | 2026-09-05 00:45:11 | 51.45192 | 8.92395 | 139° | 55km/h | 20535m | -10.8m/s | 0°C | 0% | 0hPa | 2.6V | 08:19:00 | 00:00:00 | 00:00:00 | |
| DO9LL-15 | 2026-09-05 00:45:08 | 51.45218 | 8.92303 | 89° | 42km/h | 20578m | -9.9m/s | -53.4°C | 3.8% | 53.0hPa | 2.6V | 00:00:00 | 02:27:12 | 00:00:00 | |
| DJ8HS-15 | 2026-09-05 00:45:07 | 51.45216 | 8.92278 | 74° | 46km/h | 20589m | -9.7m/s | -53.4°C | 3.8% | 52.9hPa | 2.6V | 00:00:00 | 02:27:11 | 00:00:00 | |
| SONCRA | 2026-09-05 00:45:06 | 51.45211 | 8.92257 | 61° | 53km/h | 20599m | -10.8m/s | -53.4°C | 0.9% | 52.9hPa | 2.6V | 00:00:00 | 00:00:00 | 00:00:00 | |
| DO3DL | 2026-09-05 00:45:05 | 51.45210 | 8.92257 | 63° | 53km/h | 20599m | -10.8m/s | -53.4°C | 0.9% | 52.9hPa | 2.6V | 00:00:00 | 00:00:00 | 00:00:00 | |
| DK9SH | 2026-09-05 00:45:03 | 51.45194 | 8.92229 | 28° | 44km/h | 20623m | -11.4m/s | -53.4°C | 0.9% | 52.7hPa | 2.6V | 00:00:00 | 00:00:00 | 00:00:00 | |
| DL1NUX | 2026-09-05 00:45:02 | 51.45172 | 8.92228 | 322° | 18km/h | 20655m | -10.4m/s | -53.5°C | 3.8% | 52.4hPa | 2.6V | 08:30:00 | 02:27:05 | 00:00:00 | |
| BIOWL1-15 | 2026-09-05 00:45:01 | 51.45172 | 8.92228 | 323° | 18km/h | 20655m | -10.4m/s | -53.5°C | 0.3% | 52.4hPa | 2.6V | 08:19:12 | 02:27:05 | 00:00:00 | |
| HSKMA3-T | 2026-09-05 00:44:59 | 51.45172 | 8.92239 | 225° | 18km/h | 20677m | -9.8m/s | -53.5°C | 0.3% | 52.2hPa | 2.5V | 08:19:12 | 02:27:03 | 00:00:00 | |
| DO2JMG | 2026-09-05 00:44:56 | 51.45195 | 8.92234 | 147° | 51km/h | 20709m | -10.8m/s | -53.4°C | 0.3% | 0hPa | 2.5V | 08:20:03 | 02:27:00 | 00:00:00 | |
| BIOWL1-15 | 2026-09-05 00:44:50 | 51.45197 | 8.92048 | 13° | 20km/h | 20820m | -10.3m/s | -53.2°C | 0.2% | 51.1hPa | 2.5V | 08:20:03 | 02:26:50 | 00:00:00 | |
| DL1NUX | 2026-09-05 00:44:50 | 51.45218 | 8.92076 | 61° | 55km/h | 20788m | -10.6m/s | -53.2°C | 3.7% | 51.3hPa | 2.5V | 08:30:00 | 02:26:53 | 00:00:00 | |
| HSKMA3-T | 2026-09-05 00:44:49 | 51.45210 | 8.92061 | 47° | 42km/h | 20798m | -10.6m/s | -53.2°C | 0.2% | 51.2hPa | 2.6V | 08:20:03 | 02:26:52 | 00:00:00 | |
| BIOWL9-15 | 2026-09-05 00:44:47 | 51.45197 | 8.92048 | 13° | 18km/h | 20820m | -10.3m/s | -53.2°C | 0.9% | 51.1hPa | 2.5V | 00:00:00 | 00:00:00 | 00:00:00 | |
| AU51GT2 | 2026-09-05 00:44:46 | 51.45197 | 8.92048 | 13° | 18km/h | 20820m | -10.3m/s | -53.2°C | 0.9% | 51.1hPa | 2.5V | 00:00:00 | 00:00:00 | 00:00:00 | |
| DO1YAY-16 | 2026-09-05 00:44:45 | 51.45194 | 8.92048 | 327° | 7km/h | 20831m | -10.3m/s | -53.1°C | 0.9% | 51.0hPa | 2.5V | 00:00:00 | 00:00:00 | 00:00:00 | |
| DO2JMG | 2026-09-05 00:44:40 | 51.45222 | 8.92058 | 167° | 46km/h | 20886m | -11.2m/s | -53°C | 0.1% | 0hPa | 2.5V | 08:20:03 | 02:26:44 | 00:00:00 | |
| HSKMA3-T | 2026-09-05 00:44:37 | 51.45254 | 8.92022 | 126° | 58km/h | 20919m | -10.5m/s | -53.1°C | 0.1% | 50.3hPa | 2.6V | 08:20:03 | 02:26:41 | 00:00:00 | |
| DF7PN | 2026-09-05 00:44:37 | 51.45254 | 8.92022 | 126° | 57km/h | 20920m | -10.5m/s | -53.1°C | 0.9% | 50.3hPa | 2.6V | 00:00:00 | 00:00:00 | 00:00:00 | |
| DO3MHA-11 | 2026-09-05 00:44:36 | 51.45261 | 8.92001 | 114° | 38km/h | 20931m | -10.5m/s | -53.1°C | 3.6% | 50.1hPa | 2.6V | 00:00:00 | 02:26:40 | 00:00:00 | |
| BIOWL1-15 | 2026-09-05 00:44:26 | 51.45301 | 8.91804 | 94° | 71km/h | 21135m | -11.3m/s | -54°C | 0.4% | 48.6hPa | 2.6V | 08:20:03 | 02:26:22 | 00:00:00 | |
| HSKMA3-T | 2026-09-05 00:44:25 | 51.45246 | 8.91913 | 171° | 40km/h | 21068m | -10.3m/s | -53.8°C | 0.3% | 49.1hPa | 2.5V | 08:20:03 | 02:26:28 | 00:00:00 | |
| DO2JMG | 2026-09-05 00:44:23 | 51.45257 | 8.91908 | 157° | 53km/h | 21079m | -11.2m/s | -53.8°C | 0.2% | 0hPa | 2.6V | 08:20:03 | 02:26:27 | 00:00:00 | |
| DL1NUX | 2026-09-05 00:44:20 | 51.45300 | 8.91776 | 82° | 68km/h | 21146m | -11.1m/s | -54.1°C | 4% | 48.5hPa | 2.6V | 08:30:00 | 02:26:21 | 00:00:00 | |
| BIOWL1-15 | 2026-09-05 00:44:15 | 51.45290 | 8.91731 | 57° | 49km/h | 21170m | -11.4m/s | -54.2°C | 0.4% | 48.3hPa | 2.5V | 08:20:03 | 02:26:19 | 00:00:00 | |
| HSKMA3-T | 2026-09-05 00:44:13 | 51.45277 | 8.91710 | 19° | 26km/h | 21193m | -10.7m/s | -54.2°C | 0.4% | 48.1hPa | 2.6V | 08:20:03 | 02:26:17 | 00:00:00 | |
| DO2JMG | 2026-09-05 00:44:07 | 51.45299 | 8.91730 | 173° | 55km/h | 21261m | -10.9m/s | -53.6°C | 0.3% | 0hPa | 2.6V | 08:20:54 | 02:26:11 | 00:00:00 | |
| BIOWL1-15 | 2026-09-05 00:44:04 | 51.45340 | 8.91693 | 130° | 69km/h | 21296m | -11.2m/s | -53.5°C | 0.3% | 47.4hPa | 2.5V | 08:20:54 | 02:26:08 | 00:00:00 | |
| DL1NUX | 2026-09-05 00:44:04 | 51.45358 | 8.91597 | 76° | 49km/h | 21343m | -11.1m/s | -53.3°C | 3.8% | 47hPa | 2.5V | 08:30:00 | 02:26:04 | 00:00:00 | |
| HSKMA3-T | 2026-09-05 00:44:03 | 51.45349 | 8.91669 | 118° | 69km/h | 21308m | -11.3m/s | -53.4°C | 0.3% | 47.2hPa | 2.6V | 08:20:54 | 02:26:07 | 00:00:00 | |
| BIOWL1-15 | 2026-09-05 00:43:53 | 51.45328 | 8.91602 | 248° | 37km/h | 21425m | -10.9m/s | -53°C | 0.3% | 46.4hPa | 2.6V | 08:20:54 | 02:25:57 | 00:00:00 | |
| HSKMA3-T | 2026-09-05 00:43:52 | 51.45334 | 8.91614 | 225° | 40km/h | 21437m | -11.9m/s | -53°C | 0.3% | 46.3hPa | 2.6V | 08:20:54 | 02:25:56 | 00:00:00 | |
| DO2JMG | 2026-09-05 00:43:50 | 51.45353 | 8.91626 | 178° | 46km/h | 21461m | -10.6m/s | -53.1°C | 0.2% | 0hPa | 2.5V | 08:20:54 | 02:25:54 | 00:00:00 | |
| DL1ZP-14 | 2026-09-05 00:43:47 | 51.45384 | 8.91595 | 116° | 49km/h | 21494m | -10.9m/s | -53.2°C | 0.9% | 46.0hPa | 2.6V | 00:00:00 | 00:00:00 | 00:00:00 | |
| BIOWL1-15 | 2026-09-05 00:43:45 | 51.45374 | 8.91516 | 47° | 53km/h | 21541m | -11.3m/s | -53.3°C | 0.3% | 45.6hPa | 2.6V | 08:20:54 | 02:25:47 | 00:00:00 | |
| BIOWL9-15 | 2026-09-05 00:43:44 | 51.45382 | 8.91533 | 62° | 53km/h | 21529m | -11.4m/s | -53.3°C | 0.9% | 45.7hPa | 2.5V | 00:00:00 | 00:00:00 | 00:00:00 | |
| HSKMA3-T | 2026-09-05 00:43:41 | 51.45354 | 8.91497 | 11° | 40km/h | 21564m | -11m/s | -53.2°C | 0.2% | 45.4hPa | 2.5V | 08:20:54 | 02:25:45 | 00:00:00 | |
| DO2JMG | 2026-09-05 00:43:33 | 51.45367 | 8.91528 | 154° | 49km/h | 21659m | -11.5m/s | -53.3°C | 0.3% | 0hPa | 2.6V | 08:20:54 | 02:25:37 | 00:00:00 | |
| BIOWL1-15 | 2026-09-05 00:43:32 | 51.45389 | 8.91477 | 101° | 58km/h | 21694m | -11.2m/s | -53.1°C | 0.3% | 44.5hPa | 2.5V | 08:20:54 | 02:25:34 | 00:00:00 | |
| HSKMA3-T | 2026-09-05 00:43:31 | 51.45385 | 8.91499 | 116° | 55km/h | 21683m | -10.6m/s | -53.2°C | 0.3% | 44.6hPa | 2.5V | 08:20:54 | 02:25:35 | 00:00:00 | |
| DL1XH-west | 2026-09-05 00:43:21 | 51.45336 | 8.91438 | 267° | 31km/h | 21803m | -11.8m/s | 0°C | 0% | 0hPa | 2.5V | 18:12:15 | 02:25:25 | 00:00:00 | |
| HSKMA3-T | 2026-09-05 00:43:20 | 51.45338 | 8.91450 | 236° | 33km/h | 21815m | -10.9m/s | -52.7°C | 0.2% | 43.6hPa | 2.5V | 08:20:54 | 02:25:24 | 00:00:00 | |
| DO2JMG | 2026-09-05 00:43:16 | 51.45373 | 8.91452 | 140° | 51km/h | 21863m | -11.8m/s | 0°C | 0% | 0hPa | 2.5V | 18:12:15 | 02:25:20 | 00:00:00 | |
| BIOWL1-15 | 2026-09-05 00:43:11 | 51.45382 | 8.91345 | 57° | 57km/h | 21925m | -10.5m/s | -53.2°C | 0.3% | 42.9hPa | 2.5V | 08:21:45 | 02:25:15 | 00:00:00 | |
| HSKMA3-T | 2026-09-05 00:43:09 | 51.45362 | 8.91318 | 24° | 46km/h | 21949m | -11.9m/s | -53.3°C | 0.3% | 42.8hPa | 2.5V | 08:21:45 | 02:25:13 | 00:00:00 | |
| DO2JMG | 2026-09-05 00:43:00 | 51.45382 | 8.91335 | 146° | 64km/h | 22059m | -11.4m/s | 0°C | 0% | 0hPa | 2.5V | 18:12:15 | 02:25:04 | 00:00:00 | |
| HSKMA3-T | 2026-09-05 00:42:58 | 51.45406 | 8.91294 | 121° | 68km/h | 22083m | -12.6m/s | -53.2°C | 0.3% | 41.9hPa | 2.6V | 08:21:45 | 02:25:02 | 00:00:00 | |
| DL1XH-west | 2026-09-05 00:42:52 | 51.45396 | 8.91187 | 7° | 26km/h | 22158m | -11.9m/s | -52.8°C | 0.2% | 0hPa | 2.6V | 18:12:15 | 02:24:56 | 00:00:00 | |
| HSKMA3-T | 2026-09-05 00:42:48 | 51.45389 | 8.91223 | 233° | 38km/h | 22210m | -12.4m/s | -52.9°C | 0.3% | 41.1hPa | 2.6V | 08:21:45 | 02:24:52 | 00:00:00 | |
| DO2JMG | 2026-09-05 00:42:44 | 51.45433 | 8.91240 | 157° | 57km/h | 22258m | -11.8m/s | 0°C | 0% | 0hPa | 2.5V | 18:12:15 | 02:24:48 | 00:00:00 | |
| DL1XH-west | 2026-09-05 00:42:41 | 51.45458 | 8.91186 | 101° | 57km/h | 22295m | -13m/s | -53°C | 0.3% | 0hPa | 2.5V | 18:12:15 | 02:24:45 | 00:00:00 | |
| BIOWL1-15 | 2026-09-05 00:42:38 | 51.45446 | 8.91122 | 49° | 57km/h | 22333m | -12.1m/s | -53.2°C | 0.4% | 40.3hPa | 2.6V | 08:21:45 | 02:24:42 | 00:00:00 | |
| HSKMA3-T | 2026-09-05 00:42:37 | 51.45436 | 8.91107 | 34° | 55km/h | 22345m | -12.5m/s | -53.1°C | 0.4% | 40.2hPa | 2.6V | 08:21:45 | 02:24:41 | 00:00:00 | |
| DL1XH-west | 2026-09-05 00:42:31 | 51.45397 | 8.91132 | 227° | 26km/h | 22420m | -12.6m/s | 0°C | 0% | 0hPa | 2.5V | 18:12:15 | 02:24:35 | 00:00:00 | |
| BIOWL1-15 | 2026-09-05 00:42:26 | 51.45442 | 8.91095 | 113° | 64km/h | 22483m | -12.4m/s | -52.1°C | 0.2% | 39.3hPa | 2.5V | 08:21:45 | 02:24:30 | 00:00:00 | |
| BIOWL1-15 | 2026-09-05 00:42:16 | 51.45385 | 8.90978 | 251° | 24km/h | 22604m | -12.3m/s | -51.9°C | 0.1% | 38.5hPa | 2.5V | 08:23:27 | 02:24:20 | 00:00:00 | |
| HSKMA3-T | 2026-09-05 00:42:15 | 51.45390 | 8.90986 | 210° | 29km/h | 22616m | -12.1m/s | -51.9°C | 0.1% | 0hPa | 2.5V | 08:23:27 | 02:24:19 | 00:00:00 | |
| BIOWL1-15 | 2026-09-05 00:42:06 | 51.45388 | 8.90846 | 263° | 33km/h | 22800m | -12.2m/s | -52.3°C | 0.2% | 37.3hPa | 2.5V | 08:23:27 | 02:24:04 | 00:00:00 | |
| BIOWL1-15 | 2026-09-05 00:41:55 | 51.45427 | 8.90870 | 149° | 40km/h | 22865m | -13.4m/s | -52.1°C | 0.2% | 36.9hPa | 2.5V | 08:23:27 | 02:23:59 | 00:00:00 | |
| HSKMA3-T | 2026-09-05 00:41:54 | 51.45434 | 8.90859 | 123° | 40km/h | 22878m | -13.2m/s | -52.1°C | 0.2% | 0hPa | 2.5V | 08:23:27 | 02:23:58 | 00:00:00 | |
| BIOWL1-15 | 2026-09-05 00:41:45 | 51.45363 | 8.90804 | 306° | 42km/h | 22993m | -13.4m/s | -52.2°C | 0.2% | 36.2hPa | 2.5V | 08:23:27 | 02:23:49 | 00:00:00 | |
| HSKMA3-T | 2026-09-05 00:41:43 | 51.45361 | 8.90829 | 241° | 27km/h | 23019m | -13.7m/s | -52°C | 0.2% | 0hPa | 2.6V | 08:23:27 | 02:23:47 | 00:00:00 | |
| BIOWL1-15 | 2026-09-05 00:41:34 | 51.45376 | 8.90740 | 181° | 53km/h | 23256m | -13.1m/s | -51.5°C | 0.1% | 34.7hPa | 2.5V | 08:23:27 | 02:23:29 | 00:00:00 | |
| DL1XH-west | 2026-09-05 00:41:29 | 51.45347 | 8.90701 | 270° | 31km/h | 23202m | -13.5m/s | 0°C | 0% | 0hPa | 2.5V | 18:12:15 | 02:23:33 | 00:00:00 | |
| HSKMA3-T | 2026-09-05 00:41:28 | 51.45349 | 8.90714 | 244° | 37km/h | 23216m | -14.3m/s | -51.5°C | 0.1% | 0hPa | 2.6V | 08:23:27 | 02:23:32 | 00:00:00 | |
| DJ8HS-15 | 2026-09-05 00:41:27 | 51.45355 | 8.90726 | 226° | 44km/h | 23230m | -13.7m/s | -51.4°C | 3.4% | 34.8hPa | 2.6V | 00:00:00 | 02:23:31 | 00:00:00 | |
| DO3DL | 2026-09-05 00:41:26 | 51.45354 | 8.90726 | 227° | 44km/h | 23230m | -13.8m/s | -51.5°C | 0.8% | 34.9hPa | 2.6V | 08:23:00 | 00:00:00 | 00:00:00 | |
| DD1CC8 | 2026-09-05 00:41:25 | 51.45388 | 8.90737 | 160° | 49km/h | 23269m | -13.0m/s | -51.5°C | 0.8% | 34.7hPa | 2.6V | 00:00:00 | 00:00:00 | 00:00:00 | |
| DL1XH1-15 | 2026-09-05 00:41:23 | 51.45401 | 8.90645 | 39° | 44km/h | 23347m | -14.2m/s | -51.5°C | 0% | 34.3hPa | 2.6V | 08:22:53 | 02:23:22 | 00:00:00 | |
| BIOWL1-15 | 2026-09-05 00:41:21 | 51.45401 | 8.90645 | 40° | 44km/h | 23347m | -14.3m/s | -51.6°C | 0.2% | 34.3hPa | 2.6V | 08:23:27 | 02:23:22 | 00:00:00 | |
| DL1XH-west | 2026-09-05 00:41:19 | 51.45408 | 8.90658 | 59° | 42km/h | 23333m | -13.4m/s | 0°C | 0% | 0hPa | 2.5V | 18:12:15 | 02:23:23 | 00:00:00 | |
| HSKMA3-T | 2026-09-05 00:41:17 | 51.45393 | 8.90638 | 15° | 37km/h | 23360m | -14.3m/s | -51.6°C | 0.2% | 0hPa | 2.6V | 08:23:27 | 02:23:21 | 00:00:00 | |
| BIOWL1-15 | 2026-09-05 00:41:11 | 51.45381 | 8.90689 | 215° | 44km/h | 23441m | -14.4m/s | -51.8°C | 0.2% | 33.8hPa | 2.5V | 08:23:27 | 02:23:15 | 00:00:00 | |
| DL1XH-west | 2026-09-05 00:41:08 | 51.45415 | 8.90690 | 153° | 51km/h | 23483m | -14.4m/s | 0°C | 0% | 0hPa | 2.6V | 18:12:15 | 02:23:12 | 00:00:00 | |
| HSKMA3-T | 2026-09-05 00:41:07 | 51.45426 | 8.90677 | 134° | 53km/h | 23497m | -14.3m/s | -51.8°C | 0.3% | 0hPa | 2.6V | 08:23:27 | 02:23:11 | 00:00:00 | |
| BIOWL1-15 | 2026-09-05 00:41:01 | 51.45414 | 8.90582 | 8° | 42km/h | 23583m | -14.5m/s | -51.1°C | 0.1% | 33hPa | 2.5V | 08:23:27 | 02:23:05 | 00:00:00 | |
| HSKMA3-T | 2026-09-05 00:40:56 | 51.45394 | 8.90646 | 239° | 51km/h | 23652m | -13.8m/s | -50.7°C | 0% | 0hPa | 2.6V | 08:23:27 | 02:23:00 | 00:00:00 | |
| BIOWL1-15 | 2026-09-05 00:40:50 | 51.45453 | 8.90645 | 108° | 46km/h | 23735m | -13.3m/s | -50.5°C | 0% | 32.2hPa | 2.6V | 08:23:27 | 02:22:54 | 00:00:00 | |
| HSKMA3-T | 2026-09-05 00:40:45 | 51.45420 | 8.90596 | 346° | 47km/h | 23801m | -14.6m/s | 0°C | 0% | 0hPa | 2.6V | 08:23:27 | 02:22:49 | 00:00:00 | |
| BIOWL1-15 | 2026-09-05 00:40:40 | 51.45404 | 8.90668 | 226° | 46km/h | 23872m | -14.3m/s | -51.3°C | 0.1% | 31.6hPa | 2.6V | 08:24:18 | 02:22:44 | 00:00:00 | |
| HSKMA3-T | 2026-09-05 00:40:35 | 51.45453 | 8.90650 | 118° | 51km/h | 23940m | -13.9m/s | 0°C | 0% | 0hPa | 2.6V | 18:12:15 | 02:22:39 | 00:00:00 | |
| BIOWL1-15 | 2026-09-05 00:40:30 | 51.45426 | 8.90567 | 354° | 42km/h | 24027m | -14.6m/s | -51.7°C | 0.1% | 30.8hPa | 2.5V | 08:24:18 | 02:22:33 | 00:00:00 | |
| HSKMA3-T | 2026-09-05 00:40:25 | 51.45408 | 8.90617 | 253° | 46km/h | 24085m | -14.4m/s | 0°C | 0% | 0hPa | 2.6V | 18:12:15 | 02:22:29 | 00:00:00 | |
| BIOWL1-15 | 2026-09-05 00:40:19 | 51.45454 | 8.90624 | 102° | 42km/h | 24169m | -13.9m/s | -51.7°C | 0.1% | 30.1hPa | 2.6V | 08:24:18 | 02:22:23 | 00:00:00 | |
| HSKMA3-T | 2026-09-05 00:40:13 | 51.45396 | 8.90552 | 355° | 71km/h | 24259m | -15.6m/s | 0°C | 0% | 0hPa | 2.6V | 18:12:15 | 02:22:17 | 00:00:00 | |
| DL1XH-west | 2026-09-05 00:40:09 | 51.45352 | 8.90609 | 276° | 47km/h | 24318m | -14.2m/s | -52.1°C | 0.2% | 29.4hPa | 2.6V | 08:24:18 | 02:22:13 | 00:00:00 | |
| BIOWL1-15 | 2026-09-05 00:40:09 | 51.45354 | 8.90624 | 246° | 35km/h | 24332m | -15.5m/s | -52.2°C | 0.2% | 29.4hPa | 2.6V | 08:24:18 | 02:22:12 | 00:00:00 | |
| HSKMA3-T | 2026-09-05 00:40:02 | 51.45381 | 8.90581 | 79° | 57km/h | 24424m | -15m/s | 0°C | 0% | 0hPa | 2.5V | 18:12:15 | 02:22:06 | 00:00:00 | |
| BIOWL1-15 | 2026-09-05 00:39:58 | 51.45299 | 8.90554 | 172° | 29km/h | 24580m | -14.1m/s | -52°C | 0.3% | 28.3hPa | 2.6V | 08:25:09 | 02:21:55 | 00:00:00 | |
| DL1XH-west | 2026-09-05 00:39:56 | 51.45308 | 8.90515 | 343° | 51km/h | 24510m | -14.5m/s | -51.9°C | 0.2% | 28.6hPa | 2.6V | 08:24:18 | 02:22:00 | 00:00:00 | |
| HSKMA3-T | 2026-09-05 00:39:48 | 51.45321 | 8.90519 | 110° | 57km/h | 24623m | -16.5m/s | 0°C | 0% | 0hPa | 2.5V | 18:12:15 | 02:21:52 | 00:00:00 | |
| DL1XH-west | 2026-09-05 00:39:46 | 51.45326 | 8.90470 | 89° | 69km/h | 24653m | -15.9m/s | -51.8°C | 0.3% | 28hPa | 2.6V | 08:25:09 | 02:21:50 | 00:00:00 | |
| BIOWL1-15 | 2026-09-05 00:39:41 | 51.45302 | 8.90370 | 143° | 58km/h | 24849m | -16.1m/s | -51°C | 0.2% | 27.1hPa | 2.5V | 08:25:09 | 02:21:37 | 00:00:00 | |
| DL1XH-west | 2026-09-05 00:39:35 | 51.45277 | 8.90384 | 179° | 42km/h | 24819m | -15.9m/s | -51.1°C | 0.1% | 27.2hPa | 2.6V | 08:25:09 | 02:21:39 | 00:00:00 | |
| BIOWL1-15 | 2026-09-05 00:39:29 | 51.45265 | 8.90227 | 290° | 29km/h | 25021m | -17.4m/s | -51°C | 0.2% | 26.4hPa | 2.6V | 08:25:09 | 02:21:26 | 00:00:00 | |
| DJ8HS-15 | 2026-09-05 00:39:27 | 51.45313 | 8.90232 | 48° | 51km/h | 24943m | -15.4m/s | -50.9°C | 3.5% | 26.7hPa | 2.5V | 00:00:00 | 02:21:31 | 00:00:00 | |
| DL1XH1-15 | 2026-09-05 00:39:26 | 51.45264 | 8.90238 | 261° | 27km/h | 25037m | -16.9m/s | -50.9°C | 0% | 26.4hPa | 2.5V | 08:24:50 | 02:21:25 | 00:00:00 | |
| DL1XH-west | 2026-09-05 00:39:25 | 51.45279 | 8.90210 | 347° | 44km/h | 24990m | -15.7m/s | -50.9°C | 0.2% | 26.6hPa | 2.6V | 08:25:09 | 02:21:28 | 00:00:00 | |
| BIOWL1-15 | 2026-09-05 00:39:19 | 51.45314 | 8.90200 | 108° | 71km/h | 25130m | -15.3m/s | -50.4°C | 0.1% | 26hPa | 2.5V | 08:25:09 | 02:21:19 | 00:00:00 | |
| DL1XH-west | 2026-09-05 00:39:13 | 51.45317 | 8.90139 | 82° | 82km/h | 25160m | -15.6m/s | -50.3°C | 0.1% | 25.8hPa | 2.5V | 08:25:09 | 02:21:17 | 00:00:00 | |
| DO3DL | 2026-09-05 00:39:11 | 51.45312 | 8.90108 | 71° | 77km/h | 25176m | -17.2m/s | -50.2°C | 0.8% | 25.8hPa | 2.5V | 08:25:00 | 00:00:00 | 00:00:00 | |
| DL1XH1-15 | 2026-09-05 00:39:07 | 51.45292 | 8.90069 | 182° | 55km/h | 25304m | -16.3m/s | -49.3°C | 0% | 25.3hPa | 2.5V | 08:25:07 | 02:21:08 | 00:00:00 | |
| BIOWL1-15 | 2026-09-05 00:39:04 | 51.45292 | 8.90069 | 183° | 55km/h | 25304m | -16.3m/s | -49.3°C | 0% | 25.3hPa | 2.5V | 08:25:09 | 02:21:08 | 00:00:00 | |
| DL1XH-west | 2026-09-05 00:39:02 | 51.45324 | 8.90060 | 158° | 75km/h | 25337m | -16.2m/s | -49.1°C | 0% | 25.2hPa | 2.5V | 08:25:09 | 02:21:06 | 00:00:00 | |
| DB0ND-19 | 2026-09-05 00:39:02 | 51.45342 | 8.90045 | 145° | 80km/h | 25353m | -16.3m/s | -49.1°C | 0.7% | 25.1hPa | 2.6V | 00:00:00 | 00:00:00 | 00:00:00 | |
| DO3DL | 2026-09-05 00:38:58 | 51.45370 | 8.89995 | 121° | 86km/h | 25385m | -15.8m/s | -49.2°C | 0.7% | 25.0hPa | 2.6V | 08:26:00 | 00:00:00 | 00:00:00 | |
| DL1XH1-15 | 2026-09-05 00:38:57 | 51.45372 | 8.89881 | 39° | 27km/h | 25463m | -16.9m/s | -49.3°C | 0% | 24.7hPa | 2.6V | 08:25:17 | 02:20:58 | 00:00:00 | |
| BIOWL1-15 | 2026-09-05 00:38:53 | 51.45366 | 8.89878 | 349° | 18km/h | 25480m | -16.5m/s | -49.3°C | 0% | 24.6hPa | 2.6V | 08:26:00 | 02:20:57 | 00:00:00 | |
| DL1XH-west | 2026-09-05 00:38:52 | 51.45363 | 8.89882 | 298° | 18km/h | 25497m | -17m/s | -49.4°C | 0% | 0hPa | 2.5V | 08:26:00 | 02:20:56 | 00:00:00 | |
| BUE01 | 2026-09-05 00:38:50 | 51.45376 | 8.89918 | 215° | 55km/h | 25545m | -15.4m/s | -49.5°C | 0.7% | 24.4hPa | 2.5V | 00:00:00 | 00:00:00 | 00:00:00 | |
| DL1XH1-15 | 2026-09-05 00:38:49 | 51.45461 | 8.89900 | 138° | 82km/h | 25628m | -17.1m/s | -49.3°C | 0% | 0hPa | 2.5V | 08:25:27 | 02:20:48 | 00:00:00 | |
| EDDB2-11 | 2026-09-05 00:38:47 | 51.45407 | 8.89932 | 182° | 71km/h | 25577m | -16.7m/s | -49.5°C | 0.7% | 24.3hPa | 2.6V | 00:00:00 | 00:00:00 | 00:00:00 | |
| BIOWL1-15 | 2026-09-05 00:38:44 | 51.45484 | 8.89849 | 108° | 75km/h | 25661m | -17.3m/s | -49.3°C | 0% | 24hPa | 2.6V | 08:26:00 | 02:20:46 | 00:00:00 | |
| DL1XH-west | 2026-09-05 00:38:41 | 51.45487 | 8.89821 | 93° | 66km/h | 25678m | -17m/s | -49.2°C | 0% | 0hPa | 2.6V | 08:26:00 | 02:20:45 | 00:00:00 | |
| DL1XH1-15 | 2026-09-05 00:38:38 | 51.45478 | 8.89826 | 220° | 64km/h | 25810m | -16.7m/s | -49.1°C | 0% | 0hPa | 2.5V | 08:25:38 | 02:20:37 | 00:00:00 | |
| BIOWL1-15 | 2026-09-05 00:38:34 | 51.45492 | 8.89840 | 207° | 69km/h | 25827m | -16.6m/s | -49.1°C | 0% | 23.4hPa | 2.6V | 08:26:00 | 02:20:36 | 00:00:00 | |
| DL1XH-west | 2026-09-05 00:38:30 | 51.45527 | 8.89853 | 179° | 73km/h | 25860m | -17m/s | -48.7°C | 0% | 0hPa | 2.5V | 08:26:00 | 02:20:34 | 00:00:00 | |
| BIOWL1-15 | 2026-09-05 00:38:22 | 51.45574 | 8.89753 | 358° | 31km/h | 25994m | -16.4m/s | -48.3°C | 0% | 22.8hPa | 2.5V | 08:26:00 | 02:20:26 | 00:00:00 | |
| DL4BBY-15 | 2026-09-05 00:38:20 | 51.45560 | 8.89768 | 298° | 42km/h | 26027m | -15.9m/s | -48.4°C | 0% | 0hPa | 2.5V | 00:00:00 | 00:00:00 | 00:00:00 | |
| DL1XH1-15 | 2026-09-05 00:38:19 | 51.45573 | 8.89845 | 220° | 60km/h | 26092m | -17.5m/s | 0°C | 0% | 0hPa | 2.5V | 08:25:55 | 02:20:20 | 00:00:00 | |
| DL1XH-west | 2026-09-05 00:38:19 | 51.45557 | 8.89786 | 277° | 49km/h | 26042m | -15.9m/s | -48.3°C | 0% | 0hPa | 2.6V | 08:26:00 | 02:20:23 | 00:00:00 | |
| BIOWL1-15 | 2026-09-05 00:38:11 | 51.45639 | 8.89839 | 129° | 55km/h | 26177m | -15.4m/s | -48.1°C | 0% | 22.1hPa | 2.5V | 08:26:00 | 02:20:15 | 00:00:00 | |
| DL1XH-west | 2026-09-05 00:38:09 | 51.45648 | 8.89800 | 89° | 49km/h | 26209m | -17.9m/s | -48.1°C | 0% | 0hPa | 2.5V | 08:26:51 | 02:20:13 | 00:00:00 | |
| HSKMA3-T | 2026-09-05 00:38:03 | 51.45617 | 8.89770 | 285° | 33km/h | 26311m | -13.3m/s | 0°C | 0% | 0hPa | 2.5V | 18:12:15 | 02:20:07 | 00:00:00 | |
| BIOWL1-15 | 2026-09-05 00:38:01 | 51.45620 | 8.89801 | 245° | 47km/h | 26340m | -15.9m/s | -47.8°C | 0% | 21.6hPa | 2.6V | 08:26:51 | 02:20:05 | 00:00:00 | |
| DL1XH-west | 2026-09-05 00:37:58 | 51.45642 | 8.89845 | 220° | 44km/h | 26393m | -17.7m/s | -47.8°C | 0% | 0hPa | 2.5V | 08:26:51 | 02:20:02 | 00:00:00 | |
| BIOWL1-15 | 2026-09-05 00:37:50 | 51.45658 | 8.89828 | 80° | 9km/h | 26523m | -17.9m/s | -47.8°C | 0% | 21.1hPa | 2.6V | 08:26:51 | 02:19:54 | 00:00:00 | |
| HSKMA3-T | 2026-09-05 00:37:49 | 51.45659 | 8.89824 | 128° | 13km/h | 26540m | -17.1m/s | 0°C | 0% | 0hPa | 2.6V | 18:12:15 | 02:19:53 | 00:00:00 | |
| DL1XH-west | 2026-09-05 00:37:46 | 51.45672 | 8.89808 | 140° | 24km/h | 26592m | -19.7m/s | -47.6°C | 0% | 0hPa | 2.5V | 08:26:51 | 02:19:50 | 00:00:00 | |
| EDDB2-11 | 2026-09-05 00:37:45 | 51.45675 | 8.89803 | 141° | 13km/h | 26612m | -20.0m/s | -47.7°C | 0.6% | 20.8hPa | 2.5V | 00:00:00 | 00:00:00 | 00:00:00 | |
| BIOWL1-15 | 2026-09-05 00:37:39 | 51.45646 | 8.89877 | 171° | 13km/h | 26805m | -15.1m/s | -48.3°C | 0% | 20.1hPa | 2.5V | 08:26:51 | 02:19:38 | 00:00:00 | |
| BIOWL1-15 | 2026-09-05 00:37:26 | 51.45692 | 8.89924 | 267° | 24km/h | 26955m | -19.1m/s | -48.8°C | 0% | 19.7hPa | 2.6V | 08:26:51 | 02:19:29 | 00:00:00 | |
| DL1XH1-15 | 2026-09-05 00:37:26 | 51.45698 | 8.89916 | 102° | 27km/h | 27033m | -15.1m/s | 0°C | 0% | 0hPa | 2.6V | 08:26:51 | 02:19:24 | 00:00:00 | |
| DL1XH-west | 2026-09-05 00:37:21 | 51.45696 | 8.89925 | 110° | 22km/h | 27019m | -13.8m/s | 0°C | 0% | 0hPa | 2.5V | 08:26:51 | 02:19:25 | 00:00:00 | |
| BIOWL1-15 | 2026-09-05 00:37:16 | 51.45688 | 8.89876 | 27° | 33km/h | 27100m | -16.3m/s | -48.7°C | 0% | 19.3hPa | 2.5V | 08:27:42 | 02:19:20 | 00:00:00 | |
| DL1XH-west | 2026-09-05 00:37:10 | 51.45653 | 8.89909 | 265° | 27km/h | 27199m | -15.7m/s | 0°C | 0% | 0hPa | 2.5V | 18:12:15 | 02:19:14 | 00:00:00 | |
| BIOWL1-15 | 2026-09-05 00:37:06 | 51.45671 | 8.89930 | 162° | 26km/h | 27267m | -17.5m/s | -48.1°C | 0% | 18.8hPa | 2.5V | 08:27:42 | 02:19:10 | 00:00:00 | |
| BIOWL1-15 | 2026-09-05 00:36:59 | 51.45590 | 8.89851 | 293° | 18km/h | 27490m | -16.6m/s | -47.2°C | 0% | 18.2hPa | 2.5V | 08:27:42 | 02:18:57 | 00:00:00 | |
| DL1XH-west | 2026-09-05 00:36:56 | 51.45609 | 8.89837 | 355° | 44km/h | 27437m | -18.7m/s | 0°C | 0% | 0hPa | 2.6V | 18:12:15 | 02:19:00 | 00:00:00 | |
| DJ2KF-10 | 2026-09-05 00:36:55 | 51.45600 | 8.89840 | 343° | 26km/h | 27456m | -17.7m/s | -47.3°C | 2.9% | 18.2hPa | 2.5V | 00:00:00 | 02:18:59 | 00:00:00 | |
| DL1XH1-15 | 2026-09-05 00:36:54 | 51.45591 | 8.89851 | 293° | 18km/h | 27490m | -16.6m/s | 0°C | 0% | 0hPa | 2.5V | 00:00:00 | 02:18:57 | 00:00:00 | |
| DL1XH-west | 2026-09-05 00:36:45 | 51.45616 | 8.89842 | 83° | 26km/h | 27624m | -16m/s | 0°C | 0% | 0hPa | 2.5V | 18:12:15 | 02:18:49 | 00:00:00 | |
| DL4BBY-15 | 2026-09-05 00:36:45 | 51.45616 | 8.89842 | 83° | 20km/h | 27624m | -16.0m/s | -47.5°C | 0% | 0hPa | 2.5V | 00:00:00 | 00:00:00 | 00:00:00 | |
| DD1CC1-15 | 2026-09-05 00:36:44 | 51.45616 | 8.89842 | 84° | 26km/h | 27624m | -16.0m/s | -47.4°C | 0.6% | 17.8hPa | 2.5V | 08:27:00 | 00:00:00 | 00:00:00 | |
| EDDB2-11 | 2026-09-05 00:36:43 | 51.45610 | 8.89821 | 54° | 31km/h | 27658m | -17.1m/s | -47.5°C | 0.6% | 17.7hPa | 2.5V | 00:00:00 | 00:00:00 | 00:00:00 | |
| DL1XH1-15 | 2026-09-05 00:36:42 | 51.45599 | 8.89801 | 44° | 35km/h | 27692m | -17.1m/s | 0°C | 0% | 0hPa | 2.5V | 00:00:00 | 02:18:45 | 00:00:00 | |
| DL1XH-west | 2026-09-05 00:36:34 | 51.45576 | 8.89787 | 193° | 13km/h | 27821m | -18m/s | 0°C | 0% | 0hPa | 2.5V | 18:12:15 | 02:18:38 | 00:00:00 | |
| BIOWL1-15 | 2026-09-05 00:36:29 | 51.45619 | 8.89756 | 107° | 26km/h | 27958m | -18.3m/s | -47°C | 0% | 16.9hPa | 2.6V | 08:28:33 | 02:18:30 | 00:00:00 | |
| DL1XH-west | 2026-09-05 00:36:21 | 51.45615 | 8.89728 | 30° | 9km/h | 28041m | -16.9m/s | 0°C | 0% | 0hPa | 2.5V | 18:12:15 | 02:18:25 | 00:00:00 | |
| BIOWL1-15 | 2026-09-05 00:36:17 | 51.45616 | 8.89698 | 108° | 35km/h | 28124m | -17.1m/s | -46.3°C | 0% | 16.5hPa | 2.5V | 08:28:33 | 02:18:20 | 00:00:00 | |
| BIOWL1-15 | 2026-09-05 00:36:06 | 51.45657 | 8.89619 | 229° | 18km/h | 28317m | -21.3m/s | -45.4°C | 0% | 16hPa | 2.5V | 08:28:33 | 02:18:10 | 00:00:00 | |
| BIOWL1-15 | 2026-09-05 00:35:56 | 51.45737 | 8.89620 | 147° | 42km/h | 28515m | -20.2m/s | -46°C | 0% | 15.6hPa | 2.6V | 08:28:33 | 02:18:00 | 00:00:00 | |
| DB0ND-19 | 2026-09-05 00:35:55 | 51.45745 | 8.89610 | 129° | 37km/h | 28535m | -19.9m/s | -46.1°C | 0.6% | 15.5hPa | 2.6V | 00:00:00 | 00:00:00 | 00:00:00 | |
| DF7PN | 2026-09-05 00:35:49 | 51.45745 | 8.89586 | 298° | 26km/h | 28654m | -19.5m/s | -46.5°C | 0.6% | 15.2hPa | 2.6V | 00:00:00 | 00:00:00 | 00:00:00 | |
| SONCRA | 2026-09-05 00:35:47 | 51.45742 | 8.89612 | 267° | 40km/h | 28694m | -20.4m/s | -46.5°C | 0.6% | 15.1hPa | 2.6V | 00:00:00 | 00:00:00 | 00:00:00 | |
| BIOWL1-15 | 2026-09-05 00:35:45 | 51.45770 | 8.89665 | 200° | 49km/h | 28780m | -22.3m/s | -46.9°C | 0% | 14.9hPa | 2.6V | 08:28:33 | 02:17:47 | 00:00:00 | |
| BIOWL1-15 | 2026-09-05 00:35:35 | 51.45800 | 8.89590 | 27° | 35km/h | 28962m | -23m/s | -46.9°C | 0% | 14.5hPa | 2.5V | 08:29:24 | 02:17:39 | 00:00:00 | |
| BIOWL1-15 | 2026-09-05 00:35:23 | 51.45808 | 8.89691 | 157° | 26km/h | 29239m | -23.6m/s | -45.5°C | 0% | 13.9hPa | 2.5V | 08:29:24 | 02:17:27 | 00:00:00 | |
| BIOWL1-15 | 2026-09-05 00:35:13 | 51.45740 | 8.89702 | 303° | 44km/h | 29464m | -25.7m/s | -44.9°C | 0% | 13.4hPa | 2.6V | 08:29:24 | 02:17:17 | 00:00:00 | |
| BIOWL1-15 | 2026-09-05 00:35:02 | 51.45730 | 8.89627 | 43° | 58km/h | 29746m | -26.1m/s | -44.4°C | 0% | 12.9hPa | 2.6V | 08:29:24 | 02:17:06 | 00:00:00 | |
| BIOWL1-15 | 2026-09-05 00:34:51 | 51.45695 | 8.89684 | 193° | 26km/h | 30017m | -24.9m/s | -44.9°C | 0% | 12.4hPa | 2.6V | 08:29:24 | 02:16:55 | 00:00:00 | |
| SONDE2-11 | 2026-09-05 00:34:50 | 51.45701 | 8.89673 | 50° | 15km/h | 30132m | -23.8m/s | 0°C | -1.0% | -1.0hPa | 2.5V | 00:00:00 | 00:00:00 | 00:00:00 | |
| DF7PN | 2026-09-05 00:34:47 | 51.45701 | 8.89673 | 50° | 15km/h | 30132m | -23.8m/s | -45.0°C | 0.6% | 12.2hPa | 2.5V | 00:00:00 | 00:00:00 | 00:00:00 | |
| SONCRA | 2026-09-05 00:34:45 | 51.45699 | 8.89669 | 47° | 13km/h | 30155m | -25.0m/s | -45.0°C | 0.6% | 12.2hPa | 2.5V | 00:00:00 | 00:00:00 | 00:00:00 | |
| BIOWL1-15 | 2026-09-05 00:34:44 | 51.45703 | 8.89632 | 201° | 7km/h | 30375m | -25.5m/s | -44.3°C | 0% | 11.8hPa | 2.5V | 18:12:15 | 02:16:40 | 00:00:00 | |
| DO3DL | 2026-09-05 00:34:43 | 51.45697 | 8.89664 | 60° | 13km/h | 30179m | -24.8m/s | -45.0°C | 0.5% | 12.1hPa | 2.5V | 00:00:00 | 00:00:00 | 00:00:00 | |
| BIOWL1-15 | 2026-09-05 00:34:30 | 51.45694 | 8.89580 | 39° | 37km/h | 30667m | -23.8m/s | -45.2°C | 0% | 11.2hPa | 2.5V | 18:12:15 | 02:16:29 | 00:00:00 | |
| DL1ZP-14 | 2026-09-05 00:34:28 | 51.45708 | 8.89612 | 76° | 27km/h | 30592m | -25.2m/s | -44.9°C | 0.6% | 11.4hPa | 2.6V | 00:00:00 | 00:00:00 | 00:00:00 | |
| DL1XH1-15 | 2026-09-05 00:34:27 | 51.45670 | 8.89563 | 1° | 31km/h | 30733m | -20.1m/s | 0°C | 0% | 0hPa | 2.6V | 00:00:00 | 02:16:26 | 00:00:00 | |
| DL1XH-west | 2026-09-05 00:34:18 | 51.45660 | 8.89563 | 144° | 7km/h | 30821m | -24.2m/s | 0°C | 0% | 0hPa | 2.5V | 18:12:15 | 02:16:22 | 00:00:00 | |
| BIOWL1-15 | 2026-09-05 00:34:16 | 51.45669 | 8.89556 | 156° | 16km/h | 30897m | -26.1m/s | -44.5°C | 0% | 10.9hPa | 2.5V | 18:12:15 | 02:16:19 | 00:00:00 | |
| BIOWL1-15 | 2026-09-05 00:34:06 | 51.45703 | 8.89453 | 162° | 27km/h | 31325m | -23.7m/s | -42.4°C | 0% | 10.2hPa | 2.6V | 18:12:15 | 02:16:04 | 00:00:00 | |
| BIOWL1-15 | 2026-09-05 00:34:04 | 51.45718 | 8.89439 | 106° | 15km/h | 31414m | -21.1m/s | -42.4°C | 0% | 10hPa | 2.5V | 18:12:15 | 02:16:00 | 00:00:00 | |
| GOEST3-10 | 2026-09-05 00:34:03 | 51.45684 | 8.89469 | 140° | 27km/h | 31246m | -29.7m/s | -42.6°C | 2.4% | 10.3hPa | 2.5V | 00:00:00 | 02:16:07 | 00:00:00 | |
| DL3OBA | 2026-09-05 00:34:02 | 51.45684 | 8.89469 | 141° | 27km/h | 31246m | -29.7m/s | -42.7°C | 0.5% | 10.3hPa | 2.5V | 00:00:00 | 00:00:00 | 00:00:00 | |
| BIOWL1-15 | 2026-09-05 00:33:45 | 51.45754 | 8.89366 | 105° | 7km/h | 31618m | -32m/s | -42°C | 0% | 9.8hPa | 2.5V | 18:12:15 | 02:15:49 | 00:00:00 | |
| DF7PN | 2026-09-05 00:33:45 | 51.45755 | 8.89364 | 84° | 4km/h | 31648m | -27.4m/s | -42.1°C | 0.5% | 9.7hPa | 2.6V | 00:00:00 | 00:00:00 | 00:00:00 | |
| BIOWL1-15 | 2026-09-05 00:33:35 | 51.45750 | 8.89340 | 133° | 11km/h | 31664m | 5.5m/s | -42.3°C | 0% | 9.7hPa | 2.6V | 18:12:15 | 02:15:39 | 00:00:00 | |
| BIOWL1-15 | 2026-09-05 00:33:24 | 51.45766 | 8.89273 | 136° | 15km/h | 31588m | 4.7m/s | -42.4°C | 0% | 9.8hPa | 2.6V | 18:12:15 | 02:15:24 | 00:00:00 | |
| BIOWL1-15 | 2026-09-05 00:33:13 | 51.45770 | 8.89209 | 100° | 22km/h | 31553m | 4.7m/s | -42.4°C | 0% | 9.8hPa | 2.5V | 18:12:15 | 02:15:17 | 00:00:00 | |
| BIOWL1-15 | 2026-09-05 00:33:07 | 51.45789 | 8.89161 | 128° | 31km/h | 31502m | 4.6m/s | -42.5°C | 0% | 9.9hPa | 2.6V | 18:12:15 | 02:15:07 | 00:00:00 | |
| BIOWL1-15 | 2026-09-05 00:32:52 | 51.45817 | 8.89091 | 165° | 29km/h | 31447m | 5.6m/s | -42.6°C | 0% | 10hPa | 2.5V | 18:12:15 | 02:14:56 | 00:00:00 | |
| BIOWL9-15 | 2026-09-05 00:32:52 | 51.45824 | 8.89089 | 169° | 29km/h | 31442m | 4.5m/s | -42.6°C | 0.5% | 10.0hPa | 2.6V | 00:00:00 | 00:00:00 | 00:00:00 | |
| DO1YAY-16 | 2026-09-05 00:32:51 | 51.45824 | 8.89089 | 169° | 29km/h | 31442m | 4.5m/s | -42.6°C | 0.5% | 10.0hPa | 2.6V | 00:00:00 | 00:00:00 | 00:00:00 | |
| DB0ND-19 | 2026-09-05 00:32:49 | 51.45837 | 8.89083 | 152° | 24km/h | 31434m | 3.9m/s | -42.6°C | 0.5% | 10.0hPa | 2.6V | 00:00:00 | 00:00:00 | 00:00:00 | |
| HSKMA3-T | 2026-09-05 00:32:42 | 51.45856 | 8.89010 | 125° | 24km/h | 31400m | 5.1m/s | 0°C | 0% | 0hPa | 2.6V | 18:12:15 | 02:14:46 | 00:00:00 | |
| BIOWL1-15 | 2026-09-05 00:32:42 | 51.45864 | 8.89001 | 171° | 18km/h | 31389m | 5.7m/s | -42.8°C | 0% | 10.1hPa | 2.5V | 18:12:15 | 02:14:44 | 00:00:00 | |
| HSKMA3-T | 2026-09-05 00:32:24 | 51.45911 | 8.88906 | 121° | 20km/h | 31309m | 5.3m/s | 0°C | 0% | 0hPa | 2.5V | 18:12:15 | 02:14:28 | 00:00:00 | |
| BIOWL1-15 | 2026-09-05 00:32:13 | 51.45930 | 8.88783 | 96° | 22km/h | 31241m | 5.8m/s | -43.5°C | 0% | 10.3hPa | 2.6V | 18:12:15 | 02:14:15 | 00:00:00 | |
| HSKMA3-T | 2026-09-05 00:32:12 | 51.45930 | 8.88792 | 99° | 26km/h | 31247m | 4.8m/s | 0°C | 0% | 0hPa | 2.5V | 18:12:15 | 02:14:16 | 00:00:00 | |
| HSKMA3-T | 2026-09-05 00:32:01 | 51.45924 | 8.88693 | 93° | 13km/h | 31191m | 6m/s | 0°C | 0% | 0hPa | 2.5V | 18:12:15 | 02:14:05 | 00:00:00 | |
| BIOWL1-15 | 2026-09-05 00:32:00 | 51.45930 | 8.88658 | 95° | 22km/h | 31155m | 4.5m/s | -44.3°C | 0% | 10.4hPa | 2.6V | 18:12:15 | 02:13:58 | 00:00:00 | |
| HSKMA3-T | 2026-09-05 00:31:51 | 51.45930 | 8.88637 | 99° | 11km/h | 31141m | 4.9m/s | 0°C | 0% | 0hPa | 2.5V | 18:12:15 | 02:13:55 | 00:00:00 | |
| DL1XH-west | 2026-09-05 00:31:50 | 51.45931 | 8.88634 | 131° | 9km/h | 31136m | 4.7m/s | 0°C | 0% | 0hPa | 2.6V | 18:12:15 | 02:13:54 | 00:00:00 | |
| BIOWL1-15 | 2026-09-05 00:31:49 | 51.45933 | 8.88631 | 151° | 13km/h | 31131m | 4.8m/s | -44.4°C | 0% | 10.5hPa | 2.6V | 18:12:15 | 02:13:53 | 00:00:00 | |
| DO1YAY-16 | 2026-09-05 00:31:49 | 51.45933 | 8.88631 | 151° | 11km/h | 31132m | 4.8m/s | -44.4°C | 0.5% | 10.5hPa | 2.5V | 00:00:00 | 00:00:00 | 00:00:00 | |
| DL1NUX | 2026-09-05 00:31:47 | 51.45953 | 8.88592 | 102° | 22km/h | 31102m | 4.5m/s | -44.4°C | 2.5% | 10.5hPa | 2.5V | 08:30:00 | 02:13:47 | 00:00:00 | |
| HSKMA3-T | 2026-09-05 00:31:40 | 51.45953 | 8.88576 | 69° | 4km/h | 31086m | 5.2m/s | 0°C | 0% | 0hPa | 2.5V | 18:12:15 | 02:13:44 | 00:00:00 | |
| BIOWL1-15 | 2026-09-05 00:31:39 | 51.45953 | 8.88575 | 184° | 0km/h | 31081m | 4.3m/s | -44.4°C | 0% | 10.5hPa | 2.6V | 18:12:15 | 02:13:43 | 00:00:00 | |
| SONCRA | 2026-09-05 00:31:39 | 51.45954 | 8.88575 | 175° | 4km/h | 31077m | 3.6m/s | -44.5°C | 0.5% | 10.6hPa | 2.6V | 00:00:00 | 00:00:00 | 00:00:00 | |
| DL1NUX | 2026-09-05 00:31:37 | 51.45970 | 8.88542 | 109° | 35km/h | 31053m | 4.6m/s | -44.6°C | 2.5% | 10.6hPa | 2.6V | 08:30:00 | 02:13:37 | 00:00:00 | |
| HSKMA3-T | 2026-09-05 00:31:30 | 51.45973 | 8.88508 | 83° | 20km/h | 31038m | 5.3m/s | 0°C | 0% | 0hPa | 2.5V | 18:12:15 | 02:13:34 | 00:00:00 | |
| BIOWL1-15 | 2026-09-05 00:31:29 | 51.45972 | 8.88502 | 69° | 11km/h | 31033m | 5.2m/s | -44.8°C | 0% | 10.6hPa | 2.5V | 18:12:15 | 02:13:33 | 00:00:00 | |
| DL1NUX | 2026-09-05 00:31:27 | 51.45980 | 8.88487 | 132° | 18km/h | 31002m | 4.8m/s | -45.1°C | 2.6% | 10.7hPa | 2.6V | 08:30:00 | 02:13:27 | 00:00:00 | |
| HSKMA3-T | 2026-09-05 00:31:19 | 51.45986 | 8.88457 | 87° | 22km/h | 30982m | 4.7m/s | 0°C | 0% | 0hPa | 2.5V | 18:12:15 | 02:13:23 | 00:00:00 | |
| BIOWL1-15 | 2026-09-05 00:31:18 | 51.45981 | 8.88392 | 79° | 13km/h | 30946m | 6.4m/s | -45.6°C | 0% | 10.8hPa | 2.6V | 18:12:15 | 02:13:16 | 00:00:00 | |
| DO1YAY-16 | 2026-09-05 00:31:18 | 51.45986 | 8.88447 | 80° | 24km/h | 30977m | 4.8m/s | -45.3°C | 0.6% | 10.7hPa | 2.6V | 00:00:00 | 00:00:00 | 00:00:00 | |
| DL1NUX | 2026-09-05 00:31:17 | 51.45982 | 8.88398 | 84° | 18km/h | 30952m | 4.9m/s | -45.5°C | 2.7% | 10.7hPa | 2.6V | 08:30:00 | 02:13:17 | 00:00:00 | |
| HSKMA3-T | 2026-09-05 00:31:08 | 51.45979 | 8.88378 | 88° | 15km/h | 30926m | 5.4m/s | 0°C | 0% | 0hPa | 2.5V | 18:12:15 | 02:13:12 | 00:00:00 | |
| BIOWL1-15 | 2026-09-05 00:31:06 | 51.45979 | 8.88360 | 92° | 31km/h | 30914m | 5.4m/s | -45.7°C | 0% | 10.8hPa | 2.6V | 18:12:15 | 02:13:10 | 00:00:00 | |
| HSKMA3-T | 2026-09-05 00:30:58 | 51.45966 | 8.88274 | 73° | 16km/h | 30873m | 5.9m/s | 0°C | 0% | 0hPa | 2.5V | 18:12:15 | 02:13:02 | 00:00:00 | |
| BIOWL1-15 | 2026-09-05 00:30:55 | 51.45966 | 8.88256 | 94° | 15km/h | 30858m | 4.7m/s | -45.7°C | 0% | 10.9hPa | 2.6V | 18:12:15 | 02:12:59 | 00:00:00 | |
| BIOWL1-15 | 2026-09-05 00:30:49 | 51.45948 | 8.88178 | 43° | 22km/h | 30806m | 6.3m/s | -45.9°C | 0% | 11hPa | 2.6V | 18:12:15 | 02:12:49 | 00:00:00 | |
| HSKMA3-T | 2026-09-05 00:30:48 | 51.45956 | 8.88204 | 75° | 27km/h | 30820m | 4.4m/s | 0°C | 0% | 0hPa | 2.5V | 18:12:15 | 02:12:52 | 00:00:00 | |
| AU51GT2 | 2026-09-05 00:30:48 | 51.45956 | 8.88204 | 74° | 26km/h | 30821m | 4.4m/s | -45.8°C | 0.6% | 11.0hPa | 2.6V | 00:00:00 | 00:00:00 | 00:00:00 | |
| DO1YAY-16 | 2026-09-05 00:30:47 | 51.45954 | 8.88194 | 69° | 26km/h | 30816m | 3.9m/s | -45.8°C | 0.6% | 11.0hPa | 2.6V | 00:00:00 | 00:00:00 | 00:00:00 | |
| DB0ND-19 | 2026-09-05 00:30:45 | 51.45948 | 8.88178 | 42° | 20km/h | 30807m | 6.3m/s | -45.9°C | 0.6% | 11.0hPa | 2.6V | 00:00:00 | 00:00:00 | 00:00:00 | |
| DL1NUX | 2026-09-05 00:30:41 | 51.45932 | 8.88168 | 19° | 11km/h | 30784m | 5.8m/s | -45.9°C | 2.8% | 11hPa | 2.6V | 08:30:00 | 02:12:45 | 00:00:00 | |
| HSKMA3-T | 2026-09-05 00:30:38 | 51.45928 | 8.88158 | 70° | 13km/h | 30769m | 4.6m/s | 0°C | 0% | 0hPa | 2.5V | 18:12:15 | 02:12:42 | 00:00:00 | |
| BIOWL1-15 | 2026-09-05 00:30:37 | 51.45920 | 8.88141 | 47° | 24km/h | 30752m | 5.2m/s | -45.9°C | 0% | 11.1hPa | 2.6V | 18:12:15 | 02:12:39 | 00:00:00 | |
| BIOWL1-15 | 2026-09-05 00:30:25 | 51.45872 | 8.88095 | 96° | 15km/h | 30680m | 4.7m/s | -45.6°C | 0% | 11.2hPa | 2.6V | 18:12:15 | 02:12:25 | 00:00:00 | |
| DJ2KF-10 | 2026-09-05 00:30:23 | 51.45873 | 8.88103 | 43° | 15km/h | 30691m | 6.4m/s | -45.6°C | 2.8% | 11.1hPa | 2.6V | 00:00:00 | 02:12:27 | 00:00:00 | |
| GOEST3-10 | 2026-09-05 00:30:22 | 51.45872 | 8.88100 | 94° | 16km/h | 30685m | 5.8m/s | -45.6°C | 2.8% | 11.2hPa | 2.6V | 00:00:00 | 00:00:00 | 00:00:00 | |
| DO9LL-15 | 2026-09-05 00:30:21 | 51.45872 | 8.88095 | 96° | 13km/h | 30680m | 4.7m/s | -45.6°C | 2.8% | 11.1hPa | 2.6V | 00:00:00 | 02:12:25 | 00:00:00 | |
| DL1ZP-14 | 2026-09-05 00:30:20 | 51.45871 | 8.88081 | 67° | 18km/h | 30670m | 5.8m/s | -45.6°C | 0.6% | 11.2hPa | 2.5V | 00:00:00 | 00:00:00 | 00:00:00 | |
| DL1NUX | 2026-09-05 00:30:18 | 51.45841 | 8.88066 | 342° | 16km/h | 30637m | 5.4m/s | -45.6°C | 2.8% | 11.3hPa | 2.5V | 08:30:00 | 02:12:17 | 00:00:00 | |
| HSKMA3-T | 2026-09-05 00:30:15 | 51.45852 | 8.88065 | 4° | 24km/h | 30649m | 5.5m/s | 0°C | 0% | 0hPa | 2.6V | 18:12:15 | 02:12:19 | 00:00:00 | |
| HSKMA3-T | 2026-09-05 00:30:05 | 51.45826 | 8.88070 | 94° | 11km/h | 30593m | 5.5m/s | -45.5°C | 0% | 0hPa | 2.6V | 18:12:15 | 02:12:09 | 00:00:00 | |
| BIOWL1-15 | 2026-09-05 00:30:00 | 51.45812 | 8.88056 | 350° | 24km/h | 30567m | 5m/s | -45.4°C | 0% | 11.4hPa | 2.5V | 18:12:15 | 02:12:04 | 00:00:00 | |
| HSKMA3-T | 2026-09-05 00:29:54 | 51.45795 | 8.88079 | 242° | 5km/h | 30536m | 4.5m/s | -45.3°C | 0% | 0hPa | 2.6V | 18:12:15 | 02:11:58 | 00:00:00 | |
| BIOWL1-15 | 2026-09-05 00:29:49 | 51.45786 | 8.88086 | 348° | 20km/h | 30509m | 5.1m/s | -45.2°C | 0% | 11.5hPa | 2.6V | 18:12:15 | 02:11:53 | 00:00:00 | |
| HSKMA3-T | 2026-09-05 00:29:44 | 51.45770 | 8.88101 | 288° | 13km/h | 30482m | 4.8m/s | 0°C | 0% | 0hPa | 2.6V | 18:12:15 | 02:11:48 | 00:00:00 | |
| BIOWL1-15 | 2026-09-05 00:29:38 | 51.45755 | 8.88134 | 324° | 18km/h | 30449m | 6.2m/s | -45°C | 0% | 11.6hPa | 2.6V | 18:12:15 | 02:11:42 | 00:00:00 | |
| HSKMA3-T | 2026-09-05 00:29:33 | 51.45734 | 8.88148 | 344° | 22km/h | 30421m | 5.6m/s | 0°C | 0% | 0hPa | 2.6V | 18:12:15 | 02:11:37 | 00:00:00 | |
| BIOWL1-15 | 2026-09-05 00:29:28 | 51.45707 | 8.88189 | 332° | 24km/h | 30374m | 5.2m/s | -45.4°C | 0% | 11.8hPa | 2.6V | 18:12:15 | 02:11:28 | 00:00:00 | |
| DL1NUX | 2026-09-05 00:29:27 | 51.45702 | 8.88193 | 339° | 24km/h | 30369m | 4.8m/s | -45.4°C | 2.7% | 11.7hPa | 2.6V | 08:30:00 | 02:11:27 | 00:00:00 | |
| HSKMA3-T | 2026-09-05 00:29:19 | 51.45685 | 8.88199 | 344° | 7km/h | 30347m | 5.2m/s | 0°C | 0% | 0hPa | 2.6V | 18:12:15 | 02:11:23 | 00:00:00 | |
| BIOWL1-15 | 2026-09-05 00:29:14 | 51.45677 | 8.88219 | 283° | 20km/h | 30320m | 5.8m/s | -45.4°C | 0% | 11.8hPa | 2.6V | 18:12:15 | 02:11:18 | 00:00:00 | |
| HSKMA3-T | 2026-09-05 00:29:04 | 51.45660 | 8.88283 | 258° | 5km/h | 30264m | 5.5m/s | 0°C | 0% | 0hPa | 2.6V | 18:12:15 | 02:11:08 | 00:00:00 | |
| BIOWL1-15 | 2026-09-05 00:29:03 | 51.45661 | 8.88288 | 251° | 9km/h | 30254m | 5.6m/s | -45.3°C | 0% | 12hPa | 2.5V | 18:12:15 | 02:11:06 | 00:00:00 | |
| BIOWL1-15 | 2026-09-05 00:28:52 | 51.45656 | 8.88356 | 313° | 18km/h | 30200m | 5.8m/s | -45.2°C | 0% | 12.1hPa | 2.5V | 18:12:15 | 02:10:56 | 00:00:00 | |
| HARRO8 | 2026-09-05 00:28:51 | 51.45652 | 8.88361 | 320° | 16km/h | 30195m | 4.6m/s | -45.2°C | 0.6% | 12.1hPa | 2.5V | 00:00:00 | 00:00:00 | 00:00:00 | |
| DL1ZP-14 | 2026-09-05 00:28:46 | 51.45650 | 8.88375 | 217° | 11km/h | 30168m | 5.0m/s | -45.2°C | 0.6% | 12.1hPa | 2.5V | 00:00:00 | 00:00:00 | 00:00:00 | |
| BIOWL1-15 | 2026-09-05 00:28:41 | 51.45660 | 8.88421 | 226° | 9km/h | 30109m | 5.5m/s | -44.9°C | 0% | 12.2hPa | 2.5V | 18:12:15 | 02:10:39 | 00:00:00 | |
| BIOWL1-15 | 2026-09-05 00:28:30 | 51.45665 | 8.88444 | 229° | 13km/h | 30076m | 5.4m/s | -45.1°C | 0% | 12.3hPa | 2.6V | 18:12:15 | 02:10:33 | 00:00:00 | |
| BIOWL1-15 | 2026-09-05 00:28:19 | 51.45685 | 8.88463 | 186° | 13km/h | 30023m | 5.3m/s | -45°C | 0% | 12.4hPa | 2.6V | 18:12:15 | 02:10:23 | 00:00:00 | |
| BIOWL1-15 | 2026-09-05 00:28:12 | 51.45709 | 8.88483 | 181° | 5km/h | 29963m | 5.2m/s | -45°C | 0% | 12.5hPa | 2.6V | 18:12:15 | 02:10:12 | 00:00:00 | |
| BIOWL1-15 | 2026-09-05 00:27:58 | 51.45716 | 8.88493 | 265° | 11km/h | 29912m | 4.3m/s | -44.8°C | 0% | 12.6hPa | 2.6V | 18:12:15 | 02:10:02 | 00:00:00 | |
| BIOWL1-15 | 2026-09-05 00:27:47 | 51.45724 | 8.88472 | 147° | 0km/h | 29846m | 4.5m/s | -44.7°C | 0% | 12.7hPa | 2.5V | 18:12:15 | 02:09:49 | 00:00:00 | |
| DL1ZP-14 | 2026-09-05 00:27:44 | 51.45724 | 8.88471 | 73° | 4km/h | 29841m | 5.3m/s | -44.7°C | 0.6% | 12.7hPa | 2.6V | 00:00:00 | 00:00:00 | 00:00:00 | |
| BIOWL1-15 | 2026-09-05 00:27:33 | 51.45720 | 8.88421 | 19° | 11km/h | 29782m | 4.8m/s | -44.4°C | 0% | 12.8hPa | 2.6V | 18:12:15 | 02:09:37 | 00:00:00 | |
| BIOWL1-15 | 2026-09-05 00:27:22 | 51.45708 | 8.88377 | 59° | 15km/h | 29723m | 5m/s | -44.2°C | 0% | 12.9hPa | 2.5V | 18:12:15 | 02:09:25 | 00:00:00 | |
| BIOWL1-15 | 2026-09-05 00:27:11 | 51.45692 | 8.88371 | 60° | 18km/h | 29654m | 6.3m/s | -44.1°C | 0% | 13.1hPa | 2.6V | 18:12:15 | 02:09:12 | 00:00:00 | |
| HSKMA3-T | 2026-09-05 00:27:03 | 51.45673 | 8.88358 | 317° | 15km/h | 29628m | 5.8m/s | 0°C | 0% | 0hPa | 2.6V | 18:12:15 | 02:09:07 | 00:00:00 | |
| BIOWL1-15 | 2026-09-05 00:26:59 | 51.45660 | 8.88390 | 88° | 9km/h | 29585m | 6.4m/s | -44.4°C | 0% | 13.2hPa | 2.5V | 18:12:15 | 02:08:59 | 00:00:00 | |
| BIOWL1-15 | 2026-09-05 00:26:49 | 51.45633 | 8.88380 | 297° | 13km/h | 29539m | 4.5m/s | -44.3°C | 0% | 13.3hPa | 2.5V | 18:12:15 | 02:08:50 | 00:00:00 | |
| HARRO8 | 2026-09-05 00:26:47 | 51.45635 | 8.88376 | 316° | 16km/h | 29544m | 5.3m/s | -44.3°C | 0.5% | 13.3hPa | 2.6V | 00:00:00 | 00:00:00 | 00:00:00 | |
| BIOWL1-15 | 2026-09-05 00:26:39 | 51.45627 | 8.88369 | 55° | 15km/h | 29504m | 5m/s | -44.4°C | 0% | 13.4hPa | 2.6V | 18:12:15 | 02:08:43 | 00:00:00 | |
| BIOWL1-15 | 2026-09-05 00:26:32 | 51.45586 | 8.88369 | 350° | 7km/h | 29416m | 5.3m/s | -44.7°C | 0% | 13.6hPa | 2.5V | 18:12:15 | 02:08:26 | 00:00:00 | |
| BIOWL1-15 | 2026-09-05 00:26:16 | 51.45575 | 8.88400 | 318° | 16km/h | 29382m | 5.1m/s | -44.6°C | 0% | 13.6hPa | 2.5V | 18:12:15 | 02:08:20 | 00:00:00 | |
| BIOWL1-15 | 2026-09-05 00:26:10 | 51.45568 | 8.88426 | 309° | 11km/h | 29329m | 4.5m/s | -45.1°C | 0% | 13.7hPa | 2.5V | 18:12:15 | 02:08:10 | 00:00:00 | |
| BIOWL1-15 | 2026-09-05 00:25:57 | 51.45556 | 8.88473 | 320° | 13km/h | 29272m | 5.7m/s | -45.5°C | 0% | 13.9hPa | 2.5V | 18:12:15 | 02:07:59 | 00:00:00 | |
| BIOWL1-15 | 2026-09-05 00:25:44 | 51.45537 | 8.88531 | 287° | 15km/h | 29212m | 4.9m/s | -45.5°C | 0% | 14hPa | 2.6V | 18:12:15 | 02:07:48 | 00:00:00 | |
| BIOWL1-15 | 2026-09-05 00:25:33 | 51.45531 | 8.88552 | 323° | 15km/h | 29145m | 5.3m/s | -45.4°C | 0% | 14.2hPa | 2.5V | 18:12:15 | 02:07:36 | 00:00:00 | |
| BIOWL1-15 | 2026-09-05 00:25:22 | 51.45528 | 8.88554 | 28° | 2km/h | 29089m | 5m/s | -45.6°C | 0% | 14.2hPa | 2.5V | 18:12:15 | 02:07:26 | 00:00:00 | |
| DC6BW-12 | 2026-09-05 00:25:22 | 51.45527 | 8.88555 | 120° | 5km/h | 29094m | 5.7m/s | -45.6°C | 0.6% | 14.2hPa | 2.5V | 00:00:00 | 00:00:00 | 00:00:00 | |
| BIOWL1-15 | 2026-09-05 00:25:11 | 51.45508 | 8.88535 | 1° | 4km/h | 28995m | 5.3m/s | -46.2°C | 0% | 14.5hPa | 2.5V | 18:12:15 | 02:07:09 | 00:00:00 | |
| BIOWL1-15 | 2026-09-05 00:24:55 | 51.45522 | 8.88549 | 132° | 13km/h | 28938m | 5.7m/s | -46.6°C | 0% | 14.6hPa | 2.5V | 18:12:15 | 02:06:59 | 00:00:00 | |
| BIOWL1-15 | 2026-09-05 00:24:44 | 51.45526 | 8.88558 | 208° | 16km/h | 28876m | 6.4m/s | -46.8°C | 0% | 14.7hPa | 2.6V | 18:12:15 | 02:06:48 | 00:00:00 | |
| DB0UT-7 | 2026-09-05 00:24:44 | 51.45525 | 8.88558 | 208° | 15km/h | 28876m | 6.3m/s | -46.8°C | 2.9% | 14.7hPa | 2.5V | 00:00:00 | 00:00:00 | 00:00:00 | |
| BIOWL1-15 | 2026-09-05 00:24:33 | 51.45559 | 8.88600 | 178° | 20km/h | 28776m | 4.4m/s | -46.6°C | 0% | 14.9hPa | 2.5V | 18:12:15 | 02:06:30 | 00:00:00 | |
| BIOWL1-15 | 2026-09-05 00:24:19 | 51.45568 | 8.88617 | 266° | 18km/h | 28737m | 4.4m/s | -46.4°C | 0% | 15hPa | 2.6V | 18:12:15 | 02:06:23 | 00:00:00 | |
| BIOWL1-15 | 2026-09-05 00:24:10 | 51.45602 | 8.88632 | 136° | 2km/h | 28678m | 5.8m/s | -46.1°C | 0% | 15.2hPa | 2.6V | 18:12:15 | 02:06:12 | 00:00:00 | |
| BIOWL1-15 | 2026-09-05 00:23:57 | 51.45635 | 8.88657 | 157° | 18km/h | 28621m | 5.6m/s | -45.9°C | 0% | 15.3hPa | 2.5V | 18:12:15 | 02:06:01 | 00:00:00 | |
| DF7PN | 2026-09-05 00:23:54 | 51.45646 | 8.88652 | 170° | 11km/h | 28605m | 4.9m/s | -45.8°C | 0.6% | 15.3hPa | 2.5V | 00:00:00 | 00:00:00 | 00:00:00 | |
| SONCRA | 2026-09-05 00:23:53 | 51.45651 | 8.88651 | 165° | 7km/h | 28594m | 6.1m/s | -45.8°C | 0.6% | 15.4hPa | 2.5V | 00:00:00 | 00:00:00 | 00:00:00 | |
| DD1CC8 | 2026-09-05 00:23:49 | 51.45657 | 8.88653 | 213° | 11km/h | 28578m | 6.2m/s | -45.7°C | 0.6% | 15.4hPa | 2.5V | 00:00:00 | 00:00:00 | 00:00:00 | |
| EDDB2-11 | 2026-09-05 00:23:47 | 51.45669 | 8.88663 | 199° | 18km/h | 28562m | 4.6m/s | -45.7°C | 0.6% | 15.4hPa | 2.5V | 00:00:00 | 00:00:00 | 00:00:00 | |
| BIOWL1-15 | 2026-09-05 00:23:46 | 51.45697 | 8.88650 | 162° | 20km/h | 28529m | 5.1m/s | -45.6°C | 0% | 15.5hPa | 2.5V | 18:12:15 | 02:05:44 | 00:00:00 | |
| BIOWL1-15 | 2026-09-05 00:23:33 | 51.45721 | 8.88645 | 208° | 13km/h | 28491m | 5.8m/s | -45.5°C | 0% | 15.6hPa | 2.6V | 18:12:15 | 02:05:37 | 00:00:00 | |
| BIOWL1-15 | 2026-09-05 00:23:22 | 51.45776 | 8.88627 | 180° | 13km/h | 28423m | 4.9m/s | -45.3°C | 0% | 15.8hPa | 2.5V | 18:12:15 | 02:05:24 | 00:00:00 | |
| BIOWL1-15 | 2026-09-05 00:23:10 | 51.45812 | 8.88619 | 158° | 18km/h | 28370m | 5.7m/s | -45°C | 0% | 15.9hPa | 2.5V | 18:12:15 | 02:05:14 | 00:00:00 | |
| BIOWL1-15 | 2026-09-05 00:22:59 | 51.45839 | 8.88597 | 143° | 16km/h | 28313m | 5.3m/s | -44.9°C | 0% | 16hPa | 2.6V | 18:12:15 | 02:05:03 | 00:00:00 | |
| BIOWL1-15 | 2026-09-05 00:22:48 | 51.45860 | 8.88538 | 41° | 7km/h | 28251m | 5.1m/s | -45.2°C | 0% | 16.2hPa | 2.6V | 18:12:15 | 02:04:51 | 00:00:00 | |
| EDDB2-11 | 2026-09-05 00:22:44 | 51.45861 | 8.88535 | 160° | 7km/h | 28235m | 4.6m/s | -45.3°C | 0.6% | 16.2hPa | 2.6V | 00:00:00 | 00:00:00 | 00:00:00 | |
| BIOWL1-15 | 2026-09-05 00:22:36 | 51.45884 | 8.88503 | 156° | 13km/h | 28194m | 4.6m/s | -45.5°C | 0% | 16.3hPa | 2.6V | 18:12:15 | 02:04:40 | 00:00:00 | |
| BIOWL1-15 | 2026-09-05 00:22:25 | 51.45881 | 8.88483 | 99° | 13km/h | 28134m | 4.5m/s | -45.9°C | 0% | 16.5hPa | 2.6V | 18:12:15 | 02:04:29 | 00:00:00 | |
| DK9SH | 2026-09-05 00:22:24 | 51.45880 | 8.88483 | 99° | 13km/h | 28135m | 4.5m/s | -45.9°C | 0.6% | 16.5hPa | 2.6V | 00:00:00 | 00:00:00 | 00:00:00 | |
| BIOWL1-15 | 2026-09-05 00:22:15 | 51.45877 | 8.88471 | 292° | 5km/h | 28034m | 4.5m/s | -46.6°C | 0% | 16.7hPa | 2.6V | 18:12:15 | 02:04:10 | 00:00:00 | |
| BIOWL1-15 | 2026-09-05 00:21:59 | 51.45870 | 8.88474 | 45° | 5km/h | 27996m | 4.6m/s | -46.8°C | 0% | 16.8hPa | 2.5V | 18:12:15 | 02:04:03 | 00:00:00 | |
| BIOWL1-15 | 2026-09-05 00:21:48 | 51.45869 | 8.88465 | 138° | 4km/h | 27939m | 4.9m/s | -46.9°C | 0% | 16.9hPa | 2.5V | 18:12:15 | 02:03:52 | 00:00:00 | |
| BUE01 | 2026-09-05 00:21:45 | 51.45870 | 8.88461 | 78° | 0km/h | 27918m | 4.7m/s | -47.0°C | 0.7% | 17.0hPa | 2.5V | 00:00:00 | 00:00:00 | 00:00:00 | |
| BIOWL1-15 | 2026-09-05 00:21:38 | 51.45865 | 8.88443 | 47° | 7km/h | 27885m | 6.2m/s | -47.2°C | 0% | 17.1hPa | 2.5V | 18:12:15 | 02:03:42 | 00:00:00 | |
| BIOWL1-15 | 2026-09-05 00:21:27 | 51.45847 | 8.88420 | 16° | 13km/h | 27828m | 4.4m/s | -47.5°C | 0% | 17.2hPa | 2.5V | 18:12:15 | 02:03:31 | 00:00:00 | |
| BIOWL1-15 | 2026-09-05 00:21:17 | 51.45835 | 8.88388 | 80° | 11km/h | 27773m | 5.1m/s | -47.5°C | 0% | 17.4hPa | 2.5V | 18:12:15 | 02:03:21 | 00:00:00 | |
| BIOWL1-15 | 2026-09-05 00:21:06 | 51.45812 | 8.88348 | 134° | 7km/h | 27702m | 5m/s | -47.6°C | 0% | 17.6hPa | 2.5V | 18:12:15 | 02:03:08 | 00:00:00 | |
| BIOWL1-15 | 2026-09-05 00:20:59 | 51.45797 | 8.88318 | 37° | 13km/h | 27652m | 6.1m/s | -47.4°C | 0% | 17.7hPa | 2.5V | 18:12:15 | 02:02:59 | 00:00:00 | |
| BIOWL1-15 | 2026-09-05 00:20:45 | 51.45781 | 8.88283 | 41° | 15km/h | 27596m | 6.6m/s | -47.1°C | 0% | 17.9hPa | 2.5V | 18:12:15 | 02:02:49 | 00:00:00 | |
| BIOWL1-15 | 2026-09-05 00:20:37 | 51.45757 | 8.88262 | 53° | 11km/h | 27538m | 6m/s | -47.2°C | 0% | 18hPa | 2.6V | 18:12:15 | 02:02:39 | 00:00:00 | |
| BIOWL1-15 | 2026-09-05 00:20:28 | 51.45721 | 8.88236 | 359° | 18km/h | 27475m | 5.5m/s | -47.6°C | 0% | 18.2hPa | 2.6V | 18:12:15 | 02:02:28 | 00:00:00 | |
| HSKMA3-T | 2026-09-05 00:20:19 | 51.45704 | 8.88231 | 51° | 15km/h | 27446m | 6.7m/s | 0°C | 0% | 0hPa | 2.6V | 18:12:15 | 02:02:23 | 00:00:00 | |
| BIOWL1-15 | 2026-09-05 00:20:13 | 51.45662 | 8.88217 | 6° | 24km/h | 27390m | 5.6m/s | -47.6°C | 0% | 18.4hPa | 2.6V | 18:12:15 | 02:02:13 | 00:00:00 | |
| HSKMA3-T | 2026-09-05 00:20:04 | 51.45640 | 8.88206 | 37° | 16km/h | 27361m | 5.5m/s | 0°C | 0% | 0hPa | 2.6V | 18:12:15 | 02:02:08 | 00:00:00 | |
| BIOWL1-15 | 2026-09-05 00:19:58 | 51.45614 | 8.88185 | 353° | 20km/h | 27326m | 5.3m/s | -47.9°C | 0% | 18.6hPa | 2.6V | 18:12:15 | 02:02:02 | 00:00:00 | |
| DL1ZP-14 | 2026-09-05 00:19:58 | 51.45614 | 8.88185 | 352° | 20km/h | 27326m | 5.3m/s | -47.9°C | 0.7% | 18.6hPa | 2.6V | 00:00:00 | 00:00:00 | 00:00:00 | |
| DO1YAY-16 | 2026-09-05 00:19:55 | 51.45588 | 8.88192 | 355° | 29km/h | 27303m | 5.1m/s | -47.9°C | 0.7% | 18.7hPa | 2.6V | 00:00:00 | 00:00:00 | 00:00:00 | |
| DB0ND-19 | 2026-09-05 00:19:53 | 51.45581 | 8.88192 | 357° | 26km/h | 27298m | 4.6m/s | -48.0°C | 0.7% | 18.7hPa | 2.6V | 00:00:00 | 00:00:00 | 00:00:00 | |
| AU51GT2 | 2026-09-05 00:19:51 | 51.45569 | 8.88193 | 358° | 18km/h | 27286m | 6.1m/s | -48.0°C | 0.7% | 18.7hPa | 2.6V | 00:00:00 | 00:00:00 | 00:00:00 | |
| BIOWL1-15 | 2026-09-05 00:19:47 | 51.45529 | 8.88181 | 360° | 16km/h | 27230m | 6.5m/s | -48.3°C | 0% | 18.9hPa | 2.6V | 18:12:15 | 02:01:45 | 00:00:00 | |
| HSKMA3-T | 2026-09-05 00:19:45 | 51.45545 | 8.88181 | 14° | 16km/h | 27253m | 5.3m/s | 0°C | 0% | 0hPa | 2.5V | 18:12:15 | 02:01:49 | 00:00:00 | |
| SONCRA | 2026-09-05 00:19:44 | 51.45541 | 8.88180 | 4° | 15km/h | 27248m | 6.0m/s | -48.3°C | 0.7% | 18.8hPa | 2.5V | 00:00:00 | 00:00:00 | 00:00:00 | |
| BIOWL1-15 | 2026-09-05 00:19:33 | 51.45495 | 8.88185 | 355° | 13km/h | 27183m | 5.9m/s | -48.5°C | 0% | 19hPa | 2.5V | 18:12:15 | 02:01:37 | 00:00:00 | |
| BIOWL1-15 | 2026-09-05 00:19:23 | 51.45451 | 8.88213 | 288° | 13km/h | 27112m | 5.1m/s | -48.7°C | 0% | 19.2hPa | 2.6V | 18:12:15 | 02:01:24 | 00:00:00 | |
| BIOWL1-15 | 2026-09-05 00:19:12 | 51.45446 | 8.88229 | 345° | 5km/h | 27067m | 5.6m/s | -49°C | 0% | 19.4hPa | 2.5V | 18:12:15 | 02:01:16 | 00:00:00 | |
| BIOWL1-15 | 2026-09-05 00:19:01 | 51.45450 | 8.88252 | 219° | 11km/h | 27006m | 6.3m/s | -48.9°C | 0.1% | 19.6hPa | 2.5V | 18:12:15 | 02:01:05 | 00:00:00 | |
| BIOWL1-15 | 2026-09-05 00:18:52 | 51.45459 | 8.88261 | 223° | 7km/h | 26948m | 5.7m/s | -48.9°C | 0.1% | 19.7hPa | 2.5V | 18:12:15 | 02:00:54 | 00:00:00 | |
| DB0ND-19 | 2026-09-05 00:18:51 | 51.45458 | 8.88259 | 236° | 5km/h | 26953m | 4.4m/s | -48.9°C | 0.7% | 19.7hPa | 2.6V | 00:00:00 | 00:00:00 | 00:00:00 | |
| GOEST3-10 | 2026-09-05 00:18:49 | 51.45460 | 8.88262 | 205° | 5km/h | 26942m | 5.9m/s | 0°C | 0% | 0hPa | 2.6V | 00:00:00 | 00:00:00 | 08:30:00 | |
| DJ8HS-15 | 2026-09-05 00:18:47 | 51.45463 | 8.88264 | 194° | 5km/h | 26932m | 4.3m/s | -48.8°C | 3.2% | 19.7hPa | 2.6V | 00:00:00 | 02:00:51 | 08:30:00 | |
| GOEST3-10 | 2026-09-05 00:18:44 | 51.45466 | 8.88269 | 266° | 4km/h | 26916m | 4.7m/s | 0°C | 0% | 0hPa | 2.5V | 00:00:00 | 02:00:48 | 00:00:00 | |
| SONCRA | 2026-09-05 00:18:42 | 51.45465 | 8.88273 | 333° | 2km/h | 26906m | 6.2m/s | -48.8°C | 0.7% | 19.9hPa | 2.5V | 00:00:00 | 00:00:00 | 00:00:00 | |
| BIOWL1-15 | 2026-09-05 00:18:42 | 51.45464 | 8.88270 | 68° | 7km/h | 26894m | 4.7m/s | -48.8°C | 0.1% | 19.9hPa | 2.6V | 18:12:15 | 02:00:44 | 00:00:00 | |
| DJ3KS | 2026-09-05 00:18:41 | 51.45465 | 8.88273 | 335° | 2km/h | 26906m | 6.2m/s | -48.8°C | 0.8% | 19.9hPa | 2.5V | 00:00:00 | 00:00:00 | 00:00:00 | |
| BIOWL1-15 | 2026-09-05 00:18:29 | 51.45464 | 8.88267 | 70° | 4km/h | 26805m | 6m/s | -48.5°C | 0% | 20.2hPa | 2.5V | 18:12:15 | 02:00:27 | 00:00:00 | |
| BIOWL1-15 | 2026-09-05 00:18:13 | 51.45463 | 8.88281 | 270° | 11km/h | 26756m | 4.2m/s | -48.4°C | 0% | 20.3hPa | 2.6V | 18:12:15 | 02:00:17 | 00:00:00 | |
| BIOWL1-15 | 2026-09-05 00:18:03 | 51.45472 | 8.88285 | 237° | 5km/h | 26675m | 5.5m/s | -48.3°C | 0% | 20.6hPa | 2.5V | 18:12:15 | 02:00:00 | 00:00:00 | |
| BIOWL1-15 | 2026-09-05 00:17:48 | 51.45480 | 8.88269 | 125° | 9km/h | 26634m | 5.4m/s | -48.4°C | 0% | 20.7hPa | 2.5V | 18:12:15 | 01:59:52 | 00:00:00 | |
| AU51GT2 | 2026-09-05 00:17:47 | 51.45481 | 8.88267 | 151° | 5km/h | 26629m | 4.6m/s | -48.4°C | 0.7% | 20.7hPa | 2.5V | 00:00:00 | 00:00:00 | 00:00:00 | |
| BIOWL1-15 | 2026-09-05 00:17:39 | 51.45467 | 8.88282 | 47° | 9km/h | 26578m | 5.4m/s | -48.7°C | 0% | 20.9hPa | 2.5V | 18:12:15 | 01:59:41 | 00:00:00 | |
| BIOWL1-15 | 2026-09-05 00:17:27 | 51.45476 | 8.88266 | 289° | 5km/h | 26528m | 4.6m/s | -48.7°C | 0% | 21hPa | 2.5V | 18:12:15 | 01:59:31 | 00:00:00 | |
| BIOWL1-15 | 2026-09-05 00:17:19 | 51.45489 | 8.88270 | 179° | 11km/h | 26472m | 4.7m/s | -48.8°C | 0% | 21.2hPa | 2.6V | 18:12:15 | 01:59:20 | 00:00:00 | |
| BIOWL1-15 | 2026-09-05 00:17:06 | 51.45512 | 8.88276 | 167° | 16km/h | 26400m | 4.4m/s | -49°C | 0% | 21.4hPa | 2.5V | 18:12:15 | 01:59:06 | 00:00:00 | |
| BIOWL1-15 | 2026-09-05 00:16:55 | 51.45536 | 8.88291 | 180° | 16km/h | 26357m | 5.3m/s | -49.1°C | 0.1% | 21.6hPa | 2.6V | 18:12:15 | 01:58:57 | 00:00:00 | |
| DL1ZP-14 | 2026-09-05 00:16:52 | 51.45544 | 8.88289 | 161° | 15km/h | 26347m | 4.7m/s | -49.1°C | 0.7% | 21.6hPa | 2.5V | 00:00:00 | 00:00:00 | 00:00:00 | |
| BIOWL9-15 | 2026-09-05 00:16:50 | 51.45552 | 8.88286 | 174° | 16km/h | 26337m | 6.0m/s | -49.1°C | 0.7% | 21.7hPa | 2.6V | 00:00:00 | 00:00:00 | 00:00:00 | |
| DO1YAY-16 | 2026-09-05 00:16:49 | 51.45556 | 8.88286 | 185° | 16km/h | 26331m | 5.4m/s | -49.1°C | 0.8% | 21.7hPa | 2.6V | 00:00:00 | 00:00:00 | 00:00:00 | |
| AU51GT2 | 2026-09-05 00:16:45 | 51.45569 | 8.88297 | 236° | 11km/h | 26311m | 4.4m/s | -49.2°C | 0.7% | 21.8hPa | 2.6V | 00:00:00 | 00:00:00 | 00:00:00 | |
| BIOWL1-15 | 2026-09-05 00:16:43 | 51.45571 | 8.88301 | 237° | 13km/h | 26306m | 4.2m/s | -49.2°C | 0.1% | 21.8hPa | 2.6V | 18:12:15 | 01:58:47 | 00:00:00 | |
| BIOWL1-15 | 2026-09-05 00:16:32 | 51.45638 | 8.88303 | 189° | 18km/h | 26244m | 6.1m/s | -49.3°C | 0% | 21.9hPa | 2.6V | 18:12:15 | 01:58:35 | 00:00:00 | |
| BIOWL1-15 | 2026-09-05 00:16:22 | 51.45667 | 8.88328 | 170° | 22km/h | 26197m | 5.4m/s | -49.4°C | 0.1% | 22.1hPa | 2.5V | 18:12:15 | 01:58:26 | 00:00:00 | |
| BIOWL1-15 | 2026-09-05 00:16:11 | 51.45734 | 8.88332 | 193° | 13km/h | 26129m | 5m/s | -49.3°C | 0% | 22.4hPa | 2.5V | 18:12:15 | 01:58:13 | 00:00:00 | |
| BIOWL1-15 | 2026-09-05 00:16:01 | 51.45781 | 8.88335 | 181° | 20km/h | 26087m | 4.4m/s | -49.4°C | 0% | 22.5hPa | 2.5V | 18:12:15 | 01:58:05 | 00:00:00 | |
| BIOWL1-15 | 2026-09-05 00:15:50 | 51.45854 | 8.88333 | 165° | 38km/h | 26030m | 3.9m/s | -49.4°C | 0.1% | 22.7hPa | 2.6V | 18:12:15 | 01:57:54 | 00:00:00 | |
| HSKMA3-T | 2026-09-05 00:15:44 | 51.45898 | 8.88307 | 172° | 27km/h | 25998m | 5.9m/s | 0°C | 0% | 0hPa | 2.6V | 18:12:15 | 01:57:48 | 00:00:00 | |
| BIOWL1-15 | 2026-09-05 00:15:43 | 51.45931 | 8.88312 | 185° | 27km/h | 25972m | 4.4m/s | -49.6°C | 0.1% | 22.9hPa | 2.6V | 18:12:15 | 01:57:43 | 00:00:00 | |
| BIOWL1-15 | 2026-09-05 00:15:29 | 51.46005 | 8.88282 | 169° | 31km/h | 25918m | 5.3m/s | -49.7°C | 0.1% | 23.1hPa | 2.6V | 18:12:15 | 01:57:33 | 00:00:00 | |
| HSKMA3-T | 2026-09-05 00:15:21 | 51.46068 | 8.88277 | 166° | 35km/h | 25877m | 5.2m/s | 0°C | 0% | 0hPa | 2.6V | 18:12:15 | 01:57:25 | 00:00:00 | |
| BIOWL1-15 | 2026-09-05 00:15:18 | 51.46092 | 8.88261 | 147° | 33km/h | 25860m | 5.7m/s | -49.8°C | 0% | 23.3hPa | 2.5V | 18:12:15 | 01:57:22 | 00:00:00 | |
| BIOWL1-15 | 2026-09-05 00:15:10 | 51.46161 | 8.88207 | 163° | 31km/h | 25807m | 5.6m/s | -50°C | 0.1% | 23.5hPa | 2.5V | 18:12:15 | 01:57:12 | 00:00:00 | |
| BIOWL1-15 | 2026-09-05 00:14:57 | 51.46248 | 8.88084 | 149° | 29km/h | 25730m | 5.8m/s | -50.2°C | 0.1% | 23.8hPa | 2.6V | 18:12:15 | 01:56:58 | 00:00:00 | |
| HSKMA3-T | 2026-09-05 00:14:47 | 51.46289 | 8.88034 | 136° | 35km/h | 25691m | 5.1m/s | 0°C | 0% | 0hPa | 2.5V | 18:12:15 | 01:56:51 | 00:00:00 | |
| BIOWL1-15 | 2026-09-05 00:14:46 | 51.46295 | 8.88025 | 134° | 35km/h | 25686m | 4.8m/s | -50.2°C | 0.2% | 23.9hPa | 2.5V | 18:12:15 | 01:56:50 | 00:00:00 | |
| BIOWL9-15 | 2026-09-05 00:14:45 | 51.46307 | 8.88004 | 130° | 31km/h | 25675m | 5.2m/s | -50.2°C | 0.8% | 24.0hPa | 2.6V | 00:00:00 | 00:00:00 | 00:00:00 | |
| DO1YAY-16 | 2026-09-05 00:14:44 | 51.46307 | 8.88004 | 130° | 31km/h | 25675m | 5.2m/s | -50.2°C | 0.8% | 24.0hPa | 2.6V | 00:00:00 | 00:00:00 | 00:00:00 | |
| BIOWL1-15 | 2026-09-05 00:14:37 | 51.46372 | 8.87921 | 143° | 38km/h | 25627m | 6.3m/s | -50.2°C | 0.2% | 24.1hPa | 2.6V | 18:12:15 | 01:56:39 | 00:00:00 | |
| BIOWL1-15 | 2026-09-05 00:14:25 | 51.46444 | 8.87834 | 146° | 35km/h | 25574m | 4.4m/s | -50.1°C | 0.1% | 24.3hPa | 2.6V | 18:12:15 | 01:56:29 | 00:00:00 | |
| BIOWL1-15 | 2026-09-05 00:14:15 | 51.46509 | 8.87700 | 131° | 38km/h | 25515m | 6.4m/s | -50.1°C | 0.1% | 24.6hPa | 2.5V | 18:12:15 | 01:56:18 | 00:00:00 | |
| BIOWL1-15 | 2026-09-05 00:14:06 | 51.46578 | 8.87552 | 113° | 38km/h | 25453m | 6.4m/s | -50.2°C | 0.1% | 24.8hPa | 2.6V | 18:12:15 | 01:56:06 | 00:00:00 | |
| BIOWL1-15 | 2026-09-05 00:13:51 | 51.46623 | 8.87428 | 107° | 37km/h | 25397m | 5.4m/s | -50.6°C | 0.1% | 25hPa | 2.5V | 18:12:15 | 01:55:55 | 00:00:00 | |
| HARRO8 | 2026-09-05 00:13:51 | 51.46626 | 8.87413 | 102° | 40km/h | 25392m | 5.8m/s | -50.6°C | 0.8% | 25.0hPa | 2.6V | 00:00:00 | 00:00:00 | 00:00:00 | |
| DL1ZP-14 | 2026-09-05 00:13:45 | 51.46628 | 8.87328 | 88° | 38km/h | 25366m | 4.4m/s | -50.8°C | 0.8% | 25.1hPa | 2.6V | 00:00:00 | 00:00:00 | 00:00:00 | |
| BIOWL1-15 | 2026-09-05 00:13:41 | 51.46639 | 8.87150 | 85° | 37km/h | 25291m | 5.1m/s | -51.1°C | 0.2% | 25.4hPa | 2.6V | 18:12:15 | 01:55:35 | 00:00:00 | |
| HSKMA3-T | 2026-09-05 00:13:40 | 51.46635 | 8.87260 | 107° | 26km/h | 25339m | 6.3m/s | 0°C | 0% | 0hPa | 2.5V | 18:12:15 | 01:55:44 | 00:00:00 | |
| DK9SH | 2026-09-05 00:13:38 | 51.46637 | 8.87250 | 104° | 24km/h | 25334m | 5.2m/s | -51.0°C | 0.8% | 25.2hPa | 2.6V | 00:00:00 | 00:00:00 | 00:00:00 | |
| BIOWL1-15 | 2026-09-05 00:13:21 | 51.46642 | 8.87065 | 84° | 22km/h | 25239m | 5m/s | -51.1°C | 0.2% | 25.6hPa | 2.6V | 18:12:15 | 01:55:25 | 00:00:00 | |
| HSKMA3-T | 2026-09-05 00:13:11 | 51.46626 | 8.86964 | 41° | 18km/h | 25188m | 5m/s | 0°C | 0% | 0hPa | 2.5V | 18:12:15 | 01:55:15 | 00:00:00 | |
| BIOWL1-15 | 2026-09-05 00:13:10 | 51.46601 | 8.86896 | 74° | 20km/h | 25137m | 5.8m/s | -51.2°C | 0.2% | 26hPa | 2.6V | 18:12:15 | 01:55:05 | 00:00:00 | |
| DL3OBA | 2026-09-05 00:13:07 | 51.46617 | 8.86951 | 53° | 16km/h | 25173m | 5.1m/s | -51.2°C | 0.8% | 25.9hPa | 2.6V | 00:00:00 | 00:00:00 | 00:00:00 | |
| BIOWL1-15 | 2026-09-05 00:12:50 | 51.46585 | 8.86853 | 65° | 16km/h | 25080m | 4.1m/s | -51.4°C | 0.2% | 26.2hPa | 2.6V | 18:12:15 | 01:54:54 | 00:00:00 | |
| HARRO8 | 2026-09-05 00:12:48 | 51.46582 | 8.86839 | 81° | 20km/h | 25070m | 5.7m/s | -51.4°C | 0.8% | 26.3hPa | 2.5V | 00:00:00 | 00:00:00 | 00:00:00 | |
| BIOWL1-15 | 2026-09-05 00:12:40 | 51.46579 | 8.86796 | 94° | 9km/h | 25029m | 4.1m/s | -51.4°C | 0.3% | 26.5hPa | 2.5V | 18:12:15 | 01:54:44 | 00:00:00 | |
| BIOWL1-15 | 2026-09-05 00:12:29 | 51.46579 | 8.86726 | 89° | 18km/h | 24975m | 4.2m/s | -51.5°C | 0.3% | 26.7hPa | 2.5V | 18:12:15 | 01:54:33 | 00:00:00 | |
| BIOWL1-15 | 2026-09-05 00:12:19 | 51.46575 | 8.86606 | 102° | 24km/h | 24893m | 5.4m/s | -51.4°C | 0.2% | 27hPa | 2.5V | 18:12:15 | 01:54:17 | 00:00:00 | |
| BIOWL1-15 | 2026-09-05 00:12:08 | 51.46573 | 8.86521 | 78° | 26km/h | 24838m | 4.7m/s | -51.7°C | 0.2% | 27.2hPa | 2.5V | 18:12:15 | 01:54:06 | 00:00:00 | |
| BIOWL1-15 | 2026-09-05 00:11:56 | 51.46578 | 8.86430 | 92° | 20km/h | 24792m | 5.9m/s | -51.9°C | 0.3% | 27.5hPa | 2.5V | 18:12:15 | 01:53:57 | 00:00:00 | |
| DL1XH-west | 2026-09-05 00:11:50 | 51.46577 | 8.86402 | 78° | 26km/h | 24777m | 5m/s | 0°C | 0% | 0hPa | 2.5V | 18:12:15 | 01:53:54 | 00:00:00 | |
| HARRO8 | 2026-09-05 00:11:47 | 51.46569 | 8.86362 | 79° | 27km/h | 24756m | 6.0m/s | -52.1°C | 0.9% | 27.6hPa | 2.5V | 00:00:00 | 00:00:00 | 00:00:00 | |
| BIOWL1-15 | 2026-09-05 00:11:43 | 51.46568 | 8.86328 | 90° | 24km/h | 24742m | 4.7m/s | -52.1°C | 0.3% | 27.7hPa | 2.5V | 18:12:15 | 01:53:47 | 00:00:00 | |
| DL1XH-west | 2026-09-05 00:11:39 | 51.46564 | 8.86301 | 63° | 16km/h | 24722m | 5m/s | 0°C | 0% | 0hPa | 2.5V | 18:12:15 | 01:53:43 | 00:00:00 | |
| BIOWL1-15 | 2026-09-05 00:11:32 | 51.46543 | 8.86226 | 64° | 16km/h | 24671m | 5.5m/s | -52°C | 0.3% | 28hPa | 2.6V | 18:12:15 | 01:53:33 | 00:00:00 | |
| BIOWL1-15 | 2026-09-05 00:11:18 | 51.46492 | 8.86136 | 8° | 9km/h | 24583m | 5.5m/s | -52.1°C | 0.3% | 28.4hPa | 2.6V | 18:12:15 | 01:53:16 | 00:00:00 | |
| HSKMA3-T | 2026-09-05 00:11:15 | 51.46500 | 8.86141 | 45° | 16km/h | 24598m | 5.5m/s | 0°C | 0% | 0hPa | 2.5V | 18:12:15 | 01:53:19 | 00:00:00 | |
| BIOWL1-15 | 2026-09-05 00:11:07 | 51.46476 | 8.86125 | 25° | 22km/h | 24557m | 5.3m/s | -52.3°C | 0.3% | 28.5hPa | 2.5V | 18:12:15 | 01:53:11 | 00:00:00 | |
| BIOWL1-15 | 2026-09-05 00:10:57 | 51.46437 | 8.86082 | 10° | 15km/h | 24487m | 5.3m/s | -52.4°C | 0.4% | 28.8hPa | 2.5V | 18:12:15 | 01:52:57 | 00:00:00 | |
| HSKMA3-T | 2026-09-05 00:10:55 | 51.46442 | 8.86083 | 10° | 9km/h | 24498m | 5.2m/s | 0°C | 0% | 0hPa | 2.6V | 18:12:15 | 01:52:59 | 00:00:00 | |
| BIOWL1-15 | 2026-09-05 00:10:48 | 51.46401 | 8.86056 | 10° | 20km/h | 24440m | 6.2m/s | -52.4°C | 0.3% | 29hPa | 2.5V | 18:12:15 | 01:52:48 | 00:00:00 | |
| HARRO8 | 2026-09-05 00:10:44 | 51.46401 | 8.86056 | 9° | 18km/h | 24440m | 6.2m/s | -52.4°C | 0.9% | 29.0hPa | 2.5V | 00:00:00 | 00:00:00 | 00:00:00 | |
| BIOWL1-15 | 2026-09-05 00:10:35 | 51.46365 | 8.86063 | 354° | 15km/h | 24389m | 4.4m/s | -52.4°C | 0.4% | 29.2hPa | 2.5V | 18:12:15 | 01:52:39 | 00:00:00 | |
| BIOWL1-15 | 2026-09-05 00:10:24 | 51.46312 | 8.86084 | 339° | 15km/h | 24331m | 4.4m/s | -52.4°C | 0.4% | 29.5hPa | 2.6V | 18:12:15 | 01:52:28 | 00:00:00 | |
| HSKMA3-T | 2026-09-05 00:10:23 | 51.46309 | 8.86086 | 335° | 11km/h | 24325m | 5.7m/s | 0°C | 0% | 0hPa | 2.5V | 18:12:15 | 01:52:27 | 00:00:00 | |
| BIOWL1-15 | 2026-09-05 00:10:16 | 51.46279 | 8.86112 | 317° | 15km/h | 24278m | 4.8m/s | -52.1°C | 0.4% | 29.7hPa | 2.6V | 18:12:15 | 01:52:18 | 00:00:00 | |
| DO3MHA-11 | 2026-09-05 00:10:14 | 51.46279 | 8.86112 | 317° | 11km/h | 24278m | 4.8m/s | -52.1°C | 3.8% | 29.7hPa | 2.6V | 00:00:00 | 01:52:18 | 00:00:00 | |
| HARRO8 | 2026-09-05 00:10:13 | 51.46276 | 8.86116 | 318° | 13km/h | 24273m | 5.8m/s | -52.1°C | 0.9% | 29.8hPa | 2.5V | 00:00:00 | 00:00:00 | 00:00:00 | |
| DB0DAN | 2026-09-05 00:10:10 | 51.46269 | 8.86126 | 313° | 9km/h | 24258m | 5.4m/s | 0°C | 0% | 0hPa | 2.5V | 00:00:00 | 00:00:00 | 00:00:00 | |
| HSKMA3-T | 2026-09-05 00:10:09 | 51.46268 | 8.86129 | 298° | 5km/h | 24252m | 5.6m/s | 0°C | 0% | 0hPa | 2.5V | 18:12:15 | 01:52:13 | 00:00:00 | |
| BIOWL1-15 | 2026-09-05 00:10:06 | 51.46261 | 8.86134 | 353° | 15km/h | 24226m | 5.4m/s | -51.9°C | 0.2% | 30hPa | 2.5V | 18:12:15 | 01:52:08 | 00:00:00 | |
| BIOWL1-15 | 2026-09-05 00:09:53 | 51.46245 | 8.86165 | 193° | 9km/h | 24170m | 5m/s | -51.8°C | 0.3% | 30.2hPa | 2.5V | 18:12:15 | 01:51:57 | 00:00:00 | |
| HSKMA3-T | 2026-09-05 00:09:51 | 51.46247 | 8.86166 | 316° | 4km/h | 24160m | 4.8m/s | 0°C | 0% | 0hPa | 2.5V | 18:12:15 | 01:51:55 | 00:00:00 | |
| BUE01 | 2026-09-05 00:09:51 | 51.46246 | 8.86167 | 331° | 7km/h | 24155m | 4.3m/s | -51.9°C | 0.9% | 30.3hPa | 2.6V | 00:00:00 | 00:00:00 | 00:00:00 | |
| DD1CC8 | 2026-09-05 00:09:50 | 51.46246 | 8.86167 | 331° | 7km/h | 24155m | 4.3m/s | -51.9°C | 0.9% | 30.3hPa | 2.6V | 00:00:00 | 00:00:00 | 00:00:00 | |
| EDDB2-11 | 2026-09-05 00:09:48 | 51.46241 | 8.86173 | 317° | 11km/h | 24145m | 5.8m/s | -51.9°C | 0.9% | 30.4hPa | 2.6V | 00:00:00 | 00:00:00 | 00:00:00 | |
| BIOWL1-15 | 2026-09-05 00:09:43 | 51.46234 | 8.86179 | 67° | 7km/h | 24121m | 5.7m/s | -52°C | 0.3% | 30.5hPa | 2.6V | 18:12:15 | 01:51:47 | 00:00:00 | |
| HSKMA3-T | 2026-09-05 00:09:35 | 51.46244 | 8.86167 | 157° | 9km/h | 24079m | 4.3m/s | 0°C | 0% | 0hPa | 2.5V | 18:12:15 | 01:51:39 | 00:00:00 | |
| BIOWL1-15 | 2026-09-05 00:09:33 | 51.46245 | 8.86154 | 71° | 15km/h | 24048m | 4.9m/s | -52°C | 0.3% | 30.8hPa | 2.5V | 18:12:15 | 01:51:33 | 00:00:00 | |
| BIOWL1-15 | 2026-09-05 00:09:21 | 51.46248 | 8.86127 | 191° | 5km/h | 24007m | 6.1m/s | -52.1°C | 0.4% | 31hPa | 2.6V | 18:12:15 | 01:51:25 | 00:00:00 | |
| BIOWL1-15 | 2026-09-05 00:09:10 | 51.46244 | 8.86107 | 99° | 13km/h | 23950m | 5.2m/s | -51.8°C | 0.3% | 31.3hPa | 2.5V | 18:12:15 | 01:51:14 | 00:00:00 | |
| BIOWL1-15 | 2026-09-05 00:08:59 | 51.46242 | 8.86093 | 339° | 5km/h | 23894m | 4.9m/s | -51.5°C | 0.3% | 31.6hPa | 2.5V | 18:12:15 | 01:51:03 | 00:00:00 | |
| BIOWL1-15 | 2026-09-05 00:08:48 | 51.46243 | 8.86096 | 194° | 2km/h | 23837m | 5.3m/s | -51.4°C | 0.3% | 31.9hPa | 2.5V | 18:12:15 | 01:50:52 | 00:00:00 | |
| EDDB2-11 | 2026-09-05 00:08:46 | 51.46244 | 8.86098 | 240° | 4km/h | 23827m | 4.5m/s | -51.4°C | 0.9% | 31.9hPa | 2.5V | 00:00:00 | 00:00:00 | 00:00:00 | |
| BIOWL1-15 | 2026-09-05 00:08:42 | 51.46245 | 8.86108 | 24° | 0km/h | 23784m | 5.4m/s | -51.5°C | 0.3% | 32.1hPa | 2.5V | 18:12:15 | 01:50:42 | 00:00:00 | |
| BIOWL1-15 | 2026-09-05 00:08:27 | 51.46245 | 8.86119 | 284° | 7km/h | 23728m | 4.7m/s | -51.4°C | 0.2% | 32.4hPa | 2.6V | 18:12:15 | 01:50:31 | 00:00:00 | |
| DJ8HS-15 | 2026-09-05 00:08:27 | 51.46245 | 8.86119 | 285° | 5km/h | 23728m | 4.6m/s | -51.4°C | 3.5% | 32.3hPa | 2.5V | 00:00:00 | 01:50:31 | 00:00:00 | |
| DO3MHA-11 | 2026-09-05 00:08:23 | 51.46244 | 8.86121 | 134° | 5km/h | 23708m | 5.3m/s | -51.4°C | 3.5% | 32.4hPa | 2.5V | 00:00:00 | 01:50:27 | 00:00:00 | |
| DF7PN | 2026-09-05 00:08:22 | 51.46245 | 8.86121 | 157° | 4km/h | 23702m | 5.4m/s | -51.4°C | 0.9% | 32.5hPa | 2.5V | 00:00:00 | 00:00:00 | 00:00:00 | |
| DL1XH-west | 2026-09-05 00:08:21 | 51.46275 | 8.86093 | 178° | 2km/h | 23599m | 5.8m/s | 0°C | 0% | 0hPa | 2.5V | 18:12:15 | 01:50:05 | 00:00:00 | |
| HSKMA3-T | 2026-09-05 00:08:21 | 51.46246 | 8.86120 | 160° | 5km/h | 23697m | 4.6m/s | 0°C | 0% | 0hPa | 2.6V | 18:12:15 | 01:50:25 | 00:00:00 | |
| BIOWL1-15 | 2026-09-05 00:08:21 | 51.46284 | 8.86041 | 93° | 20km/h | 23535m | 3.9m/s | -52.1°C | 0.4% | 33.4hPa | 2.5V | 18:12:15 | 01:49:52 | 00:00:00 | |
| SONCRA | 2026-09-05 00:08:21 | 51.46247 | 8.86119 | 147° | 5km/h | 23692m | 4.7m/s | -51.5°C | 0.9% | 32.6hPa | 2.5V | 00:00:00 | 00:00:00 | 00:00:00 | |
| DO9LL-15 | 2026-09-05 00:08:20 | 51.46247 | 8.86119 | 148° | 9km/h | 23692m | 4.6m/s | -51.4°C | 3.5% | 32.5hPa | 2.5V | 00:00:00 | 01:50:24 | 00:00:00 | |
| DC6BW-12 | 2026-09-05 00:08:19 | 51.46249 | 8.86117 | 132° | 7km/h | 23687m | 6.0m/s | -51.5°C | 0.9% | 32.6hPa | 2.5V | 00:00:00 | 00:00:00 | 00:00:00 | |
| WPPR-10 | 2026-09-05 00:08:18 | 51.46258 | 8.86113 | 139° | 5km/h | 23643m | 4.4m/s | -51.8°C | 0.9% | 32.8hPa | 2.5V | 00:00:00 | 00:00:00 | 00:00:00 | |
| HARRO8 | 2026-09-05 00:08:17 | 51.46259 | 8.86112 | 150° | 7km/h | 23638m | 5.4m/s | -51.8°C | 0.9% | 32.8hPa | 2.5V | 00:00:00 | 00:00:00 | 00:00:00 | |
| DJ8HS-15 | 2026-09-05 00:08:16 | 51.46264 | 8.86109 | 161° | 11km/h | 23628m | 4.3m/s | -51.9°C | 3.6% | 32.8hPa | 2.5V | 00:00:00 | 01:50:11 | 00:00:00 | |
| BIOWL1-15 | 2026-09-05 00:07:50 | 51.46284 | 8.86033 | 93° | 18km/h | 23531m | 5.2m/s | -52.1°C | 0.4% | 33.4hPa | 2.5V | 18:12:15 | 01:49:51 | 00:00:00 | |
| HSKMA3-T | 2026-09-05 00:07:44 | 51.46285 | 8.86018 | 79° | 7km/h | 23516m | 4.5m/s | 0°C | 0% | 0hPa | 2.5V | 18:12:15 | 01:49:48 | 00:00:00 | |
| BIOWL1-15 | 2026-09-05 00:07:36 | 51.46283 | 8.85995 | 105° | 15km/h | 23475m | 5.1m/s | -52.1°C | 0.4% | 33.7hPa | 2.6V | 18:12:15 | 01:49:40 | 00:00:00 | |
| BIOWL1-15 | 2026-09-05 00:07:25 | 51.46299 | 8.85963 | 144° | 7km/h | 23397m | 5m/s | -51.7°C | 0.3% | 34.1hPa | 2.5V | 18:12:15 | 01:49:24 | 00:00:00 | |
| BIOWL1-15 | 2026-09-05 00:07:10 | 51.46311 | 8.85972 | 196° | 7km/h | 23349m | 3.8m/s | -51.3°C | 0.2% | 34.4hPa | 2.6V | 18:12:15 | 01:49:14 | 00:00:00 | |
| BIOWL1-15 | 2026-09-05 00:06:59 | 51.46330 | 8.85965 | 146° | 7km/h | 23289m | 5.3m/s | -51.2°C | 0.2% | 34.7hPa | 2.5V | 18:12:15 | 01:49:02 | 00:00:00 | |
| BIOWL9-15 | 2026-09-05 00:06:59 | 51.46330 | 8.85965 | 146° | 7km/h | 23289m | 5.3m/s | -51.2°C | 0.9% | 34.7hPa | 2.5V | 00:00:00 | 00:00:00 | 00:00:00 | |
| DO1YAY-16 | 2026-09-05 00:06:58 | 51.46330 | 8.85965 | 146° | 7km/h | 23289m | 5.3m/s | -51.2°C | 0.9% | 34.7hPa | 2.5V | 00:00:00 | 00:00:00 | 00:00:00 | |
| DB0ND-19 | 2026-09-05 00:06:57 | 51.46332 | 8.85963 | 163° | 7km/h | 23284m | 5.3m/s | -51.2°C | 0.9% | 34.7hPa | 2.5V | 00:00:00 | 00:00:00 | 00:00:00 | |
| AU51GT2 | 2026-09-05 00:06:55 | 51.46336 | 8.85962 | 174° | 7km/h | 23274m | 4.9m/s | -51.1°C | 0.9% | 34.8hPa | 2.5V | 00:00:00 | 00:00:00 | 00:00:00 | |
| DF7PN | 2026-09-05 00:06:49 | 51.46343 | 8.85955 | 126° | 7km/h | 23244m | 4.5m/s | -51.1°C | 0.9% | 34.9hPa | 2.5V | 00:00:00 | 00:00:00 | 00:00:00 | |
| BIOWL1-15 | 2026-09-05 00:06:47 | 51.46352 | 8.85932 | 139° | 13km/h | 23214m | 4.4m/s | -51.1°C | 0.2% | 35.1hPa | 2.5V | 18:12:15 | 01:48:47 | 00:00:00 | |
| BUE01 | 2026-09-05 00:06:44 | 51.46349 | 8.85935 | 134° | 11km/h | 23218m | 5.0m/s | -51.1°C | 0.9% | 35.1hPa | 2.5V | 00:00:00 | 00:00:00 | 00:00:00 | |
| BIOWL1-15 | 2026-09-05 00:06:37 | 51.46359 | 8.85907 | 68° | 11km/h | 23173m | 5.4m/s | -51.2°C | 0.2% | 35.3hPa | 2.5V | 18:12:15 | 01:48:39 | 00:00:00 | |
| BIOWL1-15 | 2026-09-05 00:06:26 | 51.46357 | 8.85835 | 83° | 22km/h | 23114m | 5.7m/s | -51.4°C | 0.3% | 35.6hPa | 2.6V | 18:12:15 | 01:48:27 | 00:00:00 | |
| BIOWL1-15 | 2026-09-05 00:06:14 | 51.46336 | 8.85763 | 74° | 18km/h | 23068m | 6m/s | -51.5°C | 0.2% | 35.9hPa | 2.5V | 18:12:15 | 01:48:18 | 00:00:00 | |
| DO2JMG | 2026-09-05 00:06:09 | 51.46332 | 8.85726 | 65° | 24km/h | 23044m | 4.6m/s | -51.6°C | 0% | 0hPa | 2.5V | 18:12:15 | 01:48:13 | 00:00:00 | |
| BIOWL1-15 | 2026-09-05 00:06:05 | 51.46304 | 8.85678 | 35° | 22km/h | 23011m | 4.4m/s | -52°C | 0.3% | 36.2hPa | 2.5V | 18:12:15 | 01:48:06 | 00:00:00 | |
| HSKMA3-T | 2026-09-05 00:05:56 | 51.46292 | 8.85651 | 65° | 16km/h | 22982m | 5.1m/s | 0°C | 0% | 0hPa | 2.5V | 18:12:15 | 01:48:00 | 00:00:00 | |
| BIOWL1-15 | 2026-09-05 00:05:51 | 51.46270 | 8.85618 | 29° | 24km/h | 22953m | 4.5m/s | -52.6°C | 0.4% | 36.5hPa | 2.5V | 18:12:15 | 01:47:54 | 00:00:00 | |
| DO2JMG | 2026-09-05 00:05:51 | 51.46275 | 8.85623 | 31° | 24km/h | 22958m | 5.6m/s | 0°C | 0% | 0hPa | 2.5V | 18:12:15 | 01:47:55 | 00:00:00 | |
| HSKMA3-T | 2026-09-05 00:05:45 | 51.46260 | 8.85610 | 182° | 7km/h | 22929m | 4.7m/s | 0°C | 0% | 0hPa | 2.5V | 18:12:15 | 01:47:49 | 00:00:00 | |
| BIOWL1-15 | 2026-09-05 00:05:40 | 51.46264 | 8.85598 | 62° | 9km/h | 22905m | 5.5m/s | -52.7°C | 0.3% | 36.8hPa | 2.5V | 18:12:15 | 01:47:44 | 00:00:00 | |
| HSKMA3-T | 2026-09-05 00:05:34 | 51.46249 | 8.85572 | 48° | 13km/h | 22874m | 5.6m/s | 0°C | 0% | 0hPa | 2.5V | 18:12:15 | 01:47:38 | 00:00:00 | |
| BIOWL1-15 | 2026-09-05 00:05:29 | 51.46242 | 8.85552 | 75° | 18km/h | 22851m | 5.2m/s | -52.9°C | 0.4% | 37.1hPa | 2.6V | 18:12:15 | 01:47:33 | 00:00:00 | |
| HSKMA3-T | 2026-09-05 00:05:24 | 51.46235 | 8.85513 | 70° | 18km/h | 22826m | 4.4m/s | 0°C | 0% | 0hPa | 2.6V | 18:12:15 | 01:47:28 | 00:00:00 | |
| DO3MHA-11 | 2026-09-05 00:05:23 | 51.46233 | 8.85506 | 65° | 20km/h | 22821m | 5.0m/s | -52.8°C | 3.8% | 37.3hPa | 2.6V | 00:00:00 | 01:47:27 | 00:00:00 | |
| AU51GT2 | 2026-09-05 00:05:22 | 51.46231 | 8.85499 | 63° | 20km/h | 22816m | 5.5m/s | -52.8°C | 1.0% | 37.3hPa | 2.6V | 00:00:00 | 00:00:00 | 00:00:00 | |
| DO9LL-15 | 2026-09-05 00:05:20 | 51.46226 | 8.85483 | 67° | 24km/h | 22807m | 3.7m/s | -52.8°C | 3.8% | 37.3hPa | 2.6V | 00:00:00 | 01:47:24 | 00:00:00 | |
| BIOWL1-15 | 2026-09-05 00:05:19 | 51.46222 | 8.85297 | 91° | 22km/h | 22700m | 5.7m/s | -52.4°C | 0.3% | 38hPa | 2.6V | 18:12:15 | 01:47:03 | 00:00:00 | |
| HSKMA3-T | 2026-09-05 00:05:13 | 51.46222 | 8.85424 | 97° | 27km/h | 22772m | 5.8m/s | 0°C | 0% | 0hPa | 2.5V | 18:12:15 | 01:47:17 | 00:00:00 | |
| HSKMA3-T | 2026-09-05 00:05:01 | 51.46223 | 8.85316 | 82° | 24km/h | 22711m | 4.6m/s | 0°C | 0% | 0hPa | 2.6V | 18:12:15 | 01:47:05 | 00:00:00 | |
| BIOWL1-15 | 2026-09-05 00:04:52 | 51.46218 | 8.85223 | 80° | 26km/h | 22664m | 5.3m/s | -52.2°C | 0.3% | 38.2hPa | 2.5V | 18:12:15 | 01:46:56 | 00:00:00 | |
| HSKMA3-T | 2026-09-05 00:04:46 | 51.46209 | 8.85167 | 80° | 22km/h | 22635m | 5.7m/s | 0°C | 0% | 0hPa | 2.5V | 18:12:15 | 01:46:50 | 00:00:00 | |
| BIOWL1-15 | 2026-09-05 00:04:42 | 51.46206 | 8.85132 | 76° | 26km/h | 22615m | 5.6m/s | -52.4°C | 0.3% | 38.5hPa | 2.5V | 18:12:15 | 01:46:46 | 00:00:00 | |
| BUE01 | 2026-09-05 00:04:40 | 51.46202 | 8.85110 | 73° | 29km/h | 22605m | 5.0m/s | -52.4°C | 0.9% | 38.6hPa | 2.6V | 00:00:00 | 00:00:00 | 00:00:00 | |
| DO3MHA-12 | 2026-09-05 00:04:38 | 51.46198 | 8.85086 | 76° | 24km/h | 22595m | 4.6m/s | -52.4°C | 3.6% | 38.6hPa | 2.6V | 00:00:00 | 01:46:42 | 00:00:00 | |
| DD1CC1-15 | 2026-09-05 00:04:37 | 51.46198 | 8.85086 | 76° | 29km/h | 22595m | 4.7m/s | -52.4°C | 0.9% | 38.6hPa | 2.6V | 00:00:00 | 00:00:00 | 00:00:00 | |
| BIOWL1-15 | 2026-09-05 00:04:36 | 51.46171 | 8.84909 | 96° | 16km/h | 22498m | 5m/s | -53.2°C | 0.4% | 39.2hPa | 2.6V | 18:12:15 | 01:46:23 | 00:00:00 | |
| BIOWL1-15 | 2026-09-05 00:04:24 | 51.46172 | 8.84903 | 103° | 13km/h | 22493m | 4.7m/s | -53.2°C | 0.4% | 39.2hPa | 2.6V | 18:12:15 | 01:46:22 | 00:00:00 | |
| HSKMA3-T | 2026-09-05 00:04:14 | 51.46174 | 8.84888 | 117° | 9km/h | 22474m | 5.5m/s | 0°C | 0% | 0hPa | 2.5V | 18:12:15 | 01:46:18 | 00:00:00 | |
| BIOWL1-15 | 2026-09-05 00:04:10 | 51.46173 | 8.84847 | 66° | 27km/h | 22445m | 4.3m/s | -53.4°C | 0.4% | 39.5hPa | 2.6V | 18:12:15 | 01:46:12 | 00:00:00 | |
| HSKMA3-T | 2026-09-05 00:04:02 | 51.46162 | 8.84782 | 74° | 22km/h | 22417m | 4.7m/s | 0°C | 0% | 0hPa | 2.6V | 18:12:15 | 01:46:06 | 00:00:00 | |
| BIOWL1-15 | 2026-09-05 00:04:01 | 51.46162 | 8.84750 | 93° | 13km/h | 22392m | 5.5m/s | -53.3°C | 0.5% | 39.9hPa | 2.6V | 18:12:15 | 01:46:01 | 00:00:00 | |
| HSKMA3-T | 2026-09-05 00:03:51 | 51.46155 | 8.84701 | 74° | 22km/h | 22358m | 5.7m/s | -53.5°C | 0.5% | 0hPa | 2.6V | 18:12:15 | 01:45:54 | 00:00:00 | |
| BIOWL1-15 | 2026-09-05 00:03:47 | 51.46151 | 8.84678 | 78° | 18km/h | 22344m | 5.4m/s | -53.6°C | 0.5% | 40.2hPa | 2.5V | 18:12:15 | 01:45:51 | 00:00:00 | |
| DJ8HS-15 | 2026-09-05 00:03:47 | 51.46151 | 8.84678 | 79° | 16km/h | 22344m | 5.4m/s | -53.5°C | 4.0% | 40.1hPa | 2.5V | 00:00:00 | 01:45:51 | 08:30:00 | |
| DL1NUX | 2026-09-05 00:03:45 | 51.46159 | 8.84641 | 132° | 16km/h | 22308m | 5.1m/s | -53.3°C | 3.9% | 40.4hPa | 2.6V | 08:30:00 | 01:45:44 | 00:00:00 | |
| HSKMA3-T | 2026-09-05 00:03:39 | 51.46162 | 8.84636 | 128° | 18km/h | 22304m | 3.7m/s | -53.3°C | 0.5% | 0hPa | 2.6V | 18:12:15 | 01:45:43 | 00:00:00 | |
| BIOWL1-15 | 2026-09-05 00:03:36 | 51.46167 | 8.84618 | 104° | 16km/h | 22290m | 4m/s | -53.2°C | 0.4% | 40.5hPa | 2.5V | 18:12:15 | 01:45:40 | 00:00:00 | |
| HSKMA3-T | 2026-09-05 00:03:29 | 51.46184 | 8.84570 | 129° | 16km/h | 22258m | 4.5m/s | -53°C | 0.4% | 0hPa | 2.5V | 18:12:15 | 01:45:33 | 00:00:00 | |
| BIOWL1-15 | 2026-09-05 00:03:25 | 51.46199 | 8.84551 | 154° | 22km/h | 22239m | 4.3m/s | -52.9°C | 0.4% | 40.8hPa | 2.5V | 18:12:15 | 01:45:29 | 00:00:00 | |
| HSKMA3-T | 2026-09-05 00:03:18 | 51.46228 | 8.84523 | 135° | 22km/h | 22206m | 5m/s | 0°C | 0% | 0hPa | 2.5V | 18:12:15 | 01:45:22 | 00:00:00 | |
| BIOWL1-15 | 2026-09-05 00:03:14 | 51.46244 | 8.84499 | 136° | 24km/h | 22187m | 5.8m/s | -52.8°C | 0.4% | 41.2hPa | 2.5V | 18:12:15 | 01:45:18 | 00:00:00 | |
| HSKMA3-T | 2026-09-05 00:03:08 | 51.46276 | 8.84462 | 146° | 26km/h | 22157m | 5m/s | 0°C | 0% | 0hPa | 2.5V | 18:12:15 | 01:45:12 | 00:00:00 | |
| DO2JMG | 2026-09-05 00:03:05 | 51.46291 | 8.84440 | 134° | 27km/h | 22143m | 4.9m/s | 0°C | 0% | 0hPa | 2.5V | 18:12:15 | 01:45:09 | 00:00:00 | |
| BIOWL1-15 | 2026-09-05 00:03:03 | 51.46300 | 8.84425 | 132° | 24km/h | 22132m | 4.5m/s | -52.8°C | 0.4% | 41.5hPa | 2.6V | 18:12:15 | 01:45:07 | 00:00:00 | |
| DL1ZP-14 | 2026-09-05 00:03:01 | 51.46389 | 8.84205 | 112° | 31km/h | 22011m | 4.4m/s | -53.1°C | 1.0% | 42.3hPa | 2.5V | 00:00:00 | 00:00:00 | 00:00:00 | |
| DO3MHA-11 | 2026-09-05 00:02:59 | 51.46340 | 8.84345 | 129° | 27km/h | 22084m | 4.5m/s | -53.1°C | 3.9% | 41.8hPa | 2.5V | 00:00:00 | 01:44:57 | 00:00:00 | |
| DL1NUX | 2026-09-05 00:02:57 | 51.46349 | 8.84327 | 128° | 27km/h | 22074m | 5.4m/s | -53.1°C | 3.9% | 41.9hPa | 2.5V | 08:30:00 | 01:44:55 | 00:00:00 | |
| DO9LL-15 | 2026-09-05 00:02:54 | 51.46353 | 8.84318 | 127° | 27km/h | 22069m | 4.5m/s | -53.1°C | 3.9% | 41.9hPa | 2.6V | 00:00:00 | 01:44:54 | 00:00:00 | |
| DO2JMG | 2026-09-05 00:02:53 | 51.46341 | 8.84345 | 128° | 29km/h | 22083m | 4.6m/s | 0°C | 0% | 0hPa | 2.6V | 18:12:15 | 01:44:57 | 00:00:00 | |
| BIOWL1-15 | 2026-09-05 00:02:52 | 51.46345 | 8.84335 | 128° | 29km/h | 22079m | 4.9m/s | -53.2°C | 0.4% | 41.9hPa | 2.5V | 18:12:15 | 01:44:56 | 00:00:00 | |
| DB0UT-7 | 2026-09-05 00:02:51 | 51.46364 | 8.84289 | 114° | 26km/h | 22053m | 4.2m/s | -53.1°C | 3.9% | 42.0hPa | 2.5V | 00:00:00 | 01:44:51 | 00:00:00 | |
| AU51GT2 | 2026-09-05 00:02:50 | 51.46367 | 8.84278 | 112° | 27km/h | 22049m | 4.2m/s | -53.1°C | 1.0% | 42.0hPa | 2.5V | 00:00:00 | 00:00:00 | 00:00:00 | |
| DO3MHA-11 | 2026-09-05 00:02:49 | 51.46375 | 8.84249 | 120° | 27km/h | 22033m | 5.2m/s | -53.0°C | 3.8% | 42.1hPa | 2.5V | 00:00:00 | 01:44:47 | 00:00:00 | |
| DF7PN | 2026-09-05 00:02:46 | 51.46385 | 8.84217 | 113° | 33km/h | 22016m | 5.2m/s | -53.1°C | 1.0% | 42.3hPa | 2.6V | 00:00:00 | 00:00:00 | 00:00:00 | |
| DL1NUX | 2026-09-05 00:02:44 | 51.46382 | 8.84229 | 115° | 31km/h | 22022m | 6.5m/s | -53°C | 3.8% | 42.2hPa | 2.6V | 08:30:00 | 01:44:45 | 00:00:00 | |
| SONDE2-11 | 2026-09-05 00:02:44 | 51.46392 | 8.84193 | 112° | 29km/h | 22006m | 6.1m/s | 0°C | -1.0% | -1.0hPa | 2.6V | 00:00:00 | 00:00:00 | 00:00:00 | |
| SONCRA | 2026-09-05 00:02:42 | 51.46389 | 8.84205 | 112° | 31km/h | 22011m | 4.4m/s | -53.1°C | 1.0% | 42.3hPa | 2.6V | 00:00:00 | 00:00:00 | 00:00:00 | |
| DO3MHA-12 | 2026-09-05 00:02:41 | 51.46392 | 8.84193 | 113° | 22km/h | 22006m | 6.0m/s | -53.0°C | 3.8% | 42.3hPa | 2.6V | 00:00:00 | 01:44:42 | 00:00:00 | |
| DB0DAN | 2026-09-05 00:02:40 | 51.46385 | 8.84217 | 114° | 31km/h | 22016m | 5.2m/s | 0°C | 0% | 0hPa | 2.6V | 00:00:00 | 00:00:00 | 00:00:00 | |
| DO2JMG | 2026-09-05 00:02:39 | 51.46389 | 8.84205 | 112° | 33km/h | 22011m | 4.4m/s | 0°C | 0% | 0hPa | 2.5V | 18:12:15 | 01:44:43 | 00:00:00 | |
| HSKMA3-T | 2026-09-05 00:02:38 | 51.46394 | 8.84183 | 112° | 26km/h | 22000m | 5.2m/s | 0°C | 0% | 0hPa | 2.5V | 18:12:15 | 01:44:41 | 00:00:00 | |
| BUE01 | 2026-09-05 00:02:37 | 51.46398 | 8.84165 | 101° | 22km/h | 21990m | 6.2m/s | -53.2°C | 1.0% | 42.5hPa | 2.5V | 00:00:00 | 00:00:00 | 00:00:00 | |
| EDDB2-11 | 2026-09-05 00:02:35 | 51.46399 | 8.84148 | 94° | 18km/h | 21979m | 4.9m/s | -53.3°C | 1.0% | 42.5hPa | 2.5V | 00:00:00 | 00:00:00 | 00:00:00 | |
| DL1NUX | 2026-09-05 00:02:34 | 51.46402 | 8.84120 | 102° | 22km/h | 21958m | 6.4m/s | -53.2°C | 3.9% | 42.6hPa | 2.5V | 08:30:00 | 01:44:33 | 00:00:00 | |
| DO3MHA-11 | 2026-09-05 00:02:33 | 51.46399 | 8.84148 | 95° | 24km/h | 21979m | 4.9m/s | -53.2°C | 4.0% | 42.5hPa | 2.5V | 00:00:00 | 01:44:37 | 00:00:00 | |
| DL3OBA | 2026-09-05 00:02:32 | 51.46399 | 8.84148 | 95° | 18km/h | 21979m | 4.9m/s | -53.3°C | 1.0% | 42.5hPa | 2.5V | 00:00:00 | 00:00:00 | 00:00:00 | |
| WPPR-10 | 2026-09-05 00:02:31 | 51.46406 | 8.84003 | 80° | 22km/h | 21906m | 5.8m/s | -52.9°C | 1.0% | 43.0hPa | 2.5V | 00:00:00 | 00:00:00 | 00:00:00 | |
| DL8OAI-8 | 2026-09-05 00:02:28 | 51.46403 | 8.84110 | 102° | 27km/h | 21952m | 5.6m/s | -53.1°C | 1.0% | 42.7hPa | 2.5V | 00:00:00 | 00:00:00 | 00:00:00 | |
| DJ8HS-15 | 2026-09-05 00:02:27 | 51.46405 | 8.84098 | 102° | 24km/h | 21947m | 4.6m/s | -53.1°C | 3.9% | 42.7hPa | 2.5V | 00:00:00 | 01:44:31 | 00:00:00 | |
| BIOWL1-15 | 2026-09-05 00:02:27 | 51.46405 | 8.84098 | 101° | 31km/h | 21947m | 4.7m/s | -53.1°C | 0.5% | 42.8hPa | 2.5V | 18:12:15 | 01:44:31 | 00:00:00 | |
| DL1NUX | 2026-09-05 00:02:23 | 51.46406 | 8.84003 | 80° | 24km/h | 21906m | 5.8m/s | -52.9°C | 3.8% | 43hPa | 2.5V | 08:30:00 | 01:44:23 | 00:00:00 | |
| DO9LL-15 | 2026-09-05 00:02:22 | 51.46407 | 8.84013 | 81° | 18km/h | 21912m | 5.5m/s | -52.8°C | 3.8% | 42.9hPa | 2.6V | 00:00:00 | 01:44:24 | 00:00:00 | |
| DB0ND-19 | 2026-09-05 00:02:21 | 51.46405 | 8.83995 | 81° | 18km/h | 21900m | 5.3m/s | -52.8°C | 1.0% | 43.0hPa | 2.6V | 00:00:00 | 00:00:00 | 00:00:00 | |
| DO2KSM | 2026-09-05 00:02:20 | 51.46405 | 8.83995 | 82° | 20km/h | 21900m | 5.3m/s | -52.8°C | 1.0% | 43.1hPa | 2.6V | 00:00:00 | 00:00:00 | 00:00:00 | |
| DB0UT-7 | 2026-09-05 00:02:19 | 51.46404 | 8.83987 | 81° | 16km/h | 21895m | 5.8m/s | -52.7°C | 3.8% | 43.0hPa | 2.6V | 00:00:00 | 00:00:00 | 08:30:00 | |
| AU51GT2 | 2026-09-05 00:02:18 | 51.46403 | 8.83973 | 86° | 16km/h | 21884m | 4.6m/s | -52.7°C | 1.0% | 43.1hPa | 2.5V | 00:00:00 | 00:00:00 | 00:00:00 | |
| HSKMA3-T | 2026-09-05 00:02:16 | 51.46404 | 8.83980 | 80° | 18km/h | 21889m | 5.1m/s | 0°C | 0% | 0hPa | 2.5V | 18:12:15 | 01:44:20 | 00:00:00 | |
| DL3OBA | 2026-09-05 00:02:15 | 51.46405 | 8.83953 | 104° | 18km/h | 21868m | 4.3m/s | -52.6°C | 1.0% | 43.2hPa | 2.5V | 00:00:00 | 00:00:00 | 00:00:00 | |
| DL8OAI-8 | 2026-09-05 00:02:12 | 51.46401 | 8.83919 | 66° | 26km/h | 21848m | 4.4m/s | -52.5°C | 1.0% | 43.4hPa | 2.5V | 00:00:00 | 00:00:00 | 00:00:00 | |
| DJ8HS-15 | 2026-09-05 00:02:11 | 51.46399 | 8.83910 | 64° | 16km/h | 21843m | 5.8m/s | -52.4°C | 3.8% | 43.4hPa | 2.5V | 00:00:00 | 01:44:11 | 00:00:00 | |
| BIOWL1-15 | 2026-09-05 00:02:05 | 51.46390 | 8.83860 | 104° | 11km/h | 21800m | 5.2m/s | -52.4°C | 0.3% | 43.8hPa | 2.5V | 18:12:15 | 01:44:03 | 00:00:00 | |
| BUE01 | 2026-09-05 00:02:05 | 51.46393 | 8.83889 | 69° | 16km/h | 21827m | 5.3m/s | -52.4°C | 1.0% | 43.5hPa | 2.6V | 00:00:00 | 00:00:00 | 00:00:00 | |
| DJTTGO | 2026-09-05 00:02:03 | 51.46393 | 8.83889 | 71° | 16km/h | 21827m | 5.3m/s | -52.4°C | 1.0% | 43.5hPa | 2.6V | 00:00:00 | 00:00:00 | 00:00:00 | |
| HARRO8 | 2026-09-05 00:02:02 | 51.46390 | 8.83845 | 76° | 15km/h | 21784m | 5.0m/s | -52.4°C | 0.9% | 43.8hPa | 2.6V | 00:00:00 | 00:00:00 | 00:00:00 | |
| HSKMA3-T | 2026-09-05 00:02:00 | 51.46390 | 8.83865 | 94° | 13km/h | 21806m | 6.4m/s | -52.4°C | 0.3% | 43.7hPa | 2.6V | 18:12:15 | 01:44:04 | 00:00:00 | |
| DO3MHA-11 | 2026-09-05 00:01:57 | 51.46386 | 8.83826 | 64° | 13km/h | 21768m | 5.6m/s | -52.3°C | 3.6% | 43.9hPa | 2.6V | 00:00:00 | 01:43:57 | 00:00:00 | |
| DL3OBA | 2026-09-05 00:01:56 | 51.46384 | 8.83821 | 62° | 15km/h | 21763m | 4.6m/s | -52.4°C | 1.0% | 44.0hPa | 2.6V | 00:00:00 | 00:00:00 | 00:00:00 | |
| BIOWL7-15 | 2026-09-05 00:01:55 | 51.46382 | 8.83815 | 62° | 16km/h | 21758m | 5.6m/s | -52.4°C | 0.9% | 44.0hPa | 2.6V | 00:00:00 | 00:00:00 | 00:00:00 | |
| DO9LL-15 | 2026-09-05 00:01:53 | 51.46380 | 8.83809 | 63° | 16km/h | 21752m | 5.5m/s | -52.3°C | 3.6% | 44.0hPa | 2.6V | 00:00:00 | 01:43:54 | 00:00:00 | |
| DK9SH | 2026-09-05 00:01:52 | 51.46380 | 8.83809 | 63° | 16km/h | 21752m | 5.5m/s | -52.4°C | 0.9% | 44.0hPa | 2.6V | 00:00:00 | 00:00:00 | 00:00:00 | |
| BIOWL9-15 | 2026-09-05 00:01:51 | 51.46377 | 8.83798 | 65° | 11km/h | 21742m | 5.9m/s | -52.5°C | 0.9% | 44.1hPa | 2.6V | 00:00:00 | 00:00:00 | 00:00:00 | |
| BIOWL1-15 | 2026-09-05 00:01:50 | 51.46380 | 8.83809 | 62° | 16km/h | 21752m | 5.5m/s | -52.4°C | 0.2% | 44hPa | 2.6V | 18:12:15 | 01:43:54 | 00:00:00 | |
| DC6BW-12 | 2026-09-05 00:01:49 | 51.46375 | 8.83794 | 77° | 9km/h | 21736m | 5.2m/s | -52.5°C | 1.0% | 44.2hPa | 2.5V | 00:00:00 | 00:00:00 | 00:00:00 | |
| DL8OAI-8 | 2026-09-05 00:01:48 | 51.46375 | 8.83794 | 77° | 9km/h | 21736m | 5.2m/s | -52.5°C | 1.0% | 44.2hPa | 2.5V | 00:00:00 | 00:00:00 | 00:00:00 | |
| HSKMA3-T | 2026-09-05 00:01:47 | 51.46376 | 8.83794 | 76° | 9km/h | 21736m | 5.2m/s | -52.5°C | 0.3% | 44.2hPa | 2.5V | 18:12:15 | 01:43:51 | 00:00:00 | |
| AU51GT2 | 2026-09-05 00:01:46 | 51.46377 | 8.83784 | 118° | 11km/h | 21720m | 5.6m/s | -52.6°C | 1.0% | 44.3hPa | 2.6V | 00:00:00 | 00:00:00 | 00:00:00 | |
| DL3AQ-11 | 2026-09-05 00:01:44 | 51.46383 | 8.83770 | 130° | 13km/h | 21705m | 5.7m/s | -52.6°C | 0.9% | 44.4hPa | 2.6V | 00:00:00 | 00:00:00 | 00:00:00 | |
| DD1CC1-15 | 2026-09-05 00:01:41 | 51.46387 | 8.83762 | 111° | 13km/h | 21694m | 5.6m/s | -52.7°C | 1.0% | 44.4hPa | 2.6V | 00:00:00 | 00:00:00 | 00:00:00 | |
| BIOWL1-15 | 2026-09-05 00:01:40 | 51.46385 | 8.83766 | 125° | 13km/h | 21699m | 4.6m/s | -52.6°C | 0.3% | 44.4hPa | 2.6V | 18:12:15 | 01:43:44 | 00:00:00 | |
| DO2KSM | 2026-09-05 00:01:40 | 51.46387 | 8.83751 | 80° | 15km/h | 21683m | 4.6m/s | -52.8°C | 1.0% | 44.5hPa | 2.5V | 00:00:00 | 00:00:00 | 00:00:00 | |
| BUE01 | 2026-09-05 00:01:38 | 51.46385 | 8.83728 | 96° | 13km/h | 21663m | 4.9m/s | -52.9°C | 1.0% | 44.7hPa | 2.5V | 00:00:00 | 00:00:00 | 00:00:00 | |
| HSKMA3-T | 2026-09-05 00:01:37 | 51.46387 | 8.83751 | 79° | 15km/h | 21683m | 4.6m/s | 0°C | 0% | 44.5hPa | 2.5V | 18:12:15 | 01:43:41 | 00:00:00 | |
| DL3OBA | 2026-09-05 00:01:37 | 51.46385 | 8.83722 | 101° | 16km/h | 21658m | 5.8m/s | -52.9°C | 1.0% | 44.7hPa | 2.5V | 00:00:00 | 00:00:00 | 00:00:00 | |
| DK9SH | 2026-09-05 00:01:33 | 51.46388 | 8.83709 | 119° | 18km/h | 21648m | 5.3m/s | -53.0°C | 1.0% | 44.8hPa | 2.5V | 00:00:00 | 00:00:00 | 00:00:00 | |
| DL3AQ-11 | 2026-09-05 00:01:32 | 51.46394 | 8.83696 | 127° | 20km/h | 21637m | 4.7m/s | -53.1°C | 1.0% | 44.9hPa | 2.5V | 00:00:00 | 00:00:00 | 00:00:00 | |
| BIOWL1-15 | 2026-09-05 00:01:31 | 51.46391 | 8.83703 | 127° | 20km/h | 21642m | 6m/s | -53°C | 0.4% | 44.8hPa | 2.5V | 18:12:15 | 01:43:33 | 00:00:00 | |
| DC6BW-12 | 2026-09-05 00:01:30 | 51.46397 | 8.83689 | 123° | 22km/h | 21631m | 5.7m/s | -53.1°C | 1.0% | 44.9hPa | 2.6V | 00:00:00 | 00:00:00 | 00:00:00 | |
| HARRO8 | 2026-09-05 00:01:28 | 51.46401 | 8.83672 | 105° | 24km/h | 21621m | 4.5m/s | -53.1°C | 1.0% | 45.0hPa | 2.6V | 00:00:00 | 00:00:00 | 00:00:00 | |
| HSKMA3-T | 2026-09-05 00:01:27 | 51.46397 | 8.83689 | 123° | 22km/h | 21631m | 5.7m/s | 0°C | 0% | 0hPa | 2.6V | 18:12:15 | 01:43:31 | 00:00:00 | |
| DO3MHA-11 | 2026-09-05 00:01:26 | 51.46404 | 8.83652 | 99° | 20km/h | 21611m | 5.5m/s | -53.0°C | 3.8% | 45.0hPa | 2.5V | 00:00:00 | 01:43:27 | 00:00:00 | |
| DL1ZP-14 | 2026-09-05 00:01:23 | 51.46404 | 8.83617 | 80° | 22km/h | 21591m | 4.7m/s | -52.9°C | 1.0% | 45.2hPa | 2.5V | 00:00:00 | 00:00:00 | 00:00:00 | |
| DL3AQ-11 | 2026-09-05 00:01:21 | 51.46402 | 8.83600 | 75° | 16km/h | 21581m | 6.2m/s | -52.8°C | 1.0% | 45.2hPa | 2.6V | 00:00:00 | 00:00:00 | 00:00:00 | |
| DB0UT-7 | 2026-09-05 00:01:20 | 51.46401 | 8.83600 | 76° | 15km/h | 21581m | 6.1m/s | -52.8°C | 3.7% | 45.2hPa | 2.6V | 00:00:00 | 00:00:00 | 00:00:00 | |
| DO1YAY-16 | 2026-09-05 00:01:19 | 51.46400 | 8.83594 | 74° | 15km/h | 21576m | 5.3m/s | -52.8°C | 1.0% | 45.3hPa | 2.6V | 00:00:00 | 00:00:00 | 00:00:00 | |
| BIOWL1-15 | 2026-09-05 00:01:18 | 51.46401 | 8.83552 | 101° | 16km/h | 21545m | 5.3m/s | -52.9°C | 0.4% | 45.5hPa | 2.6V | 18:12:15 | 01:43:14 | 00:00:00 | |
| HSKMA3-T | 2026-09-05 00:01:17 | 51.46402 | 8.83600 | 76° | 18km/h | 21581m | 6.2m/s | 0°C | 0% | 0hPa | 2.6V | 18:12:15 | 01:43:21 | 00:00:00 | |
| AU51GT2 | 2026-09-05 00:01:15 | 51.46399 | 8.83574 | 90° | 18km/h | 21561m | 4.9m/s | -52.8°C | 1.0% | 45.4hPa | 2.6V | 00:00:00 | 00:00:00 | 00:00:00 | |
| DD1CC1-15 | 2026-09-05 00:01:14 | 51.46400 | 8.83559 | 101° | 18km/h | 21551m | 5.6m/s | -52.8°C | 1.0% | 45.5hPa | 2.6V | 00:00:00 | 00:00:00 | 00:00:00 | |
| DK9SH | 2026-09-05 00:01:12 | 51.46400 | 8.83551 | 102° | 16km/h | 21545m | 5.3m/s | -52.9°C | 1.0% | 45.5hPa | 2.6V | 00:00:00 | 00:00:00 | 00:00:00 | |
| DF7PN | 2026-09-05 00:01:11 | 51.46402 | 8.83531 | 91° | 20km/h | 21531m | 5.6m/s | -52.9°C | 1.0% | 45.6hPa | 2.6V | 00:00:00 | 00:00:00 | 00:00:00 | |
| SONDE2-11 | 2026-09-05 00:01:10 | 51.46404 | 8.83505 | 104° | 18km/h | 21516m | 5.7m/s | 0°C | -1.0% | -1.0hPa | 2.6V | 00:00:00 | 00:00:00 | 00:00:00 | |
| SONCRA | 2026-09-05 00:01:09 | 51.46403 | 8.83522 | 94° | 20km/h | 21526m | 4.6m/s | -53.0°C | 1.0% | 45.6hPa | 2.6V | 00:00:00 | 00:00:00 | 00:00:00 | |
| DL8OAI-8 | 2026-09-05 00:01:08 | 51.46402 | 8.83522 | 95° | 22km/h | 21526m | 4.6m/s | -52.9°C | 1.0% | 45.6hPa | 2.6V | 00:00:00 | 00:00:00 | 00:00:00 | |
| BIOWL1-15 | 2026-09-05 00:01:07 | 51.46406 | 8.83498 | 113° | 16km/h | 21511m | 5.5m/s | -53.1°C | 0.4% | 45.8hPa | 2.6V | 18:12:15 | 01:43:07 | 00:00:00 | |
| EDDB2-11 | 2026-09-05 00:01:01 | 51.46410 | 8.83484 | 103° | 9km/h | 21496m | 5.6m/s | -53.2°C | 1.0% | 45.8hPa | 2.5V | 00:00:00 | 00:00:00 | 00:00:00 | |
| WPPR-10 | 2026-09-05 00:00:58 | 51.46411 | 8.83460 | 95° | 13km/h | 21471m | 5.3m/s | -53.1°C | 1.0% | 46.0hPa | 2.5V | 00:00:00 | 00:00:00 | 00:00:00 | |
| BIOWL1-15 | 2026-09-05 00:00:56 | 51.46411 | 8.83460 | 96° | 15km/h | 21471m | 5.3m/s | -53.1°C | 0.4% | 46hPa | 2.5V | 18:12:15 | 01:42:59 | 00:00:00 | |
| DO3MHA-12 | 2026-09-05 00:00:56 | 51.46411 | 8.83460 | 96° | 13km/h | 21471m | 5.2m/s | -53.1°C | 3.8% | 46.0hPa | 2.6V | 00:00:00 | 01:42:59 | 00:00:00 | |
| DO2KSM | 2026-09-05 00:00:55 | 51.46412 | 8.83460 | 97° | 15km/h | 21471m | 5.3m/s | -53.1°C | 1.0% | 46.0hPa | 2.6V | 00:00:00 | 00:00:00 | 00:00:00 | |
| HARRO8 | 2026-09-05 00:00:54 | 51.46412 | 8.83455 | 90° | 15km/h | 21466m | 5.3m/s | -53.1°C | 1.0% | 46.1hPa | 2.6V | 00:00:00 | 00:00:00 | 00:00:00 | |
| DO3MHA-11 | 2026-09-05 00:00:52 | 51.46412 | 8.83443 | 104° | 11km/h | 21455m | 5.7m/s | -53.1°C | 3.8% | 46.1hPa | 2.6V | 00:00:00 | 01:42:56 | 00:00:00 | |
| HSKMA3-T | 2026-09-05 00:00:52 | 51.46412 | 8.83443 | 103° | 15km/h | 21455m | 5.7m/s | 0°C | 0% | 0hPa | 2.5V | 18:12:15 | 01:42:56 | 00:00:00 | |
| DO9LL-15 | 2026-09-05 00:00:50 | 51.46415 | 8.83433 | 131° | 24km/h | 21445m | 4.4m/s | -53.1°C | 3.8% | 46.2hPa | 2.6V | 00:00:00 | 01:42:54 | 00:00:00 | |
| DL1ZP-14 | 2026-09-05 00:00:49 | 51.46419 | 8.83426 | 130° | 9km/h | 21434m | 5.6m/s | -53.1°C | 1.0% | 46.3hPa | 2.6V | 00:00:00 | 00:00:00 | 00:00:00 | |
| DB0UT-7 | 2026-09-05 00:00:48 | 51.46421 | 8.83423 | 134° | 24km/h | 21429m | 4.7m/s | -53.0°C | 3.7% | 46.3hPa | 2.6V | 00:00:00 | 01:42:51 | 00:00:00 | |
| DK9SH | 2026-09-05 00:00:47 | 51.46423 | 8.83421 | 145° | 9km/h | 21424m | 5.5m/s | -53.0°C | 1.0% | 46.4hPa | 2.6V | 00:00:00 | 00:00:00 | 00:00:00 | |
| DL1XH-west | 2026-09-05 00:00:46 | 51.46423 | 8.83421 | 144° | 9km/h | 21424m | 5.5m/s | 0°C | 0% | 0hPa | 2.6V | 18:12:15 | 01:42:50 | 00:00:00 | |
| DO3MHA-12 | 2026-09-05 00:00:46 | 51.46425 | 8.83419 | 152° | 20km/h | 21419m | 5.2m/s | -53.0°C | 3.7% | 46.4hPa | 2.5V | 00:00:00 | 01:42:49 | 00:00:00 | |
| BIOWL1-15 | 2026-09-05 00:00:45 | 51.46425 | 8.83419 | 152° | 11km/h | 21418m | 5.2m/s | -53°C | 0.3% | 46.4hPa | 2.5V | 18:12:15 | 01:42:49 | 00:00:00 | |
| DC6BW-12 | 2026-09-05 00:00:45 | 51.46425 | 8.83419 | 153° | 11km/h | 21419m | 5.2m/s | -53.0°C | 1.0% | 46.4hPa | 2.5V | 00:00:00 | 00:00:00 | 00:00:00 | |
| AU51GT2 | 2026-09-05 00:00:44 | 51.46432 | 8.83409 | 121° | 13km/h | 21405m | 6.1m/s | -53.0°C | 1.0% | 46.5hPa | 2.5V | 00:00:00 | 00:00:00 | 00:00:00 | |
| HSKMA3-T | 2026-09-05 00:00:43 | 51.46432 | 8.83409 | 122° | 15km/h | 21405m | 6.1m/s | 0°C | 0% | 0hPa | 2.5V | 18:12:15 | 01:42:46 | 00:00:00 | |
| DJTTGO | 2026-09-05 00:00:43 | 51.46432 | 8.83409 | 123° | 15km/h | 21405m | 6.1m/s | -53.0°C | 1.0% | 46.5hPa | 2.5V | 00:00:00 | 00:00:00 | 00:00:00 | |
| DL3AQ-11 | 2026-09-05 00:00:40 | 51.46445 | 8.83369 | 130° | 26km/h | 21380m | 5.0m/s | -53.2°C | 1.0% | 46.7hPa | 2.5V | 00:00:00 | 00:00:00 | 00:00:00 | |
| DF7PN | 2026-09-05 00:00:39 | 51.46449 | 8.83361 | 136° | 26km/h | 21375m | 4.5m/s | -53.3°C | 1.0% | 46.8hPa | 2.5V | 00:00:00 | 00:00:00 | 00:00:00 | |
| DO3MHA-12 | 2026-09-05 00:00:38 | 51.46454 | 8.83354 | 140° | 22km/h | 21370m | 6.0m/s | -53.3°C | 3.8% | 46.7hPa | 2.5V | 00:00:00 | 01:42:39 | 00:00:00 | |
| DO2KSM | 2026-09-05 00:00:37 | 51.46454 | 8.83354 | 140° | 24km/h | 21370m | 6.1m/s | -53.3°C | 1.0% | 46.8hPa | 2.5V | 00:00:00 | 00:00:00 | 00:00:00 | |
| DD1CC8 | 2026-09-05 00:00:36 | 51.46470 | 8.83333 | 139° | 20km/h | 21350m | 5.2m/s | -53.5°C | 1.0% | 46.9hPa | 2.5V | 00:00:00 | 00:00:00 | 00:00:00 | |
| BIOWL1-15 | 2026-09-05 00:00:35 | 51.46458 | 8.83349 | 142° | 20km/h | 21364m | 4.6m/s | -53.4°C | 0.4% | 46.8hPa | 2.5V | 18:12:15 | 01:42:38 | 00:00:00 | |
| HSKMA3-T | 2026-09-05 00:00:32 | 51.46470 | 8.83333 | 139° | 22km/h | 21350m | 5.2m/s | 0°C | 0% | 0hPa | 2.6V | 18:12:15 | 01:42:35 | 00:00:00 | |
| DL3OBA | 2026-09-05 00:00:31 | 51.46474 | 8.83327 | 134° | 22km/h | 21345m | 4.4m/s | -53.5°C | 1.0% | 46.9hPa | 2.6V | 00:00:00 | 00:00:00 | 00:00:00 | |
| EDDB2-11 | 2026-09-05 00:00:30 | 51.46478 | 8.83321 | 125° | 20km/h | 21341m | 4.6m/s | -53.5°C | 1.0% | 47.0hPa | 2.6V | 00:00:00 | 00:00:00 | 00:00:00 | |
| BIOWL1-15 | 2026-09-05 00:00:28 | 51.46492 | 8.83281 | 125° | 31km/h | 21316m | 5.1m/s | -53.6°C | 0.4% | 47.2hPa | 2.6V | 18:12:15 | 01:42:28 | 00:00:00 | |
| WPPR-10 | 2026-09-05 00:00:27 | 51.46533 | 8.83183 | 122° | 27km/h | 21268m | 5.3m/s | -53.8°C | 1.0% | 47.5hPa | 2.5V | 00:00:00 | 00:00:00 | 00:00:00 | |
| DD1CC1-15 | 2026-09-05 00:00:26 | 51.46482 | 8.83307 | 116° | 20km/h | 21331m | 4.5m/s | -53.5°C | 1.0% | 47.0hPa | 2.5V | 00:00:00 | 00:00:00 | 00:00:00 | |
| DC6BW-12 | 2026-09-05 00:00:25 | 51.46488 | 8.83290 | 122° | 26km/h | 21321m | 5.7m/s | -53.5°C | 1.0% | 47.1hPa | 2.5V | 00:00:00 | 00:00:00 | 00:00:00 | |
| DO3MHA-11 | 2026-09-05 00:00:23 | 51.46501 | 8.83259 | 123° | 33km/h | 21306m | 5.9m/s | -53.5°C | 3.8% | 47.2hPa | 2.5V | 00:00:00 | 01:42:26 | 00:00:00 | |
| DL3AQ-11 | 2026-09-05 00:00:22 | 51.46505 | 8.83248 | 120° | 33km/h | 21300m | 4.9m/s | -53.6°C | 1.0% | 47.3hPa | 2.5V | 00:00:00 | 00:00:00 | 00:00:00 | |
| HSKMA3-T | 2026-09-05 00:00:21 | 51.46505 | 8.83248 | 121° | 33km/h | 21300m | 4.9m/s | -53.6°C | 0.4% | 47.3hPa | 2.5V | 18:12:15 | 01:42:25 | 00:00:00 | |
| DB0UT-7 | 2026-09-05 00:00:20 | 51.46524 | 8.83203 | 128° | 35km/h | 21280m | 4.8m/s | -53.7°C | 3.8% | 47.4hPa | 2.5V | 00:00:00 | 00:00:00 | 00:00:00 | |
| DO3MHA-12 | 2026-09-05 00:00:18 | 51.46533 | 8.83183 | 123° | 33km/h | 21269m | 5.3m/s | -53.8°C | 3.8% | 47.5hPa | 2.5V | 00:00:00 | 01:42:19 | 00:00:00 | |
| BIOWL7-15 | 2026-09-05 00:00:17 | 51.46533 | 8.83183 | 124° | 27km/h | 21269m | 5.3m/s | -53.8°C | 1.0% | 47.5hPa | 2.5V | 00:00:00 | 00:00:00 | 00:00:00 | |
| DB0ND-19 | 2026-09-05 00:00:15 | 51.46537 | 8.83174 | 120° | 26km/h | 21264m | 4.2m/s | -53.9°C | 1.0% | 47.5hPa | 2.5V | 00:00:00 | 00:00:00 | 00:00:00 | |
| BIOWL1-15 | 2026-09-05 00:00:14 | 51.46537 | 8.83174 | 121° | 27km/h | 21264m | 4.2m/s | -53.9°C | 0.4% | 47.5hPa | 2.5V | 18:12:15 | 01:42:18 | 00:00:00 | |
| DO2KSM | 2026-09-05 00:00:14 | 51.46537 | 8.83173 | 122° | 27km/h | 21264m | 4.2m/s | -53.9°C | 1.0% | 47.5hPa | 2.5V | 00:00:00 | 00:00:00 | 00:00:00 | |
| AU51GT2 | 2026-09-05 00:00:12 | 51.46549 | 8.83142 | 118° | 31km/h | 21249m | 4.5m/s | -53.9°C | 1.0% | 47.7hPa | 2.5V | 00:00:00 | 00:00:00 | 00:00:00 | |
| DK9SH | 2026-09-05 00:00:11 | 51.46548 | 8.83142 | 119° | 33km/h | 21249m | 4.5m/s | -53.9°C | 1.0% | 47.7hPa | 2.5V | 00:00:00 | 00:00:00 | 00:00:00 | |
| HSKMA3-T | 2026-09-05 00:00:09 | 51.46556 | 8.83117 | 113° | 35km/h | 21238m | 4.7m/s | -54°C | 0.4% | 47.8hPa | 2.5V | 18:12:15 | 01:42:13 | 00:00:00 | |
| DL3AQ-11 | 2026-09-05 00:00:09 | 51.46560 | 8.83104 | 115° | 35km/h | 21235m | 3.6m/s | -54.0°C | 1.0% | 47.8hPa | 2.6V | 00:00:00 | 00:00:00 | 00:00:00 | |
| DJ8HS-15 | 2026-09-05 00:00:07 | 51.46564 | 8.83091 | 119° | 35km/h | 21230m | 5.5m/s | -54.0°C | 3.9% | 47.7hPa | 2.6V | 00:00:00 | 01:42:11 | 00:00:00 | |
| DO3MHA-12 | 2026-09-05 00:00:06 | 51.46575 | 8.83064 | 127° | 37km/h | 21220m | 4.5m/s | -54.2°C | 4.0% | 47.8hPa | 2.6V | 00:00:00 | 01:42:09 | 00:00:00 | |
| DC6BW-12 | 2026-09-05 00:00:05 | 51.46575 | 8.83064 | 128° | 40km/h | 21220m | 4.6m/s | -54.2°C | 1.1% | 47.9hPa | 2.6V | 00:00:00 | 00:00:00 | 00:00:00 | |
| SONCRA | 2026-09-05 00:00:04 | 51.46581 | 8.83051 | 128° | 37km/h | 21215m | 5.3m/s | -54.3°C | 1.1% | 47.9hPa | 2.6V | 00:00:00 | 00:00:00 | 00:00:00 | |
| BIOWL1-15 | 2026-09-05 00:00:03 | 51.46587 | 8.83040 | 126° | 35km/h | 21209m | 5.3m/s | -54.4°C | 0.5% | 48hPa | 2.6V | 18:12:15 | 01:42:07 | 00:00:00 | |
| DL1NUX | 2026-09-05 00:00:00 | 51.46616 | 8.82935 | 108° | 35km/h | 21170m | 5.2m/s | -54.5°C | 4.2% | 48.2hPa | 2.6V | 08:30:00 | 01:41:59 | 00:00:00 | |
| HSKMA3-T | 2026-09-04 23:59:58 | 51.46608 | 8.82976 | 111° | 37km/h | 21185m | 4.9m/s | -54.5°C | 0.5% | 48.1hPa | 2.5V | 18:12:15 | 01:42:02 | 00:00:00 | |
| DL3AQ-11 | 2026-09-04 23:59:58 | 51.46611 | 8.82962 | 108° | 35km/h | 21180m | 5.8m/s | -54.5°C | 1.1% | 48.2hPa | 2.5V | 00:00:00 | 00:00:00 | 00:00:00 | |
| WPPR-10 | 2026-09-04 23:59:56 | 51.46631 | 8.82884 | 116° | 29km/h | 21150m | 5.5m/s | -54.3°C | 1.1% | 48.4hPa | 2.5V | 00:00:00 | 00:00:00 | 00:00:00 | |
| DO3MHA-11 | 2026-09-04 23:59:55 | 51.46617 | 8.82935 | 109° | 33km/h | 21170m | 5.2m/s | -54.4°C | 4.2% | 48.2hPa | 2.5V | 00:00:00 | 01:41:59 | 00:00:00 | |
| BIOWL1-15 | 2026-09-04 23:59:53 | 51.46627 | 8.82895 | 116° | 33km/h | 21155m | 5.1m/s | -54.3°C | 0.6% | 48.4hPa | 2.5V | 18:12:15 | 01:41:56 | 00:00:00 | |
| DL1NUX | 2026-09-04 23:59:50 | 51.46655 | 8.82818 | 117° | 31km/h | 21119m | 5.3m/s | -54.1°C | 4.1% | 48.6hPa | 2.6V | 08:30:00 | 01:41:49 | 00:00:00 | |
| DL3OBA | 2026-09-04 23:59:48 | 51.46638 | 8.82862 | 122° | 31km/h | 21140m | 5.5m/s | -54.2°C | 1.1% | 48.5hPa | 2.5V | 00:00:00 | 00:00:00 | 00:00:00 | |
| DJ8HS-15 | 2026-09-04 23:59:47 | 51.46647 | 8.82840 | 123° | 33km/h | 21130m | 4.3m/s | -54.1°C | 4.1% | 48.5hPa | 2.5V | 00:00:00 | 01:41:51 | 00:00:00 | |
| DL1ZP-14 | 2026-09-04 23:59:46 | 51.46651 | 8.82829 | 120° | 31km/h | 21125m | 5.1m/s | -54.1°C | 1.1% | 48.6hPa | 2.5V | 00:00:00 | 00:00:00 | 00:00:00 | |
| DL4BBY-15 | 2026-09-04 23:59:45 | 51.46655 | 8.82818 | 118° | 31km/h | 21119m | 5.2m/s | -54.2°C | 0% | 0hPa | 2.5V | 00:00:00 | 00:00:00 | 00:00:00 | |
| BIOWL9-15 | 2026-09-04 23:59:44 | 51.46661 | 8.82794 | 111° | 33km/h | 21110m | 5.5m/s | -54.1°C | 1.1% | 48.7hPa | 2.5V | 00:00:00 | 00:00:00 | 00:00:00 | |
| HSKMA3-T | 2026-09-04 23:59:43 | 51.46661 | 8.82794 | 111° | 35km/h | 21110m | 5.5m/s | -54.1°C | 0.5% | 48.7hPa | 2.5V | 18:12:15 | 01:41:47 | 00:00:00 | |
| DO3MHA-12 | 2026-09-04 23:59:43 | 51.46661 | 8.82794 | 112° | 33km/h | 21110m | 5.5m/s | -54.0°C | 4.1% | 48.7hPa | 2.5V | 00:00:00 | 01:41:47 | 08:30:00 | |
| BIOWL1-15 | 2026-09-04 23:59:41 | 51.46667 | 8.82767 | 108° | 38km/h | 21099m | 4.5m/s | -54°C | 0.6% | 48.8hPa | 2.5V | 18:12:15 | 01:41:45 | 00:00:00 | |
| DL1NUX | 2026-09-04 23:59:40 | 51.46681 | 8.82693 | 110° | 31km/h | 21068m | 4.4m/s | -53.9°C | 4.1% | 49hPa | 2.6V | 08:30:00 | 01:41:39 | 00:00:00 | |
| DD1CC1-15 | 2026-09-04 23:59:39 | 51.46672 | 8.82739 | 106° | 33km/h | 21089m | 6.1m/s | -53.9°C | 1.1% | 48.9hPa | 2.6V | 00:00:00 | 00:00:00 | 00:00:00 | |
| DO3MHA-11 | 2026-09-04 23:59:35 | 51.46681 | 8.82693 | 111° | 33km/h | 21069m | 4.4m/s | -53.8°C | 4.1% | 49.0hPa | 2.6V | 00:00:00 | 01:41:39 | 00:00:00 | |
| DO2KSM | 2026-09-04 23:59:34 | 51.46684 | 8.82682 | 116° | 29km/h | 21064m | 4.5m/s | -53.9°C | 1.1% | 49.1hPa | 2.5V | 00:00:00 | 00:00:00 | 00:00:00 | |
| HSKMA3-T | 2026-09-04 23:59:33 | 51.46687 | 8.82671 | 118° | 29km/h | 21059m | 5.6m/s | -53.8°C | 0.5% | 49.1hPa | 2.5V | 18:12:15 | 01:41:37 | 00:00:00 | |
| BIOWL1-15 | 2026-09-04 23:59:33 | 51.46694 | 8.82650 | 120° | 33km/h | 21049m | 4.8m/s | -53.8°C | 0.6% | 49.2hPa | 2.5V | 18:12:15 | 01:41:35 | 00:00:00 | |
| DK9SH | 2026-09-04 23:59:30 | 51.46695 | 8.82650 | 121° | 33km/h | 21049m | 4.8m/s | -53.8°C | 1.1% | 49.2hPa | 2.6V | 00:00:00 | 00:00:00 | 00:00:00 | |
| DL3OBA | 2026-09-04 23:59:29 | 51.46703 | 8.82625 | 117° | 38km/h | 21039m | 4.4m/s | -53.7°C | 1.0% | 49.2hPa | 2.6V | 00:00:00 | 00:00:00 | 00:00:00 | |
| DJ8HS-15 | 2026-09-04 23:59:27 | 51.46710 | 8.82598 | 110° | 29km/h | 21029m | 5.4m/s | -53.6°C | 4.0% | 49.3hPa | 2.6V | 00:00:00 | 01:41:31 | 00:00:00 | |
| BIOWL1-15 | 2026-09-04 23:59:25 | 51.46717 | 8.82524 | 91° | 26km/h | 20999m | 5.2m/s | -53.5°C | 0.4% | 49.5hPa | 2.6V | 18:12:15 | 01:41:25 | 00:00:00 | |
| DO3MHA-11 | 2026-09-04 23:59:25 | 51.46714 | 8.82572 | 101° | 29km/h | 21019m | 5.3m/s | -53.6°C | 4.0% | 49.3hPa | 2.5V | 00:00:00 | 01:41:29 | 00:00:00 | |
| WPPR-10 | 2026-09-04 23:59:24 | 51.46716 | 8.82559 | 98° | 31km/h | 21014m | 5.4m/s | -53.6°C | 1.0% | 49.4hPa | 2.5V | 00:00:00 | 00:00:00 | 00:00:00 | |
| HSKMA3-T | 2026-09-04 23:59:23 | 51.46717 | 8.82546 | 96° | 31km/h | 21009m | 4.2m/s | -53.5°C | 0.5% | 49.5hPa | 2.5V | 18:12:15 | 01:41:27 | 00:00:00 | |
| DO3MHA-12 | 2026-09-04 23:59:23 | 51.46717 | 8.82546 | 96° | 29km/h | 21009m | 4.2m/s | -53.5°C | 4.0% | 49.4hPa | 2.6V | 00:00:00 | 01:41:27 | 00:00:00 | |
| HARRO8 | 2026-09-04 23:59:22 | 51.46717 | 8.82524 | 91° | 24km/h | 20999m | 5.2m/s | -53.5°C | 1.0% | 49.5hPa | 2.6V | 00:00:00 | 00:00:00 | 00:00:00 | |
| DJTTGO | 2026-09-04 23:59:21 | 51.46717 | 8.82524 | 92° | 26km/h | 20999m | 5.2m/s | -53.4°C | 1.0% | 49.5hPa | 2.6V | 00:00:00 | 00:00:00 | 00:00:00 | |
| DL3AQ-11 | 2026-09-04 23:59:18 | 51.46722 | 8.82482 | 110° | 31km/h | 20980m | 4.3m/s | -53.3°C | 1.0% | 49.7hPa | 2.6V | 00:00:00 | 00:00:00 | 00:00:00 | |
| DB0UT-7 | 2026-09-04 23:59:17 | 51.46722 | 8.82482 | 111° | 31km/h | 20980m | 4.2m/s | -53.2°C | 3.9% | 49.7hPa | 2.6V | 00:00:00 | 00:00:00 | 00:00:00 | |
| DD1CC1-15 | 2026-09-04 23:59:16 | 51.46722 | 8.82482 | 111° | 31km/h | 20980m | 4.3m/s | -53.3°C | 1.0% | 49.7hPa | 2.5V | 00:00:00 | 00:00:00 | 00:00:00 | |
| DL4BBY-15 | 2026-09-04 23:59:15 | 51.46728 | 8.82458 | 115° | 29km/h | 20970m | 5.4m/s | -53.3°C | 0% | 0hPa | 2.5V | 00:00:00 | 00:00:00 | 00:00:00 | |
| BIOWL9-15 | 2026-09-04 23:59:13 | 51.46736 | 8.82424 | 105° | 29km/h | 20955m | 6.0m/s | -53.1°C | 1.0% | 49.9hPa | 2.5V | 00:00:00 | 00:00:00 | 00:00:00 | |
| BIOWL1-15 | 2026-09-04 23:59:12 | 51.46740 | 8.82401 | 104° | 29km/h | 20945m | 5.1m/s | -53.1°C | 0.4% | 50hPa | 2.5V | 18:12:15 | 01:41:14 | 00:00:00 | |
| HSKMA3-T | 2026-09-04 23:59:12 | 51.46736 | 8.82424 | 106° | 31km/h | 20955m | 6m/s | -53.1°C | 0.4% | 49.9hPa | 2.6V | 18:12:15 | 01:41:16 | 00:00:00 | |
| DK9SH | 2026-09-04 23:59:10 | 51.46738 | 8.82412 | 104° | 31km/h | 20950m | 4.5m/s | -53.1°C | 1.0% | 49.9hPa | 2.5V | 00:00:00 | 00:00:00 | 00:00:00 | |
| AU51GT2 | 2026-09-04 23:59:09 | 51.46742 | 8.82390 | 106° | 26km/h | 20939m | 5.8m/s | -53.1°C | 1.0% | 50.0hPa | 2.5V | 00:00:00 | 00:00:00 | 00:00:00 | |
| DJ8HS-15 | 2026-09-04 23:59:07 | 51.46746 | 8.82372 | 115° | 29km/h | 20930m | 3.8m/s | -53.0°C | 3.8% | 50.1hPa | 2.5V | 00:00:00 | 01:41:11 | 00:00:00 | |
| DO3MHA-11 | 2026-09-04 23:59:05 | 51.46751 | 8.82353 | 116° | 31km/h | 20920m | 5.1m/s | -52.9°C | 3.8% | 50.1hPa | 2.5V | 00:00:00 | 01:41:09 | 00:00:00 | |
| DO3MHA-12 | 2026-09-04 23:59:03 | 51.46758 | 8.82332 | 122° | 31km/h | 20910m | 5.6m/s | -52.9°C | 3.8% | 50.2hPa | 2.6V | 00:00:00 | 01:41:07 | 00:00:00 | |
| DC6BW-12 | 2026-09-04 23:59:02 | 51.46758 | 8.82332 | 122° | 29km/h | 20910m | 5.6m/s | -52.9°C | 1.0% | 50.2hPa | 2.6V | 00:00:00 | 00:00:00 | 00:00:00 | |
| HSKMA3-T | 2026-09-04 23:59:01 | 51.46767 | 8.82313 | 124° | 31km/h | 20900m | 4.7m/s | -52.9°C | 0.3% | 50.3hPa | 2.6V | 18:12:15 | 01:41:05 | 00:00:00 | |
| DL1XH-west | 2026-09-04 23:59:00 | 51.46771 | 8.82302 | 123° | 33km/h | 20895m | 5.8m/s | 0°C | 0% | 0hPa | 2.6V | 18:12:15 | 01:41:04 | 00:00:00 | |
| BIOWL1-15 | 2026-09-04 23:59:00 | 51.46790 | 8.82255 | 125° | 31km/h | 20875m | 5.1m/s | -52.9°C | 0.3% | 50.5hPa | 2.5V | 18:12:15 | 01:41:00 | 00:00:00 | |
| HSKMA3-T | 2026-09-04 23:58:50 | 51.46808 | 8.82197 | 111° | 24km/h | 20846m | 5m/s | -53.1°C | 0.4% | 50.7hPa | 2.5V | 18:12:15 | 01:40:54 | 00:00:00 | |
| BIOWL1-15 | 2026-09-04 23:58:46 | 51.46816 | 8.82155 | 105° | 33km/h | 20826m | 4.1m/s | -53.1°C | 0.5% | 50.9hPa | 2.5V | 18:12:15 | 01:40:50 | 00:00:00 | |
| DL1ZP-14 | 2026-09-04 23:58:44 | 51.46821 | 8.82130 | 113° | 33km/h | 20817m | 5.0m/s | -53.1°C | 1.0% | 51.0hPa | 2.6V | 00:00:00 | 00:00:00 | 00:00:00 | |
| HSKMA3-T | 2026-09-04 23:58:40 | 51.46837 | 8.82077 | 115° | 37km/h | 20797m | 3.9m/s | -53°C | 0.4% | 51.1hPa | 2.5V | 18:12:15 | 01:40:44 | 00:00:00 | |
| BIOWL1-15 | 2026-09-04 23:58:35 | 51.46855 | 8.81991 | 96° | 33km/h | 20764m | 5.6m/s | -52.9°C | 0.4% | 51.4hPa | 2.6V | 18:12:15 | 01:40:37 | 00:00:00 | |
| HSKMA3-T | 2026-09-04 23:58:29 | 51.46861 | 8.81931 | 100° | 42km/h | 20744m | 4.4m/s | -52.8°C | 0.3% | 51.6hPa | 2.5V | 18:12:15 | 01:40:33 | 00:00:00 | |
| BIOWL1-15 | 2026-09-04 23:58:23 | 51.46876 | 8.81853 | 102° | 26km/h | 20716m | 4.8m/s | -52.8°C | 0.4% | 51.8hPa | 2.5V | 18:12:15 | 01:40:27 | 00:00:00 | |
| HSKMA3-T | 2026-09-04 23:58:18 | 51.46878 | 8.81801 | 91° | 31km/h | 20693m | 4.6m/s | -52.9°C | 0.3% | 52hPa | 2.5V | 18:12:15 | 01:40:22 | 00:00:00 | |
| BIOWL1-15 | 2026-09-04 23:58:12 | 51.46882 | 8.81715 | 103° | 29km/h | 20666m | 3.8m/s | -53.2°C | 0.4% | 52.2hPa | 2.5V | 18:12:15 | 01:40:16 | 00:00:00 | |
| HSKMA3-T | 2026-09-04 23:58:08 | 51.46887 | 8.81669 | 93° | 27km/h | 20647m | 4.4m/s | -53.1°C | 0.4% | 52.4hPa | 2.5V | 18:12:15 | 01:40:12 | 00:00:00 | |
| BIOWL1-15 | 2026-09-04 23:58:01 | 51.46888 | 8.81592 | 92° | 29km/h | 20614m | 5.2m/s | -53.1°C | 0.4% | 52.6hPa | 2.5V | 18:12:15 | 01:40:05 | 00:00:00 | |
| DL1NUX | 2026-09-04 23:58:00 | 51.46896 | 8.81531 | 107° | 24km/h | 20585m | 5.6m/s | -53.2°C | 3.9% | 52.9hPa | 2.5V | 08:30:00 | 01:39:59 | 00:00:00 | |
| HSKMA3-T | 2026-09-04 23:57:57 | 51.46892 | 8.81551 | 108° | 27km/h | 20594m | 5m/s | -53.2°C | 0.5% | 52.8hPa | 2.5V | 18:12:15 | 01:40:01 | 00:00:00 | |
| HSKMA3-T | 2026-09-04 23:57:47 | 51.46902 | 8.81449 | 95° | 27km/h | 20546m | 4.5m/s | -53.1°C | 0.4% | 53.1hPa | 2.6V | 18:12:15 | 01:39:51 | 00:00:00 | |
| DJ8HS-15 | 2026-09-04 23:57:47 | 51.46901 | 8.81449 | 95° | 35km/h | 20547m | 4.5m/s | -53.0°C | 3.8% | 53.1hPa | 2.6V | 00:00:00 | 01:39:51 | 08:30:00 | |
| DL4BBY-15 | 2026-09-04 23:57:45 | 51.46904 | 8.81426 | 106° | 38km/h | 20537m | 5.8m/s | -53.2°C | 0% | 0hPa | 2.6V | 00:00:00 | 00:00:00 | 00:00:00 | |
| DO3MHA-11 | 2026-09-04 23:57:44 | 51.46907 | 8.81413 | 110° | 33km/h | 20531m | 4.6m/s | -53.0°C | 3.8% | 53.3hPa | 2.6V | 00:00:00 | 01:39:48 | 00:00:00 | |
| DL1NUX | 2026-09-04 23:57:43 | 51.46913 | 8.81389 | 113° | 31km/h | 20521m | 5.8m/s | -53°C | 3.8% | 53.4hPa | 2.6V | 08:30:00 | 01:39:46 | 00:00:00 | |
| BIOWL1-15 | 2026-09-04 23:57:40 | 51.46919 | 8.81367 | 113° | 29km/h | 20512m | 4.4m/s | -53°C | 0.3% | 53.5hPa | 2.5V | 18:12:15 | 01:39:44 | 00:00:00 | |
| HSKMA3-T | 2026-09-04 23:57:31 | 51.46934 | 8.81238 | 93° | 42km/h | 20465m | 4.2m/s | -53.1°C | 0.3% | 53.9hPa | 2.5V | 18:12:15 | 01:39:35 | 00:00:00 | |
| BIOWL1-15 | 2026-09-04 23:57:30 | 51.46934 | 8.81222 | 95° | 40km/h | 20460m | 5.4m/s | -53.1°C | 0.4% | 53.9hPa | 2.5V | 18:12:15 | 01:39:34 | 00:00:00 | |
| HSKMA3-T | 2026-09-04 23:57:20 | 51.46952 | 8.81058 | 93° | 47km/h | 20411m | 5.5m/s | -53.3°C | 0.4% | 54.3hPa | 2.5V | 18:12:15 | 01:39:24 | 00:00:00 | |
| BIOWL1-15 | 2026-09-04 23:57:19 | 51.46953 | 8.81038 | 95° | 49km/h | 20406m | 5.1m/s | -53.3°C | 0.4% | 54.4hPa | 2.5V | 18:12:15 | 01:39:23 | 00:00:00 | |
| HSKMA3-T | 2026-09-04 23:57:10 | 51.46952 | 8.80867 | 86° | 46km/h | 20361m | 4.4m/s | -53°C | 0.4% | 54.7hPa | 2.6V | 18:12:15 | 01:39:14 | 00:00:00 | |
| BIOWL1-15 | 2026-09-04 23:57:09 | 51.46951 | 8.80849 | 86° | 42km/h | 20356m | 5.5m/s | -53°C | 0.4% | 54.8hPa | 2.6V | 18:12:15 | 01:39:13 | 00:00:00 | |
| HSKMA3-T | 2026-09-04 23:56:59 | 51.46950 | 8.80688 | 82° | 44km/h | 20305m | 4.8m/s | -52.9°C | 0.4% | 55.2hPa | 2.6V | 18:12:15 | 01:39:03 | 00:00:00 | |
| BIOWL1-15 | 2026-09-04 23:56:58 | 51.46948 | 8.80670 | 80° | 44km/h | 20301m | 4.7m/s | -52.9°C | 0.4% | 55.3hPa | 2.5V | 18:12:15 | 01:39:02 | 00:00:00 | |
| SONCRA | 2026-09-04 23:56:58 | 51.46946 | 8.80653 | 79° | 40km/h | 20295m | 5.9m/s | -52.9°C | 1.0% | 55.3hPa | 2.6V | 00:00:00 | 00:00:00 | 00:00:00 | |
| EDDB2-11 | 2026-09-04 23:56:52 | 51.46942 | 8.80582 | 88° | 33km/h | 20271m | 4.4m/s | -52.8°C | 1.0% | 55.5hPa | 2.6V | 00:00:00 | 00:00:00 | 00:00:00 | |
| DL1NUX | 2026-09-04 23:56:49 | 51.46929 | 8.80469 | 76° | 40km/h | 20233m | 5.4m/s | -52.4°C | 3.8% | 55.8hPa | 2.6V | 08:30:00 | 01:38:48 | 00:00:00 | |
| HSKMA3-T | 2026-09-04 23:56:48 | 51.46937 | 8.80532 | 77° | 35km/h | 20252m | 5.1m/s | -52.6°C | 0.4% | 55.7hPa | 2.5V | 18:12:15 | 01:38:52 | 00:00:00 | |
| BIOWL1-15 | 2026-09-04 23:56:47 | 51.46935 | 8.80518 | 79° | 38km/h | 20247m | 5m/s | -52.6°C | 0.4% | 55.7hPa | 2.5V | 18:12:15 | 01:38:51 | 00:00:00 | |
| HARRO8 | 2026-09-04 23:56:46 | 51.46931 | 8.80485 | 78° | 40km/h | 20238m | 4.2m/s | -52.5°C | 1.0% | 55.8hPa | 2.6V | 00:00:00 | 00:00:00 | 00:00:00 | |
| HSKMA3-T | 2026-09-04 23:56:38 | 51.46917 | 8.80387 | 79° | 31km/h | 20203m | 6m/s | -52.2°C | 0.3% | 56.1hPa | 2.6V | 18:12:15 | 01:38:42 | 00:00:00 | |
| BIOWL1-15 | 2026-09-04 23:56:36 | 51.46900 | 8.80238 | 77° | 37km/h | 20149m | 5.5m/s | -52.3°C | 0.3% | 56.6hPa | 2.6V | 18:12:15 | 01:38:31 | 00:00:00 | |
| BIOWL1-15 | 2026-09-04 23:56:31 | 51.46897 | 8.80211 | 80° | 31km/h | 20139m | 4.4m/s | -52.3°C | 0.3% | 56.7hPa | 2.5V | 18:12:15 | 01:38:29 | 00:00:00 | |
| DL1NUX | 2026-09-04 23:56:29 | 51.46895 | 8.80198 | 82° | 33km/h | 20134m | 5.6m/s | -52.3°C | 3.7% | 56.7hPa | 2.5V | 08:30:00 | 01:38:28 | 00:00:00 | |
| HSKMA3-T | 2026-09-04 23:56:26 | 51.46898 | 8.80224 | 77° | 33km/h | 20144m | 5.1m/s | -52.3°C | 0.4% | 56.6hPa | 2.6V | 18:12:15 | 01:38:30 | 00:00:00 | |
| DO3MHA-11 | 2026-09-04 23:56:24 | 51.46895 | 8.80198 | 83° | 29km/h | 20134m | 5.6m/s | -52.3°C | 3.7% | 56.7hPa | 2.5V | 00:00:00 | 01:38:28 | 00:00:00 | |
| DO3MHA-12 | 2026-09-04 23:56:23 | 51.46894 | 8.80185 | 84° | 29km/h | 20129m | 4.4m/s | -52.3°C | 3.7% | 56.7hPa | 2.5V | 00:00:00 | 01:38:27 | 00:00:00 | |
| DL3OBA | 2026-09-04 23:56:22 | 51.46894 | 8.80185 | 85° | 33km/h | 20129m | 4.4m/s | -52.3°C | 1.0% | 56.8hPa | 2.5V | 00:00:00 | 00:00:00 | 00:00:00 | |
| EDDB2-11 | 2026-09-04 23:56:21 | 51.46892 | 8.80160 | 80° | 29km/h | 20120m | 4.7m/s | -52.3°C | 1.0% | 56.8hPa | 2.5V | 00:00:00 | 00:00:00 | 00:00:00 | |
| DL1NUX | 2026-09-04 23:56:19 | 51.46886 | 8.80081 | 91° | 27km/h | 20085m | 5.7m/s | -52.2°C | 3.5% | 57.2hPa | 2.5V | 08:30:00 | 01:38:18 | 00:00:00 | |
| DL1XH-west | 2026-09-04 23:56:18 | 51.46888 | 8.80127 | 80° | 27km/h | 20106m | 5m/s | 0°C | 0% | 0hPa | 2.5V | 18:12:15 | 01:38:22 | 00:00:00 | |
| HSKMA3-T | 2026-09-04 23:56:16 | 51.46887 | 8.80104 | 87° | 29km/h | 20095m | 4.5m/s | -52.2°C | 0.2% | 57hPa | 2.6V | 18:12:15 | 01:38:20 | 00:00:00 | |
| BIOWL1-15 | 2026-09-04 23:56:15 | 51.46886 | 8.80092 | 90° | 29km/h | 20091m | 5.1m/s | -52.2°C | 0.2% | 57.1hPa | 2.5V | 18:12:15 | 01:38:19 | 00:00:00 | |
| HARRO8 | 2026-09-04 23:56:15 | 51.46886 | 8.80081 | 91° | 27km/h | 20085m | 5.7m/s | -52.2°C | 0.9% | 57.2hPa | 2.5V | 00:00:00 | 00:00:00 | 00:00:00 | |
| DO3MHA-11 | 2026-09-04 23:56:14 | 51.46886 | 8.80081 | 92° | 24km/h | 20085m | 5.6m/s | -52.1°C | 3.5% | 57.1hPa | 2.5V | 00:00:00 | 01:38:18 | 00:00:00 | |
| DO3MHA-12 | 2026-09-04 23:56:13 | 51.46886 | 8.80070 | 92° | 24km/h | 20080m | 4.4m/s | -52.1°C | 3.5% | 57.2hPa | 2.5V | 00:00:00 | 01:38:17 | 00:00:00 | |
| DL1XH1-15 | 2026-09-04 23:56:12 | 51.46885 | 8.80003 | 87° | 24km/h | 20051m | 4.7m/s | 0°C | 0% | 0hPa | 2.7V | 00:00:00 | 01:38:11 | 00:00:00 | |
| DB0UT-7 | 2026-09-04 23:56:11 | 51.46886 | 8.80047 | 88° | 22km/h | 20071m | 5.4m/s | -52.1°C | 3.6% | 57.2hPa | 2.6V | 00:00:00 | 00:00:00 | 00:00:00 | |
| DL1NUX | 2026-09-04 23:56:09 | 51.46884 | 8.79976 | 87° | 24km/h | 20037m | 4.7m/s | -52.4°C | 3.7% | 57.6hPa | 2.5V | 08:30:00 | 01:38:08 | 00:00:00 | |
| DL1XH-west | 2026-09-04 23:56:07 | 51.46885 | 8.80003 | 87° | 24km/h | 20051m | 4.7m/s | 0°C | 0% | 0hPa | 2.7V | 18:12:15 | 01:38:11 | 00:00:00 | |
| HSKMA3-T | 2026-09-04 23:56:06 | 51.46885 | 8.79994 | 87° | 22km/h | 20047m | 4.1m/s | -52.4°C | 0.3% | 57.5hPa | 2.6V | 18:12:15 | 01:38:10 | 00:00:00 | |
| BIOWL1-15 | 2026-09-04 23:56:06 | 51.46884 | 8.79976 | 87° | 24km/h | 20037m | 4.7m/s | -52.4°C | 0.3% | 57.6hPa | 2.5V | 18:12:15 | 01:38:08 | 00:00:00 | |
| DO3MHA-11 | 2026-09-04 23:56:04 | 51.46884 | 8.79976 | 88° | 22km/h | 20038m | 4.7m/s | -52.4°C | 3.7% | 57.5hPa | 2.5V | 00:00:00 | 01:38:08 | 00:00:00 | |
| AU51GT2 | 2026-09-04 23:56:03 | 51.46884 | 8.79966 | 88° | 24km/h | 20033m | 4.0m/s | -52.4°C | 1.0% | 57.6hPa | 2.6V | 00:00:00 | 00:00:00 | 00:00:00 | |
| DL3OBA | 2026-09-04 23:56:02 | 51.46884 | 8.79966 | 89° | 24km/h | 20033m | 4.0m/s | -52.4°C | 1.0% | 57.6hPa | 2.6V | 00:00:00 | 00:00:00 | 00:00:00 | |
| DO3MHA-12 | 2026-09-04 23:56:01 | 51.46884 | 8.79948 | 90° | 22km/h | 20024m | 5.3m/s | -52.5°C | 3.7% | 57.6hPa | 2.6V | 00:00:00 | 01:38:05 | 00:00:00 | |
| DL1NUX | 2026-09-04 23:55:59 | 51.46873 | 8.79890 | 61° | 20km/h | 19989m | 4.8m/s | -52.7°C | 3.7% | 58hPa | 2.6V | 08:30:00 | 01:37:58 | 00:00:00 | |
| DL1XH-west | 2026-09-04 23:55:57 | 51.46880 | 8.79914 | 70° | 24km/h | 20004m | 4.1m/s | 0°C | 0% | 0hPa | 2.5V | 18:12:15 | 01:38:01 | 00:00:00 | |
| HSKMA3-T | 2026-09-04 23:55:55 | 51.46876 | 8.79898 | 63° | 22km/h | 19994m | 5m/s | -52.7°C | 0.4% | 58hPa | 2.6V | 18:12:15 | 01:37:59 | 00:00:00 | |
| BIOWL1-15 | 2026-09-04 23:55:54 | 51.46873 | 8.79890 | 61° | 20km/h | 19989m | 4.8m/s | -52.7°C | 0.3% | 58hPa | 2.6V | 18:12:15 | 01:37:58 | 00:00:00 | |
| EDDB2-11 | 2026-09-04 23:55:50 | 51.46865 | 8.79861 | 74° | 15km/h | 19971m | 5.4m/s | -52.5°C | 1.0% | 58.2hPa | 2.7V | 00:00:00 | 00:00:00 | 00:00:00 | |
| DL1NUX | 2026-09-04 23:55:49 | 51.46870 | 8.79820 | 110° | 20km/h | 19942m | 5.1m/s | -52.4°C | 3.6% | 58.4hPa | 2.7V | 08:30:00 | 01:37:48 | 00:00:00 | |
| HSKMA3-T | 2026-09-04 23:55:44 | 51.46870 | 8.79820 | 111° | 20km/h | 19942m | 5.1m/s | -52.4°C | 0.3% | 58.4hPa | 2.7V | 18:12:15 | 01:37:48 | 00:00:00 | |
| BIOWL1-15 | 2026-09-04 23:55:43 | 51.46871 | 8.79813 | 112° | 18km/h | 19938m | 4.5m/s | -52.4°C | 0.3% | 58.5hPa | 2.6V | 18:12:15 | 01:37:47 | 00:00:00 | |
| DL3OBA | 2026-09-04 23:55:42 | 51.46873 | 8.79805 | 108° | 20km/h | 19934m | 4.2m/s | -52.5°C | 1.0% | 58.5hPa | 2.5V | 00:00:00 | 00:00:00 | 00:00:00 | |
| DB0UT-7 | 2026-09-04 23:55:41 | 51.46874 | 8.79798 | 104° | 31km/h | 19929m | 5.4m/s | -52.4°C | 3.6% | 58.5hPa | 2.5V | 00:00:00 | 01:37:45 | 00:00:00 | |
| DO3MHA-12 | 2026-09-04 23:55:40 | 51.46875 | 8.79789 | 98° | 18km/h | 19924m | 4.2m/s | -52.4°C | 3.6% | 58.6hPa | 2.5V | 00:00:00 | 01:37:44 | 00:00:00 | |
| DL1NUX | 2026-09-04 23:55:39 | 51.46880 | 8.79748 | 100° | 18km/h | 19896m | 4.3m/s | -52.4°C | 3.7% | 58.9hPa | 2.7V | 08:30:00 | 01:37:38 | 00:00:00 | |
| DL1XH-west | 2026-09-04 23:55:37 | 51.46877 | 8.79768 | 103° | 16km/h | 19910m | 4.2m/s | 0°C | 0% | 0hPa | 2.5V | 18:12:15 | 01:37:41 | 00:00:00 | |
| BIOWL1-15 | 2026-09-04 23:55:33 | 51.46881 | 8.79740 | 105° | 20km/h | 19891m | 4.3m/s | -52.4°C | 0.3% | 58.9hPa | 2.6V | 18:12:15 | 01:37:37 | 00:00:00 | |
| AU51GT2 | 2026-09-04 23:55:32 | 51.46882 | 8.79733 | 111° | 18km/h | 19887m | 5.3m/s | -52.3°C | 1.0% | 58.9hPa | 2.6V | 00:00:00 | 00:00:00 | 00:00:00 | |
| DO3MHA-12 | 2026-09-04 23:55:30 | 51.46886 | 8.79716 | 112° | 29km/h | 19878m | 4.4m/s | -52.3°C | 3.6% | 59.0hPa | 2.6V | 00:00:00 | 01:37:34 | 00:00:00 | |
| DL1NUX | 2026-09-04 23:55:29 | 51.46901 | 8.79649 | 111° | 29km/h | 19848m | 4.6m/s | -52.5°C | 3.6% | 59.3hPa | 2.6V | 08:30:00 | 01:37:28 | 00:00:00 | |
| HSKMA3-T | 2026-09-04 23:55:22 | 51.46906 | 8.79626 | 109° | 31km/h | 19839m | 4.3m/s | -52.6°C | 0.2% | 59.4hPa | 2.5V | 18:12:15 | 01:37:26 | 00:00:00 | |
| DO3MHA-12 | 2026-09-04 23:55:20 | 51.46911 | 8.79603 | 114° | 33km/h | 19830m | 5.3m/s | -52.6°C | 3.6% | 59.4hPa | 2.7V | 00:00:00 | 01:37:24 | 00:00:00 | |
| DL1NUX | 2026-09-04 23:55:19 | 51.46926 | 8.79532 | 102° | 40km/h | 19803m | 4m/s | -52.6°C | 3.6% | 59.7hPa | 2.7V | 08:30:00 | 01:37:18 | 00:00:00 | |
| SO1NDE-10 | 2026-09-04 23:55:19 | 51.46917 | 8.79584 | 115° | 40km/h | 19821m | 3.1m/s | -52.5°C | 3.6% | 59.5hPa | 2.6V | 00:00:00 | 01:37:22 | 08:30:00 | |
| BIOWL1-15 | 2026-09-04 23:55:16 | 51.46973 | 8.79318 | 107° | 40km/h | 19738m | 5.1m/s | -53.5°C | 0.4% | 60.3hPa | 2.5V | 18:12:15 | 01:37:04 | 00:00:00 | |
| HSKMA3-T | 2026-09-04 23:55:11 | 51.46934 | 8.79486 | 112° | 38km/h | 19789m | 4.7m/s | -52.8°C | 0.3% | 59.8hPa | 2.5V | 18:12:15 | 01:37:15 | 00:00:00 | |
| HSKMA3-T | 2026-09-04 23:55:01 | 51.46971 | 8.79333 | 104° | 40km/h | 19743m | 4.4m/s | -53.4°C | 0.4% | 60.3hPa | 2.5V | 18:12:15 | 01:37:05 | 00:00:00 | |
| DO3MHA-12 | 2026-09-04 23:55:00 | 51.46973 | 8.79318 | 108° | 42km/h | 19738m | 5.0m/s | -53.4°C | 3.8% | 60.3hPa | 2.5V | 00:00:00 | 01:37:04 | 00:00:00 | |
| DL1NUX | 2026-09-04 23:54:59 | 51.46998 | 8.79224 | 114° | 42km/h | 19711m | 4.6m/s | -53.4°C | 3.8% | 60.6hPa | 2.5V | 08:30:00 | 01:36:58 | 00:00:00 | |
| HSKMA3-T | 2026-09-04 23:54:50 | 51.47017 | 8.79164 | 112° | 44km/h | 19695m | 5.2m/s | -53.4°C | 0.3% | 60.7hPa | 2.6V | 18:12:15 | 01:36:54 | 00:00:00 | |
| BIOWL1-15 | 2026-09-04 23:54:48 | 51.47025 | 8.79127 | 107° | 51km/h | 19685m | 4.1m/s | -53.5°C | 0.4% | 60.8hPa | 2.5V | 18:12:15 | 01:36:52 | 00:00:00 | |
| WPPR-10 | 2026-09-04 23:54:45 | 51.47037 | 8.79066 | 108° | 53km/h | 19672m | 3.9m/s | -53.6°C | 1.0% | 61.0hPa | 2.7V | 00:00:00 | 00:00:00 | 00:00:00 | |
| DO3MHA-11 | 2026-09-04 23:54:44 | 51.47041 | 8.79045 | 107° | 49km/h | 19668m | 4.8m/s | -53.6°C | 3.8% | 60.9hPa | 2.7V | 00:00:00 | 01:36:48 | 00:00:00 | |
| DO2KSM | 2026-09-04 23:54:43 | 51.47041 | 8.79045 | 107° | 53km/h | 19668m | 4.9m/s | -53.7°C | 1.0% | 61.0hPa | 2.7V | 00:00:00 | 00:00:00 | 00:00:00 | |
| DB0UT-7 | 2026-09-04 23:54:41 | 51.47051 | 8.78985 | 107° | 57km/h | 19654m | 5.1m/s | -53.7°C | 3.8% | 61.1hPa | 2.7V | 00:00:00 | 01:36:45 | 00:00:00 | |
| DO3MHA-12 | 2026-09-04 23:54:40 | 51.47055 | 8.78967 | 111° | 53km/h | 19649m | 4.7m/s | -53.8°C | 3.8% | 61.1hPa | 2.6V | 00:00:00 | 01:36:44 | 00:00:00 | |
| DL1NUX | 2026-09-04 23:54:39 | 51.47076 | 8.78851 | 103° | 57km/h | 19621m | 4.6m/s | -54°C | 3.9% | 61.4hPa | 2.5V | 08:30:00 | 01:36:38 | 00:00:00 | |
| BIOWL1-15 | 2026-09-04 23:54:39 | 51.47067 | 8.78913 | 105° | 47km/h | 19635m | 4.9m/s | -54°C | 0.3% | 61.3hPa | 2.5V | 18:12:15 | 01:36:41 | 00:00:00 | |
| HSKMA3-T | 2026-09-04 23:54:39 | 51.47059 | 8.78949 | 111° | 47km/h | 19644m | 3.9m/s | -53.9°C | 0.4% | 61.2hPa | 2.5V | 18:12:15 | 01:36:43 | 00:00:00 | |
| DL3AQ-11 | 2026-09-04 23:54:38 | 51.47067 | 8.78913 | 104° | 47km/h | 19635m | 4.9m/s | -54.0°C | 1.0% | 61.3hPa | 2.6V | 00:00:00 | 00:00:00 | 00:00:00 | |
| DL1ZP-14 | 2026-09-04 23:54:36 | 51.47073 | 8.78873 | 103° | 53km/h | 19626m | 4.8m/s | -54.0°C | 1.0% | 61.4hPa | 2.6V | 00:00:00 | 00:00:00 | 00:00:00 | |
| DO3MHA-11 | 2026-09-04 23:54:34 | 51.47076 | 8.78851 | 104° | 57km/h | 19621m | 4.6m/s | -53.9°C | 3.9% | 61.4hPa | 2.5V | 00:00:00 | 01:36:38 | 00:00:00 | |
| DO3DL | 2026-09-04 23:54:33 | 51.47079 | 8.78829 | 104° | 60km/h | 19617m | 3.9m/s | -53.9°C | 1.0% | 61.5hPa | 2.5V | 00:00:00 | 00:00:00 | 00:00:00 | |
| DO3MHA-12 | 2026-09-04 23:54:30 | 51.47086 | 8.78755 | 95° | 57km/h | 19603m | 4.0m/s | -53.9°C | 3.9% | 61.6hPa | 2.5V | 00:00:00 | 01:36:34 | 00:00:00 | |
| DL1NUX | 2026-09-04 23:54:29 | 51.47093 | 8.78622 | 96° | 49km/h | 19576m | 3.9m/s | -54.5°C | 4% | 61.9hPa | 2.5V | 08:30:00 | 01:36:28 | 00:00:00 | |
| HSKMA3-T | 2026-09-04 23:54:28 | 51.47089 | 8.78707 | 95° | 57km/h | 19594m | 4.6m/s | -53.9°C | 0.4% | 61.7hPa | 2.5V | 18:12:15 | 01:36:32 | 00:00:00 | |
| BIOWL1-15 | 2026-09-04 23:54:26 | 51.47092 | 8.78643 | 94° | 51km/h | 19580m | 4.6m/s | -54.3°C | 0.4% | 61.8hPa | 2.6V | 18:12:15 | 01:36:29 | 00:00:00 | |
| DO9LL-15 | 2026-09-04 23:54:25 | 51.47092 | 8.78642 | 94° | 57km/h | 19580m | 4.6m/s | -54.2°C | 3.9% | 61.8hPa | 2.5V | 00:00:00 | 01:36:29 | 00:00:00 | |
| DO3MHA-11 | 2026-09-04 23:54:24 | 51.47093 | 8.78622 | 97° | 60km/h | 19576m | 3.9m/s | -54.4°C | 4.0% | 61.8hPa | 2.5V | 00:00:00 | 01:36:28 | 00:00:00 | |
| DO2KSM | 2026-09-04 23:54:23 | 51.47093 | 8.78622 | 97° | 49km/h | 19576m | 3.9m/s | -54.5°C | 1.1% | 61.9hPa | 2.5V | 00:00:00 | 00:00:00 | 00:00:00 | |
| SONCRA | 2026-09-04 23:54:22 | 51.47097 | 8.78582 | 100° | 53km/h | 19567m | 3.2m/s | -54.7°C | 1.1% | 62.0hPa | 2.5V | 00:00:00 | 00:00:00 | 00:00:00 | |
| DL3AQ-11 | 2026-09-04 23:54:21 | 51.47099 | 8.78560 | 98° | 55km/h | 19564m | 3.7m/s | -54.7°C | 1.1% | 62.0hPa | 2.5V | 00:00:00 | 00:00:00 | 00:00:00 | |
| DO3MHA-12 | 2026-09-04 23:54:20 | 51.47101 | 8.78536 | 96° | 58km/h | 19560m | 5.1m/s | -54.7°C | 4.1% | 62.0hPa | 2.5V | 00:00:00 | 01:36:24 | 00:00:00 | |
| DL1NUX | 2026-09-04 23:54:19 | 51.47104 | 8.78376 | 90° | 64km/h | 19532m | 5.3m/s | -54.6°C | 4.1% | 62.3hPa | 2.5V | 08:30:00 | 01:36:18 | 00:00:00 | |
| HSKMA3-T | 2026-09-04 23:54:17 | 51.47102 | 8.78457 | 91° | 69km/h | 19546m | 4.8m/s | -54.7°C | 0.5% | 62.2hPa | 2.5V | 18:12:15 | 01:36:21 | 00:00:00 | |
| BIOWL1-15 | 2026-09-04 23:54:16 | 51.47103 | 8.78430 | 92° | 68km/h | 19541m | 4.5m/s | -54.6°C | 0.5% | 62.2hPa | 2.7V | 18:12:15 | 01:36:20 | 00:00:00 | |
| HSKMA3-T | 2026-09-04 23:54:07 | 51.47103 | 8.78222 | 89° | 53km/h | 19500m | 4.1m/s | -54.4°C | 0.5% | 62.6hPa | 2.5V | 18:12:15 | 01:36:11 | 00:00:00 | |
| BIOWL1-15 | 2026-09-04 23:54:06 | 51.47106 | 8.78059 | 92° | 60km/h | 19470m | 3.2m/s | -54.3°C | 0.4% | 62.9hPa | 2.7V | 18:12:15 | 01:36:04 | 00:00:00 | |
| DO3MHA-11 | 2026-09-04 23:54:04 | 51.47103 | 8.78155 | 93° | 55km/h | 19488m | 4.9m/s | -54.2°C | 4.0% | 62.7hPa | 2.5V | 00:00:00 | 01:36:08 | 08:30:00 | |
| DO2KSM | 2026-09-04 23:54:03 | 51.47103 | 8.78155 | 94° | 57km/h | 19488m | 5.0m/s | -54.3°C | 1.1% | 62.7hPa | 2.5V | 00:00:00 | 00:00:00 | 00:00:00 | |
| DB0ND-19 | 2026-09-04 23:54:02 | 51.47105 | 8.78083 | 91° | 60km/h | 19473m | 4.2m/s | -54.3°C | 1.1% | 62.9hPa | 2.5V | 00:00:00 | 00:00:00 | 00:00:00 | |
| DO3DL | 2026-09-04 23:54:00 | 51.47105 | 8.78083 | 92° | 62km/h | 19474m | 4.2m/s | -54.3°C | 1.1% | 62.9hPa | 2.5V | 00:00:00 | 00:00:00 | 00:00:00 | |
| DL1NUX | 2026-09-04 23:53:59 | 51.47112 | 8.77929 | 90° | 49km/h | 19444m | 3.5m/s | -54.4°C | 4% | 63.2hPa | 2.5V | 08:30:00 | 01:35:58 | 00:00:00 | |
| HSKMA3-T | 2026-09-04 23:53:56 | 51.47111 | 8.77969 | 95° | 51km/h | 19452m | 5m/s | 0°C | 0% | 63.1hPa | 2.7V | 18:12:15 | 01:36:00 | 00:00:00 | |
| BIOWL1-15 | 2026-09-04 23:53:54 | 51.47112 | 8.77929 | 90° | 49km/h | 19444m | 3.5m/s | -54.4°C | 0.5% | 63.2hPa | 2.5V | 18:12:15 | 01:35:58 | 00:00:00 | |
| SONDE2-11 | 2026-09-04 23:53:51 | 51.47113 | 8.77845 | 90° | 55km/h | 19427m | 5.0m/s | -54.5°C | 1.1% | 63.4hPa | 2.5V | 00:00:00 | 00:00:00 | 00:00:00 | |
| DL1NUX | 2026-09-04 23:53:49 | 51.47117 | 8.77712 | 94° | 49km/h | 19401m | 4.4m/s | -54.4°C | 4% | 63.6hPa | 2.5V | 08:30:00 | 01:35:48 | 00:00:00 | |
| DO2JMG | 2026-09-04 23:53:48 | 51.47113 | 8.77799 | 90° | 58km/h | 19418m | 3.9m/s | 0°C | 0% | 0hPa | 2.5V | 18:12:15 | 01:35:52 | 00:00:00 | |
| HSKMA3-T | 2026-09-04 23:53:45 | 51.47116 | 8.77732 | 96° | 51km/h | 19405m | 3.3m/s | 0°C | 0% | 0hPa | 2.6V | 18:12:15 | 01:35:49 | 00:00:00 | |
| BIOWL1-15 | 2026-09-04 23:53:43 | 51.47118 | 8.77675 | 91° | 44km/h | 19393m | 3.8m/s | -54.5°C | 0.4% | 63.7hPa | 2.5V | 18:12:15 | 01:35:46 | 00:00:00 | |
| DO2KSM | 2026-09-04 23:53:43 | 51.47118 | 8.77693 | 93° | 46km/h | 19397m | 4.6m/s | -54.5°C | 1.1% | 63.6hPa | 2.5V | 00:00:00 | 00:00:00 | 00:00:00 | |
| DL3AQ-11 | 2026-09-04 23:53:41 | 51.47118 | 8.77658 | 91° | 40km/h | 19389m | 3.7m/s | -54.5°C | 1.1% | 63.7hPa | 2.5V | 00:00:00 | 00:00:00 | 00:00:00 | |
| DO3MHA-11 | 2026-09-04 23:53:40 | 51.47118 | 8.77642 | 93° | 44km/h | 19385m | 5.1m/s | -54.4°C | 3.9% | 63.7hPa | 2.5V | 00:00:00 | 01:35:44 | 00:00:00 | |
| DL1NUX | 2026-09-04 23:53:39 | 51.47122 | 8.77543 | 95° | 44km/h | 19359m | 4.9m/s | -54.5°C | 3.8% | 64hPa | 2.5V | 08:30:00 | 01:35:38 | 00:00:00 | |
| DO2JMG | 2026-09-04 23:53:37 | 51.47120 | 8.77595 | 92° | 40km/h | 19371m | 4.5m/s | 0°C | 0% | 0hPa | 2.5V | 18:12:15 | 01:35:41 | 00:00:00 | |
| HSKMA3-T | 2026-09-04 23:53:34 | 51.47122 | 8.77543 | 95° | 44km/h | 19359m | 4.9m/s | 0°C | 0% | 0hPa | 2.5V | 18:12:15 | 01:35:38 | 00:00:00 | |
| BIOWL1-15 | 2026-09-04 23:53:31 | 51.47128 | 8.77471 | 99° | 47km/h | 19342m | 3.8m/s | -54.8°C | 0.5% | 64.2hPa | 2.7V | 18:12:15 | 01:35:34 | 00:00:00 | |
| DB0ND-19 | 2026-09-04 23:53:31 | 51.47128 | 8.77471 | 98° | 47km/h | 19342m | 3.8m/s | -54.8°C | 1.1% | 64.2hPa | 2.5V | 00:00:00 | 00:00:00 | 00:00:00 | |
| DO3DL | 2026-09-04 23:53:30 | 51.47130 | 8.77452 | 102° | 47km/h | 19338m | 3.8m/s | -54.9°C | 1.1% | 64.3hPa | 2.5V | 00:00:00 | 00:00:00 | 00:00:00 | |
| DL1NUX | 2026-09-04 23:53:29 | 51.47143 | 8.77364 | 99° | 44km/h | 19317m | 3.6m/s | -55.4°C | 4.2% | 64.5hPa | 2.5V | 08:30:00 | 01:35:28 | 00:00:00 | |
| HSKMA3-T | 2026-09-04 23:53:23 | 51.47144 | 8.77347 | 100° | 44km/h | 19313m | 4.3m/s | 0°C | 0% | 0hPa | 2.5V | 18:12:15 | 01:35:27 | 00:00:00 | |
| BIOWL1-15 | 2026-09-04 23:53:19 | 51.47159 | 8.77239 | 103° | 51km/h | 19287m | 4.2m/s | -55.6°C | 0.6% | 64.8hPa | 2.5V | 18:12:15 | 01:35:21 | 00:00:00 | |
| DL1NUX | 2026-09-04 23:53:19 | 51.47168 | 8.77177 | 103° | 57km/h | 19274m | 4.7m/s | -55.6°C | 4.2% | 64.9hPa | 2.5V | 08:30:00 | 01:35:18 | 00:00:00 | |
| HSKMA3-T | 2026-09-04 23:53:13 | 51.47172 | 8.77154 | 102° | 58km/h | 19270m | 4.4m/s | 0°C | 0% | 0hPa | 2.5V | 18:12:15 | 01:35:17 | 00:00:00 | |
| DL1XH-west | 2026-09-04 23:53:10 | 51.47179 | 8.77088 | 97° | 49km/h | 19258m | 4.5m/s | 0°C | 0% | 0hPa | 2.7V | 18:12:15 | 01:35:14 | 00:00:00 | |
| DL1NUX | 2026-09-04 23:53:09 | 51.47177 | 8.76977 | 88° | 44km/h | 19231m | 4.8m/s | -55.4°C | 4.1% | 65.3hPa | 2.5V | 08:30:00 | 01:35:08 | 00:00:00 | |
| BIOWL1-15 | 2026-09-04 23:53:06 | 51.47179 | 8.77013 | 84° | 46km/h | 19240m | 3.3m/s | -55.5°C | 0.6% | 65.2hPa | 2.6V | 18:12:15 | 01:35:10 | 00:00:00 | |
| HSKMA3-T | 2026-09-04 23:53:01 | 51.47179 | 8.76917 | 95° | 55km/h | 19218m | 4.7m/s | 0°C | 0% | 0hPa | 2.7V | 18:12:15 | 01:35:05 | 00:00:00 | |
| BIOWL1-15 | 2026-09-04 23:52:56 | 51.47181 | 8.76808 | 82° | 49km/h | 19198m | 4.7m/s | -55.5°C | 0.6% | 65.7hPa | 2.7V | 18:12:15 | 01:35:00 | 00:00:00 | |
| HSKMA3-T | 2026-09-04 23:52:51 | 51.47165 | 8.76714 | 77° | 47km/h | 19174m | 3.7m/s | -55.7°C | 0% | 65.9hPa | 2.7V | 18:12:15 | 01:34:55 | 00:00:00 | |
| DO2JMG | 2026-09-04 23:52:46 | 51.47153 | 8.76614 | 82° | 53km/h | 19150m | 4.4m/s | 0°C | 0% | 0hPa | 2.7V | 18:12:15 | 01:34:50 | 00:00:00 | |
| BIOWL1-15 | 2026-09-04 23:52:45 | 51.47151 | 8.76593 | 80° | 55km/h | 19146m | 3.1m/s | -55.8°C | 0.6% | 66.2hPa | 2.6V | 18:12:15 | 01:34:49 | 00:00:00 | |
| HSKMA3-T | 2026-09-04 23:52:39 | 51.47126 | 8.76470 | 66° | 51km/h | 19119m | 5m/s | -56°C | 0% | 66.5hPa | 2.5V | 18:12:15 | 01:34:43 | 00:00:00 | |
| DL1XH-west | 2026-09-04 23:52:38 | 51.47120 | 8.76450 | 65° | 53km/h | 19114m | 4.6m/s | 0°C | 0% | 0hPa | 2.5V | 18:12:15 | 01:34:42 | 00:00:00 | |
| BIOWL1-15 | 2026-09-04 23:52:34 | 51.47069 | 8.76208 | 72° | 49km/h | 19061m | 4m/s | -56.3°C | 0.7% | 67.1hPa | 2.7V | 18:12:15 | 01:34:30 | 00:00:00 | |
| DO2JMG | 2026-09-04 23:52:33 | 51.47097 | 8.76349 | 72° | 55km/h | 19091m | 4.8m/s | 0°C | 0% | 0hPa | 2.5V | 18:12:15 | 01:34:37 | 00:00:00 | |
| DD1CC3-15 | 2026-09-04 23:52:32 | 51.47097 | 8.76349 | 73° | 55km/h | 19092m | 4.8m/s | -56.3°C | 1.3% | 66.8hPa | 2.7V | 00:00:00 | 00:00:00 | 00:00:00 | |
| DL1ZP-14 | 2026-09-04 23:52:31 | 51.47088 | 8.76307 | 72° | 51km/h | 19083m | 5.1m/s | -56.3°C | 1.2% | 66.9hPa | 2.7V | 00:00:00 | 00:00:00 | 00:00:00 | |
| DC6BW-12 | 2026-09-04 23:52:30 | 51.47088 | 8.76307 | 74° | 53km/h | 19083m | 5.1m/s | -56.3°C | 1.3% | 66.9hPa | 2.5V | 00:00:00 | 00:00:00 | 00:00:00 | |
| DL1NUX | 2026-09-04 23:52:29 | 51.47062 | 8.76172 | 74° | 44km/h | 19052m | 4.4m/s | -56.2°C | 4.4% | 67.2hPa | 2.5V | 08:30:00 | 01:34:28 | 00:00:00 | |
| HSKMA3-T | 2026-09-04 23:52:28 | 51.47077 | 8.76247 | 73° | 51km/h | 19070m | 5m/s | -56.3°C | 0% | 67hPa | 2.5V | 18:12:15 | 01:34:32 | 00:00:00 | |
| BIOWL1-15 | 2026-09-04 23:52:22 | 51.47055 | 8.76138 | 71° | 44km/h | 19043m | 5m/s | -56.2°C | 0.7% | 67.3hPa | 2.5V | 18:12:15 | 01:34:26 | 00:00:00 | |
| DO3DL | 2026-09-04 23:52:22 | 51.47055 | 8.76138 | 72° | 44km/h | 19043m | 5.0m/s | -56.2°C | 1.2% | 67.3hPa | 2.5V | 00:00:00 | 00:00:00 | 00:00:00 | |
| DL1NUX | 2026-09-04 23:52:19 | 51.47032 | 8.75995 | 77° | 49km/h | 19007m | 4.2m/s | -56.3°C | 4.4% | 67.7hPa | 2.5V | 08:30:00 | 01:34:18 | 00:00:00 | |
| DO2JMG | 2026-09-04 23:52:18 | 51.47042 | 8.76070 | 78° | 44km/h | 19024m | 4m/s | 0°C | 0% | 0hPa | 2.5V | 18:12:15 | 01:34:22 | 00:00:00 | |
| HSKMA3-T | 2026-09-04 23:52:16 | 51.47038 | 8.76034 | 78° | 47km/h | 19016m | 5.3m/s | 0°C | 0% | 67.6hPa | 2.7V | 18:12:15 | 01:34:20 | 00:00:00 | |
| BIOWL1-15 | 2026-09-04 23:52:12 | 51.47027 | 8.75956 | 79° | 47km/h | 18997m | 4.2m/s | -56.4°C | 0.7% | 67.8hPa | 2.5V | 18:12:15 | 01:34:16 | 00:00:00 | |
| WPPR-10 | 2026-09-04 23:52:10 | 51.47019 | 8.75900 | 75° | 47km/h | 18984m | 4.4m/s | -56.4°C | 1.3% | 67.9hPa | 2.5V | 00:00:00 | 00:00:00 | 00:00:00 | |
| DL1NUX | 2026-09-04 23:52:09 | 51.47006 | 8.75808 | 77° | 47km/h | 18961m | 4.8m/s | -56.3°C | 4.4% | 68.2hPa | 2.5V | 08:30:00 | 01:34:08 | 00:00:00 | |
| HSKMA3-T | 2026-09-04 23:52:05 | 51.47008 | 8.75826 | 77° | 46km/h | 18966m | 4.7m/s | 0°C | 0% | 0hPa | 2.6V | 18:12:15 | 01:34:09 | 00:00:00 | |
| BIOWL1-15 | 2026-09-04 23:52:03 | 51.46999 | 8.75751 | 82° | 47km/h | 18946m | 4.7m/s | -56.4°C | 0.6% | 68.3hPa | 2.7V | 18:12:15 | 01:34:05 | 00:00:00 | |
| DO3DL | 2026-09-04 23:52:02 | 51.47003 | 8.75789 | 79° | 47km/h | 18956m | 4.0m/s | -56.4°C | 1.2% | 68.2hPa | 2.6V | 00:00:00 | 00:00:00 | 00:00:00 | |
| BIOWL7-15 | 2026-09-04 23:52:01 | 51.47001 | 8.75770 | 81° | 47km/h | 18952m | 5.5m/s | -56.4°C | 1.2% | 68.3hPa | 2.6V | 00:00:00 | 00:00:00 | 00:00:00 | |
| DL1ZP-14 | 2026-09-04 23:52:00 | 51.46997 | 8.75732 | 83° | 47km/h | 18942m | 4.8m/s | -56.4°C | 1.3% | 68.4hPa | 2.6V | 00:00:00 | 00:00:00 | 00:00:00 | |
| DL1NUX | 2026-09-04 23:51:59 | 51.46991 | 8.75605 | 85° | 51km/h | 18915m | 3.8m/s | -56.2°C | 4.5% | 68.7hPa | 2.5V | 08:30:00 | 01:33:58 | 00:00:00 | |
| HSKMA3-T | 2026-09-04 23:51:54 | 51.46991 | 8.75605 | 85° | 51km/h | 18915m | 3.8m/s | 0°C | 0% | 0hPa | 2.5V | 18:12:15 | 01:33:58 | 00:00:00 | |
| BIOWL1-15 | 2026-09-04 23:51:50 | 51.46984 | 8.75522 | 82° | 51km/h | 18896m | 5.1m/s | -56.1°C | 0.7% | 68.9hPa | 2.7V | 18:12:15 | 01:33:54 | 00:00:00 | |
| DF7PN | 2026-09-04 23:51:48 | 51.46981 | 8.75479 | 83° | 55km/h | 18887m | 5.1m/s | -56.0°C | 1.2% | 69.0hPa | 2.5V | 00:00:00 | 00:00:00 | 00:00:00 | |
| SONCRA | 2026-09-04 23:51:47 | 51.46979 | 8.75457 | 83° | 55km/h | 18882m | 4.6m/s | -56.0°C | 1.2% | 69.1hPa | 2.5V | 00:00:00 | 00:00:00 | 00:00:00 | |
| HSKMA3-T | 2026-09-04 23:51:44 | 51.46975 | 8.75368 | 87° | 53km/h | 18863m | 5m/s | -55.9°C | 0.6% | 69.2hPa | 2.5V | 18:12:15 | 01:33:47 | 00:00:00 | |
| BIOWL1-15 | 2026-09-04 23:51:40 | 51.46967 | 8.75244 | 82° | 51km/h | 18835m | 5.2m/s | -55.7°C | 0.7% | 69.5hPa | 2.5V | 18:12:15 | 01:33:41 | 00:00:00 | |
| HSKMA3-T | 2026-09-04 23:51:34 | 51.46958 | 8.75156 | 84° | 57km/h | 18815m | 4.8m/s | -55.6°C | 0.6% | 69.8hPa | 2.5V | 18:12:15 | 01:33:37 | 00:00:00 | |
| BIOWL1-15 | 2026-09-04 23:51:28 | 51.46952 | 8.75038 | 86° | 58km/h | 18791m | 5.3m/s | -55.4°C | 0.6% | 70hPa | 2.5V | 18:12:15 | 01:33:32 | 00:00:00 | |
| HSKMA3-T | 2026-09-04 23:51:20 | 51.46935 | 8.74861 | 82° | 58km/h | 18753m | 4.6m/s | -55.3°C | 0.6% | 70.4hPa | 2.7V | 18:12:15 | 01:33:24 | 00:00:00 | |
| DL1NUX | 2026-09-04 23:51:19 | 51.46928 | 8.74708 | 85° | 62km/h | 18724m | 4.7m/s | -55.1°C | 4.3% | 70.8hPa | 2.5V | 08:30:00 | 01:33:18 | 00:00:00 | |
| BIOWL1-15 | 2026-09-04 23:51:18 | 51.46931 | 8.74811 | 84° | 64km/h | 18743m | 4.5m/s | -55.3°C | 0.6% | 70.6hPa | 2.5V | 18:12:15 | 01:33:22 | 00:00:00 | |
| DL1XH-west | 2026-09-04 23:51:17 | 51.46930 | 8.74785 | 86° | 66km/h | 18738m | 5.4m/s | 0°C | 0% | 0hPa | 2.5V | 18:12:15 | 01:33:21 | 00:00:00 | |
| HSKMA3-T | 2026-09-04 23:51:10 | 51.46916 | 8.74615 | 75° | 57km/h | 18704m | 5.4m/s | -54.9°C | 0.6% | 71hPa | 2.7V | 18:12:15 | 01:33:14 | 00:00:00 | |
| DL1NUX | 2026-09-04 23:51:09 | 51.46901 | 8.74481 | 83° | 57km/h | 18673m | 6.1m/s | -54.7°C | 4% | 71.3hPa | 2.5V | 08:30:00 | 01:33:08 | 00:00:00 | |
| BIOWL1-15 | 2026-09-04 23:51:08 | 51.46910 | 8.74572 | 79° | 55km/h | 18693m | 4.8m/s | -54.8°C | 0.6% | 71.1hPa | 2.5V | 18:12:15 | 01:33:12 | 00:00:00 | |
| BIOWL1-15 | 2026-09-04 23:51:01 | 51.46882 | 8.74335 | 71° | 49km/h | 18637m | 5m/s | -54.5°C | 0.4% | 71.8hPa | 2.5V | 18:12:15 | 01:33:01 | 00:00:00 | |
| HSKMA3-T | 2026-09-04 23:50:59 | 51.46889 | 8.74375 | 73° | 53km/h | 18647m | 4.2m/s | -54.5°C | 0.5% | 71.6hPa | 2.5V | 18:12:15 | 01:33:03 | 00:00:00 | |
| DL1NUX | 2026-09-04 23:50:59 | 51.46869 | 8.74275 | 74° | 57km/h | 18621m | 4.4m/s | -54.6°C | 4% | 71.9hPa | 2.5V | 08:30:00 | 01:32:58 | 00:00:00 | |
| DO2JMG | 2026-09-04 23:50:52 | 51.46862 | 8.74231 | 78° | 55km/h | 18612m | 5.7m/s | 0°C | 0% | 72hPa | 2.5V | 18:12:15 | 01:32:56 | 00:00:00 | |
| DK9SH | 2026-09-04 23:50:51 | 51.46862 | 8.74230 | 79° | 55km/h | 18612m | 5.7m/s | -54.7°C | 1.1% | 72.0hPa | 2.5V | 00:00:00 | 00:00:00 | 00:00:00 | |
| DD1CC3-15 | 2026-09-04 23:50:50 | 51.46859 | 8.74209 | 80° | 53km/h | 18607m | 4.4m/s | -54.7°C | 1.2% | 72.1hPa | 2.5V | 00:00:00 | 00:00:00 | 00:00:00 | |
| DL1NUX | 2026-09-04 23:50:49 | 51.46838 | 8.74068 | 69° | 49km/h | 18574m | 5.3m/s | -54.9°C | 4.2% | 72.5hPa | 2.5V | 08:30:00 | 01:32:48 | 00:00:00 | |
| HSKMA3-T | 2026-09-04 23:50:47 | 51.46849 | 8.74124 | 76° | 51km/h | 18588m | 5.3m/s | -55°C | 0.6% | 72.3hPa | 2.5V | 18:12:15 | 01:32:51 | 00:00:00 | |
| BIOWL1-15 | 2026-09-04 23:50:46 | 51.46846 | 8.74105 | 74° | 49km/h | 18583m | 5m/s | -55°C | 0.6% | 72.3hPa | 2.7V | 18:12:15 | 01:32:50 | 00:00:00 | |
| SONCRA | 2026-09-04 23:50:45 | 51.46842 | 8.74086 | 71° | 47km/h | 18578m | 4.0m/s | -55.0°C | 1.2% | 72.4hPa | 2.5V | 00:00:00 | 00:00:00 | 00:00:00 | |
| DO2JMG | 2026-09-04 23:50:42 | 51.46828 | 8.74027 | 69° | 55km/h | 18564m | 4.4m/s | 0°C | 0% | 72.6hPa | 2.5V | 18:12:15 | 01:32:46 | 00:00:00 | |
| BIOWL1-15 | 2026-09-04 23:50:40 | 51.46801 | 8.73901 | 74° | 58km/h | 18534m | 4m/s | -54.9°C | 0.6% | 72.9hPa | 2.7V | 18:12:15 | 01:32:40 | 00:00:00 | |
| HSKMA3-T | 2026-09-04 23:50:37 | 51.46805 | 8.73924 | 73° | 57km/h | 18539m | 4.9m/s | -54.9°C | 0.6% | 72.8hPa | 2.5V | 18:12:15 | 01:32:41 | 00:00:00 | |
| BIOWL1-15 | 2026-09-04 23:50:25 | 51.46731 | 8.73597 | 65° | 47km/h | 18463m | 4.7m/s | -54.6°C | 0.5% | 73.7hPa | 2.7V | 18:12:15 | 01:32:25 | 00:00:00 | |
| HSKMA3-T | 2026-09-04 23:50:24 | 51.46748 | 8.73654 | 65° | 55km/h | 18476m | 4.3m/s | -54.8°C | 0.6% | 73.6hPa | 2.5V | 18:12:15 | 01:32:28 | 00:00:00 | |
| BIOWL1-15 | 2026-09-04 23:50:14 | 51.46702 | 8.73467 | 72° | 47km/h | 18430m | 4.8m/s | -54.4°C | 0.5% | 74.1hPa | 2.5V | 18:12:15 | 01:32:18 | 00:00:00 | |
| HSKMA3-T | 2026-09-04 23:50:13 | 51.46698 | 8.73449 | 71° | 47km/h | 18425m | 5.8m/s | -54.3°C | 0.5% | 74.2hPa | 2.5V | 18:12:15 | 01:32:17 | 00:00:00 | |
| BIOWL1-15 | 2026-09-04 23:50:07 | 51.46645 | 8.73305 | 66° | 47km/h | 18383m | 4.8m/s | -54.1°C | 0.5% | 74.7hPa | 2.5V | 18:12:15 | 01:32:08 | 00:00:00 | |
| HSKMA3-T | 2026-09-04 23:50:04 | 51.46640 | 8.73288 | 72° | 44km/h | 18378m | 4.9m/s | -54.1°C | 0.4% | 74.7hPa | 2.5V | 18:12:15 | 01:32:07 | 00:00:00 | |
| DO2JMG | 2026-09-04 23:49:59 | 51.46627 | 8.73221 | 67° | 47km/h | 18359m | 5.6m/s | 0°C | 0% | 75hPa | 2.5V | 18:12:15 | 01:32:03 | 00:00:00 | |
| BIOWL1-15 | 2026-09-04 23:49:53 | 51.46592 | 8.73124 | 52° | 44km/h | 18328m | 4.6m/s | -54.1°C | 0.5% | 75.3hPa | 2.5V | 18:12:15 | 01:31:57 | 00:00:00 | |
| HSKMA3-T | 2026-09-04 23:49:52 | 51.46585 | 8.73110 | 52° | 46km/h | 18323m | 4.7m/s | -54.2°C | 0.5% | 75.4hPa | 2.5V | 18:12:15 | 01:31:56 | 00:00:00 | |
| DO2JMG | 2026-09-04 23:49:49 | 51.46566 | 8.73066 | 59° | 40km/h | 18310m | 4.8m/s | 0°C | 0% | 75.6hPa | 2.5V | 18:12:15 | 01:31:53 | 00:00:00 | |
| DB0ND-19 | 2026-09-04 23:49:49 | 51.46561 | 8.73052 | 62° | 37km/h | 18305m | 4.3m/s | -54.0°C | 1.2% | 75.6hPa | 2.5V | 00:00:00 | 00:00:00 | 00:00:00 | |
| DF7PN | 2026-09-04 23:49:44 | 51.46542 | 8.72997 | 54° | 40km/h | 18287m | 4.7m/s | -53.9°C | 1.1% | 75.8hPa | 2.5V | 00:00:00 | 00:00:00 | 00:00:00 | |
| HSKMA3-T | 2026-09-04 23:49:43 | 51.46529 | 8.72973 | 46° | 38km/h | 18277m | 4m/s | -53.8°C | 0.5% | 75.9hPa | 2.5V | 18:12:15 | 01:31:46 | 00:00:00 | |
| DL1NUX | 2026-09-04 23:49:42 | 51.46499 | 8.72925 | 46° | 42km/h | 18260m | 3.9m/s | -53.6°C | 3.9% | 76.1hPa | 2.5V | 08:30:00 | 01:31:42 | 00:00:00 | |
| DO2JMG | 2026-09-04 23:49:35 | 51.46481 | 8.72893 | 51° | 29km/h | 18245m | 4.5m/s | 0°C | 0% | 0hPa | 2.7V | 18:12:15 | 01:31:39 | 00:00:00 | |
| BIOWL1-15 | 2026-09-04 23:49:32 | 51.46468 | 8.72862 | 61° | 33km/h | 18230m | 4m/s | -53.3°C | 0.4% | 76.5hPa | 2.5V | 18:12:15 | 01:31:36 | 00:00:00 | |
| HSKMA3-T | 2026-09-04 23:49:31 | 51.46464 | 8.72850 | 60° | 35km/h | 18226m | 4.7m/s | -53.3°C | 0.4% | 76.5hPa | 2.7V | 18:12:15 | 01:31:35 | 00:00:00 | |
| DO2JMG | 2026-09-04 23:49:24 | 51.46429 | 8.72756 | 58° | 38km/h | 18194m | 4.9m/s | 0°C | 0% | 0hPa | 2.5V | 18:12:15 | 01:31:28 | 00:00:00 | |
| BIOWL1-15 | 2026-09-04 23:49:21 | 51.46412 | 8.72724 | 44° | 33km/h | 18181m | 4.5m/s | -53.1°C | 0.3% | 77.1hPa | 2.7V | 18:12:15 | 01:31:25 | 00:00:00 | |
| HSKMA3-T | 2026-09-04 23:49:11 | 51.46368 | 8.72604 | 65° | 42km/h | 18133m | 5.9m/s | -52.9°C | 0.3% | 77.7hPa | 2.7V | 18:12:15 | 01:31:15 | 00:00:00 | |
| BIOWL1-15 | 2026-09-04 23:49:11 | 51.46364 | 8.72589 | 67° | 40km/h | 18128m | 4.7m/s | -52.9°C | 0.4% | 77.7hPa | 2.7V | 18:12:15 | 01:31:14 | 00:00:00 | |
| DO3DL | 2026-09-04 23:49:09 | 51.46364 | 8.72589 | 68° | 40km/h | 18128m | 4.7m/s | -52.9°C | 1.1% | 77.7hPa | 2.5V | 00:00:00 | 00:00:00 | 00:00:00 | |
| DO3MHA-11 | 2026-09-04 23:49:08 | 51.46356 | 8.72562 | 63° | 35km/h | 18119m | 5.3m/s | -52.8°C | 3.8% | 77.8hPa | 2.5V | 00:00:00 | 01:31:12 | 00:00:00 | |
| DJ8HS-15 | 2026-09-04 23:49:07 | 51.46351 | 8.72549 | 63° | 37km/h | 18114m | 4.4m/s | -52.7°C | 3.8% | 77.8hPa | 2.5V | 00:00:00 | 01:31:11 | 00:00:00 | |
| EDDB2-11 | 2026-09-04 23:49:06 | 51.46348 | 8.72536 | 65° | 31km/h | 18110m | 4.9m/s | -52.7°C | 1.0% | 77.9hPa | 2.5V | 00:00:00 | 00:00:00 | 00:00:00 | |
| DO3MHA-12 | 2026-09-04 23:49:04 | 51.46342 | 8.72513 | 72° | 37km/h | 18100m | 4.1m/s | -52.7°C | 3.8% | 78.0hPa | 2.5V | 00:00:00 | 01:31:08 | 00:00:00 | |
| WPPR-10 | 2026-09-04 23:49:03 | 51.46330 | 8.72461 | 69° | 37km/h | 18081m | 4.8m/s | -52.6°C | 1.0% | 78.3hPa | 2.5V | 00:00:00 | 00:00:00 | 00:00:00 | |
| DL1NUX | 2026-09-04 23:49:02 | 51.46321 | 8.72416 | 71° | 38km/h | 18067m | 5.3m/s | -52.5°C | 3.7% | 78.5hPa | 2.5V | 08:30:00 | 01:31:01 | 00:00:00 | |
| HSKMA3-T | 2026-09-04 23:49:01 | 51.46333 | 8.72475 | 68° | 37km/h | 18086m | 3.9m/s | -52.6°C | 0.2% | 78.2hPa | 2.7V | 18:12:15 | 01:31:05 | 00:00:00 | |
| BIOWL1-15 | 2026-09-04 23:48:59 | 51.46327 | 8.72446 | 73° | 38km/h | 18076m | 4.7m/s | -52.6°C | 0.3% | 78.3hPa | 2.5V | 18:12:15 | 01:31:03 | 00:00:00 | |
| DL1ZP-14 | 2026-09-04 23:48:54 | 51.46309 | 8.72357 | 77° | 37km/h | 18048m | 4.3m/s | -52.5°C | 1.0% | 78.7hPa | 2.5V | 00:00:00 | 00:00:00 | 00:00:00 | |
| DO2KSM | 2026-09-04 23:48:53 | 51.46312 | 8.72371 | 75° | 38km/h | 18052m | 5.5m/s | -52.5°C | 1.1% | 78.6hPa | 2.5V | 00:00:00 | 00:00:00 | 00:00:00 | |
| DL1NUX | 2026-09-04 23:48:52 | 51.46297 | 8.72270 | 81° | 35km/h | 18019m | 4.2m/s | -52.5°C | 3.8% | 79hPa | 2.5V | 08:30:00 | 01:30:51 | 00:00:00 | |
| HSKMA3-T | 2026-09-04 23:48:51 | 51.46305 | 8.72327 | 76° | 38km/h | 18038m | 5.2m/s | -52.6°C | 0.3% | 78.8hPa | 2.7V | 18:12:15 | 01:30:55 | 00:00:00 | |
| BIOWL1-15 | 2026-09-04 23:48:49 | 51.46301 | 8.72298 | 77° | 37km/h | 18029m | 5m/s | -52.5°C | 0.4% | 78.9hPa | 2.5V | 18:12:15 | 01:30:53 | 00:00:00 | |
| DL3AQ-11 | 2026-09-04 23:48:49 | 51.46299 | 8.72284 | 80° | 35km/h | 18024m | 4.9m/s | -52.5°C | 1.1% | 79.0hPa | 2.5V | 00:00:00 | 00:00:00 | 00:00:00 | |
| DB0ND-19 | 2026-09-04 23:48:46 | 51.46296 | 8.72256 | 78° | 33km/h | 18015m | 4.3m/s | -52.5°C | 1.0% | 79.1hPa | 2.5V | 00:00:00 | 00:00:00 | 00:00:00 | |
| BIOWL1-15 | 2026-09-04 23:48:41 | 51.46282 | 8.72165 | 87° | 35km/h | 17983m | 5.2m/s | -52.4°C | 0.3% | 79.5hPa | 2.5V | 18:12:15 | 01:30:43 | 00:00:00 | |
| HSKMA3-T | 2026-09-04 23:48:40 | 51.46282 | 8.72178 | 85° | 33km/h | 17988m | 4.1m/s | -52.5°C | 0.4% | 79.5hPa | 2.7V | 18:12:15 | 01:30:44 | 00:00:00 | |
| DL1XH-west | 2026-09-04 23:48:38 | 51.46281 | 8.72150 | 88° | 37km/h | 17978m | 4.8m/s | 0°C | 0% | 0hPa | 2.5V | 18:12:15 | 01:30:42 | 00:00:00 | |
| DL3AQ-11 | 2026-09-04 23:48:38 | 51.46281 | 8.72135 | 89° | 37km/h | 17974m | 4.1m/s | -52.4°C | 1.1% | 79.6hPa | 2.5V | 00:00:00 | 00:00:00 | 00:00:00 | |
| BUE01 | 2026-09-04 23:48:37 | 51.46281 | 8.72135 | 89° | 37km/h | 17974m | 4.1m/s | -52.4°C | 1.1% | 79.6hPa | 2.5V | 00:00:00 | 00:00:00 | 00:00:00 | |
| DO3DL | 2026-09-04 23:48:36 | 51.46281 | 8.72135 | 90° | 37km/h | 17974m | 4.1m/s | -52.4°C | 1.1% | 79.6hPa | 2.5V | 00:00:00 | 00:00:00 | 00:00:00 | |
| EDDB2-11 | 2026-09-04 23:48:35 | 51.46281 | 8.72106 | 91° | 35km/h | 17964m | 4.3m/s | -52.3°C | 1.0% | 79.8hPa | 2.5V | 00:00:00 | 00:00:00 | 00:00:00 | |
| DO3MHA-12 | 2026-09-04 23:48:34 | 51.46281 | 8.72091 | 90° | 38km/h | 17960m | 4.7m/s | -52.2°C | 3.7% | 79.7hPa | 2.5V | 00:00:00 | 01:30:38 | 00:00:00 | |
| BIOWL7-15 | 2026-09-04 23:48:33 | 51.46281 | 8.72091 | 90° | 37km/h | 17960m | 4.8m/s | -52.3°C | 1.0% | 79.8hPa | 2.5V | 00:00:00 | 00:00:00 | 00:00:00 | |
| DL1NUX | 2026-09-04 23:48:32 | 51.46277 | 8.71981 | 87° | 40km/h | 17925m | 3.5m/s | -52.1°C | 3.7% | 80.2hPa | 2.5V | 08:30:00 | 01:30:31 | 00:00:00 | |
| DO2JMG | 2026-09-04 23:48:32 | 51.46280 | 8.72060 | 85° | 40km/h | 17950m | 4.3m/s | 0°C | 0% | 0hPa | 2.5V | 18:12:15 | 01:30:36 | 00:00:00 | |
| HSKMA3-T | 2026-09-04 23:48:29 | 51.46278 | 8.72013 | 87° | 38km/h | 17935m | 5m/s | -52.2°C | 0.3% | 80.1hPa | 2.5V | 18:12:15 | 01:30:33 | 00:00:00 | |
| BIOWL1-15 | 2026-09-04 23:48:28 | 51.46277 | 8.71966 | 91° | 38km/h | 17921m | 5.6m/s | -52.1°C | 0.3% | 80.2hPa | 2.7V | 18:12:15 | 01:30:30 | 00:00:00 | |
| DO2JMG | 2026-09-04 23:48:21 | 51.46279 | 8.71884 | 91° | 44km/h | 17897m | 4.3m/s | 0°C | 0% | 0hPa | 2.7V | 18:12:15 | 01:30:25 | 00:00:00 | |
| HSKMA3-T | 2026-09-04 23:48:18 | 51.46280 | 8.71833 | 91° | 40km/h | 17884m | 3.4m/s | -51.9°C | 0.3% | 80.8hPa | 2.5V | 18:12:15 | 01:30:22 | 00:00:00 | |
| DO3DL | 2026-09-04 23:48:17 | 51.46280 | 8.71833 | 92° | 40km/h | 17884m | 3.4m/s | -51.9°C | 1.0% | 80.8hPa | 2.7V | 00:00:00 | 00:00:00 | 00:00:00 | |
| SO1NDE-10 | 2026-09-04 23:48:16 | 51.46281 | 8.71799 | 93° | 47km/h | 17875m | 4.4m/s | -51.9°C | 3.6% | 80.8hPa | 2.7V | 00:00:00 | 01:30:20 | 00:00:00 | |
| DB0ND-19 | 2026-09-04 23:48:15 | 51.46281 | 8.71780 | 93° | 46km/h | 17870m | 4.1m/s | -51.9°C | 1.0% | 80.9hPa | 2.5V | 00:00:00 | 00:00:00 | 00:00:00 | |
| DO3MHA-12 | 2026-09-04 23:48:14 | 51.46282 | 8.71762 | 95° | 44km/h | 17866m | 5.5m/s | -51.8°C | 3.6% | 80.9hPa | 2.5V | 00:00:00 | 01:30:18 | 00:00:00 | |
| DL1NUX | 2026-09-04 23:48:12 | 51.46286 | 8.71638 | 93° | 42km/h | 17833m | 4.2m/s | -51.7°C | 3.6% | 81.3hPa | 2.5V | 08:30:00 | 01:30:11 | 00:00:00 | |
| DO2JMG | 2026-09-04 23:48:10 | 51.46285 | 8.71691 | 91° | 46km/h | 17846m | 4m/s | 0°C | 0% | 0hPa | 2.7V | 18:12:15 | 01:30:14 | 00:00:00 | |
| HSKMA3-T | 2026-09-04 23:48:08 | 51.46286 | 8.71638 | 94° | 42km/h | 17833m | 4.3m/s | -51.7°C | 0.2% | 81.4hPa | 2.5V | 18:12:15 | 01:30:11 | 00:00:00 | |
| DL1XH-west | 2026-09-04 23:48:04 | 51.46289 | 8.71582 | 97° | 51km/h | 17819m | 4.5m/s | 0°C | 0% | 0hPa | 2.7V | 18:12:15 | 01:30:08 | 00:00:00 | |
| DO3MHA-12 | 2026-09-04 23:48:04 | 51.46289 | 8.71582 | 97° | 47km/h | 17820m | 4.5m/s | -51.6°C | 3.5% | 81.5hPa | 2.5V | 00:00:00 | 01:30:08 | 00:00:00 | |
| DO3DL | 2026-09-04 23:48:03 | 51.46289 | 8.71582 | 98° | 51km/h | 17820m | 4.5m/s | -51.6°C | 1.0% | 81.5hPa | 2.5V | 00:00:00 | 00:00:00 | 00:00:00 | |
| DL1NUX | 2026-09-04 23:48:02 | 51.46295 | 8.71440 | 82° | 47km/h | 17789m | 4.4m/s | -51.7°C | 3.6% | 81.9hPa | 2.5V | 08:30:00 | 01:30:01 | 00:00:00 | |
| BIOWL1-15 | 2026-09-04 23:48:01 | 51.46295 | 8.71518 | 98° | 51km/h | 17806m | 4.4m/s | -51.6°C | 0.2% | 81.7hPa | 2.5V | 18:12:15 | 01:30:05 | 00:00:00 | |
| HSKMA3-T | 2026-09-04 23:47:57 | 51.46295 | 8.71440 | 82° | 47km/h | 17790m | 4.4m/s | -51.7°C | 0.2% | 81.9hPa | 2.5V | 18:12:15 | 01:30:01 | 00:00:00 | |
| DL1XH-west | 2026-09-04 23:47:53 | 51.46290 | 8.71366 | 89° | 47km/h | 17772m | 4.8m/s | 0°C | 0% | 0hPa | 2.7V | 18:12:15 | 01:29:57 | 00:00:00 | |
| DL1NUX | 2026-09-04 23:47:52 | 51.46292 | 8.71246 | 91° | 51km/h | 17746m | 4.3m/s | -52°C | 3.6% | 82.5hPa | 2.5V | 08:30:00 | 01:29:51 | 00:00:00 | |
| BIOWL1-15 | 2026-09-04 23:47:50 | 51.46292 | 8.71246 | 92° | 51km/h | 17746m | 4.4m/s | -52°C | 0.3% | 82.5hPa | 2.5V | 18:12:15 | 01:29:51 | 00:00:00 | |
| HSKMA3-T | 2026-09-04 23:47:46 | 51.46292 | 8.71225 | 90° | 53km/h | 17741m | 5.1m/s | -52°C | 0.2% | 82.5hPa | 2.5V | 18:12:15 | 01:29:50 | 00:00:00 | |
| DJ2KF-10 | 2026-09-04 23:47:46 | 51.46292 | 8.71225 | 90° | 57km/h | 17741m | 5.0m/s | -52.0°C | 3.6% | 82.5hPa | 2.5V | 00:00:00 | 01:29:50 | 00:00:00 | |
| DK9SH | 2026-09-04 23:47:45 | 51.46292 | 8.71224 | 91° | 53km/h | 17741m | 5.1m/s | 0°C | 0% | 0hPa | 2.5V | 00:00:00 | 00:00:00 | 00:00:00 | |
| DO3MHA-12 | 2026-09-04 23:47:44 | 51.46291 | 8.71181 | 86° | 57km/h | 17731m | 5.1m/s | -52.0°C | 3.6% | 82.6hPa | 2.5V | 00:00:00 | 01:29:48 | 00:00:00 | |
| DO3DL | 2026-09-04 23:47:43 | 51.46290 | 8.71181 | 86° | 55km/h | 17731m | 5.2m/s | -52.0°C | 1.0% | 82.7hPa | 2.5V | 00:00:00 | 00:00:00 | 00:00:00 | |
| DL1NUX | 2026-09-04 23:47:42 | 51.46276 | 8.71024 | 82° | 53km/h | 17699m | 3.5m/s | -52°C | 3.7% | 83.1hPa | 2.5V | 08:30:00 | 01:29:41 | 00:00:00 | |
| BIOWL1-15 | 2026-09-04 23:47:38 | 51.46278 | 8.71045 | 81° | 55km/h | 17704m | 4.5m/s | -52°C | 0.3% | 83hPa | 2.7V | 18:12:15 | 01:29:42 | 00:00:00 | |
| HSKMA3-T | 2026-09-04 23:47:36 | 51.46275 | 8.71002 | 86° | 55km/h | 17695m | 4.6m/s | -52°C | 0.3% | 83.1hPa | 2.5V | 18:12:15 | 01:29:40 | 00:00:00 | |
| DO3DL | 2026-09-04 23:47:35 | 51.46275 | 8.70980 | 90° | 57km/h | 17691m | 5.0m/s | -52.0°C | 1.0% | 83.2hPa | 2.5V | 00:00:00 | 00:00:00 | 00:00:00 | |
| EDDB2-11 | 2026-09-04 23:47:33 | 51.46275 | 8.70935 | 91° | 55km/h | 17681m | 5.0m/s | -52.0°C | 1.1% | 83.3hPa | 2.5V | 00:00:00 | 00:00:00 | 00:00:00 | |
| DL1NUX | 2026-09-04 23:47:32 | 51.46270 | 8.70793 | 80° | 58km/h | 17656m | 4.9m/s | -52°C | 3.6% | 83.6hPa | 2.5V | 08:30:00 | 01:29:31 | 00:00:00 | |
| BIOWL1-15 | 2026-09-04 23:47:27 | 51.46270 | 8.70793 | 81° | 58km/h | 17656m | 4.9m/s | -52°C | 0.3% | 83.6hPa | 2.5V | 18:12:15 | 01:29:31 | 00:00:00 | |
| HSKMA3-T | 2026-09-04 23:47:25 | 51.46265 | 8.70748 | 80° | 57km/h | 17648m | 3.9m/s | -52°C | 0.3% | 83.7hPa | 2.5V | 18:12:15 | 01:29:29 | 00:00:00 | |
| DO9LL-15 | 2026-09-04 23:47:25 | 51.46265 | 8.70747 | 81° | 55km/h | 17648m | 3.8m/s | -51.9°C | 3.6% | 83.7hPa | 2.5V | 00:00:00 | 01:29:29 | 00:00:00 | |
| DL1NUX | 2026-09-04 23:47:22 | 51.46255 | 8.70569 | 85° | 58km/h | 17611m | 2.8m/s | -51.8°C | 3.6% | 84.2hPa | 2.5V | 08:30:00 | 01:29:21 | 00:00:00 | |
| BIOWL1-15 | 2026-09-04 23:47:18 | 51.46254 | 8.70546 | 84° | 57km/h | 17608m | 4.7m/s | -51.8°C | 0.2% | 84.2hPa | 2.5V | 18:12:15 | 01:29:20 | 00:00:00 | |
| HSKMA3-T | 2026-09-04 23:47:14 | 51.46250 | 8.70501 | 81° | 55km/h | 17599m | 4m/s | -51.8°C | 0.2% | 84.4hPa | 2.7V | 18:12:15 | 01:29:18 | 00:00:00 | |
| DB0ND-19 | 2026-09-04 23:47:13 | 51.46248 | 8.70479 | 81° | 55km/h | 17595m | 3.9m/s | -51.8°C | -1.0% | 84.4hPa | 2.7V | 00:00:00 | 00:00:00 | 00:00:00 | |
| DL1NUX | 2026-09-04 23:47:12 | 51.46238 | 8.70346 | 82° | 53km/h | 17568m | 4.1m/s | -51.9°C | 3.6% | 84.8hPa | 2.7V | 08:30:00 | 01:29:11 | 00:00:00 | |
| BIOWL1-15 | 2026-09-04 23:47:06 | 51.46236 | 8.70324 | 84° | 55km/h | 17564m | 4.7m/s | -51.9°C | 0.3% | 84.8hPa | 2.7V | 18:12:15 | 01:29:10 | 00:00:00 | |
| HSKMA3-T | 2026-09-04 23:47:04 | 51.46234 | 8.70281 | 85° | 53km/h | 17555m | 4.5m/s | -51.9°C | 0.3% | 85hPa | 2.5V | 18:12:15 | 01:29:08 | 00:00:00 | |
| DO3DL | 2026-09-04 23:47:04 | 51.46232 | 8.70260 | 85° | 51km/h | 17551m | 4.8m/s | -51.8°C | 1.0% | 85.0hPa | 2.7V | 00:00:00 | 00:00:00 | 00:00:00 | |
| DL1NUX | 2026-09-04 23:47:03 | 51.46228 | 8.70137 | 91° | 49km/h | 17523m | 4.2m/s | -51.7°C | 3.5% | 85.4hPa | 2.7V | 08:30:00 | 01:29:01 | 00:00:00 | |
| DL3AQ-11 | 2026-09-04 23:47:02 | 51.46230 | 8.70220 | 85° | 49km/h | 17542m | 5.0m/s | -51.8°C | 1.0% | 85.1hPa | 2.5V | 00:00:00 | 00:00:00 | 00:00:00 | |
| WPPR-10 | 2026-09-04 23:46:59 | 51.46228 | 8.70178 | 88° | 51km/h | 17533m | 4.1m/s | -51.8°C | 1.0% | 85.2hPa | 2.5V | 00:00:00 | 00:00:00 | 00:00:00 | |
| HARRO8 | 2026-09-04 23:46:56 | 51.46230 | 8.70096 | 94° | 51km/h | 17514m | 5.1m/s | -51.6°C | 1.0% | 85.5hPa | 2.5V | 00:00:00 | 00:00:00 | 00:00:00 | |
| BIOWL1-15 | 2026-09-04 23:46:56 | 51.46229 | 8.70117 | 93° | 51km/h | 17519m | 4.3m/s | -51.7°C | 0.2% | 85.4hPa | 2.7V | 18:12:15 | 01:29:00 | 00:00:00 | |
| DO9LL-15 | 2026-09-04 23:46:55 | 51.46230 | 8.70096 | 95° | 57km/h | 17515m | 5.0m/s | -51.6°C | 3.5% | 85.4hPa | 2.5V | 00:00:00 | 01:28:59 | 00:00:00 | |
| DL1XH1-15 | 2026-09-04 23:46:53 | 51.46235 | 8.69969 | 93° | 55km/h | 17488m | 3.9m/s | 0°C | 0% | 0hPa | 2.5V | 00:00:00 | 01:28:53 | 00:00:00 | |
| HSKMA3-T | 2026-09-04 23:46:53 | 51.46232 | 8.70054 | 94° | 53km/h | 17505m | 5.3m/s | -51.6°C | 0.2% | 85.6hPa | 2.5V | 18:12:15 | 01:28:57 | 00:00:00 | |
| DL1XH-west | 2026-09-04 23:46:49 | 51.46235 | 8.69969 | 94° | 55km/h | 17488m | 3.9m/s | 0°C | 0% | 0hPa | 2.5V | 18:12:15 | 01:28:53 | 00:00:00 | |
| DO2JMG | 2026-09-04 23:46:47 | 51.46236 | 8.69925 | 93° | 53km/h | 17478m | 4.6m/s | 0°C | 0% | 0hPa | 2.7V | 18:12:15 | 01:28:51 | 00:00:00 | |
| BIOWL1-15 | 2026-09-04 23:46:45 | 51.46243 | 8.69815 | 98° | 55km/h | 17457m | 5.3m/s | -51.9°C | 0.2% | 86.3hPa | 2.7V | 18:12:15 | 01:28:46 | 00:00:00 | |
| AU51GT2 | 2026-09-04 23:46:44 | 51.46240 | 8.69859 | 96° | 55km/h | 17465m | 4.4m/s | -51.7°C | 1.0% | 86.2hPa | 2.5V | 00:00:00 | 00:00:00 | 00:00:00 | |
| HSKMA3-T | 2026-09-04 23:46:43 | 51.46241 | 8.69837 | 98° | 57km/h | 17461m | 3.6m/s | -51.8°C | 0.2% | 86.2hPa | 2.5V | 18:12:15 | 01:28:47 | 00:00:00 | |
| DO2JMG | 2026-09-04 23:46:36 | 51.46258 | 8.69683 | 101° | 55km/h | 17430m | 3.1m/s | 0°C | 0% | 0hPa | 2.7V | 18:12:15 | 01:28:40 | 00:00:00 | |
| BIOWL1-15 | 2026-09-04 23:46:35 | 51.46282 | 8.69520 | 106° | 64km/h | 17399m | 5m/s | -52.4°C | 0.3% | 87hPa | 2.5V | 18:12:15 | 01:28:33 | 00:00:00 | |
| HSKMA3-T | 2026-09-04 23:46:32 | 51.46271 | 8.69592 | 104° | 60km/h | 17411m | 5m/s | -52.4°C | 0.3% | 86.9hPa | 2.7V | 18:12:15 | 01:28:36 | 00:00:00 | |
| DL1XH-west | 2026-09-04 23:46:31 | 51.46274 | 8.69568 | 104° | 60km/h | 17407m | 3.4m/s | 0°C | 0% | 0hPa | 2.7V | 18:12:15 | 01:28:35 | 00:00:00 | |
| DO2JMG | 2026-09-04 23:46:25 | 51.46301 | 8.69423 | 108° | 60km/h | 17382m | 3.4m/s | 0°C | 0% | 0hPa | 2.5V | 18:12:15 | 01:28:29 | 00:00:00 | |
| BIOWL1-15 | 2026-09-04 23:46:23 | 51.46311 | 8.69375 | 108° | 64km/h | 17374m | 4.2m/s | -52.4°C | 0.3% | 87.4hPa | 2.5V | 18:12:15 | 01:28:27 | 00:00:00 | |
| HSKMA3-T | 2026-09-04 23:46:21 | 51.46320 | 8.69325 | 104° | 64km/h | 17365m | 4.9m/s | -52.4°C | 0.3% | 87.5hPa | 2.7V | 18:12:15 | 01:28:25 | 00:00:00 | |
| BIOWL1-15 | 2026-09-04 23:46:13 | 51.46361 | 8.69001 | 103° | 69km/h | 17314m | 4.2m/s | -52.4°C | 0.2% | 88.2hPa | 2.7V | 18:12:15 | 01:28:13 | 00:00:00 | |
| DL1NUX | 2026-09-04 23:46:11 | 51.46369 | 8.68945 | 103° | 73km/h | 17305m | 5.2m/s | -52.4°C | 3.6% | 88.3hPa | 2.5V | 08:30:00 | 01:28:11 | 00:00:00 | |
| HSKMA3-T | 2026-09-04 23:46:11 | 51.46353 | 8.69056 | 103° | 69km/h | 17323m | 3.5m/s | -52.5°C | 0.3% | 88hPa | 2.5V | 18:12:15 | 01:28:15 | 00:00:00 | |
| DO2JMG | 2026-09-04 23:46:05 | 51.46378 | 8.68887 | 104° | 77km/h | 17296m | 4m/s | 0°C | 0% | 0hPa | 2.7V | 18:12:15 | 01:28:09 | 00:00:00 | |
| HSKMA3-T | 2026-09-04 23:46:01 | 51.46395 | 8.68769 | 102° | 75km/h | 17278m | 4.4m/s | -52.5°C | 0.3% | 88.7hPa | 2.5V | 18:12:15 | 01:28:05 | 00:00:00 | |
| DO3MHA-12 | 2026-09-04 23:46:01 | 51.46395 | 8.68769 | 103° | 77km/h | 17278m | 4.4m/s | -52.5°C | 3.6% | 88.6hPa | 2.5V | 00:00:00 | 01:28:05 | 00:00:00 | |
| DL1NUX | 2026-09-04 23:46:00 | 51.46408 | 8.68653 | 98° | 71km/h | 17261m | 3.6m/s | -53.1°C | 3.8% | 88.9hPa | 2.5V | 08:30:00 | 01:28:01 | 00:00:00 | |
| BIOWL1-15 | 2026-09-04 23:45:59 | 51.46405 | 8.68682 | 100° | 71km/h | 17264m | 4.3m/s | -53°C | 0.3% | 88.9hPa | 2.5V | 18:12:15 | 01:28:02 | 00:00:00 | |
| DL3AQ-11 | 2026-09-04 23:45:58 | 51.46408 | 8.68653 | 98° | 71km/h | 17261m | 3.6m/s | -53.1°C | 1.1% | 88.9hPa | 2.5V | 00:00:00 | 00:00:00 | 00:00:00 | |
| WPPR-10 | 2026-09-04 23:45:57 | 51.46414 | 8.68595 | 100° | 75km/h | 17252m | 4.2m/s | -53.2°C | 1.1% | 89.0hPa | 2.5V | 00:00:00 | 00:00:00 | 00:00:00 | |
| HARRO8 | 2026-09-04 23:45:54 | 51.46421 | 8.68533 | 99° | 77km/h | 17243m | 5.1m/s | -53.2°C | 1.1% | 89.2hPa | 2.5V | 00:00:00 | 00:00:00 | 00:00:00 | |
| DL1NUX | 2026-09-04 23:45:52 | 51.46437 | 8.68341 | 94° | 78km/h | 17215m | 4.5m/s | -53.2°C | 3.8% | 89.5hPa | 2.5V | 08:30:00 | 01:27:51 | 00:00:00 | |
| HSKMA3-T | 2026-09-04 23:45:50 | 51.46430 | 8.68438 | 99° | 82km/h | 17228m | 4.7m/s | -53.2°C | 0.3% | 89.4hPa | 2.7V | 18:12:15 | 01:27:54 | 00:00:00 | |
| BIOWL1-15 | 2026-09-04 23:45:47 | 51.46437 | 8.68341 | 95° | 78km/h | 17215m | 4.5m/s | -53.2°C | 0.4% | 89.5hPa | 2.5V | 18:12:15 | 01:27:51 | 00:00:00 | |
| DL1ZP-14 | 2026-09-04 23:45:47 | 51.46437 | 8.68341 | 94° | 77km/h | 17215m | 4.5m/s | -53.2°C | 1.1% | 89.5hPa | 2.5V | 00:00:00 | 00:00:00 | 00:00:00 | |
| DO1YAY-16 | 2026-09-04 23:45:45 | 51.46440 | 8.68279 | 94° | 77km/h | 17206m | 5.1m/s | -53.4°C | 1.1% | 89.7hPa | 2.7V | 00:00:00 | 00:00:00 | 00:00:00 | |
| DD1CC1-15 | 2026-09-04 23:45:44 | 51.46440 | 8.68279 | 96° | 78km/h | 17207m | 5.1m/s | -53.4°C | 1.1% | 89.7hPa | 2.7V | 00:00:00 | 00:00:00 | 00:00:00 | |
| DL1NUX | 2026-09-04 23:45:42 | 51.46453 | 8.68023 | 93° | 80km/h | 17170m | 4.5m/s | -53.5°C | 3.9% | 90.2hPa | 2.7V | 08:30:00 | 01:27:41 | 00:00:00 | |
| HSKMA3-T | 2026-09-04 23:45:41 | 51.46448 | 8.68120 | 94° | 80km/h | 17183m | 4.7m/s | -53.5°C | 0.4% | 90hPa | 2.5V | 18:12:15 | 01:27:44 | 00:00:00 | |
| BIOWL1-15 | 2026-09-04 23:45:37 | 51.46454 | 8.67925 | 90° | 80km/h | 17156m | 5.5m/s | -53.5°C | 0.5% | 90.4hPa | 2.5V | 18:12:15 | 01:27:38 | 00:00:00 | |
| DO3MHA-11 | 2026-09-04 23:45:37 | 51.46453 | 8.68023 | 94° | 80km/h | 17170m | 4.5m/s | -53.4°C | 3.9% | 90.1hPa | 2.7V | 00:00:00 | 01:27:41 | 00:00:00 | |
| DO3DL | 2026-09-04 23:45:36 | 51.46453 | 8.68023 | 95° | 80km/h | 17170m | 4.5m/s | -53.5°C | 1.1% | 90.2hPa | 2.7V | 00:00:00 | 00:00:00 | 00:00:00 | |
| SONCRA | 2026-09-04 23:45:35 | 51.46454 | 8.67925 | 90° | 80km/h | 17156m | 5.5m/s | -53.5°C | 1.2% | 90.4hPa | 2.7V | 00:00:00 | 00:00:00 | 00:00:00 | |
| SONDE2-11 | 2026-09-04 23:45:34 | 51.46454 | 8.67925 | 90° | 80km/h | 17156m | 5.5m/s | -53.5°C | 1.2% | 90.4hPa | 2.7V | 00:00:00 | 00:00:00 | 00:00:00 | |
| DJTTGO | 2026-09-04 23:45:33 | 51.46454 | 8.67925 | 91° | 80km/h | 17156m | 5.5m/s | 0°C | 0% | 0hPa | 2.7V | 00:00:00 | 00:00:00 | 00:00:00 | |
| DL1NUX | 2026-09-04 23:45:32 | 51.46452 | 8.67702 | 89° | 78km/h | 17123m | 4.5m/s | -53.5°C | 3.9% | 90.8hPa | 2.7V | 08:30:00 | 01:27:31 | 00:00:00 | |
| HSKMA3-T | 2026-09-04 23:45:30 | 51.46453 | 8.67796 | 87° | 78km/h | 17136m | 4.8m/s | -53.6°C | 0.4% | 90.6hPa | 2.5V | 18:12:15 | 01:27:34 | 00:00:00 | |
| BIOWL1-15 | 2026-09-04 23:45:27 | 51.46451 | 8.67702 | 90° | 78km/h | 17123m | 4.6m/s | -53.5°C | 0.5% | 90.8hPa | 2.7V | 18:12:15 | 01:27:31 | 00:00:00 | |
| DO2JMG | 2026-09-04 23:45:25 | 51.46451 | 8.67638 | 88° | 78km/h | 17113m | 5.1m/s | -53.5°C | 0.5% | 91hPa | 2.5V | 18:12:15 | 01:27:29 | 00:00:00 | |
| HSKMA3-T | 2026-09-04 23:45:19 | 51.46444 | 8.67440 | 83° | 84km/h | 17086m | 4.3m/s | -53.3°C | 0.4% | 91.4hPa | 2.5V | 18:12:15 | 01:27:23 | 00:00:00 | |
| BIOWL1-15 | 2026-09-04 23:45:17 | 51.46439 | 8.67372 | 84° | 84km/h | 17076m | 4.7m/s | -53.3°C | 0.4% | 91.5hPa | 2.7V | 18:12:15 | 01:27:21 | 00:00:00 | |
| DO1YAY-16 | 2026-09-04 23:45:14 | 51.46431 | 8.67274 | 82° | 77km/h | 17062m | 4.9m/s | -53.2°C | 1.1% | 91.7hPa | 2.5V | 00:00:00 | 00:00:00 | 00:00:00 | |
| DL1NUX | 2026-09-04 23:45:12 | 51.46418 | 8.67056 | 83° | 82km/h | 17029m | 5.1m/s | -53.2°C | 3.8% | 92.2hPa | 2.5V | 08:30:00 | 01:27:11 | 00:00:00 | |
| HSKMA3-T | 2026-09-04 23:45:09 | 51.46419 | 8.67056 | 84° | 82km/h | 17029m | 5.1m/s | -53.2°C | 0.4% | 92.2hPa | 2.5V | 18:12:15 | 01:27:11 | 00:00:00 | |
| BIOWL1-15 | 2026-09-04 23:45:08 | 51.46400 | 8.66859 | 81° | 78km/h | 17002m | 5.1m/s | -53.5°C | 0.5% | 92.6hPa | 2.7V | 18:12:15 | 01:27:05 | 00:00:00 | |
| DO2JMG | 2026-09-04 23:45:03 | 51.46407 | 8.66922 | 80° | 82km/h | 17011m | 4.6m/s | -53.4°C | 0.5% | 92.4hPa | 2.5V | 18:12:15 | 01:27:07 | 00:00:00 | |
| HSKMA3-T | 2026-09-04 23:44:57 | 51.46387 | 8.66738 | 78° | 75km/h | 16984m | 4.6m/s | -53.3°C | 0.4% | 92.8hPa | 2.5V | 18:12:15 | 01:27:01 | 00:00:00 | |
| BIOWL1-15 | 2026-09-04 23:44:52 | 51.46350 | 8.66445 | 79° | 84km/h | 16942m | 3.7m/s | -53°C | 0.5% | 93.4hPa | 2.7V | 18:12:15 | 01:26:52 | 00:00:00 | |
| HARRO8 | 2026-09-04 23:44:52 | 51.46362 | 8.66545 | 77° | 84km/h | 16956m | 4.4m/s | -53.1°C | 1.2% | 93.2hPa | 2.5V | 00:00:00 | 00:00:00 | 00:00:00 | |
| DL3AQ-11 | 2026-09-04 23:44:49 | 51.46350 | 8.66445 | 79° | 82km/h | 16942m | 3.7m/s | -53.0°C | 1.2% | 93.4hPa | 2.5V | 00:00:00 | 00:00:00 | 00:00:00 | |
| DL1NUX | 2026-09-04 23:44:48 | 51.46346 | 8.66412 | 78° | 82km/h | 16938m | 4.7m/s | -53°C | 3.9% | 93.5hPa | 2.5V | 08:30:00 | 01:26:51 | 00:00:00 | |
| HSKMA3-T | 2026-09-04 23:44:46 | 51.46341 | 8.66379 | 78° | 82km/h | 16933m | 5m/s | -52.9°C | 0.4% | 93.5hPa | 2.5V | 18:12:15 | 01:26:50 | 00:00:00 | |
| DL1ZP-14 | 2026-09-04 23:44:45 | 51.46337 | 8.66348 | 77° | 78km/h | 16929m | 4.1m/s | -52.9°C | 1.2% | 93.6hPa | 2.5V | 00:00:00 | 00:00:00 | 00:00:00 | |
| DO1YAY-16 | 2026-09-04 23:44:43 | 51.46327 | 8.66253 | 82° | 78km/h | 16915m | 4.0m/s | -52.8°C | 1.2% | 93.8hPa | 2.5V | 00:00:00 | 00:00:00 | 00:00:00 | |
| DL1NUX | 2026-09-04 23:44:42 | 51.46311 | 8.66095 | 80° | 80km/h | 16891m | 4.6m/s | -52.6°C | 3.8% | 94.2hPa | 2.5V | 08:30:00 | 01:26:41 | 00:00:00 | |
| BIOWL1-15 | 2026-09-04 23:44:41 | 51.46324 | 8.66221 | 82° | 78km/h | 16911m | 4.6m/s | -52.7°C | 0.4% | 93.9hPa | 2.5V | 18:12:15 | 01:26:45 | 00:00:00 | |
| DO2JMG | 2026-09-04 23:44:40 | 51.46321 | 8.66190 | 81° | 78km/h | 16906m | 5.1m/s | -52.7°C | 0.4% | 94hPa | 2.5V | 18:12:15 | 01:26:44 | 00:00:00 | |
| HSKMA3-T | 2026-09-04 23:44:36 | 51.46307 | 8.66064 | 80° | 78km/h | 16887m | 3.6m/s | -52.6°C | 0.4% | 94.2hPa | 2.5V | 18:12:15 | 01:26:40 | 00:00:00 | |
| DB0NH | 2026-09-04 23:44:35 | 51.46304 | 8.66032 | 79° | 78km/h | 16883m | 5.1m/s | -52.5°C | 3.8% | 94.2hPa | 2.5V | 00:00:00 | 01:26:39 | 00:00:00 | |
| SONCRA | 2026-09-04 23:44:33 | 51.46291 | 8.65940 | 78° | 80km/h | 16869m | 4.9m/s | -52.5°C | 1.1% | 94.5hPa | 2.5V | 00:00:00 | 00:00:00 | 00:00:00 | |
| DL1NUX | 2026-09-04 23:44:32 | 51.46274 | 8.65772 | 82° | 82km/h | 16846m | 3.5m/s | -52.5°C | 3.8% | 94.8hPa | 2.5V | 08:30:00 | 01:26:31 | 00:00:00 | |
| BIOWL1-15 | 2026-09-04 23:44:30 | 51.46284 | 8.65873 | 81° | 86km/h | 16860m | 4.3m/s | -52.5°C | 0.4% | 94.6hPa | 2.5V | 18:12:15 | 01:26:34 | 00:00:00 | |
| DO2JMG | 2026-09-04 23:44:26 | 51.46272 | 8.65740 | 84° | 80km/h | 16842m | 5.2m/s | -52.5°C | 0.3% | 94.9hPa | 2.5V | 18:12:15 | 01:26:30 | 00:00:00 | |
| HSKMA3-T | 2026-09-04 23:44:26 | 51.46270 | 8.65708 | 86° | 78km/h | 16837m | 4.9m/s | -52.5°C | 0.4% | 95hPa | 2.5V | 18:12:15 | 01:26:29 | 00:00:00 | |
| DO3MHA-12 | 2026-09-04 23:44:26 | 51.46271 | 8.65740 | 84° | 73km/h | 16842m | 5.1m/s | -52.4°C | 3.7% | 94.8hPa | 2.5V | 00:00:00 | 01:26:30 | 00:00:00 | |
| DL1CLM-18 | 2026-09-04 23:44:25 | 51.46271 | 8.65740 | 85° | 80km/h | 16842m | 5.2m/s | -52.5°C | 1.1% | 94.9hPa | 2.7V | 00:00:00 | 00:00:00 | 00:00:00 | |
| DO9LL-15 | 2026-09-04 23:44:24 | 51.46268 | 8.65677 | 86° | 78km/h | 16833m | 4.2m/s | -52.4°C | 3.7% | 95.0hPa | 2.7V | 00:00:00 | 01:26:28 | 00:00:00 | |
| DL3OBA | 2026-09-04 23:44:23 | 51.46268 | 8.65677 | 87° | 75km/h | 16833m | 4.2m/s | -52.5°C | 1.1% | 95.0hPa | 2.7V | 00:00:00 | 00:00:00 | 00:00:00 | |
| DL1NUX | 2026-09-04 23:44:22 | 51.46254 | 8.65473 | 81° | 77km/h | 16800m | 5.1m/s | -52.3°C | 3.7% | 95.5hPa | 2.7V | 08:30:00 | 01:26:21 | 00:00:00 | |
| BIOWL1-15 | 2026-09-04 23:44:19 | 51.46257 | 8.65503 | 83° | 75km/h | 16805m | 4.3m/s | -52.3°C | 0.3% | 95.5hPa | 2.5V | 18:12:15 | 01:26:22 | 00:00:00 | |
| HSKMA3-T | 2026-09-04 23:44:14 | 51.46245 | 8.65376 | 83° | 86km/h | 16786m | 4.6m/s | -52.2°C | 0.4% | 95.7hPa | 2.5V | 18:12:15 | 01:26:18 | 00:00:00 | |
| DL1ZP-14 | 2026-09-04 23:44:14 | 51.46245 | 8.65376 | 83° | 84km/h | 16786m | 4.6m/s | -52.2°C | 1.1% | 95.7hPa | 2.5V | 00:00:00 | 00:00:00 | 00:00:00 | |
| DL1NUX | 2026-09-04 23:44:12 | 51.46236 | 8.65154 | 89° | 75km/h | 16753m | 4.2m/s | -52.1°C | 3.6% | 96.2hPa | 2.7V | 08:30:00 | 01:26:11 | 00:00:00 | |
| BIOWL1-15 | 2026-09-04 23:44:12 | 51.46236 | 8.65184 | 89° | 75km/h | 16758m | 5.6m/s | -52.1°C | 0.3% | 96.1hPa | 2.5V | 18:12:15 | 01:26:12 | 00:00:00 | |
| HSKMA3-T | 2026-09-04 23:44:03 | 51.46233 | 8.65030 | 86° | 80km/h | 16734m | 5.2m/s | -52.1°C | 0.2% | 96.5hPa | 2.5V | 18:12:15 | 01:26:07 | 00:00:00 | |
| DB0UT-7 | 2026-09-04 23:44:03 | 51.46233 | 8.65030 | 87° | 82km/h | 16734m | 5.1m/s | -52.1°C | 3.5% | 96.4hPa | 2.5V | 00:00:00 | 01:26:07 | 00:00:00 | |
| DL1NUX | 2026-09-04 23:44:02 | 51.46224 | 8.64833 | 88° | 80km/h | 16706m | 4.4m/s | -52.6°C | 3.7% | 96.9hPa | 2.5V | 08:30:00 | 01:26:01 | 00:00:00 | |
| DO2JMG | 2026-09-04 23:44:00 | 51.46228 | 8.64931 | 85° | 80km/h | 16720m | 4.6m/s | -52.3°C | 0.2% | 96.7hPa | 2.7V | 18:12:15 | 01:26:04 | 00:00:00 | |
| BIOWL1-15 | 2026-09-04 23:43:58 | 51.46225 | 8.64865 | 86° | 80km/h | 16711m | 5.1m/s | -52.6°C | 0.3% | 96.8hPa | 2.5V | 18:12:15 | 01:26:02 | 00:00:00 | |
| HSKMA3-T | 2026-09-04 23:43:53 | 51.46226 | 8.64708 | 95° | 77km/h | 16689m | 4m/s | -52.7°C | 0.4% | 97.2hPa | 2.5V | 18:12:15 | 01:25:57 | 00:00:00 | |
| WPPR-10 | 2026-09-04 23:43:53 | 51.46231 | 8.64645 | 98° | 82km/h | 16680m | 5.0m/s | -52.7°C | 1.1% | 97.3hPa | 2.5V | 00:00:00 | 00:00:00 | 00:00:00 | |
| HARRO8 | 2026-09-04 23:43:49 | 51.46238 | 8.64577 | 99° | 86km/h | 16671m | 4.0m/s | -52.8°C | 1.2% | 97.5hPa | 2.5V | 00:00:00 | 00:00:00 | 00:00:00 | |
| DL1NUX | 2026-09-04 23:43:48 | 51.46244 | 8.64508 | 96° | 86km/h | 16662m | 4.3m/s | -52.8°C | 3.8% | 97.6hPa | 2.5V | 08:30:00 | 01:25:51 | 00:00:00 | |
| DO2JMG | 2026-09-04 23:43:48 | 51.46241 | 8.64542 | 98° | 86km/h | 16666m | 4.9m/s | -52.8°C | 0.5% | 97.5hPa | 2.5V | 18:12:15 | 01:25:52 | 00:00:00 | |
| BIOWL1-15 | 2026-09-04 23:43:47 | 51.46251 | 8.64405 | 96° | 86km/h | 16648m | 3.9m/s | -52.8°C | 0.4% | 97.8hPa | 2.7V | 18:12:15 | 01:25:48 | 00:00:00 | |
| HSKMA3-T | 2026-09-04 23:43:42 | 51.46255 | 8.64337 | 93° | 84km/h | 16639m | 5m/s | -52.9°C | 0.4% | 97.9hPa | 2.5V | 18:12:15 | 01:25:46 | 00:00:00 | |
| BIOWL1-15 | 2026-09-04 23:43:34 | 51.46266 | 8.64061 | 95° | 86km/h | 16603m | 4.9m/s | -53.2°C | 0.4% | 98.5hPa | 2.5V | 18:12:15 | 01:25:38 | 00:00:00 | |
| HSKMA3-T | 2026-09-04 23:43:32 | 51.46269 | 8.63992 | 93° | 84km/h | 16595m | 4.1m/s | -53.3°C | 0.5% | 98.6hPa | 2.7V | 18:12:15 | 01:25:36 | 00:00:00 | |
| BIOWL1-15 | 2026-09-04 23:43:24 | 51.46264 | 8.63726 | 86° | 82km/h | 16560m | 4.6m/s | -53.2°C | 0.4% | 99.1hPa | 2.5V | 18:12:15 | 01:25:28 | 00:00:00 | |
| DO9LL-15 | 2026-09-04 23:43:24 | 51.46264 | 8.63726 | 86° | 86km/h | 16560m | 4.5m/s | -53.1°C | 3.8% | 99.1hPa | 2.5V | 00:00:00 | 01:25:28 | 08:30:00 | |
| DL1NUX | 2026-09-04 23:43:22 | 51.46254 | 8.63485 | 86° | 86km/h | 16529m | 4.9m/s | -53.6°C | 3.9% | 99.6hPa | 2.5V | 08:30:00 | 01:25:21 | 00:00:00 | |
| HSKMA3-T | 2026-09-04 23:43:21 | 51.46260 | 8.63624 | 88° | 86km/h | 16546m | 3.8m/s | -53.3°C | 0.5% | 99.3hPa | 2.7V | 18:12:15 | 01:25:25 | 00:00:00 | |
| BIOWL1-15 | 2026-09-04 23:43:17 | 51.46251 | 8.63348 | 88° | 82km/h | 16512m | 3.6m/s | -53.7°C | 0.4% | 99.9hPa | 2.5V | 18:12:15 | 01:25:17 | 00:00:00 | |
| DJ2KF-10 | 2026-09-04 23:43:16 | 51.46253 | 8.63450 | 88° | 88km/h | 16525m | 4.0m/s | -53.6°C | 3.9% | 99.6hPa | 2.5V | 00:00:00 | 01:25:20 | 00:00:00 | |
| DO3MHA-11 | 2026-09-04 23:43:14 | 51.46251 | 8.63382 | 88° | 86km/h | 16516m | 4.5m/s | -53.6°C | 3.9% | 99.8hPa | 2.5V | 00:00:00 | 01:25:18 | 00:00:00 | |
| DL1NUX | 2026-09-04 23:43:12 | 51.46256 | 8.63153 | 91° | 86km/h | 16487m | 4m/s | -54°C | 4% | 100.3hPa | 2.5V | 08:30:00 | 01:25:11 | 00:00:00 | |
| HSKMA3-T | 2026-09-04 23:43:11 | 51.46251 | 8.63283 | 93° | 78km/h | 16503m | 4.7m/s | -53.8°C | 0.5% | 100hPa | 2.7V | 18:12:15 | 01:25:15 | 00:00:00 | |
| BIOWL1-15 | 2026-09-04 23:43:03 | 51.46259 | 8.63008 | 91° | 93km/h | 16470m | 3.9m/s | -54.1°C | 0.5% | 100.5hPa | 2.7V | 18:12:15 | 01:25:07 | 00:00:00 | |
| DO2JMG | 2026-09-04 23:43:02 | 51.46259 | 8.62971 | 90° | 91km/h | 16466m | 4.5m/s | -54.2°C | 0.5% | 100.6hPa | 2.5V | 18:12:15 | 01:25:06 | 00:00:00 | |
| HSKMA3-T | 2026-09-04 23:43:00 | 51.46259 | 8.62897 | 91° | 89km/h | 16458m | 4.5m/s | -54.3°C | 0.6% | 100.7hPa | 2.5V | 18:12:15 | 01:25:04 | 00:00:00 | |
| DO2JMG | 2026-09-04 23:42:52 | 51.46261 | 8.62616 | 88° | 88km/h | 16425m | 4.5m/s | -54.2°C | 0.6% | 101.2hPa | 2.5V | 18:12:15 | 01:24:56 | 00:00:00 | |
| HSKMA3-T | 2026-09-04 23:42:49 | 51.46259 | 8.62507 | 89° | 91km/h | 16413m | 4.6m/s | -54.2°C | 0.5% | 101.4hPa | 2.5V | 18:12:15 | 01:24:53 | 00:00:00 | |
| DL3AQ-11 | 2026-09-04 23:42:49 | 51.46258 | 8.62470 | 88° | 91km/h | 16410m | 3.3m/s | -54.1°C | 1.3% | 101.5hPa | 2.7V | 00:00:00 | 00:00:00 | 00:00:00 | |
| HARRO8 | 2026-09-04 23:42:47 | 51.46258 | 8.62433 | 88° | 91km/h | 16406m | 4.8m/s | -54.1°C | 1.3% | 101.5hPa | 2.7V | 00:00:00 | 00:00:00 | 00:00:00 | |
| BIOWL1-15 | 2026-09-04 23:42:41 | 51.46252 | 8.62206 | 85° | 93km/h | 16381m | 3.5m/s | -54°C | 0.6% | 102hPa | 2.7V | 18:12:15 | 01:24:45 | 00:00:00 | |
| HSKMA3-T | 2026-09-04 23:42:38 | 51.46247 | 8.62096 | 87° | 91km/h | 16370m | 3.7m/s | -54°C | 0.6% | 102.1hPa | 2.5V | 18:12:15 | 01:24:42 | 00:00:00 | |
| DL3AQ-11 | 2026-09-04 23:42:38 | 51.46246 | 8.62059 | 86° | 91km/h | 16366m | 4.3m/s | -53.9°C | 1.3% | 102.2hPa | 2.5V | 00:00:00 | 00:00:00 | 00:00:00 | |
| DO3MHA-12 | 2026-09-04 23:42:36 | 51.46244 | 8.62021 | 87° | 91km/h | 16362m | 5.0m/s | -53.9°C | 4.1% | 102.2hPa | 2.5V | 00:00:00 | 01:24:40 | 00:00:00 | |
| DO3DL | 2026-09-04 23:42:35 | 51.46244 | 8.62021 | 87° | 91km/h | 16362m | 5.0m/s | -53.9°C | 1.3% | 102.3hPa | 2.5V | 00:00:00 | 00:00:00 | 00:00:00 | |
| DO3MHA-11 | 2026-09-04 23:42:34 | 51.46241 | 8.61947 | 87° | 89km/h | 16353m | 4.3m/s | -53.8°C | 4.1% | 102.4hPa | 2.5V | 00:00:00 | 01:24:38 | 00:00:00 | |
| DB0UT-7 | 2026-09-04 23:42:33 | 51.46240 | 8.61909 | 88° | 86km/h | 16349m | 3.9m/s | -53.8°C | 4.0% | 102.4hPa | 2.5V | 00:00:00 | 00:00:00 | 00:00:00 | |
| DL1NUX | 2026-09-04 23:42:32 | 51.46229 | 8.61690 | 86° | 86km/h | 16326m | 3.4m/s | -53.7°C | 4% | 102.8hPa | 2.5V | 08:30:00 | 01:24:31 | 00:00:00 | |
| BIOWL1-15 | 2026-09-04 23:42:31 | 51.46237 | 8.61834 | 85° | 93km/h | 16342m | 4.7m/s | -53.8°C | 0.6% | 102.6hPa | 2.5V | 18:12:15 | 01:24:35 | 00:00:00 | |
| DO2JMG | 2026-09-04 23:42:30 | 51.46235 | 8.61797 | 84° | 91km/h | 16338m | 3.5m/s | -53.8°C | 0.6% | 102.7hPa | 2.7V | 18:12:15 | 01:24:34 | 00:00:00 | |
| HSKMA3-T | 2026-09-04 23:42:27 | 51.46229 | 8.61690 | 87° | 86km/h | 16326m | 3.4m/s | -53.7°C | 0.6% | 102.9hPa | 2.5V | 18:12:15 | 01:24:31 | 00:00:00 | |
| DJ8HS-15 | 2026-09-04 23:42:27 | 51.46229 | 8.61690 | 87° | 84km/h | 16326m | 3.3m/s | -53.7°C | 4.0% | 102.8hPa | 2.5V | 00:00:00 | 01:24:31 | 00:00:00 | |
| DO3MHA-12 | 2026-09-04 23:42:26 | 51.46228 | 8.61655 | 87° | 86km/h | 16322m | 4.1m/s | -53.7°C | 4.0% | 102.8hPa | 2.5V | 00:00:00 | 01:24:30 | 00:00:00 | |
| BUE01 | 2026-09-04 23:42:25 | 51.46225 | 8.61587 | 85° | 84km/h | 16314m | 3.3m/s | -53.7°C | 1.2% | 103.0hPa | 2.7V | 00:00:00 | 00:00:00 | 00:00:00 | |
| DO3MHA-11 | 2026-09-04 23:42:24 | 51.46225 | 8.61587 | 86° | 86km/h | 16314m | 3.2m/s | -53.6°C | 4.0% | 103.0hPa | 2.7V | 00:00:00 | 01:24:28 | 00:00:00 | |
| EDDB2-11 | 2026-09-04 23:42:23 | 51.46221 | 8.61517 | 86° | 88km/h | 16306m | 3.6m/s | -53.7°C | 1.3% | 103.2hPa | 2.7V | 00:00:00 | 00:00:00 | 00:00:00 | |
| DL1NUX | 2026-09-04 23:42:21 | 51.46212 | 8.61342 | 85° | 86km/h | 16286m | 4.5m/s | -53.7°C | 3.9% | 103.5hPa | 2.7V | 08:30:00 | 01:24:21 | 00:00:00 | |
| BIOWL1-15 | 2026-09-04 23:42:21 | 51.46220 | 8.61481 | 86° | 89km/h | 16302m | 3.3m/s | -53.6°C | 0.5% | 103.2hPa | 2.5V | 18:12:15 | 01:24:25 | 00:00:00 | |
| DO2JMG | 2026-09-04 23:42:20 | 51.46218 | 8.61446 | 85° | 88km/h | 16298m | 4.7m/s | -53.6°C | 0.5% | 103.3hPa | 2.5V | 18:12:15 | 01:24:24 | 00:00:00 | |
| HSKMA3-T | 2026-09-04 23:42:16 | 51.46211 | 8.61307 | 87° | 88km/h | 16282m | 3.6m/s | -53.7°C | 0.6% | 103.6hPa | 2.5V | 18:12:15 | 01:24:20 | 00:00:00 | |
| DO2JMG | 2026-09-04 23:42:10 | 51.46206 | 8.61108 | 88° | 82km/h | 16260m | 3.8m/s | -53.8°C | 0.6% | 103.9hPa | 2.7V | 18:12:15 | 01:24:14 | 00:00:00 | |
| HSKMA3-T | 2026-09-04 23:42:05 | 51.46203 | 8.60945 | 90° | 80km/h | 16240m | 4.2m/s | -53.8°C | 0.6% | 104.2hPa | 2.7V | 18:12:15 | 01:24:09 | 00:00:00 | |
| DO3MHA-11 | 2026-09-04 23:42:04 | 51.46203 | 8.60912 | 92° | 82km/h | 16236m | 4.0m/s | -53.8°C | 3.9% | 104.2hPa | 2.5V | 00:00:00 | 01:24:08 | 00:00:00 | |
| DB0UT-7 | 2026-09-04 23:42:03 | 51.46204 | 8.60877 | 93° | 86km/h | 16232m | 3.8m/s | -53.8°C | 3.9% | 104.3hPa | 2.5V | 00:00:00 | 01:24:07 | 00:00:00 | |
| DL1NUX | 2026-09-04 23:42:02 | 51.46217 | 8.60678 | 97° | 82km/h | 16209m | 3.1m/s | -54.2°C | 4.1% | 104.7hPa | 2.5V | 08:30:00 | 01:24:01 | 00:00:00 | |
| BIOWL1-15 | 2026-09-04 23:41:59 | 51.46225 | 8.60475 | 91° | 88km/h | 16186m | 4.1m/s | -54.3°C | 0.7% | 105.1hPa | 2.5V | 18:12:15 | 01:23:55 | 00:00:00 | |
| DO2JMG | 2026-09-04 23:41:59 | 51.46211 | 8.60743 | 97° | 82km/h | 16217m | 4.2m/s | -54°C | 0.5% | 104.6hPa | 2.7V | 18:12:15 | 01:24:03 | 00:00:00 | |
| HSKMA3-T | 2026-09-04 23:41:54 | 51.46222 | 8.60579 | 94° | 84km/h | 16197m | 4.4m/s | -54.3°C | 0.7% | 104.9hPa | 2.7V | 18:12:15 | 01:23:58 | 00:00:00 | |
| BUE01 | 2026-09-04 23:41:54 | 51.46224 | 8.60545 | 92° | 86km/h | 16193m | 3.8m/s | -54.3°C | 1.4% | 105.0hPa | 2.7V | 00:00:00 | 00:00:00 | 00:00:00 | |
| DO3DL | 2026-09-04 23:41:53 | 51.46222 | 8.60579 | 95° | 84km/h | 16197m | 4.4m/s | -54.3°C | 1.3% | 104.9hPa | 2.7V | 00:00:00 | 00:00:00 | 00:00:00 | |
| DL1NUX | 2026-09-04 23:41:52 | 51.46229 | 8.60336 | 95° | 86km/h | 16171m | 3.9m/s | -54.4°C | 4.2% | 105.3hPa | 2.7V | 08:30:00 | 01:23:51 | 00:00:00 | |
| DO2JMG | 2026-09-04 23:41:48 | 51.46227 | 8.60371 | 94° | 86km/h | 16175m | 4.4m/s | -54.4°C | 0.7% | 0hPa | 2.7V | 18:12:15 | 01:23:52 | 00:00:00 | |
| HARRO8 | 2026-09-04 23:41:45 | 51.46233 | 8.60267 | 94° | 84km/h | 16162m | 3.9m/s | -54.4°C | 1.4% | 105.5hPa | 2.5V | 00:00:00 | 00:00:00 | 00:00:00 | |
| BIOWL1-15 | 2026-09-04 23:41:43 | 51.46236 | 8.60199 | 93° | 88km/h | 16154m | 4.5m/s | -54.3°C | 0.7% | 105.6hPa | 2.5V | 18:12:15 | 01:23:47 | 00:00:00 | |
| DO2JMG | 2026-09-04 23:41:37 | 51.46239 | 8.59982 | 94° | 91km/h | 16131m | 2.9m/s | -54.2°C | 0.7% | 0hPa | 2.6V | 18:12:15 | 01:23:41 | 00:00:00 | |
| HSKMA3-T | 2026-09-04 23:41:32 | 51.46258 | 8.59808 | 103° | 88km/h | 16111m | 4.2m/s | -54.1°C | 0.7% | 106.3hPa | 2.5V | 18:12:15 | 01:23:36 | 00:00:00 | |
| DO2JMG | 2026-09-04 23:41:21 | 51.46298 | 8.59429 | 103° | 88km/h | 16067m | 4m/s | -54.5°C | 0.7% | 0hPa | 2.5V | 18:12:15 | 01:23:25 | 00:00:00 | |
| DO3DL | 2026-09-04 23:41:20 | 51.46297 | 8.59429 | 104° | 88km/h | 16068m | 4.0m/s | -54.5°C | 1.3% | 107.1hPa | 2.5V | 00:00:00 | 00:00:00 | 00:00:00 | |
| DL3OBA | 2026-09-04 23:41:19 | 51.46303 | 8.59395 | 106° | 88km/h | 16064m | 3.3m/s | -54.5°C | 1.3% | 107.1hPa | 2.5V | 00:00:00 | 00:00:00 | 00:00:00 | |
| DL3AQ-11 | 2026-09-04 23:41:18 | 51.46321 | 8.59295 | 106° | 86km/h | 16051m | 4.0m/s | -54.5°C | 1.4% | 107.3hPa | 2.5V | 00:00:00 | 00:00:00 | 00:00:00 | |
| WPPR-10 | 2026-09-04 23:41:17 | 51.46327 | 8.59261 | 105° | 89km/h | 16047m | 4.7m/s | -54.6°C | 1.4% | 107.4hPa | 2.5V | 00:00:00 | 00:00:00 | 00:00:00 | |
| DO3MHA-12 | 2026-09-04 23:41:16 | 51.46327 | 8.59261 | 106° | 93km/h | 16047m | 4.7m/s | -54.5°C | 4.2% | 107.3hPa | 2.5V | 00:00:00 | 01:23:20 | 00:00:00 | |
| DL8OAI-8 | 2026-09-04 23:41:14 | 51.46332 | 8.59225 | 104° | 93km/h | 16043m | 3.0m/s | 0°C | 0% | 0hPa | 2.5V | 00:00:00 | 00:00:00 | 00:00:00 | |
| DJ2KF-10 | 2026-09-04 23:41:13 | 51.46342 | 8.59151 | 101° | 95km/h | 16036m | 4.6m/s | -54.6°C | 4.2% | 107.5hPa | 2.5V | 00:00:00 | 01:23:17 | 08:30:00 | |
| DL1NUX | 2026-09-04 23:41:12 | 51.46367 | 8.58930 | 100° | 91km/h | 16011m | 4.5m/s | -54.6°C | 4.2% | 108hPa | 2.5V | 08:30:00 | 01:23:11 | 00:00:00 | |
| HSKMA3-T | 2026-09-04 23:41:11 | 51.46350 | 8.59077 | 99° | 91km/h | 16027m | 4.1m/s | -54.7°C | 0.8% | 107.8hPa | 2.7V | 18:12:15 | 01:23:15 | 00:00:00 | |
| BIOWL1-15 | 2026-09-04 23:41:10 | 51.46354 | 8.59040 | 100° | 91km/h | 16023m | 3.6m/s | -54.7°C | 0.8% | 107.8hPa | 2.7V | 18:12:15 | 01:23:14 | 00:00:00 | |
| DO9LL-15 | 2026-09-04 23:41:08 | 51.46362 | 8.58967 | 101° | 97km/h | 16015m | 3.6m/s | -54.6°C | 4.2% | 107.9hPa | 2.5V | 00:00:00 | 01:23:12 | 00:00:00 | |
| DO3DL | 2026-09-04 23:41:07 | 51.46367 | 8.58930 | 102° | 91km/h | 16011m | 4.6m/s | -54.6°C | 1.4% | 108.0hPa | 2.5V | 00:00:00 | 00:00:00 | 00:00:00 | |
| DO1YAY-16 | 2026-09-04 23:41:06 | 51.46376 | 8.58859 | 101° | 89km/h | 16003m | 3.5m/s | -54.6°C | 1.4% | 108.2hPa | 2.5V | 00:00:00 | 00:00:00 | 00:00:00 | |
| BIOWL9-15 | 2026-09-04 23:41:05 | 51.46376 | 8.58859 | 101° | 89km/h | 16003m | 3.5m/s | -54.6°C | 1.4% | 108.2hPa | 2.5V | 00:00:00 | 00:00:00 | 00:00:00 | |
| DO3MHA-11 | 2026-09-04 23:41:04 | 51.46380 | 8.58822 | 101° | 95km/h | 15999m | 4.6m/s | -54.6°C | 4.2% | 108.2hPa | 2.5V | 00:00:00 | 01:23:08 | 00:00:00 | |
| AU51GT2 | 2026-09-04 23:41:03 | 51.46384 | 8.58785 | 100° | 93km/h | 15995m | 3.2m/s | -54.6°C | 1.4% | 108.3hPa | 2.5V | 00:00:00 | 00:00:00 | 00:00:00 | |
| DL1NUX | 2026-09-04 23:41:02 | 51.46409 | 8.58554 | 96° | 99km/h | 15972m | 3.3m/s | -54.9°C | 4.3% | 108.7hPa | 2.5V | 08:30:00 | 01:23:01 | 00:00:00 | |
| HSKMA3-T | 2026-09-04 23:41:01 | 51.46393 | 8.58710 | 101° | 95km/h | 15987m | 3.7m/s | -54.7°C | 0.7% | 108.4hPa | 2.6V | 18:12:15 | 01:23:05 | 00:00:00 | |
| BIOWL1-15 | 2026-09-04 23:40:59 | 51.46412 | 8.58515 | 97° | 97km/h | 15968m | 4.2m/s | -54.9°C | 0.8% | 108.8hPa | 2.5V | 18:12:15 | 01:23:00 | 00:00:00 | |
| BIOWL1-15 | 2026-09-04 23:40:51 | 51.46452 | 8.58164 | 99° | 102km/h | 15933m | 4.2m/s | -54.9°C | 0.9% | 109.3hPa | 2.7V | 18:12:15 | 01:22:51 | 00:00:00 | |
| HSKMA3-T | 2026-09-04 23:40:50 | 51.46439 | 8.58284 | 101° | 100km/h | 15945m | 4.3m/s | -55°C | 0.9% | 109.1hPa | 2.5V | 18:12:15 | 01:22:54 | 00:00:00 | |
| DL1NUX | 2026-09-04 23:40:49 | 51.46452 | 8.58164 | 99° | 102km/h | 15933m | 4.2m/s | -54.9°C | 4.3% | 109.3hPa | 2.7V | 08:30:00 | 01:22:51 | 00:00:00 | |
| DO2JMG | 2026-09-04 23:40:45 | 51.46461 | 8.58082 | 101° | 104km/h | 15925m | 3.9m/s | -54.9°C | 0.8% | 0hPa | 2.5V | 18:12:15 | 01:22:49 | 00:00:00 | |
| DO3MHA-11 | 2026-09-04 23:40:44 | 51.46466 | 8.58040 | 101° | 104km/h | 15920m | 5.1m/s | -54.8°C | 4.3% | 109.5hPa | 2.6V | 00:00:00 | 01:22:48 | 00:00:00 | |
| DJ2KF-10 | 2026-09-04 23:40:43 | 51.46471 | 8.58000 | 101° | 100km/h | 15916m | 3.7m/s | -54.8°C | 4.3% | 109.6hPa | 2.6V | 00:00:00 | 01:22:47 | 00:00:00 | |
| DL1NUX | 2026-09-04 23:40:42 | 51.46494 | 8.57749 | 96° | 104km/h | 15891m | 3.9m/s | -54.9°C | 4.3% | 110.1hPa | 2.6V | 08:30:00 | 01:22:41 | 00:00:00 | |
| HSKMA3-T | 2026-09-04 23:40:40 | 51.46484 | 8.57875 | 98° | 106km/h | 15904m | 3.2m/s | -54.9°C | 0.9% | 109.9hPa | 2.7V | 18:12:15 | 01:22:44 | 00:00:00 | |
| DO2JMG | 2026-09-04 23:40:35 | 51.46501 | 8.57666 | 98° | 104km/h | 15882m | 3.8m/s | -55°C | 0.9% | 0hPa | 2.7V | 18:12:15 | 01:22:39 | 00:00:00 | |
| DO1YAY-16 | 2026-09-04 23:40:35 | 51.46504 | 8.57624 | 97° | 102km/h | 15877m | 5.0m/s | -55.1°C | 1.5% | 110.3hPa | 2.7V | 00:00:00 | 00:00:00 | 00:00:00 | |
| NBG1-10 | 2026-09-04 23:40:34 | 51.46504 | 8.57624 | 98° | 111km/h | 15878m | 4.9m/s | -55.0°C | 4.3% | 110.3hPa | 2.7V | 00:00:00 | 01:22:38 | 00:00:00 | |
| DL1NUX | 2026-09-04 23:40:32 | 51.46531 | 8.57344 | 96° | 99km/h | 15847m | 4.2m/s | -55.2°C | 4.4% | 110.8hPa | 2.7V | 08:30:00 | 01:22:31 | 00:00:00 | |
| HSKMA3-T | 2026-09-04 23:40:29 | 51.46524 | 8.57423 | 100° | 100km/h | 15856m | 4.3m/s | -55.3°C | 1% | 110.7hPa | 2.7V | 18:12:15 | 01:22:33 | 00:00:00 | |
| BIOWL1-15 | 2026-09-04 23:40:25 | 51.46536 | 8.57263 | 95° | 100km/h | 15839m | 4.4m/s | -55.3°C | 1% | 111hPa | 2.6V | 18:12:15 | 01:22:29 | 00:00:00 | |
| DF7PN | 2026-09-04 23:40:25 | 51.46538 | 8.57223 | 94° | 99km/h | 15834m | 4.0m/s | -55.3°C | 1.6% | 111.1hPa | 2.6V | 00:00:00 | 00:00:00 | 00:00:00 | |
| DO3MHA-11 | 2026-09-04 23:40:24 | 51.46538 | 8.57223 | 95° | 97km/h | 15834m | 3.9m/s | -55.2°C | 4.5% | 111.0hPa | 2.6V | 00:00:00 | 01:22:28 | 08:30:00 | |
| DL1NUX | 2026-09-04 23:40:22 | 51.46552 | 8.56948 | 95° | 95km/h | 15802m | 4m/s | -55.4°C | 4.5% | 111.6hPa | 2.6V | 08:30:00 | 01:22:21 | 00:00:00 | |
| HSKMA3-T | 2026-09-04 23:40:19 | 51.46547 | 8.57025 | 96° | 97km/h | 15812m | 4.2m/s | -55.4°C | 1% | 111.5hPa | 2.5V | 18:12:15 | 01:22:23 | 00:00:00 | |
| BIOWL1-15 | 2026-09-04 23:40:17 | 51.46572 | 8.56539 | 94° | 106km/h | 15757m | 4m/s | -55.7°C | 1.1% | 112.5hPa | 2.5V | 18:12:15 | 01:22:11 | 00:00:00 | |
| DO3MHA-12 | 2026-09-04 23:40:16 | 51.46555 | 8.56909 | 96° | 102km/h | 15798m | 4.5m/s | -55.3°C | 4.5% | 111.6hPa | 2.5V | 00:00:00 | 01:22:20 | 00:00:00 | |
| DO3MHA-11 | 2026-09-04 23:40:15 | 51.46559 | 8.56830 | 96° | 104km/h | 15790m | 3.8m/s | -55.4°C | 4.5% | 111.8hPa | 2.5V | 00:00:00 | 01:22:18 | 00:00:00 | |
| DJ2KF-10 | 2026-09-04 23:40:13 | 51.46562 | 8.56790 | 95° | 104km/h | 15785m | 5.3m/s | -55.4°C | 4.5% | 111.9hPa | 2.5V | 00:00:00 | 01:22:17 | 00:00:00 | |
| DL1NUX | 2026-09-04 23:40:12 | 51.46572 | 8.56539 | 94° | 106km/h | 15757m | 4m/s | -55.6°C | 4.6% | 112.5hPa | 2.5V | 08:30:00 | 01:22:11 | 00:00:00 | |
| DO2JMG | 2026-09-04 23:40:10 | 51.46566 | 8.56667 | 94° | 104km/h | 15771m | 4.9m/s | -55.7°C | 1.2% | 0hPa | 2.7V | 18:12:15 | 01:22:14 | 00:00:00 | |
| HSKMA3-T | 2026-09-04 23:40:08 | 51.46570 | 8.56582 | 94° | 106km/h | 15762m | 5.3m/s | -55.7°C | 1.1% | 112.3hPa | 2.7V | 18:12:15 | 01:22:12 | 00:00:00 | |
| DJ8HS-15 | 2026-09-04 23:40:07 | 51.46572 | 8.56539 | 95° | 108km/h | 15757m | 3.9m/s | -55.6°C | 4.6% | 112.4hPa | 2.5V | 00:00:00 | 01:22:11 | 00:00:00 | |
| DO3MHA-12 | 2026-09-04 23:40:06 | 51.46574 | 8.56496 | 96° | 106km/h | 15753m | 4.3m/s | -55.6°C | 4.6% | 112.5hPa | 2.5V | 00:00:00 | 01:22:10 | 00:00:00 | |
| DO3MHA-11 | 2026-09-04 23:40:04 | 51.46580 | 8.56411 | 99° | 106km/h | 15743m | 4.1m/s | -55.5°C | 4.5% | 112.6hPa | 2.5V | 00:00:00 | 01:22:08 | 00:00:00 | |
| DO2KSM | 2026-09-04 23:40:03 | 51.46580 | 8.56411 | 100° | 106km/h | 15743m | 4.2m/s | -55.6°C | 1.6% | 112.7hPa | 2.5V | 00:00:00 | 00:00:00 | 00:00:00 | |
| DL1NUX | 2026-09-04 23:40:02 | 51.46603 | 8.56113 | 94° | 110km/h | 15713m | 4.7m/s | -55.4°C | 4.5% | 113.2hPa | 2.5V | 08:30:00 | 01:22:01 | 00:00:00 | |
| BIOWL1-15 | 2026-09-04 23:40:00 | 51.46607 | 8.55982 | 93° | 110km/h | 15699m | 4.2m/s | -55.5°C | 1.1% | 113.5hPa | 2.7V | 18:12:15 | 01:21:58 | 00:00:00 | |
| HSKMA3-T | 2026-09-04 23:39:57 | 51.46603 | 8.56113 | 95° | 110km/h | 15713m | 4.7m/s | -55.4°C | 1.1% | 113.2hPa | 2.5V | 18:12:15 | 01:22:01 | 00:00:00 | |
| DF7PN | 2026-09-04 23:39:54 | 51.46609 | 8.55937 | 92° | 111km/h | 15694m | 5.0m/s | -55.5°C | 1.6% | 113.5hPa | 2.5V | 00:00:00 | 00:00:00 | 00:00:00 | |
| SONCRA | 2026-09-04 23:39:53 | 51.46609 | 8.55937 | 92° | 111km/h | 15694m | 5.0m/s | -55.5°C | 1.6% | 113.5hPa | 2.5V | 00:00:00 | 00:00:00 | 00:00:00 | |
| DL1NUX | 2026-09-04 23:39:52 | 51.46616 | 8.55667 | 93° | 110km/h | 15666m | 4.2m/s | -55.6°C | 4.6% | 114hPa | 2.5V | 08:30:00 | 01:21:51 | 00:00:00 | |
| HSKMA3-T | 2026-09-04 23:39:46 | 51.46618 | 8.55623 | 94° | 108km/h | 15662m | 4.9m/s | -55.6°C | 1.1% | 114.1hPa | 2.6V | 18:12:15 | 01:21:50 | 00:00:00 | |
| WPPR-10 | 2026-09-04 23:39:44 | 51.46621 | 8.55537 | 93° | 108km/h | 15653m | 3.8m/s | -55.7°C | 1.6% | 114.3hPa | 2.7V | 00:00:00 | 00:00:00 | 00:00:00 | |
| BIOWL1-15 | 2026-09-04 23:39:43 | 51.46623 | 8.55493 | 94° | 110km/h | 15649m | 5.1m/s | -55.7°C | 1.1% | 114.3hPa | 2.7V | 18:12:15 | 01:21:47 | 00:00:00 | |
| DL1NUX | 2026-09-04 23:39:42 | 51.46631 | 8.55218 | 92° | 115km/h | 15622m | 4.6m/s | -55.8°C | 4.8% | 114.8hPa | 2.7V | 08:30:00 | 01:21:41 | 00:00:00 | |
| BIOWL1-15 | 2026-09-04 23:39:36 | 51.46633 | 8.54990 | 90° | 111km/h | 15599m | 5.1m/s | -55.6°C | 1.3% | 115.2hPa | 2.6V | 18:12:15 | 01:21:36 | 00:00:00 | |
| HSKMA3-T | 2026-09-04 23:39:36 | 51.46632 | 8.55172 | 92° | 115km/h | 15618m | 3.7m/s | -55.8°C | 1.2% | 114.9hPa | 2.7V | 18:12:15 | 01:21:40 | 00:00:00 | |
| DO3MHA-12 | 2026-09-04 23:39:36 | 51.46632 | 8.55172 | 92° | 113km/h | 15618m | 3.7m/s | -55.7°C | 4.8% | 114.9hPa | 2.5V | 00:00:00 | 01:21:40 | 00:00:00 | |
| DD1CC3-15 | 2026-09-04 23:39:35 | 51.46632 | 8.55172 | 93° | 115km/h | 15618m | 3.7m/s | -55.8°C | 1.7% | 114.9hPa | 2.5V | 00:00:00 | 00:00:00 | 00:00:00 | |
| DO3MHA-11 | 2026-09-04 23:39:34 | 51.46633 | 8.55080 | 90° | 115km/h | 15608m | 4.5m/s | -55.7°C | 4.8% | 115.1hPa | 2.5V | 00:00:00 | 01:21:38 | 00:00:00 | |
| DL1NUX | 2026-09-04 23:39:32 | 51.46628 | 8.54758 | 87° | 117km/h | 15576m | 5m/s | -55.5°C | 4.7% | 115.7hPa | 2.5V | 08:30:00 | 01:21:31 | 00:00:00 | |
| DO2JMG | 2026-09-04 23:39:30 | 51.46632 | 8.54898 | 89° | 113km/h | 15591m | 4.6m/s | 0°C | 0% | 0hPa | 2.7V | 18:12:15 | 01:21:34 | 00:00:00 | |
| HSKMA3-T | 2026-09-04 23:39:26 | 51.46627 | 8.54711 | 88° | 119km/h | 15572m | 4.5m/s | -55.4°C | 1.2% | 115.8hPa | 2.6V | 18:12:15 | 01:21:30 | 00:00:00 | |
| BIOWL1-15 | 2026-09-04 23:39:24 | 51.46622 | 8.54519 | 87° | 119km/h | 15553m | 4.4m/s | -55.3°C | 1.2% | 116.2hPa | 2.7V | 18:12:15 | 01:21:26 | 00:00:00 | |
| DO2JMG | 2026-09-04 23:39:16 | 51.46612 | 8.54242 | 86° | 110km/h | 15526m | 4.8m/s | 0°C | 0% | 0hPa | 2.7V | 18:12:15 | 01:21:20 | 00:00:00 | |
| HSKMA3-T | 2026-09-04 23:39:15 | 51.46611 | 8.54198 | 87° | 110km/h | 15522m | 4.4m/s | -55°C | 1.2% | 116.7hPa | 2.7V | 18:12:15 | 01:21:19 | 00:00:00 | |
| DO3MHA-11 | 2026-09-04 23:39:14 | 51.46610 | 8.54153 | 88° | 115km/h | 15518m | 3.7m/s | -55.0°C | 4.6% | 116.7hPa | 2.7V | 00:00:00 | 01:21:18 | 00:00:00 | |
| WPPR-10 | 2026-09-04 23:39:13 | 51.46604 | 8.54016 | 86° | 113km/h | 15504m | 4.2m/s | -54.9°C | 1.7% | 117.0hPa | 2.7V | 00:00:00 | 00:00:00 | 00:00:00 | |
| DL1NUX | 2026-09-04 23:39:12 | 51.46598 | 8.53828 | 85° | 117km/h | 15486m | 4.5m/s | -54.8°C | 4.5% | 117.3hPa | 2.7V | 08:30:00 | 01:21:11 | 00:00:00 | |
| BIOWL1-15 | 2026-09-04 23:39:12 | 51.46606 | 8.54063 | 86° | 113km/h | 15508m | 4.7m/s | -54.9°C | 1.2% | 116.9hPa | 2.6V | 18:12:15 | 01:21:16 | 00:00:00 | |
| HSKMA3-T | 2026-09-04 23:39:04 | 51.46592 | 8.53691 | 87° | 110km/h | 15472m | 4.4m/s | -54.7°C | 1.2% | 117.6hPa | 2.6V | 18:12:15 | 01:21:08 | 00:00:00 | |
| BIOWL1-15 | 2026-09-04 23:39:01 | 51.46587 | 8.53560 | 86° | 108km/h | 15459m | 4.5m/s | -54.7°C | 1.2% | 117.8hPa | 2.7V | 18:12:15 | 01:21:05 | 00:00:00 | |
| DL1NUX | 2026-09-04 23:38:59 | 51.46580 | 8.53382 | 86° | 113km/h | 15441m | 5.1m/s | -54.8°C | 4.4% | 118.2hPa | 2.6V | 08:30:00 | 01:21:01 | 00:00:00 | |
| HSKMA3-T | 2026-09-04 23:38:53 | 51.46571 | 8.53199 | 86° | 113km/h | 15422m | 4.4m/s | -55.1°C | 1.3% | 118.5hPa | 2.7V | 18:12:15 | 01:20:57 | 00:00:00 | |
| DL1NUX | 2026-09-04 23:38:52 | 51.46558 | 8.52938 | 84° | 104km/h | 15394m | 5.1m/s | -55.4°C | 4.6% | 119hPa | 2.7V | 08:30:00 | 01:20:51 | 00:00:00 | |
| BIOWL1-15 | 2026-09-04 23:38:51 | 51.46560 | 8.52980 | 85° | 106km/h | 15399m | 4.7m/s | -55.3°C | 1.3% | 118.9hPa | 2.7V | 18:12:15 | 01:20:52 | 00:00:00 | |
| DL3AQ-11 | 2026-09-04 23:38:49 | 51.46560 | 8.52980 | 85° | 104km/h | 15399m | 4.7m/s | -55.3°C | 1.7% | 118.9hPa | 2.6V | 00:00:00 | 00:00:00 | 00:00:00 | |
| HSKMA3-T | 2026-09-04 23:38:42 | 51.46545 | 8.52722 | 84° | 110km/h | 15373m | 4.9m/s | -55.6°C | 1.4% | 119.5hPa | 2.6V | 18:12:15 | 01:20:46 | 00:00:00 | |
| HSKMA3-T | 2026-09-04 23:38:32 | 51.46519 | 8.52300 | 83° | 104km/h | 15327m | 5.2m/s | -56.1°C | 1.5% | 120.3hPa | 2.7V | 18:12:15 | 01:20:36 | 00:00:00 | |
| BIOWL9-15 | 2026-09-04 23:38:31 | 51.46512 | 8.52217 | 81° | 102km/h | 15319m | 3.4m/s | -56.0°C | 1.9% | 120.5hPa | 2.7V | 00:00:00 | 00:00:00 | 00:00:00 | |
| AU51GT2 | 2026-09-04 23:38:28 | 51.46505 | 8.52135 | 83° | 102km/h | 15310m | 4.4m/s | -56.0°C | 1.9% | 120.6hPa | 2.7V | 00:00:00 | 00:00:00 | 00:00:00 | |
| DJ8HS-15 | 2026-09-04 23:38:27 | 51.46502 | 8.52093 | 83° | 111km/h | 15306m | 3.8m/s | -55.9°C | 5.0% | 120.6hPa | 2.7V | 00:00:00 | 01:20:31 | 00:00:00 | |
| DB0DAN | 2026-09-04 23:38:25 | 51.46495 | 8.52008 | 82° | 102km/h | 15297m | 4.2m/s | -56°C | 0% | 0hPa | 2.7V | 00:00:00 | 00:00:00 | 00:00:00 | |
| DO3MHA-12 | 2026-09-04 23:38:25 | 51.46495 | 8.52008 | 82° | 111km/h | 15298m | 4.2m/s | -55.9°C | 5.0% | 120.8hPa | 2.7V | 00:00:00 | 01:20:29 | 00:00:00 | |
| DB0UT-7 | 2026-09-04 23:38:24 | 51.46491 | 8.51965 | 83° | 111km/h | 15293m | 5.1m/s | -55.9°C | 5.0% | 120.9hPa | 2.5V | 00:00:00 | 00:00:00 | 00:00:00 | |
| BIOWL7-15 | 2026-09-04 23:38:23 | 51.46491 | 8.51965 | 84° | 110km/h | 15293m | 5.1m/s | -56.0°C | 1.9% | 120.9hPa | 2.6V | 00:00:00 | 00:00:00 | 00:00:00 | |
| DL1NUX | 2026-09-04 23:38:22 | 51.46467 | 8.51647 | 81° | 113km/h | 15261m | 3.3m/s | -56°C | 5% | 121.6hPa | 2.6V | 08:30:00 | 01:20:21 | 00:00:00 | |
| BIOWL1-15 | 2026-09-04 23:38:21 | 51.46481 | 8.51828 | 84° | 115km/h | 15280m | 5.6m/s | -55.9°C | 1.5% | 121.2hPa | 2.6V | 18:12:15 | 01:20:25 | 00:00:00 | |
| DO2JMG | 2026-09-04 23:38:20 | 51.46478 | 8.51782 | 83° | 113km/h | 15274m | 4.5m/s | 0°C | 0% | 0hPa | 2.7V | 18:12:15 | 01:20:24 | 00:00:00 | |
| DO3DL | 2026-09-04 23:38:18 | 51.46474 | 8.51737 | 84° | 113km/h | 15270m | 4.4m/s | -56.0°C | 1.9% | 121.4hPa | 2.6V | 00:00:00 | 00:00:00 | 00:00:00 | |
| DD1CC8 | 2026-09-04 23:38:17 | 51.46462 | 8.51602 | 79° | 111km/h | 15257m | 4.2m/s | -56.0°C | 1.8% | 121.6hPa | 2.6V | 00:00:00 | 00:00:00 | 00:00:00 | |
| SO1NDE-10 | 2026-09-04 23:38:16 | 51.46462 | 8.51602 | 80° | 113km/h | 15257m | 4.2m/s | -56.0°C | 4.9% | 121.6hPa | 2.6V | 00:00:00 | 01:20:20 | 00:00:00 | |
| DO3MHA-12 | 2026-09-04 23:38:15 | 51.46456 | 8.51558 | 78° | 111km/h | 15252m | 6.3m/s | -55.9°C | 4.9% | 121.7hPa | 2.6V | 00:00:00 | 01:20:19 | 00:00:00 | |
| DO3MHA-11 | 2026-09-04 23:38:14 | 51.46450 | 8.51515 | 76° | 111km/h | 15247m | 4.7m/s | -55.9°C | 4.9% | 121.8hPa | 2.6V | 00:00:00 | 01:20:18 | 00:00:00 | |
| DD1CC3-15 | 2026-09-04 23:38:13 | 51.46450 | 8.51515 | 76° | 108km/h | 15247m | 4.7m/s | -55.9°C | 1.9% | 121.8hPa | 2.6V | 00:00:00 | 00:00:00 | 00:00:00 | |
| DL1NUX | 2026-09-04 23:38:12 | 51.46408 | 8.51208 | 79° | 115km/h | 15216m | 4.4m/s | -55.7°C | 4.8% | 122.4hPa | 2.6V | 08:30:00 | 01:20:11 | 00:00:00 | |
| HSKMA3-T | 2026-09-04 23:38:11 | 51.46430 | 8.51389 | 78° | 110km/h | 15232m | 3.6m/s | -55.8°C | 1.4% | 122.1hPa | 2.7V | 18:12:15 | 01:20:15 | 00:00:00 | |
| HARRO8 | 2026-09-04 23:38:08 | 51.46408 | 8.51208 | 79° | 115km/h | 15216m | 4.4m/s | -55.7°C | 1.8% | 122.4hPa | 2.7V | 00:00:00 | 00:00:00 | 00:00:00 | |
| DJ8HS-15 | 2026-09-04 23:38:07 | 51.46408 | 8.51208 | 80° | 115km/h | 15216m | 4.4m/s | -55.7°C | 4.8% | 122.4hPa | 2.7V | 00:00:00 | 01:20:11 | 00:00:00 | |
| DO3MHA-12 | 2026-09-04 23:38:05 | 51.46397 | 8.51117 | 79° | 115km/h | 15207m | 4.2m/s | -55.6°C | 4.8% | 122.6hPa | 2.7V | 00:00:00 | 01:20:09 | 00:00:00 | |
| DO3MHA-11 | 2026-09-04 23:38:04 | 51.46391 | 8.51071 | 78° | 115km/h | 15203m | 4.7m/s | -55.6°C | 4.8% | 122.6hPa | 2.7V | 00:00:00 | 01:20:08 | 00:00:00 | |
| DL4BBY-15 | 2026-09-04 23:38:03 | 51.46384 | 8.51026 | 76° | 113km/h | 15199m | 4.0m/s | -55.7°C | 0% | 0hPa | 2.7V | 00:00:00 | 00:00:00 | 00:00:00 | |
| DL1NUX | 2026-09-04 23:38:02 | 51.46342 | 8.50753 | 76° | 117km/h | 15174m | 3.8m/s | -55.4°C | 4.7% | 123.2hPa | 2.7V | 08:30:00 | 01:20:01 | 00:00:00 | |
| BIOWL1-15 | 2026-09-04 23:38:01 | 51.46329 | 8.50662 | 78° | 113km/h | 15166m | 4.4m/s | -55.4°C | 1.3% | 123.4hPa | 2.6V | 18:12:15 | 01:19:59 | 00:00:00 | |
| HSKMA3-T | 2026-09-04 23:38:01 | 51.46362 | 8.50890 | 76° | 115km/h | 15187m | 4.4m/s | -55.5°C | 1.4% | 123hPa | 2.6V | 18:12:15 | 01:20:04 | 00:00:00 | |
| BIOWL9-15 | 2026-09-04 23:37:59 | 51.46355 | 8.50845 | 76° | 113km/h | 15183m | 3.7m/s | -55.5°C | 1.8% | 123.1hPa | 2.6V | 00:00:00 | 00:00:00 | 00:00:00 | |
| DL3AQ-11 | 2026-09-04 23:37:58 | 51.46342 | 8.50753 | 76° | 115km/h | 15174m | 3.8m/s | -55.4°C | 1.8% | 123.2hPa | 2.6V | 00:00:00 | 00:00:00 | 00:00:00 | |
| AU51GT2 | 2026-09-04 23:37:57 | 51.46342 | 8.50753 | 76° | 115km/h | 15174m | 3.8m/s | -55.4°C | 1.8% | 123.2hPa | 2.6V | 00:00:00 | 00:00:00 | 00:00:00 | |
| DL3OBA | 2026-09-04 23:37:56 | 51.46342 | 8.50753 | 78° | 117km/h | 15174m | 3.8m/s | -55.4°C | 1.8% | 123.3hPa | 2.6V | 00:00:00 | 00:00:00 | 00:00:00 | |
| DO3MHA-12 | 2026-09-04 23:37:55 | 51.46329 | 8.50662 | 79° | 111km/h | 15166m | 4.4m/s | 0°C | 0% | 123.4hPa | 2.6V | 00:00:00 | 01:19:59 | 00:00:00 | |
| DO3MHA-11 | 2026-09-04 23:37:54 | 51.46323 | 8.50618 | 78° | 111km/h | 15162m | 3.9m/s | -55.3°C | 4.7% | 123.4hPa | 2.6V | 00:00:00 | 01:19:58 | 00:00:00 | |
| DD1CC1-15 | 2026-09-04 23:37:53 | 51.46323 | 8.50618 | 79° | 113km/h | 15162m | 3.9m/s | -55.4°C | 1.8% | 123.5hPa | 2.6V | 00:00:00 | 00:00:00 | 00:00:00 | |
| DL1NUX | 2026-09-04 23:37:52 | 51.46272 | 8.50312 | 74° | 113km/h | 15132m | 3.8m/s | -55.3°C | 4.7% | 124hPa | 2.6V | 08:30:00 | 01:19:51 | 00:00:00 | |
| HSKMA3-T | 2026-09-04 23:37:50 | 51.46296 | 8.50441 | 74° | 111km/h | 15145m | 4.9m/s | -55.3°C | 1.3% | 123.8hPa | 2.7V | 18:12:15 | 01:19:54 | 00:00:00 | |
| BIOWL1-15 | 2026-09-04 23:37:47 | 51.46257 | 8.50224 | 76° | 113km/h | 15124m | 4.6m/s | -55.3°C | 1.2% | 124.2hPa | 2.7V | 18:12:15 | 01:19:49 | 00:00:00 | |
| DD1CC8 | 2026-09-04 23:37:46 | 51.46257 | 8.50224 | 75° | 111km/h | 15124m | 4.6m/s | -55.3°C | 1.7% | 124.2hPa | 2.7V | 00:00:00 | 00:00:00 | 00:00:00 | |
| DO3MHA-12 | 2026-09-04 23:37:45 | 51.46257 | 8.50223 | 76° | 113km/h | 15124m | 4.5m/s | 0°C | 0% | 0hPa | 2.7V | 00:00:00 | 01:19:49 | 00:00:00 | |
| DO3MHA-11 | 2026-09-04 23:37:44 | 51.46251 | 8.50179 | 77° | 111km/h | 15120m | 3.6m/s | -55.3°C | 4.7% | 124.3hPa | 2.7V | 00:00:00 | 01:19:48 | 00:00:00 | |
| DL1NUX | 2026-09-04 23:37:42 | 51.46201 | 8.49870 | 72° | 111km/h | 15090m | 4.4m/s | -55.2°C | 4.7% | 124.9hPa | 2.7V | 08:30:00 | 01:19:41 | 00:00:00 | |
| HSKMA3-T | 2026-09-04 23:37:39 | 51.46216 | 8.49956 | 75° | 111km/h | 15099m | 4.1m/s | -55.2°C | 1.2% | 124.7hPa | 2.6V | 18:12:15 | 01:19:43 | 00:00:00 | |
| DO2JMG | 2026-09-04 23:37:38 | 51.46209 | 8.49913 | 74° | 110km/h | 15095m | 4.7m/s | 0°C | 0% | 0hPa | 2.7V | 18:12:15 | 01:19:42 | 00:00:00 | |
| BIOWL1-15 | 2026-09-04 23:37:36 | 51.46176 | 8.49744 | 73° | 108km/h | 15078m | 4.6m/s | -55.2°C | 1.2% | 125.2hPa | 2.6V | 18:12:15 | 01:19:38 | 00:00:00 | |
| DO3MHA-12 | 2026-09-04 23:37:35 | 51.46184 | 8.49785 | 73° | 110km/h | 15082m | 4.3m/s | 0°C | 0% | 0hPa | 2.6V | 00:00:00 | 01:19:39 | 00:00:00 | |
| DO3MHA-11 | 2026-09-04 23:37:34 | 51.46175 | 8.49744 | 73° | 110km/h | 15078m | 4.5m/s | -55.2°C | 4.6% | 125.1hPa | 2.6V | 00:00:00 | 01:19:38 | 00:00:00 | |
| DL1NUX | 2026-09-04 23:37:32 | 51.46125 | 8.49448 | 76° | 113km/h | 15049m | 5m/s | -55.1°C | 4.7% | 125.7hPa | 2.6V | 08:30:00 | 01:19:31 | 00:00:00 | |
| HSKMA3-T | 2026-09-04 23:37:29 | 51.46138 | 8.49534 | 76° | 108km/h | 15057m | 3.9m/s | -55.2°C | 1.2% | 125.6hPa | 2.7V | 18:12:15 | 01:19:33 | 00:00:00 | |
| BIOWL1-15 | 2026-09-04 23:37:23 | 51.46045 | 8.48993 | 75° | 99km/h | 15001m | 3.7m/s | -54.8°C | 1.1% | 126.6hPa | 2.7V | 18:12:15 | 01:19:20 | 00:00:00 | |
| HSKMA3-T | 2026-09-04 23:37:19 | 51.46067 | 8.49108 | 72° | 102km/h | 15015m | 4.5m/s | -54.9°C | 1.1% | 126.4hPa | 2.6V | 18:12:15 | 01:19:23 | 00:00:00 | |
| BIOWL1-15 | 2026-09-04 23:37:12 | 51.46023 | 8.48824 | 81° | 113km/h | 14978m | 4.6m/s | -54.7°C | 1.1% | 127.1hPa | 2.6V | 18:12:15 | 01:19:16 | 00:00:00 | |
| DD1CC3-15 | 2026-09-04 23:37:11 | 51.46022 | 8.48823 | 82° | 113km/h | 14979m | 4.6m/s | -54.7°C | 1.7% | 127.1hPa | 2.6V | 00:00:00 | 00:00:00 | 00:00:00 | |
| DD1CC1-15 | 2026-09-04 23:37:10 | 51.46018 | 8.48779 | 81° | 111km/h | 14974m | 5.8m/s | -54.7°C | 1.6% | 127.2hPa | 2.6V | 00:00:00 | 00:00:00 | 00:00:00 | |
| DL1NUX | 2026-09-04 23:37:09 | 51.45995 | 8.48607 | 74° | 106km/h | 14952m | 5.7m/s | -54.5°C | 4.4% | 127.6hPa | 2.6V | 08:30:00 | 01:19:11 | 00:00:00 | |
| HSKMA3-T | 2026-09-04 23:37:09 | 51.46002 | 8.48649 | 76° | 108km/h | 14958m | 6.3m/s | -54.6°C | 1% | 127.5hPa | 2.7V | 18:12:15 | 01:19:12 | 00:00:00 | |
| DJ8HS-15 | 2026-09-04 23:37:07 | 51.45995 | 8.48607 | 75° | 104km/h | 14953m | 5.6m/s | -54.5°C | 4.4% | 127.6hPa | 2.7V | 00:00:00 | 01:19:11 | 00:00:00 | |
| HARRO8 | 2026-09-04 23:37:06 | 51.45982 | 8.48526 | 76° | 99km/h | 14943m | 6.1m/s | -54.5°C | 1.6% | 127.8hPa | 2.7V | 00:00:00 | 00:00:00 | 00:00:00 | |
| DO3MHA-12 | 2026-09-04 23:37:05 | 51.45982 | 8.48526 | 77° | 102km/h | 14943m | 6.0m/s | 0°C | 0% | 0hPa | 2.7V | 00:00:00 | 01:19:09 | 00:00:00 | |
| DO3MHA-11 | 2026-09-04 23:37:04 | 51.45977 | 8.48487 | 80° | 102km/h | 14937m | 5.6m/s | -54.4°C | 4.3% | 127.9hPa | 2.7V | 00:00:00 | 01:19:08 | 00:00:00 | |
| DL1NUX | 2026-09-04 23:37:02 | 51.45954 | 8.48200 | 83° | 104km/h | 14901m | 4.7m/s | -54.3°C | 4.4% | 128.6hPa | 2.7V | 08:30:00 | 01:19:01 | 00:00:00 | |
| BIOWL1-15 | 2026-09-04 23:37:01 | 51.45967 | 8.48368 | 83° | 102km/h | 14921m | 5.8m/s | -54.4°C | 1% | 128.2hPa | 2.7V | 18:12:15 | 01:19:05 | 00:00:00 | |
| HSKMA3-T | 2026-09-04 23:36:57 | 51.45954 | 8.48200 | 84° | 104km/h | 14901m | 4.7m/s | -54.3°C | 1.1% | 128.6hPa | 2.7V | 18:12:15 | 01:19:01 | 00:00:00 | |
| DO2KSM | 2026-09-04 23:36:56 | 51.45954 | 8.48199 | 85° | 104km/h | 14902m | 4.7m/s | -54.3°C | 1.6% | 128.6hPa | 2.6V | 00:00:00 | 00:00:00 | 00:00:00 | |
| DO3MHA-12 | 2026-09-04 23:36:55 | 51.45947 | 8.48115 | 83° | 106km/h | 14893m | 4.7m/s | 0°C | 0% | 0hPa | 2.6V | 00:00:00 | 01:18:59 | 00:00:00 | |
| DO3MHA-11 | 2026-09-04 23:36:54 | 51.45943 | 8.48071 | 81° | 106km/h | 14888m | 4.9m/s | -54.1°C | 4.4% | 128.8hPa | 2.6V | 00:00:00 | 01:18:58 | 00:00:00 | |
| DL1NUX | 2026-09-04 23:36:52 | 51.45912 | 8.47775 | 82° | 106km/h | 14857m | 4.4m/s | -54°C | 4.3% | 129.5hPa | 2.7V | 08:30:00 | 01:18:51 | 00:00:00 | |
| BIOWL1-15 | 2026-09-04 23:36:50 | 51.45924 | 8.47900 | 81° | 104km/h | 14870m | 4.2m/s | -54.1°C | 1% | 129.2hPa | 2.6V | 18:12:15 | 01:18:54 | 00:00:00 | |
| HSKMA3-T | 2026-09-04 23:36:46 | 51.45909 | 8.47733 | 82° | 104km/h | 14853m | 3.9m/s | -54.1°C | 1% | 129.6hPa | 2.6V | 18:12:15 | 01:18:50 | 00:00:00 | |
| SO1NDE-10 | 2026-09-04 23:36:46 | 51.45908 | 8.47733 | 83° | 108km/h | 14853m | 3.9m/s | -54.0°C | 4.3% | 129.6hPa | 2.7V | 00:00:00 | 01:18:50 | 00:00:00 | |
| DO3MHA-12 | 2026-09-04 23:36:45 | 51.45905 | 8.47691 | 83° | 106km/h | 14849m | 4.6m/s | 0°C | 0% | 0hPa | 2.7V | 00:00:00 | 01:18:49 | 00:00:00 | |
| DD1CC8 | 2026-09-04 23:36:44 | 51.45899 | 8.47610 | 83° | 100km/h | 14839m | 4.2m/s | -54.1°C | 1.6% | 129.9hPa | 2.7V | 00:00:00 | 00:00:00 | 00:00:00 | |
| BUE01 | 2026-09-04 23:36:43 | 51.45894 | 8.47527 | 84° | 108km/h | 14828m | 5.4m/s | -54.0°C | 1.5% | 130.1hPa | 2.7V | 00:00:00 | 00:00:00 | 00:00:00 | |
| DL1NUX | 2026-09-04 23:36:42 | 51.45884 | 8.47351 | 84° | 106km/h | 14808m | 5.3m/s | -54.3°C | 4.3% | 130.5hPa | 2.7V | 08:30:00 | 01:18:41 | 00:00:00 | |
| BIOWL1-15 | 2026-09-04 23:36:42 | 51.45891 | 8.47483 | 85° | 111km/h | 14823m | 4.2m/s | -54°C | 0.9% | 130.2hPa | 2.6V | 18:12:15 | 01:18:44 | 00:00:00 | |
| HSKMA3-T | 2026-09-04 23:36:36 | 51.45881 | 8.47308 | 84° | 104km/h | 14804m | 4.6m/s | -54.3°C | 1% | 130.6hPa | 2.7V | 18:12:15 | 01:18:40 | 00:00:00 | |
| HARRO8 | 2026-09-04 23:36:35 | 51.45875 | 8.47223 | 82° | 106km/h | 14793m | 4.4m/s | -54.4°C | 1.7% | 130.8hPa | 2.6V | 00:00:00 | 00:00:00 | 00:00:00 | |
| DO3DL | 2026-09-04 23:36:34 | 51.45875 | 8.47223 | 84° | 108km/h | 14794m | 4.4m/s | -54.4°C | 1.7% | 130.8hPa | 2.6V | 00:00:00 | 00:00:00 | 00:00:00 | |
| DL1NUX | 2026-09-04 23:36:32 | 51.45865 | 8.46920 | 88° | 108km/h | 14760m | 4m/s | -54.2°C | 4.4% | 131.5hPa | 2.6V | 08:30:00 | 01:18:31 | 00:00:00 | |
| BIOWL1-15 | 2026-09-04 23:36:31 | 51.45866 | 8.47006 | 88° | 106km/h | 14769m | 6.1m/s | -54.3°C | 1.1% | 131.3hPa | 2.7V | 18:12:15 | 01:18:33 | 00:00:00 | |
| HSKMA3-T | 2026-09-04 23:36:25 | 51.45864 | 8.46832 | 90° | 110km/h | 14750m | 4.3m/s | -54.2°C | 1.1% | 131.7hPa | 2.6V | 18:12:15 | 01:18:29 | 00:00:00 | |
| BIOWL1-15 | 2026-09-04 23:36:18 | 51.45852 | 8.46516 | 86° | 110km/h | 14719m | 3.6m/s | -54.1°C | 1.1% | 132.3hPa | 2.7V | 18:12:15 | 01:18:22 | 00:00:00 | |
| HSKMA3-T | 2026-09-04 23:36:15 | 51.45847 | 8.46387 | 87° | 104km/h | 14706m | 4.2m/s | -54.1°C | 1% | 132.6hPa | 2.6V | 18:12:15 | 01:18:19 | 00:00:00 | |
| BIOWL1-15 | 2026-09-04 23:36:07 | 51.45833 | 8.45721 | 91° | 99km/h | 14638m | 4.9m/s | -54.5°C | 1.1% | 134hPa | 2.7V | 18:12:15 | 01:18:03 | 00:00:00 | |
| HSKMA3-T | 2026-09-04 23:36:05 | 51.45837 | 8.45961 | 87° | 104km/h | 14663m | 4.7m/s | -54.3°C | 1.1% | 133.5hPa | 2.6V | 18:12:15 | 01:18:09 | 00:00:00 | |
| DO2JMG | 2026-09-04 23:36:01 | 51.45834 | 8.45800 | 88° | 97km/h | 14645m | 3.6m/s | 0°C | 0% | 0hPa | 2.6V | 18:12:15 | 01:18:05 | 00:00:00 | |
| DL1NUX | 2026-09-04 23:35:59 | 51.45835 | 8.45639 | 91° | 102km/h | 14629m | 4.9m/s | -54.5°C | 4.4% | 134.2hPa | 2.7V | 08:30:00 | 01:18:01 | 00:00:00 | |
| HSKMA3-T | 2026-09-04 23:35:54 | 51.45836 | 8.45515 | 91° | 104km/h | 14616m | 4.7m/s | -54.5°C | 1.2% | 134.5hPa | 2.6V | 18:12:15 | 01:17:58 | 00:00:00 | |
| BIOWL1-15 | 2026-09-04 23:35:51 | 51.45835 | 8.45390 | 88° | 102km/h | 14603m | 3.5m/s | -54.6°C | 1.1% | 134.8hPa | 2.7V | 18:12:15 | 01:17:55 | 00:00:00 | |
| DL1NUX | 2026-09-04 23:35:48 | 51.45835 | 8.45225 | 93° | 104km/h | 14587m | 3.9m/s | -54.8°C | 4.5% | 135.1hPa | 2.6V | 08:30:00 | 01:17:51 | 00:00:00 | |
| HSKMA3-T | 2026-09-04 23:35:44 | 51.45841 | 8.45097 | 95° | 106km/h | 14574m | 3.9m/s | -55.1°C | 1.3% | 135.4hPa | 2.7V | 18:12:15 | 01:17:48 | 00:00:00 | |
| DO2JMG | 2026-09-04 23:35:43 | 51.45843 | 8.45055 | 94° | 106km/h | 14569m | 4.9m/s | 0°C | 0% | 0hPa | 2.7V | 18:12:15 | 01:17:47 | 00:00:00 | |
| DL1NUX | 2026-09-04 23:35:42 | 51.45851 | 8.44790 | 90° | 111km/h | 14544m | 3.8m/s | -55.3°C | 4.7% | 136hPa | 2.6V | 08:30:00 | 01:17:41 | 00:00:00 | |
| BIOWL1-15 | 2026-09-04 23:35:40 | 51.45850 | 8.44880 | 92° | 111km/h | 14552m | 4.6m/s | -55.3°C | 1.4% | 135.8hPa | 2.7V | 18:12:15 | 01:17:43 | 00:00:00 | |
| HSKMA3-T | 2026-09-04 23:35:33 | 51.45854 | 8.44606 | 93° | 111km/h | 14526m | 3.7m/s | -55.4°C | 1.4% | 136.4hPa | 2.7V | 18:12:15 | 01:17:37 | 00:00:00 | |
| BIOWL1-15 | 2026-09-04 23:35:30 | 51.45860 | 8.44469 | 95° | 115km/h | 14513m | 4.6m/s | -55.4°C | 1.4% | 136.7hPa | 2.6V | 18:12:15 | 01:17:34 | 00:00:00 | |
| DL1NUX | 2026-09-04 23:35:30 | 51.45867 | 8.44330 | 93° | 115km/h | 14500m | 4m/s | -55.4°C | 4.7% | 137hPa | 2.7V | 08:30:00 | 01:17:31 | 00:00:00 | |
| HSKMA3-T | 2026-09-04 23:35:23 | 51.45871 | 8.44139 | 90° | 119km/h | 14481m | 5.3m/s | -55.5°C | 1.3% | 137.4hPa | 2.6V | 18:12:15 | 01:17:27 | 00:00:00 | |
| DB0UT-7 | 2026-09-04 23:35:22 | 51.45870 | 8.44091 | 89° | 124km/h | 14476m | 3.4m/s | -55.4°C | 4.7% | 137.4hPa | 2.6V | 00:00:00 | 01:17:26 | 00:00:00 | |
| DO3DL | 2026-09-04 23:35:21 | 51.45870 | 8.44091 | 90° | 119km/h | 14476m | 3.4m/s | -55.5°C | 1.8% | 137.5hPa | 2.6V | 00:00:00 | 00:00:00 | 00:00:00 | |
| DL1NUX | 2026-09-04 23:35:20 | 51.45872 | 8.43849 | 92° | 120km/h | 14456m | 4.6m/s | -55.5°C | 4.7% | 137.9hPa | 2.6V | 08:30:00 | 01:17:21 | 00:00:00 | |
| BIOWL1-15 | 2026-09-04 23:35:20 | 51.45870 | 8.43995 | 90° | 120km/h | 14469m | 4.7m/s | -55.5°C | 1.3% | 137.6hPa | 2.7V | 18:12:15 | 01:17:24 | 00:00:00 | |
| HSKMA3-T | 2026-09-04 23:35:13 | 51.45881 | 8.43654 | 95° | 120km/h | 14438m | 4.2m/s | -55.5°C | 1.3% | 138.3hPa | 2.7V | 18:12:15 | 01:17:17 | 00:00:00 | |
| BIOWL1-15 | 2026-09-04 23:35:11 | 51.45889 | 8.43408 | 92° | 126km/h | 14417m | 3.9m/s | -55.5°C | 1.4% | 138.8hPa | 2.7V | 18:12:15 | 01:17:12 | 00:00:00 | |
| BUE01 | 2026-09-04 23:35:10 | 51.45887 | 8.43508 | 92° | 120km/h | 14426m | 4.1m/s | -55.5°C | 1.8% | 138.6hPa | 2.7V | 00:00:00 | 00:00:00 | 00:00:00 | |
| DD8BA-10 | 2026-09-04 23:35:09 | 51.45888 | 8.43458 | 92° | 126km/h | 14421m | 4.7m/s | -55.5°C | 4.7% | 138.6hPa | 2.7V | 00:00:00 | 00:00:00 | 00:00:00 | |
| DL1NUX | 2026-09-04 23:35:08 | 51.45890 | 8.43357 | 91° | 126km/h | 14413m | 3.9m/s | -55.5°C | 4.7% | 138.8hPa | 2.7V | 08:30:00 | 01:17:11 | 00:00:00 | |
| HSKMA3-T | 2026-09-04 23:35:02 | 51.45895 | 8.43105 | 93° | 128km/h | 14391m | 4.2m/s | -55.6°C | 1.4% | 139.3hPa | 2.7V | 18:12:15 | 01:17:06 | 00:00:00 | |
| BIOWL1-15 | 2026-09-04 23:34:58 | 51.45899 | 8.42899 | 91° | 124km/h | 14375m | 4m/s | -55.6°C | 1.4% | 139.7hPa | 2.6V | 18:12:15 | 01:17:02 | 00:00:00 | |
| DL1ZP-14 | 2026-09-04 23:34:55 | 51.45902 | 8.42695 | 91° | 128km/h | 14358m | 3.8m/s | -55.8°C | 1.9% | 140.1hPa | 2.6V | 00:00:00 | 00:00:00 | 00:00:00 | |
| BIOWL9-15 | 2026-09-04 23:34:53 | 51.45902 | 8.42592 | 89° | 128km/h | 14349m | 3.6m/s | -55.8°C | 1.9% | 140.3hPa | 2.6V | 00:00:00 | 00:00:00 | 00:00:00 | |
| DL1NUX | 2026-09-04 23:34:52 | 51.45902 | 8.42328 | 90° | 130km/h | 14327m | 4m/s | -55.9°C | 4.8% | 140.7hPa | 2.6V | 08:30:00 | 01:16:51 | 00:00:00 | |
| DO2JMG | 2026-09-04 23:34:52 | 51.45902 | 8.42592 | 90° | 130km/h | 14349m | 3.6m/s | -55.8°C | 1.5% | 140.3hPa | 2.6V | 18:12:15 | 01:16:56 | 00:00:00 | |
| AU51GT2 | 2026-09-04 23:34:51 | 51.45902 | 8.42486 | 89° | 131km/h | 14340m | 4.5m/s | -55.9°C | 1.9% | 140.4hPa | 2.6V | 00:00:00 | 00:00:00 | 00:00:00 | |
| DL3AQ-11 | 2026-09-04 23:34:49 | 51.45902 | 8.42380 | 90° | 128km/h | 14331m | 4.7m/s | -55.9°C | 1.9% | 140.6hPa | 2.6V | 00:00:00 | 00:00:00 | 00:00:00 | |
| BIOWL1-15 | 2026-09-04 23:34:47 | 51.45905 | 8.41906 | 89° | 135km/h | 14290m | 4.7m/s | -56°C | 1.5% | 141.6hPa | 2.6V | 18:12:15 | 01:16:43 | 00:00:00 | |
| BIOWL1-15 | 2026-09-04 23:34:46 | 51.45903 | 8.41798 | 88° | 133km/h | 14282m | 3.4m/s | -56°C | 1.5% | 141.7hPa | 2.7V | 18:12:15 | 01:16:41 | 00:00:00 | |
| SO1NDE-10 | 2026-09-04 23:34:46 | 51.45903 | 8.42275 | 91° | 131km/h | 14322m | 4.9m/s | -55.9°C | 4.8% | 140.8hPa | 2.6V | 00:00:00 | 01:16:50 | 00:00:00 | |
| DF7PN | 2026-09-04 23:34:43 | 51.45904 | 8.42119 | 90° | 126km/h | 14308m | 4.3m/s | -56.0°C | 1.9% | 141.1hPa | 2.7V | 00:00:00 | 00:00:00 | 00:00:00 | |
| DL1NUX | 2026-09-04 23:34:42 | 51.45903 | 8.41798 | 88° | 133km/h | 14282m | 3.4m/s | -56°C | 5% | 141.7hPa | 2.7V | 08:30:00 | 01:16:41 | 00:00:00 | |
| HSKMA3-T | 2026-09-04 23:34:41 | 51.45905 | 8.42014 | 90° | 131km/h | 14299m | 5.3m/s | -56°C | 1.5% | 141.3hPa | 2.6V | 18:12:15 | 01:16:45 | 00:00:00 | |
| DO3MHA-11 | 2026-09-04 23:34:41 | 51.45905 | 8.42014 | 91° | 133km/h | 14299m | 5.2m/s | -56.0°C | 4.9% | 141.3hPa | 2.6V | 00:00:00 | 01:16:45 | 00:00:00 | |
| BUE01 | 2026-09-04 23:34:39 | 51.45905 | 8.41906 | 89° | 133km/h | 14290m | 4.7m/s | -56.0°C | 1.9% | 141.6hPa | 2.6V | 00:00:00 | 00:00:00 | 00:00:00 | |
| DO3DL | 2026-09-04 23:34:37 | 51.45903 | 8.41798 | 89° | 133km/h | 14282m | 3.4m/s | -56.0°C | 1.9% | 141.7hPa | 2.6V | 00:00:00 | 00:00:00 | 00:00:00 | |
| DL4BBY-15 | 2026-09-04 23:34:36 | 51.45902 | 8.41744 | 88° | 128km/h | 14278m | 4.3m/s | -56.1°C | 0% | 0hPa | 2.6V | 00:00:00 | 00:00:00 | 00:00:00 | |
| WPPR-10 | 2026-09-04 23:34:34 | 51.45896 | 8.41527 | 86° | 131km/h | 14261m | 5.0m/s | -55.9°C | 1.9% | 142.2hPa | 2.6V | 00:00:00 | 00:00:00 | 00:00:00 | |
| DL1NUX | 2026-09-04 23:34:32 | 51.45884 | 8.41265 | 85° | 130km/h | 14239m | 4.9m/s | -55.8°C | 4.9% | 142.7hPa | 2.6V | 08:30:00 | 01:16:31 | 00:00:00 | |
| DO2JMG | 2026-09-04 23:34:30 | 51.45891 | 8.41422 | 86° | 130km/h | 14252m | 4.6m/s | -55.9°C | 1.4% | 142.4hPa | 2.6V | 18:12:15 | 01:16:34 | 00:00:00 | |
| BIOWL1-15 | 2026-09-04 23:34:27 | 51.45884 | 8.41265 | 85° | 130km/h | 14239m | 4.9m/s | -55.8°C | 1.4% | 142.7hPa | 2.6V | 18:12:15 | 01:16:31 | 00:00:00 | |
| DJ8HS-15 | 2026-09-04 23:34:27 | 51.45884 | 8.41265 | 86° | 128km/h | 14239m | 4.9m/s | -55.8°C | 4.9% | 142.6hPa | 2.6V | 00:00:00 | 01:16:31 | 00:00:00 | |
| DK9SH | 2026-09-04 23:34:26 | 51.45884 | 8.41265 | 86° | 130km/h | 14239m | 4.9m/s | -55.8°C | 1.9% | 142.7hPa | 2.6V | 00:00:00 | 00:00:00 | 00:00:00 | |
| DD1CC1-15 | 2026-09-04 23:34:25 | 51.45881 | 8.41212 | 86° | 130km/h | 14234m | 4.5m/s | -55.8°C | 1.9% | 142.8hPa | 2.6V | 00:00:00 | 00:00:00 | 00:00:00 | |
| DL1ZP-14 | 2026-09-04 23:34:24 | 51.45873 | 8.41054 | 85° | 131km/h | 14221m | 3.1m/s | -55.7°C | 1.9% | 143.1hPa | 2.6V | 00:00:00 | 00:00:00 | 00:00:00 | |
| DL1NUX | 2026-09-04 23:34:22 | 51.45856 | 8.40741 | 85° | 126km/h | 14195m | 4.7m/s | -55.4°C | 4.8% | 143.7hPa | 2.6V | 08:30:00 | 01:16:21 | 00:00:00 | |
| HSKMA3-T | 2026-09-04 23:34:19 | 51.45861 | 8.40844 | 85° | 128km/h | 14203m | 5m/s | -55.5°C | 1.4% | 143.5hPa | 2.7V | 18:12:15 | 01:16:23 | 00:00:00 | |
| BIOWL1-15 | 2026-09-04 23:34:18 | 51.45853 | 8.40691 | 85° | 122km/h | 14191m | 4.4m/s | -55.4°C | 1.4% | 143.8hPa | 2.6V | 18:12:15 | 01:16:20 | 00:00:00 | |
| SO1NDE-10 | 2026-09-04 23:34:16 | 51.45853 | 8.40691 | 86° | 124km/h | 14191m | 4.3m/s | -55.4°C | 4.8% | 143.7hPa | 2.7V | 00:00:00 | 01:16:20 | 00:00:00 | |
| DL1NUX | 2026-09-04 23:34:12 | 51.45834 | 8.40240 | 84° | 128km/h | 14151m | 5m/s | -55.1°C | 4.6% | 144.7hPa | 2.7V | 08:30:00 | 01:16:11 | 00:00:00 | |
| DO2JMG | 2026-09-04 23:34:08 | 51.45836 | 8.40291 | 86° | 128km/h | 14155m | 4.1m/s | -55.1°C | 1.3% | 0hPa | 2.7V | 18:12:15 | 01:16:12 | 00:00:00 | |
| BIOWL1-15 | 2026-09-04 23:34:06 | 51.45830 | 8.40188 | 84° | 126km/h | 14146m | 4.3m/s | -55.1°C | 1.3% | 144.8hPa | 2.7V | 18:12:15 | 01:16:10 | 00:00:00 | |
| HSKMA3-T | 2026-09-04 23:33:58 | 51.45807 | 8.39785 | 87° | 126km/h | 14111m | 3.6m/s | -55.2°C | 1.3% | 145.6hPa | 2.6V | 18:12:15 | 01:16:02 | 00:00:00 | |
| BIOWL1-15 | 2026-09-04 23:33:57 | 51.45799 | 8.39634 | 84° | 126km/h | 14098m | 4.7m/s | -55.1°C | 1.3% | 145.9hPa | 2.7V | 18:12:15 | 01:15:59 | 00:00:00 | |
| DL1ZP-14 | 2026-09-04 23:33:53 | 51.45788 | 8.39483 | 83° | 120km/h | 14085m | 4.8m/s | -55.1°C | 1.9% | 146.1hPa | 2.6V | 00:00:00 | 00:00:00 | 00:00:00 | |
| DL1NUX | 2026-09-04 23:33:52 | 51.45773 | 8.39247 | 85° | 119km/h | 14064m | 4.4m/s | -55.1°C | 4.7% | 146.6hPa | 2.6V | 08:30:00 | 01:15:51 | 00:00:00 | |
| DO2JMG | 2026-09-04 23:33:52 | 51.45788 | 8.39483 | 83° | 122km/h | 14085m | 4.8m/s | -55.1°C | 1.4% | 0hPa | 2.6V | 18:12:15 | 01:15:56 | 00:00:00 | |
| HSKMA3-T | 2026-09-04 23:33:48 | 51.45776 | 8.39294 | 85° | 117km/h | 14069m | 4.3m/s | -55.1°C | 1.3% | 146.6hPa | 2.6V | 18:12:15 | 01:15:52 | 00:00:00 | |
| BIOWL1-15 | 2026-09-04 23:33:44 | 51.45766 | 8.39103 | 85° | 120km/h | 14051m | 4.6m/s | -55.2°C | 1.4% | 147hPa | 2.7V | 18:12:15 | 01:15:48 | 00:00:00 | |
| DO3DL | 2026-09-04 23:33:43 | 51.45766 | 8.39103 | 86° | 120km/h | 14051m | 4.6m/s | -55.2°C | 1.9% | 147.0hPa | 2.7V | 00:00:00 | 00:00:00 | 00:00:00 | |
| DL3AQ-11 | 2026-09-04 23:33:42 | 51.45758 | 8.38956 | 84° | 119km/h | 14037m | 5.0m/s | -55.5°C | 1.9% | 147.2hPa | 2.7V | 00:00:00 | 00:00:00 | 00:00:00 | |
| DL1NUX | 2026-09-04 23:33:41 | 51.45748 | 8.38764 | 85° | 117km/h | 14018m | 5.4m/s | -55.4°C | 4.8% | 147.7hPa | 2.7V | 08:30:00 | 01:15:41 | 00:00:00 | |
| DO2JMG | 2026-09-04 23:33:41 | 51.45758 | 8.38956 | 85° | 120km/h | 14037m | 5m/s | -55.5°C | 1.4% | 0hPa | 2.6V | 18:12:15 | 01:15:45 | 00:00:00 | |
| HSKMA3-T | 2026-09-04 23:33:37 | 51.45748 | 8.38764 | 86° | 117km/h | 14018m | 5.4m/s | -55.4°C | 1.4% | 147.7hPa | 2.7V | 18:12:15 | 01:15:41 | 00:00:00 | |
| BIOWL1-15 | 2026-09-04 23:33:34 | 51.45742 | 8.38620 | 88° | 124km/h | 14005m | 5.1m/s | -55.4°C | 1.4% | 148hPa | 2.6V | 18:12:15 | 01:15:38 | 00:00:00 | |
| WPPR-10 | 2026-09-04 23:33:32 | 51.45738 | 8.38465 | 86° | 130km/h | 13991m | 5.1m/s | -55.3°C | 1.9% | 148.3hPa | 2.7V | 00:00:00 | 00:00:00 | 00:00:00 | |
| DL1NUX | 2026-09-04 23:33:31 | 51.45729 | 8.38258 | 85° | 126km/h | 13974m | 3.6m/s | -55.3°C | 4.8% | 148.7hPa | 2.7V | 08:30:00 | 01:15:31 | 00:00:00 | |
| DO2JMG | 2026-09-04 23:33:30 | 51.45736 | 8.38412 | 86° | 128km/h | 13986m | 4.2m/s | -55.3°C | 1.4% | 0hPa | 2.6V | 18:12:15 | 01:15:34 | 00:00:00 | |
| HSKMA3-T | 2026-09-04 23:33:27 | 51.45729 | 8.38258 | 86° | 126km/h | 13974m | 3.7m/s | -55.3°C | 1.4% | 148.7hPa | 2.7V | 18:12:15 | 01:15:31 | 00:00:00 | |
| BIOWL1-15 | 2026-09-04 23:33:25 | 51.45719 | 8.38056 | 87° | 126km/h | 13956m | 4m/s | -55.3°C | 1.4% | 149.2hPa | 2.6V | 18:12:15 | 01:15:27 | 00:00:00 | |
| DO3DL | 2026-09-04 23:33:24 | 51.45724 | 8.38157 | 86° | 124km/h | 13965m | 3.9m/s | -55.2°C | 1.9% | 148.9hPa | 2.7V | 00:00:00 | 00:00:00 | 00:00:00 | |
| DL1NUX | 2026-09-04 23:33:21 | 51.45705 | 8.37742 | 85° | 131km/h | 13929m | 4.8m/s | -55.2°C | 4.7% | 149.8hPa | 2.7V | 08:30:00 | 01:15:21 | 00:00:00 | |
| DO2JMG | 2026-09-04 23:33:19 | 51.45710 | 8.37848 | 86° | 131km/h | 13938m | 5m/s | -55.3°C | 1.3% | 0hPa | 2.6V | 18:12:15 | 01:15:23 | 00:00:00 | |
| HSKMA3-T | 2026-09-04 23:33:17 | 51.45705 | 8.37742 | 85° | 131km/h | 13929m | 4.8m/s | -55.3°C | 1.3% | 149.8hPa | 2.7V | 18:12:15 | 01:15:21 | 00:00:00 | |
| BIOWL1-15 | 2026-09-04 23:33:14 | 51.45687 | 8.37484 | 83° | 126km/h | 13907m | 3.7m/s | -55.1°C | 1.3% | 150.3hPa | 2.6V | 18:12:15 | 01:15:16 | 00:00:00 | |
| DB0NH | 2026-09-04 23:33:13 | 51.45690 | 8.37535 | 84° | 128km/h | 13911m | 4.1m/s | -55.1°C | 4.7% | 150.1hPa | 2.6V | 00:00:00 | 01:15:17 | 00:00:00 | |
| DL1NUX | 2026-09-04 23:33:12 | 51.45667 | 8.37235 | 82° | 126km/h | 13885m | 3.6m/s | -55.1°C | 4.7% | 150.8hPa | 2.6V | 08:30:00 | 01:15:11 | 00:00:00 | |
| HSKMA3-T | 2026-09-04 23:33:07 | 51.45667 | 8.37235 | 83° | 126km/h | 13885m | 3.6m/s | -55.1°C | 1.3% | 150.8hPa | 2.6V | 18:12:15 | 01:15:11 | 00:00:00 | |
| BIOWL1-15 | 2026-09-04 23:33:01 | 51.45631 | 8.36870 | 80° | 131km/h | 13854m | 4.1m/s | -55°C | 1.3% | 151.6hPa | 2.7V | 18:12:15 | 01:15:04 | 00:00:00 | |
| WPPR-10 | 2026-09-04 23:33:01 | 51.45631 | 8.36870 | 79° | 131km/h | 13854m | 4.1m/s | -55.0°C | 1.8% | 151.6hPa | 2.6V | 00:00:00 | 00:00:00 | 00:00:00 | |
| DL1NUX | 2026-09-04 23:33:00 | 51.45615 | 8.36715 | 82° | 128km/h | 13841m | 3.8m/s | -54.9°C | 4.6% | 151.9hPa | 2.6V | 08:30:00 | 01:15:01 | 00:00:00 | |
| HSKMA3-T | 2026-09-04 23:32:56 | 51.45611 | 8.36664 | 82° | 128km/h | 13837m | 4.7m/s | -54.8°C | 1.2% | 151.9hPa | 2.6V | 18:12:15 | 01:15:00 | 00:00:00 | |
| DO2JMG | 2026-09-04 23:32:55 | 51.45607 | 8.36613 | 82° | 128km/h | 13832m | 4.2m/s | -54.8°C | 1.2% | 0hPa | 2.7V | 18:12:15 | 01:14:59 | 00:00:00 | |
| DD1CC1-15 | 2026-09-04 23:32:54 | 51.45603 | 8.36562 | 84° | 130km/h | 13828m | 4.3m/s | -54.7°C | 1.8% | 152.2hPa | 2.6V | 00:00:00 | 00:00:00 | 00:00:00 | |
| DB0UT-7 | 2026-09-04 23:32:52 | 51.45595 | 8.36457 | 84° | 131km/h | 13820m | 3.2m/s | -54.6°C | 4.5% | 152.3hPa | 2.6V | 00:00:00 | 00:00:00 | 00:00:00 | |
| DO3DL | 2026-09-04 23:32:51 | 51.45595 | 8.36457 | 84° | 131km/h | 13820m | 3.3m/s | -54.7°C | 1.8% | 152.4hPa | 2.6V | 00:00:00 | 00:00:00 | 00:00:00 | |
| DL1NUX | 2026-09-04 23:32:50 | 51.45570 | 8.36198 | 80° | 126km/h | 13798m | 3.4m/s | -54.5°C | 4.5% | 152.9hPa | 2.6V | 08:30:00 | 01:14:51 | 00:00:00 | |
| BIOWL1-15 | 2026-09-04 23:32:50 | 51.45586 | 8.36352 | 81° | 130km/h | 13811m | 4.4m/s | -54.6°C | 1.2% | 152.6hPa | 2.6V | 18:12:15 | 01:14:54 | 00:00:00 | |
| HSKMA3-T | 2026-09-04 23:32:46 | 51.45565 | 8.36148 | 80° | 126km/h | 13794m | 4.2m/s | -54.5°C | 1.2% | 153hPa | 2.6V | 18:12:15 | 01:14:50 | 00:00:00 | |
| DO2JMG | 2026-09-04 23:32:44 | 51.45554 | 8.36047 | 81° | 128km/h | 13786m | 3.2m/s | 0°C | 0% | 0hPa | 2.7V | 18:12:15 | 01:14:48 | 00:00:00 | |
| DK9SH | 2026-09-04 23:32:43 | 51.45553 | 8.36047 | 82° | 128km/h | 13786m | 3.2m/s | -54.4°C | 1.8% | 153.2hPa | 2.6V | 00:00:00 | 00:00:00 | 00:00:00 | |
| DB0DAN | 2026-09-04 23:32:40 | 51.45536 | 8.35843 | 82° | 122km/h | 13770m | 4.8m/s | 0°C | 0% | 0hPa | 2.6V | 00:00:00 | 00:00:00 | 00:00:00 | |
| BIOWL1-15 | 2026-09-04 23:32:39 | 51.45527 | 8.35738 | 83° | 131km/h | 13761m | 4.8m/s | -54.4°C | 1.1% | 153.8hPa | 2.7V | 18:12:15 | 01:14:42 | 00:00:00 | |
| HSKMA3-T | 2026-09-04 23:32:35 | 51.45514 | 8.35581 | 82° | 130km/h | 13747m | 5.2m/s | -54.3°C | 1.2% | 154.1hPa | 2.6V | 18:12:15 | 01:14:39 | 00:00:00 | |
| DO2JMG | 2026-09-04 23:32:32 | 51.45500 | 8.35427 | 82° | 128km/h | 13734m | 3.8m/s | 0°C | 0% | 0hPa | 2.7V | 18:12:15 | 01:14:36 | 00:00:00 | |
| DO3DL | 2026-09-04 23:32:31 | 51.45500 | 8.35427 | 83° | 128km/h | 13734m | 3.8m/s | -54.3°C | 1.8% | 154.4hPa | 2.7V | 00:00:00 | 00:00:00 | 00:00:00 | |
| WPPR-10 | 2026-09-04 23:32:29 | 51.45486 | 8.35276 | 80° | 126km/h | 13722m | 4.2m/s | -54.3°C | 1.8% | 154.7hPa | 2.7V | 00:00:00 | 00:00:00 | 00:00:00 | |
| DL1NUX | 2026-09-04 23:32:28 | 51.45477 | 8.35175 | 82° | 126km/h | 13714m | 4.6m/s | -54.3°C | 4.5% | 154.9hPa | 2.7V | 08:30:00 | 01:14:31 | 00:00:00 | |
| BIOWL1-15 | 2026-09-04 23:32:28 | 51.45454 | 8.34866 | 83° | 130km/h | 13689m | 4.9m/s | -54.1°C | 1.1% | 155.5hPa | 2.7V | 18:12:15 | 01:14:25 | 00:00:00 | |
| DJ8HS-15 | 2026-09-04 23:32:27 | 51.45477 | 8.35175 | 83° | 130km/h | 13714m | 4.5m/s | -54.2°C | 4.5% | 154.8hPa | 2.6V | 00:00:00 | 01:14:31 | 00:00:00 | |
| DB0DAN | 2026-09-04 23:32:25 | 51.45469 | 8.35073 | 84° | 122km/h | 13706m | 4.4m/s | 0°C | 0% | 0hPa | 2.6V | 00:00:00 | 00:00:00 | 00:00:00 | |
| HSKMA3-T | 2026-09-04 23:32:24 | 51.45466 | 8.35021 | 83° | 128km/h | 13702m | 4.2m/s | -54.2°C | 1.2% | 155.2hPa | 2.6V | 18:12:15 | 01:14:28 | 00:00:00 | |
| DO2JMG | 2026-09-04 23:32:22 | 51.45458 | 8.34918 | 83° | 130km/h | 13694m | 4.1m/s | 0°C | 0% | 0hPa | 2.7V | 18:12:15 | 01:14:26 | 00:00:00 | |
| DL3AQ-11 | 2026-09-04 23:32:21 | 51.45454 | 8.34866 | 82° | 128km/h | 13689m | 4.9m/s | -54.1°C | 1.8% | 155.5hPa | 2.6V | 00:00:00 | 00:00:00 | 00:00:00 | |
| DL1ZP-14 | 2026-09-04 23:32:19 | 51.45446 | 8.34762 | 82° | 126km/h | 13681m | 3.4m/s | -54.1°C | 1.8% | 155.7hPa | 2.6V | 00:00:00 | 00:00:00 | 00:00:00 | |
| DL1NUX | 2026-09-04 23:32:18 | 51.45435 | 8.34660 | 79° | 128km/h | 13673m | 3.9m/s | -54°C | 4.5% | 155.9hPa | 2.6V | 08:30:00 | 01:14:21 | 00:00:00 | |
| BIOWL1-15 | 2026-09-04 23:32:13 | 51.45413 | 8.34449 | 81° | 137km/h | 13656m | 4.6m/s | -53.9°C | 1.1% | 156.3hPa | 2.6V | 18:12:15 | 01:14:17 | 00:00:00 | |
| DL1NUX | 2026-09-04 23:32:12 | 51.45388 | 8.34131 | 82° | 124km/h | 13630m | 5.8m/s | -53.7°C | 4.3% | 156.9hPa | 2.6V | 08:30:00 | 01:14:11 | 00:00:00 | |
| DO2JMG | 2026-09-04 23:32:08 | 51.45392 | 8.34181 | 84° | 128km/h | 13635m | 4.9m/s | 0°C | 0% | 0hPa | 2.6V | 18:12:15 | 01:14:12 | 00:00:00 | |
| HSKMA3-T | 2026-09-04 23:32:03 | 51.45368 | 8.33933 | 80° | 126km/h | 13609m | 5m/s | -53.5°C | 1% | 157.4hPa | 2.6V | 18:12:15 | 01:14:07 | 00:00:00 | |
| BIOWL1-15 | 2026-09-04 23:32:02 | 51.45362 | 8.33882 | 81° | 130km/h | 13604m | 4.8m/s | -53.5°C | 1.1% | 157.6hPa | 2.6V | 18:12:15 | 01:14:06 | 00:00:00 | |
| DO2JMG | 2026-09-04 23:31:57 | 51.45341 | 8.33625 | 83° | 130km/h | 13580m | 5.6m/s | 0°C | 0% | 0hPa | 2.6V | 18:12:15 | 01:14:01 | 00:00:00 | |
| BIOWL1-15 | 2026-09-04 23:31:52 | 51.45326 | 8.33369 | 86° | 128km/h | 13556m | 5.9m/s | -53.5°C | 1% | 158.7hPa | 2.6V | 18:12:15 | 01:13:56 | 00:00:00 | |
| DL1ZP-14 | 2026-09-04 23:31:48 | 51.45318 | 8.33162 | 86° | 126km/h | 13537m | 3.6m/s | -53.7°C | 1.7% | 159.2hPa | 2.6V | 00:00:00 | 00:00:00 | 00:00:00 | |
| DO1YAY-16 | 2026-09-04 23:31:47 | 51.45313 | 8.33060 | 84° | 126km/h | 13529m | 3.8m/s | -53.7°C | 1.8% | 159.4hPa | 2.6V | 00:00:00 | 00:00:00 | 00:00:00 | |
| BIOWL9-15 | 2026-09-04 23:31:46 | 51.45313 | 8.33060 | 84° | 126km/h | 13529m | 3.8m/s | -53.7°C | 1.8% | 159.4hPa | 2.6V | 00:00:00 | 00:00:00 | 00:00:00 | |
| AU51GT2 | 2026-09-04 23:31:45 | 51.45307 | 8.32959 | 85° | 122km/h | 13521m | 4.7m/s | -53.9°C | 1.8% | 159.6hPa | 2.6V | 00:00:00 | 00:00:00 | 00:00:00 | |
| DL1CLM-18 | 2026-09-04 23:31:44 | 51.45307 | 8.32959 | 87° | 124km/h | 13521m | 4.7m/s | 0°C | 0% | 0hPa | 2.6V | 00:00:00 | 00:00:00 | 00:00:00 | |
| DL1NUX | 2026-09-04 23:31:42 | 51.45298 | 8.32594 | 88° | 131km/h | 13489m | 4.2m/s | -53.9°C | 4.5% | 160.4hPa | 2.6V | 08:30:00 | 01:13:41 | 00:00:00 | |
| BIOWL1-15 | 2026-09-04 23:31:41 | 51.45302 | 8.32754 | 88° | 131km/h | 13503m | 4.6m/s | -53.9°C | 1.2% | 160.1hPa | 2.6V | 18:12:15 | 01:13:44 | 00:00:00 | |
| HSKMA3-T | 2026-09-04 23:31:41 | 51.45303 | 8.32807 | 88° | 130km/h | 13508m | 5m/s | -53.9°C | 1.2% | 159.9hPa | 2.6V | 18:12:15 | 01:13:45 | 00:00:00 | |
| DO3DL | 2026-09-04 23:31:38 | 51.45300 | 8.32701 | 89° | 133km/h | 13499m | 4.1m/s | -53.9°C | 1.8% | 160.2hPa | 2.7V | 00:00:00 | 00:00:00 | 00:00:00 | |
| DF7PN | 2026-09-04 23:31:37 | 51.45297 | 8.32541 | 87° | 130km/h | 13485m | 3.6m/s | -53.9°C | 1.8% | 160.5hPa | 2.7V | 00:00:00 | 00:00:00 | 00:00:00 | |
| SONCRA | 2026-09-04 23:31:36 | 51.45297 | 8.32541 | 87° | 130km/h | 13485m | 3.6m/s | -53.9°C | 1.8% | 160.5hPa | 2.7V | 00:00:00 | 00:00:00 | 00:00:00 | |
| DL4BBY-15 | 2026-09-04 23:31:35 | 51.45295 | 8.32488 | 87° | 133km/h | 13481m | 4.5m/s | -54.0°C | 0% | 0hPa | 2.7V | 00:00:00 | 00:00:00 | 00:00:00 | |
| BUE01 | 2026-09-04 23:31:33 | 51.45291 | 8.32381 | 86° | 131km/h | 13472m | 4.8m/s | -53.9°C | 1.8% | 160.8hPa | 2.7V | 00:00:00 | 00:00:00 | 00:00:00 | |
| DL1NUX | 2026-09-04 23:31:32 | 51.45279 | 8.32057 | 86° | 135km/h | 13447m | 4.4m/s | -54°C | 4.6% | 161.5hPa | 2.7V | 08:30:00 | 01:13:31 | 00:00:00 | |
| BIOWL1-15 | 2026-09-04 23:31:31 | 51.45287 | 8.32274 | 87° | 133km/h | 13464m | 3.8m/s | -53.9°C | 1.3% | 161hPa | 2.6V | 18:12:15 | 01:13:35 | 00:00:00 | |
| DL3AQ-11 | 2026-09-04 23:31:29 | 51.45280 | 8.32111 | 86° | 133km/h | 13451m | 4.9m/s | -53.9°C | 1.9% | 161.4hPa | 2.6V | 00:00:00 | 00:00:00 | 00:00:00 | |
| WPPR-10 | 2026-09-04 23:31:28 | 51.45278 | 8.32057 | 86° | 133km/h | 13447m | 4.4m/s | -54.0°C | 1.9% | 161.5hPa | 2.6V | 00:00:00 | 00:00:00 | 00:00:00 | |
| DJ8HS-15 | 2026-09-04 23:31:27 | 51.45278 | 8.32057 | 87° | 133km/h | 13447m | 4.3m/s | -53.9°C | 4.6% | 161.4hPa | 2.6V | 00:00:00 | 01:13:31 | 00:00:00 | |
| DJ2KF-10 | 2026-09-04 23:31:26 | 51.45276 | 8.32003 | 87° | 131km/h | 13443m | 3.6m/s | -53.9°C | 4.6% | 161.6hPa | 2.6V | 00:00:00 | 01:13:30 | 00:00:00 | |
| HARRO8 | 2026-09-04 23:31:24 | 51.45272 | 8.31896 | 85° | 131km/h | 13434m | 4.2m/s | -54.0°C | 1.9% | 161.8hPa | 2.7V | 00:00:00 | 00:00:00 | 00:00:00 | |
| DD1CC3-15 | 2026-09-04 23:31:23 | 51.45272 | 8.31896 | 86° | 133km/h | 13434m | 4.2m/s | -54.0°C | 1.9% | 161.8hPa | 2.7V | 00:00:00 | 00:00:00 | 00:00:00 | |
| DL1NUX | 2026-09-04 23:31:22 | 51.45253 | 8.31518 | 85° | 135km/h | 13404m | 3.9m/s | -53.9°C | 4.6% | 162.5hPa | 2.7V | 08:30:00 | 01:13:21 | 00:00:00 | |
| HSKMA3-T | 2026-09-04 23:31:20 | 51.45261 | 8.31681 | 85° | 135km/h | 13417m | 4.9m/s | -53.9°C | 1.4% | 162.2hPa | 2.6V | 18:12:15 | 01:13:24 | 00:00:00 | |
| DO2JMG | 2026-09-04 23:31:17 | 51.45253 | 8.31518 | 86° | 135km/h | 13404m | 3.9m/s | -53.9°C | 1.3% | 0hPa | 2.7V | 18:12:15 | 01:13:21 | 00:00:00 | |
| BIOWL1-15 | 2026-09-04 23:31:11 | 51.45227 | 8.31091 | 85° | 131km/h | 13373m | 4.5m/s | -53.7°C | 1.4% | 163.3hPa | 2.6V | 18:12:15 | 01:13:13 | 00:00:00 | |
| HSKMA3-T | 2026-09-04 23:31:10 | 51.45230 | 8.31143 | 85° | 130km/h | 13377m | 3.6m/s | -53.8°C | 1.4% | 163.2hPa | 2.6V | 18:12:15 | 01:13:14 | 00:00:00 | |
| DO2JMG | 2026-09-04 23:31:04 | 51.45207 | 8.30829 | 82° | 130km/h | 13353m | 3.3m/s | 0°C | 0% | 0hPa | 2.6V | 18:12:15 | 01:13:08 | 00:00:00 | |
| HSKMA3-T | 2026-09-04 23:30:59 | 51.45184 | 8.30565 | 82° | 130km/h | 13331m | 4.4m/s | -53.5°C | 1.3% | 164.4hPa | 2.6V | 18:12:15 | 01:13:03 | 00:00:00 | |
| WPPR-10 | 2026-09-04 23:30:56 | 51.45171 | 8.30411 | 82° | 124km/h | 13318m | 4.4m/s | -53.4°C | 1.9% | 164.8hPa | 2.7V | 00:00:00 | 00:00:00 | 00:00:00 | |
| HARRO8 | 2026-09-04 23:30:53 | 51.45158 | 8.30262 | 81° | 124km/h | 13305m | 3.4m/s | -53.4°C | 1.9% | 165.1hPa | 2.7V | 00:00:00 | 00:00:00 | 00:00:00 | |
| DL1NUX | 2026-09-04 23:30:52 | 51.45133 | 8.29949 | 80° | 135km/h | 13282m | 4.1m/s | -53.2°C | 4.5% | 165.6hPa | 2.7V | 08:30:00 | 01:12:51 | 00:00:00 | |
| DO2JMG | 2026-09-04 23:30:51 | 51.45149 | 8.30161 | 83° | 126km/h | 13298m | 4.3m/s | 0°C | 0% | 0hPa | 2.7V | 18:12:15 | 01:12:55 | 00:00:00 | |
| BIOWL1-15 | 2026-09-04 23:30:49 | 51.45142 | 8.30057 | 84° | 131km/h | 13290m | 3.5m/s | -53.3°C | 1.3% | 165.4hPa | 2.6V | 18:12:15 | 01:12:53 | 00:00:00 | |
| DL3AQ-11 | 2026-09-04 23:30:49 | 51.45138 | 8.30003 | 82° | 133km/h | 13287m | 4.5m/s | -53.3°C | 1.9% | 165.6hPa | 2.7V | 00:00:00 | 00:00:00 | 00:00:00 | |
| DO1YAY-16 | 2026-09-04 23:30:45 | 51.45115 | 8.29793 | 79° | 126km/h | 13270m | 4.0m/s | -53.2°C | 1.9% | 166.0hPa | 2.7V | 00:00:00 | 00:00:00 | 00:00:00 | |
| BIOWL9-15 | 2026-09-04 23:30:44 | 51.45115 | 8.29793 | 79° | 126km/h | 13270m | 4.0m/s | -53.2°C | 1.9% | 166.0hPa | 2.7V | 00:00:00 | 00:00:00 | 00:00:00 | |
| AU51GT2 | 2026-09-04 23:30:43 | 51.45104 | 8.29694 | 80° | 120km/h | 13262m | 3.9m/s | -53.1°C | 1.9% | 166.2hPa | 2.7V | 00:00:00 | 00:00:00 | 00:00:00 | |
| DL1NUX | 2026-09-04 23:30:42 | 51.45079 | 8.29452 | 81° | 122km/h | 13242m | 4m/s | -52.9°C | 4.4% | 166.7hPa | 2.7V | 08:30:00 | 01:12:41 | 00:00:00 | |
| DO2JMG | 2026-09-04 23:30:41 | 51.45099 | 8.29645 | 81° | 120km/h | 13258m | 4.1m/s | 0°C | 0% | 0hPa | 2.6V | 18:12:15 | 01:12:45 | 00:00:00 | |
| HSKMA3-T | 2026-09-04 23:30:39 | 51.45089 | 8.29549 | 80° | 120km/h | 13251m | 3.7m/s | -53°C | 1.4% | 166.5hPa | 2.6V | 18:12:15 | 01:12:43 | 00:00:00 | |
| BIOWL1-15 | 2026-09-04 23:30:38 | 51.45070 | 8.29353 | 80° | 126km/h | 13233m | 5.5m/s | -52.9°C | 1.3% | 166.9hPa | 2.6V | 18:12:15 | 01:12:39 | 00:00:00 | |
| HSKMA3-T | 2026-09-04 23:30:28 | 51.45034 | 8.29000 | 83° | 120km/h | 13203m | 4.1m/s | -52.8°C | 1.4% | 167.7hPa | 2.6V | 18:12:15 | 01:12:32 | 00:00:00 | |
| DL1NUX | 2026-09-04 23:30:27 | 51.45031 | 8.28952 | 84° | 120km/h | 13198m | 5m/s | -52.7°C | 4.4% | 167.8hPa | 2.8V | 08:30:00 | 01:12:31 | 00:00:00 | |
| DJ8HS-15 | 2026-09-04 23:30:27 | 51.45031 | 8.28952 | 85° | 124km/h | 13198m | 5.0m/s | -52.7°C | 4.4% | 167.8hPa | 2.6V | 00:00:00 | 01:12:31 | 00:00:00 | |
| DC6BW-12 | 2026-09-04 23:30:26 | 51.45031 | 8.28952 | 85° | 120km/h | 13198m | 5.0m/s | -52.7°C | 2.0% | 167.8hPa | 2.6V | 00:00:00 | 00:00:00 | 00:00:00 | |
| DL3OBA | 2026-09-04 23:30:25 | 51.45026 | 8.28852 | 87° | 126km/h | 13190m | 3.3m/s | -52.7°C | 1.9% | 168.0hPa | 2.6V | 00:00:00 | 00:00:00 | 00:00:00 | |
| DL1KLB | 2026-09-04 23:30:23 | 51.45023 | 8.28801 | 86° | 128km/h | 13186m | 4.6m/s | -52.7°C | 1.9% | 168.1hPa | 2.6V | 00:00:00 | 00:00:00 | 00:00:00 | |
| DL1NUX | 2026-09-04 23:30:22 | 51.44994 | 8.28452 | 84° | 122km/h | 13155m | 5.2m/s | -53.2°C | 4.5% | 168.9hPa | 2.6V | 08:30:00 | 01:12:21 | 00:00:00 | |
| BIOWL1-15 | 2026-09-04 23:30:18 | 51.44997 | 8.28501 | 84° | 122km/h | 13160m | 4.1m/s | -53.2°C | 1.5% | 168.8hPa | 2.6V | 18:12:15 | 01:12:22 | 00:00:00 | |
| HSKMA3-T | 2026-09-04 23:30:17 | 51.44994 | 8.28452 | 84° | 122km/h | 13155m | 5.2m/s | -53.2°C | 1.5% | 168.9hPa | 2.6V | 18:12:15 | 01:12:21 | 00:00:00 | |
| DO3DL | 2026-09-04 23:30:16 | 51.44987 | 8.28353 | 86° | 122km/h | 13147m | 3.6m/s | -53.3°C | 2.0% | 169.1hPa | 2.6V | 00:00:00 | 00:00:00 | 00:00:00 | |
| BIOWL9-15 | 2026-09-04 23:30:13 | 51.44983 | 8.28256 | 86° | 119km/h | 13138m | 4.0m/s | -53.4°C | 2.0% | 169.4hPa | 2.6V | 00:00:00 | 00:00:00 | 00:00:00 | |
| DL1NUX | 2026-09-04 23:30:12 | 51.44970 | 8.27957 | 85° | 128km/h | 13112m | 4.6m/s | -53.4°C | 4.7% | 170.1hPa | 2.6V | 08:30:00 | 01:12:11 | 00:00:00 | |
| DO2JMG | 2026-09-04 23:30:12 | 51.44981 | 8.28207 | 86° | 120km/h | 13133m | 4.6m/s | 0°C | 0% | 0hPa | 2.6V | 18:12:15 | 01:12:16 | 00:00:00 | |
| BIOWL1-15 | 2026-09-04 23:30:08 | 51.44972 | 8.28009 | 86° | 126km/h | 13116m | 4m/s | -53.4°C | 1.6% | 170hPa | 2.7V | 18:12:15 | 01:12:12 | 00:00:00 | |
| HSKMA3-T | 2026-09-04 23:30:06 | 51.44967 | 8.27905 | 85° | 130km/h | 13108m | 3.8m/s | -53.4°C | 1.7% | 170.2hPa | 2.6V | 18:12:15 | 01:12:10 | 00:00:00 | |
| DO2KSM | 2026-09-04 23:30:05 | 51.44964 | 8.27853 | 86° | 130km/h | 13104m | 3.6m/s | -53.4°C | 2.1% | 170.3hPa | 2.7V | 00:00:00 | 00:00:00 | 00:00:00 | |
| DF7PN | 2026-09-04 23:30:04 | 51.44959 | 8.27748 | 86° | 130km/h | 13095m | 4.1m/s | -53.5°C | 2.1% | 170.5hPa | 2.7V | 00:00:00 | 00:00:00 | 00:00:00 | |
| DL1NUX | 2026-09-04 23:30:02 | 51.44947 | 8.27428 | 86° | 135km/h | 13070m | 4.4m/s | -53.8°C | 4.8% | 171.2hPa | 2.7V | 08:30:00 | 01:12:01 | 00:00:00 | |
| BIOWL1-15 | 2026-09-04 23:29:57 | 51.44948 | 8.27428 | 87° | 135km/h | 13070m | 4.4m/s | -53.8°C | 1.9% | 171.2hPa | 2.7V | 18:12:15 | 01:12:01 | 00:00:00 | |
| HSKMA3-T | 2026-09-04 23:29:56 | 51.44946 | 8.27373 | 87° | 135km/h | 13066m | 3.7m/s | -53.8°C | 1.9% | 171.3hPa | 2.6V | 18:12:15 | 01:12:00 | 00:00:00 | |
| WPPR-10 | 2026-09-04 23:29:54 | 51.44938 | 8.27103 | 87° | 130km/h | 13045m | 3.0m/s | -54.1°C | 2.3% | 171.9hPa | 2.7V | 00:00:00 | 00:00:00 | 00:00:00 | |
| DO3DL | 2026-09-04 23:29:53 | 51.44942 | 8.27264 | 89° | 135km/h | 13058m | 4.7m/s | -53.9°C | 2.3% | 171.6hPa | 2.7V | 00:00:00 | 00:00:00 | 00:00:00 | |
| DL1NUX | 2026-09-04 23:29:52 | 51.44934 | 8.26892 | 88° | 133km/h | 13029m | 3.6m/s | -54.1°C | 5.1% | 172.3hPa | 2.7V | 08:30:00 | 01:11:51 | 00:00:00 | |
| BIOWL1-15 | 2026-09-04 23:29:49 | 51.44934 | 8.26891 | 89° | 133km/h | 13030m | 3.6m/s | -54.1°C | 2.2% | 172.3hPa | 2.7V | 18:12:15 | 01:11:51 | 00:00:00 | |
| HSKMA3-T | 2026-09-04 23:29:45 | 51.44932 | 8.26783 | 88° | 135km/h | 13021m | 4m/s | -54.1°C | 2.3% | 172.5hPa | 2.7V | 18:12:15 | 01:11:49 | 00:00:00 | |
| DL1ZP-14 | 2026-09-04 23:29:44 | 51.44930 | 8.26728 | 87° | 137km/h | 13016m | 4.9m/s | -54.1°C | 2.4% | 172.6hPa | 2.6V | 00:00:00 | 00:00:00 | 00:00:00 | |
| DO1YAY-16 | 2026-09-04 23:29:43 | 51.44927 | 8.26615 | 86° | 139km/h | 13008m | 5.1m/s | -54.1°C | 2.5% | 172.9hPa | 2.7V | 00:00:00 | 00:00:00 | 00:00:00 | |
| DL1NUX | 2026-09-04 23:29:42 | 51.44916 | 8.26335 | 86° | 135km/h | 12987m | 4.6m/s | -54.1°C | 5.3% | 173.4hPa | 2.7V | 08:30:00 | 01:11:41 | 00:00:00 | |
| BIOWL1-15 | 2026-09-04 23:29:36 | 51.44914 | 8.26281 | 87° | 133km/h | 12983m | 3.9m/s | -54.1°C | 2.6% | 173.5hPa | 2.7V | 18:12:15 | 01:11:40 | 00:00:00 | |
| HSKMA3-T | 2026-09-04 23:29:35 | 51.44913 | 8.26227 | 88° | 133km/h | 12978m | 5m/s | -54.1°C | 2.7% | 173.7hPa | 2.6V | 18:12:15 | 01:11:39 | 00:00:00 | |
| DO3DL | 2026-09-04 23:29:33 | 51.44911 | 8.26120 | 90° | 133km/h | 12970m | 3.6m/s | -54.1°C | 2.7% | 173.9hPa | 2.6V | 00:00:00 | 00:00:00 | 00:00:00 | |
| DL1NUX | 2026-09-04 23:29:32 | 51.44902 | 8.25790 | 87° | 139km/h | 12945m | 3.5m/s | -54.1°C | 5.6% | 174.5hPa | 2.6V | 08:30:00 | 01:11:31 | 00:00:00 | |
| BIOWL1-15 | 2026-09-04 23:29:25 | 51.44898 | 8.25680 | 87° | 135km/h | 12938m | 3.6m/s | -54.2°C | 3.1% | 174.8hPa | 2.7V | 18:12:15 | 01:11:29 | 00:00:00 | |
| DC6BW-12 | 2026-09-04 23:29:24 | 51.44899 | 8.25680 | 88° | 135km/h | 12938m | 3.6m/s | -54.2°C | 2.9% | 174.8hPa | 2.6V | 00:00:00 | 00:00:00 | 00:00:00 | |
| WPPR-10 | 2026-09-04 23:29:23 | 51.44896 | 8.25570 | 88° | 135km/h | 12930m | 4.5m/s | -54.2°C | 2.9% | 175.0hPa | 2.6V | 00:00:00 | 00:00:00 | 00:00:00 | |
| DL1NUX | 2026-09-04 23:29:22 | 51.44891 | 8.25235 | 88° | 141km/h | 12905m | 4.2m/s | -54.7°C | 5.9% | 175.6hPa | 2.6V | 08:30:00 | 01:11:21 | 00:00:00 | |
| BIOWL1-15 | 2026-09-04 23:29:14 | 51.44886 | 8.24661 | 90° | 146km/h | 12864m | 4.7m/s | -55.3°C | 4.4% | 176.8hPa | 2.6V | 18:12:15 | 01:11:11 | 00:00:00 | |
| HSKMA3-T | 2026-09-04 23:29:14 | 51.44888 | 8.25065 | 89° | 139km/h | 12893m | 3.6m/s | -54.8°C | 3.7% | 176hPa | 2.6V | 18:12:15 | 01:11:18 | 00:00:00 | |
| DL1ZP-14 | 2026-09-04 23:29:13 | 51.44888 | 8.24952 | 89° | 141km/h | 12884m | 3.6m/s | -54.8°C | 3.3% | 176.2hPa | 2.6V | 00:00:00 | 00:00:00 | 00:00:00 | |
| DL1NUX | 2026-09-04 23:29:12 | 51.44886 | 8.24661 | 90° | 146km/h | 12864m | 4.7m/s | -55.3°C | 6.5% | 176.8hPa | 2.6V | 08:30:00 | 01:11:11 | 00:00:00 | |
| HSKMA3-T | 2026-09-04 23:29:04 | 51.44887 | 8.24483 | 91° | 146km/h | 12851m | 4.2m/s | -55.8°C | 4.7% | 177.1hPa | 2.7V | 18:12:15 | 01:11:08 | 00:00:00 | |
| DL1NUX | 2026-09-04 23:29:02 | 51.44889 | 8.24058 | 89° | 148km/h | 12822m | 3m/s | -56.5°C | 7.7% | 178hPa | 2.6V | 08:30:00 | 01:11:01 | 00:00:00 | |
| BIOWL1-15 | 2026-09-04 23:29:00 | 51.44890 | 8.24179 | 90° | 151km/h | 12830m | 3.9m/s | -56.3°C | 5.3% | 177.7hPa | 2.7V | 18:12:15 | 01:11:03 | 00:00:00 | |
| HSKMA3-T | 2026-09-04 23:28:53 | 51.44885 | 8.23825 | 88° | 142km/h | 12806m | 3.9m/s | -56.9°C | 5.5% | 178.4hPa | 2.6V | 18:12:15 | 01:10:57 | 00:00:00 | |
| DL1NUX | 2026-09-04 23:28:52 | 51.44878 | 8.23472 | 88° | 150km/h | 12779m | 5.1m/s | -56.9°C | 8% | 179.1hPa | 2.6V | 08:30:00 | 01:10:51 | 00:00:00 | |
| BIOWL1-15 | 2026-09-04 23:28:49 | 51.44880 | 8.23593 | 88° | 148km/h | 12788m | 4.3m/s | -57°C | 5.7% | 178.9hPa | 2.6V | 18:12:15 | 01:10:53 | 00:00:00 | |
| HSKMA3-T | 2026-09-04 23:28:43 | 51.44871 | 8.23227 | 87° | 153km/h | 12761m | 4.5m/s | -56.8°C | 6% | 179.7hPa | 2.6V | 18:12:15 | 01:10:47 | 00:00:00 | |
| DL1NUX | 2026-09-04 23:28:42 | 51.44856 | 8.22854 | 86° | 155km/h | 12736m | 4.4m/s | -56.7°C | 8.4% | 180.3hPa | 2.6V | 08:30:00 | 01:10:41 | 00:00:00 | |
| BIOWL1-15 | 2026-09-04 23:28:38 | 51.44859 | 8.22916 | 86° | 155km/h | 12741m | 3.8m/s | -56.7°C | 6.3% | 180.2hPa | 2.7V | 18:12:15 | 01:10:42 | 00:00:00 | |
| HSKMA3-T | 2026-09-04 23:28:33 | 51.44846 | 8.22604 | 86° | 155km/h | 12720m | 4.9m/s | -56.6°C | 6.5% | 180.8hPa | 2.8V | 18:12:15 | 01:10:37 | 00:00:00 | |
| BIOWL1-15 | 2026-09-04 23:28:27 | 51.44830 | 8.22228 | 86° | 153km/h | 12696m | 3.4m/s | -56.8°C | 6.9% | 181.5hPa | 2.7V | 18:12:15 | 01:10:31 | 00:00:00 | |
| HSKMA3-T | 2026-09-04 23:28:22 | 51.44816 | 8.21919 | 86° | 153km/h | 12675m | 4.4m/s | -56.9°C | 7.2% | 182.1hPa | 2.6V | 18:12:15 | 01:10:26 | 00:00:00 | |
| DL1NUX | 2026-09-04 23:28:22 | 51.44800 | 8.21610 | 84° | 153km/h | 12656m | 4.6m/s | -57°C | 9.4% | 182.7hPa | 2.6V | 08:30:00 | 01:10:21 | 00:00:00 | |
| BIOWL1-15 | 2026-09-04 23:28:17 | 51.44800 | 8.21610 | 85° | 153km/h | 12656m | 4.6m/s | -57°C | 7.5% | 182.7hPa | 2.6V | 18:12:15 | 01:10:21 | 00:00:00 | |
| SO1NDE-10 | 2026-09-04 23:28:16 | 51.44796 | 8.21547 | 85° | 153km/h | 12651m | 4.0m/s | -57.0°C | 9.5% | 182.8hPa | 2.6V | 00:00:00 | 01:10:20 | 00:00:00 | |
| DK9SH | 2026-09-04 23:28:14 | 51.44788 | 8.21424 | 85° | 151km/h | 12644m | 4.3m/s | -57.0°C | 5.9% | 183.0hPa | 2.6V | 00:00:00 | 00:00:00 | 00:00:00 | |
| DL1NUX | 2026-09-04 23:28:12 | 51.44770 | 8.20996 | 86° | 155km/h | 12616m | 5m/s | -57.1°C | 9.9% | 183.8hPa | 2.6V | 08:30:00 | 01:10:11 | 00:00:00 | |
| HSKMA3-T | 2026-09-04 23:28:11 | 51.44779 | 8.21242 | 87° | 151km/h | 12632m | 4m/s | -57.1°C | 7.9% | 183.3hPa | 2.8V | 18:12:15 | 01:10:15 | 00:00:00 | |
| BIOWL1-15 | 2026-09-04 23:28:06 | 51.44768 | 8.20933 | 86° | 157km/h | 12612m | 4m/s | -57.1°C | 8.3% | 183.9hPa | 2.6V | 18:12:15 | 01:10:10 | 00:00:00 | |
| DO9LL-15 | 2026-09-04 23:28:03 | 51.44757 | 8.20741 | 84° | 161km/h | 12599m | 4.3m/s | -57.3°C | 10.3% | 184.3hPa | 2.7V | 00:00:00 | 01:10:07 | 00:00:00 | |
| DL1NUX | 2026-09-04 23:28:02 | 51.44730 | 8.20363 | 85° | 153km/h | 12575m | 3.2m/s | -57.3°C | 10.6% | 185hPa | 2.7V | 08:30:00 | 01:10:01 | 00:00:00 | |
| HSKMA3-T | 2026-09-04 23:28:00 | 51.44743 | 8.20550 | 83° | 157km/h | 12587m | 4.2m/s | -57.3°C | 8.7% | 184.7hPa | 2.6V | 18:12:15 | 01:10:04 | 00:00:00 | |
| BIOWL1-15 | 2026-09-04 23:28:00 | 51.44728 | 8.20302 | 86° | 151km/h | 12572m | 4.5m/s | -57.3°C | 9% | 185.1hPa | 2.6V | 18:12:15 | 01:10:00 | 00:00:00 | |
| SONCRA | 2026-09-04 23:27:59 | 51.44734 | 8.20425 | 84° | 153km/h | 12579m | 4.3m/s | -57.3°C | 6.8% | 184.9hPa | 2.8V | 00:00:00 | 00:00:00 | 00:00:00 | |
| DL3AQ-11 | 2026-09-04 23:27:58 | 51.44730 | 8.20363 | 85° | 151km/h | 12575m | 3.2m/s | -57.3°C | 6.8% | 185.0hPa | 2.8V | 00:00:00 | 00:00:00 | 00:00:00 | |
| BUE01 | 2026-09-04 23:27:56 | 51.44725 | 8.20241 | 86° | 150km/h | 12568m | 3.8m/s | -57.4°C | 6.9% | 185.2hPa | 2.8V | 00:00:00 | 00:00:00 | 00:00:00 | |
| DD8BA-10 | 2026-09-04 23:27:54 | 51.44723 | 8.20180 | 87° | 155km/h | 12564m | 3.3m/s | -57.4°C | 10.9% | 185.3hPa | 2.8V | 00:00:00 | 00:00:00 | 00:00:00 | |
| DK9SH | 2026-09-04 23:27:53 | 51.44723 | 8.20180 | 88° | 151km/h | 12564m | 3.4m/s | -57.5°C | 7.0% | 185.4hPa | 2.8V | 00:00:00 | 00:00:00 | 00:00:00 | |
| DL1NUX | 2026-09-04 23:27:52 | 51.44707 | 8.19746 | 86° | 151km/h | 12536m | 4.7m/s | -57.4°C | 11.1% | 186.1hPa | 2.8V | 08:30:00 | 01:09:51 | 00:00:00 | |
| HSKMA3-T | 2026-09-04 23:27:50 | 51.44714 | 8.19929 | 87° | 155km/h | 12548m | 4.5m/s | -57.5°C | 9.2% | 185.8hPa | 2.6V | 18:12:15 | 01:09:54 | 00:00:00 | |
| BIOWL1-15 | 2026-09-04 23:27:47 | 51.44702 | 8.19622 | 87° | 153km/h | 12528m | 3.9m/s | -57.3°C | 9.4% | 186.3hPa | 2.7V | 18:12:15 | 01:09:49 | 00:00:00 | |
| HARRO8 | 2026-09-04 23:27:47 | 51.44704 | 8.19684 | 86° | 151km/h | 12532m | 4.1m/s | -57.4°C | 0% | 186.2hPa | 2.6V | 00:00:00 | 00:00:00 | 00:00:00 | |
| SO1NDE-10 | 2026-09-04 23:27:46 | 51.44704 | 8.19684 | 87° | 157km/h | 12532m | 4.0m/s | -57.3°C | 11.1% | 186.2hPa | 2.6V | 00:00:00 | 01:09:50 | 00:00:00 | |
| DL1NUX | 2026-09-04 23:27:42 | 51.44685 | 8.19115 | 86° | 159km/h | 12496m | 3.5m/s | -57.1°C | 12.2% | 187.3hPa | 2.6V | 08:30:00 | 01:09:41 | 00:00:00 | |
| HSKMA3-T | 2026-09-04 23:27:39 | 51.44689 | 8.19243 | 87° | 159km/h | 12503m | 4.5m/s | -57.2°C | 10.1% | 187.2hPa | 2.7V | 18:12:15 | 01:09:43 | 00:00:00 | |
| BIOWL9-15 | 2026-09-04 23:27:39 | 51.44687 | 8.19179 | 86° | 157km/h | 12499m | 2.8m/s | -57.1°C | 8.1% | 187.3hPa | 2.7V | 00:00:00 | 00:00:00 | 00:00:00 | |
| DL1KLB | 2026-09-04 23:27:38 | 51.44687 | 8.19179 | 88° | 159km/h | 12499m | 2.8m/s | -57.1°C | 8.1% | 187.3hPa | 2.7V | 00:00:00 | 00:00:00 | 00:00:00 | |
| DD1CC3-15 | 2026-09-04 23:27:37 | 51.44687 | 8.19179 | 88° | 159km/h | 12499m | 2.8m/s | -57.1°C | 8.2% | 187.3hPa | 2.7V | 00:00:00 | 00:00:00 | 00:00:00 | |
| AU51GT2 | 2026-09-04 23:27:36 | 51.44682 | 8.19050 | 85° | 159km/h | 12492m | 4.9m/s | -57.1°C | 8.0% | 187.5hPa | 2.7V | 00:00:00 | 00:00:00 | 00:00:00 | |
| DO3DL | 2026-09-04 23:27:34 | 51.44676 | 8.18922 | 87° | 159km/h | 12484m | 4.6m/s | -57.2°C | 7.9% | 187.7hPa | 2.7V | 00:00:00 | 00:00:00 | 00:00:00 | |
| DL1NUX | 2026-09-04 23:27:32 | 51.44660 | 8.18494 | 84° | 153km/h | 12451m | 6.9m/s | -57°C | 12.3% | 188.7hPa | 2.7V | 08:30:00 | 01:09:31 | 00:00:00 | |
| HSKMA3-T | 2026-09-04 23:27:28 | 51.44663 | 8.18555 | 85° | 151km/h | 12457m | 4.6m/s | -57.1°C | 10.8% | 188.5hPa | 2.8V | 18:12:15 | 01:09:32 | 00:00:00 | |
| DO3DL | 2026-09-04 23:27:28 | 51.44664 | 8.18555 | 86° | 151km/h | 12457m | 4.6m/s | -57.1°C | 8.2% | 188.5hPa | 2.7V | 00:00:00 | 00:00:00 | 00:00:00 | |
| DB0UT-7 | 2026-09-04 23:27:27 | 51.44660 | 8.18493 | 85° | 161km/h | 12451m | 6.9m/s | -57.0°C | 12.3% | 188.7hPa | 2.7V | 00:00:00 | 00:00:00 | 00:00:00 | |
| DD1CC8 | 2026-09-04 23:27:25 | 51.44648 | 8.18301 | 84° | 164km/h | 12432m | 3.8m/s | -57.0°C | 8.7% | 189.3hPa | 2.8V | 00:00:00 | 00:00:00 | 00:00:00 | |
| BUE01 | 2026-09-04 23:27:24 | 51.44648 | 8.18301 | 84° | 164km/h | 12432m | 3.8m/s | -57.0°C | 8.7% | 189.3hPa | 2.8V | 00:00:00 | 00:00:00 | 00:00:00 | |
| DL1NUX | 2026-09-04 23:27:22 | 51.44616 | 8.17842 | 82° | 161km/h | 12397m | 3.8m/s | -56.7°C | 13.4% | 190.3hPa | 2.8V | 08:30:00 | 01:09:21 | 00:00:00 | |
| BIOWL1-15 | 2026-09-04 23:27:20 | 51.44630 | 8.18039 | 84° | 162km/h | 12411m | 5.4m/s | -56.8°C | 11.8% | 189.9hPa | 2.6V | 18:12:15 | 01:09:24 | 00:00:00 | |
| HSKMA3-T | 2026-09-04 23:27:18 | 51.44621 | 8.17907 | 83° | 164km/h | 12400m | 3.9m/s | -56.8°C | 12% | 190.2hPa | 2.6V | 18:12:15 | 01:09:22 | 00:00:00 | |
| DL1KLB | 2026-09-04 23:27:18 | 51.44621 | 8.17907 | 84° | 164km/h | 12400m | 3.9m/s | -56.8°C | 9.1% | 190.2hPa | 2.6V | 00:00:00 | 00:00:00 | 00:00:00 | |
| DL3OBA | 2026-09-04 23:27:16 | 51.44610 | 8.17778 | 83° | 159km/h | 12392m | 6.1m/s | -56.7°C | 0% | 0hPa | 2.6V | 00:00:00 | 00:00:00 | 00:00:00 | |
| DO3DL | 2026-09-04 23:27:15 | 51.44605 | 8.17715 | 84° | 155km/h | 12387m | 4.2m/s | -56.6°C | 9.5% | 190.6hPa | 2.6V | 00:00:00 | 00:00:00 | 00:00:00 | |
| DL1NUX | 2026-09-04 23:27:12 | 51.44580 | 8.17184 | 86° | 164km/h | 12345m | 4.8m/s | -56.5°C | 15.2% | 191.8hPa | 2.6V | 08:30:00 | 01:09:11 | 00:00:00 | |
| DO2JMG | 2026-09-04 23:27:12 | 51.44594 | 8.17523 | 87° | 164km/h | 12370m | 5.9m/s | 0°C | 0% | 0hPa | 2.6V | 18:12:15 | 01:09:16 | 00:00:00 | |
| BIOWL1-15 | 2026-09-04 23:27:09 | 51.44586 | 8.17320 | 86° | 172km/h | 12355m | 5.8m/s | -56.4°C | 13.8% | 191.5hPa | 2.8V | 18:12:15 | 01:09:13 | 00:00:00 | |
| HSKMA3-T | 2026-09-04 23:27:08 | 51.44583 | 8.17251 | 86° | 170km/h | 12350m | 4.8m/s | -56.4°C | 14.1% | 191.7hPa | 2.6V | 18:12:15 | 01:09:12 | 00:00:00 | |
| BIOWL1-15 | 2026-09-04 23:27:05 | 51.44561 | 8.16677 | 87° | 157km/h | 12301m | 7.1m/s | -56.4°C | 15.9% | 193.2hPa | 2.8V | 18:12:15 | 01:09:03 | 00:00:00 | |
| DB0ND-19 | 2026-09-04 23:27:03 | 51.44556 | 8.16552 | 86° | 153km/h | 12290m | 3.8m/s | -56.4°C | 11.9% | 193.5hPa | 2.8V | 00:00:00 | 00:00:00 | 00:00:00 | |
| DL1NUX | 2026-09-04 23:27:02 | 51.44556 | 8.16552 | 86° | 155km/h | 12290m | 3.8m/s | -56.4°C | 16.3% | 193.5hPa | 2.8V | 08:30:00 | 01:09:01 | 00:00:00 | |
| HSKMA3-T | 2026-09-04 23:26:57 | 51.44556 | 8.16552 | 87° | 155km/h | 12290m | 3.8m/s | -56.4°C | 16.2% | 193.5hPa | 2.8V | 18:12:15 | 01:09:01 | 00:00:00 | |
| DO2JMG | 2026-09-04 23:26:54 | 51.44552 | 8.16361 | 90° | 161km/h | 12275m | 4.5m/s | 0°C | 0% | 0hPa | 2.6V | 18:12:15 | 01:08:58 | 00:00:00 | |
| DD1CC8 | 2026-09-04 23:26:54 | 51.44552 | 8.16295 | 89° | 162km/h | 12271m | 4.6m/s | -56.4°C | 12.5% | 194.1hPa | 2.8V | 00:00:00 | 00:00:00 | 00:00:00 | |
| BUE01 | 2026-09-04 23:26:53 | 51.44552 | 8.16295 | 89° | 162km/h | 12271m | 4.6m/s | -56.4°C | 12.5% | 194.1hPa | 2.8V | 00:00:00 | 00:00:00 | 00:00:00 | |
| DL1NUX | 2026-09-04 23:26:52 | 51.44552 | 8.15904 | 90° | 162km/h | 12247m | 2.7m/s | -56.4°C | 18.1% | 194.9hPa | 2.8V | 08:30:00 | 01:08:51 | 00:00:00 | |
| BIOWL1-15 | 2026-09-04 23:26:48 | 51.44552 | 8.15573 | 90° | 166km/h | 12228m | 3.2m/s | -56.5°C | 18.8% | 195.4hPa | 2.6V | 18:12:15 | 01:08:46 | 00:00:00 | |
| HSKMA3-T | 2026-09-04 23:26:46 | 51.44552 | 8.15838 | 90° | 162km/h | 12243m | 3.9m/s | -56.5°C | 18.1% | 195hPa | 2.8V | 18:12:15 | 01:08:50 | 00:00:00 | |
| HARRO8 | 2026-09-04 23:26:45 | 51.44552 | 8.15707 | 89° | 162km/h | 12236m | 3.8m/s | -56.4°C | 13.6% | 195.2hPa | 2.6V | 00:00:00 | 00:00:00 | 00:00:00 | |
| DL1NUX | 2026-09-04 23:26:42 | 51.44552 | 8.15240 | 91° | 164km/h | 12209m | 2.9m/s | -56.5°C | 19.2% | 196hPa | 2.6V | 08:30:00 | 01:08:41 | 00:00:00 | |
| BIOWL1-15 | 2026-09-04 23:26:38 | 51.44554 | 8.14907 | 90° | 170km/h | 12191m | 3.9m/s | -56.5°C | 20.7% | 196.6hPa | 2.8V | 18:12:15 | 01:08:36 | 00:00:00 | |
| HSKMA3-T | 2026-09-04 23:26:35 | 51.44553 | 8.15108 | 91° | 162km/h | 12202m | 3.5m/s | -56.5°C | 20.1% | 196.2hPa | 2.8V | 18:12:15 | 01:08:39 | 00:00:00 | |
| AU51GT2 | 2026-09-04 23:26:35 | 51.44553 | 8.15042 | 90° | 164km/h | 12198m | 3.4m/s | -56.5°C | 15.0% | 196.4hPa | 2.8V | 00:00:00 | 00:00:00 | 00:00:00 | |
| DL1NUX | 2026-09-04 23:26:32 | 51.44553 | 8.14565 | 90° | 170km/h | 12172m | 3.7m/s | -56.6°C | 21% | 197.2hPa | 2.8V | 08:30:00 | 01:08:31 | 00:00:00 | |
| BIOWL1-15 | 2026-09-04 23:26:24 | 51.44552 | 8.14359 | 90° | 170km/h | 12161m | 3.1m/s | -56.7°C | 22.5% | 197.5hPa | 2.8V | 18:12:15 | 01:08:28 | 00:00:00 | |
| DL1NUX | 2026-09-04 23:26:22 | 51.44550 | 8.13879 | 88° | 168km/h | 12134m | 3.1m/s | -57.6°C | 24.6% | 198.3hPa | 2.6V | 08:30:00 | 01:08:21 | 00:00:00 | |
| DO2JMG | 2026-09-04 23:26:15 | 51.44547 | 8.13743 | 87° | 168km/h | 12127m | 3.6m/s | -57.7°C | 24.5% | 0hPa | 2.6V | 18:12:15 | 01:08:19 | 00:00:00 | |
| HSKMA3-T | 2026-09-04 23:26:14 | 51.44545 | 8.13675 | 88° | 170km/h | 12123m | 3.6m/s | -57.8°C | 24.6% | 198.7hPa | 2.8V | 18:12:15 | 01:08:18 | 00:00:00 | |
| BIOWL1-15 | 2026-09-04 23:26:13 | 51.44543 | 8.13606 | 88° | 172km/h | 12119m | 4.7m/s | -57.8°C | 24.7% | 198.8hPa | 2.8V | 18:12:15 | 01:08:17 | 00:00:00 | |
| DL1NUX | 2026-09-04 23:26:12 | 51.44535 | 8.13184 | 87° | 173km/h | 12097m | 3.8m/s | -57.8°C | 24.7% | 199.5hPa | 2.8V | 08:30:00 | 01:08:11 | 00:00:00 | |
| BIOWL1-15 | 2026-09-04 23:26:05 | 51.44528 | 8.12903 | 86° | 175km/h | 12082m | 3.4m/s | -57.8°C | 25.1% | 200hPa | 2.6V | 18:12:15 | 01:08:07 | 00:00:00 | |
| DO2JMG | 2026-09-04 23:26:05 | 51.44532 | 8.13044 | 88° | 173km/h | 12090m | 3.3m/s | -57.8°C | 25% | 0hPa | 2.6V | 18:12:15 | 01:08:09 | 00:00:00 | |
| HSKMA3-T | 2026-09-04 23:26:04 | 51.44530 | 8.12973 | 87° | 173km/h | 12086m | 4.4m/s | -57.8°C | 25% | 199.9hPa | 2.6V | 18:12:15 | 01:08:08 | 00:00:00 | |
| AU51GT2 | 2026-09-04 23:26:03 | 51.44528 | 8.12903 | 86° | 173km/h | 12082m | 3.4m/s | -57.8°C | 19.9% | 200.0hPa | 2.8V | 00:00:00 | 00:00:00 | 00:00:00 | |
| DL1NUX | 2026-09-04 23:26:02 | 51.44504 | 8.12472 | 83° | 175km/h | 12058m | 3.3m/s | -57.8°C | 26% | 200.7hPa | 2.8V | 08:30:00 | 01:08:01 | 00:00:00 | |
| HSKMA3-T | 2026-09-04 23:25:54 | 51.44490 | 8.12259 | 85° | 177km/h | 12047m | 3.6m/s | -57.8°C | 25.1% | 201.1hPa | 2.6V | 18:12:15 | 01:07:58 | 00:00:00 | |
| BIOWL1-15 | 2026-09-04 23:25:52 | 51.44482 | 8.12117 | 85° | 177km/h | 12039m | 4.8m/s | -57.8°C | 25% | 201.3hPa | 2.8V | 18:12:15 | 01:07:56 | 00:00:00 | |
| BUE01 | 2026-09-04 23:25:51 | 51.44478 | 8.12045 | 84° | 175km/h | 12034m | 4.0m/s | -57.8°C | 20.0% | 201.5hPa | 2.7V | 00:00:00 | 00:00:00 | 00:00:00 | |
| DK9SH | 2026-09-04 23:25:50 | 51.44477 | 8.12045 | 85° | 177km/h | 12035m | 4.0m/s | -57.8°C | 20.0% | 201.5hPa | 2.7V | 00:00:00 | 00:00:00 | 00:00:00 | |
| DL4BBY-15 | 2026-09-04 23:25:48 | 51.44465 | 8.11831 | 85° | 175km/h | 12022m | 3.8m/s | -57.8°C | 0% | 0hPa | 2.7V | 00:00:00 | 00:00:00 | 00:00:00 | |
| DJ8HS-15 | 2026-09-04 23:25:47 | 51.44460 | 8.11760 | 84° | 175km/h | 12018m | 4.2m/s | -57.6°C | 25.5% | 201.9hPa | 2.7V | 00:00:00 | 01:07:51 | 00:00:00 | |
| DM0DOS-11 | 2026-09-04 23:25:46 | 51.44445 | 8.11547 | 83° | 177km/h | 12006m | 3.5m/s | -57.5°C | 25.3% | 202.4hPa | 2.6V | 08:30:00 | 01:07:48 | 00:00:00 | |
| HSKMA3-T | 2026-09-04 23:25:44 | 51.44445 | 8.11547 | 83° | 177km/h | 12006m | 3.6m/s | -57.5°C | 24.6% | 202.4hPa | 2.6V | 18:12:15 | 01:07:48 | 00:00:00 | |
| DL1NUX | 2026-09-04 23:25:42 | 51.44413 | 8.11055 | 84° | 175km/h | 11977m | 3.2m/s | -57.4°C | 25.2% | 203.3hPa | 2.6V | 08:30:00 | 01:07:41 | 00:00:00 | |
| BIOWL1-15 | 2026-09-04 23:25:42 | 51.44435 | 8.11406 | 83° | 173km/h | 11998m | 3.3m/s | -57.5°C | 24.6% | 202.7hPa | 2.6V | 18:12:15 | 01:07:46 | 00:00:00 | |
| HSKMA3-T | 2026-09-04 23:25:33 | 51.44396 | 8.10771 | 84° | 177km/h | 11960m | 4.2m/s | -57.2°C | 24.3% | 203.9hPa | 2.6V | 18:12:15 | 01:07:37 | 00:00:00 | |
| BIOWL1-15 | 2026-09-04 23:25:31 | 51.44386 | 8.10630 | 85° | 175km/h | 11952m | 4.8m/s | -57.2°C | 24.1% | 204.1hPa | 2.8V | 18:12:15 | 01:07:35 | 00:00:00 | |
| DK9SH | 2026-09-04 23:25:31 | 51.44386 | 8.10630 | 86° | 175km/h | 11952m | 4.8m/s | -57.2°C | 19.1% | 204.1hPa | 2.8V | 00:00:00 | 00:00:00 | 00:00:00 | |
| DL1NUX | 2026-09-04 23:25:29 | 51.44361 | 8.10135 | 85° | 175km/h | 11923m | 4.8m/s | -56.9°C | 24.6% | 205.1hPa | 2.8V | 08:30:00 | 01:07:28 | 00:00:00 | |
| HSKMA3-T | 2026-09-04 23:25:22 | 51.44353 | 8.09994 | 85° | 175km/h | 11915m | 3.9m/s | -56.8°C | 24% | 205.3hPa | 2.6V | 18:12:15 | 01:07:26 | 00:00:00 | |
| BIOWL1-15 | 2026-09-04 23:25:20 | 51.44345 | 8.09854 | 85° | 173km/h | 11906m | 4.4m/s | -56.8°C | 24% | 205.6hPa | 2.8V | 18:12:15 | 01:07:24 | 00:00:00 | |
| DL1NUX | 2026-09-04 23:25:19 | 51.44321 | 8.09432 | 84° | 173km/h | 11882m | 4.7m/s | -56.6°C | 24.5% | 206.4hPa | 2.8V | 08:30:00 | 01:07:18 | 00:00:00 | |
| BIOWL1-15 | 2026-09-04 23:25:12 | 51.44306 | 8.09151 | 85° | 175km/h | 11865m | 4.6m/s | -56.4°C | 24.2% | 206.9hPa | 2.8V | 18:12:15 | 01:07:14 | 00:00:00 | |
| HSKMA3-T | 2026-09-04 23:25:11 | 51.44309 | 8.09221 | 86° | 175km/h | 11869m | 3.7m/s | -56.5°C | 24.2% | 206.9hPa | 2.8V | 18:12:15 | 01:07:15 | 00:00:00 | |
| DO2JMG | 2026-09-04 23:25:09 | 51.44302 | 8.09080 | 85° | 175km/h | 11861m | 4m/s | 0°C | 0% | 0hPa | 2.8V | 18:12:15 | 01:07:13 | 00:00:00 | |
| BIOWL1-15 | 2026-09-04 23:25:03 | 51.44268 | 8.08377 | 85° | 175km/h | 11820m | 4.7m/s | -56.4°C | 23.9% | 208.4hPa | 2.8V | 18:12:15 | 01:07:03 | 00:00:00 | |
| HSKMA3-T | 2026-09-04 23:25:01 | 51.44276 | 8.08518 | 85° | 173km/h | 11828m | 4.8m/s | -56.4°C | 24.1% | 208.1hPa | 2.6V | 18:12:15 | 01:07:05 | 00:00:00 | |
| DO2JMG | 2026-09-04 23:24:52 | 51.44245 | 8.07882 | 86° | 175km/h | 11792m | 3.5m/s | 0°C | 0% | 0hPa | 2.6V | 18:12:15 | 01:06:56 | 00:00:00 | |
| HSKMA3-T | 2026-09-04 23:24:50 | 51.44239 | 8.07740 | 87° | 175km/h | 11784m | 3.5m/s | -56.2°C | 23.3% | 209.6hPa | 2.8V | 18:12:15 | 01:06:54 | 00:00:00 | |
| DK9SH | 2026-09-04 23:24:50 | 51.44239 | 8.07740 | 88° | 175km/h | 11784m | 3.5m/s | -56.2°C | 18.4% | 209.6hPa | 2.8V | 00:00:00 | 00:00:00 | 00:00:00 | |
| DL1NUX | 2026-09-04 23:24:49 | 51.44221 | 8.07312 | 85° | 179km/h | 11761m | 4.3m/s | -56°C | 22.8% | 210.3hPa | 2.8V | 08:30:00 | 01:06:48 | 00:00:00 | |
| BIOWL1-15 | 2026-09-04 23:24:48 | 51.44234 | 8.07599 | 87° | 175km/h | 11777m | 3.1m/s | -56.1°C | 23.1% | 209.8hPa | 2.8V | 18:12:15 | 01:06:52 | 00:00:00 | |
| HSKMA3-T | 2026-09-04 23:24:39 | 51.44205 | 8.06958 | 86° | 175km/h | 11741m | 4.2m/s | -55.9°C | 21.8% | 211.1hPa | 2.8V | 18:12:15 | 01:06:43 | 00:00:00 | |
| BIOWL1-15 | 2026-09-04 23:24:39 | 51.44198 | 8.06817 | 85° | 175km/h | 11732m | 4.5m/s | -55.8°C | 21.5% | 211.3hPa | 2.6V | 18:12:15 | 01:06:41 | 00:00:00 | |
| DO2JMG | 2026-09-04 23:24:38 | 51.44201 | 8.06887 | 86° | 173km/h | 11736m | 4m/s | 0°C | 0% | 0hPa | 2.6V | 18:12:15 | 01:06:42 | 00:00:00 | |
| DL3AQ-11 | 2026-09-04 23:24:38 | 51.44198 | 8.06817 | 85° | 175km/h | 11732m | 4.5m/s | -55.8°C | 16.8% | 211.3hPa | 2.8V | 00:00:00 | 00:00:00 | 00:00:00 | |
| DH3RM | 2026-09-04 23:24:37 | 51.44198 | 8.06817 | 86° | 175km/h | 11732m | 4.5m/s | -55.8°C | 16.8% | 211.3hPa | 2.8V | 00:00:00 | 00:00:00 | 00:00:00 | |
| DO2KSM | 2026-09-04 23:24:36 | 51.44198 | 8.06817 | 86° | 175km/h | 11732m | 4.5m/s | -55.8°C | 16.8% | 211.3hPa | 2.8V | 00:00:00 | 00:00:00 | 00:00:00 | |
| DO3DL | 2026-09-04 23:24:35 | 51.44194 | 8.06746 | 86° | 177km/h | 11728m | 4.1m/s | -55.8°C | 16.7% | 211.5hPa | 2.8V | 00:00:00 | 00:00:00 | 00:00:00 | |
| DB0NH | 2026-09-04 23:24:34 | 51.44186 | 8.06604 | 85° | 177km/h | 11720m | 3.8m/s | -55.7°C | 21.3% | 211.6hPa | 2.8V | 00:00:00 | 01:06:38 | 00:00:00 | |
| DL1ZP-14 | 2026-09-04 23:24:33 | 51.44182 | 8.06533 | 85° | 177km/h | 11716m | 4.3m/s | -55.7°C | 16.2% | 211.9hPa | 2.8V | 00:00:00 | 00:00:00 | 00:00:00 | |
| DJ2KF-10 | 2026-09-04 23:24:32 | 51.44179 | 8.06461 | 86° | 177km/h | 11712m | 4.4m/s | -55.6°C | 21.1% | 212.0hPa | 2.8V | 00:00:00 | 01:06:36 | 00:00:00 | |
| DD1CC3-15 | 2026-09-04 23:24:31 | 51.44178 | 8.06461 | 86° | 179km/h | 11712m | 4.4m/s | -55.7°C | 16.2% | 212.0hPa | 2.8V | 00:00:00 | 00:00:00 | 00:00:00 | |
| DK9SH | 2026-09-04 23:24:30 | 51.44171 | 8.06317 | 87° | 177km/h | 11703m | 3.8m/s | -55.6°C | 16.0% | 212.3hPa | 2.8V | 00:00:00 | 00:00:00 | 00:00:00 | |
| DL1NUX | 2026-09-04 23:24:29 | 51.44145 | 8.05890 | 82° | 173km/h | 11679m | 4m/s | -55.6°C | 21.2% | 213.1hPa | 2.8V | 08:30:00 | 01:06:28 | 00:00:00 | |
| HSKMA3-T | 2026-09-04 23:24:29 | 51.44168 | 8.06245 | 86° | 177km/h | 11700m | 3.8m/s | -55.6°C | 20.6% | 212.4hPa | 2.8V | 18:12:15 | 01:06:33 | 00:00:00 | |
| BIOWL1-15 | 2026-09-04 23:24:26 | 51.44140 | 8.05820 | 83° | 175km/h | 11675m | 4.9m/s | -55.6°C | 20.5% | 213.3hPa | 2.8V | 18:12:15 | 01:06:27 | 00:00:00 | |
| DD1CC1-15 | 2026-09-04 23:24:25 | 51.44151 | 8.05960 | 84° | 173km/h | 11683m | 3.5m/s | -55.6°C | 16.4% | 213.0hPa | 2.7V | 00:00:00 | 00:00:00 | 00:00:00 | |
| DF7PN | 2026-09-04 23:24:22 | 51.44129 | 8.05680 | 82° | 173km/h | 11667m | 4.2m/s | -55.5°C | 16.2% | 213.5hPa | 2.7V | 00:00:00 | 00:00:00 | 00:00:00 | |
| SONCRA | 2026-09-04 23:24:21 | 51.44129 | 8.05680 | 82° | 173km/h | 11667m | 4.2m/s | -55.5°C | 16.2% | 213.5hPa | 2.7V | 00:00:00 | 00:00:00 | 00:00:00 | |
| DH3RM | 2026-09-04 23:24:20 | 51.44128 | 8.05680 | 84° | 175km/h | 11667m | 4.2m/s | -55.5°C | 16.2% | 213.5hPa | 2.7V | 00:00:00 | 00:00:00 | 00:00:00 | |
| DL1NUX | 2026-09-04 23:24:19 | 51.44097 | 8.05182 | 84° | 177km/h | 11639m | 3.1m/s | -55.4°C | 20.5% | 214.4hPa | 2.7V | 08:30:00 | 01:06:18 | 00:00:00 | |
| HSKMA3-T | 2026-09-04 23:24:18 | 51.44113 | 8.05469 | 84° | 177km/h | 11654m | 4.4m/s | -55.5°C | 20.3% | 213.9hPa | 2.8V | 18:12:15 | 01:06:22 | 00:00:00 | |
| BIOWL1-15 | 2026-09-04 23:24:13 | 51.44083 | 8.04967 | 83° | 179km/h | 11628m | 4.2m/s | -55.3°C | 19.9% | 214.8hPa | 2.8V | 18:12:15 | 01:06:15 | 00:00:00 | |
| DL1KLB | 2026-09-04 23:24:13 | 51.44092 | 8.05111 | 85° | 177km/h | 11636m | 4.1m/s | -55.3°C | 15.6% | 214.5hPa | 2.6V | 00:00:00 | 00:00:00 | 00:00:00 | |
| DL1NUX | 2026-09-04 23:24:09 | 51.44040 | 8.04474 | 80° | 177km/h | 11598m | 4.8m/s | -55°C | 20.2% | 215.8hPa | 2.6V | 08:30:00 | 01:06:08 | 00:00:00 | |
| HSKMA3-T | 2026-09-04 23:24:07 | 51.44061 | 8.04685 | 82° | 173km/h | 11610m | 4.6m/s | -55.1°C | 19.9% | 215.4hPa | 2.8V | 18:12:15 | 01:06:11 | 00:00:00 | |
| BIOWL1-15 | 2026-09-04 23:24:03 | 51.44033 | 8.04404 | 81° | 177km/h | 11594m | 4.3m/s | -55°C | 19.9% | 215.9hPa | 2.7V | 18:12:15 | 01:06:07 | 00:00:00 | |
| DJ2KF-10 | 2026-09-04 23:24:02 | 51.44026 | 8.04332 | 81° | 177km/h | 11590m | 3.8m/s | -54.9°C | 20.2% | 216.0hPa | 2.7V | 00:00:00 | 01:06:06 | 00:00:00 | |
| DO1YAY-16 | 2026-09-04 23:24:01 | 51.44019 | 8.04262 | 80° | 177km/h | 11585m | 5.7m/s | -54.9°C | 15.4% | 216.2hPa | 2.7V | 00:00:00 | 00:00:00 | 00:00:00 | |
| BIOWL9-15 | 2026-09-04 23:24:00 | 51.44011 | 8.04191 | 79° | 177km/h | 11580m | 4.5m/s | -54.9°C | 15.6% | 216.4hPa | 2.7V | 00:00:00 | 00:00:00 | 00:00:00 | |
| DL1NUX | 2026-09-04 23:23:59 | 51.43969 | 8.03769 | 81° | 175km/h | 11555m | 4.2m/s | -54.7°C | 20.2% | 217.2hPa | 2.7V | 08:30:00 | 01:05:58 | 00:00:00 | |
| DO2JMG | 2026-09-04 23:23:57 | 51.43989 | 8.03979 | 81° | 177km/h | 11568m | 3.7m/s | 0°C | 0% | 0hPa | 2.8V | 18:12:15 | 01:06:01 | 00:00:00 | |
| HSKMA3-T | 2026-09-04 23:23:56 | 51.43982 | 8.03909 | 81° | 175km/h | 11564m | 5m/s | -54.8°C | 20% | 217hPa | 2.8V | 18:12:15 | 01:06:00 | 00:00:00 | |
| BIOWL1-15 | 2026-09-04 23:23:54 | 51.43957 | 8.03628 | 82° | 175km/h | 11548m | 2.9m/s | -54.6°C | 19.9% | 217.5hPa | 2.7V | 18:12:15 | 01:05:56 | 00:00:00 | |
| DL1KLB | 2026-09-04 23:23:51 | 51.43956 | 8.03628 | 83° | 175km/h | 11548m | 2.9m/s | -54.6°C | 15.5% | 217.5hPa | 2.8V | 00:00:00 | 00:00:00 | 00:00:00 | |
| DO3DL | 2026-09-04 23:23:50 | 51.43950 | 8.03558 | 83° | 175km/h | 11544m | 4.6m/s | -54.6°C | 15.4% | 217.6hPa | 2.8V | 00:00:00 | 00:00:00 | 00:00:00 | |
| DL1NUX | 2026-09-04 23:23:49 | 51.43898 | 8.03065 | 78° | 179km/h | 11515m | 4.7m/s | -54.4°C | 19.8% | 218.6hPa | 2.8V | 08:30:00 | 01:05:48 | 00:00:00 | |
| BIOWL1-15 | 2026-09-04 23:23:48 | 51.43881 | 8.02921 | 79° | 179km/h | 11508m | 3.1m/s | -54.4°C | 19.9% | 218.8hPa | 2.8V | 18:12:15 | 01:05:46 | 00:00:00 | |
| HSKMA3-T | 2026-09-04 23:23:45 | 51.43906 | 8.03136 | 79° | 179km/h | 11520m | 3.7m/s | -54.4°C | 19.8% | 218.4hPa | 2.7V | 18:12:15 | 01:05:49 | 00:00:00 | |
| WPPR-10 | 2026-09-04 23:23:43 | 51.43872 | 8.02850 | 79° | 177km/h | 11504m | 4.3m/s | -54.3°C | 15.4% | 219.0hPa | 2.7V | 00:00:00 | 00:00:00 | 00:00:00 | |
| DL1NUX | 2026-09-04 23:23:39 | 51.43819 | 8.02360 | 79° | 173km/h | 11478m | 3.4m/s | -54.1°C | 19.9% | 219.8hPa | 2.7V | 08:30:00 | 01:05:38 | 00:00:00 | |
| HSKMA3-T | 2026-09-04 23:23:35 | 51.43826 | 8.02430 | 80° | 177km/h | 11482m | 3.6m/s | -54.1°C | 19.8% | 219.7hPa | 2.7V | 18:12:15 | 01:05:39 | 00:00:00 | |
| BIOWL1-15 | 2026-09-04 23:23:31 | 51.43793 | 8.02153 | 78° | 175km/h | 11467m | 4.4m/s | -54°C | 19.8% | 220.2hPa | 2.8V | 18:12:15 | 01:05:35 | 00:00:00 | |
| HSKMA3-T | 2026-09-04 23:23:24 | 51.43733 | 8.01665 | 80° | 173km/h | 11442m | 4.7m/s | -53.9°C | 20% | 221.2hPa | 2.7V | 18:12:15 | 01:05:28 | 00:00:00 | |
| BIOWL1-15 | 2026-09-04 23:23:20 | 51.43673 | 8.01181 | 78° | 175km/h | 11415m | 4.3m/s | -53.8°C | 20% | 222.1hPa | 2.8V | 18:12:15 | 01:05:21 | 00:00:00 | |
| HSKMA3-T | 2026-09-04 23:23:13 | 51.43638 | 8.00900 | 80° | 175km/h | 11400m | 3.1m/s | -53.7°C | 20.2% | 222.6hPa | 2.8V | 18:12:15 | 01:05:17 | 00:00:00 | |
| DO2JMG | 2026-09-04 23:23:10 | 51.43613 | 8.00691 | 79° | 173km/h | 11390m | 3.5m/s | 0°C | 0% | 0hPa | 2.7V | 18:12:15 | 01:05:14 | 00:00:00 | |
| BIOWL1-15 | 2026-09-04 23:23:08 | 51.43597 | 8.00553 | 79° | 173km/h | 11382m | 3.5m/s | -53.6°C | 20.3% | 223.3hPa | 2.8V | 18:12:15 | 01:05:12 | 00:00:00 | |
| HSKMA3-T | 2026-09-04 23:23:02 | 51.43549 | 8.00130 | 80° | 181km/h | 11357m | 3.9m/s | -53.7°C | 20.4% | 224.2hPa | 2.7V | 18:12:15 | 01:05:06 | 00:00:00 | |
| BIOWL1-15 | 2026-09-04 23:23:00 | 51.43517 | 7.99843 | 79° | 179km/h | 11342m | 3.9m/s | -53.7°C | 20.2% | 224.7hPa | 2.8V | 18:12:15 | 01:05:02 | 00:00:00 | |
| DL1NUX | 2026-09-04 23:22:59 | 51.43481 | 7.99563 | 79° | 173km/h | 11326m | 3.8m/s | -53.6°C | 20.1% | 225.3hPa | 2.8V | 08:30:00 | 01:04:58 | 00:00:00 | |
| HSKMA3-T | 2026-09-04 23:22:52 | 51.43467 | 7.99425 | 81° | 175km/h | 11319m | 4.4m/s | -53.5°C | 19.7% | 225.6hPa | 2.8V | 18:12:15 | 01:04:56 | 00:00:00 | |
| DL1LOL-11 | 2026-09-04 23:22:51 | 51.43467 | 7.99425 | 82° | 175km/h | 11319m | 4.4m/s | 0°C | 0% | 0hPa | 2.8V | 00:00:00 | 00:00:00 | 00:00:00 | |
| DL1NUX | 2026-09-04 23:22:49 | 51.43409 | 7.98853 | 80° | 183km/h | 11288m | 3.1m/s | -53.2°C | 19.2% | 226.7hPa | 2.8V | 08:30:00 | 01:04:48 | 00:00:00 | |
| BIOWL1-15 | 2026-09-04 23:22:48 | 51.43438 | 7.99140 | 81° | 179km/h | 11303m | 4.4m/s | -53.4°C | 19.4% | 226.2hPa | 2.7V | 18:12:15 | 01:04:52 | 00:00:00 | |
| BUE01 | 2026-09-04 23:22:45 | 51.43409 | 7.98853 | 80° | 181km/h | 11288m | 3.1m/s | -53.2°C | 14.9% | 226.7hPa | 2.7V | 00:00:00 | 00:00:00 | 00:00:00 | |
| HSKMA3-T | 2026-09-04 23:22:42 | 51.43393 | 7.98709 | 80° | 179km/h | 11280m | 3.2m/s | -53.1°C | 19% | 227hPa | 2.7V | 18:12:15 | 01:04:46 | 00:00:00 | |
| WPPR-10 | 2026-09-04 23:22:40 | 51.43369 | 7.98499 | 79° | 172km/h | 11268m | 5.0m/s | -53.0°C | 14.7% | 227.4hPa | 2.7V | 00:00:00 | 00:00:00 | 00:00:00 | |
| DL1NUX | 2026-09-04 23:22:39 | 51.43333 | 7.98153 | 81° | 175km/h | 11247m | 4.7m/s | -53°C | 19.4% | 228.1hPa | 2.7V | 08:30:00 | 01:04:38 | 00:00:00 | |
| BIOWL1-15 | 2026-09-04 23:22:37 | 51.43354 | 7.98362 | 80° | 172km/h | 11260m | 4.6m/s | -53°C | 18.7% | 227.7hPa | 2.8V | 18:12:15 | 01:04:41 | 00:00:00 | |
| HSKMA3-T | 2026-09-04 23:22:31 | 51.43313 | 7.97938 | 81° | 183km/h | 11236m | 4.2m/s | -52.9°C | 18.5% | 228.5hPa | 2.8V | 18:12:15 | 01:04:35 | 00:00:00 | |
| DL1NUX | 2026-09-04 23:22:29 | 51.43249 | 7.97428 | 79° | 179km/h | 11205m | 5.1m/s | -52.6°C | 18.7% | 229.5hPa | 2.7V | 08:30:00 | 01:04:28 | 00:00:00 | |
| BIOWL1-15 | 2026-09-04 23:22:26 | 51.43267 | 7.97573 | 78° | 186km/h | 11215m | 4m/s | -52.7°C | 18.2% | 229.3hPa | 2.8V | 18:12:15 | 01:04:30 | 00:00:00 | |
| HSKMA3-T | 2026-09-04 23:22:21 | 51.43232 | 7.97222 | 84° | 164km/h | 11191m | 4.8m/s | -52.5°C | 17.9% | 230.1hPa | 2.8V | 18:12:15 | 01:04:25 | 00:00:00 | |
| BIOWL1-15 | 2026-09-04 23:22:20 | 51.43201 | 7.96883 | 78° | 175km/h | 11167m | 5.6m/s | -52.3°C | 17.6% | 231hPa | 2.8V | 18:12:15 | 01:04:20 | 00:00:00 | |
| DL1NUX | 2026-09-04 23:22:19 | 51.43179 | 7.96741 | 76° | 186km/h | 11156m | 5.4m/s | -52.2°C | 17.7% | 231.3hPa | 2.8V | 08:30:00 | 01:04:18 | 00:00:00 | |
| DO2JMG | 2026-09-04 23:22:12 | 51.43157 | 7.96595 | 78° | 184km/h | 11146m | 4.1m/s | 0°C | 0% | 0hPa | 2.7V | 18:12:15 | 01:04:16 | 00:00:00 | |
| HSKMA3-T | 2026-09-04 23:22:10 | 51.43139 | 7.96452 | 80° | 175km/h | 11133m | 7.9m/s | -52°C | 17.2% | 232.1hPa | 2.7V | 18:12:15 | 01:04:14 | 00:00:00 | |
| DL1NUX | 2026-09-04 23:22:09 | 51.43110 | 7.96064 | 83° | 166km/h | 11102m | 4m/s | -51.7°C | 17.8% | 233.2hPa | 2.8V | 08:30:00 | 01:04:08 | 00:00:00 | |
| BIOWL1-15 | 2026-09-04 23:22:05 | 51.43115 | 7.96130 | 85° | 161km/h | 11105m | 2.6m/s | -51.8°C | 17.2% | 233.1hPa | 2.7V | 18:12:15 | 01:04:09 | 00:00:00 | |
| HSKMA3-T | 2026-09-04 23:22:00 | 51.43083 | 7.95772 | 81° | 195km/h | 11074m | 6m/s | -51.4°C | 16.6% | 234.2hPa | 2.7V | 18:12:15 | 01:04:04 | 00:00:00 | |
| DL1NUX | 2026-09-04 23:21:59 | 51.43037 | 7.95331 | 78° | 168km/h | 11037m | 7.2m/s | -51.1°C | 16.4% | 235.5hPa | 2.7V | 08:30:00 | 01:03:58 | 00:00:00 | |
| BIOWL1-15 | 2026-09-04 23:21:51 | 51.43015 | 7.95134 | 83° | 166km/h | 11020m | 5m/s | -51°C | 16.1% | 236.2hPa | 2.8V | 18:12:15 | 01:03:55 | 00:00:00 | |
| HSKMA3-T | 2026-09-04 23:21:50 | 51.43010 | 7.95066 | 84° | 172km/h | 11016m | 3.4m/s | -50.9°C | 15.9% | 236.3hPa | 2.8V | 18:12:15 | 01:03:54 | 00:00:00 | |
| DL1NUX | 2026-09-04 23:21:49 | 51.42970 | 7.94654 | 79° | 170km/h | 10982m | 5.8m/s | -50.6°C | 15.5% | 237.6hPa | 2.7V | 08:30:00 | 01:03:48 | 00:00:00 | |
| DO2JMG | 2026-09-04 23:21:47 | 51.42994 | 7.94858 | 81° | 173km/h | 10997m | 6.1m/s | 0°C | 0% | 0hPa | 2.8V | 18:12:15 | 01:03:51 | 00:00:00 | |
| SONCRA | 2026-09-04 23:21:46 | 51.42986 | 7.94790 | 79° | 172km/h | 10992m | 4.7m/s | -50.7°C | 12.2% | 237.2hPa | 2.8V | 00:00:00 | 00:00:00 | 00:00:00 | |
| HSKMA3-T | 2026-09-04 23:21:40 | 51.42939 | 7.94378 | 80° | 177km/h | 10960m | 6m/s | -50.4°C | 15.1% | 238.4hPa | 2.8V | 18:12:15 | 01:03:44 | 00:00:00 | |
| BIOWL1-15 | 2026-09-04 23:21:29 | 51.42858 | 7.93616 | 83° | 172km/h | 10901m | 4.1m/s | -49.9°C | 15.1% | 240.5hPa | 2.7V | 18:12:15 | 01:03:33 | 00:00:00 | |
| BIOWL1-15 | 2026-09-04 23:21:18 | 51.42772 | 7.92832 | 79° | 172km/h | 10834m | 5.8m/s | -49.3°C | 14.6% | 243hPa | 2.7V | 18:12:15 | 01:03:22 | 00:00:00 | |
| DD1CC1-15 | 2026-09-04 23:21:17 | 51.42772 | 7.92832 | 80° | 172km/h | 10834m | 5.8m/s | -49.3°C | 11.2% | 243.0hPa | 2.7V | 00:00:00 | 00:00:00 | 00:00:00 | |
| DL4BBY-15 | 2026-09-04 23:21:16 | 51.42756 | 7.92693 | 80° | 172km/h | 10825m | 5.1m/s | -49.3°C | 0% | 0hPa | 2.7V | 00:00:00 | 00:00:00 | 00:00:00 | |
| DD1CC8 | 2026-09-04 23:21:12 | 51.42725 | 7.92417 | 79° | 170km/h | 10803m | 3.8m/s | -49.0°C | 11.1% | 244.1hPa | 2.7V | 00:00:00 | 00:00:00 | 00:00:00 | |
| BUE01 | 2026-09-04 23:21:11 | 51.42718 | 7.92350 | 79° | 170km/h | 10799m | 4.5m/s | -49.0°C | 11.0% | 244.2hPa | 2.7V | 00:00:00 | 00:00:00 | 00:00:00 | |
| DO9LL-15 | 2026-09-04 23:21:10 | 51.42710 | 7.92282 | 80° | 170km/h | 10795m | 3.7m/s | -48.9°C | 14.3% | 244.4hPa | 2.7V | 00:00:00 | 01:03:14 | 00:00:00 | |
| DL1NUX | 2026-09-04 23:21:09 | 51.42660 | 7.91873 | 78° | 175km/h | 10772m | 3.7m/s | -48.8°C | 14.1% | 245.3hPa | 2.7V | 08:30:00 | 01:03:08 | 00:00:00 | |
| HSKMA3-T | 2026-09-04 23:21:08 | 51.42694 | 7.92146 | 79° | 170km/h | 10787m | 4.6m/s | -48.9°C | 14.2% | 244.7hPa | 2.7V | 18:12:15 | 01:03:12 | 00:00:00 | |
| BIOWL1-15 | 2026-09-04 23:21:07 | 51.42686 | 7.92078 | 79° | 170km/h | 10784m | 2.9m/s | -48.9°C | 14.2% | 244.8hPa | 2.8V | 18:12:15 | 01:03:11 | 00:00:00 | |
| WPPR-10 | 2026-09-04 23:21:06 | 51.42678 | 7.92011 | 78° | 172km/h | 10780m | 4.4m/s | -48.9°C | 10.9% | 245.0hPa | 2.7V | 00:00:00 | 00:00:00 | 00:00:00 | |
| DD1CC3-15 | 2026-09-04 23:21:05 | 51.42678 | 7.92010 | 80° | 172km/h | 10780m | 4.4m/s | -48.8°C | 10.9% | 245.0hPa | 2.7V | 00:00:00 | 00:00:00 | 00:00:00 | |
| DB0NH | 2026-09-04 23:21:04 | 51.42660 | 7.91873 | 79° | 172km/h | 10772m | 3.7m/s | -48.8°C | 14.1% | 245.2hPa | 2.7V | 00:00:00 | 01:03:08 | 00:00:00 | |
| HARRO8 | 2026-09-04 23:21:03 | 51.42650 | 7.91804 | 77° | 173km/h | 10768m | 4.5m/s | -48.8°C | 10.9% | 245.4hPa | 2.7V | 00:00:00 | 00:00:00 | 00:00:00 | |
| DJ2KF-10 | 2026-09-04 23:21:02 | 51.42640 | 7.91735 | 77° | 172km/h | 10765m | 2.7m/s | -48.7°C | 14.2% | 245.5hPa | 2.7V | 00:00:00 | 01:03:06 | 00:00:00 | |
| DO3DL | 2026-09-04 23:21:01 | 51.42631 | 7.91666 | 78° | 175km/h | 10761m | 4.3m/s | -48.7°C | 10.8% | 245.7hPa | 2.7V | 00:00:00 | 00:00:00 | 00:00:00 | |
| DL1NUX | 2026-09-04 23:20:59 | 51.42572 | 7.91189 | 79° | 170km/h | 10734m | 3.4m/s | -48.5°C | 14.1% | 246.7hPa | 2.7V | 08:30:00 | 01:02:58 | 00:00:00 | |
| HSKMA3-T | 2026-09-04 23:20:58 | 51.42604 | 7.91459 | 79° | 172km/h | 10749m | 3.8m/s | -48.6°C | 14% | 246.1hPa | 2.7V | 18:12:15 | 01:03:02 | 00:00:00 | |
| BIOWL1-15 | 2026-09-04 23:20:55 | 51.42580 | 7.91257 | 80° | 170km/h | 10738m | 4.2m/s | -48.5°C | 14% | 246.6hPa | 2.8V | 18:12:15 | 01:02:59 | 00:00:00 | |
| DO1YAY-16 | 2026-09-04 23:20:55 | 51.42572 | 7.91189 | 79° | 170km/h | 10734m | 3.4m/s | -48.5°C | 11.0% | 246.7hPa | 2.7V | 00:00:00 | 00:00:00 | 00:00:00 | |
| BIOWL9-15 | 2026-09-04 23:20:54 | 51.42572 | 7.91189 | 79° | 170km/h | 10734m | 3.4m/s | -48.5°C | 11.0% | 246.7hPa | 2.7V | 00:00:00 | 00:00:00 | 00:00:00 | |
| AU51GT2 | 2026-09-04 23:20:53 | 51.42564 | 7.91122 | 79° | 168km/h | 10730m | 3.7m/s | -48.5°C | 10.9% | 246.8hPa | 2.7V | 00:00:00 | 00:00:00 | 00:00:00 | |
| DB0ND-19 | 2026-09-04 23:20:51 | 51.42522 | 7.90783 | 79° | 172km/h | 10712m | 3.5m/s | -48.4°C | -1.0% | -1.0hPa | 2.7V | 00:00:00 | 00:00:00 | 00:00:00 | |
| DL1NUX | 2026-09-04 23:20:49 | 51.42490 | 7.90510 | 80° | 172km/h | 10695m | 3.7m/s | -48.2°C | 13.6% | 248.2hPa | 2.7V | 08:30:00 | 01:02:48 | 00:00:00 | |
| BIOWL1-15 | 2026-09-04 23:20:44 | 51.42490 | 7.90510 | 80° | 172km/h | 10695m | 3.7m/s | -48.2°C | 13.6% | 248.2hPa | 2.7V | 18:12:15 | 01:02:48 | 00:00:00 | |
| DD8BA-10 | 2026-09-04 23:20:44 | 51.42490 | 7.90510 | 81° | 172km/h | 10695m | 3.7m/s | -48.2°C | 13.6% | 248.1hPa | 2.7V | 00:00:00 | 00:00:00 | 00:00:00 | |
| DL1KLB | 2026-09-04 23:20:43 | 51.42490 | 7.90510 | 81° | 172km/h | 10695m | 3.7m/s | -48.2°C | 10.5% | 248.2hPa | 2.7V | 00:00:00 | 00:00:00 | 00:00:00 | |
| DK9SH | 2026-09-04 23:20:42 | 51.42482 | 7.90442 | 81° | 172km/h | 10692m | 3.8m/s | -48.2°C | 10.5% | 248.3hPa | 2.7V | 00:00:00 | 00:00:00 | 00:00:00 | |
| DD1CC8 | 2026-09-04 23:20:41 | 51.42467 | 7.90307 | 79° | 168km/h | 10684m | 3.4m/s | -48.1°C | 10.4% | 248.6hPa | 2.7V | 00:00:00 | 00:00:00 | 00:00:00 | |
| DO3DL | 2026-09-04 23:20:40 | 51.42459 | 7.90240 | 80° | 170km/h | 10680m | 4.5m/s | -48.1°C | 10.4% | 248.8hPa | 2.7V | 00:00:00 | 00:00:00 | 00:00:00 | |
| DL1NUX | 2026-09-04 23:20:39 | 51.42405 | 7.89832 | 78° | 173km/h | 10657m | 4.1m/s | -47.9°C | 13.3% | 249.6hPa | 2.7V | 08:30:00 | 01:02:38 | 00:00:00 | |
| HSKMA3-T | 2026-09-04 23:20:33 | 51.42397 | 7.89763 | 79° | 173km/h | 10653m | 3.2m/s | -47.9°C | 13.2% | 249.7hPa | 2.7V | 18:12:15 | 01:02:37 | 00:00:00 | |
| BIOWL1-15 | 2026-09-04 23:20:29 | 51.42361 | 7.89490 | 78° | 170km/h | 10638m | 4.3m/s | -47.8°C | 13.1% | 250.3hPa | 2.7V | 18:12:15 | 01:02:33 | 00:00:00 | |
| DB0UT-7 | 2026-09-04 23:20:27 | 51.42345 | 7.89356 | 80° | 170km/h | 10630m | 3.7m/s | -47.6°C | 13.0% | 250.6hPa | 2.8V | 00:00:00 | 00:00:00 | 00:00:00 | |
| DO2KSM | 2026-09-04 23:20:26 | 51.42345 | 7.89356 | 80° | 168km/h | 10630m | 3.8m/s | -47.7°C | 10.1% | 250.7hPa | 2.8V | 00:00:00 | 00:00:00 | 00:00:00 | |
| DL1ZP-14 | 2026-09-04 23:20:25 | 51.42321 | 7.89158 | 79° | 164km/h | 10618m | 4.4m/s | -47.6°C | 10.1% | 251.1hPa | 2.8V | 00:00:00 | 00:00:00 | 00:00:00 | |
| DK9SH | 2026-09-04 23:20:23 | 51.42314 | 7.89092 | 80° | 166km/h | 10614m | 2.9m/s | -47.6°C | 10.1% | 251.3hPa | 2.8V | 00:00:00 | 00:00:00 | 00:00:00 | |
| DL3AQ-11 | 2026-09-04 23:20:22 | 51.42297 | 7.88959 | 77° | 168km/h | 10606m | 3.7m/s | -47.5°C | 10.0% | 251.5hPa | 2.8V | 00:00:00 | 00:00:00 | 00:00:00 | |
| DB0ND-19 | 2026-09-04 23:20:20 | 51.42279 | 7.88823 | 77° | 173km/h | 10599m | 4.3m/s | -47.4°C | -1.0% | -1.0hPa | 2.8V | 00:00:00 | 00:00:00 | 00:00:00 | |
| DL1NUX | 2026-09-04 23:20:19 | 51.42234 | 7.88481 | 79° | 170km/h | 10581m | 3.5m/s | -47.3°C | 12.9% | 252.5hPa | 2.8V | 08:30:00 | 01:02:18 | 00:00:00 | |
| BIOWL1-15 | 2026-09-04 23:20:19 | 51.42279 | 7.88823 | 78° | 173km/h | 10599m | 4.3m/s | -47.4°C | 12.9% | 251.8hPa | 2.8V | 18:12:15 | 01:02:23 | 00:00:00 | |
| HSKMA3-T | 2026-09-04 23:20:17 | 51.42261 | 7.88685 | 78° | 173km/h | 10591m | 3.7m/s | -47.4°C | 12.8% | 252.1hPa | 2.8V | 18:12:15 | 01:02:21 | 00:00:00 | |
| BIOWL1-15 | 2026-09-04 23:20:10 | 51.42186 | 7.88078 | 79° | 168km/h | 10556m | 4.1m/s | -47.1°C | 12.7% | 253.4hPa | 2.8V | 18:12:15 | 01:02:12 | 00:00:00 | |
| BIOWL1-15 | 2026-09-04 23:19:55 | 51.42080 | 7.87200 | 79° | 168km/h | 10506m | 4.5m/s | -46.7°C | 12.4% | 255.4hPa | 2.8V | 18:12:15 | 01:01:59 | 00:00:00 | |
| DL1ZP-14 | 2026-09-04 23:19:54 | 51.42064 | 7.87068 | 79° | 166km/h | 10498m | 4.4m/s | -46.6°C | 9.7% | 255.7hPa | 2.7V | 00:00:00 | 00:00:00 | 00:00:00 | |
| DO1YAY-16 | 2026-09-04 23:19:53 | 51.42056 | 7.87001 | 80° | 168km/h | 10494m | 4.0m/s | -46.6°C | 9.8% | 255.8hPa | 2.8V | 00:00:00 | 00:00:00 | 00:00:00 | |
| AU51GT2 | 2026-09-04 23:19:51 | 51.42042 | 7.86865 | 80° | 170km/h | 10487m | 3.7m/s | -46.6°C | 9.7% | 256.1hPa | 2.8V | 00:00:00 | 00:00:00 | 00:00:00 | |
| DL1NUX | 2026-09-04 23:19:49 | 51.41994 | 7.86455 | 78° | 172km/h | 10464m | 4.4m/s | -46.5°C | 12.4% | 257hPa | 2.8V | 08:30:00 | 01:01:48 | 00:00:00 | |
| HSKMA3-T | 2026-09-04 23:19:48 | 51.42026 | 7.86729 | 79° | 172km/h | 10480m | 3.5m/s | -46.5°C | 12.4% | 256.4hPa | 2.7V | 18:12:15 | 01:01:52 | 00:00:00 | |
| BIOWL1-15 | 2026-09-04 23:19:45 | 51.42002 | 7.86524 | 79° | 173km/h | 10468m | 3.7m/s | -46.5°C | 12.3% | 256.9hPa | 2.8V | 18:12:15 | 01:01:49 | 00:00:00 | |
| HSKMA3-T | 2026-09-04 23:19:38 | 51.41948 | 7.86048 | 80° | 170km/h | 10441m | 3.5m/s | -46.3°C | 12% | 257.9hPa | 2.8V | 18:12:15 | 01:01:42 | 00:00:00 | |
| BIOWL1-15 | 2026-09-04 23:19:33 | 51.41874 | 7.85432 | 80° | 172km/h | 10405m | 4.6m/s | -46°C | 11.4% | 259.3hPa | 2.8V | 18:12:15 | 01:01:33 | 00:00:00 | |
| BIOWL1-15 | 2026-09-04 23:19:20 | 51.41795 | 7.84681 | 79° | 170km/h | 10359m | 4.3m/s | -45.6°C | 10.8% | 261.1hPa | 2.8V | 18:12:15 | 01:01:22 | 00:00:00 | |
| DD8BA-10 | 2026-09-04 23:19:20 | 51.41812 | 7.84817 | 79° | 170km/h | 10369m | 4.2m/s | -45.6°C | 11.3% | 260.7hPa | 2.7V | 00:00:00 | 00:00:00 | 00:00:00 | |
| DL1NUX | 2026-09-04 23:19:19 | 51.41764 | 7.84410 | 79° | 170km/h | 10338m | 5.5m/s | -45.3°C | 10.9% | 261.9hPa | 2.7V | 08:30:00 | 01:01:18 | 00:00:00 | |
| HSKMA3-T | 2026-09-04 23:19:17 | 51.41787 | 7.84613 | 80° | 170km/h | 10354m | 5.3m/s | -45.5°C | 10.7% | 261.3hPa | 2.8V | 18:12:15 | 01:01:21 | 00:00:00 | |
| BIOWL1-15 | 2026-09-04 23:19:12 | 51.41718 | 7.84008 | 78° | 172km/h | 10309m | 4m/s | -45.1°C | 10.3% | 263.1hPa | 2.8V | 18:12:15 | 01:01:12 | 00:00:00 | |
| SONCRA | 2026-09-04 23:19:11 | 51.41735 | 7.84142 | 79° | 166km/h | 10319m | 6.0m/s | 0°C | -1.0% | -1.0hPa | 2.7V | 00:00:00 | 00:00:00 | 00:00:00 | |
| DO9LL-15 | 2026-09-04 23:19:10 | 51.41735 | 7.84142 | 80° | 179km/h | 10319m | 6.0m/s | -45.1°C | 10.6% | 262.6hPa | 2.7V | 00:00:00 | 01:01:14 | 00:00:00 | |
| DL1NUX | 2026-09-04 23:19:09 | 51.41685 | 7.83734 | 79° | 172km/h | 10292m | 5m/s | -44.9°C | 10.3% | 263.8hPa | 2.7V | 08:30:00 | 01:01:08 | 00:00:00 | |
| HSKMA3-T | 2026-09-04 23:19:06 | 51.41701 | 7.83871 | 80° | 172km/h | 10300m | 4.1m/s | -45°C | 10.2% | 263.4hPa | 2.8V | 18:12:15 | 01:01:10 | 00:00:00 | |
| DO2JMG | 2026-09-04 23:19:03 | 51.41677 | 7.83667 | 80° | 170km/h | 10287m | 3.9m/s | 0°C | 0% | 263.9hPa | 2.7V | 18:12:15 | 01:01:07 | 00:00:00 | |
| DJ2KF-10 | 2026-09-04 23:19:02 | 51.41670 | 7.83599 | 81° | 170km/h | 10283m | 5.3m/s | -44.8°C | 10.2% | 264.1hPa | 2.7V | 00:00:00 | 01:01:06 | 08:30:00 | |
| DK9SH | 2026-09-04 23:19:01 | 51.41670 | 7.83599 | 81° | 168km/h | 10283m | 5.4m/s | -44.9°C | 7.8% | 264.1hPa | 2.8V | 00:00:00 | 00:00:00 | 00:00:00 | |
| DD8BA-10 | 2026-09-04 23:19:00 | 51.41656 | 7.83466 | 81° | 168km/h | 10274m | 4.7m/s | -44.7°C | 10.3% | 264.5hPa | 2.8V | 00:00:00 | 00:00:00 | 00:00:00 | |
| DL1NUX | 2026-09-04 23:18:59 | 51.41607 | 7.83066 | 77° | 172km/h | 10249m | 4.4m/s | -44.6°C | 10.2% | 0hPa | 2.8V | 08:30:00 | 01:00:58 | 00:00:00 | |
| BIOWL1-15 | 2026-09-04 23:18:57 | 51.41633 | 7.83266 | 79° | 166km/h | 10262m | 4.8m/s | -44.7°C | 9.8% | 265hPa | 2.8V | 18:12:15 | 01:01:01 | 00:00:00 | |
| HSKMA3-T | 2026-09-04 23:18:55 | 51.41616 | 7.83133 | 78° | 170km/h | 10254m | 5.2m/s | -44.6°C | 9.9% | 0hPa | 2.8V | 18:12:15 | 01:00:59 | 00:00:00 | |
| DD1CC1-15 | 2026-09-04 23:18:52 | 51.41598 | 7.82997 | 79° | 173km/h | 10246m | 3.7m/s | -44.5°C | 7.8% | 265.6hPa | 2.8V | 00:00:00 | 00:00:00 | 00:00:00 | |
| DO3DL | 2026-09-04 23:18:51 | 51.41589 | 7.82929 | 79° | 173km/h | 10242m | 4.1m/s | -44.5°C | 7.8% | 265.8hPa | 2.8V | 00:00:00 | 00:00:00 | 00:00:00 | |
| DD8BA-10 | 2026-09-04 23:18:50 | 51.41572 | 7.82792 | 80° | 172km/h | 10234m | 4.2m/s | -44.4°C | 10.0% | 266.0hPa | 2.8V | 00:00:00 | 00:00:00 | 00:00:00 | |
| DL1NUX | 2026-09-04 23:18:49 | 51.41529 | 7.82382 | 79° | 168km/h | 10208m | 4.6m/s | -44.2°C | 10.1% | 0hPa | 2.8V | 08:30:00 | 01:00:48 | 00:00:00 | |
| HSKMA3-T | 2026-09-04 23:18:44 | 51.41529 | 7.82382 | 80° | 168km/h | 10208m | 4.6m/s | -44.2°C | 9.8% | 0hPa | 2.8V | 18:12:15 | 01:00:48 | 00:00:00 | |
| BIOWL1-15 | 2026-09-04 23:18:42 | 51.41512 | 7.82248 | 78° | 170km/h | 10200m | 5m/s | -44.2°C | 9.9% | 267.5hPa | 2.7V | 18:12:15 | 01:00:46 | 00:00:00 | |
| DL1KLB | 2026-09-04 23:18:42 | 51.41512 | 7.82247 | 79° | 170km/h | 10200m | 5.0m/s | -44.2°C | 7.9% | 267.5hPa | 2.7V | 00:00:00 | 00:00:00 | 00:00:00 | |
| DD1CC3-15 | 2026-09-04 23:18:41 | 51.41503 | 7.82180 | 78° | 170km/h | 10195m | 4.7m/s | -44.1°C | 8.0% | 267.7hPa | 2.7V | 00:00:00 | 00:00:00 | 00:00:00 | |
| DD8BA-10 | 2026-09-04 23:18:40 | 51.41493 | 7.82113 | 77° | 172km/h | 10191m | 2.6m/s | -44.1°C | 10.5% | 267.8hPa | 2.7V | 00:00:00 | 00:00:00 | 08:30:00 | |
| DL1NUX | 2026-09-04 23:18:38 | 51.41434 | 7.81633 | 77° | 168km/h | 10156m | 3.4m/s | -44°C | 0% | 0hPa | 2.8V | 08:30:00 | 01:00:37 | 00:00:00 | |
| HSKMA3-T | 2026-09-04 23:18:33 | 51.41434 | 7.81633 | 78° | 168km/h | 10156m | 3.4m/s | -44°C | 11% | 0hPa | 2.8V | 18:12:15 | 01:00:37 | 00:00:00 | |
| BIOWL1-15 | 2026-09-04 23:18:31 | 51.41416 | 7.81500 | 78° | 170km/h | 10143m | 6.3m/s | -44°C | 11.4% | 269.7hPa | 2.7V | 18:12:15 | 01:00:35 | 00:00:00 | |
| DD8BA-10 | 2026-09-04 23:18:30 | 51.41406 | 7.81434 | 78° | 170km/h | 10138m | 3.8m/s | -43.9°C | 11.7% | 269.9hPa | 2.8V | 00:00:00 | 00:00:00 | 00:00:00 | |
| DL1NUX | 2026-09-04 23:18:28 | 51.41342 | 7.80966 | 78° | 172km/h | 10102m | 4.1m/s | 0°C | 0% | 0hPa | 2.8V | 08:30:00 | 01:00:27 | 00:00:00 | |
| BIOWL1-15 | 2026-09-04 23:18:21 | 51.41311 | 7.80699 | 80° | 166km/h | 10082m | 6.6m/s | -43.7°C | 14.4% | 272.2hPa | 2.7V | 18:12:15 | 01:00:23 | 00:00:00 | |
| HSKMA3-T | 2026-09-04 23:18:20 | 51.41318 | 7.80765 | 80° | 166km/h | 10086m | 3.4m/s | 0°C | 0% | 0hPa | 2.8V | 18:12:15 | 01:00:24 | 00:00:00 | |
| DD8BA-10 | 2026-09-04 23:18:20 | 51.41318 | 7.80765 | 80° | 175km/h | 10086m | 3.3m/s | -43.6°C | 13.6% | 271.9hPa | 2.7V | 00:00:00 | 00:00:00 | 00:00:00 | |
| DO1YAY-16 | 2026-09-04 23:18:19 | 51.41311 | 7.80699 | 79° | 164km/h | 10082m | 6.6m/s | -43.7°C | 11.3% | 272.2hPa | 2.7V | 00:00:00 | 00:00:00 | 00:00:00 | |
| DL1NUX | 2026-09-04 23:18:18 | 51.41263 | 7.80278 | 77° | 179km/h | 10050m | 3.6m/s | 0°C | 0% | 0hPa | 2.7V | 00:00:00 | 01:00:17 | 00:00:00 | |
| HSKMA3-T | 2026-09-04 23:18:09 | 51.41221 | 7.79996 | 76° | 181km/h | 10028m | 5.3m/s | 0°C | 0% | 0hPa | 2.8V | 18:12:15 | 01:00:13 | 00:00:00 | |
| BIOWL1-15 | 2026-09-04 23:17:56 | 51.41074 | 7.79060 | 73° | 197km/h | 9969m | 4m/s | -43°C | 27.8% | 276.7hPa | 2.7V | 18:12:15 | 01:00:00 | 00:00:00 | |
| BIOWL1-15 | 2026-09-04 23:17:47 | 51.40931 | 7.78253 | 72° | 193km/h | 9912m | 4.6m/s | -42.5°C | 34% | 279.1hPa | 2.7V | 18:12:15 | 00:59:49 | 00:00:00 | |
| DO2JMG | 2026-09-04 23:17:47 | 51.40962 | 7.78403 | 72° | 193km/h | 9921m | 6m/s | 0°C | 0% | 278.7hPa | 2.8V | 18:12:15 | 00:59:51 | 00:00:00 | |
| AU51GT2 | 2026-09-04 23:17:47 | 51.40947 | 7.78328 | 71° | 195km/h | 9916m | 4.1m/s | -42.5°C | 29.8% | 278.9hPa | 2.7V | 00:00:00 | 00:00:00 | 00:00:00 | |
| DL1ZP-14 | 2026-09-04 23:17:44 | 51.40916 | 7.78179 | 72° | 190km/h | 9908m | 4.3m/s | -42.4°C | 30.2% | 279.3hPa | 2.7V | 00:00:00 | 00:00:00 | 00:00:00 | |
| DO2JMG | 2026-09-04 23:17:36 | 51.40813 | 7.77595 | 75° | 188km/h | 9866m | 3.8m/s | 0°C | 0% | 281hPa | 2.8V | 18:12:15 | 00:59:40 | 00:00:00 | |
| BIOWL1-15 | 2026-09-04 23:17:35 | 51.40788 | 7.77447 | 75° | 192km/h | 9858m | 4.5m/s | -42°C | 35.7% | 281.4hPa | 2.8V | 18:12:15 | 00:59:38 | 00:00:00 | |
| HSKMA3-T | 2026-09-04 23:17:33 | 51.40776 | 7.77372 | 75° | 192km/h | 9854m | 3.7m/s | 0°C | 0% | 0hPa | 2.7V | 18:12:15 | 00:59:37 | 00:00:00 | |
| DB0UT-7 | 2026-09-04 23:17:32 | 51.40763 | 7.77297 | 75° | 190km/h | 9850m | 4.4m/s | -41.8°C | 35.6% | 281.6hPa | 2.7V | 00:00:00 | 00:00:00 | 00:00:00 | |
| DD1CC1-15 | 2026-09-04 23:17:31 | 51.40763 | 7.77297 | 76° | 190km/h | 9850m | 4.4m/s | -41.9°C | 31.6% | 281.7hPa | 2.8V | 00:00:00 | 00:00:00 | 00:00:00 | |
| DL3AQ-11 | 2026-09-04 23:17:29 | 51.40711 | 7.77003 | 74° | 190km/h | 9832m | 4.2m/s | -41.7°C | 31.3% | 282.4hPa | 2.8V | 00:00:00 | 00:00:00 | 00:00:00 | |
| DD8BA-10 | 2026-09-04 23:17:27 | 51.40698 | 7.76929 | 74° | 190km/h | 9829m | 3.4m/s | -41.7°C | 34.9% | 282.5hPa | 2.8V | 00:00:00 | 00:00:00 | 00:00:00 | |
| DM0DOS-11 | 2026-09-04 23:17:26 | 51.40630 | 7.76562 | 73° | 188km/h | 9807m | 4.7m/s | -41.5°C | 0% | 283.4hPa | 2.8V | 08:30:00 | 00:59:26 | 00:00:00 | |
| DO2JMG | 2026-09-04 23:17:26 | 51.40685 | 7.76856 | 74° | 188km/h | 9825m | 4m/s | 0°C | 0% | 282.7hPa | 2.7V | 18:12:15 | 00:59:30 | 00:00:00 | |
| BIOWL1-15 | 2026-09-04 23:17:21 | 51.40617 | 7.76489 | 74° | 188km/h | 9804m | 3.4m/s | -41.5°C | 34.8% | 283.6hPa | 2.7V | 18:12:15 | 00:59:25 | 00:00:00 | |
| HSKMA3-T | 2026-09-04 23:17:16 | 51.40553 | 7.76119 | 75° | 190km/h | 9784m | 4m/s | 0°C | 0% | 0hPa | 2.8V | 18:12:15 | 00:59:20 | 00:00:00 | |
| DO2JMG | 2026-09-04 23:17:15 | 51.40540 | 7.76044 | 75° | 192km/h | 9780m | 3.9m/s | 0°C | 0% | 0hPa | 2.7V | 18:12:15 | 00:59:19 | 00:00:00 | |
| BIOWL1-15 | 2026-09-04 23:17:10 | 51.40394 | 7.75223 | 75° | 192km/h | 9735m | 4.1m/s | -40.8°C | 34.6% | 286.5hPa | 2.8V | 18:12:15 | 00:59:08 | 00:00:00 | |
| DO2JMG | 2026-09-04 23:17:05 | 51.40407 | 7.75298 | 74° | 190km/h | 9738m | 3.2m/s | 0°C | 0% | 0hPa | 2.8V | 18:12:15 | 00:59:09 | 00:00:00 | |
| HSKMA3-T | 2026-09-04 23:17:01 | 51.40355 | 7.74996 | 75° | 193km/h | 9723m | 3.9m/s | 0°C | 0% | 0hPa | 2.8V | 18:12:15 | 00:59:05 | 00:00:00 | |
| BIOWL1-15 | 2026-09-04 23:16:55 | 51.40206 | 7.74100 | 76° | 190km/h | 9676m | 3.2m/s | -40.3°C | 37.2% | 289hPa | 2.8V | 18:12:15 | 00:58:53 | 00:00:00 | |
| HSKMA3-T | 2026-09-04 23:16:51 | 51.40229 | 7.74250 | 76° | 192km/h | 9684m | 3.5m/s | 0°C | 0% | 0hPa | 2.7V | 18:12:15 | 00:58:55 | 00:00:00 | |
| DL3AQ-11 | 2026-09-04 23:16:49 | 51.40194 | 7.74026 | 75° | 190km/h | 9672m | 4.8m/s | -40.3°C | 33.7% | 289.1hPa | 2.8V | 00:00:00 | 00:00:00 | 00:00:00 | |
| DO1YAY-16 | 2026-09-04 23:16:46 | 51.40169 | 7.73875 | 74° | 192km/h | 9664m | 2.9m/s | -40.2°C | 34.2% | 289.5hPa | 2.8V | 00:00:00 | 00:00:00 | 00:00:00 | |
| AU51GT2 | 2026-09-04 23:16:45 | 51.40143 | 7.73726 | 74° | 188km/h | 9656m | 4.1m/s | -40.1°C | 34.1% | 289.8hPa | 2.8V | 00:00:00 | 00:00:00 | 00:00:00 | |
| BIOWL1-15 | 2026-09-04 23:16:42 | 51.40117 | 7.73579 | 75° | 190km/h | 9648m | 4.5m/s | -40.1°C | 37.5% | 290.2hPa | 2.8V | 18:12:15 | 00:58:46 | 00:00:00 | |
| BIOWL1-15 | 2026-09-04 23:16:31 | 51.39979 | 7.72755 | 74° | 195km/h | 9601m | 3.7m/s | -39.6°C | 38% | 292.2hPa | 2.8V | 18:12:15 | 00:58:35 | 00:00:00 | |
| HSKMA3-T | 2026-09-04 23:16:30 | 51.39966 | 7.72679 | 74° | 193km/h | 9597m | 4.6m/s | 0°C | 0% | 0hPa | 2.8V | 18:12:15 | 00:58:34 | 00:00:00 | |
| BIOWL1-15 | 2026-09-04 23:16:21 | 51.39854 | 7.72005 | 76° | 193km/h | 9558m | 3.9m/s | -39.3°C | 41% | 294hPa | 2.8V | 18:12:15 | 00:58:25 | 00:00:00 | |
| HSKMA3-T | 2026-09-04 23:16:19 | 51.39829 | 7.71854 | 75° | 193km/h | 9549m | 3.6m/s | 0°C | 0% | 0hPa | 2.7V | 18:12:15 | 00:58:23 | 00:00:00 | |
| BIOWL1-15 | 2026-09-04 23:16:10 | 51.39715 | 7.71170 | 76° | 186km/h | 9510m | 5m/s | -38.9°C | 38.7% | 296.1hPa | 2.8V | 18:12:15 | 00:58:14 | 00:00:00 | |
| BIOWL1-15 | 2026-09-04 23:16:02 | 51.39597 | 7.70426 | 76° | 192km/h | 9461m | 5.2m/s | -38.4°C | 36.2% | 298.2hPa | 2.7V | 18:12:15 | 00:58:04 | 00:00:00 | |
| HSKMA3-T | 2026-09-04 23:16:02 | 51.39621 | 7.70577 | 76° | 192km/h | 9470m | 5.5m/s | 0°C | 0% | 0hPa | 2.8V | 18:12:15 | 00:58:06 | 00:00:00 | |
| BIOWL1-15 | 2026-09-04 23:15:49 | 51.39464 | 7.69609 | 75° | 190km/h | 9405m | 5.5m/s | -37.9°C | 24.4% | 300.7hPa | 2.7V | 18:12:15 | 00:57:53 | 00:00:00 | |
| DO1YAY-16 | 2026-09-04 23:15:44 | 51.39404 | 7.69240 | 75° | 186km/h | 9382m | 4.9m/s | -37.7°C | 17.0% | 301.6hPa | 2.7V | 00:00:00 | 00:00:00 | 00:00:00 | |
| HSKMA3-T | 2026-09-04 23:15:42 | 51.39379 | 7.69093 | 75° | 188km/h | 9374m | 4.9m/s | 0°C | 0% | 0hPa | 2.7V | 18:12:15 | 00:57:46 | 00:00:00 | |
| BIOWL1-15 | 2026-09-04 23:15:40 | 51.39331 | 7.68800 | 75° | 188km/h | 9356m | 4.5m/s | -37.5°C | 16.8% | 302.8hPa | 2.8V | 18:12:15 | 00:57:42 | 00:00:00 | |
| DO2KSM | 2026-09-04 23:15:39 | 51.39355 | 7.68947 | 77° | 188km/h | 9365m | 3.4m/s | -37.6°C | 14.8% | 302.5hPa | 2.7V | 00:00:00 | 00:00:00 | 00:00:00 | |
| DD8BA-10 | 2026-09-04 23:15:37 | 51.39319 | 7.68727 | 75° | 186km/h | 9352m | 4.8m/s | -37.5°C | 15.6% | 302.9hPa | 2.7V | 00:00:00 | 00:00:00 | 08:30:00 | |
| DM0DOS-11 | 2026-09-04 23:15:35 | 51.39247 | 7.68291 | 75° | 184km/h | 9324m | 4.4m/s | -37.3°C | 0% | 304.2hPa | 2.8V | 08:30:00 | 00:57:35 | 00:00:00 | |
| BIOWL1-15 | 2026-09-04 23:15:32 | 51.39212 | 7.68073 | 76° | 186km/h | 9312m | 4.5m/s | -37.1°C | 15.3% | 304.7hPa | 2.7V | 18:12:15 | 00:57:32 | 00:00:00 | |
| HSKMA3-T | 2026-09-04 23:15:25 | 51.39178 | 7.67853 | 76° | 190km/h | 9298m | 5.6m/s | 0°C | 0% | 0hPa | 2.8V | 18:12:15 | 00:57:29 | 00:00:00 | |
| BIOWL1-15 | 2026-09-04 23:15:11 | 51.39025 | 7.66830 | 78° | 186km/h | 9236m | 4.1m/s | -36.6°C | 15.2% | 308.1hPa | 2.8V | 18:12:15 | 00:57:15 | 00:00:00 | |
| DL1ZP-14 | 2026-09-04 23:15:09 | 51.39005 | 7.66682 | 77° | 186km/h | 9226m | 4.9m/s | -36.5°C | 12.5% | 308.5hPa | 2.7V | 00:00:00 | 00:00:00 | 00:00:00 | |
| DD8BA-10 | 2026-09-04 23:15:07 | 51.38983 | 7.66534 | 78° | 188km/h | 9218m | 5.0m/s | -36.4°C | 14.3% | 308.9hPa | 2.7V | 00:00:00 | 00:00:00 | 00:00:00 | |
| DD1CC1-15 | 2026-09-04 23:15:06 | 51.38983 | 7.66534 | 78° | 188km/h | 9218m | 5.0m/s | -36.4°C | 12.3% | 308.9hPa | 2.8V | 00:00:00 | 00:00:00 | 00:00:00 | |
| DH3RM | 2026-09-04 23:15:05 | 51.38973 | 7.66460 | 78° | 190km/h | 9213m | 4.0m/s | -36.4°C | 12.1% | 309.1hPa | 2.8V | 00:00:00 | 00:00:00 | 00:00:00 | |
| DM0DOS-11 | 2026-09-04 23:15:04 | 51.38900 | 7.65943 | 77° | 184km/h | 9182m | 3.5m/s | -36.1°C | 0% | 310.5hPa | 2.8V | 08:30:00 | 00:57:03 | 00:00:00 | |
| BIOWL1-15 | 2026-09-04 23:15:01 | 51.38921 | 7.66089 | 78° | 186km/h | 9191m | 4.6m/s | -36.2°C | 14.6% | 310.1hPa | 2.8V | 18:12:15 | 00:57:05 | 00:00:00 | |
| BIOWL1-15 | 2026-09-04 23:14:50 | 51.38794 | 7.65131 | 78° | 184km/h | 9136m | 3.8m/s | -35.7°C | 14.2% | 312.6hPa | 2.7V | 18:12:15 | 00:56:52 | 00:00:00 | |
| DL3AQ-11 | 2026-09-04 23:14:49 | 51.38794 | 7.65131 | 78° | 183km/h | 9136m | 3.8m/s | -35.7°C | 11.5% | 312.6hPa | 2.8V | 00:00:00 | 00:00:00 | 00:00:00 | |
| BIOWL1-15 | 2026-09-04 23:14:37 | 51.38690 | 7.64322 | 78° | 186km/h | 9089m | 4.3m/s | -35.3°C | 13.4% | 314.8hPa | 2.8V | 18:12:15 | 00:56:41 | 00:00:00 | |
| BIOWL1-15 | 2026-09-04 23:14:26 | 51.38591 | 7.63511 | 79° | 186km/h | 9042m | 5.1m/s | -34.9°C | 13.3% | 316.9hPa | 2.8V | 18:12:15 | 00:56:30 | 00:00:00 | |
| BIOWL1-15 | 2026-09-04 23:14:16 | 51.38468 | 7.62484 | 80° | 183km/h | 8979m | 5.2m/s | -34.6°C | 15% | 319.8hPa | 2.9V | 18:12:15 | 00:56:16 | 00:00:00 | |
| DH3RM | 2026-09-04 23:14:15 | 51.38503 | 7.62779 | 80° | 188km/h | 8997m | 4.2m/s | -34.7°C | 12.2% | 319.0hPa | 2.8V | 00:00:00 | 00:00:00 | 00:00:00 | |
| HSKMA3-T | 2026-09-04 23:13:55 | 51.38335 | 7.61233 | 80° | 184km/h | 8904m | 2.8m/s | 0°C | 0% | 0hPa | 2.8V | 18:12:15 | 00:55:59 | 00:00:00 | |
| BIOWL1-15 | 2026-09-04 23:13:54 | 51.38327 | 7.61159 | 81° | 184km/h | 8900m | 4.4m/s | -34°C | 12.3% | 323.4hPa | 2.7V | 18:12:15 | 00:55:58 | 00:00:00 | |
| WPPR-10 | 2026-09-04 23:13:51 | 51.38305 | 7.60937 | 80° | 186km/h | 8886m | 5.6m/s | -33.9°C | 10.2% | 324.0hPa | 2.8V | 00:00:00 | 00:00:00 | 00:00:00 | |
| HARRO8 | 2026-09-04 23:13:48 | 51.38282 | 7.60709 | 81° | 190km/h | 8875m | 4.8m/s | -33.8°C | 9.8% | 324.5hPa | 2.8V | 00:00:00 | 00:00:00 | 00:00:00 | |
| BIOWL1-15 | 2026-09-04 23:13:43 | 51.38250 | 7.60344 | 81° | 177km/h | 8849m | 3.9m/s | -33.6°C | 10.7% | 325.8hPa | 2.8V | 18:12:15 | 00:55:47 | 00:00:00 | |
| BIOWL1-15 | 2026-09-04 23:13:37 | 51.38180 | 7.59625 | 84° | 184km/h | 8790m | 6.3m/s | -33.2°C | 8.5% | 328.5hPa | 2.7V | 18:12:15 | 00:55:37 | 00:00:00 | |
| DD8BA-10 | 2026-09-04 23:13:37 | 51.38202 | 7.59916 | 81° | 183km/h | 8813m | 7.8m/s | -33.3°C | 9.2% | 327.4hPa | 2.7V | 00:00:00 | 00:00:00 | 00:00:00 | |
| DB0ND-19 | 2026-09-04 23:13:36 | 51.38195 | 7.59844 | 82° | 179km/h | 8805m | 7.3m/s | -33.3°C | 7.5% | 327.8hPa | 2.7V | 00:00:00 | 00:00:00 | 00:00:00 | |
| DO2KSM | 2026-09-04 23:13:35 | 51.38195 | 7.59844 | 83° | 181km/h | 8805m | 7.3m/s | -33.3°C | 7.5% | 327.8hPa | 2.7V | 00:00:00 | 00:00:00 | 00:00:00 | |
| DJ2KF-10 | 2026-09-04 23:13:32 | 51.38175 | 7.59550 | 83° | 179km/h | 8784m | 6.1m/s | -33.1°C | 8.4% | 328.7hPa | 2.7V | 00:00:00 | 00:55:36 | 00:00:00 | |
| DK9SH | 2026-09-04 23:13:31 | 51.38174 | 7.59550 | 84° | 186km/h | 8784m | 6.2m/s | -33.2°C | 7.0% | 328.8hPa | 2.7V | 00:00:00 | 00:00:00 | 00:00:00 | |
| DM0DOS-11 | 2026-09-04 23:13:29 | 51.38125 | 7.59043 | 81° | 175km/h | 8750m | 7.7m/s | -32.9°C | 0% | 330.4hPa | 2.7V | 08:30:00 | 00:55:29 | 00:00:00 | |
| BIOWL1-15 | 2026-09-04 23:13:22 | 51.38107 | 7.58827 | 83° | 184km/h | 8732m | 3.9m/s | -32.8°C | 7.4% | 331.3hPa | 2.9V | 18:12:15 | 00:55:26 | 00:00:00 | |
| HSKMA3-T | 2026-09-04 23:13:12 | 51.38056 | 7.58109 | 83° | 177km/h | 8680m | 5.4m/s | 0°C | 0% | 0hPa | 2.9V | 18:12:15 | 00:55:16 | 00:00:00 | |
| BIOWL1-15 | 2026-09-04 23:13:12 | 51.38026 | 7.57531 | 85° | 173km/h | 8641m | 6.3m/s | -32.2°C | 6.2% | 335.5hPa | 2.9V | 18:12:15 | 00:55:08 | 00:00:00 | |
| DK9SH | 2026-09-04 23:13:11 | 51.38051 | 7.58037 | 85° | 181km/h | 8675m | 4.6m/s | -32.4°C | 5.7% | 333.9hPa | 2.7V | 00:00:00 | 00:00:00 | 00:00:00 | |
| DO1YAY-16 | 2026-09-04 23:13:09 | 51.38040 | 7.57816 | 86° | 181km/h | 8660m | 6.2m/s | -32.3°C | 5.6% | 334.5hPa | 2.7V | 00:00:00 | 00:00:00 | 00:00:00 | |
| BIOWL9-15 | 2026-09-04 23:13:08 | 51.38040 | 7.57816 | 86° | 181km/h | 8660m | 6.2m/s | -32.3°C | 5.6% | 334.5hPa | 2.7V | 00:00:00 | 00:00:00 | 00:00:00 | |
| DL1KLB | 2026-09-04 23:13:07 | 51.38037 | 7.57744 | 87° | 179km/h | 8656m | 3.2m/s | -32.3°C | 5.7% | 334.8hPa | 2.7V | 00:00:00 | 00:00:00 | 00:00:00 | |
| DM0DOS-11 | 2026-09-04 23:13:05 | 51.38008 | 7.57254 | 84° | 172km/h | 8619m | 6.3m/s | -32°C | 0% | 336.5hPa | 2.7V | 08:30:00 | 00:55:04 | 00:00:00 | |
| BIOWL1-15 | 2026-09-04 23:12:58 | 51.37999 | 7.57119 | 84° | 164km/h | 8611m | 2.6m/s | -32°C | 6.2% | 337hPa | 2.9V | 18:12:15 | 00:55:02 | 00:00:00 | |
| DO3DL | 2026-09-04 23:12:58 | 51.37999 | 7.57119 | 85° | 164km/h | 8611m | 2.6m/s | -32.0°C | 5.6% | 337.0hPa | 2.9V | 00:00:00 | 00:00:00 | 00:00:00 | |
| DD8BA-10 | 2026-09-04 23:12:57 | 51.37995 | 7.57053 | 84° | 172km/h | 8606m | 6.7m/s | -31.9°C | 6.8% | 337.3hPa | 2.9V | 00:00:00 | 00:00:00 | 00:00:00 | |
| DM0DOS-11 | 2026-09-04 23:12:55 | 51.37952 | 7.56577 | 81° | 177km/h | 8566m | 4.3m/s | -31.6°C | 0% | 339.2hPa | 2.9V | 08:30:00 | 00:54:54 | 00:00:00 | |
| BIOWL1-15 | 2026-09-04 23:12:47 | 51.37935 | 7.56364 | 82° | 179km/h | 8551m | 4.5m/s | -31.5°C | 6.9% | 339.9hPa | 2.8V | 18:12:15 | 00:54:51 | 00:00:00 | |
| HARRO8 | 2026-09-04 23:12:46 | 51.37929 | 7.56292 | 81° | 177km/h | 8546m | 5.8m/s | -31.5°C | 6.0% | 340.2hPa | 2.7V | 00:00:00 | 00:00:00 | 00:00:00 | |
| BIOWL1-15 | 2026-09-04 23:12:41 | 51.37866 | 7.55674 | 81° | 175km/h | 8495m | 7.2m/s | -31.2°C | 6.1% | 342.5hPa | 2.7V | 18:12:15 | 00:54:41 | 00:00:00 | |
| BIOWL1-15 | 2026-09-04 23:12:26 | 51.37783 | 7.54921 | 80° | 175km/h | 8430m | 4m/s | -30.7°C | 6.2% | 345.7hPa | 2.9V | 18:12:15 | 00:54:30 | 00:00:00 | |
| BIOWL1-15 | 2026-09-04 23:12:17 | 51.37713 | 7.54172 | 79° | 172km/h | 8377m | 6.5m/s | -30.4°C | 8.7% | 348.3hPa | 2.8V | 18:12:15 | 00:54:19 | 00:00:00 | |
| BIOWL1-15 | 2026-09-04 23:12:06 | 51.37648 | 7.53440 | 79° | 172km/h | 8317m | 8.3m/s | -30°C | 7.2% | 351.3hPa | 2.9V | 18:12:15 | 00:54:08 | 00:00:00 | |
| BIOWL1-15 | 2026-09-04 23:11:54 | 51.37581 | 7.52774 | 85° | 164km/h | 8260m | 7m/s | -29.6°C | 8.1% | 354.1hPa | 2.9V | 18:12:15 | 00:53:58 | 00:00:00 | |
| BUE01 | 2026-09-04 23:11:53 | 51.37566 | 7.52581 | 81° | 161km/h | 8247m | 2.8m/s | -29.5°C | 7.1% | 354.8hPa | 2.9V | 00:00:00 | 00:00:00 | 00:00:00 | |
| WPPR-10 | 2026-09-04 23:11:47 | 51.37535 | 7.52316 | 78° | 170km/h | 8230m | 3.6m/s | -29.4°C | 6.5% | 355.7hPa | 2.9V | 00:00:00 | 00:00:00 | 00:00:00 | |
| BIOWL1-15 | 2026-09-04 23:11:44 | 51.37473 | 7.51791 | 84° | 164km/h | 8181m | 6.9m/s | -29°C | 5.6% | 358hPa | 2.9V | 18:12:15 | 00:53:43 | 00:00:00 | |
| BIOWL1-15 | 2026-09-04 23:11:29 | 51.37411 | 7.51035 | 82° | 162km/h | 8116m | 6.4m/s | -28.5°C | 4.7% | 361.3hPa | 2.9V | 18:12:15 | 00:53:31 | 00:00:00 | |
| BIOWL1-15 | 2026-09-04 23:11:19 | 51.37379 | 7.50525 | 83° | 155km/h | 8078m | 3.1m/s | -28.2°C | 4.5% | 363.3hPa | 2.9V | 18:12:15 | 00:53:23 | 00:00:00 | |
| BIOWL1-15 | 2026-09-04 23:11:08 | 51.37336 | 7.49830 | 85° | 159km/h | 8024m | 5.1m/s | -27.9°C | 5.2% | 365.9hPa | 2.9V | 18:12:15 | 00:53:12 | 00:00:00 | |
| BIOWL1-15 | 2026-09-04 23:10:57 | 51.37298 | 7.49155 | 88° | 151km/h | 7967m | 6.4m/s | -27.6°C | 6.1% | 368.9hPa | 2.7V | 18:12:15 | 00:53:01 | 00:00:00 | |
| DD1CC8 | 2026-09-04 23:10:51 | 51.37284 | 7.48729 | 83° | 144km/h | 7928m | 6.4m/s | -27.3°C | 5.5% | 370.9hPa | 2.9V | 00:00:00 | 00:00:00 | 00:00:00 | |
| DL3AQ-11 | 2026-09-04 23:10:49 | 51.37276 | 7.48611 | 84° | 150km/h | 7917m | 3.5m/s | -27.2°C | 5.5% | 371.4hPa | 2.9V | 00:00:00 | 00:00:00 | 00:00:00 | |
| BIOWL1-15 | 2026-09-04 23:10:47 | 51.37257 | 7.48241 | 86° | 150km/h | 7887m | 5.9m/s | -26.9°C | 6% | 373hPa | 2.9V | 18:12:15 | 00:52:46 | 00:00:00 | |
| WPPR-10 | 2026-09-04 23:10:45 | 51.37265 | 7.48425 | 85° | 155km/h | 7903m | 6.6m/s | -27.0°C | 5.4% | 372.2hPa | 2.7V | 00:00:00 | 00:00:00 | 00:00:00 | |
| BIOWL1-15 | 2026-09-04 23:10:31 | 51.37223 | 7.47574 | 85° | 153km/h | 7842m | 4.2m/s | -26.6°C | 6% | 375.3hPa | 2.7V | 18:12:15 | 00:52:35 | 00:00:00 | |
| BIOWL1-15 | 2026-09-04 23:10:20 | 51.37192 | 7.46895 | 85° | 148km/h | 7792m | 5.6m/s | -26.4°C | 6.3% | 377.9hPa | 2.9V | 18:12:15 | 00:52:24 | 00:00:00 | |
| BIOWL1-15 | 2026-09-04 23:10:10 | 51.37171 | 7.45993 | 90° | 150km/h | 7712m | 5.1m/s | -25.6°C | 5.8% | 382.2hPa | 2.9V | 18:12:15 | 00:52:09 | 00:00:00 | |
| DO2KSM | 2026-09-04 23:10:10 | 51.37176 | 7.46291 | 88° | 150km/h | 7739m | 5.6m/s | -25.8°C | 5.6% | 380.8hPa | 2.9V | 00:00:00 | 00:00:00 | 00:00:00 | |
| DL3AQ-11 | 2026-09-04 23:10:09 | 51.37173 | 7.46172 | 88° | 146km/h | 7728m | 7.0m/s | -25.7°C | 5.5% | 381.3hPa | 2.9V | 00:00:00 | 00:00:00 | 00:00:00 | |
| DO3DL | 2026-09-04 23:10:08 | 51.37173 | 7.46171 | 89° | 146km/h | 7728m | 7.0m/s | -25.7°C | 5.5% | 381.3hPa | 2.9V | 00:00:00 | 00:00:00 | 00:00:00 | |
| DM0DOS-11 | 2026-09-04 23:10:07 | 51.37171 | 7.45993 | 90° | 150km/h | 7712m | 5.1m/s | -25.6°C | 0% | 382.1hPa | 2.9V | 08:30:00 | 00:52:09 | 00:00:00 | |
| BIOWL1-15 | 2026-09-04 23:10:01 | 51.37169 | 7.45617 | 88° | 157km/h | 7686m | 4.3m/s | -25.4°C | 5.8% | 383.5hPa | 2.8V | 18:12:15 | 00:52:03 | 00:00:00 | |
| BIOWL1-15 | 2026-09-04 23:09:48 | 51.37151 | 7.44933 | 91° | 153km/h | 7632m | 3.4m/s | -24.9°C | 5.6% | 386.4hPa | 2.9V | 18:12:15 | 00:51:52 | 00:00:00 | |
| BIOWL1-15 | 2026-09-04 23:09:37 | 51.37143 | 7.43995 | 90° | 148km/h | 7558m | 5.5m/s | -24.3°C | 4.7% | 390.4hPa | 2.8V | 18:12:15 | 00:51:37 | 00:00:00 | |
| BIOWL1-15 | 2026-09-04 23:09:23 | 51.37131 | 7.43400 | 88° | 148km/h | 7507m | 7.5m/s | -23.8°C | 4.5% | 393.1hPa | 2.9V | 18:12:15 | 00:51:27 | 00:00:00 | |
| BIOWL1-15 | 2026-09-04 23:09:13 | 51.37113 | 7.42777 | 88° | 155km/h | 7457m | 5.3m/s | -23.3°C | 4% | 395.8hPa | 2.8V | 18:12:15 | 00:51:17 | 00:00:00 | |
| BIOWL1-15 | 2026-09-04 23:09:08 | 51.37096 | 7.42104 | 84° | 151km/h | 7402m | 4.9m/s | -22.8°C | 3.5% | 398.6hPa | 2.9V | 18:12:15 | 00:51:06 | 00:00:00 | |
| BIOWL1-15 | 2026-09-04 23:08:51 | 51.37071 | 7.41430 | 88° | 146km/h | 7346m | 5.3m/s | -22.4°C | 1.5% | 401.8hPa | 2.9V | 18:12:15 | 00:50:55 | 00:00:00 | |
| DL3AQ-11 | 2026-09-04 23:08:49 | 51.37066 | 7.41255 | 84° | 146km/h | 7331m | 3.4m/s | -22.3°C | 2.5% | 402.7hPa | 2.9V | 00:00:00 | 00:00:00 | 00:00:00 | |
| DD1CC8 | 2026-09-04 23:08:47 | 51.37059 | 7.41136 | 85° | 148km/h | 7323m | 6.6m/s | -22.3°C | 2.5% | 403.1hPa | 2.9V | 00:00:00 | 00:00:00 | 00:00:00 | |
| BIOWL1-15 | 2026-09-04 23:08:40 | 51.37042 | 7.40779 | 86° | 150km/h | 7293m | 3.8m/s | -22.2°C | 0.8% | 404.7hPa | 2.9V | 18:12:15 | 00:50:44 | 00:00:00 | |
| BIOWL1-15 | 2026-09-04 23:08:29 | 51.37016 | 7.40130 | 86° | 139km/h | 7240m | 6.3m/s | -21.7°C | 0.6% | 407.7hPa | 2.8V | 18:12:15 | 00:50:33 | 00:00:00 | |
| BIOWL1-15 | 2026-09-04 23:08:18 | 51.36944 | 7.39192 | 80° | 150km/h | 7152m | 6m/s | -21.1°C | 0.4% | 412.6hPa | 2.9V | 18:12:15 | 00:50:17 | 00:00:00 | |
| DO3DL | 2026-09-04 23:08:18 | 51.36965 | 7.39475 | 86° | 139km/h | 7185m | 6.2m/s | -21.2°C | 2.3% | 410.7hPa | 2.8V | 00:00:00 | 00:00:00 | 00:00:00 | |
| DH3RM | 2026-09-04 23:08:16 | 51.36959 | 7.39363 | 85° | 139km/h | 7174m | 5.4m/s | -21.1°C | 2.2% | 411.4hPa | 2.8V | 00:00:00 | 00:00:00 | 00:00:00 | |
| DL1KLB | 2026-09-04 23:08:13 | 51.36950 | 7.39250 | 83° | 144km/h | 7159m | 7.5m/s | -21.2°C | 2.2% | 412.1hPa | 2.8V | 00:00:00 | 00:00:00 | 00:00:00 | |
| BIOWL1-15 | 2026-09-04 23:08:04 | 51.36861 | 7.38173 | 85° | 146km/h | 7054m | 4.2m/s | -20.5°C | 0.1% | 418.1hPa | 2.8V | 18:12:15 | 00:50:00 | 00:00:00 | |
| BIOWL1-15 | 2026-09-04 23:08:00 | 51.36856 | 7.38055 | 87° | 148km/h | 7043m | 5.7m/s | -20.5°C | 0.2% | 418.7hPa | 2.9V | 18:12:15 | 00:49:58 | 00:00:00 | |
| DL3AQ-11 | 2026-09-04 23:07:58 | 51.36864 | 7.38231 | 84° | 144km/h | 7058m | 4.0m/s | -20.6°C | 2.1% | 417.9hPa | 2.9V | 00:00:00 | 00:00:00 | 00:00:00 | |
| AU51GT2 | 2026-09-04 23:07:57 | 51.36864 | 7.38231 | 84° | 144km/h | 7058m | 4.0m/s | -20.6°C | 2.1% | 417.9hPa | 2.9V | 00:00:00 | 00:00:00 | 00:00:00 | |
| DB0ND-19 | 2026-09-04 23:07:55 | 51.36856 | 7.38055 | 87° | 148km/h | 7043m | 5.7m/s | -20.5°C | 2.1% | 418.7hPa | 2.9V | 00:00:00 | 00:00:00 | 00:00:00 | |
| DL1ZP-14 | 2026-09-04 23:07:54 | 51.36856 | 7.38055 | 87° | 148km/h | 7043m | 5.7m/s | -20.5°C | 2.1% | 418.7hPa | 2.9V | 00:00:00 | 00:00:00 | 00:00:00 | |
| DD1CC8 | 2026-09-04 23:07:45 | 51.36800 | 7.37464 | 82° | 142km/h | 6990m | 5.8m/s | -20.4°C | 2.1% | 421.7hPa | 2.9V | 00:00:00 | 00:00:00 | 00:00:00 | |
| BIOWL1-15 | 2026-09-04 23:07:43 | 51.36796 | 7.37406 | 83° | 144km/h | 6985m | 3.6m/s | -20.4°C | 0.3% | 421.9hPa | 2.9V | 18:12:15 | 00:49:47 | 00:00:00 | |
| BIOWL1-15 | 2026-09-04 23:07:32 | 51.36747 | 7.36757 | 85° | 146km/h | 6939m | 3.5m/s | -20°C | 0.4% | 424.6hPa | 2.9V | 18:12:15 | 00:49:36 | 00:00:00 | |
| BIOWL1-15 | 2026-09-04 23:07:24 | 51.36681 | 7.35940 | 80° | 146km/h | 6869m | 3.5m/s | -20.1°C | 0.9% | 428.7hPa | 2.9V | 18:12:15 | 00:49:22 | 00:00:00 | |
| BIOWL1-15 | 2026-09-04 23:07:10 | 51.36655 | 7.35464 | 85° | 153km/h | 6829m | 5.7m/s | -20°C | 1.2% | 430.9hPa | 2.9V | 18:12:15 | 00:49:14 | 00:00:00 | |
| BIOWL1-15 | 2026-09-04 23:07:06 | 51.36622 | 7.34882 | 86° | 139km/h | 6769m | 4.7m/s | -19.6°C | 1% | 434.5hPa | 2.9V | 18:12:15 | 00:49:04 | 00:00:00 | |
| BIOWL1-15 | 2026-09-04 23:06:50 | 51.36592 | 7.34314 | 84° | 133km/h | 6715m | 5.7m/s | -19.6°C | 1% | 437.7hPa | 2.9V | 18:12:15 | 00:48:54 | 00:00:00 | |
| DL3AQ-11 | 2026-09-04 23:06:49 | 51.36585 | 7.34206 | 84° | 135km/h | 6701m | 8.2m/s | -19.5°C | 2.6% | 438.5hPa | 2.8V | 00:00:00 | 00:00:00 | 00:00:00 | |
| BIOWL1-15 | 2026-09-04 23:06:42 | 51.36571 | 7.33768 | 83° | 130km/h | 6654m | 4.4m/s | -19.3°C | 0.7% | 441.1hPa | 2.8V | 18:12:15 | 00:48:44 | 00:00:00 | |
| BIOWL1-15 | 2026-09-04 23:06:31 | 51.36554 | 7.32994 | 91° | 133km/h | 6577m | 5m/s | -19°C | 0.4% | 445.8hPa | 2.9V | 18:12:15 | 00:48:30 | 00:00:00 | |
| BIOWL1-15 | 2026-09-04 23:06:19 | 51.36565 | 7.32596 | 90° | 115km/h | 6540m | 4.3m/s | -18.8°C | 0.4% | 448.2hPa | 2.9V | 18:12:15 | 00:48:22 | 00:00:00 | |
| DB0UT-7 | 2026-09-04 23:06:19 | 51.36564 | 7.32643 | 94° | 122km/h | 6545m | 5.0m/s | -18.7°C | 2.7% | 447.8hPa | 2.9V | 00:00:00 | 00:48:23 | 08:30:00 | |
| DD8BA-10 | 2026-09-04 23:06:17 | 51.36565 | 7.32550 | 89° | 124km/h | 6536m | 5.2m/s | -18.7°C | 2.8% | 448.3hPa | 2.9V | 00:00:00 | 00:00:00 | 00:00:00 | |
| DO9LL-15 | 2026-09-04 23:06:15 | 51.36563 | 7.32453 | 88° | 124km/h | 6522m | 7.1m/s | -18.7°C | 2.7% | 449.2hPa | 2.9V | 00:00:00 | 00:48:19 | 00:00:00 | |
| DB0NH | 2026-09-04 23:06:14 | 51.36561 | 7.32401 | 88° | 122km/h | 6515m | 6.6m/s | 0°C | 0% | 0hPa | 2.9V | 00:00:00 | 00:48:18 | 00:00:00 | |
| DM0DOS-11 | 2026-09-04 23:06:12 | 51.36563 | 7.32093 | 93° | 120km/h | 6482m | 5.5m/s | -18.6°C | 0% | 451.7hPa | 2.9V | 08:30:00 | 00:48:12 | 00:00:00 | |
| BIOWL1-15 | 2026-09-04 23:05:56 | 51.36552 | 7.31486 | 86° | 119km/h | 6422m | 4.7m/s | -18.2°C | 0.4% | 455.4hPa | 2.9V | 18:12:15 | 00:48:00 | 00:00:00 | |
| BIOWL1-15 | 2026-09-04 23:05:45 | 51.36544 | 7.30918 | 87° | 124km/h | 6364m | 4.9m/s | -17.8°C | 0.4% | 458.8hPa | 2.9V | 18:12:15 | 00:47:48 | 00:00:00 | |
| BIOWL1-15 | 2026-09-04 23:05:32 | 51.36531 | 7.30339 | 89° | 119km/h | 6309m | 6m/s | -17.3°C | 0.4% | 462.2hPa | 2.9V | 18:12:15 | 00:47:36 | 00:00:00 | |
| BIOWL1-15 | 2026-09-04 23:05:21 | 51.36526 | 7.29802 | 85° | 119km/h | 6252m | 6.3m/s | -16.9°C | 0.4% | 0hPa | 2.9V | 18:12:15 | 00:47:24 | 00:00:00 | |
| BIOWL1-15 | 2026-09-04 23:05:11 | 51.36515 | 7.29233 | 86° | 108km/h | 6197m | 4.1m/s | -16.7°C | 0.8% | 0hPa | 2.8V | 18:12:15 | 00:47:12 | 00:00:00 | |
| BIOWL1-15 | 2026-09-04 23:05:00 | 51.36498 | 7.28743 | 89° | 110km/h | 6140m | 5m/s | -16.4°C | 2.2% | 0hPa | 2.9V | 18:12:15 | 00:47:01 | 00:00:00 | |
| BIOWL1-15 | 2026-09-04 23:04:47 | 51.36488 | 7.28302 | 88° | 102km/h | 6102m | 3.4m/s | 0°C | 0% | 0hPa | 2.9V | 18:12:15 | 00:46:51 | 00:00:00 | |
| BIOWL1-15 | 2026-09-04 23:04:38 | 51.36489 | 7.27814 | 89° | 106km/h | 6058m | 7.8m/s | 0°C | 0% | 0hPa | 2.9V | 18:12:15 | 00:46:40 | 00:00:00 | |
| DL3AQ-11 | 2026-09-04 23:04:38 | 51.36489 | 7.27856 | 91° | 100km/h | 6065m | 6.9m/s | -16.5°C | 8.9% | 477.5hPa | 2.9V | 00:00:00 | 00:00:00 | 00:00:00 | |
| DO9LL-15 | 2026-09-04 23:04:36 | 51.36489 | 7.27814 | 89° | 82km/h | 6058m | 7.7m/s | -16.5°C | 9.8% | 477.9hPa | 2.9V | 00:00:00 | 00:46:40 | 00:00:00 | |
| DO3DL | 2026-09-04 23:04:35 | 51.36488 | 7.27770 | 88° | 108km/h | 6050m | 7.0m/s | -16.5°C | 9.4% | 478.3hPa | 2.9V | 00:00:00 | 00:00:00 | 00:00:00 | |
| BIOWL1-15 | 2026-09-04 23:04:16 | 51.36491 | 7.27021 | 103° | 91km/h | 5942m | 7m/s | 0°C | 0% | 0hPa | 2.9V | 18:12:15 | 00:46:20 | 00:00:00 | |
| DO3DL | 2026-09-04 23:04:15 | 51.36496 | 7.26986 | 105° | 89km/h | 5936m | 5.3m/s | -16.7°C | 19.4% | 485.6hPa | 2.9V | 00:00:00 | 00:00:00 | 00:00:00 | |
| DD8BA-10 | 2026-09-04 23:04:14 | 51.36501 | 7.26950 | 104° | 86km/h | 5930m | 5.5m/s | 0°C | 0% | 0hPa | 2.9V | 00:00:00 | 00:00:00 | 00:00:00 | |
| NBG1-10 | 2026-09-04 23:04:11 | 51.36514 | 7.26842 | 100° | 86km/h | 5916m | 7.0m/s | 0°C | 0% | 0hPa | 2.9V | 00:00:00 | 00:46:15 | 00:00:00 | |
| DD1CC1-15 | 2026-09-04 23:04:08 | 51.36520 | 7.26773 | 98° | 84km/h | 5902m | 6.1m/s | -16.9°C | 25.8% | 487.9hPa | 2.9V | 00:00:00 | 00:00:00 | 00:00:00 | |
| DD1CC8 | 2026-09-04 23:04:07 | 51.36524 | 7.26706 | 94° | 82km/h | 5892m | 4.5m/s | -17.0°C | 25.8% | 488.6hPa | 2.9V | 00:00:00 | 00:00:00 | 00:00:00 | |
| DH3RM | 2026-09-04 23:04:04 | 51.36526 | 7.26638 | 96° | 84km/h | 5883m | 3.9m/s | -16.9°C | 25.7% | 489.0hPa | 2.9V | 00:00:00 | 00:00:00 | 00:00:00 | |
| WPPR-10 | 2026-09-04 23:04:01 | 51.36540 | 7.26504 | 103° | 86km/h | 5863m | 4.6m/s | -16.8°C | 24.7% | 490.3hPa | 2.9V | 00:00:00 | 00:00:00 | 00:00:00 | |
| DL3AQ-11 | 2026-09-04 23:03:58 | 51.36557 | 7.26369 | 96° | 77km/h | 5846m | 5.6m/s | -16.7°C | 24.5% | 491.4hPa | 2.9V | 00:00:00 | 00:00:00 | 00:00:00 | |
| DO1YAY-16 | 2026-09-04 23:03:50 | 51.36569 | 7.26134 | 103° | 71km/h | 5798m | 6.8m/s | -16.5°C | 25.9% | 494.5hPa | 2.9V | 00:00:00 | 00:00:00 | 00:00:00 | |
| AU51GT2 | 2026-09-04 23:03:49 | 51.36573 | 7.26106 | 106° | 69km/h | 5792m | 5.5m/s | -16.5°C | 25.8% | 494.9hPa | 2.9V | 00:00:00 | 00:00:00 | 00:00:00 | |
| DB0ND-19 | 2026-09-04 23:03:47 | 51.36589 | 7.26021 | 109° | 77km/h | 5779m | 4.1m/s | 0°C | -1.0% | 495.9hPa | 2.9V | 00:00:00 | 00:00:00 | 00:00:00 | |
| DL1ZP-14 | 2026-09-04 23:03:45 | 51.36589 | 7.26021 | 109° | 77km/h | 5779m | 4.1m/s | -16.4°C | 23.4% | 495.9hPa | 2.9V | 00:00:00 | 00:00:00 | 00:00:00 | |
| DD8BA-10 | 2026-09-04 23:03:44 | 51.36596 | 7.25992 | 110° | 75km/h | 5775m | 4.1m/s | 0°C | 0% | 0hPa | 2.9V | 00:00:00 | 00:00:00 | 00:00:00 | |
| DL1KLB | 2026-09-04 23:03:42 | 51.36603 | 7.25962 | 112° | 78km/h | 5772m | 3.1m/s | -16.4°C | 22.5% | 496.4hPa | 2.9V | 00:00:00 | 00:00:00 | 00:00:00 | |
| DO3DL | 2026-09-04 23:03:41 | 51.36609 | 7.25933 | 108° | 75km/h | 5768m | 4.3m/s | -16.4°C | 21.9% | 496.6hPa | 2.9V | 00:00:00 | 00:00:00 | 00:00:00 | |
| DH3RM | 2026-09-04 23:03:40 | 51.36617 | 7.25873 | 97° | 75km/h | 5761m | 5.3m/s | -16.3°C | 20.3% | 497.0hPa | 2.9V | 00:00:00 | 00:00:00 | 00:00:00 | |
| DO3DL | 2026-09-04 23:03:36 | 51.36619 | 7.25756 | 93° | 73km/h | 5742m | 3.5m/s | -16.1°C | 17.6% | 498.4hPa | 2.9V | 00:00:00 | 00:00:00 | 00:00:00 | |
| DD8BA-10 | 2026-09-04 23:03:34 | 51.36621 | 7.25697 | 95° | 69km/h | 5735m | 4.9m/s | 0°C | 0% | 0hPa | 2.9V | 00:00:00 | 00:00:00 | 00:00:00 | |
| DH3RM | 2026-09-04 23:03:33 | 51.36621 | 7.25697 | 95° | 73km/h | 5735m | 4.9m/s | -16.1°C | 16.9% | 498.9hPa | 2.9V | 00:00:00 | 00:00:00 | 00:00:00 | |
| DJ2KF-10 | 2026-09-04 23:03:32 | 51.36623 | 7.25636 | 93° | 64km/h | 5725m | 6.7m/s | -15.9°C | 16.9% | 499.6hPa | 2.9V | 00:00:00 | 00:45:36 | 00:00:00 | |
| WPPR-10 | 2026-09-04 23:03:30 | 51.36625 | 7.25573 | 91° | 77km/h | 5714m | 4.1m/s | -15.9°C | 16.3% | 500.4hPa | 2.9V | 00:00:00 | 00:00:00 | 00:00:00 | |
| DJ3KS | 2026-09-04 23:03:29 | 51.36625 | 7.25573 | 92° | 77km/h | 5714m | 4.1m/s | -15.9°C | 16.3% | 500.4hPa | 2.9V | 00:00:00 | 00:00:00 | 00:00:00 | |
| DD1CC1-15 | 2026-09-04 23:03:28 | 51.36625 | 7.25543 | 94° | 71km/h | 5710m | 3.9m/s | -15.8°C | 15.1% | 500.6hPa | 2.9V | 00:00:00 | 00:00:00 | 00:00:00 | |
| DH3RM | 2026-09-04 23:03:26 | 51.36628 | 7.25490 | 100° | 60km/h | 5699m | 7.2m/s | -15.8°C | 13.4% | 501.3hPa | 2.9V | 00:00:00 | 00:00:00 | 00:00:00 | |
| DD8BA-10 | 2026-09-04 23:03:24 | 51.36638 | 7.25428 | 108° | 60km/h | 5678m | 7.9m/s | 0°C | 0% | 0hPa | 2.9V | 00:00:00 | 00:00:00 | 00:00:00 | |
| DL1KLB | 2026-09-04 23:03:21 | 51.36645 | 7.25389 | 105° | 55km/h | 5664m | 6.1m/s | -15.5°C | 11.1% | 503.6hPa | 2.9V | 00:00:00 | 00:00:00 | 00:00:00 | |
| DO2KSM | 2026-09-04 23:03:20 | 51.36649 | 7.25367 | 105° | 58km/h | 5657m | 7.6m/s | -15.4°C | 10.4% | 504.1hPa | 2.9V | 00:00:00 | 00:00:00 | 00:00:00 | |
| DB0UT-7 | 2026-09-04 23:03:19 | 51.36656 | 7.25318 | 108° | 64km/h | 5643m | 6.3m/s | -15.3°C | 9.8% | 505.0hPa | 2.9V | 00:00:00 | 00:45:23 | 00:00:00 | |
| DL3AQ-11 | 2026-09-04 23:03:18 | 51.36669 | 7.25267 | 116° | 68km/h | 5632m | 5.8m/s | -15.5°C | 8.1% | 505.8hPa | 2.9V | 00:00:00 | 00:00:00 | 00:00:00 | |
| DO3DL | 2026-09-04 23:03:15 | 51.36677 | 7.25243 | 122° | 68km/h | 5627m | 4.4m/s | -15.6°C | 8.2% | 506.2hPa | 2.9V | 00:00:00 | 00:00:00 | 00:00:00 | |
| DD8BA-10 | 2026-09-04 23:03:14 | 51.36694 | 7.25198 | 119° | 62km/h | 5617m | 3.7m/s | 0°C | 0% | 0hPa | 2.9V | 00:00:00 | 00:00:00 | 00:00:00 | |
| DD1CC3-15 | 2026-09-04 23:03:12 | 51.36701 | 7.25176 | 116° | 60km/h | 5614m | 3.7m/s | -15.6°C | 7.9% | 506.9hPa | 2.9V | 00:00:00 | 00:00:00 | 00:00:00 | |
| DJ3KS | 2026-09-04 23:03:09 | 51.36718 | 7.25109 | 111° | 58km/h | 5597m | 7.7m/s | -15.7°C | 7.1% | 508.2hPa | 2.9V | 00:00:00 | 00:00:00 | 00:00:00 | |
| DH3RM | 2026-09-04 23:03:08 | 51.36723 | 7.25087 | 111° | 60km/h | 5589m | 6.9m/s | -15.7°C | 7.1% | 508.6hPa | 2.9V | 00:00:00 | 00:00:00 | 00:00:00 | |
| DD1CC1-15 | 2026-09-04 23:03:07 | 51.36727 | 7.25064 | 111° | 60km/h | 5583m | 5.4m/s | -15.8°C | 7.0% | 509.0hPa | 2.9V | 00:00:00 | 00:00:00 | 00:00:00 | |
| DD1CC8 | 2026-09-04 23:03:05 | 51.36749 | 7.24963 | 106° | 64km/h | 5567m | 3.2m/s | -15.9°C | 6.7% | 510.1hPa | 2.9V | 00:00:00 | 00:00:00 | 00:00:00 | |
| DD8BA-10 | 2026-09-04 23:03:04 | 51.36749 | 7.24963 | 107° | 60km/h | 5568m | 3.2m/s | 0°C | 0% | 0hPa | 2.9V | 00:00:00 | 00:00:00 | 00:00:00 | |
| DO3DL | 2026-09-04 23:03:02 | 51.36753 | 7.24939 | 108° | 60km/h | 5564m | 3.9m/s | -15.9°C | 6.7% | 510.3hPa | 2.9V | 00:00:00 | 00:00:00 | 00:00:00 | |
| BIOWL1-15 | 2026-09-04 23:02:45 | 51.36854 | 7.24526 | 113° | 57km/h | 5460m | 4.5m/s | 0°C | 0% | 0hPa | 2.9V | 18:12:15 | 00:44:49 | 00:00:00 | |
| DL1ZP-14 | 2026-09-04 23:02:43 | 51.36866 | 7.24485 | 117° | 55km/h | 5446m | 7.5m/s | -15.7°C | -1.0% | -1.0hPa | 2.9V | 00:00:00 | 00:00:00 | 00:00:00 | |
| DO3DL | 2026-09-04 23:02:42 | 51.36866 | 7.24484 | 119° | 55km/h | 5446m | 7.5m/s | -15.7°C | 10.5% | 518.2hPa | 2.9V | 00:00:00 | 00:00:00 | 00:00:00 | |
| DL1KLB | 2026-09-04 23:02:40 | 51.36880 | 7.24445 | 124° | 58km/h | 5435m | 4.7m/s | -15.7°C | 9.1% | 519.2hPa | 2.9V | 00:00:00 | 00:00:00 | 00:00:00 | |
| DH3RM | 2026-09-04 23:02:39 | 51.36888 | 7.24425 | 128° | 60km/h | 5429m | 6.6m/s | -15.7°C | 9.9% | 519.6hPa | 2.9V | 00:00:00 | 00:00:00 | 00:00:00 | |
| DL3AQ-11 | 2026-09-04 23:02:37 | 51.36915 | 7.24359 | 118° | 66km/h | 5414m | 3.0m/s | -15.8°C | 20.4% | 520.6hPa | 2.9V | 00:00:00 | 00:00:00 | 00:00:00 | |
| DD8BA-10 | 2026-09-04 23:02:36 | 51.36923 | 7.24335 | 118° | 68km/h | 5411m | 2.5m/s | 0°C | 0% | 0hPa | 2.9V | 00:00:00 | 00:00:00 | 08:30:00 | |
| DO3DL | 2026-09-04 23:02:35 | 51.36923 | 7.24335 | 118° | 68km/h | 5411m | 2.6m/s | -15.8°C | 23.1% | 520.9hPa | 2.9V | 00:00:00 | 00:00:00 | 00:00:00 | |
| DD1CC8 | 2026-09-04 23:02:34 | 51.36948 | 7.24265 | 123° | 64km/h | 5396m | 4.9m/s | -15.8°C | 21.1% | 521.8hPa | 2.9V | 00:00:00 | 00:00:00 | 00:00:00 | |
| DJ2KF-10 | 2026-09-04 23:02:32 | 51.36957 | 7.24245 | 127° | 64km/h | 5392m | 3.5m/s | -15.8°C | 33.0% | 522.2hPa | 2.9V | 00:00:00 | 00:44:36 | 00:00:00 | |
| DD1CC3-15 | 2026-09-04 23:02:31 | 51.36957 | 7.24245 | 128° | 60km/h | 5392m | 3.5m/s | -15.9°C | 31.7% | 522.2hPa | 2.9V | 00:00:00 | 00:00:00 | 00:00:00 | |
| WPPR-10 | 2026-09-04 23:02:28 | 51.36989 | 7.24166 | 117° | 58km/h | 5374m | 5.8m/s | -15.8°C | 39.3% | 523.4hPa | 2.9V | 00:00:00 | 00:00:00 | 00:00:00 | |
| DD1CC1-15 | 2026-09-04 23:02:26 | 51.36996 | 7.24143 | 118° | 66km/h | 5369m | 4.6m/s | -15.8°C | 40.2% | 523.7hPa | 2.9V | 00:00:00 | 00:00:00 | 00:00:00 | |
| DH3RM | 2026-09-04 23:02:22 | 51.37028 | 7.24041 | 120° | 68km/h | 5350m | 5.9m/s | -15.7°C | 42.1% | 525.1hPa | 2.9V | 00:00:00 | 00:00:00 | 00:00:00 | |
| DO3DL | 2026-09-04 23:02:21 | 51.37036 | 7.24018 | 123° | 64km/h | 5345m | 4.3m/s | -15.7°C | 41.7% | 525.5hPa | 2.9V | 00:00:00 | 00:00:00 | 00:00:00 | |
| DL1KLB | 2026-09-04 23:02:20 | 51.37045 | 7.23996 | 124° | 62km/h | 5341m | 4.0m/s | -15.7°C | 41.5% | 525.7hPa | 2.9V | 00:00:00 | 00:00:00 | 00:00:00 | |
| DB0UT-7 | 2026-09-04 23:02:19 | 51.37062 | 7.23954 | 124° | 64km/h | 5331m | 7.4m/s | -15.5°C | 41.6% | 526.5hPa | 2.9V | 00:00:00 | 00:44:23 | 00:00:00 | |
| DO2KSM | 2026-09-04 23:02:17 | 51.37071 | 7.23932 | 123° | 66km/h | 5324m | 6.8m/s | -15.5°C | 39.8% | 526.9hPa | 2.9V | 00:00:00 | 00:00:00 | 00:00:00 | |
| DO1YAY-16 | 2026-09-04 23:02:16 | 51.37089 | 7.23886 | 123° | 66km/h | 5314m | 3.9m/s | -15.4°C | 39.5% | 527.6hPa | 2.9V | 00:00:00 | 00:00:00 | 00:00:00 | |
| DH3RM | 2026-09-04 23:02:15 | 51.37090 | 7.23886 | 124° | 68km/h | 5314m | 3.9m/s | -15.4°C | 39.5% | 527.6hPa | 2.9V | 00:00:00 | 00:00:00 | 00:00:00 | |
| DD8BA-10 | 2026-09-04 23:02:14 | 51.37108 | 7.23842 | 128° | 62km/h | 5305m | 5.3m/s | 0°C | 0% | 0hPa | 2.9V | 00:00:00 | 00:00:00 | 00:00:00 | |
| DL1ZP-14 | 2026-09-04 23:02:12 | 51.37128 | 7.23801 | 126° | 62km/h | 5295m | 5.7m/s | 0°C | -1.0% | -1.0hPa | 2.9V | 00:00:00 | 00:00:00 | 00:00:00 | |
| DD1CC3-15 | 2026-09-04 23:02:11 | 51.37128 | 7.23801 | 127° | 62km/h | 5296m | 5.7m/s | -15.2°C | 38.0% | 528.9hPa | 2.9V | 00:00:00 | 00:00:00 | 00:00:00 | |
| DL3AQ-11 | 2026-09-04 23:02:09 | 51.37163 | 7.23709 | 116° | 68km/h | 5273m | 7.2m/s | -15.1°C | 33.8% | 530.5hPa | 2.9V | 00:00:00 | 00:00:00 | 00:00:00 | |
| DO3DL | 2026-09-04 23:02:08 | 51.37163 | 7.23709 | 117° | 68km/h | 5273m | 7.2m/s | -15.1°C | 33.7% | 530.5hPa | 2.9V | 00:00:00 | 00:00:00 | 00:00:00 | |
| DD1CC1-15 | 2026-09-04 23:02:07 | 51.37169 | 7.23684 | 115° | 66km/h | 5266m | 7.5m/s | -15.1°C | 35.1% | 530.9hPa | 2.9V | 00:00:00 | 00:00:00 | 00:00:00 | |
| DJ2KF-10 | 2026-09-04 23:02:02 | 51.37197 | 7.23568 | 108° | 64km/h | 5236m | 8.0m/s | -14.9°C | 36.4% | 533.0hPa | 2.9V | 00:00:00 | 00:44:06 | 00:00:00 | |
| WPPR-10 | 2026-09-04 23:01:57 | 51.37224 | 7.23451 | 110° | 58km/h | 5203m | 7.3m/s | -14.7°C | 37.7% | 535.4hPa | 2.9V | 00:00:00 | 00:00:00 | 00:00:00 | |
| AU51GT2 | 2026-09-04 23:01:45 | 51.37308 | 7.23139 | 121° | 62km/h | 5128m | 3.3m/s | -14.2°C | 37.4% | 540.7hPa | 2.9V | 00:00:00 | 00:00:00 | 00:00:00 | |
| DD8BA-10 | 2026-09-04 23:01:44 | 51.37308 | 7.23139 | 122° | 60km/h | 5129m | 3.3m/s | 0°C | 0% | 0hPa | 2.9V | 00:00:00 | 00:00:00 | 00:00:00 | |
| DO3DL | 2026-09-04 23:01:42 | 51.37323 | 7.23097 | 116° | 58km/h | 5120m | 5.2m/s | -14.1°C | 37.0% | 541.3hPa | 2.9V | 00:00:00 | 00:00:00 | 00:00:00 | |
| DL1KLB | 2026-09-04 23:01:39 | 51.37333 | 7.23053 | 108° | 60km/h | 5110m | 6.5m/s | -14.0°C | 36.6% | 542.1hPa | 2.9V | 00:00:00 | 00:00:00 | 00:00:00 | |
| DO2KSM | 2026-09-04 23:01:36 | 51.37348 | 7.22977 | 111° | 73km/h | 5092m | 3.7m/s | -13.8°C | 35.6% | 543.3hPa | 2.9V | 00:00:00 | 00:00:00 | 00:00:00 | |
| DO3DL | 2026-09-04 23:01:34 | 51.37362 | 7.22923 | 116° | 68km/h | 5082m | 5.5m/s | -13.8°C | 34.9% | 544.0hPa | 2.9V | 00:00:00 | 00:00:00 | 00:00:00 | |
| DD1CC8 | 2026-09-04 23:01:32 | 51.37390 | 7.22835 | 113° | 58km/h | 5060m | 7.2m/s | -13.6°C | 35.0% | 545.5hPa | 2.9V | 00:00:00 | 00:00:00 | 00:00:00 | |
| DD1CC3-15 | 2026-09-04 23:01:30 | 51.37389 | 7.22835 | 114° | 58km/h | 5060m | 7.2m/s | -13.6°C | 35.0% | 545.5hPa | 2.9V | 00:00:00 | 00:00:00 | 00:00:00 | |
| DL3AQ-11 | 2026-09-04 23:01:29 | 51.37407 | 7.22761 | 110° | 68km/h | 5042m | 5.2m/s | -13.4°C | 35.7% | 546.7hPa | 2.9V | 00:00:00 | 00:00:00 | 00:00:00 | |
| DO3DL | 2026-09-04 23:01:27 | 51.37406 | 7.22761 | 111° | 68km/h | 5042m | 5.2m/s | -13.4°C | 35.7% | 546.7hPa | 2.9V | 00:00:00 | 00:00:00 | 00:00:00 | |
| WPPR-10 | 2026-09-04 23:01:26 | 51.37418 | 7.22711 | 112° | 62km/h | 5032m | 5.6m/s | -13.4°C | 36.1% | 547.6hPa | 2.9V | 00:00:00 | 00:00:00 | 00:00:00 | |
| DD8BA-10 | 2026-09-04 23:01:25 | 51.37424 | 7.22687 | 111° | 68km/h | 5028m | 4.3m/s | 0°C | 0% | 0hPa | 2.9V | 00:00:00 | 00:00:00 | 00:00:00 | |
| DH3RM | 2026-09-04 23:01:23 | 51.37430 | 7.22664 | 112° | 60km/h | 5023m | 5.1m/s | -13.3°C | 36.8% | 548.2hPa | 2.9V | 00:00:00 | 00:00:00 | 00:00:00 | |
| DO3DL | 2026-09-04 23:01:20 | 51.37449 | 7.22591 | 116° | 68km/h | 5009m | 3.6m/s | -13.1°C | 37.2% | 549.3hPa | 2.9V | 00:00:00 | 00:00:00 | 00:00:00 | |
| DB0UT-7 | 2026-09-04 23:01:19 | 51.37463 | 7.22542 | 114° | 68km/h | 5001m | 3.3m/s | -13.0°C | 37.9% | 549.7hPa | 2.9V | 00:00:00 | 00:43:23 | 00:00:00 | |
| DH3RM | 2026-09-04 23:01:17 | 51.37469 | 7.22518 | 115° | 66km/h | 4997m | 5.4m/s | -13.0°C | 36.3% | 550.1hPa | 2.9V | 00:00:00 | 00:00:00 | 00:00:00 | |
| DO2KSM | 2026-09-04 23:01:15 | 51.37483 | 7.22469 | 112° | 68km/h | 4987m | 3.8m/s | -12.9°C | 35.6% | 550.8hPa | 2.9V | 00:00:00 | 00:00:00 | 00:00:00 | |
| DO1YAY-16 | 2026-09-04 23:01:14 | 51.37494 | 7.22418 | 107° | 66km/h | 4978m | 4.5m/s | -12.9°C | 34.7% | 551.5hPa | 2.9V | 00:00:00 | 00:00:00 | 00:00:00 | |
| DL1KLB | 2026-09-04 23:01:13 | 51.37494 | 7.22418 | 108° | 68km/h | 4978m | 4.5m/s | -12.9°C | 34.7% | 551.5hPa | 2.9V | 00:00:00 | 00:00:00 | 00:00:00 | |
| DH3RM | 2026-09-04 23:01:10 | 51.37510 | 7.22340 | 110° | 68km/h | 4966m | 3.6m/s | -12.7°C | 34.4% | 552.4hPa | 2.9V | 00:00:00 | 00:00:00 | 00:00:00 | |
| DJ3KS | 2026-09-04 23:01:08 | 51.37521 | 7.22288 | 109° | 64km/h | 4956m | 5.6m/s | -12.6°C | 33.3% | 553.1hPa | 2.9V | 00:00:00 | 00:00:00 | 00:00:00 | |
| DD1CC1-15 | 2026-09-04 23:01:05 | 51.37537 | 7.22214 | 111° | 66km/h | 4944m | 3.3m/s | -12.5°C | 32.3% | 554.0hPa | 2.9V | 00:00:00 | 00:00:00 | 00:00:00 | |
| DH3RM | 2026-09-04 23:01:03 | 51.37548 | 7.22162 | 111° | 68km/h | 4935m | 4.1m/s | -12.5°C | 31.7% | 554.6hPa | 2.9V | 00:00:00 | 00:00:00 | 00:00:00 | |
| DL3AQ-11 | 2026-09-04 23:01:02 | 51.37567 | 7.22082 | 110° | 73km/h | 4923m | 3.5m/s | -12.4°C | 30.3% | 555.4hPa | 2.9V | 00:00:00 | 00:00:00 | 00:00:00 | |
| DD1CC8 | 2026-09-04 23:01:01 | 51.37574 | 7.22055 | 110° | 69km/h | 4919m | 4.3m/s | -12.3°C | 29.8% | 555.7hPa | 2.9V | 00:00:00 | 00:00:00 | 00:00:00 | |
| WPPR-10 | 2026-09-04 23:00:55 | 51.37607 | 7.21924 | 112° | 68km/h | 4899m | 4.8m/s | -12.2°C | 29.6% | 557.2hPa | 2.9V | 00:00:00 | 00:00:00 | 00:00:00 | |
| DL3AQ-11 | 2026-09-04 23:00:49 | 51.37647 | 7.21741 | 106° | 69km/h | 4870m | 4.5m/s | -11.9°C | 28.5% | 559.2hPa | 2.9V | 00:00:00 | 00:00:00 | 00:00:00 | |
| DO3DL | 2026-09-04 23:00:48 | 51.37642 | 7.21768 | 107° | 69km/h | 4875m | 4.2m/s | -11.9°C | 28.5% | 559.0hPa | 2.9V | 00:00:00 | 00:00:00 | 00:00:00 | |
| BIOWL1-15 | 2026-09-04 23:00:31 | 51.37749 | 7.21273 | 101° | 69km/h | 4788m | 5.9m/s | 0°C | 0% | 0hPa | 2.9V | 18:12:15 | 00:42:35 | 00:00:00 | |
| DH3RM | 2026-09-04 23:00:30 | 51.37749 | 7.21273 | 102° | 69km/h | 4789m | 5.9m/s | -11.1°C | 24.4% | 565.3hPa | 2.9V | 00:00:00 | 00:00:00 | 00:00:00 | |
| BIOWL1-15 | 2026-09-04 23:00:16 | 51.37855 | 7.20792 | 110° | 60km/h | 4679m | 5.6m/s | 0°C | 0% | 0hPa | 2.9V | 18:12:15 | 00:42:17 | 00:00:00 | |
| BIOWL1-15 | 2026-09-04 23:00:08 | 51.37896 | 7.20604 | 109° | 77km/h | 4639m | 5m/s | 0°C | 0% | 0hPa | 2.9V | 18:12:15 | 00:42:10 | 00:00:00 | |
| BIOWL7-15 | 2026-09-04 23:00:05 | 51.37896 | 7.20604 | 110° | 77km/h | 4639m | 5.0m/s | 0°C | 0% | 0hPa | 2.9V | 00:00:00 | 00:00:00 | 00:00:00 | |
| DD1CC1-15 | 2026-09-04 23:00:03 | 51.37908 | 7.20548 | 108° | 71km/h | 4630m | 3.2m/s | -9.7°C | 25.4% | 577.1hPa | 2.9V | 00:00:00 | 00:00:00 | 00:00:00 | |
| DJ2KF-10 | 2026-09-04 23:00:02 | 51.37917 | 7.20492 | 102° | 68km/h | 4622m | 5.9m/s | -9.6°C | 25.8% | 577.6hPa | 2.9V | 00:00:00 | 00:42:06 | 00:00:00 | |
| DO3DL | 2026-09-04 23:00:01 | 51.37917 | 7.20492 | 103° | 71km/h | 4622m | 5.9m/s | -9.6°C | 25.1% | 577.7hPa | 2.9V | 00:00:00 | 00:00:00 | 00:00:00 | |
| DD1CC8 | 2026-09-04 22:59:59 | 51.37929 | 7.20384 | 101° | 58km/h | 4601m | 5.0m/s | -9.5°C | 29.2% | 579.1hPa | 2.9V | 00:00:00 | 00:00:00 | 00:00:00 | |
| WPPR-10 | 2026-09-04 22:59:53 | 51.37960 | 7.20234 | 110° | 69km/h | 4567m | 5.1m/s | -9.2°C | 29.0% | 581.7hPa | 2.9V | 00:00:00 | 00:00:00 | 00:00:00 | |
| DD8BA-10 | 2026-09-04 22:59:52 | 51.37960 | 7.20234 | 111° | 68km/h | 4567m | 5.0m/s | 0°C | 0% | 0hPa | 2.9V | 00:00:00 | 00:00:00 | 00:00:00 | |
| DH3RM | 2026-09-04 22:59:50 | 51.37966 | 7.20207 | 110° | 71km/h | 4562m | 5.2m/s | -9.1°C | 28.9% | 582.1hPa | 2.9V | 00:00:00 | 00:00:00 | 00:00:00 | |
| DB0UT-7 | 2026-09-04 22:59:49 | 51.37977 | 7.20152 | 106° | 68km/h | 4552m | 4.2m/s | -9.0°C | 29.5% | 582.7hPa | 2.9V | 00:00:00 | 00:00:00 | 00:00:00 | |
| DD1CC3-15 | 2026-09-04 22:59:48 | 51.37977 | 7.20152 | 107° | 69km/h | 4552m | 4.3m/s | -9.0°C | 28.7% | 582.8hPa | 2.9V | 00:00:00 | 00:00:00 | 00:00:00 | |
| DH3RM | 2026-09-04 22:59:44 | 51.37995 | 7.20048 | 104° | 64km/h | 4535m | 2.9m/s | -8.9°C | 29.1% | 584.1hPa | 2.9V | 00:00:00 | 00:00:00 | 00:00:00 | |
| DD8BA-10 | 2026-09-04 22:59:42 | 51.38007 | 7.19970 | 106° | 68km/h | 4523m | 3.6m/s | 0°C | 0% | 0hPa | 2.9V | 00:00:00 | 00:00:00 | 00:00:00 | |
| DO1YAY-16 | 2026-09-04 22:59:41 | 51.38012 | 7.19944 | 106° | 68km/h | 4518m | 4.5m/s | -8.7°C | 29.2% | 585.4hPa | 2.9V | 00:00:00 | 00:00:00 | 00:00:00 | |
| AU51GT2 | 2026-09-04 22:59:40 | 51.38017 | 7.19918 | 106° | 66km/h | 4514m | 4.2m/s | -8.7°C | 29.2% | 585.7hPa | 2.9V | 00:00:00 | 00:00:00 | 00:00:00 | |
| Es werden nur die letzten 3500 von 3873 Frames angezeigt. GPX/KML und Diagramme bleiben verfügbar. | |||||||||||||||